<?xml version="1.0" encoding="UTF-8" standalone="no" ?>
<gpx xmlns="http://www.topografix.com/GPX/1/1" xmlns:xsi="http://www.w3.org/2001/XMLSchema-instance" xsi:schemaLocation="http://www.topografix.com/GPX/1/1 http://www.topografix.com/GPX/1/1/gpx.xsd" version="1.1" creator="VisuGPX - https://www.visugpx.com">
  <metadata>
    <name>Tour d'Europe: étape 519</name>
  </metadata>
  <trk>
    <name><![CDATA[Tour d'Europe: étape 519]]></name>
    <extensions>
      <line xmlns="http://www.topografix.com/GPX/gpx_style/0/2">
        <color>0000FF</color>
        <width>4</width>
      </line>
    </extensions>
    <trkseg>
      <trkpt lat="41.64549" lon="41.62557">
        <ele>90.953061</ele>
        <time>2021-11-29T06:41:44.052Z</time>
      </trkpt>
      <trkpt lat="41.64672" lon="41.62418">
        <ele>37.528171</ele>
        <time>2021-11-29T07:05:08.228Z</time>
      </trkpt>
      <trkpt lat="41.6484" lon="41.62212">
        <ele>29.353204</ele>
        <time>2021-11-29T07:06:50.264Z</time>
      </trkpt>
      <trkpt lat="41.64714" lon="41.61965">
        <ele>31.9841</ele>
        <time>2021-11-29T07:07:59.244Z</time>
      </trkpt>
      <trkpt lat="41.64547" lon="41.61724">
        <ele>31.294108</ele>
        <time>2021-11-29T07:09:02.268Z</time>
      </trkpt>
      <trkpt lat="41.64358" lon="41.61495">
        <ele>33.567472</ele>
        <time>2021-11-29T07:10:08.259Z</time>
      </trkpt>
      <trkpt lat="41.64173" lon="41.61258">
        <ele>34.20468</ele>
        <time>2021-11-29T07:11:12.246Z</time>
      </trkpt>
      <trkpt lat="41.63984" lon="41.61038">
        <ele>31.975081</ele>
        <time>2021-11-29T07:12:18.246Z</time>
      </trkpt>
      <trkpt lat="41.63786" lon="41.60827">
        <ele>33.97857</ele>
        <time>2021-11-29T07:13:23.244Z</time>
      </trkpt>
      <trkpt lat="41.636" lon="41.60616">
        <ele>35.684262</ele>
        <time>2021-11-29T07:14:19.306Z</time>
      </trkpt>
      <trkpt lat="41.63412" lon="41.60426">
        <ele>33.630501</ele>
        <time>2021-11-29T07:15:12.261Z</time>
      </trkpt>
      <trkpt lat="41.63218" lon="41.60232">
        <ele>30.09867</ele>
        <time>2021-11-29T07:16:06.273Z</time>
      </trkpt>
      <trkpt lat="41.63003" lon="41.60033">
        <ele>28.222335</ele>
        <time>2021-11-29T07:17:08.247Z</time>
      </trkpt>
      <trkpt lat="41.62807" lon="41.5983">
        <ele>29.944147</ele>
        <time>2021-11-29T07:18:14.241Z</time>
      </trkpt>
      <trkpt lat="41.62636" lon="41.59629">
        <ele>32.337001</ele>
        <time>2021-11-29T07:19:17.266Z</time>
      </trkpt>
      <trkpt lat="41.62449" lon="41.59415">
        <ele>35.19823</ele>
        <time>2021-11-29T07:20:23.248Z</time>
      </trkpt>
      <trkpt lat="41.62262" lon="41.59168">
        <ele>34.788369</ele>
        <time>2021-11-29T07:21:29.252Z</time>
      </trkpt>
      <trkpt lat="41.6207" lon="41.58954">
        <ele>32.909867</ele>
        <time>2021-11-29T07:22:29.258Z</time>
      </trkpt>
      <trkpt lat="41.61892" lon="41.58744">
        <ele>29.960556</ele>
        <time>2021-11-29T07:23:35.264Z</time>
      </trkpt>
      <trkpt lat="41.61865" lon="41.58954">
        <ele>26.190353</ele>
        <time>2021-11-29T07:24:45.243Z</time>
      </trkpt>
      <trkpt lat="41.61721" lon="41.59205">
        <ele>28.825825</ele>
        <time>2021-11-29T07:26:05.235Z</time>
      </trkpt>
      <trkpt lat="41.61579" lon="41.59447">
        <ele>27.100954</ele>
        <time>2021-11-29T07:27:24.264Z</time>
      </trkpt>
      <trkpt lat="41.61432" lon="41.59679">
        <ele>30.624418</ele>
        <time>2021-11-29T07:28:45.251Z</time>
      </trkpt>
      <trkpt lat="41.61268" lon="41.59893">
        <ele>28.883502</ele>
        <time>2021-11-29T07:30:01.275Z</time>
      </trkpt>
      <trkpt lat="41.61113" lon="41.60108">
        <ele>30.335477</ele>
        <time>2021-11-29T07:31:18.285Z</time>
      </trkpt>
      <trkpt lat="41.61049" lon="41.60417">
        <ele>37.284289</ele>
        <time>2021-11-29T07:32:44.270Z</time>
      </trkpt>
      <trkpt lat="41.61012" lon="41.60713">
        <ele>39.979273</ele>
        <time>2021-11-29T07:34:02.307Z</time>
      </trkpt>
      <trkpt lat="41.60942" lon="41.61003">
        <ele>41.841118</ele>
        <time>2021-11-29T07:35:20.275Z</time>
      </trkpt>
      <trkpt lat="41.60897" lon="41.61304">
        <ele>44.128338</ele>
        <time>2021-11-29T07:36:36.257Z</time>
      </trkpt>
      <trkpt lat="41.60713" lon="41.61418">
        <ele>36.015614</ele>
        <time>2021-11-29T07:37:43.271Z</time>
      </trkpt>
      <trkpt lat="41.6048" lon="41.61407">
        <ele>33.56911</ele>
        <time>2021-11-29T07:38:51.252Z</time>
      </trkpt>
      <trkpt lat="41.60276" lon="41.61423">
        <ele>36.937063</ele>
        <time>2021-11-29T07:39:59.265Z</time>
      </trkpt>
      <trkpt lat="41.60075" lon="41.61373">
        <ele>36.267957</ele>
        <time>2021-11-29T07:41:10.243Z</time>
      </trkpt>
      <trkpt lat="41.60009" lon="41.61031">
        <ele>33.11331</ele>
        <time>2021-11-29T07:42:13.291Z</time>
      </trkpt>
      <trkpt lat="41.59972" lon="41.60733">
        <ele>34.285184</ele>
        <time>2021-11-29T07:42:58.263Z</time>
      </trkpt>
      <trkpt lat="41.59933" lon="41.60422">
        <ele>32.58729</ele>
        <time>2021-11-29T07:43:42.253Z</time>
      </trkpt>
      <trkpt lat="41.59893" lon="41.6012">
        <ele>32.670621</ele>
        <time>2021-11-29T07:44:27.264Z</time>
      </trkpt>
      <trkpt lat="41.59776" lon="41.59862">
        <ele>34.570458</ele>
        <time>2021-11-29T07:45:24.271Z</time>
      </trkpt>
      <trkpt lat="41.59556" lon="41.59783">
        <ele>37.414328</ele>
        <time>2021-11-29T07:46:38.263Z</time>
      </trkpt>
      <trkpt lat="41.59346" lon="41.59724">
        <ele>37.758251</ele>
        <time>2021-11-29T07:47:45.268Z</time>
      </trkpt>
      <trkpt lat="41.59112" lon="41.59656">
        <ele>37.5613</ele>
        <time>2021-11-29T07:48:48.303Z</time>
      </trkpt>
      <trkpt lat="41.58887" lon="41.59595">
        <ele>35.143931</ele>
        <time>2021-11-29T07:49:37.306Z</time>
      </trkpt>
      <trkpt lat="41.58666" lon="41.59526">
        <ele>33.162214</ele>
        <time>2021-11-29T07:50:26.250Z</time>
      </trkpt>
      <trkpt lat="41.58551" lon="41.59283">
        <ele>31.18933</ele>
        <time>2021-11-29T07:51:13.276Z</time>
      </trkpt>
      <trkpt lat="41.5856" lon="41.58988">
        <ele>32.553486</ele>
        <time>2021-11-29T07:51:56.270Z</time>
      </trkpt>
      <trkpt lat="41.58549" lon="41.58673">
        <ele>29.281562</ele>
        <time>2021-11-29T07:52:42.256Z</time>
      </trkpt>
      <trkpt lat="41.58421" lon="41.58414">
        <ele>34.567476</ele>
        <time>2021-11-29T07:53:30.269Z</time>
      </trkpt>
      <trkpt lat="41.58289" lon="41.58159">
        <ele>34.451614</ele>
        <time>2021-11-29T07:54:19.269Z</time>
      </trkpt>
      <trkpt lat="41.5816" lon="41.57912">
        <ele>31.265268</ele>
        <time>2021-11-29T07:55:06.255Z</time>
      </trkpt>
      <trkpt lat="41.58044" lon="41.57683">
        <ele>29.009534</ele>
        <time>2021-11-29T07:55:48.305Z</time>
      </trkpt>
      <trkpt lat="41.57856" lon="41.5747">
        <ele>30.596367</ele>
        <time>2021-11-29T07:56:45.265Z</time>
      </trkpt>
      <trkpt lat="41.57624" lon="41.57322">
        <ele>34.396312</ele>
        <time>2021-11-29T07:57:48.266Z</time>
      </trkpt>
      <trkpt lat="41.57399" lon="41.57215">
        <ele>32.503787</ele>
        <time>2021-11-29T07:58:52.300Z</time>
      </trkpt>
      <trkpt lat="41.5715" lon="41.5718">
        <ele>24.268752</ele>
        <time>2021-11-29T08:15:19.309Z</time>
      </trkpt>
      <trkpt lat="41.56902" lon="41.57152">
        <ele>27.646925</ele>
        <time>2021-11-29T08:16:16.308Z</time>
      </trkpt>
      <trkpt lat="41.567" lon="41.57062">
        <ele>27.21074</ele>
        <time>2021-11-29T08:17:01.314Z</time>
      </trkpt>
      <trkpt lat="41.5649" lon="41.56924">
        <ele>25.849743</ele>
        <time>2021-11-29T08:17:47.307Z</time>
      </trkpt>
      <trkpt lat="41.56271" lon="41.56814">
        <ele>32.621236</ele>
        <time>2021-11-29T08:18:31.292Z</time>
      </trkpt>
      <trkpt lat="41.56047" lon="41.56721">
        <ele>28.798369</ele>
        <time>2021-11-29T08:19:21.287Z</time>
      </trkpt>
      <trkpt lat="41.55818" lon="41.56621">
        <ele>30.190996</ele>
        <time>2021-11-29T08:20:11.256Z</time>
      </trkpt>
      <trkpt lat="41.55606" lon="41.56535">
        <ele>28.674913</ele>
        <time>2021-11-29T08:20:57.318Z</time>
      </trkpt>
      <trkpt lat="41.55384" lon="41.56457">
        <ele>21.134246</ele>
        <time>2021-11-29T08:21:43.291Z</time>
      </trkpt>
      <trkpt lat="41.55162" lon="41.56416">
        <ele>30.607824</ele>
        <time>2021-11-29T08:22:27.271Z</time>
      </trkpt>
      <trkpt lat="41.54938" lon="41.56419">
        <ele>46.80494</ele>
        <time>2021-11-29T08:23:11.274Z</time>
      </trkpt>
      <trkpt lat="41.54685" lon="41.56423">
        <ele>50.321857</ele>
        <time>2021-11-29T08:24:08.265Z</time>
      </trkpt>
      <trkpt lat="41.54494" lon="41.56301">
        <ele>44.518204</ele>
        <time>2021-11-29T08:25:05.261Z</time>
      </trkpt>
      <trkpt lat="41.54405" lon="41.56012">
        <ele>38.753113</ele>
        <time>2021-11-29T08:26:21.268Z</time>
      </trkpt>
      <trkpt lat="41.54257" lon="41.55796">
        <ele>48.323261</ele>
        <time>2021-11-29T08:27:30.313Z</time>
      </trkpt>
      <trkpt lat="41.54125" lon="41.55529">
        <ele>45.163854</ele>
        <time>2021-11-29T08:28:27.265Z</time>
      </trkpt>
      <trkpt lat="41.53971" lon="41.55318">
        <ele>44.847705</ele>
        <time>2021-11-29T08:29:17.282Z</time>
      </trkpt>
      <trkpt lat="41.53739" lon="41.55191">
        <ele>64.99932</ele>
        <time>2021-11-29T08:30:18.269Z</time>
      </trkpt>
      <trkpt lat="41.53528" lon="41.55058">
        <ele>71.628424</ele>
        <time>2021-11-29T08:31:21.272Z</time>
      </trkpt>
      <trkpt lat="41.53303" lon="41.54962">
        <ele>60.160833</ele>
        <time>2021-11-29T08:32:12.264Z</time>
      </trkpt>
      <trkpt lat="41.53068" lon="41.54906">
        <ele>46.88681</ele>
        <time>2021-11-29T08:35:58.259Z</time>
      </trkpt>
      <trkpt lat="41.52836" lon="41.54874">
        <ele>42.156207</ele>
        <time>2021-11-29T08:36:43.270Z</time>
      </trkpt>
      <trkpt lat="41.52622" lon="41.54883">
        <ele>41.56637</ele>
        <time>2021-11-29T08:37:27.268Z</time>
      </trkpt>
      <trkpt lat="41.5237" lon="41.54869">
        <ele>41.710779</ele>
        <time>2021-11-29T08:38:19.255Z</time>
      </trkpt>
      <trkpt lat="41.52142" lon="41.54857">
        <ele>21.384497</ele>
        <time>2021-11-29T08:39:25.259Z</time>
      </trkpt>
      <trkpt lat="41.51928" lon="41.54774">
        <ele>47.958396</ele>
        <time>2021-11-29T09:29:13.279Z</time>
      </trkpt>
      <trkpt lat="41.51736" lon="41.54588">
        <ele>52.38799</ele>
        <time>2021-11-29T09:43:35.911Z</time>
      </trkpt>
      <trkpt lat="41.51553" lon="41.54465">
        <ele>37.61804</ele>
        <time>2021-11-29T09:44:43.915Z</time>
      </trkpt>
      <trkpt lat="41.51346" lon="41.54361">
        <ele>40.762032</ele>
        <time>2021-11-29T09:45:51.910Z</time>
      </trkpt>
      <trkpt lat="41.51129" lon="41.54221">
        <ele>37.85686</ele>
        <time>2021-11-29T09:46:54.916Z</time>
      </trkpt>
      <trkpt lat="41.51022" lon="41.53912">
        <ele>33.201854</ele>
        <time>2021-11-29T09:48:00.906Z</time>
      </trkpt>
      <trkpt lat="41.5082" lon="41.53714">
        <ele>38.45433</ele>
        <time>2021-11-29T09:49:01.914Z</time>
      </trkpt>
      <trkpt lat="41.50629" lon="41.53564">
        <ele>37.515874</ele>
        <time>2021-11-29T09:49:47.903Z</time>
      </trkpt>
      <trkpt lat="41.504" lon="41.53459">
        <ele>35.765869</ele>
        <time>2021-11-29T09:50:35.942Z</time>
      </trkpt>
      <trkpt lat="41.50179" lon="41.53328">
        <ele>36.000729</ele>
        <time>2021-11-29T09:51:19.903Z</time>
      </trkpt>
      <trkpt lat="41.49956" lon="41.53217">
        <ele>35.236486</ele>
        <time>2021-11-29T09:52:10.902Z</time>
      </trkpt>
      <trkpt lat="41.49721" lon="41.53187">
        <ele>35.093414</ele>
        <time>2021-11-29T09:53:03.905Z</time>
      </trkpt>
      <trkpt lat="41.49471" lon="41.53174">
        <ele>38.152367</ele>
        <time>2021-11-29T09:54:06.909Z</time>
      </trkpt>
      <trkpt lat="41.49224" lon="41.53089">
        <ele>36.155337</ele>
        <time>2021-11-29T09:55:06.921Z</time>
      </trkpt>
      <trkpt lat="41.4899" lon="41.53005">
        <ele>34.798041</ele>
        <time>2021-11-29T09:55:59.926Z</time>
      </trkpt>
      <trkpt lat="41.48777" lon="41.5289">
        <ele>38.699036</ele>
        <time>2021-11-29T09:56:47.904Z</time>
      </trkpt>
      <trkpt lat="41.48596" lon="41.52702">
        <ele>40.407812</ele>
        <time>2021-11-29T09:57:31.929Z</time>
      </trkpt>
      <trkpt lat="41.48415" lon="41.52497">
        <ele>35.877579</ele>
        <time>2021-11-29T09:58:13.953Z</time>
      </trkpt>
      <trkpt lat="41.48224" lon="41.52288">
        <ele>37.572055</ele>
        <time>2021-11-29T09:59:13.929Z</time>
      </trkpt>
      <trkpt lat="41.48146" lon="41.52017">
        <ele>31.36493</ele>
        <time>2021-11-29T09:59:59.910Z</time>
      </trkpt>
      <trkpt lat="41.48055" lon="41.51742">
        <ele>43.032831</ele>
        <time>2021-11-29T10:00:49.920Z</time>
      </trkpt>
      <trkpt lat="41.47925" lon="41.51499">
        <ele>54.012484</ele>
        <time>2021-11-29T10:01:36.922Z</time>
      </trkpt>
      <trkpt lat="41.47838" lon="41.51202">
        <ele>53.896652</ele>
        <time>2021-11-29T10:02:30.933Z</time>
      </trkpt>
      <trkpt lat="41.47691" lon="41.50933">
        <ele>41.592817</ele>
        <time>2021-11-29T10:03:33.923Z</time>
      </trkpt>
      <trkpt lat="41.47531" lon="41.50693">
        <ele>42.631852</ele>
        <time>2021-11-29T10:04:28.951Z</time>
      </trkpt>
      <trkpt lat="41.47319" lon="41.50466">
        <ele>39.657463</ele>
        <time>2021-11-29T10:05:34.910Z</time>
      </trkpt>
      <trkpt lat="41.47145" lon="41.50287">
        <ele>35.044829</ele>
        <time>2021-11-29T10:06:19.955Z</time>
      </trkpt>
      <trkpt lat="41.47081" lon="41.50008">
        <ele>30.480331</ele>
        <time>2021-11-29T10:07:03.912Z</time>
      </trkpt>
      <trkpt lat="41.47044" lon="41.49732">
        <ele>25.839864</ele>
        <time>2021-11-29T10:07:47.917Z</time>
      </trkpt>
      <trkpt lat="41.46961" lon="41.49437">
        <ele>23.574086</ele>
        <time>2021-11-29T10:08:33.902Z</time>
      </trkpt>
      <trkpt lat="41.46959" lon="41.49133">
        <ele>21.221419</ele>
        <time>2021-11-29T10:09:21.926Z</time>
      </trkpt>
      <trkpt lat="41.46805" lon="41.4893">
        <ele>18.610991</ele>
        <time>2021-11-29T10:10:05.915Z</time>
      </trkpt>
      <trkpt lat="41.46594" lon="41.48755">
        <ele>16.446404</ele>
        <time>2021-11-29T10:11:00.904Z</time>
      </trkpt>
      <trkpt lat="41.46454" lon="41.48546">
        <ele>13.084427</ele>
        <time>2021-11-29T10:11:45.918Z</time>
      </trkpt>
      <trkpt lat="41.4632" lon="41.48288">
        <ele>11.160352</ele>
        <time>2021-11-29T10:12:38.927Z</time>
      </trkpt>
      <trkpt lat="41.46167" lon="41.48083">
        <ele>11.468588</ele>
        <time>2021-11-29T10:13:22.916Z</time>
      </trkpt>
      <trkpt lat="41.46134" lon="41.47796">
        <ele>4.884648</ele>
        <time>2021-11-29T10:14:07.907Z</time>
      </trkpt>
      <trkpt lat="41.4608" lon="41.47517">
        <ele>-0.693505</ele>
        <time>2021-11-29T10:14:53.921Z</time>
      </trkpt>
      <trkpt lat="41.45908" lon="41.47373">
        <ele>-1.778627</ele>
        <time>2021-11-29T10:15:36.913Z</time>
      </trkpt>
      <trkpt lat="41.45691" lon="41.47293">
        <ele>3.713747</ele>
        <time>2021-11-29T10:16:20.917Z</time>
      </trkpt>
      <trkpt lat="41.45463" lon="41.4724">
        <ele>1.587068</ele>
        <time>2021-11-29T10:17:05.914Z</time>
      </trkpt>
      <trkpt lat="41.45278" lon="41.47077">
        <ele>-3.948892</ele>
        <time>2021-11-29T10:17:51.909Z</time>
      </trkpt>
      <trkpt lat="41.45163" lon="41.46793">
        <ele>-7.644682</ele>
        <time>2021-11-29T10:18:47.899Z</time>
      </trkpt>
      <trkpt lat="41.45082" lon="41.46487">
        <ele>-9.335807</ele>
        <time>2021-11-29T10:19:45.919Z</time>
      </trkpt>
      <trkpt lat="41.4491" lon="41.46263">
        <ele>-13.43981</ele>
        <time>2021-11-29T10:20:44.910Z</time>
      </trkpt>
      <trkpt lat="41.44734" lon="41.4609">
        <ele>-14.544383</ele>
        <time>2021-11-29T10:21:29.929Z</time>
      </trkpt>
      <trkpt lat="41.4455" lon="41.45907">
        <ele>-6.114143</ele>
        <time>2021-11-29T10:22:13.922Z</time>
      </trkpt>
      <trkpt lat="41.4434" lon="41.45756">
        <ele>-0.82631</ele>
        <time>2021-11-29T10:22:57.911Z</time>
      </trkpt>
      <trkpt lat="41.44133" lon="41.45658">
        <ele>0.071894</ele>
        <time>2021-11-29T10:23:41.922Z</time>
      </trkpt>
      <trkpt lat="41.43923" lon="41.45454">
        <ele>1.048461</ele>
        <time>2021-11-29T10:24:42.906Z</time>
      </trkpt>
      <trkpt lat="41.43753" lon="41.45239">
        <ele>2.220825</ele>
        <time>2021-11-29T10:25:41.913Z</time>
      </trkpt>
      <trkpt lat="41.43563" lon="41.45103">
        <ele>11.924139</ele>
        <time>2021-11-29T10:26:26.957Z</time>
      </trkpt>
      <trkpt lat="41.43347" lon="41.44974">
        <ele>22.18544</ele>
        <time>2021-11-29T10:27:16.935Z</time>
      </trkpt>
      <trkpt lat="41.43144" lon="41.44845">
        <ele>19.031537</ele>
        <time>2021-11-29T10:27:58.924Z</time>
      </trkpt>
      <trkpt lat="41.42952" lon="41.44672">
        <ele>21.579968</ele>
        <time>2021-11-29T10:28:42.919Z</time>
      </trkpt>
      <trkpt lat="41.42784" lon="41.44483">
        <ele>24.482485</ele>
        <time>2021-11-29T10:29:26.936Z</time>
      </trkpt>
      <trkpt lat="41.42595" lon="41.44301">
        <ele>24.043022</ele>
        <time>2021-11-29T10:30:12.914Z</time>
      </trkpt>
      <trkpt lat="41.42376" lon="41.44155">
        <ele>20.968353</ele>
        <time>2021-11-29T10:30:56.918Z</time>
      </trkpt>
      <trkpt lat="41.42177" lon="41.44028">
        <ele>15.891985</ele>
        <time>2021-11-29T10:31:38.950Z</time>
      </trkpt>
      <trkpt lat="41.4202" lon="41.43835">
        <ele>16.11364</ele>
        <time>2021-11-29T10:32:22.920Z</time>
      </trkpt>
      <trkpt lat="41.41779" lon="41.43769">
        <ele>26.151724</ele>
        <time>2021-11-29T10:33:17.916Z</time>
      </trkpt>
      <trkpt lat="41.41578" lon="41.43655">
        <ele>25.153634</ele>
        <time>2021-11-29T10:34:01.921Z</time>
      </trkpt>
      <trkpt lat="41.41366" lon="41.43526">
        <ele>23.398877</ele>
        <time>2021-11-29T10:34:45.907Z</time>
      </trkpt>
      <trkpt lat="41.41158" lon="41.43379">
        <ele>26.522323</ele>
        <time>2021-11-29T10:35:32.925Z</time>
      </trkpt>
      <trkpt lat="41.40954" lon="41.43238">
        <ele>32.809981</ele>
        <time>2021-11-29T10:36:20.938Z</time>
      </trkpt>
      <trkpt lat="41.40737" lon="41.43084">
        <ele>32.496953</ele>
        <time>2021-11-29T10:37:14.996Z</time>
      </trkpt>
      <trkpt lat="41.40555" lon="41.42928">
        <ele>29.015936</ele>
        <time>2021-11-29T10:38:01.911Z</time>
      </trkpt>
      <trkpt lat="41.40359" lon="41.4275">
        <ele>29.223197</ele>
        <time>2021-11-29T10:38:54.914Z</time>
      </trkpt>
      <trkpt lat="41.40178" lon="41.42598">
        <ele>27.700467</ele>
        <time>2021-11-29T10:39:40.920Z</time>
      </trkpt>
      <trkpt lat="41.39963" lon="41.42409">
        <ele>28.623018</ele>
        <time>2021-11-29T10:40:39.912Z</time>
      </trkpt>
      <trkpt lat="41.39762" lon="41.42237">
        <ele>30.658737</ele>
        <time>2021-11-29T10:42:04.910Z</time>
      </trkpt>
      <trkpt lat="41.39667" lon="41.42185">
        <ele>30.658737</ele>
        <time>2021-11-29T10:44:01.924Z</time>
      </trkpt>
      <trkpt lat="41.39679" lon="41.42218">
        <ele>50.097405</ele>
        <time>2021-11-30T05:26:21.747Z</time>
      </trkpt>
      <trkpt lat="41.39596" lon="41.42097">
        <ele>50.805769</ele>
        <time>2021-11-30T05:29:14.143Z</time>
      </trkpt>
      <trkpt lat="41.39416" lon="41.4193">
        <ele>54.709399</ele>
        <time>2021-11-30T05:30:10.164Z</time>
      </trkpt>
      <trkpt lat="41.39264" lon="41.41925">
        <ele>56.900948</ele>
        <time>2021-11-30T05:31:14.186Z</time>
      </trkpt>
      <trkpt lat="41.3922" lon="41.42179">
        <ele>52.91834</ele>
        <time>2021-11-30T05:32:18.145Z</time>
      </trkpt>
      <trkpt lat="41.39144" lon="41.42416">
        <ele>45.477633</ele>
        <time>2021-11-30T05:33:17.180Z</time>
      </trkpt>
      <trkpt lat="41.39106" lon="41.42695">
        <ele>44.859482</ele>
        <time>2021-11-30T05:34:23.158Z</time>
      </trkpt>
      <trkpt lat="41.39045" lon="41.42949">
        <ele>43.242931</ele>
        <time>2021-11-30T05:35:34.135Z</time>
      </trkpt>
      <trkpt lat="41.38964" lon="41.43185">
        <ele>48.986728</ele>
        <time>2021-11-30T05:36:46.159Z</time>
      </trkpt>
      <trkpt lat="41.38941" lon="41.43404">
        <ele>56.051288</ele>
        <time>2021-11-30T05:38:16.155Z</time>
      </trkpt>
      <trkpt lat="41.38847" lon="41.43607">
        <ele>58.555673</ele>
        <time>2021-11-30T05:39:51.156Z</time>
      </trkpt>
      <trkpt lat="41.38804" lon="41.43875">
        <ele>57.095128</ele>
        <time>2021-11-30T05:40:57.160Z</time>
      </trkpt>
      <trkpt lat="41.38802" lon="41.44127">
        <ele>55.539745</ele>
        <time>2021-11-30T05:41:53.164Z</time>
      </trkpt>
      <trkpt lat="41.38826" lon="41.44397">
        <ele>56.916033</ele>
        <time>2021-11-30T05:42:58.140Z</time>
      </trkpt>
      <trkpt lat="41.38927" lon="41.44622">
        <ele>65.816214</ele>
        <time>2021-11-30T05:44:24.142Z</time>
      </trkpt>
      <trkpt lat="41.3892" lon="41.44844">
        <ele>71.956713</ele>
        <time>2021-11-30T05:45:53.149Z</time>
      </trkpt>
      <trkpt lat="41.38934" lon="41.45003">
        <ele>69.937925</ele>
        <time>2021-11-30T05:46:56.154Z</time>
      </trkpt>
      <trkpt lat="41.38914" lon="41.4517">
        <ele>74.465907</ele>
        <time>2021-11-30T05:48:03.142Z</time>
      </trkpt>
      <trkpt lat="41.38903" lon="41.45431">
        <ele>82.069131</ele>
        <time>2021-11-30T05:49:28.152Z</time>
      </trkpt>
      <trkpt lat="41.3893" lon="41.45718">
        <ele>90.633171</ele>
        <time>2021-11-30T05:50:35.158Z</time>
      </trkpt>
      <trkpt lat="41.3898" lon="41.45936">
        <ele>86.628372</ele>
        <time>2021-11-30T05:51:34.141Z</time>
      </trkpt>
      <trkpt lat="41.38979" lon="41.46114">
        <ele>98.02729</ele>
        <time>2021-11-30T05:53:29.150Z</time>
      </trkpt>
      <trkpt lat="41.39029" lon="41.46349">
        <ele>101.934861</ele>
        <time>2021-11-30T05:54:49.152Z</time>
      </trkpt>
      <trkpt lat="41.39124" lon="41.46603">
        <ele>98.79818</ele>
        <time>2021-11-30T05:55:49.144Z</time>
      </trkpt>
      <trkpt lat="41.39092" lon="41.4685">
        <ele>99.032427</ele>
        <time>2021-11-30T05:57:00.162Z</time>
      </trkpt>
      <trkpt lat="41.3906" lon="41.47112">
        <ele>93.739787</ele>
        <time>2021-11-30T05:58:08.150Z</time>
      </trkpt>
      <trkpt lat="41.38977" lon="41.47301">
        <ele>90.517025</ele>
        <time>2021-11-30T05:59:08.167Z</time>
      </trkpt>
      <trkpt lat="41.38984" lon="41.47559">
        <ele>91.391855</ele>
        <time>2021-11-30T06:00:09.145Z</time>
      </trkpt>
      <trkpt lat="41.38926" lon="41.47829">
        <ele>98.936092</ele>
        <time>2021-11-30T06:01:21.171Z</time>
      </trkpt>
      <trkpt lat="41.38912" lon="41.48076">
        <ele>114.176284</ele>
        <time>2021-11-30T06:03:00.159Z</time>
      </trkpt>
      <trkpt lat="41.38874" lon="41.48333">
        <ele>120.476743</ele>
        <time>2021-11-30T06:04:50.146Z</time>
      </trkpt>
      <trkpt lat="41.38834" lon="41.48592">
        <ele>125.535152</ele>
        <time>2021-11-30T06:06:40.216Z</time>
      </trkpt>
      <trkpt lat="41.3877" lon="41.48823">
        <ele>137.471773</ele>
        <time>2021-11-30T06:08:41.175Z</time>
      </trkpt>
      <trkpt lat="41.3834" lon="41.50027">
        <ele>194.095188</ele>
        <time>2021-11-30T06:18:45.184Z</time>
      </trkpt>
      <trkpt lat="41.38378" lon="41.56966">
        <ele>429.837801</ele>
        <time>2021-11-30T07:10:21.007Z</time>
      </trkpt>
      <trkpt lat="41.38231" lon="41.57215">
        <ele>415.961705</ele>
        <time>2021-11-30T07:18:22.009Z</time>
      </trkpt>
      <trkpt lat="41.38247" lon="41.57514">
        <ele>406.712857</ele>
        <time>2021-11-30T07:19:02.020Z</time>
      </trkpt>
      <trkpt lat="41.3814" lon="41.57757">
        <ele>393.087096</ele>
        <time>2021-11-30T07:19:40.019Z</time>
      </trkpt>
      <trkpt lat="41.38055" lon="41.58072">
        <ele>371.241407</ele>
        <time>2021-11-30T07:20:20.000Z</time>
      </trkpt>
      <trkpt lat="41.38077" lon="41.5838">
        <ele>357.997301</ele>
        <time>2021-11-30T07:20:58.049Z</time>
      </trkpt>
      <trkpt lat="41.38063" lon="41.58707">
        <ele>347.867486</ele>
        <time>2021-11-30T07:21:38.021Z</time>
      </trkpt>
      <trkpt lat="41.38105" lon="41.59019">
        <ele>337.358322</ele>
        <time>2021-11-30T07:22:18.009Z</time>
      </trkpt>
      <trkpt lat="41.38009" lon="41.59268">
        <ele>321.150439</ele>
        <time>2021-11-30T07:22:56.020Z</time>
      </trkpt>
      <trkpt lat="41.38104" lon="41.59488">
        <ele>312.409043</ele>
        <time>2021-11-30T07:23:37.021Z</time>
      </trkpt>
      <trkpt lat="41.38056" lon="41.59794">
        <ele>299.642665</ele>
        <time>2021-11-30T07:24:15.027Z</time>
      </trkpt>
      <trkpt lat="41.37943" lon="41.60094">
        <ele>282.977801</ele>
        <time>2021-11-30T07:24:55.017Z</time>
      </trkpt>
      <trkpt lat="41.37874" lon="41.60395">
        <ele>280.216828</ele>
        <time>2021-11-30T07:25:35.011Z</time>
      </trkpt>
      <trkpt lat="41.37975" lon="41.60647">
        <ele>283.251076</ele>
        <time>2021-11-30T07:26:13.012Z</time>
      </trkpt>
      <trkpt lat="41.3801" lon="41.60947">
        <ele>280.353583</ele>
        <time>2021-11-30T07:26:54.023Z</time>
      </trkpt>
      <trkpt lat="41.38035" lon="41.61218">
        <ele>273.034835</ele>
        <time>2021-11-30T07:27:32.030Z</time>
      </trkpt>
      <trkpt lat="41.38085" lon="41.61579">
        <ele>261.600703</ele>
        <time>2021-11-30T07:28:12.006Z</time>
      </trkpt>
      <trkpt lat="41.37941" lon="41.61842">
        <ele>248.530927</ele>
        <time>2021-11-30T07:28:50.019Z</time>
      </trkpt>
      <trkpt lat="41.37725" lon="41.61954">
        <ele>239.254017</ele>
        <time>2021-11-30T07:29:28.017Z</time>
      </trkpt>
      <trkpt lat="41.37612" lon="41.62241">
        <ele>229.656154</ele>
        <time>2021-11-30T07:30:08.029Z</time>
      </trkpt>
      <trkpt lat="41.37436" lon="41.62437">
        <ele>222.813414</ele>
        <time>2021-11-30T07:30:46.023Z</time>
      </trkpt>
      <trkpt lat="41.37374" lon="41.62691">
        <ele>221.191351</ele>
        <time>2021-11-30T07:31:33.020Z</time>
      </trkpt>
      <trkpt lat="41.37457" lon="41.62953">
        <ele>219.149706</ele>
        <time>2021-11-30T07:32:18.011Z</time>
      </trkpt>
      <trkpt lat="41.3729" lon="41.63086">
        <ele>215.914328</ele>
        <time>2021-11-30T07:33:04.999Z</time>
      </trkpt>
      <trkpt lat="41.37071" lon="41.63195">
        <ele>210.045776</ele>
        <time>2021-11-30T07:33:46.009Z</time>
      </trkpt>
      <trkpt lat="41.37026" lon="41.63443">
        <ele>204.588867</ele>
        <time>2021-11-30T07:34:43.018Z</time>
      </trkpt>
      <trkpt lat="41.36876" lon="41.63651">
        <ele>208.997671</ele>
        <time>2021-11-30T07:35:43.011Z</time>
      </trkpt>
      <trkpt lat="41.369" lon="41.6393">
        <ele>213.225272</ele>
        <time>2021-11-30T07:36:38.020Z</time>
      </trkpt>
      <trkpt lat="41.36849" lon="41.64222">
        <ele>207.684034</ele>
        <time>2021-11-30T07:37:16.062Z</time>
      </trkpt>
      <trkpt lat="41.36775" lon="41.6453">
        <ele>194.712778</ele>
        <time>2021-11-30T07:37:56.052Z</time>
      </trkpt>
      <trkpt lat="41.36829" lon="41.64808">
        <ele>186.136178</ele>
        <time>2021-11-30T07:38:36.029Z</time>
      </trkpt>
      <trkpt lat="41.36797" lon="41.65047">
        <ele>184.685788</ele>
        <time>2021-11-30T07:39:25.043Z</time>
      </trkpt>
      <trkpt lat="41.36939" lon="41.65245">
        <ele>168.07634</ele>
        <time>2021-11-30T07:40:05.009Z</time>
      </trkpt>
      <trkpt lat="41.37038" lon="41.65518">
        <ele>164.475622</ele>
        <time>2021-11-30T07:40:43.039Z</time>
      </trkpt>
      <trkpt lat="41.36842" lon="41.65566">
        <ele>167.462024</ele>
        <time>2021-11-30T07:41:39.036Z</time>
      </trkpt>
      <trkpt lat="41.36752" lon="41.65836">
        <ele>155.725413</ele>
        <time>2021-11-30T07:42:18.010Z</time>
      </trkpt>
      <trkpt lat="41.36639" lon="41.6611">
        <ele>152.967098</ele>
        <time>2021-11-30T07:43:01.015Z</time>
      </trkpt>
      <trkpt lat="41.36646" lon="41.66358">
        <ele>150.855429</ele>
        <time>2021-11-30T07:43:39.018Z</time>
      </trkpt>
      <trkpt lat="41.36492" lon="41.66546">
        <ele>145.77739</ele>
        <time>2021-11-30T07:44:19.007Z</time>
      </trkpt>
      <trkpt lat="41.36341" lon="41.66736">
        <ele>140.53518</ele>
        <time>2021-11-30T07:45:00.008Z</time>
      </trkpt>
      <trkpt lat="41.36498" lon="41.66915">
        <ele>142.328795</ele>
        <time>2021-11-30T07:45:41.058Z</time>
      </trkpt>
      <trkpt lat="41.3654" lon="41.67205">
        <ele>145.766072</ele>
        <time>2021-11-30T07:46:32.052Z</time>
      </trkpt>
      <trkpt lat="41.36507" lon="41.67459">
        <ele>140.445251</ele>
        <time>2021-11-30T07:47:22.047Z</time>
      </trkpt>
      <trkpt lat="41.36335" lon="41.67485">
        <ele>139.858222</ele>
        <time>2021-11-30T08:08:01.090Z</time>
      </trkpt>
      <trkpt lat="41.36115" lon="41.6745">
        <ele>137.814529</ele>
        <time>2021-11-30T08:08:59.100Z</time>
      </trkpt>
      <trkpt lat="41.35958" lon="41.67618">
        <ele>140.521895</ele>
        <time>2021-11-30T08:09:55.083Z</time>
      </trkpt>
      <trkpt lat="41.35745" lon="41.67628">
        <ele>133.513019</ele>
        <time>2021-11-30T08:10:56.080Z</time>
      </trkpt>
      <trkpt lat="41.35556" lon="41.67728">
        <ele>135.439344</ele>
        <time>2021-11-30T08:11:55.078Z</time>
      </trkpt>
      <trkpt lat="41.35329" lon="41.6766">
        <ele>139.825779</ele>
        <time>2021-11-30T08:12:51.089Z</time>
      </trkpt>
      <trkpt lat="41.35198" lon="41.67845">
        <ele>144.321749</ele>
        <time>2021-11-30T08:13:48.109Z</time>
      </trkpt>
      <trkpt lat="41.35217" lon="41.68088">
        <ele>152.723275</ele>
        <time>2021-11-30T08:15:17.101Z</time>
      </trkpt>
      <trkpt lat="41.35257" lon="41.68351">
        <ele>167.232712</ele>
        <time>2021-11-30T08:20:14.099Z</time>
      </trkpt>
      <trkpt lat="41.35311" lon="41.68183">
        <ele>176.259777</ele>
        <time>2021-11-30T08:21:55.094Z</time>
      </trkpt>
      <trkpt lat="41.35388" lon="41.68192">
        <ele>190.342536</ele>
        <time>2021-11-30T08:24:00.096Z</time>
      </trkpt>
      <trkpt lat="41.35309" lon="41.68427">
        <ele>207.425515</ele>
        <time>2021-11-30T08:26:03.126Z</time>
      </trkpt>
      <trkpt lat="41.35271" lon="41.68659">
        <ele>222.153194</ele>
        <time>2021-11-30T08:27:56.111Z</time>
      </trkpt>
      <trkpt lat="41.35206" lon="41.68905">
        <ele>235.842106</ele>
        <time>2021-11-30T08:29:59.110Z</time>
      </trkpt>
      <trkpt lat="41.35131" lon="41.69112">
        <ele>244.763558</ele>
        <time>2021-11-30T08:31:54.099Z</time>
      </trkpt>
      <trkpt lat="41.34962" lon="41.69203">
        <ele>249.77389</ele>
        <time>2021-11-30T08:33:51.139Z</time>
      </trkpt>
      <trkpt lat="41.34779" lon="41.69267">
        <ele>258.411497</ele>
        <time>2021-11-30T08:35:50.163Z</time>
      </trkpt>
      <trkpt lat="41.34601" lon="41.69392">
        <ele>256.40426</ele>
        <time>2021-11-30T08:37:09.095Z</time>
      </trkpt>
      <trkpt lat="41.3437" lon="41.69323">
        <ele>248.177032</ele>
        <time>2021-11-30T08:37:46.113Z</time>
      </trkpt>
      <trkpt lat="41.34257" lon="41.69479">
        <ele>250.051559</ele>
        <time>2021-11-30T08:38:39.101Z</time>
      </trkpt>
      <trkpt lat="41.3421" lon="41.69735">
        <ele>255.58576</ele>
        <time>2021-11-30T08:40:09.099Z</time>
      </trkpt>
      <trkpt lat="41.34133" lon="41.69902">
        <ele>260.063801</ele>
        <time>2021-11-30T08:41:16.088Z</time>
      </trkpt>
      <trkpt lat="41.33978" lon="41.70085">
        <ele>253.071144</ele>
        <time>2021-11-30T08:42:07.117Z</time>
      </trkpt>
      <trkpt lat="41.33847" lon="41.70293">
        <ele>252.841256</ele>
        <time>2021-11-30T08:43:06.103Z</time>
      </trkpt>
      <trkpt lat="41.33705" lon="41.70437">
        <ele>257.083182</ele>
        <time>2021-11-30T08:44:19.131Z</time>
      </trkpt>
      <trkpt lat="41.33535" lon="41.70548">
        <ele>261.374527</ele>
        <time>2021-11-30T08:45:38.137Z</time>
      </trkpt>
      <trkpt lat="41.33269" lon="41.70636">
        <ele>248.676598</ele>
        <time>2021-11-30T08:46:18.103Z</time>
      </trkpt>
      <trkpt lat="41.33109" lon="41.70762">
        <ele>243.899841</ele>
        <time>2021-11-30T08:47:30.121Z</time>
      </trkpt>
      <trkpt lat="41.3301" lon="41.7102">
        <ele>250.388954</ele>
        <time>2021-11-30T08:48:30.124Z</time>
      </trkpt>
      <trkpt lat="41.33003" lon="41.713">
        <ele>261.337207</ele>
        <time>2021-11-30T08:49:25.138Z</time>
      </trkpt>
      <trkpt lat="41.3297" lon="41.71631">
        <ele>261.861264</ele>
        <time>2021-11-30T08:50:00.137Z</time>
      </trkpt>
      <trkpt lat="41.32871" lon="41.71868">
        <ele>267.191296</ele>
        <time>2021-11-30T08:51:12.116Z</time>
      </trkpt>
      <trkpt lat="41.32782" lon="41.72035">
        <ele>263.575561</ele>
        <time>2021-11-30T08:52:47.143Z</time>
      </trkpt>
      <trkpt lat="41.32588" lon="41.72201">
        <ele>244.733087</ele>
        <time>2021-11-30T08:53:35.109Z</time>
      </trkpt>
      <trkpt lat="41.32376" lon="41.7244">
        <ele>241.295932</ele>
        <time>2021-11-30T08:54:05.109Z</time>
      </trkpt>
      <trkpt lat="41.3236" lon="41.72787">
        <ele>249.224589</ele>
        <time>2021-11-30T08:54:46.121Z</time>
      </trkpt>
      <trkpt lat="41.32313" lon="41.72987">
        <ele>262.048166</ele>
        <time>2021-11-30T08:55:46.093Z</time>
      </trkpt>
      <trkpt lat="41.32168" lon="41.73203">
        <ele>259.347024</ele>
        <time>2021-11-30T08:56:50.146Z</time>
      </trkpt>
      <trkpt lat="41.32061" lon="41.73432">
        <ele>249.542609</ele>
        <time>2021-11-30T08:57:35.106Z</time>
      </trkpt>
      <trkpt lat="41.31883" lon="41.73361">
        <ele>239.431303</ele>
        <time>2021-11-30T08:58:40.143Z</time>
      </trkpt>
      <trkpt lat="41.31717" lon="41.73476">
        <ele>253.714145</ele>
        <time>2021-11-30T09:00:01.094Z</time>
      </trkpt>
      <trkpt lat="41.31539" lon="41.73527">
        <ele>258.035422</ele>
        <time>2021-11-30T09:01:20.109Z</time>
      </trkpt>
      <trkpt lat="41.3134" lon="41.7342">
        <ele>256.247983</ele>
        <time>2021-11-30T09:02:22.140Z</time>
      </trkpt>
      <trkpt lat="41.31077" lon="41.7327">
        <ele>250.015223</ele>
        <time>2021-11-30T09:03:02.150Z</time>
      </trkpt>
      <trkpt lat="41.30865" lon="41.73266">
        <ele>251.724003</ele>
        <time>2021-11-30T09:03:55.108Z</time>
      </trkpt>
      <trkpt lat="41.30714" lon="41.73479">
        <ele>259.816085</ele>
        <time>2021-11-30T09:04:55.120Z</time>
      </trkpt>
      <trkpt lat="41.30335" lon="41.73993">
        <ele>266.04971</ele>
        <time>2021-11-30T09:07:12.093Z</time>
      </trkpt>
      <trkpt lat="41.3012" lon="41.74111">
        <ele>253.432554</ele>
        <time>2021-11-30T09:07:56.155Z</time>
      </trkpt>
      <trkpt lat="41.30014" lon="41.74481">
        <ele>251.04345</ele>
        <time>2021-11-30T09:08:36.141Z</time>
      </trkpt>
      <trkpt lat="41.2996" lon="41.74707">
        <ele>276.578322</ele>
        <time>2021-11-30T09:09:41.116Z</time>
      </trkpt>
      <trkpt lat="41.2986" lon="41.74914">
        <ele>282.63108</ele>
        <time>2021-11-30T09:11:08.126Z</time>
      </trkpt>
      <trkpt lat="41.29753" lon="41.75123">
        <ele>282.397511</ele>
        <time>2021-11-30T09:12:21.110Z</time>
      </trkpt>
      <trkpt lat="41.29635" lon="41.75353">
        <ele>284.758894</ele>
        <time>2021-11-30T09:13:21.147Z</time>
      </trkpt>
      <trkpt lat="41.29448" lon="41.75515">
        <ele>277.154555</ele>
        <time>2021-11-30T09:14:20.113Z</time>
      </trkpt>
      <trkpt lat="41.29227" lon="41.75535">
        <ele>276.355196</ele>
        <time>2021-11-30T09:15:03.099Z</time>
      </trkpt>
      <trkpt lat="41.28987" lon="41.75492">
        <ele>255.054118</ele>
        <time>2021-11-30T09:15:32.143Z</time>
      </trkpt>
      <trkpt lat="41.28876" lon="41.75687">
        <ele>248.089659</ele>
        <time>2021-11-30T09:15:53.119Z</time>
      </trkpt>
      <trkpt lat="41.28412" lon="41.75878">
        <ele>218.109485</ele>
        <time>2021-11-30T09:16:59.116Z</time>
      </trkpt>
      <trkpt lat="41.28196" lon="41.75925">
        <ele>228.465448</ele>
        <time>2021-11-30T09:17:46.116Z</time>
      </trkpt>
      <trkpt lat="41.27509" lon="41.76227">
        <ele>222.424169</ele>
        <time>2021-11-30T09:20:15.111Z</time>
      </trkpt>
      <trkpt lat="41.27315" lon="41.76285">
        <ele>216.663449</ele>
        <time>2021-11-30T09:20:59.107Z</time>
      </trkpt>
      <trkpt lat="41.27151" lon="41.76416">
        <ele>224.498045</ele>
        <time>2021-11-30T09:21:47.093Z</time>
      </trkpt>
      <trkpt lat="41.27081" lon="41.76714">
        <ele>227.260359</ele>
        <time>2021-11-30T09:22:41.107Z</time>
      </trkpt>
      <trkpt lat="41.26935" lon="41.76964">
        <ele>227.297915</ele>
        <time>2021-11-30T09:23:36.092Z</time>
      </trkpt>
      <trkpt lat="41.26727" lon="41.77012">
        <ele>228.591275</ele>
        <time>2021-11-30T09:24:32.148Z</time>
      </trkpt>
      <trkpt lat="41.26504" lon="41.77075">
        <ele>233.20308</ele>
        <time>2021-11-30T09:25:34.128Z</time>
      </trkpt>
      <trkpt lat="41.263" lon="41.7716">
        <ele>238.296903</ele>
        <time>2021-11-30T09:26:31.110Z</time>
      </trkpt>
      <trkpt lat="41.26125" lon="41.77294">
        <ele>239.647394</ele>
        <time>2021-11-30T09:27:57.111Z</time>
      </trkpt>
      <trkpt lat="41.25931" lon="41.77382">
        <ele>243.512474</ele>
        <time>2021-11-30T09:29:24.113Z</time>
      </trkpt>
      <trkpt lat="41.25751" lon="41.773">
        <ele>260.254597</ele>
        <time>2021-11-30T09:30:48.113Z</time>
      </trkpt>
      <trkpt lat="41.25583" lon="41.77164">
        <ele>275.013229</ele>
        <time>2021-11-30T09:32:21.107Z</time>
      </trkpt>
      <trkpt lat="41.25404" lon="41.7719">
        <ele>268.199453</ele>
        <time>2021-11-30T09:33:55.105Z</time>
      </trkpt>
      <trkpt lat="41.2519" lon="41.77181">
        <ele>272.303115</ele>
        <time>2021-11-30T09:34:44.116Z</time>
      </trkpt>
      <trkpt lat="41.24955" lon="41.7722">
        <ele>264.134966</ele>
        <time>2021-11-30T09:35:24.121Z</time>
      </trkpt>
      <trkpt lat="41.24892" lon="41.77505">
        <ele>250.700493</ele>
        <time>2021-11-30T09:36:02.126Z</time>
      </trkpt>
      <trkpt lat="41.24627" lon="41.77669">
        <ele>238.784282</ele>
        <time>2021-11-30T09:36:42.107Z</time>
      </trkpt>
      <trkpt lat="41.24322" lon="41.77656">
        <ele>252.018932</ele>
        <time>2021-11-30T09:37:20.117Z</time>
      </trkpt>
      <trkpt lat="41.24067" lon="41.77801">
        <ele>249.515069</ele>
        <time>2021-11-30T09:38:00.112Z</time>
      </trkpt>
      <trkpt lat="41.23908" lon="41.78128">
        <ele>233.185673</ele>
        <time>2021-11-30T09:38:40.123Z</time>
      </trkpt>
      <trkpt lat="41.23717" lon="41.78133">
        <ele>234.014445</ele>
        <time>2021-11-30T09:39:25.109Z</time>
      </trkpt>
      <trkpt lat="41.23499" lon="41.78043">
        <ele>247.777847</ele>
        <time>2021-11-30T09:40:25.112Z</time>
      </trkpt>
      <trkpt lat="41.23339" lon="41.78218">
        <ele>233.2485</ele>
        <time>2021-11-30T09:41:23.114Z</time>
      </trkpt>
      <trkpt lat="41.23144" lon="41.78305">
        <ele>231.262186</ele>
        <time>2021-11-30T09:42:24.120Z</time>
      </trkpt>
      <trkpt lat="41.23" lon="41.78425">
        <ele>231.275679</ele>
        <time>2021-11-30T09:43:33.129Z</time>
      </trkpt>
      <trkpt lat="41.2289" lon="41.78662">
        <ele>228.292449</ele>
        <time>2021-11-30T09:44:33.102Z</time>
      </trkpt>
      <trkpt lat="41.22609" lon="41.78854">
        <ele>234.865563</ele>
        <time>2021-11-30T09:45:55.095Z</time>
      </trkpt>
      <trkpt lat="41.22412" lon="41.78991">
        <ele>236.145566</ele>
        <time>2021-11-30T09:46:52.120Z</time>
      </trkpt>
      <trkpt lat="41.22227" lon="41.79148">
        <ele>242.29281</ele>
        <time>2021-11-30T09:47:52.153Z</time>
      </trkpt>
      <trkpt lat="41.22056" lon="41.79297">
        <ele>246.871957</ele>
        <time>2021-11-30T09:49:08.115Z</time>
      </trkpt>
      <trkpt lat="41.21856" lon="41.7931">
        <ele>254.284108</ele>
        <time>2021-11-30T09:50:34.160Z</time>
      </trkpt>
      <trkpt lat="41.21663" lon="41.79374">
        <ele>258.726985</ele>
        <time>2021-11-30T09:51:59.144Z</time>
      </trkpt>
      <trkpt lat="41.21475" lon="41.7947">
        <ele>261.088108</ele>
        <time>2021-11-30T09:53:12.113Z</time>
      </trkpt>
      <trkpt lat="41.21184" lon="41.79692">
        <ele>264.913892</ele>
        <time>2021-11-30T09:54:34.119Z</time>
      </trkpt>
      <trkpt lat="41.21032" lon="41.79864">
        <ele>260.345096</ele>
        <time>2021-11-30T09:55:19.106Z</time>
      </trkpt>
      <trkpt lat="41.20884" lon="41.80042">
        <ele>258.08408</ele>
        <time>2021-11-30T09:56:01.117Z</time>
      </trkpt>
      <trkpt lat="41.20748" lon="41.80243">
        <ele>258.212937</ele>
        <time>2021-11-30T09:56:41.136Z</time>
      </trkpt>
      <trkpt lat="41.20583" lon="41.80395">
        <ele>255.563288</ele>
        <time>2021-11-30T09:57:19.127Z</time>
      </trkpt>
      <trkpt lat="41.20411" lon="41.80814">
        <ele>247.674099</ele>
        <time>2021-11-30T09:58:31.119Z</time>
      </trkpt>
      <trkpt lat="41.19791" lon="41.81939">
        <ele>256.284197</ele>
        <time>2021-11-30T10:01:47.128Z</time>
      </trkpt>
      <trkpt lat="41.19611" lon="41.82062">
        <ele>253.996417</ele>
        <time>2021-11-30T10:02:28.126Z</time>
      </trkpt>
      <trkpt lat="41.1881" lon="41.83093">
        <ele>232.051027</ele>
        <time>2021-11-30T10:06:39.110Z</time>
      </trkpt>
      <trkpt lat="41.18841" lon="41.82816">
        <ele>210.903276</ele>
        <time>2021-11-30T10:07:25.119Z</time>
      </trkpt>
      <trkpt lat="41.18829" lon="41.827">
        <ele>210.903276</ele>
        <time>2021-11-30T10:11:02.159Z</time>
      </trkpt>
      <trkpt lat="41.18818" lon="41.82696">
        <ele>221.6</ele>
        <time>2021-12-02T05:29:33.501Z</time>
      </trkpt>
      <trkpt lat="41.1882" lon="41.8281">
        <ele>222.8</ele>
        <time>2021-12-02T05:30:10.493Z</time>
      </trkpt>
      <trkpt lat="41.1879" lon="41.83013">
        <ele>231.9</ele>
        <time>2021-12-02T05:32:11.490Z</time>
      </trkpt>
      <trkpt lat="41.18749" lon="41.82972">
        <ele>218.5</ele>
        <time>2021-12-02T05:33:20.494Z</time>
      </trkpt>
      <trkpt lat="41.18692" lon="41.83221">
        <ele>220.3</ele>
        <time>2021-12-02T05:34:28.498Z</time>
      </trkpt>
      <trkpt lat="41.18622" lon="41.83457">
        <ele>221.5</ele>
        <time>2021-12-02T05:35:26.489Z</time>
      </trkpt>
      <trkpt lat="41.18432" lon="41.83609">
        <ele>219.7</ele>
        <time>2021-12-02T05:45:59.532Z</time>
      </trkpt>
      <trkpt lat="41.18232" lon="41.83596">
        <ele>218.5</ele>
        <time>2021-12-02T05:47:28.483Z</time>
      </trkpt>
      <trkpt lat="41.1804" lon="41.83781">
        <ele>218.4</ele>
        <time>2021-12-02T05:49:20.493Z</time>
      </trkpt>
      <trkpt lat="41.17853" lon="41.83866">
        <ele>218.9</ele>
        <time>2021-12-02T05:50:02.501Z</time>
      </trkpt>
      <trkpt lat="41.17745" lon="41.84078">
        <ele>222.1</ele>
        <time>2021-12-02T05:50:52.499Z</time>
      </trkpt>
      <trkpt lat="41.17836" lon="41.84359">
        <ele>234.8</ele>
        <time>2021-12-02T05:51:52.483Z</time>
      </trkpt>
      <trkpt lat="41.17991" lon="41.84581">
        <ele>227.7</ele>
        <time>2021-12-02T05:52:52.477Z</time>
      </trkpt>
      <trkpt lat="41.18159" lon="41.84791">
        <ele>226.7</ele>
        <time>2021-12-02T05:53:51.518Z</time>
      </trkpt>
      <trkpt lat="41.18206" lon="41.8507">
        <ele>237.1</ele>
        <time>2021-12-02T05:54:48.492Z</time>
      </trkpt>
      <trkpt lat="41.18097" lon="41.85357">
        <ele>238.8</ele>
        <time>2021-12-02T05:55:49.490Z</time>
      </trkpt>
      <trkpt lat="41.18007" lon="41.85551">
        <ele>230.9</ele>
        <time>2021-12-02T05:56:55.534Z</time>
      </trkpt>
      <trkpt lat="41.17951" lon="41.85369">
        <ele>237.2</ele>
        <time>2021-12-02T05:58:23.506Z</time>
      </trkpt>
      <trkpt lat="41.18013" lon="41.85124">
        <ele>254.8</ele>
        <time>2021-12-02T06:00:33.494Z</time>
      </trkpt>
      <trkpt lat="41.18019" lon="41.84877">
        <ele>269.5</ele>
        <time>2021-12-02T06:02:49.530Z</time>
      </trkpt>
      <trkpt lat="41.1785" lon="41.84779">
        <ele>283.9</ele>
        <time>2021-12-02T06:05:13.511Z</time>
      </trkpt>
      <trkpt lat="41.17691" lon="41.84834">
        <ele>302.8</ele>
        <time>2021-12-02T06:07:39.525Z</time>
      </trkpt>
      <trkpt lat="41.17834" lon="41.84972">
        <ele>317.8</ele>
        <time>2021-12-02T06:10:13.498Z</time>
      </trkpt>
      <trkpt lat="41.17914" lon="41.85114">
        <ele>331</ele>
        <time>2021-12-02T06:12:41.514Z</time>
      </trkpt>
      <trkpt lat="41.17813" lon="41.85327">
        <ele>347.6</ele>
        <time>2021-12-02T06:15:12.508Z</time>
      </trkpt>
      <trkpt lat="41.17771" lon="41.85575">
        <ele>364.5</ele>
        <time>2021-12-02T06:17:35.515Z</time>
      </trkpt>
      <trkpt lat="41.17798" lon="41.85816">
        <ele>382.2</ele>
        <time>2021-12-02T06:20:02.497Z</time>
      </trkpt>
      <trkpt lat="41.17827" lon="41.86061">
        <ele>392.7</ele>
        <time>2021-12-02T06:22:33.535Z</time>
      </trkpt>
      <trkpt lat="41.17862" lon="41.86302">
        <ele>411.2</ele>
        <time>2021-12-02T06:25:08.499Z</time>
      </trkpt>
      <trkpt lat="41.17744" lon="41.86348">
        <ele>425.7</ele>
        <time>2021-12-02T06:27:36.512Z</time>
      </trkpt>
      <trkpt lat="41.17549" lon="41.86323">
        <ele>435.4</ele>
        <time>2021-12-02T06:30:10.508Z</time>
      </trkpt>
      <trkpt lat="41.16503" lon="41.8696">
        <ele>441.1</ele>
        <time>2021-12-02T06:36:26.175Z</time>
      </trkpt>
      <trkpt lat="41.1631" lon="41.8739">
        <ele>457.3</ele>
        <time>2021-12-02T06:38:13.176Z</time>
      </trkpt>
      <trkpt lat="41.16322" lon="41.87662">
        <ele>458.2</ele>
        <time>2021-12-02T06:39:17.194Z</time>
      </trkpt>
      <trkpt lat="41.14571" lon="41.89047">
        <ele>437.8</ele>
        <time>2021-12-02T06:49:26.177Z</time>
      </trkpt>
      <trkpt lat="41.14243" lon="41.88977">
        <ele>441</ele>
        <time>2021-12-02T06:51:24.188Z</time>
      </trkpt>
      <trkpt lat="41.1406" lon="41.89002">
        <ele>444</ele>
        <time>2021-12-02T06:52:34.203Z</time>
      </trkpt>
      <trkpt lat="41.13167" lon="41.88852">
        <ele>504.5</ele>
        <time>2021-12-02T06:58:10.105Z</time>
      </trkpt>
      <trkpt lat="41.12917" lon="41.88168">
        <ele>480.1</ele>
        <time>2021-12-02T07:02:10.529Z</time>
      </trkpt>
      <trkpt lat="41.12491" lon="41.87086">
        <ele>511.3</ele>
        <time>2021-12-02T07:08:56.977Z</time>
      </trkpt>
      <trkpt lat="41.11899" lon="41.85669">
        <ele>500.9</ele>
        <time>2021-12-02T07:18:06.615Z</time>
      </trkpt>
      <trkpt lat="41.11224" lon="41.84849">
        <ele>504.2</ele>
        <time>2021-12-02T07:24:56.134Z</time>
      </trkpt>
      <trkpt lat="41.10836" lon="41.82983">
        <ele>523</ele>
        <time>2021-12-02T07:34:22.604Z</time>
      </trkpt>
      <trkpt lat="41.10342" lon="41.8189">
        <ele>499.5</ele>
        <time>2021-12-02T07:40:31.905Z</time>
      </trkpt>
      <trkpt lat="41.08733" lon="41.81644">
        <ele>483.1</ele>
        <time>2021-12-02T07:52:19.922Z</time>
      </trkpt>
      <trkpt lat="41.06612" lon="41.79852">
        <ele>433.7</ele>
        <time>2021-12-02T08:08:12.275Z</time>
      </trkpt>
      <trkpt lat="41.04357" lon="41.79972">
        <ele>436.2</ele>
        <time>2021-12-02T08:22:03.340Z</time>
      </trkpt>
      <trkpt lat="41.0334" lon="41.80195">
        <ele>409.9</ele>
        <time>2021-12-02T08:28:30.427Z</time>
      </trkpt>
      <trkpt lat="41.02099" lon="41.78965">
        <ele>422.4</ele>
        <time>2021-12-02T08:38:20.124Z</time>
      </trkpt>
      <trkpt lat="41.01189" lon="41.78122">
        <ele>402.9</ele>
        <time>2021-12-02T08:45:26.072Z</time>
      </trkpt>
      <trkpt lat="41.00577" lon="41.7721">
        <ele>420.4</ele>
        <time>2021-12-02T08:52:06.216Z</time>
      </trkpt>
      <trkpt lat="40.99674" lon="41.76417">
        <ele>409.7</ele>
        <time>2021-12-02T09:00:46.157Z</time>
      </trkpt>
      <trkpt lat="40.98798" lon="41.75959">
        <ele>504.6</ele>
        <time>2021-12-02T09:08:00.462Z</time>
      </trkpt>
      <trkpt lat="40.95819" lon="41.75674">
        <ele>449.1</ele>
        <time>2021-12-02T09:26:17.450Z</time>
      </trkpt>
      <trkpt lat="40.95179" lon="41.76221">
        <ele>424.7</ele>
        <time>2021-12-02T09:32:03.491Z</time>
      </trkpt>
      <trkpt lat="40.94136" lon="41.76348">
        <ele>488.8</ele>
        <time>2021-12-02T09:38:48.263Z</time>
      </trkpt>
      <trkpt lat="40.92087" lon="41.75472">
        <ele>554.4</ele>
        <time>2021-12-02T09:52:15.871Z</time>
      </trkpt>
      <trkpt lat="40.90863" lon="41.73619">
        <ele>572.8</ele>
        <time>2021-12-02T10:04:02.446Z</time>
      </trkpt>
      <trkpt lat="40.88753" lon="41.71992">
        <ele>459.7</ele>
        <time>2021-12-02T10:18:57.416Z</time>
      </trkpt>
      <trkpt lat="40.86411" lon="41.69977">
        <ele>559.5</ele>
        <time>2021-12-02T10:35:47.045Z</time>
      </trkpt>
      <trkpt lat="40.86205" lon="41.70025">
        <ele>548.1</ele>
        <time>2021-12-02T10:36:32.028Z</time>
      </trkpt>
      <trkpt lat="40.85815" lon="41.70019">
        <ele>547.2</ele>
        <time>2021-12-02T10:37:51.003Z</time>
      </trkpt>
      <trkpt lat="40.85613" lon="41.70006">
        <ele>549.3</ele>
        <time>2021-12-02T10:38:34.000Z</time>
      </trkpt>
      <trkpt lat="40.84852" lon="41.69172">
        <ele>534.7</ele>
        <time>2021-12-02T10:42:04.063Z</time>
      </trkpt>
      <trkpt lat="40.8402" lon="41.67758">
        <ele>588.8</ele>
        <time>2021-12-02T10:50:01.998Z</time>
      </trkpt>
      <trkpt lat="40.83817" lon="41.67715">
        <ele>587.1</ele>
        <time>2021-12-02T10:51:25.024Z</time>
      </trkpt>
      <trkpt lat="40.83618" lon="41.67674">
        <ele>595.4</ele>
        <time>2021-12-02T10:53:10.007Z</time>
      </trkpt>
      <trkpt lat="40.83471" lon="41.66881">
        <ele>616.3</ele>
        <time>2021-12-02T10:57:17.026Z</time>
      </trkpt>
      <trkpt lat="40.83423" lon="41.66626">
        <ele>616</ele>
        <time>2021-12-02T10:58:37.031Z</time>
      </trkpt>
      <trkpt lat="40.83308" lon="41.6574">
        <ele>817.9</ele>
        <time>2021-12-02T11:04:43.230Z</time>
      </trkpt>
      <trkpt lat="40.82886" lon="41.63262">
        <ele>1414.5</ele>
        <time>2021-12-02T11:15:47.701Z</time>
      </trkpt>
      <trkpt lat="40.82464" lon="41.60783">
        <ele>692.2</ele>
        <time>2021-12-02T11:26:52.214Z</time>
      </trkpt>
      <trkpt lat="40.81536" lon="41.5869">
        <ele>954.1</ele>
        <time>2021-12-02T11:38:05.582Z</time>
      </trkpt>
      <trkpt lat="40.81827" lon="41.56228">
        <ele>752.2</ele>
        <time>2021-12-02T11:49:32.822Z</time>
      </trkpt>
      <trkpt lat="40.81629" lon="41.5625">
        <ele>760.6</ele>
        <time>2021-12-02T11:56:09.513Z</time>
      </trkpt>
      <trkpt lat="40.81701" lon="41.56076">
        <ele>729.4</ele>
        <time>2021-12-02T11:56:49.501Z</time>
      </trkpt>
      <trkpt lat="40.81494" lon="41.56079">
        <ele>686.4</ele>
        <time>2021-12-02T11:57:28.520Z</time>
      </trkpt>
      <trkpt lat="40.81323" lon="41.56281">
        <ele>647.8</ele>
        <time>2021-12-02T11:58:08.513Z</time>
      </trkpt>
      <trkpt lat="40.81254" lon="41.56303">
        <ele>621.4</ele>
        <time>2021-12-02T11:58:53.495Z</time>
      </trkpt>
      <trkpt lat="40.81322" lon="41.56119">
        <ele>622.7</ele>
        <time>2021-12-02T12:03:37.514Z</time>
      </trkpt>
      <trkpt lat="40.81399" lon="41.55889">
        <ele>632.8</ele>
        <time>2021-12-02T12:05:09.507Z</time>
      </trkpt>
      <trkpt lat="40.81397" lon="41.55622">
        <ele>628.1</ele>
        <time>2021-12-02T12:06:05.498Z</time>
      </trkpt>
      <trkpt lat="40.81326" lon="41.55359">
        <ele>628.6</ele>
        <time>2021-12-02T12:07:14.509Z</time>
      </trkpt>
      <trkpt lat="40.81252" lon="41.55098">
        <ele>628.9</ele>
        <time>2021-12-02T12:08:16.508Z</time>
      </trkpt>
      <trkpt lat="40.814" lon="41.54959">
        <ele>622.1</ele>
        <time>2021-12-02T12:09:13.515Z</time>
      </trkpt>
      <trkpt lat="40.81585" lon="41.5487">
        <ele>619.3</ele>
        <time>2021-12-02T12:10:05.504Z</time>
      </trkpt>
      <trkpt lat="40.81701" lon="41.54686">
        <ele>628.1</ele>
        <time>2021-12-02T12:11:07.489Z</time>
      </trkpt>
      <trkpt lat="40.81855" lon="41.54499">
        <ele>639.7</ele>
        <time>2021-12-02T12:12:21.496Z</time>
      </trkpt>
      <trkpt lat="40.82038" lon="41.54369">
        <ele>649.3</ele>
        <time>2021-12-02T12:13:37.487Z</time>
      </trkpt>
      <trkpt lat="40.82002" lon="41.54312">
        <ele>649.3</ele>
        <time>2021-12-02T12:16:16.552Z</time>
      </trkpt>
      <trkpt lat="40.81995" lon="41.5432">
        <ele>691.433654</ele>
        <time>2021-12-03T06:10:49.402Z</time>
      </trkpt>
      <trkpt lat="40.82025" lon="41.54388">
        <ele>649.979385</ele>
        <time>2021-12-03T06:18:48.443Z</time>
      </trkpt>
      <trkpt lat="40.81831" lon="41.54523">
        <ele>648.58582</ele>
        <time>2021-12-03T06:19:49.443Z</time>
      </trkpt>
      <trkpt lat="40.81678" lon="41.54737">
        <ele>637.803761</ele>
        <time>2021-12-03T06:20:50.455Z</time>
      </trkpt>
      <trkpt lat="40.81478" lon="41.54841">
        <ele>622.131726</ele>
        <time>2021-12-03T06:21:44.455Z</time>
      </trkpt>
      <trkpt lat="40.81283" lon="41.54968">
        <ele>614.396951</ele>
        <time>2021-12-03T06:22:47.455Z</time>
      </trkpt>
      <trkpt lat="40.8109" lon="41.55141">
        <ele>607.368187</ele>
        <time>2021-12-03T06:23:48.442Z</time>
      </trkpt>
      <trkpt lat="40.81119" lon="41.55416">
        <ele>606.644143</ele>
        <time>2021-12-03T06:24:39.443Z</time>
      </trkpt>
      <trkpt lat="40.81261" lon="41.55654">
        <ele>610.020872</ele>
        <time>2021-12-03T06:25:32.452Z</time>
      </trkpt>
      <trkpt lat="40.81213" lon="41.55932">
        <ele>607.672394</ele>
        <time>2021-12-03T06:26:24.443Z</time>
      </trkpt>
      <trkpt lat="40.81126" lon="41.56199">
        <ele>605.042608</ele>
        <time>2021-12-03T06:27:14.506Z</time>
      </trkpt>
      <trkpt lat="40.81095" lon="41.56491">
        <ele>602.889351</ele>
        <time>2021-12-03T06:28:03.455Z</time>
      </trkpt>
      <trkpt lat="40.81053" lon="41.56788">
        <ele>603.602665</ele>
        <time>2021-12-03T06:29:03.442Z</time>
      </trkpt>
      <trkpt lat="40.81032" lon="41.57062">
        <ele>602.673981</ele>
        <time>2021-12-03T06:30:14.488Z</time>
      </trkpt>
      <trkpt lat="40.81006" lon="41.57349">
        <ele>602.359708</ele>
        <time>2021-12-03T06:31:15.456Z</time>
      </trkpt>
      <trkpt lat="40.81022" lon="41.57643">
        <ele>601.52997</ele>
        <time>2021-12-03T06:31:57.443Z</time>
      </trkpt>
      <trkpt lat="40.8105" lon="41.57955">
        <ele>604.17914</ele>
        <time>2021-12-03T06:32:40.454Z</time>
      </trkpt>
      <trkpt lat="40.80971" lon="41.58215">
        <ele>594.200088</ele>
        <time>2021-12-03T06:33:28.467Z</time>
      </trkpt>
      <trkpt lat="40.80937" lon="41.5852">
        <ele>589.669315</ele>
        <time>2021-12-03T06:34:20.446Z</time>
      </trkpt>
      <trkpt lat="40.80996" lon="41.58779">
        <ele>593.082947</ele>
        <time>2021-12-03T06:35:20.448Z</time>
      </trkpt>
      <trkpt lat="40.81139" lon="41.59084">
        <ele>592.891109</ele>
        <time>2021-12-03T06:36:04.450Z</time>
      </trkpt>
      <trkpt lat="40.81079" lon="41.59362">
        <ele>594.134888</ele>
        <time>2021-12-03T06:37:13.452Z</time>
      </trkpt>
      <trkpt lat="40.81132" lon="41.59619">
        <ele>593.295894</ele>
        <time>2021-12-03T06:38:10.452Z</time>
      </trkpt>
      <trkpt lat="40.81324" lon="41.5989">
        <ele>588.966261</ele>
        <time>2021-12-03T06:38:52.480Z</time>
      </trkpt>
      <trkpt lat="40.81399" lon="41.60181">
        <ele>584.910654</ele>
        <time>2021-12-03T06:39:47.438Z</time>
      </trkpt>
      <trkpt lat="40.81498" lon="41.60485">
        <ele>571.756903</ele>
        <time>2021-12-03T06:40:34.478Z</time>
      </trkpt>
      <trkpt lat="40.81635" lon="41.60735">
        <ele>572.468744</ele>
        <time>2021-12-03T06:41:23.452Z</time>
      </trkpt>
      <trkpt lat="40.81722" lon="41.61001">
        <ele>571.602242</ele>
        <time>2021-12-03T06:42:12.451Z</time>
      </trkpt>
      <trkpt lat="40.81726" lon="41.61281">
        <ele>568.885169</ele>
        <time>2021-12-03T06:43:15.454Z</time>
      </trkpt>
      <trkpt lat="40.81751" lon="41.61559">
        <ele>568.93377</ele>
        <time>2021-12-03T06:46:06.444Z</time>
      </trkpt>
      <trkpt lat="40.81741" lon="41.61886">
        <ele>564.79097</ele>
        <time>2021-12-03T06:47:01.459Z</time>
      </trkpt>
      <trkpt lat="40.8169" lon="41.62172">
        <ele>562.677097</ele>
        <time>2021-12-03T06:47:50.450Z</time>
      </trkpt>
      <trkpt lat="40.81548" lon="41.62371">
        <ele>563.627612</ele>
        <time>2021-12-03T06:48:49.479Z</time>
      </trkpt>
      <trkpt lat="40.81234" lon="41.62861">
        <ele>571.203829</ele>
        <time>2021-12-03T06:51:09.441Z</time>
      </trkpt>
      <trkpt lat="40.80975" lon="41.63845">
        <ele>565.537264</ele>
        <time>2021-12-03T06:54:20.445Z</time>
      </trkpt>
      <trkpt lat="40.80422" lon="41.64836">
        <ele>563.130114</ele>
        <time>2021-12-03T06:57:52.442Z</time>
      </trkpt>
      <trkpt lat="40.80082" lon="41.6535">
        <ele>563.078619</ele>
        <time>2021-12-03T06:59:54.464Z</time>
      </trkpt>
      <trkpt lat="40.80108" lon="41.6561">
        <ele>572.657695</ele>
        <time>2021-12-03T07:00:51.447Z</time>
      </trkpt>
      <trkpt lat="40.80265" lon="41.65721">
        <ele>570.834031</ele>
        <time>2021-12-03T07:01:47.467Z</time>
      </trkpt>
      <trkpt lat="40.80269" lon="41.6599">
        <ele>565.595097</ele>
        <time>2021-12-03T07:02:52.455Z</time>
      </trkpt>
      <trkpt lat="40.80069" lon="41.66142">
        <ele>554.937788</ele>
        <time>2021-12-03T07:03:52.442Z</time>
      </trkpt>
      <trkpt lat="40.79872" lon="41.66257">
        <ele>571.211829</ele>
        <time>2021-12-03T07:05:03.454Z</time>
      </trkpt>
      <trkpt lat="40.79679" lon="41.66391">
        <ele>578.414572</ele>
        <time>2021-12-03T07:06:21.472Z</time>
      </trkpt>
      <trkpt lat="40.79525" lon="41.66592">
        <ele>569.042172</ele>
        <time>2021-12-03T07:07:32.464Z</time>
      </trkpt>
      <trkpt lat="40.79546" lon="41.66841">
        <ele>581.541281</ele>
        <time>2021-12-03T07:08:36.468Z</time>
      </trkpt>
      <trkpt lat="40.79557" lon="41.67092">
        <ele>576.978118</ele>
        <time>2021-12-03T07:09:25.472Z</time>
      </trkpt>
      <trkpt lat="40.79469" lon="41.67344">
        <ele>574.725058</ele>
        <time>2021-12-03T07:10:27.448Z</time>
      </trkpt>
      <trkpt lat="40.79374" lon="41.67604">
        <ele>576.703298</ele>
        <time>2021-12-03T07:11:38.469Z</time>
      </trkpt>
      <trkpt lat="40.79273" lon="41.67839">
        <ele>581.334751</ele>
        <time>2021-12-03T07:12:57.462Z</time>
      </trkpt>
      <trkpt lat="40.7915" lon="41.68016">
        <ele>581.439908</ele>
        <time>2021-12-03T07:13:53.456Z</time>
      </trkpt>
      <trkpt lat="40.78944" lon="41.68025">
        <ele>582.45301</ele>
        <time>2021-12-03T07:15:06.456Z</time>
      </trkpt>
      <trkpt lat="40.78807" lon="41.68231">
        <ele>576.631313</ele>
        <time>2021-12-03T07:16:06.484Z</time>
      </trkpt>
      <trkpt lat="40.78631" lon="41.68419">
        <ele>580.271334</ele>
        <time>2021-12-03T07:17:07.497Z</time>
      </trkpt>
      <trkpt lat="40.78428" lon="41.68448">
        <ele>582.818908</ele>
        <time>2021-12-03T07:18:18.457Z</time>
      </trkpt>
      <trkpt lat="40.78257" lon="41.68578">
        <ele>588.862045</ele>
        <time>2021-12-03T07:19:27.443Z</time>
      </trkpt>
      <trkpt lat="40.78309" lon="41.6882">
        <ele>596.694673</ele>
        <time>2021-12-03T07:20:51.473Z</time>
      </trkpt>
      <trkpt lat="40.78437" lon="41.69017">
        <ele>592.487535</ele>
        <time>2021-12-03T07:22:02.469Z</time>
      </trkpt>
      <trkpt lat="40.78339" lon="41.69271">
        <ele>597.67068</ele>
        <time>2021-12-03T07:23:14.474Z</time>
      </trkpt>
      <trkpt lat="40.78322" lon="41.69533">
        <ele>604.454701</ele>
        <time>2021-12-03T07:24:26.452Z</time>
      </trkpt>
      <trkpt lat="40.78234" lon="41.69678">
        <ele>601.91256</ele>
        <time>2021-12-03T07:25:30.472Z</time>
      </trkpt>
      <trkpt lat="40.78015" lon="41.69728">
        <ele>603.045154</ele>
        <time>2021-12-03T07:26:44.467Z</time>
      </trkpt>
      <trkpt lat="40.77848" lon="41.6989">
        <ele>605.405528</ele>
        <time>2021-12-03T07:28:05.446Z</time>
      </trkpt>
      <trkpt lat="40.77823" lon="41.70135">
        <ele>610.585077</ele>
        <time>2021-12-03T07:44:52.145Z</time>
      </trkpt>
      <trkpt lat="40.77681" lon="41.70269">
        <ele>609.089303</ele>
        <time>2021-12-03T07:46:16.143Z</time>
      </trkpt>
      <trkpt lat="40.77501" lon="41.7014">
        <ele>617.036604</ele>
        <time>2021-12-03T07:47:58.144Z</time>
      </trkpt>
      <trkpt lat="40.77349" lon="41.69951">
        <ele>622.601691</ele>
        <time>2021-12-03T07:49:23.170Z</time>
      </trkpt>
      <trkpt lat="40.77219" lon="41.69737">
        <ele>625.126467</ele>
        <time>2021-12-03T07:50:39.229Z</time>
      </trkpt>
      <trkpt lat="40.77102" lon="41.69476">
        <ele>625.799863</ele>
        <time>2021-12-03T07:51:43.134Z</time>
      </trkpt>
      <trkpt lat="40.7698" lon="41.69265">
        <ele>629.10907</ele>
        <time>2021-12-03T07:52:44.134Z</time>
      </trkpt>
      <trkpt lat="40.76827" lon="41.69094">
        <ele>633.609271</ele>
        <time>2021-12-03T07:54:11.145Z</time>
      </trkpt>
      <trkpt lat="40.76661" lon="41.68941">
        <ele>644.501686</ele>
        <time>2021-12-03T07:55:58.185Z</time>
      </trkpt>
      <trkpt lat="40.76493" lon="41.68799">
        <ele>650.347668</ele>
        <time>2021-12-03T07:57:29.145Z</time>
      </trkpt>
      <trkpt lat="40.76352" lon="41.68615">
        <ele>652.422664</ele>
        <time>2021-12-03T07:59:01.165Z</time>
      </trkpt>
      <trkpt lat="40.7627" lon="41.68347">
        <ele>647.339173</ele>
        <time>2021-12-03T08:00:09.195Z</time>
      </trkpt>
      <trkpt lat="40.76244" lon="41.68059">
        <ele>650.541316</ele>
        <time>2021-12-03T08:01:14.170Z</time>
      </trkpt>
      <trkpt lat="40.76121" lon="41.67879">
        <ele>661.277663</ele>
        <time>2021-12-03T08:02:37.152Z</time>
      </trkpt>
      <trkpt lat="40.75946" lon="41.67754">
        <ele>673.849535</ele>
        <time>2021-12-03T08:04:36.149Z</time>
      </trkpt>
      <trkpt lat="40.75769" lon="41.67615">
        <ele>683.026676</ele>
        <time>2021-12-03T08:06:26.183Z</time>
      </trkpt>
      <trkpt lat="40.75585" lon="41.67525">
        <ele>695.986818</ele>
        <time>2021-12-03T08:08:28.149Z</time>
      </trkpt>
      <trkpt lat="40.754" lon="41.67442">
        <ele>707.197937</ele>
        <time>2021-12-03T08:10:54.153Z</time>
      </trkpt>
      <trkpt lat="40.75209" lon="41.67327">
        <ele>709.630068</ele>
        <time>2021-12-03T08:12:07.143Z</time>
      </trkpt>
      <trkpt lat="40.75011" lon="41.6735">
        <ele>714.351447</ele>
        <time>2021-12-03T08:13:49.151Z</time>
      </trkpt>
      <trkpt lat="40.74813" lon="41.67326">
        <ele>718.116522</ele>
        <time>2021-12-03T08:15:21.162Z</time>
      </trkpt>
      <trkpt lat="40.74656" lon="41.67147">
        <ele>711.251182</ele>
        <time>2021-12-03T08:16:04.155Z</time>
      </trkpt>
      <trkpt lat="40.74399" lon="41.67009">
        <ele>702.405129</ele>
        <time>2021-12-03T08:16:46.155Z</time>
      </trkpt>
      <trkpt lat="40.74205" lon="41.66859">
        <ele>700.508245</ele>
        <time>2021-12-03T08:17:30.165Z</time>
      </trkpt>
      <trkpt lat="40.74037" lon="41.66675">
        <ele>700.890027</ele>
        <time>2021-12-03T08:18:30.153Z</time>
      </trkpt>
      <trkpt lat="40.73846" lon="41.66534">
        <ele>693.319674</ele>
        <time>2021-12-03T08:19:39.149Z</time>
      </trkpt>
      <trkpt lat="40.73648" lon="41.66514">
        <ele>691.553943</ele>
        <time>2021-12-03T08:21:00.154Z</time>
      </trkpt>
      <trkpt lat="40.73453" lon="41.66486">
        <ele>718.634099</ele>
        <time>2021-12-03T08:22:09.157Z</time>
      </trkpt>
      <trkpt lat="40.73242" lon="41.66491">
        <ele>743.896983</ele>
        <time>2021-12-03T08:23:24.158Z</time>
      </trkpt>
      <trkpt lat="40.73029" lon="41.66507">
        <ele>741.098671</ele>
        <time>2021-12-03T08:24:48.160Z</time>
      </trkpt>
      <trkpt lat="40.72809" lon="41.66577">
        <ele>747.06738</ele>
        <time>2021-12-03T08:26:11.192Z</time>
      </trkpt>
      <trkpt lat="40.72635" lon="41.66702">
        <ele>743.145564</ele>
        <time>2021-12-03T08:27:26.179Z</time>
      </trkpt>
      <trkpt lat="40.72454" lon="41.66834">
        <ele>729.620544</ele>
        <time>2021-12-03T08:28:55.168Z</time>
      </trkpt>
      <trkpt lat="40.72332" lon="41.67041">
        <ele>745.257595</ele>
        <time>2021-12-03T08:30:40.157Z</time>
      </trkpt>
      <trkpt lat="40.72177" lon="41.67186">
        <ele>750.667803</ele>
        <time>2021-12-03T08:32:40.167Z</time>
      </trkpt>
      <trkpt lat="40.71964" lon="41.67151">
        <ele>745.956246</ele>
        <time>2021-12-03T08:33:47.167Z</time>
      </trkpt>
      <trkpt lat="40.71758" lon="41.67256">
        <ele>736.524656</ele>
        <time>2021-12-03T08:34:46.181Z</time>
      </trkpt>
      <trkpt lat="40.71691" lon="41.67542">
        <ele>744.056896</ele>
        <time>2021-12-03T08:35:41.175Z</time>
      </trkpt>
      <trkpt lat="40.71553" lon="41.67764">
        <ele>723.080367</ele>
        <time>2021-12-03T08:36:52.171Z</time>
      </trkpt>
      <trkpt lat="40.71523" lon="41.6805">
        <ele>718.777413</ele>
        <time>2021-12-03T08:38:02.157Z</time>
      </trkpt>
      <trkpt lat="40.71322" lon="41.68067">
        <ele>759.342369</ele>
        <time>2021-12-03T08:39:17.168Z</time>
      </trkpt>
      <trkpt lat="40.71187" lon="41.67882">
        <ele>771.498213</ele>
        <time>2021-12-03T08:40:32.145Z</time>
      </trkpt>
      <trkpt lat="40.71016" lon="41.6782">
        <ele>700.552939</ele>
        <time>2021-12-03T08:57:22.267Z</time>
      </trkpt>
      <trkpt lat="40.70803" lon="41.67754">
        <ele>792.295323</ele>
        <time>2021-12-03T09:02:58.678Z</time>
      </trkpt>
      <trkpt lat="40.70601" lon="41.67685">
        <ele>800.305758</ele>
        <time>2021-12-03T09:04:01.742Z</time>
      </trkpt>
      <trkpt lat="40.70395" lon="41.67603">
        <ele>779.712833</ele>
        <time>2021-12-03T09:05:04.721Z</time>
      </trkpt>
      <trkpt lat="40.70188" lon="41.67591">
        <ele>763.278436</ele>
        <time>2021-12-03T09:06:13.678Z</time>
      </trkpt>
      <trkpt lat="40.69996" lon="41.67688">
        <ele>789.476538</ele>
        <time>2021-12-03T09:07:15.702Z</time>
      </trkpt>
      <trkpt lat="40.69831" lon="41.67848">
        <ele>809.894512</ele>
        <time>2021-12-03T09:08:19.694Z</time>
      </trkpt>
      <trkpt lat="40.69612" lon="41.67805">
        <ele>793.054941</ele>
        <time>2021-12-03T09:09:38.700Z</time>
      </trkpt>
      <trkpt lat="40.69416" lon="41.67721">
        <ele>799.933504</ele>
        <time>2021-12-03T09:10:43.692Z</time>
      </trkpt>
      <trkpt lat="40.69218" lon="41.67753">
        <ele>800.414297</ele>
        <time>2021-12-03T09:12:01.689Z</time>
      </trkpt>
      <trkpt lat="40.69012" lon="41.67766">
        <ele>797.674701</ele>
        <time>2021-12-03T09:13:15.731Z</time>
      </trkpt>
      <trkpt lat="40.68852" lon="41.67601">
        <ele>830.241265</ele>
        <time>2021-12-03T09:14:31.689Z</time>
      </trkpt>
      <trkpt lat="40.68723" lon="41.67371">
        <ele>819.877071</ele>
        <time>2021-12-03T09:19:19.685Z</time>
      </trkpt>
      <trkpt lat="40.68586" lon="41.67192">
        <ele>834.139028</ele>
        <time>2021-12-03T09:21:07.689Z</time>
      </trkpt>
      <trkpt lat="40.68398" lon="41.67096">
        <ele>838.473029</ele>
        <time>2021-12-03T09:23:58.699Z</time>
      </trkpt>
      <trkpt lat="40.6822" lon="41.67">
        <ele>844.907682</ele>
        <time>2021-12-03T09:26:40.725Z</time>
      </trkpt>
      <trkpt lat="40.68051" lon="41.66876">
        <ele>856.50053</ele>
        <time>2021-12-03T09:29:09.713Z</time>
      </trkpt>
      <trkpt lat="40.67898" lon="41.66705">
        <ele>875.645974</ele>
        <time>2021-12-03T09:32:00.725Z</time>
      </trkpt>
      <trkpt lat="40.67741" lon="41.66556">
        <ele>889.494652</ele>
        <time>2021-12-03T09:34:18.692Z</time>
      </trkpt>
      <trkpt lat="40.67568" lon="41.66439">
        <ele>903.972927</ele>
        <time>2021-12-03T09:36:36.705Z</time>
      </trkpt>
      <trkpt lat="40.67412" lon="41.6629">
        <ele>919.165715</ele>
        <time>2021-12-03T09:39:08.701Z</time>
      </trkpt>
      <trkpt lat="40.67222" lon="41.66252">
        <ele>946.464902</ele>
        <time>2021-12-03T09:47:46.707Z</time>
      </trkpt>
      <trkpt lat="40.6705" lon="41.66144">
        <ele>969.367579</ele>
        <time>2021-12-03T09:50:14.703Z</time>
      </trkpt>
      <trkpt lat="40.66876" lon="41.66044">
        <ele>984.764716</ele>
        <time>2021-12-03T09:52:48.730Z</time>
      </trkpt>
      <trkpt lat="40.66683" lon="41.6598">
        <ele>995.093204</ele>
        <time>2021-12-03T09:55:25.713Z</time>
      </trkpt>
      <trkpt lat="40.66501" lon="41.66061">
        <ele>1006.823684</ele>
        <time>2021-12-03T09:57:51.703Z</time>
      </trkpt>
      <trkpt lat="40.66337" lon="41.66128">
        <ele>1020.694255</ele>
        <time>2021-12-03T09:59:55.724Z</time>
      </trkpt>
      <trkpt lat="40.66306" lon="41.66388">
        <ele>1032.036601</ele>
        <time>2021-12-03T10:02:32.747Z</time>
      </trkpt>
      <trkpt lat="40.66158" lon="41.66512">
        <ele>1037.553126</ele>
        <time>2021-12-03T10:04:51.693Z</time>
      </trkpt>
      <trkpt lat="40.65971" lon="41.66393">
        <ele>1038.626926</ele>
        <time>2021-12-03T10:06:15.713Z</time>
      </trkpt>
      <trkpt lat="40.65753" lon="41.66334">
        <ele>1036.501197</ele>
        <time>2021-12-03T10:07:35.724Z</time>
      </trkpt>
      <trkpt lat="40.6576" lon="41.6656">
        <ele>1029.387522</ele>
        <time>2021-12-03T10:08:30.701Z</time>
      </trkpt>
      <trkpt lat="40.65931" lon="41.6671">
        <ele>1030.069371</ele>
        <time>2021-12-03T10:09:35.715Z</time>
      </trkpt>
      <trkpt lat="40.65989" lon="41.6678">
        <ele>1030.242772</ele>
        <time>2021-12-03T10:36:17.705Z</time>
      </trkpt>
      <trkpt lat="40.65829" lon="41.66606">
        <ele>1029.213984</ele>
        <time>2021-12-03T10:37:45.723Z</time>
      </trkpt>
      <trkpt lat="40.65733" lon="41.66379">
        <ele>1031.950551</ele>
        <time>2021-12-03T10:39:01.710Z</time>
      </trkpt>
      <trkpt lat="40.65645" lon="41.66139">
        <ele>1038.294735</ele>
        <time>2021-12-03T10:40:21.742Z</time>
      </trkpt>
      <trkpt lat="40.6577" lon="41.65853">
        <ele>1053.53171</ele>
        <time>2021-12-03T10:41:24.736Z</time>
      </trkpt>
      <trkpt lat="40.6577" lon="41.65585">
        <ele>1046.837834</ele>
        <time>2021-12-03T10:42:20.718Z</time>
      </trkpt>
      <trkpt lat="40.65709" lon="41.65325">
        <ele>1046.910194</ele>
        <time>2021-12-03T10:43:26.720Z</time>
      </trkpt>
      <trkpt lat="40.65816" lon="41.65089">
        <ele>1049.320447</ele>
        <time>2021-12-03T10:44:17.734Z</time>
      </trkpt>
      <trkpt lat="40.65741" lon="41.64874">
        <ele>1050.666746</ele>
        <time>2021-12-03T10:45:40.714Z</time>
      </trkpt>
      <trkpt lat="40.65582" lon="41.64708">
        <ele>1055.69575</ele>
        <time>2021-12-03T10:47:04.711Z</time>
      </trkpt>
      <trkpt lat="40.65394" lon="41.64583">
        <ele>1053.5474</ele>
        <time>2021-12-03T10:47:59.723Z</time>
      </trkpt>
      <trkpt lat="40.65304" lon="41.64259">
        <ele>1045.054413</ele>
        <time>2021-12-03T10:48:41.751Z</time>
      </trkpt>
      <trkpt lat="40.65345" lon="41.63971">
        <ele>1049.198341</ele>
        <time>2021-12-03T10:49:32.711Z</time>
      </trkpt>
      <trkpt lat="40.65369" lon="41.63693">
        <ele>1055.048396</ele>
        <time>2021-12-03T10:50:32.749Z</time>
      </trkpt>
      <trkpt lat="40.65205" lon="41.63546">
        <ele>1052.891881</ele>
        <time>2021-12-03T10:51:47.721Z</time>
      </trkpt>
      <trkpt lat="40.64996" lon="41.6352">
        <ele>1055.601544</ele>
        <time>2021-12-03T10:52:48.709Z</time>
      </trkpt>
      <trkpt lat="40.648" lon="41.63452">
        <ele>1062.184183</ele>
        <time>2021-12-03T10:54:24.757Z</time>
      </trkpt>
      <trkpt lat="40.64616" lon="41.63306">
        <ele>1065.831835</ele>
        <time>2021-12-03T10:55:39.729Z</time>
      </trkpt>
      <trkpt lat="40.64386" lon="41.63199">
        <ele>1060.641086</ele>
        <time>2021-12-03T10:56:38.721Z</time>
      </trkpt>
      <trkpt lat="40.64157" lon="41.631">
        <ele>1057.565747</ele>
        <time>2021-12-03T10:57:36.710Z</time>
      </trkpt>
      <trkpt lat="40.63925" lon="41.63069">
        <ele>1058.313866</ele>
        <time>2021-12-03T10:58:34.701Z</time>
      </trkpt>
      <trkpt lat="40.63724" lon="41.63014">
        <ele>1054.337629</ele>
        <time>2021-12-03T10:59:16.719Z</time>
      </trkpt>
      <trkpt lat="40.63514" lon="41.6302">
        <ele>1052.350758</ele>
        <time>2021-12-03T10:59:56.713Z</time>
      </trkpt>
      <trkpt lat="40.63311" lon="41.63121">
        <ele>1054.442423</ele>
        <time>2021-12-03T11:00:41.747Z</time>
      </trkpt>
      <trkpt lat="40.63104" lon="41.6323">
        <ele>1057.997064</ele>
        <time>2021-12-03T11:02:01.727Z</time>
      </trkpt>
      <trkpt lat="40.62909" lon="41.63154">
        <ele>1054.840449</ele>
        <time>2021-12-03T11:02:43.716Z</time>
      </trkpt>
      <trkpt lat="40.62694" lon="41.63097">
        <ele>1052.021097</ele>
        <time>2021-12-03T11:03:37.721Z</time>
      </trkpt>
      <trkpt lat="40.62486" lon="41.63088">
        <ele>1052.942894</ele>
        <time>2021-12-03T11:04:40.718Z</time>
      </trkpt>
      <trkpt lat="40.62272" lon="41.63013">
        <ele>1052.885732</ele>
        <time>2021-12-03T11:05:33.730Z</time>
      </trkpt>
      <trkpt lat="40.62078" lon="41.62949">
        <ele>1054.934428</ele>
        <time>2021-12-03T11:06:43.715Z</time>
      </trkpt>
      <trkpt lat="40.61895" lon="41.62806">
        <ele>1056.353058</ele>
        <time>2021-12-03T11:07:54.715Z</time>
      </trkpt>
      <trkpt lat="40.61689" lon="41.62814">
        <ele>1055.429296</ele>
        <time>2021-12-03T11:09:10.728Z</time>
      </trkpt>
      <trkpt lat="40.61483" lon="41.62824">
        <ele>1053.314782</ele>
        <time>2021-12-03T11:10:26.706Z</time>
      </trkpt>
      <trkpt lat="40.61307" lon="41.6276">
        <ele>1049.987474</ele>
        <time>2021-12-03T11:11:12.754Z</time>
      </trkpt>
      <trkpt lat="40.61129" lon="41.62666">
        <ele>1055.002717</ele>
        <time>2021-12-03T11:12:23.727Z</time>
      </trkpt>
      <trkpt lat="40.60995" lon="41.62666">
        <ele>1073.800884</ele>
        <time>2021-12-03T11:15:24.721Z</time>
      </trkpt>
      <trkpt lat="40.60878" lon="41.6249">
        <ele>1083.245077</ele>
        <time>2021-12-03T11:17:47.768Z</time>
      </trkpt>
      <trkpt lat="40.60715" lon="41.62366">
        <ele>1106.980102</ele>
        <time>2021-12-03T11:21:23.717Z</time>
      </trkpt>
      <trkpt lat="40.60528" lon="41.62371">
        <ele>1120.818832</ele>
        <time>2021-12-03T11:23:49.734Z</time>
      </trkpt>
      <trkpt lat="40.60366" lon="41.62223">
        <ele>1127.046082</ele>
        <time>2021-12-03T11:26:55.721Z</time>
      </trkpt>
      <trkpt lat="40.60237" lon="41.62023">
        <ele>1136.183339</ele>
        <time>2021-12-03T11:28:45.760Z</time>
      </trkpt>
      <trkpt lat="40.60199" lon="41.61783">
        <ele>1140.616383</ele>
        <time>2021-12-03T11:31:23.719Z</time>
      </trkpt>
      <trkpt lat="40.60051" lon="41.61575">
        <ele>1132.535521</ele>
        <time>2021-12-03T11:32:15.735Z</time>
      </trkpt>
      <trkpt lat="40.60003" lon="41.61646">
        <ele>1108.104838</ele>
        <time>2021-12-03T11:33:06.722Z</time>
      </trkpt>
      <trkpt lat="40.59933" lon="41.61405">
        <ele>1078.424251</ele>
        <time>2021-12-03T11:33:46.714Z</time>
      </trkpt>
      <trkpt lat="40.59816" lon="41.61176">
        <ele>1052.816041</ele>
        <time>2021-12-03T11:34:31.728Z</time>
      </trkpt>
      <trkpt lat="40.59595" lon="41.61133">
        <ele>1042.033607</ele>
        <time>2021-12-03T11:35:11.778Z</time>
      </trkpt>
      <trkpt lat="40.59392" lon="41.61139">
        <ele>1041.755718</ele>
        <time>2021-12-03T11:36:18.737Z</time>
      </trkpt>
      <trkpt lat="40.59178" lon="41.61082">
        <ele>1041.897729</ele>
        <time>2021-12-03T11:37:33.729Z</time>
      </trkpt>
      <trkpt lat="40.58969" lon="41.61016">
        <ele>1042.675676</ele>
        <time>2021-12-03T11:38:33.726Z</time>
      </trkpt>
      <trkpt lat="40.58756" lon="41.60916">
        <ele>1043.809581</ele>
        <time>2021-12-03T11:39:33.733Z</time>
      </trkpt>
      <trkpt lat="40.58569" lon="41.60785">
        <ele>1042.932069</ele>
        <time>2021-12-03T11:40:33.741Z</time>
      </trkpt>
      <trkpt lat="40.5837" lon="41.60643">
        <ele>1042.797581</ele>
        <time>2021-12-03T11:41:36.726Z</time>
      </trkpt>
      <trkpt lat="40.58177" lon="41.60506">
        <ele>1044.459677</ele>
        <time>2021-12-03T11:42:36.731Z</time>
      </trkpt>
      <trkpt lat="40.57983" lon="41.60369">
        <ele>1045.791688</ele>
        <time>2021-12-03T11:43:36.723Z</time>
      </trkpt>
      <trkpt lat="40.57783" lon="41.60231">
        <ele>1047.51692</ele>
        <time>2021-12-03T11:44:39.719Z</time>
      </trkpt>
      <trkpt lat="40.57595" lon="41.60106">
        <ele>1049.634237</ele>
        <time>2021-12-03T11:45:39.717Z</time>
      </trkpt>
      <trkpt lat="40.57411" lon="41.5998">
        <ele>1050.340104</ele>
        <time>2021-12-03T11:46:39.727Z</time>
      </trkpt>
      <trkpt lat="40.57218" lon="41.59848">
        <ele>1052.013938</ele>
        <time>2021-12-03T11:47:42.727Z</time>
      </trkpt>
      <trkpt lat="40.57032" lon="41.5972">
        <ele>1052.375082</ele>
        <time>2021-12-03T11:48:42.762Z</time>
      </trkpt>
      <trkpt lat="40.56852" lon="41.59578">
        <ele>1052.311517</ele>
        <time>2021-12-03T11:49:44.740Z</time>
      </trkpt>
      <trkpt lat="40.56685" lon="41.59434">
        <ele>1054.231725</ele>
        <time>2021-12-03T11:50:49.789Z</time>
      </trkpt>
      <trkpt lat="40.56502" lon="41.59276">
        <ele>1056.742702</ele>
        <time>2021-12-03T11:52:02.767Z</time>
      </trkpt>
      <trkpt lat="40.56312" lon="41.59168">
        <ele>1061.054262</ele>
        <time>2021-12-03T11:53:11.740Z</time>
      </trkpt>
      <trkpt lat="40.56107" lon="41.59153">
        <ele>1064.46422</ele>
        <time>2021-12-03T11:54:17.730Z</time>
      </trkpt>
      <trkpt lat="40.55916" lon="41.59052">
        <ele>1064.966142</ele>
        <time>2021-12-03T11:55:25.722Z</time>
      </trkpt>
      <trkpt lat="40.55798" lon="41.58846">
        <ele>1065.582143</ele>
        <time>2021-12-03T11:56:29.729Z</time>
      </trkpt>
      <trkpt lat="40.55741" lon="41.58586">
        <ele>1070.066961</ele>
        <time>2021-12-03T11:57:37.734Z</time>
      </trkpt>
      <trkpt lat="40.55649" lon="41.58333">
        <ele>1069.857816</ele>
        <time>2021-12-03T11:58:47.768Z</time>
      </trkpt>
      <trkpt lat="40.55509" lon="41.58133">
        <ele>1069.163827</ele>
        <time>2021-12-03T11:59:51.743Z</time>
      </trkpt>
      <trkpt lat="40.55367" lon="41.57945">
        <ele>1072.364331</ele>
        <time>2021-12-03T12:00:56.752Z</time>
      </trkpt>
      <trkpt lat="40.55193" lon="41.57809">
        <ele>1073.482499</ele>
        <time>2021-12-03T12:02:03.729Z</time>
      </trkpt>
      <trkpt lat="40.54997" lon="41.57687">
        <ele>1074.534032</ele>
        <time>2021-12-03T12:03:14.737Z</time>
      </trkpt>
      <trkpt lat="40.54874" lon="41.5747">
        <ele>1075.336827</ele>
        <time>2021-12-03T12:04:20.728Z</time>
      </trkpt>
      <trkpt lat="40.5478" lon="41.57236">
        <ele>1078.064902</ele>
        <time>2021-12-03T12:05:22.731Z</time>
      </trkpt>
      <trkpt lat="40.54717" lon="41.56975">
        <ele>1084.181746</ele>
        <time>2021-12-03T12:06:28.749Z</time>
      </trkpt>
      <trkpt lat="40.54652" lon="41.56709">
        <ele>1083.539937</ele>
        <time>2021-12-03T12:07:41.722Z</time>
      </trkpt>
      <trkpt lat="40.54519" lon="41.56493">
        <ele>1084.107163</ele>
        <time>2021-12-03T12:08:59.768Z</time>
      </trkpt>
      <trkpt lat="40.54343" lon="41.56335">
        <ele>1087.95453</ele>
        <time>2021-12-03T12:10:14.743Z</time>
      </trkpt>
      <trkpt lat="40.5423" lon="41.56092">
        <ele>1092.984343</ele>
        <time>2021-12-03T12:11:33.739Z</time>
      </trkpt>
      <trkpt lat="40.5422" lon="41.55799">
        <ele>1086.275019</ele>
        <time>2021-12-03T12:12:37.751Z</time>
      </trkpt>
      <trkpt lat="40.54174" lon="41.55561">
        <ele>1082.792167</ele>
        <time>2021-12-03T12:13:51.746Z</time>
      </trkpt>
      <trkpt lat="40.54068" lon="41.55319">
        <ele>1086.068618</ele>
        <time>2021-12-03T12:14:59.739Z</time>
      </trkpt>
      <trkpt lat="40.53943" lon="41.5511">
        <ele>1090.31254</ele>
        <time>2021-12-03T12:16:04.733Z</time>
      </trkpt>
      <trkpt lat="40.53805" lon="41.54908">
        <ele>1096.372343</ele>
        <time>2021-12-03T12:17:16.778Z</time>
      </trkpt>
      <trkpt lat="40.53625" lon="41.54748">
        <ele>1098.59396</ele>
        <time>2021-12-03T12:18:43.754Z</time>
      </trkpt>
      <trkpt lat="40.53444" lon="41.54612">
        <ele>1099.553998</ele>
        <time>2021-12-03T12:21:35.742Z</time>
      </trkpt>
      <trkpt lat="40.53355" lon="41.54538">
        <ele>1099.553998</ele>
        <time>2021-12-03T12:25:45.275Z</time>
      </trkpt>
      <trkpt lat="40.5335" lon="41.54552">
        <ele>1093.211153</ele>
        <time>2021-12-04T07:38:16.257Z</time>
      </trkpt>
      <trkpt lat="40.53281" lon="41.54498">
        <ele>1095.807323</ele>
        <time>2021-12-04T07:44:21.938Z</time>
      </trkpt>
      <trkpt lat="40.53176" lon="41.54316">
        <ele>1116.659055</ele>
        <time>2021-12-04T07:46:02.933Z</time>
      </trkpt>
      <trkpt lat="40.53006" lon="41.5417">
        <ele>1122.002112</ele>
        <time>2021-12-04T07:47:43.951Z</time>
      </trkpt>
      <trkpt lat="40.5286" lon="41.5393">
        <ele>1125.267692</ele>
        <time>2021-12-04T07:48:47.933Z</time>
      </trkpt>
      <trkpt lat="40.52782" lon="41.53673">
        <ele>1127.842602</ele>
        <time>2021-12-04T07:49:58.954Z</time>
      </trkpt>
      <trkpt lat="40.52684" lon="41.53441">
        <ele>1129.972825</ele>
        <time>2021-12-04T07:51:17.930Z</time>
      </trkpt>
      <trkpt lat="40.52487" lon="41.53346">
        <ele>1125.948903</ele>
        <time>2021-12-04T07:52:12.938Z</time>
      </trkpt>
      <trkpt lat="40.52256" lon="41.53423">
        <ele>1121.202711</ele>
        <time>2021-12-04T07:52:52.930Z</time>
      </trkpt>
      <trkpt lat="40.52062" lon="41.53407">
        <ele>1118.980066</ele>
        <time>2021-12-04T07:53:48.941Z</time>
      </trkpt>
      <trkpt lat="40.51909" lon="41.53209">
        <ele>1125.93905</ele>
        <time>2021-12-04T07:54:48.935Z</time>
      </trkpt>
      <trkpt lat="40.51718" lon="41.53044">
        <ele>1124.667031</ele>
        <time>2021-12-04T07:55:51.939Z</time>
      </trkpt>
      <trkpt lat="40.51601" lon="41.52817">
        <ele>1130.76595</ele>
        <time>2021-12-04T07:56:57.947Z</time>
      </trkpt>
      <trkpt lat="40.51398" lon="41.52742">
        <ele>1134.609522</ele>
        <time>2021-12-04T07:58:11.936Z</time>
      </trkpt>
      <trkpt lat="40.51237" lon="41.52596">
        <ele>1136.365948</ele>
        <time>2021-12-04T07:59:38.949Z</time>
      </trkpt>
      <trkpt lat="40.5115" lon="41.52359">
        <ele>1142.232377</ele>
        <time>2021-12-04T08:00:53.923Z</time>
      </trkpt>
      <trkpt lat="40.5098" lon="41.52167">
        <ele>1145.491557</ele>
        <time>2021-12-04T08:01:53.949Z</time>
      </trkpt>
      <trkpt lat="40.50785" lon="41.52066">
        <ele>1150.753441</ele>
        <time>2021-12-04T08:03:05.938Z</time>
      </trkpt>
      <trkpt lat="40.50573" lon="41.52006">
        <ele>1166.850884</ele>
        <time>2021-12-04T08:04:19.953Z</time>
      </trkpt>
      <trkpt lat="40.50372" lon="41.52068">
        <ele>1164.365474</ele>
        <time>2021-12-04T08:05:19.935Z</time>
      </trkpt>
      <trkpt lat="40.5019" lon="41.51979">
        <ele>1155.597855</ele>
        <time>2021-12-04T08:06:32.940Z</time>
      </trkpt>
      <trkpt lat="40.50102" lon="41.517">
        <ele>1156.08066</ele>
        <time>2021-12-04T08:07:32.949Z</time>
      </trkpt>
      <trkpt lat="40.49942" lon="41.51615">
        <ele>1166.127029</ele>
        <time>2021-12-04T08:08:33.924Z</time>
      </trkpt>
      <trkpt lat="40.49765" lon="41.51563">
        <ele>1167.24495</ele>
        <time>2021-12-04T08:09:35.945Z</time>
      </trkpt>
      <trkpt lat="40.49584" lon="41.51488">
        <ele>1165.713018</ele>
        <time>2021-12-04T08:10:48.928Z</time>
      </trkpt>
      <trkpt lat="40.49375" lon="41.51536">
        <ele>1170.502443</ele>
        <time>2021-12-04T08:11:53.939Z</time>
      </trkpt>
      <trkpt lat="40.49198" lon="41.51477">
        <ele>1166.465899</ele>
        <time>2021-12-04T08:13:17.953Z</time>
      </trkpt>
      <trkpt lat="40.49049" lon="41.51291">
        <ele>1165.985129</ele>
        <time>2021-12-04T08:14:36.940Z</time>
      </trkpt>
      <trkpt lat="40.48902" lon="41.51095">
        <ele>1175.502169</ele>
        <time>2021-12-04T08:15:49.977Z</time>
      </trkpt>
      <trkpt lat="40.48734" lon="41.50915">
        <ele>1175.593142</ele>
        <time>2021-12-04T08:17:07.936Z</time>
      </trkpt>
      <trkpt lat="40.48629" lon="41.50694">
        <ele>1184.22975</ele>
        <time>2021-12-04T08:18:59.946Z</time>
      </trkpt>
      <trkpt lat="40.4847" lon="41.5053">
        <ele>1191.739267</ele>
        <time>2021-12-04T08:20:38.958Z</time>
      </trkpt>
      <trkpt lat="40.48259" lon="41.50369">
        <ele>1182.954471</ele>
        <time>2021-12-04T08:21:35.951Z</time>
      </trkpt>
      <trkpt lat="40.48055" lon="41.50413">
        <ele>1182.927503</ele>
        <time>2021-12-04T08:22:15.941Z</time>
      </trkpt>
      <trkpt lat="40.4786" lon="41.50527">
        <ele>1186.618406</ele>
        <time>2021-12-04T08:23:25.941Z</time>
      </trkpt>
      <trkpt lat="40.47655" lon="41.50469">
        <ele>1184.316436</ele>
        <time>2021-12-04T08:24:30.982Z</time>
      </trkpt>
      <trkpt lat="40.47493" lon="41.50302">
        <ele>1183.424046</ele>
        <time>2021-12-04T08:25:22.955Z</time>
      </trkpt>
      <trkpt lat="40.47298" lon="41.50184">
        <ele>1180.345529</ele>
        <time>2021-12-04T08:26:22.949Z</time>
      </trkpt>
      <trkpt lat="40.4709" lon="41.50146">
        <ele>1181.252478</ele>
        <time>2021-12-04T08:27:22.939Z</time>
      </trkpt>
      <trkpt lat="40.46879" lon="41.502">
        <ele>1192.032089</ele>
        <time>2021-12-04T08:28:25.977Z</time>
      </trkpt>
      <trkpt lat="40.46686" lon="41.50286">
        <ele>1201.491746</ele>
        <time>2021-12-04T08:29:25.942Z</time>
      </trkpt>
      <trkpt lat="40.46495" lon="41.50385">
        <ele>1196.09563</ele>
        <time>2021-12-04T08:30:33.950Z</time>
      </trkpt>
      <trkpt lat="40.46304" lon="41.50487">
        <ele>1194.126895</ele>
        <time>2021-12-04T08:31:47.948Z</time>
      </trkpt>
      <trkpt lat="40.46122" lon="41.50626">
        <ele>1188.212717</ele>
        <time>2021-12-04T08:33:12.940Z</time>
      </trkpt>
      <trkpt lat="40.45935" lon="41.50621">
        <ele>1197.707679</ele>
        <time>2021-12-04T08:34:31.955Z</time>
      </trkpt>
      <trkpt lat="40.45799" lon="41.5042">
        <ele>1253.461991</ele>
        <time>2021-12-04T08:35:43.976Z</time>
      </trkpt>
      <trkpt lat="40.45652" lon="41.50232">
        <ele>1259.373593</ele>
        <time>2021-12-04T08:37:42.947Z</time>
      </trkpt>
      <trkpt lat="40.45452" lon="41.50317">
        <ele>1245.49381</ele>
        <time>2021-12-04T08:39:03.954Z</time>
      </trkpt>
      <trkpt lat="40.45253" lon="41.50249">
        <ele>1251.064571</ele>
        <time>2021-12-04T08:40:08.967Z</time>
      </trkpt>
      <trkpt lat="40.45072" lon="41.50349">
        <ele>1255.580355</ele>
        <time>2021-12-04T08:42:01.958Z</time>
      </trkpt>
      <trkpt lat="40.44883" lon="41.50355">
        <ele>1270.680399</ele>
        <time>2021-12-04T08:43:51.940Z</time>
      </trkpt>
      <trkpt lat="40.44708" lon="41.50334">
        <ele>1291.881797</ele>
        <time>2021-12-04T08:45:38.946Z</time>
      </trkpt>
      <trkpt lat="40.44515" lon="41.50363">
        <ele>1295.341852</ele>
        <time>2021-12-04T08:47:42.957Z</time>
      </trkpt>
      <trkpt lat="40.44311" lon="41.50294">
        <ele>1282.490109</ele>
        <time>2021-12-04T08:49:31.950Z</time>
      </trkpt>
      <trkpt lat="40.44143" lon="41.50148">
        <ele>1283.146829</ele>
        <time>2021-12-04T08:51:01.939Z</time>
      </trkpt>
      <trkpt lat="40.44004" lon="41.49939">
        <ele>1287.519577</ele>
        <time>2021-12-04T08:52:11.970Z</time>
      </trkpt>
      <trkpt lat="40.43877" lon="41.49715">
        <ele>1284.252904</ele>
        <time>2021-12-04T08:53:11.939Z</time>
      </trkpt>
      <trkpt lat="40.43655" lon="41.49662">
        <ele>1275.191571</ele>
        <time>2021-12-04T08:53:54.955Z</time>
      </trkpt>
      <trkpt lat="40.43453" lon="41.49524">
        <ele>1267.72242</ele>
        <time>2021-12-04T08:54:35.956Z</time>
      </trkpt>
      <trkpt lat="40.43245" lon="41.49473">
        <ele>1266.010171</ele>
        <time>2021-12-04T08:55:27.950Z</time>
      </trkpt>
      <trkpt lat="40.43051" lon="41.49378">
        <ele>1273.554076</ele>
        <time>2021-12-04T08:56:32.948Z</time>
      </trkpt>
      <trkpt lat="40.42885" lon="41.49205">
        <ele>1279.432919</ele>
        <time>2021-12-04T08:57:49.952Z</time>
      </trkpt>
      <trkpt lat="40.42731" lon="41.49158">
        <ele>1277.656101</ele>
        <time>2021-12-04T09:33:58.322Z</time>
      </trkpt>
      <trkpt lat="40.42477" lon="41.49032">
        <ele>1278.119429</ele>
        <time>2021-12-04T09:34:38.335Z</time>
      </trkpt>
      <trkpt lat="40.42279" lon="41.48857">
        <ele>1277.929974</ele>
        <time>2021-12-04T09:35:19.329Z</time>
      </trkpt>
      <trkpt lat="40.42072" lon="41.48788">
        <ele>1280.909457</ele>
        <time>2021-12-04T09:36:03.317Z</time>
      </trkpt>
      <trkpt lat="40.41872" lon="41.48851">
        <ele>1281.544991</ele>
        <time>2021-12-04T09:37:06.346Z</time>
      </trkpt>
      <trkpt lat="40.41706" lon="41.49026">
        <ele>1283.714729</ele>
        <time>2021-12-04T09:38:18.328Z</time>
      </trkpt>
      <trkpt lat="40.41554" lon="41.48894">
        <ele>1294.463541</ele>
        <time>2021-12-04T09:39:27.329Z</time>
      </trkpt>
      <trkpt lat="40.41368" lon="41.48807">
        <ele>1302.352493</ele>
        <time>2021-12-04T09:40:29.336Z</time>
      </trkpt>
      <trkpt lat="40.41194" lon="41.48935">
        <ele>1296.510132</ele>
        <time>2021-12-04T09:41:32.348Z</time>
      </trkpt>
      <trkpt lat="40.40983" lon="41.48948">
        <ele>1295.233821</ele>
        <time>2021-12-04T09:42:37.330Z</time>
      </trkpt>
      <trkpt lat="40.40784" lon="41.49023">
        <ele>1303.817093</ele>
        <time>2021-12-04T09:43:48.326Z</time>
      </trkpt>
      <trkpt lat="40.40574" lon="41.49045">
        <ele>1315.60971</ele>
        <time>2021-12-04T09:45:07.340Z</time>
      </trkpt>
      <trkpt lat="40.40375" lon="41.49023">
        <ele>1319.945848</ele>
        <time>2021-12-04T09:46:32.340Z</time>
      </trkpt>
      <trkpt lat="40.40223" lon="41.49182">
        <ele>1316.800394</ele>
        <time>2021-12-04T09:48:08.331Z</time>
      </trkpt>
      <trkpt lat="40.40122" lon="41.49393">
        <ele>1317.08917</ele>
        <time>2021-12-04T09:49:33.335Z</time>
      </trkpt>
      <trkpt lat="40.39935" lon="41.49433">
        <ele>1330.83314</ele>
        <time>2021-12-04T09:51:08.329Z</time>
      </trkpt>
      <trkpt lat="40.39758" lon="41.49537">
        <ele>1334.392398</ele>
        <time>2021-12-04T09:52:42.332Z</time>
      </trkpt>
      <trkpt lat="40.39592" lon="41.49717">
        <ele>1340.126815</ele>
        <time>2021-12-04T09:54:04.332Z</time>
      </trkpt>
      <trkpt lat="40.39394" lon="41.49794">
        <ele>1348.017518</ele>
        <time>2021-12-04T09:55:48.359Z</time>
      </trkpt>
      <trkpt lat="40.39189" lon="41.49823">
        <ele>1350.476525</ele>
        <time>2021-12-04T09:56:54.341Z</time>
      </trkpt>
      <trkpt lat="40.38898" lon="41.49824">
        <ele>1345.424414</ele>
        <time>2021-12-04T09:57:34.339Z</time>
      </trkpt>
      <trkpt lat="40.38711" lon="41.49684">
        <ele>1355.668631</ele>
        <time>2021-12-04T09:58:39.359Z</time>
      </trkpt>
      <trkpt lat="40.38576" lon="41.49478">
        <ele>1359.289373</ele>
        <time>2021-12-04T10:00:04.354Z</time>
      </trkpt>
      <trkpt lat="40.38422" lon="41.49557">
        <ele>1359.038256</ele>
        <time>2021-12-04T10:01:10.367Z</time>
      </trkpt>
      <trkpt lat="40.38349" lon="41.49809">
        <ele>1354.371905</ele>
        <time>2021-12-04T10:02:12.346Z</time>
      </trkpt>
      <trkpt lat="40.38162" lon="41.49944">
        <ele>1357.781596</ele>
        <time>2021-12-04T10:03:27.347Z</time>
      </trkpt>
      <trkpt lat="40.37949" lon="41.49971">
        <ele>1362.627988</ele>
        <time>2021-12-04T10:04:44.365Z</time>
      </trkpt>
      <trkpt lat="40.3778" lon="41.50142">
        <ele>1360.279871</ele>
        <time>2021-12-04T10:05:41.339Z</time>
      </trkpt>
      <trkpt lat="40.37573" lon="41.50091">
        <ele>1355.117604</ele>
        <time>2021-12-04T10:06:43.343Z</time>
      </trkpt>
      <trkpt lat="40.37373" lon="41.50034">
        <ele>1363.684624</ele>
        <time>2021-12-04T10:08:03.355Z</time>
      </trkpt>
      <trkpt lat="40.37178" lon="41.50106">
        <ele>1386.00651</ele>
        <time>2021-12-04T10:09:24.331Z</time>
      </trkpt>
      <trkpt lat="40.36998" lon="41.50245">
        <ele>1394.111853</ele>
        <time>2021-12-04T10:10:43.351Z</time>
      </trkpt>
      <trkpt lat="40.3689" lon="41.50479">
        <ele>1399.806157</ele>
        <time>2021-12-04T10:12:11.338Z</time>
      </trkpt>
      <trkpt lat="40.36706" lon="41.50552">
        <ele>1403.26628</ele>
        <time>2021-12-04T10:13:34.346Z</time>
      </trkpt>
      <trkpt lat="40.36588" lon="41.50695">
        <ele>1404.688848</ele>
        <time>2021-12-04T10:15:03.355Z</time>
      </trkpt>
      <trkpt lat="40.36436" lon="41.50809">
        <ele>1401.949851</ele>
        <time>2021-12-04T10:16:23.390Z</time>
      </trkpt>
      <trkpt lat="40.3623" lon="41.508">
        <ele>1413.052004</ele>
        <time>2021-12-04T10:17:48.353Z</time>
      </trkpt>
      <trkpt lat="40.36055" lon="41.50873">
        <ele>1415.378436</ele>
        <time>2021-12-04T10:19:19.351Z</time>
      </trkpt>
      <trkpt lat="40.35958" lon="41.51092">
        <ele>1429.309557</ele>
        <time>2021-12-04T10:21:03.344Z</time>
      </trkpt>
      <trkpt lat="40.3575" lon="41.51132">
        <ele>1434.683377</ele>
        <time>2021-12-04T10:22:28.396Z</time>
      </trkpt>
      <trkpt lat="40.35544" lon="41.5117">
        <ele>1435.933157</ele>
        <time>2021-12-04T10:23:36.351Z</time>
      </trkpt>
      <trkpt lat="40.35366" lon="41.51047">
        <ele>1442.152725</ele>
        <time>2021-12-04T10:24:48.360Z</time>
      </trkpt>
      <trkpt lat="40.35156" lon="41.51072">
        <ele>1449.12243</ele>
        <time>2021-12-04T10:26:04.387Z</time>
      </trkpt>
      <trkpt lat="40.34972" lon="41.50967">
        <ele>1453.785789</ele>
        <time>2021-12-04T10:27:26.358Z</time>
      </trkpt>
      <trkpt lat="40.34779" lon="41.50871">
        <ele>1457.973478</ele>
        <time>2021-12-04T10:28:45.364Z</time>
      </trkpt>
      <trkpt lat="40.34569" lon="41.50833">
        <ele>1463.783636</ele>
        <time>2021-12-04T10:30:04.351Z</time>
      </trkpt>
      <trkpt lat="40.34369" lon="41.50741">
        <ele>1472.351392</ele>
        <time>2021-12-04T10:31:39.391Z</time>
      </trkpt>
      <trkpt lat="40.34186" lon="41.50624">
        <ele>1476.860451</ele>
        <time>2021-12-04T10:32:59.349Z</time>
      </trkpt>
      <trkpt lat="40.33989" lon="41.50563">
        <ele>1472.417285</ele>
        <time>2021-12-04T10:34:05.368Z</time>
      </trkpt>
      <trkpt lat="40.33774" lon="41.50536">
        <ele>1474.924635</ele>
        <time>2021-12-04T10:35:06.347Z</time>
      </trkpt>
      <trkpt lat="40.33588" lon="41.50615">
        <ele>1478.690699</ele>
        <time>2021-12-04T10:36:44.351Z</time>
      </trkpt>
      <trkpt lat="40.33424" lon="41.50753">
        <ele>1486.702616</ele>
        <time>2021-12-04T10:38:46.388Z</time>
      </trkpt>
      <trkpt lat="40.33265" lon="41.50913">
        <ele>1486.359237</ele>
        <time>2021-12-04T10:40:27.346Z</time>
      </trkpt>
      <trkpt lat="40.33083" lon="41.5109">
        <ele>1484.176339</ele>
        <time>2021-12-04T10:41:30.358Z</time>
      </trkpt>
      <trkpt lat="40.32922" lon="41.51285">
        <ele>1480.979998</ele>
        <time>2021-12-04T10:42:33.368Z</time>
      </trkpt>
      <trkpt lat="40.32771" lon="41.5148">
        <ele>1502.183915</ele>
        <time>2021-12-04T10:46:45.369Z</time>
      </trkpt>
      <trkpt lat="40.32626" lon="41.51668">
        <ele>1507.50451</ele>
        <time>2021-12-04T10:48:10.370Z</time>
      </trkpt>
      <trkpt lat="40.32444" lon="41.51808">
        <ele>1517.330562</ele>
        <time>2021-12-04T10:49:26.355Z</time>
      </trkpt>
      <trkpt lat="40.3229" lon="41.51998">
        <ele>1520.604378</ele>
        <time>2021-12-04T10:50:26.354Z</time>
      </trkpt>
      <trkpt lat="40.32137" lon="41.52172">
        <ele>1522.891643</ele>
        <time>2021-12-04T10:51:36.349Z</time>
      </trkpt>
      <trkpt lat="40.31921" lon="41.52264">
        <ele>1529.181551</ele>
        <time>2021-12-04T10:52:57.363Z</time>
      </trkpt>
      <trkpt lat="40.31722" lon="41.52326">
        <ele>1533.861648</ele>
        <time>2021-12-04T10:54:06.374Z</time>
      </trkpt>
      <trkpt lat="40.31538" lon="41.52449">
        <ele>1535.569671</ele>
        <time>2021-12-04T10:55:26.362Z</time>
      </trkpt>
      <trkpt lat="40.31359" lon="41.5253">
        <ele>1543.009067</ele>
        <time>2021-12-04T10:56:48.361Z</time>
      </trkpt>
      <trkpt lat="40.31159" lon="41.52539">
        <ele>1549.220879</ele>
        <time>2021-12-04T10:58:27.408Z</time>
      </trkpt>
      <trkpt lat="40.30963" lon="41.52594">
        <ele>1552.561419</ele>
        <time>2021-12-04T11:00:00.349Z</time>
      </trkpt>
      <trkpt lat="40.30785" lon="41.52726">
        <ele>1554.378289</ele>
        <time>2021-12-04T11:01:43.366Z</time>
      </trkpt>
      <trkpt lat="40.30688" lon="41.52958">
        <ele>1564.357584</ele>
        <time>2021-12-04T11:03:57.365Z</time>
      </trkpt>
      <trkpt lat="40.30536" lon="41.53119">
        <ele>1569.671787</ele>
        <time>2021-12-04T11:05:53.376Z</time>
      </trkpt>
      <trkpt lat="40.30367" lon="41.53252">
        <ele>1578.589409</ele>
        <time>2021-12-04T11:07:27.354Z</time>
      </trkpt>
      <trkpt lat="40.30292" lon="41.53492">
        <ele>1583.925519</ele>
        <time>2021-12-04T11:08:40.441Z</time>
      </trkpt>
      <trkpt lat="40.30195" lon="41.53735">
        <ele>1582.971874</ele>
        <time>2021-12-04T11:09:53.375Z</time>
      </trkpt>
      <trkpt lat="40.30097" lon="41.53982">
        <ele>1585.817893</ele>
        <time>2021-12-04T11:11:11.385Z</time>
      </trkpt>
      <trkpt lat="40.30005" lon="41.54226">
        <ele>1589.957737</ele>
        <time>2021-12-04T11:12:33.366Z</time>
      </trkpt>
      <trkpt lat="40.29881" lon="41.5445">
        <ele>1594.471902</ele>
        <time>2021-12-04T11:14:08.399Z</time>
      </trkpt>
      <trkpt lat="40.29706" lon="41.54553">
        <ele>1610.144184</ele>
        <time>2021-12-04T11:16:09.406Z</time>
      </trkpt>
      <trkpt lat="40.29517" lon="41.54617">
        <ele>1613.711096</ele>
        <time>2021-12-04T11:18:00.376Z</time>
      </trkpt>
      <trkpt lat="40.29493" lon="41.54724">
        <ele>1613.711096</ele>
        <time>2021-12-04T11:22:06.130Z</time>
      </trkpt>
      <trkpt lat="40.29485" lon="41.5473">
        <ele>1639.587871</ele>
        <time>2021-12-05T05:54:00.179Z</time>
      </trkpt>
      <trkpt lat="40.2942" lon="41.54698">
        <ele>1638.066019</ele>
        <time>2021-12-05T06:00:38.163Z</time>
      </trkpt>
      <trkpt lat="40.29231" lon="41.54847">
        <ele>1628.451238</ele>
        <time>2021-12-05T06:01:54.172Z</time>
      </trkpt>
      <trkpt lat="40.29053" lon="41.54986">
        <ele>1637.972258</ele>
        <time>2021-12-05T06:03:02.170Z</time>
      </trkpt>
      <trkpt lat="40.28884" lon="41.55155">
        <ele>1639.879658</ele>
        <time>2021-12-05T06:04:28.154Z</time>
      </trkpt>
      <trkpt lat="40.28752" lon="41.55356">
        <ele>1648.37033</ele>
        <time>2021-12-05T06:06:07.169Z</time>
      </trkpt>
      <trkpt lat="40.28613" lon="41.55566">
        <ele>1660.085632</ele>
        <time>2021-12-05T06:08:09.211Z</time>
      </trkpt>
      <trkpt lat="40.28423" lon="41.55663">
        <ele>1679.240791</ele>
        <time>2021-12-05T06:10:22.167Z</time>
      </trkpt>
      <trkpt lat="40.28228" lon="41.55722">
        <ele>1685.945333</ele>
        <time>2021-12-05T06:11:49.210Z</time>
      </trkpt>
      <trkpt lat="40.28024" lon="41.55779">
        <ele>1697.495865</ele>
        <time>2021-12-05T06:13:14.163Z</time>
      </trkpt>
      <trkpt lat="40.27826" lon="41.5581">
        <ele>1692.7816</ele>
        <time>2021-12-05T06:14:37.159Z</time>
      </trkpt>
      <trkpt lat="40.27619" lon="41.55785">
        <ele>1694.318901</ele>
        <time>2021-12-05T06:16:22.156Z</time>
      </trkpt>
      <trkpt lat="40.27433" lon="41.5572">
        <ele>1713.114732</ele>
        <time>2021-12-05T06:18:37.152Z</time>
      </trkpt>
      <trkpt lat="40.27249" lon="41.55635">
        <ele>1704.093581</ele>
        <time>2021-12-05T06:20:59.191Z</time>
      </trkpt>
      <trkpt lat="40.27074" lon="41.555">
        <ele>1690.787076</ele>
        <time>2021-12-05T06:22:35.178Z</time>
      </trkpt>
      <trkpt lat="40.26907" lon="41.5534">
        <ele>1712.458161</ele>
        <time>2021-12-05T06:24:32.195Z</time>
      </trkpt>
      <trkpt lat="40.26735" lon="41.5519">
        <ele>1743.641952</ele>
        <time>2021-12-05T06:26:57.168Z</time>
      </trkpt>
      <trkpt lat="40.26586" lon="41.55038">
        <ele>1757.04073</ele>
        <time>2021-12-05T06:29:25.150Z</time>
      </trkpt>
      <trkpt lat="40.2642" lon="41.54884">
        <ele>1770.876741</ele>
        <time>2021-12-05T06:31:46.214Z</time>
      </trkpt>
      <trkpt lat="40.26268" lon="41.5472">
        <ele>1791.751919</ele>
        <time>2021-12-05T06:34:05.179Z</time>
      </trkpt>
      <trkpt lat="40.26155" lon="41.54509">
        <ele>1800.037711</ele>
        <time>2021-12-05T06:37:06.176Z</time>
      </trkpt>
      <trkpt lat="40.26101" lon="41.54271">
        <ele>1800.06073</ele>
        <time>2021-12-05T06:39:23.179Z</time>
      </trkpt>
      <trkpt lat="40.25979" lon="41.5406">
        <ele>1811.31051</ele>
        <time>2021-12-05T06:41:55.172Z</time>
      </trkpt>
      <trkpt lat="40.25807" lon="41.53941">
        <ele>1843.349838</ele>
        <time>2021-12-05T06:44:24.185Z</time>
      </trkpt>
      <trkpt lat="40.25699" lon="41.53727">
        <ele>1910.738241</ele>
        <time>2021-12-05T06:47:27.183Z</time>
      </trkpt>
      <trkpt lat="40.2557" lon="41.53522">
        <ele>1931.184974</ele>
        <time>2021-12-05T06:50:23.211Z</time>
      </trkpt>
      <trkpt lat="40.25441" lon="41.53329">
        <ele>1924.124515</ele>
        <time>2021-12-05T06:52:27.186Z</time>
      </trkpt>
      <trkpt lat="40.2539" lon="41.53088">
        <ele>1923.836044</ele>
        <time>2021-12-05T06:54:57.178Z</time>
      </trkpt>
      <trkpt lat="40.25304" lon="41.5287">
        <ele>1950.9748</ele>
        <time>2021-12-05T06:57:55.176Z</time>
      </trkpt>
      <trkpt lat="40.25196" lon="41.52646">
        <ele>1933.857209</ele>
        <time>2021-12-05T07:00:31.187Z</time>
      </trkpt>
      <trkpt lat="40.25118" lon="41.52416">
        <ele>1932.846604</ele>
        <time>2021-12-05T07:08:02.184Z</time>
      </trkpt>
      <trkpt lat="40.24977" lon="41.52211">
        <ele>1948.242366</ele>
        <time>2021-12-05T07:09:46.185Z</time>
      </trkpt>
      <trkpt lat="40.24878" lon="41.51998">
        <ele>1949.106165</ele>
        <time>2021-12-05T07:11:35.228Z</time>
      </trkpt>
      <trkpt lat="40.24762" lon="41.51775">
        <ele>1945.620616</ele>
        <time>2021-12-05T07:13:15.233Z</time>
      </trkpt>
      <trkpt lat="40.24627" lon="41.51574">
        <ele>1939.158612</ele>
        <time>2021-12-05T07:14:48.181Z</time>
      </trkpt>
      <trkpt lat="40.24495" lon="41.51381">
        <ele>1941.180197</ele>
        <time>2021-12-05T07:16:40.207Z</time>
      </trkpt>
      <trkpt lat="40.24352" lon="41.51185">
        <ele>1944.119053</ele>
        <time>2021-12-05T07:18:22.196Z</time>
      </trkpt>
      <trkpt lat="40.2417" lon="41.51094">
        <ele>1946.622629</ele>
        <time>2021-12-05T07:19:57.204Z</time>
      </trkpt>
      <trkpt lat="40.23961" lon="41.51069">
        <ele>1952.550473</ele>
        <time>2021-12-05T07:21:44.214Z</time>
      </trkpt>
      <trkpt lat="40.23783" lon="41.50968">
        <ele>1967.048832</ele>
        <time>2021-12-05T07:23:48.181Z</time>
      </trkpt>
      <trkpt lat="40.23647" lon="41.50767">
        <ele>1967.909122</ele>
        <time>2021-12-05T07:26:08.177Z</time>
      </trkpt>
      <trkpt lat="40.23523" lon="41.50574">
        <ele>1979.557584</ele>
        <time>2021-12-05T07:28:42.185Z</time>
      </trkpt>
      <trkpt lat="40.23391" lon="41.5037">
        <ele>1993.06555</ele>
        <time>2021-12-05T07:31:52.185Z</time>
      </trkpt>
      <trkpt lat="40.23277" lon="41.50159">
        <ele>1997.231578</ele>
        <time>2021-12-05T07:34:55.180Z</time>
      </trkpt>
      <trkpt lat="40.23182" lon="41.49941">
        <ele>2005.506546</ele>
        <time>2021-12-05T07:37:29.196Z</time>
      </trkpt>
      <trkpt lat="40.23082" lon="41.49708">
        <ele>2016.941253</ele>
        <time>2021-12-05T07:40:10.229Z</time>
      </trkpt>
      <trkpt lat="40.22984" lon="41.49492">
        <ele>2031.886678</ele>
        <time>2021-12-05T07:42:56.188Z</time>
      </trkpt>
      <trkpt lat="40.22883" lon="41.49265">
        <ele>2051.650904</ele>
        <time>2021-12-05T07:46:20.201Z</time>
      </trkpt>
      <trkpt lat="40.22791" lon="41.49046">
        <ele>2065.806548</ele>
        <time>2021-12-05T07:49:27.185Z</time>
      </trkpt>
      <trkpt lat="40.22705" lon="41.48809">
        <ele>2076.983965</ele>
        <time>2021-12-05T07:52:16.186Z</time>
      </trkpt>
      <trkpt lat="40.2263" lon="41.48572">
        <ele>2083.650467</ele>
        <time>2021-12-05T07:57:49.199Z</time>
      </trkpt>
      <trkpt lat="40.22562" lon="41.48324">
        <ele>2094.407702</ele>
        <time>2021-12-05T08:00:34.185Z</time>
      </trkpt>
      <trkpt lat="40.22493" lon="41.48076">
        <ele>2104.944834</ele>
        <time>2021-12-05T08:03:17.227Z</time>
      </trkpt>
      <trkpt lat="40.22421" lon="41.47842">
        <ele>2119.543446</ele>
        <time>2021-12-05T08:05:53.197Z</time>
      </trkpt>
      <trkpt lat="40.22305" lon="41.47633">
        <ele>2135.272472</ele>
        <time>2021-12-05T08:08:41.211Z</time>
      </trkpt>
      <trkpt lat="40.22145" lon="41.47493">
        <ele>2141.040695</ele>
        <time>2021-12-05T08:11:17.210Z</time>
      </trkpt>
      <trkpt lat="40.2195" lon="41.47417">
        <ele>2144.19519</ele>
        <time>2021-12-05T08:13:27.201Z</time>
      </trkpt>
      <trkpt lat="40.21736" lon="41.47411">
        <ele>2142.039765</ele>
        <time>2021-12-05T08:30:35.599Z</time>
      </trkpt>
      <trkpt lat="40.21515" lon="41.47389">
        <ele>2132.448119</ele>
        <time>2021-12-05T08:31:38.569Z</time>
      </trkpt>
      <trkpt lat="40.21283" lon="41.4737">
        <ele>2120.532328</ele>
        <time>2021-12-05T08:32:18.579Z</time>
      </trkpt>
      <trkpt lat="40.21039" lon="41.47352">
        <ele>2113.07007</ele>
        <time>2021-12-05T08:33:00.613Z</time>
      </trkpt>
      <trkpt lat="40.20822" lon="41.47336">
        <ele>2108.626308</ele>
        <time>2021-12-05T08:33:42.589Z</time>
      </trkpt>
      <trkpt lat="40.20626" lon="41.47323">
        <ele>2104.842296</ele>
        <time>2021-12-05T08:34:22.587Z</time>
      </trkpt>
      <trkpt lat="40.20418" lon="41.47306">
        <ele>2102.995879</ele>
        <time>2021-12-05T08:35:04.596Z</time>
      </trkpt>
      <trkpt lat="40.20211" lon="41.47279">
        <ele>2101.454929</ele>
        <time>2021-12-05T08:35:50.597Z</time>
      </trkpt>
      <trkpt lat="40.19979" lon="41.47215">
        <ele>2097.094397</ele>
        <time>2021-12-05T08:36:54.572Z</time>
      </trkpt>
      <trkpt lat="40.19765" lon="41.47109">
        <ele>2087.917765</ele>
        <time>2021-12-05T08:37:38.585Z</time>
      </trkpt>
      <trkpt lat="40.19568" lon="41.46964">
        <ele>2080.858629</ele>
        <time>2021-12-05T08:38:21.575Z</time>
      </trkpt>
      <trkpt lat="40.19402" lon="41.4682">
        <ele>2074.374766</ele>
        <time>2021-12-05T08:39:02.583Z</time>
      </trkpt>
      <trkpt lat="40.19224" lon="41.46667">
        <ele>2069.81524</ele>
        <time>2021-12-05T08:39:44.581Z</time>
      </trkpt>
      <trkpt lat="40.19049" lon="41.46515">
        <ele>2062.264325</ele>
        <time>2021-12-05T08:40:26.576Z</time>
      </trkpt>
      <trkpt lat="40.18875" lon="41.4636">
        <ele>2057.481011</ele>
        <time>2021-12-05T08:41:06.595Z</time>
      </trkpt>
      <trkpt lat="40.18682" lon="41.46177">
        <ele>2057.650137</ele>
        <time>2021-12-05T08:41:58.587Z</time>
      </trkpt>
      <trkpt lat="40.18522" lon="41.45984">
        <ele>2056.387292</ele>
        <time>2021-12-05T08:42:46.582Z</time>
      </trkpt>
      <trkpt lat="40.18378" lon="41.45741">
        <ele>2047.728623</ele>
        <time>2021-12-05T08:43:29.584Z</time>
      </trkpt>
      <trkpt lat="40.18228" lon="41.45489">
        <ele>2041.945169</ele>
        <time>2021-12-05T08:44:11.645Z</time>
      </trkpt>
      <trkpt lat="40.18123" lon="41.45259">
        <ele>2036.737346</ele>
        <time>2021-12-05T08:44:54.609Z</time>
      </trkpt>
      <trkpt lat="40.18019" lon="41.45014">
        <ele>2033.289816</ele>
        <time>2021-12-05T08:45:41.636Z</time>
      </trkpt>
      <trkpt lat="40.17913" lon="41.44755">
        <ele>2031.594715</ele>
        <time>2021-12-05T08:46:31.599Z</time>
      </trkpt>
      <trkpt lat="40.17794" lon="41.44484">
        <ele>2021.605899</ele>
        <time>2021-12-05T08:47:13.597Z</time>
      </trkpt>
      <trkpt lat="40.17679" lon="41.44234">
        <ele>2016.21391</ele>
        <time>2021-12-05T08:48:06.583Z</time>
      </trkpt>
      <trkpt lat="40.17508" lon="41.43967">
        <ele>2008.41174</ele>
        <time>2021-12-05T08:49:09.591Z</time>
      </trkpt>
      <trkpt lat="40.17316" lon="41.43802">
        <ele>2003.148441</ele>
        <time>2021-12-05T08:50:01.591Z</time>
      </trkpt>
      <trkpt lat="40.17096" lon="41.43701">
        <ele>2006.97112</ele>
        <time>2021-12-05T08:50:54.622Z</time>
      </trkpt>
      <trkpt lat="40.16882" lon="41.43626">
        <ele>2004.806347</ele>
        <time>2021-12-05T08:51:44.571Z</time>
      </trkpt>
      <trkpt lat="40.16655" lon="41.43553">
        <ele>2004.999595</ele>
        <time>2021-12-05T08:52:36.598Z</time>
      </trkpt>
      <trkpt lat="40.16463" lon="41.43481">
        <ele>2002.347048</ele>
        <time>2021-12-05T08:53:18.599Z</time>
      </trkpt>
      <trkpt lat="40.16262" lon="41.4342">
        <ele>2000.333117</ele>
        <time>2021-12-05T08:54:00.579Z</time>
      </trkpt>
      <trkpt lat="40.16061" lon="41.43351">
        <ele>1998.979218</ele>
        <time>2021-12-05T08:54:42.628Z</time>
      </trkpt>
      <trkpt lat="40.15867" lon="41.43288">
        <ele>1995.214301</ele>
        <time>2021-12-05T08:55:22.589Z</time>
      </trkpt>
      <trkpt lat="40.15626" lon="41.43251">
        <ele>1985.606224</ele>
        <time>2021-12-05T08:56:04.581Z</time>
      </trkpt>
      <trkpt lat="40.15375" lon="41.43314">
        <ele>1974.619507</ele>
        <time>2021-12-05T08:56:44.598Z</time>
      </trkpt>
      <trkpt lat="40.15126" lon="41.43365">
        <ele>1968.326326</ele>
        <time>2021-12-05T08:57:26.599Z</time>
      </trkpt>
      <trkpt lat="40.14914" lon="41.43373">
        <ele>1966.696035</ele>
        <time>2021-12-05T08:58:07.586Z</time>
      </trkpt>
      <trkpt lat="40.14697" lon="41.43346">
        <ele>1962.413594</ele>
        <time>2021-12-05T08:58:52.590Z</time>
      </trkpt>
      <trkpt lat="40.14502" lon="41.43293">
        <ele>1959.826674</ele>
        <time>2021-12-05T08:59:32.586Z</time>
      </trkpt>
      <trkpt lat="40.14298" lon="41.43203">
        <ele>1959.09585</ele>
        <time>2021-12-05T09:00:17.600Z</time>
      </trkpt>
      <trkpt lat="40.14105" lon="41.43096">
        <ele>1955.121328</ele>
        <time>2021-12-05T09:01:00.607Z</time>
      </trkpt>
      <trkpt lat="40.13926" lon="41.42983">
        <ele>1951.621846</ele>
        <time>2021-12-05T09:01:40.594Z</time>
      </trkpt>
      <trkpt lat="40.13738" lon="41.42844">
        <ele>1948.796277</ele>
        <time>2021-12-05T09:02:22.603Z</time>
      </trkpt>
      <trkpt lat="40.13557" lon="41.42694">
        <ele>1946.36883</ele>
        <time>2021-12-05T09:03:02.610Z</time>
      </trkpt>
      <trkpt lat="40.13366" lon="41.42533">
        <ele>1943.952609</ele>
        <time>2021-12-05T09:03:46.609Z</time>
      </trkpt>
      <trkpt lat="40.13168" lon="41.42396">
        <ele>1935.388502</ele>
        <time>2021-12-05T09:04:26.611Z</time>
      </trkpt>
      <trkpt lat="40.12902" lon="41.42252">
        <ele>1924.45281</ele>
        <time>2021-12-05T09:05:08.602Z</time>
      </trkpt>
      <trkpt lat="40.1264" lon="41.42166">
        <ele>1920.911985</ele>
        <time>2021-12-05T09:05:48.591Z</time>
      </trkpt>
      <trkpt lat="40.1242" lon="41.42095">
        <ele>1916.671434</ele>
        <time>2021-12-05T09:06:30.635Z</time>
      </trkpt>
      <trkpt lat="40.12233" lon="41.41957">
        <ele>1912.217333</ele>
        <time>2021-12-05T09:07:12.601Z</time>
      </trkpt>
      <trkpt lat="40.12081" lon="41.41763">
        <ele>1912.2632</ele>
        <time>2021-12-05T09:07:52.610Z</time>
      </trkpt>
      <trkpt lat="40.11927" lon="41.41548">
        <ele>1909.928739</ele>
        <time>2021-12-05T09:08:34.612Z</time>
      </trkpt>
      <trkpt lat="40.11777" lon="41.41343">
        <ele>1906.531843</ele>
        <time>2021-12-05T09:09:14.601Z</time>
      </trkpt>
      <trkpt lat="40.11621" lon="41.41115">
        <ele>1902.6806</ele>
        <time>2021-12-05T09:09:56.596Z</time>
      </trkpt>
      <trkpt lat="40.11532" lon="41.40877">
        <ele>1901.438911</ele>
        <time>2021-12-05T09:10:37.608Z</time>
      </trkpt>
      <trkpt lat="40.11456" lon="41.40606">
        <ele>1891.518843</ele>
        <time>2021-12-05T09:11:19.600Z</time>
      </trkpt>
      <trkpt lat="40.11388" lon="41.40355">
        <ele>1886.079509</ele>
        <time>2021-12-05T09:11:59.607Z</time>
      </trkpt>
      <trkpt lat="40.1131" lon="41.40097">
        <ele>1888.526825</ele>
        <time>2021-12-05T09:12:41.608Z</time>
      </trkpt>
      <trkpt lat="40.11227" lon="41.39817">
        <ele>1895.637135</ele>
        <time>2021-12-05T09:13:23.607Z</time>
      </trkpt>
      <trkpt lat="40.11153" lon="41.39546">
        <ele>1887.798007</ele>
        <time>2021-12-05T09:14:03.592Z</time>
      </trkpt>
      <trkpt lat="40.11077" lon="41.39285">
        <ele>1886.300828</ele>
        <time>2021-12-05T09:14:47.602Z</time>
      </trkpt>
      <trkpt lat="40.11002" lon="41.39033">
        <ele>1892.604499</ele>
        <time>2021-12-05T09:15:47.606Z</time>
      </trkpt>
      <trkpt lat="40.10926" lon="41.38767">
        <ele>1901.052725</ele>
        <time>2021-12-05T09:16:59.608Z</time>
      </trkpt>
      <trkpt lat="40.10854" lon="41.38509">
        <ele>1906.088056</ele>
        <time>2021-12-05T09:18:20.599Z</time>
      </trkpt>
      <trkpt lat="40.10783" lon="41.38245">
        <ele>1900.492633</ele>
        <time>2021-12-05T09:19:31.600Z</time>
      </trkpt>
      <trkpt lat="40.10692" lon="41.37988">
        <ele>1891.630995</ele>
        <time>2021-12-05T09:20:13.615Z</time>
      </trkpt>
      <trkpt lat="40.10547" lon="41.37738">
        <ele>1877.201473</ele>
        <time>2021-12-05T09:20:55.610Z</time>
      </trkpt>
      <trkpt lat="40.10362" lon="41.3755">
        <ele>1880.154846</ele>
        <time>2021-12-05T09:21:47.600Z</time>
      </trkpt>
      <trkpt lat="40.10162" lon="41.3743">
        <ele>1885.96118</ele>
        <time>2021-12-05T09:22:42.610Z</time>
      </trkpt>
      <trkpt lat="40.09924" lon="41.37307">
        <ele>1880.956058</ele>
        <time>2021-12-05T09:23:24.606Z</time>
      </trkpt>
      <trkpt lat="40.09659" lon="41.37173">
        <ele>1872.316749</ele>
        <time>2021-12-05T09:24:02.619Z</time>
      </trkpt>
      <trkpt lat="40.09454" lon="41.37068">
        <ele>1861.49083</ele>
        <time>2021-12-05T09:24:23.624Z</time>
      </trkpt>
      <trkpt lat="40.09258" lon="41.36969">
        <ele>1854.741425</ele>
        <time>2021-12-05T09:24:43.612Z</time>
      </trkpt>
      <trkpt lat="40.08991" lon="41.36833">
        <ele>1847.213218</ele>
        <time>2021-12-05T09:25:19.605Z</time>
      </trkpt>
      <trkpt lat="40.08747" lon="41.36707">
        <ele>1843.042169</ele>
        <time>2021-12-05T09:25:59.609Z</time>
      </trkpt>
      <trkpt lat="40.08518" lon="41.36592">
        <ele>1839.06505</ele>
        <time>2021-12-05T09:26:41.622Z</time>
      </trkpt>
      <trkpt lat="40.08313" lon="41.36487">
        <ele>1836.147625</ele>
        <time>2021-12-05T09:27:23.600Z</time>
      </trkpt>
      <trkpt lat="40.081" lon="41.36382">
        <ele>1833.530497</ele>
        <time>2021-12-05T09:28:03.607Z</time>
      </trkpt>
      <trkpt lat="40.07875" lon="41.36266">
        <ele>1827.964172</ele>
        <time>2021-12-05T09:28:45.625Z</time>
      </trkpt>
      <trkpt lat="40.07638" lon="41.36148">
        <ele>1823.356918</ele>
        <time>2021-12-05T09:29:25.625Z</time>
      </trkpt>
      <trkpt lat="40.07386" lon="41.36018">
        <ele>1818.27526</ele>
        <time>2021-12-05T09:30:07.612Z</time>
      </trkpt>
      <trkpt lat="40.0717" lon="41.35907">
        <ele>1814.138229</ele>
        <time>2021-12-05T09:30:47.649Z</time>
      </trkpt>
      <trkpt lat="40.06962" lon="41.35803">
        <ele>1812.229564</ele>
        <time>2021-12-05T09:31:29.610Z</time>
      </trkpt>
      <trkpt lat="40.06766" lon="41.35704">
        <ele>1811.897563</ele>
        <time>2021-12-05T09:32:09.628Z</time>
      </trkpt>
      <trkpt lat="40.06554" lon="41.35587">
        <ele>1810.386058</ele>
        <time>2021-12-05T09:32:51.609Z</time>
      </trkpt>
      <trkpt lat="40.06339" lon="41.3544">
        <ele>1805.382188</ele>
        <time>2021-12-05T09:33:33.621Z</time>
      </trkpt>
      <trkpt lat="40.06161" lon="41.35298">
        <ele>1801.611375</ele>
        <time>2021-12-05T09:34:13.632Z</time>
      </trkpt>
      <trkpt lat="40.05989" lon="41.35135">
        <ele>1798.775755</ele>
        <time>2021-12-05T09:34:55.621Z</time>
      </trkpt>
      <trkpt lat="40.05817" lon="41.34975">
        <ele>1796.91074</ele>
        <time>2021-12-05T09:35:35.620Z</time>
      </trkpt>
      <trkpt lat="40.05628" lon="41.34798">
        <ele>1794.458928</ele>
        <time>2021-12-05T09:36:17.667Z</time>
      </trkpt>
      <trkpt lat="40.05452" lon="41.3463">
        <ele>1793.391835</ele>
        <time>2021-12-05T09:36:57.621Z</time>
      </trkpt>
      <trkpt lat="40.05273" lon="41.34461">
        <ele>1791.619826</ele>
        <time>2021-12-05T09:37:39.627Z</time>
      </trkpt>
      <trkpt lat="40.05107" lon="41.343">
        <ele>1790.311546</ele>
        <time>2021-12-05T09:38:19.623Z</time>
      </trkpt>
      <trkpt lat="40.04933" lon="41.34134">
        <ele>1790.054632</ele>
        <time>2021-12-05T09:39:01.608Z</time>
      </trkpt>
      <trkpt lat="40.04757" lon="41.33969">
        <ele>1792.483415</ele>
        <time>2021-12-05T09:39:43.622Z</time>
      </trkpt>
      <trkpt lat="40.04595" lon="41.33817">
        <ele>1793.809839</ele>
        <time>2021-12-05T09:40:23.606Z</time>
      </trkpt>
      <trkpt lat="40.04428" lon="41.33655">
        <ele>1792.220022</ele>
        <time>2021-12-05T09:41:05.620Z</time>
      </trkpt>
      <trkpt lat="40.04262" lon="41.33499">
        <ele>1788.832738</ele>
        <time>2021-12-05T09:41:49.623Z</time>
      </trkpt>
      <trkpt lat="40.04093" lon="41.33344">
        <ele>1788.876481</ele>
        <time>2021-12-05T09:42:31.628Z</time>
      </trkpt>
      <trkpt lat="40.03914" lon="41.33221">
        <ele>1793.647106</ele>
        <time>2021-12-05T09:43:16.619Z</time>
      </trkpt>
      <trkpt lat="40.03762" lon="41.33031">
        <ele>1787.648733</ele>
        <time>2021-12-05T10:13:39.585Z</time>
      </trkpt>
      <trkpt lat="40.0358" lon="41.32857">
        <ele>1784.47392</ele>
        <time>2021-12-05T10:14:38.575Z</time>
      </trkpt>
      <trkpt lat="40.03404" lon="41.3269">
        <ele>1785.23199</ele>
        <time>2021-12-05T10:15:26.586Z</time>
      </trkpt>
      <trkpt lat="40.03233" lon="41.32528">
        <ele>1785.941478</ele>
        <time>2021-12-05T10:16:08.593Z</time>
      </trkpt>
      <trkpt lat="40.03078" lon="41.32372">
        <ele>1784.327862</ele>
        <time>2021-12-05T10:16:49.607Z</time>
      </trkpt>
      <trkpt lat="40.02911" lon="41.32223">
        <ele>1784.262488</ele>
        <time>2021-12-05T10:17:31.576Z</time>
      </trkpt>
      <trkpt lat="40.02746" lon="41.32068">
        <ele>1784.378991</ele>
        <time>2021-12-05T10:18:15.601Z</time>
      </trkpt>
      <trkpt lat="40.02556" lon="41.31886">
        <ele>1783.584228</ele>
        <time>2021-12-05T10:19:08.584Z</time>
      </trkpt>
      <trkpt lat="40.02362" lon="41.31717">
        <ele>1782.448278</ele>
        <time>2021-12-05T10:20:03.591Z</time>
      </trkpt>
      <trkpt lat="40.02126" lon="41.31562">
        <ele>1781.140701</ele>
        <time>2021-12-05T10:21:06.589Z</time>
      </trkpt>
      <trkpt lat="40.01887" lon="41.31459">
        <ele>1781.053193</ele>
        <time>2021-12-05T10:22:06.597Z</time>
      </trkpt>
      <trkpt lat="40.01656" lon="41.31384">
        <ele>1782.524491</ele>
        <time>2021-12-05T10:23:00.583Z</time>
      </trkpt>
      <trkpt lat="40.01407" lon="41.31305">
        <ele>1783.035773</ele>
        <time>2021-12-05T10:24:02.597Z</time>
      </trkpt>
      <trkpt lat="40.01171" lon="41.3123">
        <ele>1782.590523</ele>
        <time>2021-12-05T10:25:01.587Z</time>
      </trkpt>
      <trkpt lat="40.00918" lon="41.31149">
        <ele>1782.335474</ele>
        <time>2021-12-05T10:26:04.594Z</time>
      </trkpt>
      <trkpt lat="40.0068" lon="41.31074">
        <ele>1781.910542</ele>
        <time>2021-12-05T10:27:04.581Z</time>
      </trkpt>
      <trkpt lat="40.00431" lon="41.30995">
        <ele>1782.087307</ele>
        <time>2021-12-05T10:28:07.581Z</time>
      </trkpt>
      <trkpt lat="40.00193" lon="41.30919">
        <ele>1781.467208</ele>
        <time>2021-12-05T10:29:07.637Z</time>
      </trkpt>
      <trkpt lat="39.99937" lon="41.30839">
        <ele>1780.695236</ele>
        <time>2021-12-05T10:30:10.633Z</time>
      </trkpt>
      <trkpt lat="39.99702" lon="41.30766">
        <ele>1779.551825</ele>
        <time>2021-12-05T10:31:06.587Z</time>
      </trkpt>
      <trkpt lat="39.99445" lon="41.30686">
        <ele>1779.932496</ele>
        <time>2021-12-05T10:32:08.609Z</time>
      </trkpt>
      <trkpt lat="39.99192" lon="41.30607">
        <ele>1778.500847</ele>
        <time>2021-12-05T10:33:08.603Z</time>
      </trkpt>
      <trkpt lat="39.98953" lon="41.30532">
        <ele>1776.411416</ele>
        <time>2021-12-05T10:34:08.597Z</time>
      </trkpt>
      <trkpt lat="39.987" lon="41.30453">
        <ele>1777.83188</ele>
        <time>2021-12-05T10:35:11.593Z</time>
      </trkpt>
      <trkpt lat="39.98468" lon="41.30376">
        <ele>1777.020595</ele>
        <time>2021-12-05T10:36:11.615Z</time>
      </trkpt>
      <trkpt lat="39.9823" lon="41.30298">
        <ele>1779.014575</ele>
        <time>2021-12-05T10:37:14.605Z</time>
      </trkpt>
      <trkpt lat="39.97995" lon="41.30222">
        <ele>1779.807461</ele>
        <time>2021-12-05T10:38:14.597Z</time>
      </trkpt>
      <trkpt lat="39.97744" lon="41.30141">
        <ele>1780.513683</ele>
        <time>2021-12-05T10:39:17.615Z</time>
      </trkpt>
      <trkpt lat="39.97518" lon="41.30068">
        <ele>1782.214451</ele>
        <time>2021-12-05T10:40:17.592Z</time>
      </trkpt>
      <trkpt lat="39.9729" lon="41.29993">
        <ele>1782.363294</ele>
        <time>2021-12-05T10:41:20.580Z</time>
      </trkpt>
      <trkpt lat="39.97058" lon="41.29922">
        <ele>1782.22804</ele>
        <time>2021-12-05T10:42:23.594Z</time>
      </trkpt>
      <trkpt lat="39.96843" lon="41.29854">
        <ele>1783.452368</ele>
        <time>2021-12-05T10:43:23.605Z</time>
      </trkpt>
      <trkpt lat="39.9662" lon="41.2978">
        <ele>1784.368729</ele>
        <time>2021-12-05T10:44:26.632Z</time>
      </trkpt>
      <trkpt lat="39.96405" lon="41.29713">
        <ele>1785.896131</ele>
        <time>2021-12-05T10:45:26.611Z</time>
      </trkpt>
      <trkpt lat="39.96173" lon="41.29639">
        <ele>1785.809501</ele>
        <time>2021-12-05T10:46:29.595Z</time>
      </trkpt>
      <trkpt lat="39.95965" lon="41.29568">
        <ele>1789.794194</ele>
        <time>2021-12-05T10:47:37.608Z</time>
      </trkpt>
      <trkpt lat="39.9575" lon="41.29501">
        <ele>1793.230694</ele>
        <time>2021-12-05T10:48:58.620Z</time>
      </trkpt>
      <trkpt lat="39.95536" lon="41.29432">
        <ele>1790.812251</ele>
        <time>2021-12-05T10:49:44.607Z</time>
      </trkpt>
      <trkpt lat="39.95299" lon="41.29356">
        <ele>1800.829253</ele>
        <time>2021-12-05T10:50:46.598Z</time>
      </trkpt>
      <trkpt lat="39.95087" lon="41.29265">
        <ele>1804.716476</ele>
        <time>2021-12-05T10:51:47.611Z</time>
      </trkpt>
      <trkpt lat="39.94891" lon="41.29247">
        <ele>1803.555235</ele>
        <time>2021-12-05T10:55:55.613Z</time>
      </trkpt>
      <trkpt lat="39.94681" lon="41.29176">
        <ele>1805.68039</ele>
        <time>2021-12-05T10:57:08.614Z</time>
      </trkpt>
      <trkpt lat="39.94474" lon="41.29112">
        <ele>1811.100302</ele>
        <time>2021-12-05T10:58:34.612Z</time>
      </trkpt>
      <trkpt lat="39.9427" lon="41.29042">
        <ele>1814.782385</ele>
        <time>2021-12-05T10:59:42.606Z</time>
      </trkpt>
      <trkpt lat="39.94079" lon="41.28981">
        <ele>1816.780412</ele>
        <time>2021-12-05T11:00:44.605Z</time>
      </trkpt>
      <trkpt lat="39.93881" lon="41.28898">
        <ele>1819.793286</ele>
        <time>2021-12-05T11:01:52.599Z</time>
      </trkpt>
      <trkpt lat="39.93685" lon="41.28821">
        <ele>1826.573707</ele>
        <time>2021-12-05T11:02:58.617Z</time>
      </trkpt>
      <trkpt lat="39.9348" lon="41.28738">
        <ele>1837.294627</ele>
        <time>2021-12-05T11:04:15.605Z</time>
      </trkpt>
      <trkpt lat="39.93264" lon="41.28646">
        <ele>1853.380831</ele>
        <time>2021-12-05T11:05:41.587Z</time>
      </trkpt>
      <trkpt lat="39.93069" lon="41.28571">
        <ele>1859.123657</ele>
        <time>2021-12-05T11:07:06.624Z</time>
      </trkpt>
      <trkpt lat="39.92868" lon="41.28476">
        <ele>1852.194049</ele>
        <time>2021-12-05T11:08:37.615Z</time>
      </trkpt>
      <trkpt lat="39.92674" lon="41.28402">
        <ele>1858.089956</ele>
        <time>2021-12-05T11:10:20.633Z</time>
      </trkpt>
      <trkpt lat="39.92478" lon="41.28318">
        <ele>1866.493815</ele>
        <time>2021-12-05T11:12:07.611Z</time>
      </trkpt>
      <trkpt lat="39.92346" lon="41.28163">
        <ele>1875.426509</ele>
        <time>2021-12-05T11:13:45.604Z</time>
      </trkpt>
      <trkpt lat="39.92249" lon="41.27913">
        <ele>1876.755773</ele>
        <time>2021-12-05T11:15:15.660Z</time>
      </trkpt>
      <trkpt lat="39.92069" lon="41.27953">
        <ele>1886.541927</ele>
        <time>2021-12-05T11:16:48.609Z</time>
      </trkpt>
      <trkpt lat="39.91897" lon="41.27838">
        <ele>1892.885283</ele>
        <time>2021-12-05T11:18:29.616Z</time>
      </trkpt>
      <trkpt lat="39.91742" lon="41.27735">
        <ele>1898.394236</ele>
        <time>2021-12-05T11:20:02.604Z</time>
      </trkpt>
      <trkpt lat="39.91625" lon="41.27499">
        <ele>1895.102608</ele>
        <time>2021-12-05T11:20:51.598Z</time>
      </trkpt>
      <trkpt lat="39.91495" lon="41.27276">
        <ele>1898.827925</ele>
        <time>2021-12-05T11:21:36.598Z</time>
      </trkpt>
      <trkpt lat="39.91346" lon="41.27071">
        <ele>1902.71404</ele>
        <time>2021-12-05T11:22:55.613Z</time>
      </trkpt>
      <trkpt lat="39.91168" lon="41.27063">
        <ele>1908.14858</ele>
        <time>2021-12-05T11:24:43.592Z</time>
      </trkpt>
      <trkpt lat="39.911" lon="41.2702">
        <ele>1908.14858</ele>
        <time>2021-12-05T11:28:35.495Z</time>
      </trkpt>
      <trkpt lat="39.91089" lon="41.27029">
        <ele>1932.176681</ele>
        <time>2021-12-10T06:24:19.514Z</time>
      </trkpt>
      <trkpt lat="39.91056" lon="41.27154">
        <ele>1931.586171</ele>
        <time>2021-12-10T06:25:22.516Z</time>
      </trkpt>
      <trkpt lat="39.91006" lon="41.27343">
        <ele>1934.681557</ele>
        <time>2021-12-10T06:26:44.574Z</time>
      </trkpt>
      <trkpt lat="39.90815" lon="41.27318">
        <ele>1945.627538</ele>
        <time>2021-12-10T06:28:50.551Z</time>
      </trkpt>
      <trkpt lat="39.90608" lon="41.27356">
        <ele>1948.10746</ele>
        <time>2021-12-10T06:30:44.499Z</time>
      </trkpt>
      <trkpt lat="39.90591" lon="41.27083">
        <ele>1949.328479</ele>
        <time>2021-12-10T06:31:30.518Z</time>
      </trkpt>
      <trkpt lat="39.90563" lon="41.26721">
        <ele>1941.628662</ele>
        <time>2021-12-10T06:32:12.540Z</time>
      </trkpt>
      <trkpt lat="39.90551" lon="41.26456">
        <ele>1926.331267</ele>
        <time>2021-12-10T06:33:12.316Z</time>
      </trkpt>
      <trkpt lat="39.90527" lon="41.26148">
        <ele>1919.194061</ele>
        <time>2021-12-10T06:33:55.343Z</time>
      </trkpt>
      <trkpt lat="39.90512" lon="41.25854">
        <ele>1907.931234</ele>
        <time>2021-12-10T06:34:41.329Z</time>
      </trkpt>
      <trkpt lat="39.90493" lon="41.25574">
        <ele>1902.443092</ele>
        <time>2021-12-10T06:35:56.311Z</time>
      </trkpt>
      <trkpt lat="39.904" lon="41.25283">
        <ele>1901.76621</ele>
        <time>2021-12-10T06:36:57.324Z</time>
      </trkpt>
      <trkpt lat="39.9032" lon="41.25039">
        <ele>1902.91515</ele>
        <time>2021-12-10T06:38:01.335Z</time>
      </trkpt>
      <trkpt lat="39.90128" lon="41.24912">
        <ele>1902.588349</ele>
        <time>2021-12-10T06:39:08.322Z</time>
      </trkpt>
      <trkpt lat="39.89936" lon="41.24835">
        <ele>1909.72234</ele>
        <time>2021-12-10T06:40:33.334Z</time>
      </trkpt>
      <trkpt lat="39.8974" lon="41.24747">
        <ele>1918.837342</ele>
        <time>2021-12-10T06:42:05.314Z</time>
      </trkpt>
      <trkpt lat="39.89557" lon="41.2465">
        <ele>1923.157568</ele>
        <time>2021-12-10T06:43:37.323Z</time>
      </trkpt>
      <trkpt lat="39.89546" lon="41.24354">
        <ele>1919.717671</ele>
        <time>2021-12-10T06:44:38.311Z</time>
      </trkpt>
      <trkpt lat="39.89472" lon="41.24056">
        <ele>1916.420194</ele>
        <time>2021-12-10T06:45:43.329Z</time>
      </trkpt>
      <trkpt lat="39.89315" lon="41.24048">
        <ele>1920.391353</ele>
        <time>2021-12-10T06:46:46.345Z</time>
      </trkpt>
      <trkpt lat="39.89274" lon="41.24055">
        <ele>1921.079839</ele>
        <time>2021-12-10T06:50:33.342Z</time>
      </trkpt>
      <trkpt lat="39.89393" lon="41.24137">
        <ele>1918.170216</ele>
        <time>2021-12-10T06:51:31.327Z</time>
      </trkpt>
      <trkpt lat="39.89246" lon="41.24329">
        <ele>1928.440851</ele>
        <time>2021-12-10T06:53:04.338Z</time>
      </trkpt>
      <trkpt lat="39.89254" lon="41.24594">
        <ele>1935.815524</ele>
        <time>2021-12-10T06:54:44.333Z</time>
      </trkpt>
      <trkpt lat="39.89205" lon="41.24437">
        <ele>1936.660253</ele>
        <time>2021-12-10T06:57:32.329Z</time>
      </trkpt>
      <trkpt lat="39.89076" lon="41.24192">
        <ele>1937.607852</ele>
        <time>2021-12-10T06:58:26.375Z</time>
      </trkpt>
      <trkpt lat="39.88868" lon="41.24044">
        <ele>1942.012061</ele>
        <time>2021-12-10T06:59:29.333Z</time>
      </trkpt>
      <trkpt lat="39.88684" lon="41.23897">
        <ele>1952.086355</ele>
        <time>2021-12-10T07:00:29.327Z</time>
      </trkpt>
      <trkpt lat="39.8852" lon="41.23647">
        <ele>1959.198025</ele>
        <time>2021-12-10T07:01:55.336Z</time>
      </trkpt>
      <trkpt lat="39.88383" lon="41.23437">
        <ele>1953.290647</ele>
        <time>2021-12-10T07:03:19.346Z</time>
      </trkpt>
      <trkpt lat="39.88233" lon="41.23218">
        <ele>1953.447563</ele>
        <time>2021-12-10T07:04:39.315Z</time>
      </trkpt>
      <trkpt lat="39.88084" lon="41.23002">
        <ele>1957.506517</ele>
        <time>2021-12-10T07:06:09.348Z</time>
      </trkpt>
      <trkpt lat="39.87945" lon="41.22802">
        <ele>1960.401184</ele>
        <time>2021-12-10T07:07:21.339Z</time>
      </trkpt>
      <trkpt lat="39.87801" lon="41.22593">
        <ele>1960.457921</ele>
        <time>2021-12-10T07:08:27.365Z</time>
      </trkpt>
      <trkpt lat="39.87652" lon="41.22389">
        <ele>1959.615876</ele>
        <time>2021-12-10T07:09:27.337Z</time>
      </trkpt>
      <trkpt lat="39.87483" lon="41.22185">
        <ele>1958.991803</ele>
        <time>2021-12-10T07:10:30.358Z</time>
      </trkpt>
      <trkpt lat="39.87302" lon="41.21982">
        <ele>1957.049301</ele>
        <time>2021-12-10T07:11:26.361Z</time>
      </trkpt>
      <trkpt lat="39.87102" lon="41.21772">
        <ele>1955.629823</ele>
        <time>2021-12-10T07:12:24.349Z</time>
      </trkpt>
      <trkpt lat="39.86912" lon="41.21611">
        <ele>1952.189613</ele>
        <time>2021-12-10T07:13:15.353Z</time>
      </trkpt>
      <trkpt lat="39.86721" lon="41.21453">
        <ele>1949.042028</ele>
        <time>2021-12-10T07:14:09.342Z</time>
      </trkpt>
      <trkpt lat="39.86551" lon="41.21201">
        <ele>1944.066928</ele>
        <time>2021-12-10T07:15:03.350Z</time>
      </trkpt>
      <trkpt lat="39.86383" lon="41.20866">
        <ele>1931.636833</ele>
        <time>2021-12-10T07:15:43.357Z</time>
      </trkpt>
      <trkpt lat="39.8622" lon="41.20543">
        <ele>1919.598122</ele>
        <time>2021-12-10T07:16:18.354Z</time>
      </trkpt>
      <trkpt lat="39.86105" lon="41.20283">
        <ele>1911.875514</ele>
        <time>2021-12-10T07:21:20.340Z</time>
      </trkpt>
      <trkpt lat="39.86037" lon="41.19984">
        <ele>1909.281185</ele>
        <time>2021-12-10T07:22:12.329Z</time>
      </trkpt>
      <trkpt lat="39.8597" lon="41.19694">
        <ele>1910.909231</ele>
        <time>2021-12-10T07:23:12.337Z</time>
      </trkpt>
      <trkpt lat="39.85864" lon="41.19429">
        <ele>1910.128935</ele>
        <time>2021-12-10T07:24:03.333Z</time>
      </trkpt>
      <trkpt lat="39.85756" lon="41.19206">
        <ele>1906.993128</ele>
        <time>2021-12-10T07:24:43.363Z</time>
      </trkpt>
      <trkpt lat="39.85632" lon="41.18961">
        <ele>1902.615048</ele>
        <time>2021-12-10T07:25:31.348Z</time>
      </trkpt>
      <trkpt lat="39.85454" lon="41.18685">
        <ele>1891.501471</ele>
        <time>2021-12-10T07:26:10.354Z</time>
      </trkpt>
      <trkpt lat="39.85272" lon="41.1844">
        <ele>1883.731701</ele>
        <time>2021-12-10T07:26:39.333Z</time>
      </trkpt>
      <trkpt lat="39.85083" lon="41.18187">
        <ele>1883.935556</ele>
        <time>2021-12-10T07:27:28.352Z</time>
      </trkpt>
      <trkpt lat="39.84938" lon="41.17993">
        <ele>1889.007556</ele>
        <time>2021-12-10T07:28:37.350Z</time>
      </trkpt>
      <trkpt lat="39.84777" lon="41.17776">
        <ele>1892.846974</ele>
        <time>2021-12-10T07:29:56.324Z</time>
      </trkpt>
      <trkpt lat="39.8463" lon="41.17577">
        <ele>1894.292038</ele>
        <time>2021-12-10T07:30:57.364Z</time>
      </trkpt>
      <trkpt lat="39.84452" lon="41.17336">
        <ele>1895.605696</ele>
        <time>2021-12-10T07:32:00.358Z</time>
      </trkpt>
      <trkpt lat="39.84303" lon="41.17134">
        <ele>1901.060379</ele>
        <time>2021-12-10T07:33:01.331Z</time>
      </trkpt>
      <trkpt lat="39.84148" lon="41.1693">
        <ele>1904.343916</ele>
        <time>2021-12-10T07:34:24.344Z</time>
      </trkpt>
      <trkpt lat="39.83976" lon="41.16752">
        <ele>1904.94891</ele>
        <time>2021-12-10T07:35:43.348Z</time>
      </trkpt>
      <trkpt lat="39.83781" lon="41.16601">
        <ele>1908.117839</ele>
        <time>2021-12-10T07:37:07.346Z</time>
      </trkpt>
      <trkpt lat="39.83609" lon="41.1647">
        <ele>1916.206437</ele>
        <time>2021-12-10T07:38:41.342Z</time>
      </trkpt>
      <trkpt lat="39.83431" lon="41.16336">
        <ele>1927.52629</ele>
        <time>2021-12-10T07:40:41.373Z</time>
      </trkpt>
      <trkpt lat="39.83252" lon="41.16207">
        <ele>1936.225583</ele>
        <time>2021-12-10T07:42:47.352Z</time>
      </trkpt>
      <trkpt lat="39.8306" lon="41.16126">
        <ele>1942.510257</ele>
        <time>2021-12-10T07:44:34.355Z</time>
      </trkpt>
      <trkpt lat="39.82851" lon="41.16052">
        <ele>1948.979009</ele>
        <time>2021-12-10T07:46:12.359Z</time>
      </trkpt>
      <trkpt lat="39.82662" lon="41.15943">
        <ele>1954.361149</ele>
        <time>2021-12-10T07:47:44.353Z</time>
      </trkpt>
      <trkpt lat="39.82496" lon="41.15785">
        <ele>1957.428046</ele>
        <time>2021-12-10T07:49:08.361Z</time>
      </trkpt>
      <trkpt lat="39.82354" lon="41.15579">
        <ele>1962.171605</ele>
        <time>2021-12-10T07:50:22.368Z</time>
      </trkpt>
      <trkpt lat="39.82222" lon="41.15343">
        <ele>1961.722883</ele>
        <time>2021-12-10T07:51:26.363Z</time>
      </trkpt>
      <trkpt lat="39.82094" lon="41.15117">
        <ele>1955.868149</ele>
        <time>2021-12-10T07:52:14.348Z</time>
      </trkpt>
      <trkpt lat="39.81972" lon="41.14897">
        <ele>1953.503146</ele>
        <time>2021-12-10T07:52:56.346Z</time>
      </trkpt>
      <trkpt lat="39.8189" lon="41.14647">
        <ele>1948.898836</ele>
        <time>2021-12-10T07:53:36.333Z</time>
      </trkpt>
      <trkpt lat="39.81847" lon="41.1436">
        <ele>1946.498281</ele>
        <time>2021-12-10T07:54:18.363Z</time>
      </trkpt>
      <trkpt lat="39.81868" lon="41.14059">
        <ele>1941.613985</ele>
        <time>2021-12-10T07:55:00.359Z</time>
      </trkpt>
      <trkpt lat="39.81882" lon="41.13783">
        <ele>1938.498358</ele>
        <time>2021-12-10T07:55:40.365Z</time>
      </trkpt>
      <trkpt lat="39.81823" lon="41.13402">
        <ele>1932.49722</ele>
        <time>2021-12-10T07:56:22.357Z</time>
      </trkpt>
      <trkpt lat="39.81726" lon="41.13154">
        <ele>1925.508179</ele>
        <time>2021-12-10T07:56:45.350Z</time>
      </trkpt>
      <trkpt lat="39.81613" lon="41.12905">
        <ele>1916.302282</ele>
        <time>2021-12-10T07:57:06.366Z</time>
      </trkpt>
      <trkpt lat="39.81506" lon="41.12671">
        <ele>1909.112758</ele>
        <time>2021-12-10T07:57:26.348Z</time>
      </trkpt>
      <trkpt lat="39.81383" lon="41.12405">
        <ele>1904.993897</ele>
        <time>2021-12-10T07:57:52.331Z</time>
      </trkpt>
      <trkpt lat="39.8126" lon="41.12132">
        <ele>1901.64013</ele>
        <time>2021-12-10T07:58:34.345Z</time>
      </trkpt>
      <trkpt lat="39.81132" lon="41.11891">
        <ele>1904.999145</ele>
        <time>2021-12-10T07:59:37.361Z</time>
      </trkpt>
      <trkpt lat="39.80961" lon="41.11757">
        <ele>1909.560434</ele>
        <time>2021-12-10T08:00:42.369Z</time>
      </trkpt>
      <trkpt lat="39.80751" lon="41.11717">
        <ele>1911.548721</ele>
        <time>2021-12-10T08:01:57.351Z</time>
      </trkpt>
      <trkpt lat="39.80548" lon="41.11789">
        <ele>1916.876072</ele>
        <time>2021-12-10T08:03:47.338Z</time>
      </trkpt>
      <trkpt lat="39.80356" lon="41.11837">
        <ele>1928.717871</ele>
        <time>2021-12-10T08:05:52.355Z</time>
      </trkpt>
      <trkpt lat="39.80154" lon="41.11809">
        <ele>1944.901363</ele>
        <time>2021-12-10T08:08:12.381Z</time>
      </trkpt>
      <trkpt lat="39.79981" lon="41.11706">
        <ele>1963.74669</ele>
        <time>2021-12-10T08:10:27.352Z</time>
      </trkpt>
      <trkpt lat="39.79833" lon="41.11525">
        <ele>1981.829328</ele>
        <time>2021-12-10T08:12:52.363Z</time>
      </trkpt>
      <trkpt lat="39.79721" lon="41.11318">
        <ele>1992.175108</ele>
        <time>2021-12-10T08:14:56.354Z</time>
      </trkpt>
      <trkpt lat="39.7964" lon="41.11074">
        <ele>1999.969153</ele>
        <time>2021-12-10T08:16:45.352Z</time>
      </trkpt>
      <trkpt lat="39.79611" lon="41.10822">
        <ele>2002.045394</ele>
        <time>2021-12-10T08:18:31.361Z</time>
      </trkpt>
      <trkpt lat="39.79583" lon="41.10559">
        <ele>2007.685126</ele>
        <time>2021-12-10T08:20:23.348Z</time>
      </trkpt>
      <trkpt lat="39.79548" lon="41.10309">
        <ele>2012.38074</ele>
        <time>2021-12-10T08:22:05.357Z</time>
      </trkpt>
      <trkpt lat="39.79468" lon="41.10047">
        <ele>2017.062732</ele>
        <time>2021-12-10T08:23:35.347Z</time>
      </trkpt>
      <trkpt lat="39.79372" lon="41.09781">
        <ele>2021.126469</ele>
        <time>2021-12-10T08:24:52.370Z</time>
      </trkpt>
      <trkpt lat="39.79291" lon="41.0953">
        <ele>2023.093126</ele>
        <time>2021-12-10T08:25:52.363Z</time>
      </trkpt>
      <trkpt lat="39.79204" lon="41.09255">
        <ele>2026.671691</ele>
        <time>2021-12-10T08:35:33.394Z</time>
      </trkpt>
      <trkpt lat="39.79084" lon="41.09034">
        <ele>2030.865182</ele>
        <time>2021-12-10T08:36:48.358Z</time>
      </trkpt>
      <trkpt lat="39.78958" lon="41.08785">
        <ele>2032.188831</ele>
        <time>2021-12-10T08:37:51.347Z</time>
      </trkpt>
      <trkpt lat="39.78863" lon="41.08539">
        <ele>2031.480953</ele>
        <time>2021-12-10T08:38:51.344Z</time>
      </trkpt>
      <trkpt lat="39.78694" lon="41.08348">
        <ele>2030.079075</ele>
        <time>2021-12-10T08:39:54.342Z</time>
      </trkpt>
      <trkpt lat="39.78496" lon="41.08279">
        <ele>2035.652784</ele>
        <time>2021-12-10T08:41:14.376Z</time>
      </trkpt>
      <trkpt lat="39.78296" lon="41.08215">
        <ele>2047.118912</ele>
        <time>2021-12-10T08:43:28.357Z</time>
      </trkpt>
      <trkpt lat="39.78109" lon="41.08156">
        <ele>2059.821813</ele>
        <time>2021-12-10T08:45:47.360Z</time>
      </trkpt>
      <trkpt lat="39.77918" lon="41.08067">
        <ele>2074.820347</ele>
        <time>2021-12-10T08:48:25.362Z</time>
      </trkpt>
      <trkpt lat="39.77774" lon="41.07884">
        <ele>2087.350207</ele>
        <time>2021-12-10T08:50:59.382Z</time>
      </trkpt>
      <trkpt lat="39.77645" lon="41.07668">
        <ele>2090.109335</ele>
        <time>2021-12-10T08:52:31.364Z</time>
      </trkpt>
      <trkpt lat="39.77484" lon="41.07394">
        <ele>2084.166728</ele>
        <time>2021-12-10T08:53:13.370Z</time>
      </trkpt>
      <trkpt lat="39.77354" lon="41.07176">
        <ele>2081.835409</ele>
        <time>2021-12-10T08:54:09.420Z</time>
      </trkpt>
      <trkpt lat="39.77231" lon="41.06965">
        <ele>2082.41442</ele>
        <time>2021-12-10T08:55:12.393Z</time>
      </trkpt>
      <trkpt lat="39.77103" lon="41.06755">
        <ele>2089.67678</ele>
        <time>2021-12-10T08:56:25.378Z</time>
      </trkpt>
      <trkpt lat="39.77022" lon="41.0651">
        <ele>2096.910064</ele>
        <time>2021-12-10T08:58:09.404Z</time>
      </trkpt>
      <trkpt lat="39.77018" lon="41.06254">
        <ele>2101.672742</ele>
        <time>2021-12-10T08:59:51.378Z</time>
      </trkpt>
      <trkpt lat="39.77017" lon="41.05983">
        <ele>2110.85354</ele>
        <time>2021-12-10T09:01:36.381Z</time>
      </trkpt>
      <trkpt lat="39.7701" lon="41.05721">
        <ele>2116.352098</ele>
        <time>2021-12-10T09:03:15.375Z</time>
      </trkpt>
      <trkpt lat="39.76979" lon="41.0543">
        <ele>2114.766665</ele>
        <time>2021-12-10T09:04:20.382Z</time>
      </trkpt>
      <trkpt lat="39.7693" lon="41.05141">
        <ele>2107.069242</ele>
        <time>2021-12-10T09:05:23.373Z</time>
      </trkpt>
      <trkpt lat="39.76875" lon="41.04867">
        <ele>2104.320376</ele>
        <time>2021-12-10T09:06:23.380Z</time>
      </trkpt>
      <trkpt lat="39.76822" lon="41.04593">
        <ele>2108.948505</ele>
        <time>2021-12-10T09:07:27.360Z</time>
      </trkpt>
      <trkpt lat="39.76816" lon="41.04332">
        <ele>2121.624402</ele>
        <time>2021-12-10T09:09:03.374Z</time>
      </trkpt>
      <trkpt lat="39.76853" lon="41.04071">
        <ele>2133.212718</ele>
        <time>2021-12-10T09:11:03.341Z</time>
      </trkpt>
      <trkpt lat="39.76839" lon="41.03821">
        <ele>2146.079921</ele>
        <time>2021-12-10T09:12:59.353Z</time>
      </trkpt>
      <trkpt lat="39.76754" lon="41.03572">
        <ele>2155.109708</ele>
        <time>2021-12-10T09:15:06.385Z</time>
      </trkpt>
      <trkpt lat="39.76666" lon="41.03347">
        <ele>2161.0701</ele>
        <time>2021-12-10T09:17:15.369Z</time>
      </trkpt>
      <trkpt lat="39.76568" lon="41.03107">
        <ele>2173.202417</ele>
        <time>2021-12-10T09:19:36.369Z</time>
      </trkpt>
      <trkpt lat="39.76471" lon="41.02875">
        <ele>2185.897464</ele>
        <time>2021-12-10T09:21:59.373Z</time>
      </trkpt>
      <trkpt lat="39.76382" lon="41.02656">
        <ele>2202.802199</ele>
        <time>2021-12-10T09:24:37.373Z</time>
      </trkpt>
      <trkpt lat="39.76266" lon="41.02448">
        <ele>2214.149403</ele>
        <time>2021-12-10T09:27:32.380Z</time>
      </trkpt>
      <trkpt lat="39.76093" lon="41.02357">
        <ele>2228.08206</ele>
        <time>2021-12-10T09:30:20.355Z</time>
      </trkpt>
      <trkpt lat="39.75891" lon="41.02347">
        <ele>2245.893188</ele>
        <time>2021-12-10T09:36:15.387Z</time>
      </trkpt>
      <trkpt lat="39.75713" lon="41.02257">
        <ele>2263.303724</ele>
        <time>2021-12-10T09:39:05.378Z</time>
      </trkpt>
      <trkpt lat="39.75571" lon="41.02079">
        <ele>2276.877256</ele>
        <time>2021-12-10T09:41:59.402Z</time>
      </trkpt>
      <trkpt lat="39.75446" lon="41.01892">
        <ele>2286.927932</ele>
        <time>2021-12-10T09:44:34.387Z</time>
      </trkpt>
      <trkpt lat="39.75345" lon="41.0167">
        <ele>2300.954449</ele>
        <time>2021-12-10T09:47:14.390Z</time>
      </trkpt>
      <trkpt lat="39.75244" lon="41.01463">
        <ele>2310.785694</ele>
        <time>2021-12-10T09:49:49.416Z</time>
      </trkpt>
      <trkpt lat="39.75072" lon="41.01328">
        <ele>2323.922433</ele>
        <time>2021-12-10T09:52:27.380Z</time>
      </trkpt>
      <trkpt lat="39.74897" lon="41.01198">
        <ele>2336.454011</ele>
        <time>2021-12-10T09:55:17.386Z</time>
      </trkpt>
      <trkpt lat="39.74713" lon="41.01141">
        <ele>2345.470272</ele>
        <time>2021-12-10T09:57:52.378Z</time>
      </trkpt>
      <trkpt lat="39.74515" lon="41.01092">
        <ele>2355.260484</ele>
        <time>2021-12-10T10:00:06.395Z</time>
      </trkpt>
      <trkpt lat="39.74338" lon="41.00971">
        <ele>2359.713958</ele>
        <time>2021-12-10T10:02:09.393Z</time>
      </trkpt>
      <trkpt lat="39.74131" lon="41.00934">
        <ele>2362.724704</ele>
        <time>2021-12-10T10:03:54.386Z</time>
      </trkpt>
      <trkpt lat="39.73938" lon="41.00895">
        <ele>2370.789302</ele>
        <time>2021-12-10T10:06:00.402Z</time>
      </trkpt>
      <trkpt lat="39.73802" lon="41.00698">
        <ele>2375.13724</ele>
        <time>2021-12-10T10:08:12.386Z</time>
      </trkpt>
      <trkpt lat="39.73745" lon="41.00411">
        <ele>2368.976262</ele>
        <time>2021-12-10T10:21:04.969Z</time>
      </trkpt>
      <trkpt lat="39.73673" lon="41.00038">
        <ele>2348.737828</ele>
        <time>2021-12-10T10:21:40.961Z</time>
      </trkpt>
      <trkpt lat="39.73652" lon="40.99765">
        <ele>2335.837059</ele>
        <time>2021-12-10T10:22:00.936Z</time>
      </trkpt>
      <trkpt lat="39.73639" lon="40.99482">
        <ele>2325.86177</ele>
        <time>2021-12-10T10:22:21.951Z</time>
      </trkpt>
      <trkpt lat="39.73627" lon="40.99207">
        <ele>2317.440161</ele>
        <time>2021-12-10T10:22:42.923Z</time>
      </trkpt>
      <trkpt lat="39.7361" lon="40.98913">
        <ele>2305.449562</ele>
        <time>2021-12-10T10:23:02.953Z</time>
      </trkpt>
      <trkpt lat="39.73568" lon="40.98644">
        <ele>2296.898265</ele>
        <time>2021-12-10T10:23:23.920Z</time>
      </trkpt>
      <trkpt lat="39.73482" lon="40.98241">
        <ele>2289.545479</ele>
        <time>2021-12-10T10:24:02.935Z</time>
      </trkpt>
      <trkpt lat="39.73264" lon="40.97881">
        <ele>2277.093987</ele>
        <time>2021-12-10T10:24:44.931Z</time>
      </trkpt>
      <trkpt lat="39.73059" lon="40.97735">
        <ele>2268.205167</ele>
        <time>2021-12-10T10:25:10.933Z</time>
      </trkpt>
      <trkpt lat="39.72776" lon="40.97675">
        <ele>2258.802436</ele>
        <time>2021-12-10T10:25:45.937Z</time>
      </trkpt>
      <trkpt lat="39.72483" lon="40.97766">
        <ele>2246.711075</ele>
        <time>2021-12-10T10:26:25.969Z</time>
      </trkpt>
      <trkpt lat="39.72254" lon="40.97823">
        <ele>2252.450532</ele>
        <time>2021-12-10T10:27:24.936Z</time>
      </trkpt>
      <trkpt lat="39.72056" lon="40.97813">
        <ele>2262.403209</ele>
        <time>2021-12-10T10:29:07.948Z</time>
      </trkpt>
      <trkpt lat="39.71855" lon="40.97785">
        <ele>2269.443108</ele>
        <time>2021-12-10T10:30:55.932Z</time>
      </trkpt>
      <trkpt lat="39.71677" lon="40.9766">
        <ele>2279.268084</ele>
        <time>2021-12-10T10:32:58.938Z</time>
      </trkpt>
      <trkpt lat="39.71515" lon="40.97526">
        <ele>2289.964651</ele>
        <time>2021-12-10T10:35:08.944Z</time>
      </trkpt>
      <trkpt lat="39.71312" lon="40.97481">
        <ele>2297.65265</ele>
        <time>2021-12-10T10:37:27.952Z</time>
      </trkpt>
      <trkpt lat="39.71131" lon="40.97552">
        <ele>2302.259616</ele>
        <time>2021-12-10T10:39:32.994Z</time>
      </trkpt>
      <trkpt lat="39.7094" lon="40.9767">
        <ele>2308.550779</ele>
        <time>2021-12-10T10:41:16.952Z</time>
      </trkpt>
      <trkpt lat="39.70746" lon="40.97791">
        <ele>2309.470602</ele>
        <time>2021-12-10T10:42:29.940Z</time>
      </trkpt>
      <trkpt lat="39.70548" lon="40.97917">
        <ele>2310.275351</ele>
        <time>2021-12-10T10:43:42.972Z</time>
      </trkpt>
      <trkpt lat="39.70355" lon="40.98041">
        <ele>2309.229783</ele>
        <time>2021-12-10T10:44:40.932Z</time>
      </trkpt>
      <trkpt lat="39.70052" lon="40.98229">
        <ele>2298.18109</ele>
        <time>2021-12-10T10:45:22.932Z</time>
      </trkpt>
      <trkpt lat="39.69886" lon="40.98334">
        <ele>2291.311457</ele>
        <time>2021-12-10T10:45:42.971Z</time>
      </trkpt>
      <trkpt lat="39.69634" lon="40.98492">
        <ele>2285.719189</ele>
        <time>2021-12-10T10:46:26.955Z</time>
      </trkpt>
      <trkpt lat="39.69453" lon="40.98627">
        <ele>2289.221408</ele>
        <time>2021-12-10T10:47:54.939Z</time>
      </trkpt>
      <trkpt lat="39.69387" lon="40.98874">
        <ele>2298.584212</ele>
        <time>2021-12-10T10:49:19.958Z</time>
      </trkpt>
      <trkpt lat="39.69376" lon="40.99184">
        <ele>2297.803277</ele>
        <time>2021-12-10T10:50:17.969Z</time>
      </trkpt>
      <trkpt lat="39.69334" lon="40.99453">
        <ele>2283.053407</ele>
        <time>2021-12-10T10:51:16.964Z</time>
      </trkpt>
      <trkpt lat="39.69068" lon="40.99692">
        <ele>2259.255461</ele>
        <time>2021-12-10T10:51:58.951Z</time>
      </trkpt>
      <trkpt lat="39.68878" lon="40.99834">
        <ele>2244.643168</ele>
        <time>2021-12-10T10:52:22.952Z</time>
      </trkpt>
      <trkpt lat="39.68671" lon="40.99986">
        <ele>2226.080715</ele>
        <time>2021-12-10T10:52:48.950Z</time>
      </trkpt>
      <trkpt lat="39.68457" lon="41.00141">
        <ele>2205.897599</ele>
        <time>2021-12-10T10:53:15.954Z</time>
      </trkpt>
      <trkpt lat="39.68289" lon="41.00266">
        <ele>2191.494883</ele>
        <time>2021-12-10T10:53:36.980Z</time>
      </trkpt>
      <trkpt lat="39.68121" lon="41.00389">
        <ele>2179.653545</ele>
        <time>2021-12-10T10:53:56.946Z</time>
      </trkpt>
      <trkpt lat="39.67924" lon="41.00537">
        <ele>2169.842784</ele>
        <time>2021-12-10T10:54:17.952Z</time>
      </trkpt>
      <trkpt lat="39.67694" lon="41.00707">
        <ele>2163.877325</ele>
        <time>2021-12-10T10:54:47.949Z</time>
      </trkpt>
      <trkpt lat="39.67446" lon="41.00866">
        <ele>2167.500976</ele>
        <time>2021-12-10T10:55:28.014Z</time>
      </trkpt>
      <trkpt lat="39.67199" lon="41.00878">
        <ele>2169.350279</ele>
        <time>2021-12-10T10:56:15.966Z</time>
      </trkpt>
      <trkpt lat="39.67" lon="41.00939">
        <ele>2172.318977</ele>
        <time>2021-12-10T10:57:29.938Z</time>
      </trkpt>
      <trkpt lat="39.66812" lon="41.01084">
        <ele>2170.212911</ele>
        <time>2021-12-10T10:58:57.952Z</time>
      </trkpt>
      <trkpt lat="39.66642" lon="41.0123">
        <ele>2175.784699</ele>
        <time>2021-12-10T11:00:17.950Z</time>
      </trkpt>
      <trkpt lat="39.66457" lon="41.0138">
        <ele>2180.28893</ele>
        <time>2021-12-10T11:01:41.969Z</time>
      </trkpt>
      <trkpt lat="39.66301" lon="41.01538">
        <ele>2185.273621</ele>
        <time>2021-12-10T11:03:05.967Z</time>
      </trkpt>
      <trkpt lat="39.66133" lon="41.01716">
        <ele>2188.417855</ele>
        <time>2021-12-10T11:04:13.937Z</time>
      </trkpt>
      <trkpt lat="39.65923" lon="41.01864">
        <ele>2178.567211</ele>
        <time>2021-12-10T11:04:53.945Z</time>
      </trkpt>
      <trkpt lat="39.65791" lon="41.01604">
        <ele>2156.517139</ele>
        <time>2021-12-10T11:05:21.945Z</time>
      </trkpt>
      <trkpt lat="39.65544" lon="41.01663">
        <ele>2129.137854</ele>
        <time>2021-12-10T11:06:03.941Z</time>
      </trkpt>
      <trkpt lat="39.65364" lon="41.01568">
        <ele>2118.140116</ele>
        <time>2021-12-10T11:06:27.947Z</time>
      </trkpt>
      <trkpt lat="39.65326" lon="41.01278">
        <ele>2124.118853</ele>
        <time>2021-12-10T11:07:39.975Z</time>
      </trkpt>
      <trkpt lat="39.65296" lon="41.0102">
        <ele>2130.071315</ele>
        <time>2021-12-10T11:09:03.968Z</time>
      </trkpt>
      <trkpt lat="39.65172" lon="41.00775">
        <ele>2123.094279</ele>
        <time>2021-12-10T11:10:04.948Z</time>
      </trkpt>
      <trkpt lat="39.64991" lon="41.00535">
        <ele>2114.359092</ele>
        <time>2021-12-10T11:10:44.949Z</time>
      </trkpt>
      <trkpt lat="39.64756" lon="41.00356">
        <ele>2105.669731</ele>
        <time>2021-12-10T11:11:19.944Z</time>
      </trkpt>
      <trkpt lat="39.64539" lon="41.00299">
        <ele>2100.618488</ele>
        <time>2021-12-10T11:11:44.954Z</time>
      </trkpt>
      <trkpt lat="39.6432" lon="41.00311">
        <ele>2096.575082</ele>
        <time>2021-12-10T11:12:26.969Z</time>
      </trkpt>
      <trkpt lat="39.64091" lon="41.00285">
        <ele>2087.635372</ele>
        <time>2021-12-10T11:12:51.950Z</time>
      </trkpt>
      <trkpt lat="39.63831" lon="41.00249">
        <ele>2079.462305</ele>
        <time>2021-12-10T11:13:21.957Z</time>
      </trkpt>
      <trkpt lat="39.63625" lon="41.00214">
        <ele>2073.682172</ele>
        <time>2021-12-10T11:13:44.958Z</time>
      </trkpt>
      <trkpt lat="39.63431" lon="41.00048">
        <ele>2068.891642</ele>
        <time>2021-12-10T11:14:24.967Z</time>
      </trkpt>
      <trkpt lat="39.63299" lon="40.99795">
        <ele>2067.587608</ele>
        <time>2021-12-10T11:15:26.950Z</time>
      </trkpt>
      <trkpt lat="39.63115" lon="40.99702">
        <ele>2072.538858</ele>
        <time>2021-12-10T11:16:30.020Z</time>
      </trkpt>
      <trkpt lat="39.62902" lon="40.99685">
        <ele>2064.795327</ele>
        <time>2021-12-10T11:17:11.967Z</time>
      </trkpt>
      <trkpt lat="39.62813" lon="40.99346">
        <ele>2039.210041</ele>
        <time>2021-12-10T11:17:51.976Z</time>
      </trkpt>
      <trkpt lat="39.62572" lon="40.99222">
        <ele>2012.493327</ele>
        <time>2021-12-10T11:18:33.952Z</time>
      </trkpt>
      <trkpt lat="39.62332" lon="40.99464">
        <ele>1988.444618</ele>
        <time>2021-12-10T11:19:13.973Z</time>
      </trkpt>
      <trkpt lat="39.62077" lon="40.99444">
        <ele>1980.72102</ele>
        <time>2021-12-10T11:19:47.939Z</time>
      </trkpt>
      <trkpt lat="39.61958" lon="40.99209">
        <ele>1978.981988</ele>
        <time>2021-12-10T11:22:53.970Z</time>
      </trkpt>
      <trkpt lat="39.61906" lon="40.98927">
        <ele>1976.037195</ele>
        <time>2021-12-10T11:23:55.987Z</time>
      </trkpt>
      <trkpt lat="39.61853" lon="40.98649">
        <ele>1972.605947</ele>
        <time>2021-12-10T11:24:58.980Z</time>
      </trkpt>
      <trkpt lat="39.61771" lon="40.98319">
        <ele>1958.77174</ele>
        <time>2021-12-10T11:25:37.941Z</time>
      </trkpt>
      <trkpt lat="39.61646" lon="40.97995">
        <ele>1943.746732</ele>
        <time>2021-12-10T11:26:19.956Z</time>
      </trkpt>
      <trkpt lat="39.61455" lon="40.97855">
        <ele>1944.545622</ele>
        <time>2021-12-10T11:27:07.941Z</time>
      </trkpt>
      <trkpt lat="39.61244" lon="40.97757">
        <ele>1959.413844</ele>
        <time>2021-12-10T11:28:24.973Z</time>
      </trkpt>
      <trkpt lat="39.61287" lon="40.97693">
        <ele>1959.413844</ele>
        <time>2021-12-10T11:31:04.518Z</time>
      </trkpt>
      <trkpt lat="39.61303" lon="40.97703">
        <ele>1948.195312</ele>
        <time>2021-12-11T06:21:00.707Z</time>
      </trkpt>
      <trkpt lat="39.61218" lon="40.97722">
        <ele>1950.314776</ele>
        <time>2021-12-11T06:26:33.367Z</time>
      </trkpt>
      <trkpt lat="39.61015" lon="40.97807">
        <ele>1959.255095</ele>
        <time>2021-12-11T06:27:47.376Z</time>
      </trkpt>
      <trkpt lat="39.60826" lon="40.97873">
        <ele>1948.204753</ele>
        <time>2021-12-11T06:28:51.363Z</time>
      </trkpt>
      <trkpt lat="39.60635" lon="40.97771">
        <ele>1925.809233</ele>
        <time>2021-12-11T06:29:44.374Z</time>
      </trkpt>
      <trkpt lat="39.60425" lon="40.97547">
        <ele>1916.154477</ele>
        <time>2021-12-11T06:30:24.350Z</time>
      </trkpt>
      <trkpt lat="39.60245" lon="40.97368">
        <ele>1914.778911</ele>
        <time>2021-12-11T06:31:15.352Z</time>
      </trkpt>
      <trkpt lat="39.60053" lon="40.97176">
        <ele>1917.337684</ele>
        <time>2021-12-11T06:32:15.336Z</time>
      </trkpt>
      <trkpt lat="39.59894" lon="40.97015">
        <ele>1924.748086</ele>
        <time>2021-12-11T06:33:41.364Z</time>
      </trkpt>
      <trkpt lat="39.5974" lon="40.96859">
        <ele>1933.759836</ele>
        <time>2021-12-11T06:35:32.369Z</time>
      </trkpt>
      <trkpt lat="39.59584" lon="40.96702">
        <ele>1940.091979</ele>
        <time>2021-12-11T06:37:01.339Z</time>
      </trkpt>
      <trkpt lat="39.5942" lon="40.96533">
        <ele>1948.75481</ele>
        <time>2021-12-11T06:38:51.371Z</time>
      </trkpt>
      <trkpt lat="39.59272" lon="40.96363">
        <ele>1960.861526</ele>
        <time>2021-12-11T06:41:04.403Z</time>
      </trkpt>
      <trkpt lat="39.59147" lon="40.96163">
        <ele>1967.702119</ele>
        <time>2021-12-11T06:42:54.358Z</time>
      </trkpt>
      <trkpt lat="39.59043" lon="40.95913">
        <ele>1967.715713</ele>
        <time>2021-12-11T06:44:10.349Z</time>
      </trkpt>
      <trkpt lat="39.58977" lon="40.95661">
        <ele>1969.976936</ele>
        <time>2021-12-11T06:45:14.383Z</time>
      </trkpt>
      <trkpt lat="39.58946" lon="40.95405">
        <ele>1976.401655</ele>
        <time>2021-12-11T06:46:36.361Z</time>
      </trkpt>
      <trkpt lat="39.58946" lon="40.95142">
        <ele>1976.588488</ele>
        <time>2021-12-11T06:47:56.371Z</time>
      </trkpt>
      <trkpt lat="39.5899" lon="40.94851">
        <ele>1972.818247</ele>
        <time>2021-12-11T06:48:50.366Z</time>
      </trkpt>
      <trkpt lat="39.59063" lon="40.94564">
        <ele>1967.076561</ele>
        <time>2021-12-11T06:49:30.372Z</time>
      </trkpt>
      <trkpt lat="39.59152" lon="40.94209">
        <ele>1951.712247</ele>
        <time>2021-12-11T06:50:03.374Z</time>
      </trkpt>
      <trkpt lat="39.59219" lon="40.93966">
        <ele>1940.928558</ele>
        <time>2021-12-11T06:50:23.364Z</time>
      </trkpt>
      <trkpt lat="39.59286" lon="40.93714">
        <ele>1931.590942</ele>
        <time>2021-12-11T06:50:43.394Z</time>
      </trkpt>
      <trkpt lat="39.59341" lon="40.93473">
        <ele>1924.34879</ele>
        <time>2021-12-11T06:51:03.361Z</time>
      </trkpt>
      <trkpt lat="39.59421" lon="40.93163">
        <ele>1920.567324</ele>
        <time>2021-12-11T06:51:38.366Z</time>
      </trkpt>
      <trkpt lat="39.59492" lon="40.92877">
        <ele>1920.369399</ele>
        <time>2021-12-11T06:52:28.365Z</time>
      </trkpt>
      <trkpt lat="39.59581" lon="40.9253">
        <ele>1910.314859</ele>
        <time>2021-12-11T06:53:03.377Z</time>
      </trkpt>
      <trkpt lat="39.59643" lon="40.92279">
        <ele>1901.180112</ele>
        <time>2021-12-11T06:53:25.376Z</time>
      </trkpt>
      <trkpt lat="39.59671" lon="40.92">
        <ele>1889.524128</ele>
        <time>2021-12-11T06:53:45.371Z</time>
      </trkpt>
      <trkpt lat="39.59647" lon="40.9169">
        <ele>1880.893343</ele>
        <time>2021-12-11T06:54:09.370Z</time>
      </trkpt>
      <trkpt lat="39.59541" lon="40.91353">
        <ele>1875.818931</ele>
        <time>2021-12-11T06:54:49.399Z</time>
      </trkpt>
      <trkpt lat="39.59326" lon="40.91024">
        <ele>1866.032001</ele>
        <time>2021-12-11T06:55:29.397Z</time>
      </trkpt>
      <trkpt lat="39.59034" lon="40.90803">
        <ele>1858.880359</ele>
        <time>2021-12-11T06:56:09.364Z</time>
      </trkpt>
      <trkpt lat="39.58751" lon="40.90623">
        <ele>1853.954159</ele>
        <time>2021-12-11T06:56:49.362Z</time>
      </trkpt>
      <trkpt lat="39.58477" lon="40.90478">
        <ele>1840.918779</ele>
        <time>2021-12-11T06:57:29.371Z</time>
      </trkpt>
      <trkpt lat="39.58215" lon="40.90329">
        <ele>1824.018273</ele>
        <time>2021-12-11T06:58:09.366Z</time>
      </trkpt>
      <trkpt lat="39.57921" lon="40.9025">
        <ele>1806.936926</ele>
        <time>2021-12-11T06:58:49.370Z</time>
      </trkpt>
      <trkpt lat="39.57625" lon="40.90343">
        <ele>1795.907228</ele>
        <time>2021-12-11T06:59:27.370Z</time>
      </trkpt>
      <trkpt lat="39.57417" lon="40.90561">
        <ele>1791.094335</ele>
        <time>2021-12-11T07:00:01.354Z</time>
      </trkpt>
      <trkpt lat="39.57275" lon="40.90791">
        <ele>1789.852583</ele>
        <time>2021-12-11T07:00:47.370Z</time>
      </trkpt>
      <trkpt lat="39.5714" lon="40.91013">
        <ele>1795.429542</ele>
        <time>2021-12-11T07:01:53.373Z</time>
      </trkpt>
      <trkpt lat="39.57045" lon="40.91255">
        <ele>1803.837155</ele>
        <time>2021-12-11T07:03:31.370Z</time>
      </trkpt>
      <trkpt lat="39.57" lon="40.9152">
        <ele>1809.538313</ele>
        <time>2021-12-11T07:04:54.361Z</time>
      </trkpt>
      <trkpt lat="39.56917" lon="40.9177">
        <ele>1811.96512</ele>
        <time>2021-12-11T07:06:13.373Z</time>
      </trkpt>
      <trkpt lat="39.56807" lon="40.91991">
        <ele>1812.63862</ele>
        <time>2021-12-11T07:07:17.397Z</time>
      </trkpt>
      <trkpt lat="39.56688" lon="40.92225">
        <ele>1814.262876</ele>
        <time>2021-12-11T07:08:17.374Z</time>
      </trkpt>
      <trkpt lat="39.56557" lon="40.92445">
        <ele>1816.182792</ele>
        <time>2021-12-11T07:09:17.377Z</time>
      </trkpt>
      <trkpt lat="39.56401" lon="40.92622">
        <ele>1817.982001</ele>
        <time>2021-12-11T07:10:17.372Z</time>
      </trkpt>
      <trkpt lat="39.56227" lon="40.92778">
        <ele>1819.628811</ele>
        <time>2021-12-11T07:11:17.366Z</time>
      </trkpt>
      <trkpt lat="39.56051" lon="40.92934">
        <ele>1821.725141</ele>
        <time>2021-12-11T07:12:17.391Z</time>
      </trkpt>
      <trkpt lat="39.55879" lon="40.93089">
        <ele>1822.731802</ele>
        <time>2021-12-11T07:13:17.373Z</time>
      </trkpt>
      <trkpt lat="39.55704" lon="40.93244">
        <ele>1826.011135</ele>
        <time>2021-12-11T07:14:17.390Z</time>
      </trkpt>
      <trkpt lat="39.55542" lon="40.93402">
        <ele>1828.191161</ele>
        <time>2021-12-11T07:15:17.391Z</time>
      </trkpt>
      <trkpt lat="39.55409" lon="40.93611">
        <ele>1830.962357</ele>
        <time>2021-12-11T07:16:17.371Z</time>
      </trkpt>
      <trkpt lat="39.55266" lon="40.93848">
        <ele>1831.143208</ele>
        <time>2021-12-11T07:17:17.361Z</time>
      </trkpt>
      <trkpt lat="39.55091" lon="40.94029">
        <ele>1834.192004</ele>
        <time>2021-12-11T07:18:17.370Z</time>
      </trkpt>
      <trkpt lat="39.54913" lon="40.94177">
        <ele>1838.357063</ele>
        <time>2021-12-11T07:19:18.397Z</time>
      </trkpt>
      <trkpt lat="39.54757" lon="40.94331">
        <ele>1841.725743</ele>
        <time>2021-12-11T07:20:19.381Z</time>
      </trkpt>
      <trkpt lat="39.54605" lon="40.94507">
        <ele>1844.631686</ele>
        <time>2021-12-11T07:21:42.406Z</time>
      </trkpt>
      <trkpt lat="39.54457" lon="40.94679">
        <ele>1847.243957</ele>
        <time>2021-12-11T07:23:03.372Z</time>
      </trkpt>
      <trkpt lat="39.54273" lon="40.94831">
        <ele>1846.990306</ele>
        <time>2021-12-11T07:24:05.369Z</time>
      </trkpt>
      <trkpt lat="39.54069" lon="40.94971">
        <ele>1849.288429</ele>
        <time>2021-12-11T07:25:05.366Z</time>
      </trkpt>
      <trkpt lat="39.53881" lon="40.95101">
        <ele>1850.216779</ele>
        <time>2021-12-11T07:26:05.375Z</time>
      </trkpt>
      <trkpt lat="39.537" lon="40.95225">
        <ele>1851.137261</ele>
        <time>2021-12-11T07:27:05.393Z</time>
      </trkpt>
      <trkpt lat="39.53524" lon="40.95346">
        <ele>1854.527391</ele>
        <time>2021-12-11T07:28:09.381Z</time>
      </trkpt>
      <trkpt lat="39.53358" lon="40.95486">
        <ele>1859.267971</ele>
        <time>2021-12-11T07:29:14.380Z</time>
      </trkpt>
      <trkpt lat="39.53196" lon="40.9562">
        <ele>1863.490852</ele>
        <time>2021-12-11T07:30:15.367Z</time>
      </trkpt>
      <trkpt lat="39.52997" lon="40.95748">
        <ele>1873.745353</ele>
        <time>2021-12-11T07:31:38.416Z</time>
      </trkpt>
      <trkpt lat="39.52827" lon="40.95899">
        <ele>1887.091343</ele>
        <time>2021-12-11T07:33:06.377Z</time>
      </trkpt>
      <trkpt lat="39.52659" lon="40.96077">
        <ele>1886.238244</ele>
        <time>2021-12-11T07:34:26.376Z</time>
      </trkpt>
      <trkpt lat="39.52558" lon="40.96298">
        <ele>1890.271326</ele>
        <time>2021-12-11T07:36:26.386Z</time>
      </trkpt>
      <trkpt lat="39.52557" lon="40.96547">
        <ele>1898.894131</ele>
        <time>2021-12-11T07:38:21.368Z</time>
      </trkpt>
      <trkpt lat="39.52452" lon="40.96768">
        <ele>1900.044535</ele>
        <time>2021-12-11T07:39:58.371Z</time>
      </trkpt>
      <trkpt lat="39.52339" lon="40.97003">
        <ele>1897.669854</ele>
        <time>2021-12-11T07:40:58.361Z</time>
      </trkpt>
      <trkpt lat="39.52189" lon="40.97211">
        <ele>1899.864547</ele>
        <time>2021-12-11T07:41:46.361Z</time>
      </trkpt>
      <trkpt lat="39.52035" lon="40.97395">
        <ele>1906.035416</ele>
        <time>2021-12-11T07:42:59.386Z</time>
      </trkpt>
      <trkpt lat="39.51872" lon="40.97577">
        <ele>1910.247979</ele>
        <time>2021-12-11T07:44:19.383Z</time>
      </trkpt>
      <trkpt lat="39.51702" lon="40.97719">
        <ele>1914.535548</ele>
        <time>2021-12-11T07:45:58.368Z</time>
      </trkpt>
      <trkpt lat="39.51517" lon="40.97829">
        <ele>1914.125123</ele>
        <time>2021-12-11T07:47:31.380Z</time>
      </trkpt>
      <trkpt lat="39.51316" lon="40.97924">
        <ele>1915.968417</ele>
        <time>2021-12-11T07:48:45.354Z</time>
      </trkpt>
      <trkpt lat="39.51161" lon="40.98105">
        <ele>1920.456315</ele>
        <time>2021-12-11T07:50:06.378Z</time>
      </trkpt>
      <trkpt lat="39.51033" lon="40.983">
        <ele>1923.660625</ele>
        <time>2021-12-11T07:51:35.356Z</time>
      </trkpt>
      <trkpt lat="39.50877" lon="40.98452">
        <ele>1930.118668</ele>
        <time>2021-12-11T07:53:22.382Z</time>
      </trkpt>
      <trkpt lat="39.5076" lon="40.9866">
        <ele>1938.272537</ele>
        <time>2021-12-11T07:54:49.391Z</time>
      </trkpt>
      <trkpt lat="39.50619" lon="40.9884">
        <ele>1944.594469</ele>
        <time>2021-12-11T07:56:18.410Z</time>
      </trkpt>
      <trkpt lat="39.50497" lon="40.99033">
        <ele>1950.393432</ele>
        <time>2021-12-11T07:57:55.391Z</time>
      </trkpt>
      <trkpt lat="39.50429" lon="40.99275">
        <ele>1959.682738</ele>
        <time>2021-12-11T07:59:38.378Z</time>
      </trkpt>
      <trkpt lat="39.50336" lon="40.99505">
        <ele>1963.464731</ele>
        <time>2021-12-11T08:01:21.387Z</time>
      </trkpt>
      <trkpt lat="39.50176" lon="40.99657">
        <ele>1968.398551</ele>
        <time>2021-12-11T08:03:04.419Z</time>
      </trkpt>
      <trkpt lat="39.49992" lon="40.99749">
        <ele>1974.965095</ele>
        <time>2021-12-11T08:04:48.401Z</time>
      </trkpt>
      <trkpt lat="39.49824" lon="40.99873">
        <ele>1986.273591</ele>
        <time>2021-12-11T08:06:46.384Z</time>
      </trkpt>
      <trkpt lat="39.497" lon="41.00074">
        <ele>1993.856271</ele>
        <time>2021-12-11T08:20:25.375Z</time>
      </trkpt>
      <trkpt lat="39.49557" lon="41.00245">
        <ele>2001.737472</ele>
        <time>2021-12-11T08:22:11.389Z</time>
      </trkpt>
      <trkpt lat="39.49387" lon="41.00359">
        <ele>2015.970829</ele>
        <time>2021-12-11T08:24:24.383Z</time>
      </trkpt>
      <trkpt lat="39.49268" lon="41.00571">
        <ele>2026.42666</ele>
        <time>2021-12-11T08:26:56.401Z</time>
      </trkpt>
      <trkpt lat="39.49245" lon="41.00813">
        <ele>2042.412742</ele>
        <time>2021-12-11T08:29:32.407Z</time>
      </trkpt>
      <trkpt lat="39.49096" lon="41.009">
        <ele>2064.209927</ele>
        <time>2021-12-11T08:32:16.388Z</time>
      </trkpt>
      <trkpt lat="39.48949" lon="41.01028">
        <ele>2082.750112</ele>
        <time>2021-12-11T08:35:03.394Z</time>
      </trkpt>
      <trkpt lat="39.48828" lon="41.01212">
        <ele>2097.774291</ele>
        <time>2021-12-11T08:37:54.387Z</time>
      </trkpt>
      <trkpt lat="39.48785" lon="41.0144">
        <ele>2112.295449</ele>
        <time>2021-12-11T08:40:37.408Z</time>
      </trkpt>
      <trkpt lat="39.48621" lon="41.0155">
        <ele>2127.205567</ele>
        <time>2021-12-11T08:43:25.449Z</time>
      </trkpt>
      <trkpt lat="39.48478" lon="41.01716">
        <ele>2136.504986</ele>
        <time>2021-12-11T08:45:42.414Z</time>
      </trkpt>
      <trkpt lat="39.48347" lon="41.01896">
        <ele>2149.91227</ele>
        <time>2021-12-11T08:47:55.403Z</time>
      </trkpt>
      <trkpt lat="39.48212" lon="41.02081">
        <ele>2161.986371</ele>
        <time>2021-12-11T08:50:14.408Z</time>
      </trkpt>
      <trkpt lat="39.48128" lon="41.02286">
        <ele>2175.999622</ele>
        <time>2021-12-11T08:52:49.390Z</time>
      </trkpt>
      <trkpt lat="39.48066" lon="41.02516">
        <ele>2196.087728</ele>
        <time>2021-12-11T08:55:54.401Z</time>
      </trkpt>
      <trkpt lat="39.48004" lon="41.02747">
        <ele>2204.623862</ele>
        <time>2021-12-11T08:59:04.434Z</time>
      </trkpt>
      <trkpt lat="39.47903" lon="41.02944">
        <ele>2226.437227</ele>
        <time>2021-12-11T09:02:21.411Z</time>
      </trkpt>
      <trkpt lat="39.47747" lon="41.03092">
        <ele>2243.168379</ele>
        <time>2021-12-11T09:09:36.420Z</time>
      </trkpt>
      <trkpt lat="39.47535" lon="41.03339">
        <ele>2267.875721</ele>
        <time>2021-12-11T09:24:17.481Z</time>
      </trkpt>
      <trkpt lat="39.47223" lon="41.04004">
        <ele>2315.925102</ele>
        <time>2021-12-11T09:34:08.491Z</time>
      </trkpt>
      <trkpt lat="39.47079" lon="41.04175">
        <ele>2320.958706</ele>
        <time>2021-12-11T09:39:37.518Z</time>
      </trkpt>
      <trkpt lat="39.46989" lon="41.04436">
        <ele>2314.834648</ele>
        <time>2021-12-11T09:40:19.484Z</time>
      </trkpt>
      <trkpt lat="39.46975" lon="41.04811">
        <ele>2302.616834</ele>
        <time>2021-12-11T09:40:59.483Z</time>
      </trkpt>
      <trkpt lat="39.47085" lon="41.05135">
        <ele>2283.017537</ele>
        <time>2021-12-11T09:41:39.493Z</time>
      </trkpt>
      <trkpt lat="39.47074" lon="41.05421">
        <ele>2244.811162</ele>
        <time>2021-12-11T09:42:19.507Z</time>
      </trkpt>
      <trkpt lat="39.46842" lon="41.05368">
        <ele>2204.319441</ele>
        <time>2021-12-11T09:42:59.518Z</time>
      </trkpt>
      <trkpt lat="39.46643" lon="41.05143">
        <ele>2171.675365</ele>
        <time>2021-12-11T09:43:39.493Z</time>
      </trkpt>
      <trkpt lat="39.46467" lon="41.04936">
        <ele>2152.336696</ele>
        <time>2021-12-11T09:44:19.506Z</time>
      </trkpt>
      <trkpt lat="39.46232" lon="41.05041">
        <ele>2142.309548</ele>
        <time>2021-12-11T09:44:59.488Z</time>
      </trkpt>
      <trkpt lat="39.46073" lon="41.05267">
        <ele>2124.390121</ele>
        <time>2021-12-11T09:45:41.490Z</time>
      </trkpt>
      <trkpt lat="39.45915" lon="41.05453">
        <ele>2112.67315</ele>
        <time>2021-12-11T09:46:23.481Z</time>
      </trkpt>
      <trkpt lat="39.45765" lon="41.05614">
        <ele>2107.525173</ele>
        <time>2021-12-11T09:47:03.503Z</time>
      </trkpt>
      <trkpt lat="39.45584" lon="41.05729">
        <ele>2103.252874</ele>
        <time>2021-12-11T09:47:43.495Z</time>
      </trkpt>
      <trkpt lat="39.45401" lon="41.05868">
        <ele>2099.078343</ele>
        <time>2021-12-11T09:48:25.536Z</time>
      </trkpt>
      <trkpt lat="39.45187" lon="41.05865">
        <ele>2081.951759</ele>
        <time>2021-12-11T09:49:05.522Z</time>
      </trkpt>
      <trkpt lat="39.45012" lon="41.05735">
        <ele>2058.669133</ele>
        <time>2021-12-11T09:49:45.502Z</time>
      </trkpt>
      <trkpt lat="39.44794" lon="41.05707">
        <ele>2038.888231</ele>
        <time>2021-12-11T09:50:25.512Z</time>
      </trkpt>
      <trkpt lat="39.44573" lon="41.05632">
        <ele>2013.017117</ele>
        <time>2021-12-11T09:51:05.549Z</time>
      </trkpt>
      <trkpt lat="39.44323" lon="41.05531">
        <ele>1991.767061</ele>
        <time>2021-12-11T09:51:45.477Z</time>
      </trkpt>
      <trkpt lat="39.44049" lon="41.05498">
        <ele>1979.954664</ele>
        <time>2021-12-11T09:52:25.491Z</time>
      </trkpt>
      <trkpt lat="39.43843" lon="41.0562">
        <ele>1976.979543</ele>
        <time>2021-12-11T09:53:05.490Z</time>
      </trkpt>
      <trkpt lat="39.4367" lon="41.05823">
        <ele>1974.961041</ele>
        <time>2021-12-11T09:53:45.492Z</time>
      </trkpt>
      <trkpt lat="39.4348" lon="41.05971">
        <ele>1965.960297</ele>
        <time>2021-12-11T09:54:27.486Z</time>
      </trkpt>
      <trkpt lat="39.43224" lon="41.05975">
        <ele>1951.969619</ele>
        <time>2021-12-11T09:55:11.509Z</time>
      </trkpt>
      <trkpt lat="39.43018" lon="41.05961">
        <ele>1952.039939</ele>
        <time>2021-12-11T09:56:19.520Z</time>
      </trkpt>
      <trkpt lat="39.42827" lon="41.059">
        <ele>1962.956022</ele>
        <time>2021-12-11T09:58:08.498Z</time>
      </trkpt>
      <trkpt lat="39.42678" lon="41.05746">
        <ele>1970.23681</ele>
        <time>2021-12-11T10:00:11.533Z</time>
      </trkpt>
      <trkpt lat="39.42533" lon="41.05576">
        <ele>1972.50236</ele>
        <time>2021-12-11T10:01:59.509Z</time>
      </trkpt>
      <trkpt lat="39.42333" lon="41.0549">
        <ele>1970.54183</ele>
        <time>2021-12-11T10:03:02.510Z</time>
      </trkpt>
      <trkpt lat="39.42076" lon="41.05471">
        <ele>1960.517007</ele>
        <time>2021-12-11T10:03:36.525Z</time>
      </trkpt>
      <trkpt lat="39.41837" lon="41.05441">
        <ele>1948.670333</ele>
        <time>2021-12-11T10:04:02.518Z</time>
      </trkpt>
      <trkpt lat="39.41629" lon="41.05424">
        <ele>1938.155594</ele>
        <time>2021-12-11T10:04:22.508Z</time>
      </trkpt>
      <trkpt lat="39.41426" lon="41.05415">
        <ele>1928.254166</ele>
        <time>2021-12-11T10:04:42.519Z</time>
      </trkpt>
      <trkpt lat="39.41209" lon="41.05406">
        <ele>1919.156327</ele>
        <time>2021-12-11T10:05:02.523Z</time>
      </trkpt>
      <trkpt lat="39.40982" lon="41.05386">
        <ele>1909.725115</ele>
        <time>2021-12-11T10:05:22.520Z</time>
      </trkpt>
      <trkpt lat="39.40769" lon="41.05274">
        <ele>1898.991421</ele>
        <time>2021-12-11T10:05:43.519Z</time>
      </trkpt>
      <trkpt lat="39.40617" lon="41.05091">
        <ele>1888.822566</ele>
        <time>2021-12-11T10:06:03.522Z</time>
      </trkpt>
      <trkpt lat="39.40491" lon="41.04869">
        <ele>1881.595911</ele>
        <time>2021-12-11T10:06:23.511Z</time>
      </trkpt>
      <trkpt lat="39.40383" lon="41.04644">
        <ele>1878.749834</ele>
        <time>2021-12-11T10:06:43.508Z</time>
      </trkpt>
      <trkpt lat="39.40256" lon="41.04334">
        <ele>1877.48168</ele>
        <time>2021-12-11T10:07:21.520Z</time>
      </trkpt>
      <trkpt lat="39.40166" lon="41.0411">
        <ele>1876.830839</ele>
        <time>2021-12-11T10:08:01.513Z</time>
      </trkpt>
      <trkpt lat="39.40068" lon="41.03896">
        <ele>1875.88343</ele>
        <time>2021-12-11T10:08:42.525Z</time>
      </trkpt>
      <trkpt lat="39.39928" lon="41.0366">
        <ele>1878.137582</ele>
        <time>2021-12-11T10:09:40.532Z</time>
      </trkpt>
      <trkpt lat="39.39781" lon="41.03453">
        <ele>1878.578618</ele>
        <time>2021-12-11T10:10:32.559Z</time>
      </trkpt>
      <trkpt lat="39.39677" lon="41.0321">
        <ele>1878.440963</ele>
        <time>2021-12-11T10:11:21.537Z</time>
      </trkpt>
      <trkpt lat="39.39571" lon="41.02958">
        <ele>1876.531732</ele>
        <time>2021-12-11T10:12:10.532Z</time>
      </trkpt>
      <trkpt lat="39.39523" lon="41.02626">
        <ele>1868.141261</ele>
        <time>2021-12-11T10:12:50.507Z</time>
      </trkpt>
      <trkpt lat="39.39488" lon="41.02325">
        <ele>1866.065414</ele>
        <time>2021-12-11T10:13:34.540Z</time>
      </trkpt>
      <trkpt lat="39.39415" lon="41.02103">
        <ele>1865.51495</ele>
        <time>2021-12-11T10:14:14.541Z</time>
      </trkpt>
      <trkpt lat="39.39266" lon="41.01874">
        <ele>1865.118611</ele>
        <time>2021-12-11T10:15:14.528Z</time>
      </trkpt>
      <trkpt lat="39.39166" lon="41.01652">
        <ele>1866.493831</ele>
        <time>2021-12-11T10:16:14.532Z</time>
      </trkpt>
      <trkpt lat="39.39089" lon="41.01415">
        <ele>1869.584723</ele>
        <time>2021-12-11T10:17:19.533Z</time>
      </trkpt>
      <trkpt lat="39.39009" lon="41.01179">
        <ele>1874.657763</ele>
        <time>2021-12-11T10:18:25.534Z</time>
      </trkpt>
      <trkpt lat="39.38901" lon="41.00951">
        <ele>1874.869191</ele>
        <time>2021-12-11T10:19:32.516Z</time>
      </trkpt>
      <trkpt lat="39.38791" lon="41.0074">
        <ele>1875.625105</ele>
        <time>2021-12-11T10:20:33.525Z</time>
      </trkpt>
      <trkpt lat="39.38731" lon="41.00461">
        <ele>1877.186125</ele>
        <time>2021-12-11T10:21:22.530Z</time>
      </trkpt>
      <trkpt lat="39.38691" lon="41.00183">
        <ele>1871.815526</ele>
        <time>2021-12-11T10:22:02.511Z</time>
      </trkpt>
      <trkpt lat="39.38508" lon="40.9991">
        <ele>1862.563018</ele>
        <time>2021-12-11T10:22:42.511Z</time>
      </trkpt>
      <trkpt lat="39.38445" lon="40.9955">
        <ele>1859.507215</ele>
        <time>2021-12-11T10:23:22.503Z</time>
      </trkpt>
      <trkpt lat="39.38498" lon="40.99281">
        <ele>1861.899265</ele>
        <time>2021-12-11T10:24:18.516Z</time>
      </trkpt>
      <trkpt lat="39.38531" lon="40.99014">
        <ele>1864.312006</ele>
        <time>2021-12-11T10:25:18.531Z</time>
      </trkpt>
      <trkpt lat="39.38421" lon="40.98747">
        <ele>1861.723613</ele>
        <time>2021-12-11T10:26:18.556Z</time>
      </trkpt>
      <trkpt lat="39.38206" lon="40.98641">
        <ele>1861.57917</ele>
        <time>2021-12-11T10:27:10.534Z</time>
      </trkpt>
      <trkpt lat="39.37998" lon="40.98607">
        <ele>1860.231807</ele>
        <time>2021-12-11T10:27:53.536Z</time>
      </trkpt>
      <trkpt lat="39.37807" lon="40.98508">
        <ele>1856.645461</ele>
        <time>2021-12-11T10:28:38.506Z</time>
      </trkpt>
      <trkpt lat="39.37624" lon="40.98377">
        <ele>1851.582707</ele>
        <time>2021-12-11T10:29:19.571Z</time>
      </trkpt>
      <trkpt lat="39.37461" lon="40.98546">
        <ele>1847.666432</ele>
        <time>2021-12-11T10:29:59.506Z</time>
      </trkpt>
      <trkpt lat="39.37278" lon="40.98726">
        <ele>1853.353163</ele>
        <time>2021-12-11T10:31:00.536Z</time>
      </trkpt>
      <trkpt lat="39.37092" lon="40.98831">
        <ele>1858.353231</ele>
        <time>2021-12-11T10:32:19.523Z</time>
      </trkpt>
      <trkpt lat="39.36896" lon="40.98903">
        <ele>1861.204264</ele>
        <time>2021-12-11T10:33:40.525Z</time>
      </trkpt>
      <trkpt lat="39.36706" lon="40.99037">
        <ele>1864.286548</ele>
        <time>2021-12-11T10:34:55.512Z</time>
      </trkpt>
      <trkpt lat="39.36566" lon="40.99252">
        <ele>1861.949434</ele>
        <time>2021-12-11T10:35:55.530Z</time>
      </trkpt>
      <trkpt lat="39.36412" lon="40.99496">
        <ele>1859.385412</ele>
        <time>2021-12-11T10:36:55.529Z</time>
      </trkpt>
      <trkpt lat="39.36296" lon="40.99703">
        <ele>1861.439781</ele>
        <time>2021-12-11T10:37:55.506Z</time>
      </trkpt>
      <trkpt lat="39.36171" lon="40.99917">
        <ele>1867.280316</ele>
        <time>2021-12-11T10:39:18.538Z</time>
      </trkpt>
      <trkpt lat="39.36088" lon="41.00141">
        <ele>1872.634919</ele>
        <time>2021-12-11T10:40:58.515Z</time>
      </trkpt>
      <trkpt lat="39.36048" lon="41.00395">
        <ele>1877.760798</ele>
        <time>2021-12-11T10:42:30.536Z</time>
      </trkpt>
      <trkpt lat="39.35976" lon="41.00657">
        <ele>1879.663008</ele>
        <time>2021-12-11T10:53:46.512Z</time>
      </trkpt>
      <trkpt lat="39.35836" lon="41.00864">
        <ele>1875.576862</ele>
        <time>2021-12-11T10:54:56.513Z</time>
      </trkpt>
      <trkpt lat="39.35699" lon="41.01058">
        <ele>1878.520286</ele>
        <time>2021-12-11T10:56:04.554Z</time>
      </trkpt>
      <trkpt lat="39.35615" lon="41.01293">
        <ele>1883.348231</ele>
        <time>2021-12-11T10:57:09.528Z</time>
      </trkpt>
      <trkpt lat="39.3559" lon="41.01557">
        <ele>1887.796772</ele>
        <time>2021-12-11T10:58:31.536Z</time>
      </trkpt>
      <trkpt lat="39.35581" lon="41.01813">
        <ele>1895.47387</ele>
        <time>2021-12-11T11:00:15.546Z</time>
      </trkpt>
      <trkpt lat="39.35544" lon="41.02061">
        <ele>1904.81525</ele>
        <time>2021-12-11T11:02:15.516Z</time>
      </trkpt>
      <trkpt lat="39.35453" lon="41.02289">
        <ele>1913.141506</ele>
        <time>2021-12-11T11:04:22.521Z</time>
      </trkpt>
      <trkpt lat="39.35341" lon="41.02507">
        <ele>1917.647022</ele>
        <time>2021-12-11T11:05:55.530Z</time>
      </trkpt>
      <trkpt lat="39.35213" lon="41.02752">
        <ele>1917.082892</ele>
        <time>2021-12-11T11:06:55.534Z</time>
      </trkpt>
      <trkpt lat="39.3507" lon="41.03007">
        <ele>1916.796476</ele>
        <time>2021-12-11T11:07:52.529Z</time>
      </trkpt>
      <trkpt lat="39.34954" lon="41.03244">
        <ele>1918.730915</ele>
        <time>2021-12-11T11:08:55.552Z</time>
      </trkpt>
      <trkpt lat="39.3484" lon="41.03464">
        <ele>1922.032889</ele>
        <time>2021-12-11T11:10:03.538Z</time>
      </trkpt>
      <trkpt lat="39.34711" lon="41.03673">
        <ele>1929.96778</ele>
        <time>2021-12-11T11:11:37.550Z</time>
      </trkpt>
      <trkpt lat="39.34573" lon="41.03862">
        <ele>1933.933882</ele>
        <time>2021-12-11T11:13:18.520Z</time>
      </trkpt>
      <trkpt lat="39.344" lon="41.0399">
        <ele>1940.096604</ele>
        <time>2021-12-11T11:14:58.522Z</time>
      </trkpt>
      <trkpt lat="39.34221" lon="41.04102">
        <ele>1947.245882</ele>
        <time>2021-12-11T11:16:39.549Z</time>
      </trkpt>
      <trkpt lat="39.34076" lon="41.0428">
        <ele>1951.272676</ele>
        <time>2021-12-11T11:18:20.554Z</time>
      </trkpt>
      <trkpt lat="39.33989" lon="41.04512">
        <ele>1958.208448</ele>
        <time>2021-12-11T11:20:00.529Z</time>
      </trkpt>
      <trkpt lat="39.33913" lon="41.04755">
        <ele>1962.586777</ele>
        <time>2021-12-11T11:21:40.584Z</time>
      </trkpt>
      <trkpt lat="39.33831" lon="41.04993">
        <ele>1967.973644</ele>
        <time>2021-12-11T11:23:16.567Z</time>
      </trkpt>
      <trkpt lat="39.33702" lon="41.0521">
        <ele>1969.843433</ele>
        <time>2021-12-11T11:24:34.543Z</time>
      </trkpt>
      <trkpt lat="39.33474" lon="41.05274">
        <ele>1967.481851</ele>
        <time>2021-12-11T11:25:23.554Z</time>
      </trkpt>
      <trkpt lat="39.33239" lon="41.05191">
        <ele>1954.124609</ele>
        <time>2021-12-11T11:25:43.531Z</time>
      </trkpt>
      <trkpt lat="39.33017" lon="41.05214">
        <ele>1936.879741</ele>
        <time>2021-12-11T11:26:03.547Z</time>
      </trkpt>
      <trkpt lat="39.32818" lon="41.05334">
        <ele>1923.568306</ele>
        <time>2021-12-11T11:26:23.549Z</time>
      </trkpt>
      <trkpt lat="39.32614" lon="41.05446">
        <ele>1912.925043</ele>
        <time>2021-12-11T11:26:43.553Z</time>
      </trkpt>
      <trkpt lat="39.32379" lon="41.05496">
        <ele>1901.568278</ele>
        <time>2021-12-11T11:27:03.537Z</time>
      </trkpt>
      <trkpt lat="39.32158" lon="41.05521">
        <ele>1890.495495</ele>
        <time>2021-12-11T11:27:23.548Z</time>
      </trkpt>
      <trkpt lat="39.31957" lon="41.05562">
        <ele>1880.801033</ele>
        <time>2021-12-11T11:27:43.538Z</time>
      </trkpt>
      <trkpt lat="39.31748" lon="41.05574">
        <ele>1870.963703</ele>
        <time>2021-12-11T11:28:03.550Z</time>
      </trkpt>
      <trkpt lat="39.31551" lon="41.05502">
        <ele>1863.5458</ele>
        <time>2021-12-11T11:28:23.543Z</time>
      </trkpt>
      <trkpt lat="39.31379" lon="41.05362">
        <ele>1857.347848</ele>
        <time>2021-12-11T11:28:44.516Z</time>
      </trkpt>
      <trkpt lat="39.31193" lon="41.05141">
        <ele>1854.600531</ele>
        <time>2021-12-11T11:29:24.555Z</time>
      </trkpt>
      <trkpt lat="39.31015" lon="41.04929">
        <ele>1852.266156</ele>
        <time>2021-12-11T11:30:05.526Z</time>
      </trkpt>
      <trkpt lat="39.30849" lon="41.04669">
        <ele>1839.254219</ele>
        <time>2021-12-11T11:30:34.544Z</time>
      </trkpt>
      <trkpt lat="39.30757" lon="41.0443">
        <ele>1830.227182</ele>
        <time>2021-12-11T11:30:56.536Z</time>
      </trkpt>
      <trkpt lat="39.30677" lon="41.04178">
        <ele>1821.468582</ele>
        <time>2021-12-11T11:31:16.568Z</time>
      </trkpt>
      <trkpt lat="39.30597" lon="41.03905">
        <ele>1811.816715</ele>
        <time>2021-12-11T11:31:37.545Z</time>
      </trkpt>
      <trkpt lat="39.30517" lon="41.03623">
        <ele>1806.573577</ele>
        <time>2021-12-11T11:32:02.552Z</time>
      </trkpt>
      <trkpt lat="39.3043" lon="41.03325">
        <ele>1807.606212</ele>
        <time>2021-12-11T11:32:50.591Z</time>
      </trkpt>
      <trkpt lat="39.30338" lon="41.03015">
        <ele>1808.098979</ele>
        <time>2021-12-11T11:33:50.543Z</time>
      </trkpt>
      <trkpt lat="39.30262" lon="41.02738">
        <ele>1806.986485</ele>
        <time>2021-12-11T11:34:41.555Z</time>
      </trkpt>
      <trkpt lat="39.30181" lon="41.02456">
        <ele>1809.875716</ele>
        <time>2021-12-11T11:35:39.551Z</time>
      </trkpt>
      <trkpt lat="39.30107" lon="41.02207">
        <ele>1815.274927</ele>
        <time>2021-12-11T11:36:49.539Z</time>
      </trkpt>
      <trkpt lat="39.30041" lon="41.01959">
        <ele>1819.772256</ele>
        <time>2021-12-11T11:38:09.547Z</time>
      </trkpt>
      <trkpt lat="39.29975" lon="41.01711">
        <ele>1830.243004</ele>
        <time>2021-12-11T11:39:35.553Z</time>
      </trkpt>
      <trkpt lat="39.29858" lon="41.01507">
        <ele>1841.426844</ele>
        <time>2021-12-11T11:41:11.552Z</time>
      </trkpt>
      <trkpt lat="39.29859" lon="41.01293">
        <ele>1851.704379</ele>
        <time>2021-12-11T11:43:01.583Z</time>
      </trkpt>
      <trkpt lat="39.29722" lon="41.01225">
        <ele>1854.604916</ele>
        <time>2021-12-11T11:47:26.528Z</time>
      </trkpt>
      <trkpt lat="39.2963" lon="41.01082">
        <ele>1850.473767</ele>
        <time>2021-12-11T11:49:04.536Z</time>
      </trkpt>
      <trkpt lat="39.29687" lon="41.01142">
        <ele>1850.473767</ele>
        <time>2021-12-11T11:51:51.273Z</time>
      </trkpt>
      <trkpt lat="39.29687" lon="41.01148">
        <ele>1858.708806</ele>
        <time>2021-12-12T06:28:37.638Z</time>
      </trkpt>
      <trkpt lat="39.2962" lon="41.01078">
        <ele>1857.887458</ele>
        <time>2021-12-12T06:34:14.575Z</time>
      </trkpt>
      <trkpt lat="39.29478" lon="41.0102">
        <ele>1855.522462</ele>
        <time>2021-12-12T06:36:10.608Z</time>
      </trkpt>
      <trkpt lat="39.29285" lon="41.00863">
        <ele>1856.982078</ele>
        <time>2021-12-12T06:38:00.594Z</time>
      </trkpt>
      <trkpt lat="39.29107" lon="41.00658">
        <ele>1868.138473</ele>
        <time>2021-12-12T06:39:30.579Z</time>
      </trkpt>
      <trkpt lat="39.28934" lon="41.00454">
        <ele>1866.568736</ele>
        <time>2021-12-12T06:40:56.594Z</time>
      </trkpt>
      <trkpt lat="39.28758" lon="41.00245">
        <ele>1866.353493</ele>
        <time>2021-12-12T06:42:23.596Z</time>
      </trkpt>
      <trkpt lat="39.28571" lon="41.00026">
        <ele>1865.548299</ele>
        <time>2021-12-12T06:43:29.592Z</time>
      </trkpt>
      <trkpt lat="39.28335" lon="40.99853">
        <ele>1857.661894</ele>
        <time>2021-12-12T06:44:13.655Z</time>
      </trkpt>
      <trkpt lat="39.28101" lon="40.99726">
        <ele>1846.882677</ele>
        <time>2021-12-12T06:44:36.602Z</time>
      </trkpt>
      <trkpt lat="39.27858" lon="40.996">
        <ele>1842.578125</ele>
        <time>2021-12-12T06:45:13.607Z</time>
      </trkpt>
      <trkpt lat="39.27645" lon="40.99486">
        <ele>1840.464766</ele>
        <time>2021-12-12T06:45:57.602Z</time>
      </trkpt>
      <trkpt lat="39.2738" lon="40.99345">
        <ele>1830.031376</ele>
        <time>2021-12-12T06:46:30.605Z</time>
      </trkpt>
      <trkpt lat="39.27172" lon="40.99234">
        <ele>1820.639588</ele>
        <time>2021-12-12T06:46:52.595Z</time>
      </trkpt>
      <trkpt lat="39.26909" lon="40.99095">
        <ele>1814.475552</ele>
        <time>2021-12-12T06:47:25.622Z</time>
      </trkpt>
      <trkpt lat="39.26619" lon="40.9895">
        <ele>1811.226985</ele>
        <time>2021-12-12T06:48:09.610Z</time>
      </trkpt>
      <trkpt lat="39.26365" lon="40.98879">
        <ele>1814.488154</ele>
        <time>2021-12-12T06:49:10.641Z</time>
      </trkpt>
      <trkpt lat="39.26113" lon="40.98806">
        <ele>1816.612477</ele>
        <time>2021-12-12T06:50:16.611Z</time>
      </trkpt>
      <trkpt lat="39.25858" lon="40.98707">
        <ele>1816.075575</ele>
        <time>2021-12-12T06:51:22.620Z</time>
      </trkpt>
      <trkpt lat="39.25638" lon="40.98549">
        <ele>1816.88089</ele>
        <time>2021-12-12T06:52:16.608Z</time>
      </trkpt>
      <trkpt lat="39.25422" lon="40.98386">
        <ele>1813.135484</ele>
        <time>2021-12-12T06:53:00.606Z</time>
      </trkpt>
      <trkpt lat="39.25225" lon="40.98231">
        <ele>1810.047534</ele>
        <time>2021-12-12T06:53:44.588Z</time>
      </trkpt>
      <trkpt lat="39.2502" lon="40.98074">
        <ele>1809.868855</ele>
        <time>2021-12-12T06:54:30.637Z</time>
      </trkpt>
      <trkpt lat="39.24788" lon="40.9795">
        <ele>1803.813808</ele>
        <time>2021-12-12T06:55:07.589Z</time>
      </trkpt>
      <trkpt lat="39.24567" lon="40.97951">
        <ele>1797.444837</ele>
        <time>2021-12-12T06:55:29.602Z</time>
      </trkpt>
      <trkpt lat="39.24243" lon="40.97984">
        <ele>1791.675159</ele>
        <time>2021-12-12T06:56:08.607Z</time>
      </trkpt>
      <trkpt lat="39.23947" lon="40.98034">
        <ele>1787.015121</ele>
        <time>2021-12-12T06:56:52.608Z</time>
      </trkpt>
      <trkpt lat="39.23704" lon="40.98101">
        <ele>1790.934944</ele>
        <time>2021-12-12T06:57:48.632Z</time>
      </trkpt>
      <trkpt lat="39.2349" lon="40.98157">
        <ele>1793.856926</ele>
        <time>2021-12-12T06:58:59.603Z</time>
      </trkpt>
      <trkpt lat="39.23259" lon="40.98081">
        <ele>1792.538221</ele>
        <time>2021-12-12T07:00:01.599Z</time>
      </trkpt>
      <trkpt lat="39.23023" lon="40.97923">
        <ele>1785.89659</ele>
        <time>2021-12-12T07:00:35.596Z</time>
      </trkpt>
      <trkpt lat="39.22801" lon="40.97796">
        <ele>1777.831208</ele>
        <time>2021-12-12T07:01:00.590Z</time>
      </trkpt>
      <trkpt lat="39.22597" lon="40.97615">
        <ele>1790.610161</ele>
        <time>2021-12-12T07:02:36.596Z</time>
      </trkpt>
      <trkpt lat="39.22443" lon="40.97424">
        <ele>1799.88762</ele>
        <time>2021-12-12T07:04:56.608Z</time>
      </trkpt>
      <trkpt lat="39.2228" lon="40.97222">
        <ele>1801.416125</ele>
        <time>2021-12-12T07:06:22.627Z</time>
      </trkpt>
      <trkpt lat="39.22098" lon="40.96997">
        <ele>1802.43051</ele>
        <time>2021-12-12T07:07:31.613Z</time>
      </trkpt>
      <trkpt lat="39.21905" lon="40.96749">
        <ele>1797.453774</ele>
        <time>2021-12-12T07:08:22.604Z</time>
      </trkpt>
      <trkpt lat="39.21703" lon="40.96525">
        <ele>1785.939006</ele>
        <time>2021-12-12T07:08:51.609Z</time>
      </trkpt>
      <trkpt lat="39.21488" lon="40.9635">
        <ele>1771.070369</ele>
        <time>2021-12-12T07:09:13.610Z</time>
      </trkpt>
      <trkpt lat="39.21266" lon="40.96172">
        <ele>1762.428033</ele>
        <time>2021-12-12T07:09:40.622Z</time>
      </trkpt>
      <trkpt lat="39.20976" lon="40.95887">
        <ele>1756.424104</ele>
        <time>2021-12-12T07:10:24.591Z</time>
      </trkpt>
      <trkpt lat="39.2082" lon="40.956">
        <ele>1760.957705</ele>
        <time>2021-12-12T07:11:17.605Z</time>
      </trkpt>
      <trkpt lat="39.20743" lon="40.95307">
        <ele>1772.767749</ele>
        <time>2021-12-12T07:12:41.602Z</time>
      </trkpt>
      <trkpt lat="39.2059" lon="40.951">
        <ele>1779.388249</ele>
        <time>2021-12-12T07:14:26.614Z</time>
      </trkpt>
      <trkpt lat="39.20419" lon="40.94926">
        <ele>1787.324157</ele>
        <time>2021-12-12T07:16:02.604Z</time>
      </trkpt>
      <trkpt lat="39.20248" lon="40.94745">
        <ele>1802.555855</ele>
        <time>2021-12-12T07:18:18.615Z</time>
      </trkpt>
      <trkpt lat="39.20097" lon="40.94542">
        <ele>1815.661928</ele>
        <time>2021-12-12T07:20:34.612Z</time>
      </trkpt>
      <trkpt lat="39.19954" lon="40.94331">
        <ele>1823.81259</ele>
        <time>2021-12-12T07:22:25.635Z</time>
      </trkpt>
      <trkpt lat="39.19791" lon="40.94103">
        <ele>1829.093014</ele>
        <time>2021-12-12T07:23:45.605Z</time>
      </trkpt>
      <trkpt lat="39.19617" lon="40.93855">
        <ele>1824.893337</ele>
        <time>2021-12-12T07:24:51.625Z</time>
      </trkpt>
      <trkpt lat="39.19437" lon="40.93625">
        <ele>1823.313813</ele>
        <time>2021-12-12T07:25:57.631Z</time>
      </trkpt>
      <trkpt lat="39.19267" lon="40.9343">
        <ele>1835.000495</ele>
        <time>2021-12-12T07:27:28.623Z</time>
      </trkpt>
      <trkpt lat="39.19086" lon="40.93245">
        <ele>1839.551836</ele>
        <time>2021-12-12T07:29:23.614Z</time>
      </trkpt>
      <trkpt lat="39.18917" lon="40.93059">
        <ele>1848.983491</ele>
        <time>2021-12-12T07:31:18.646Z</time>
      </trkpt>
      <trkpt lat="39.18743" lon="40.9287">
        <ele>1855.38018</ele>
        <time>2021-12-12T07:32:37.626Z</time>
      </trkpt>
      <trkpt lat="39.18559" lon="40.92606">
        <ele>1843.618903</ele>
        <time>2021-12-12T07:33:10.616Z</time>
      </trkpt>
      <trkpt lat="39.18397" lon="40.92366">
        <ele>1826.344291</ele>
        <time>2021-12-12T07:33:32.621Z</time>
      </trkpt>
      <trkpt lat="39.18244" lon="40.9208">
        <ele>1811.362183</ele>
        <time>2021-12-12T07:33:54.612Z</time>
      </trkpt>
      <trkpt lat="39.18111" lon="40.91798">
        <ele>1803.32841</ele>
        <time>2021-12-12T07:34:17.615Z</time>
      </trkpt>
      <trkpt lat="39.17961" lon="40.91594">
        <ele>1798.292198</ele>
        <time>2021-12-12T07:34:39.612Z</time>
      </trkpt>
      <trkpt lat="39.17769" lon="40.91396">
        <ele>1805.133037</ele>
        <time>2021-12-12T07:35:44.610Z</time>
      </trkpt>
      <trkpt lat="39.17554" lon="40.91277">
        <ele>1813.902807</ele>
        <time>2021-12-12T07:37:34.609Z</time>
      </trkpt>
      <trkpt lat="39.17307" lon="40.91149">
        <ele>1810.452614</ele>
        <time>2021-12-12T07:38:26.602Z</time>
      </trkpt>
      <trkpt lat="39.17056" lon="40.91003">
        <ele>1804.436569</ele>
        <time>2021-12-12T07:38:55.607Z</time>
      </trkpt>
      <trkpt lat="39.16791" lon="40.90875">
        <ele>1790.212452</ele>
        <time>2021-12-12T07:39:21.612Z</time>
      </trkpt>
      <trkpt lat="39.16484" lon="40.90758">
        <ele>1782.619215</ele>
        <time>2021-12-12T07:40:00.651Z</time>
      </trkpt>
      <trkpt lat="39.16303" lon="40.9055">
        <ele>1784.841964</ele>
        <time>2021-12-12T07:40:26.613Z</time>
      </trkpt>
      <trkpt lat="39.16146" lon="40.90271">
        <ele>1792.36704</ele>
        <time>2021-12-12T07:40:55.627Z</time>
      </trkpt>
      <trkpt lat="39.15922" lon="40.90098">
        <ele>1778.512576</ele>
        <time>2021-12-12T07:41:24.607Z</time>
      </trkpt>
      <trkpt lat="39.15725" lon="40.89941">
        <ele>1773.697725</ele>
        <time>2021-12-12T07:42:24.595Z</time>
      </trkpt>
      <trkpt lat="39.15583" lon="40.89705">
        <ele>1779.240299</ele>
        <time>2021-12-12T07:43:50.606Z</time>
      </trkpt>
      <trkpt lat="39.15511" lon="40.89432">
        <ele>1795.791447</ele>
        <time>2021-12-12T07:46:08.643Z</time>
      </trkpt>
      <trkpt lat="39.15489" lon="40.89155">
        <ele>1805.782428</ele>
        <time>2021-12-12T07:48:06.602Z</time>
      </trkpt>
      <trkpt lat="39.15384" lon="40.88895">
        <ele>1812.769226</ele>
        <time>2021-12-12T07:49:38.628Z</time>
      </trkpt>
      <trkpt lat="39.15302" lon="40.88619">
        <ele>1816.472972</ele>
        <time>2021-12-12T07:51:39.623Z</time>
      </trkpt>
      <trkpt lat="39.15269" lon="40.88252">
        <ele>1804.682714</ele>
        <time>2021-12-12T07:52:20.666Z</time>
      </trkpt>
      <trkpt lat="39.15227" lon="40.87964">
        <ele>1792.138592</ele>
        <time>2021-12-12T07:52:42.609Z</time>
      </trkpt>
      <trkpt lat="39.15098" lon="40.87732">
        <ele>1773.345074</ele>
        <time>2021-12-12T07:53:04.609Z</time>
      </trkpt>
      <trkpt lat="39.14857" lon="40.87508">
        <ele>1751.928338</ele>
        <time>2021-12-12T07:53:27.629Z</time>
      </trkpt>
      <trkpt lat="39.14641" lon="40.87313">
        <ele>1737.658359</ele>
        <time>2021-12-12T07:53:49.625Z</time>
      </trkpt>
      <trkpt lat="39.14436" lon="40.87128">
        <ele>1722.108047</ele>
        <time>2021-12-12T07:54:21.621Z</time>
      </trkpt>
      <trkpt lat="39.14204" lon="40.86916">
        <ele>1708.195186</ele>
        <time>2021-12-12T07:54:44.624Z</time>
      </trkpt>
      <trkpt lat="39.13977" lon="40.86708">
        <ele>1701.487766</ele>
        <time>2021-12-12T07:55:06.618Z</time>
      </trkpt>
      <trkpt lat="39.13775" lon="40.86526">
        <ele>1700.189987</ele>
        <time>2021-12-12T07:55:28.623Z</time>
      </trkpt>
      <trkpt lat="39.1365" lon="40.86281">
        <ele>1702.534333</ele>
        <time>2021-12-12T07:55:51.613Z</time>
      </trkpt>
      <trkpt lat="39.13541" lon="40.85989">
        <ele>1703.763211</ele>
        <time>2021-12-12T07:56:13.626Z</time>
      </trkpt>
      <trkpt lat="39.13396" lon="40.85707">
        <ele>1692.160282</ele>
        <time>2021-12-12T07:56:35.614Z</time>
      </trkpt>
      <trkpt lat="39.13163" lon="40.85569">
        <ele>1689.009003</ele>
        <time>2021-12-12T07:57:51.650Z</time>
      </trkpt>
      <trkpt lat="39.12947" lon="40.85601">
        <ele>1706.287983</ele>
        <time>2021-12-12T08:00:25.636Z</time>
      </trkpt>
      <trkpt lat="39.12737" lon="40.85539">
        <ele>1703.133724</ele>
        <time>2021-12-12T08:02:25.627Z</time>
      </trkpt>
      <trkpt lat="39.12468" lon="40.85386">
        <ele>1695.690322</ele>
        <time>2021-12-12T08:03:14.615Z</time>
      </trkpt>
      <trkpt lat="39.12251" lon="40.85232">
        <ele>1675.784915</ele>
        <time>2021-12-12T08:03:40.616Z</time>
      </trkpt>
      <trkpt lat="39.11995" lon="40.85048">
        <ele>1647.656626</ele>
        <time>2021-12-12T08:04:13.619Z</time>
      </trkpt>
      <trkpt lat="39.11792" lon="40.84917">
        <ele>1628.97008</ele>
        <time>2021-12-12T08:04:36.598Z</time>
      </trkpt>
      <trkpt lat="39.11566" lon="40.84698">
        <ele>1614.671977</ele>
        <time>2021-12-12T08:05:08.621Z</time>
      </trkpt>
      <trkpt lat="39.11446" lon="40.84419">
        <ele>1636.514881</ele>
        <time>2021-12-12T08:06:20.622Z</time>
      </trkpt>
      <trkpt lat="39.11318" lon="40.84197">
        <ele>1655.100932</ele>
        <time>2021-12-12T08:08:12.606Z</time>
      </trkpt>
      <trkpt lat="39.11208" lon="40.83939">
        <ele>1643.007396</ele>
        <time>2021-12-12T08:10:26.658Z</time>
      </trkpt>
      <trkpt lat="39.11079" lon="40.83706">
        <ele>1648.992839</ele>
        <time>2021-12-12T08:12:16.621Z</time>
      </trkpt>
      <trkpt lat="39.10892" lon="40.83504">
        <ele>1648.277108</ele>
        <time>2021-12-12T08:13:14.618Z</time>
      </trkpt>
      <trkpt lat="39.10668" lon="40.83307">
        <ele>1642.761449</ele>
        <time>2021-12-12T08:13:58.635Z</time>
      </trkpt>
      <trkpt lat="39.1044" lon="40.82996">
        <ele>1624.711918</ele>
        <time>2021-12-12T08:14:44.627Z</time>
      </trkpt>
      <trkpt lat="39.10194" lon="40.82655">
        <ele>1615.082309</ele>
        <time>2021-12-12T08:15:28.622Z</time>
      </trkpt>
      <trkpt lat="39.09942" lon="40.82468">
        <ele>1609.157056</ele>
        <time>2021-12-12T08:16:11.638Z</time>
      </trkpt>
      <trkpt lat="39.09665" lon="40.82414">
        <ele>1597.84047</ele>
        <time>2021-12-12T08:16:57.647Z</time>
      </trkpt>
      <trkpt lat="39.09375" lon="40.82293">
        <ele>1561.453608</ele>
        <time>2021-12-12T08:17:41.643Z</time>
      </trkpt>
      <trkpt lat="39.09121" lon="40.82073">
        <ele>1534.49096</ele>
        <time>2021-12-12T08:18:19.614Z</time>
      </trkpt>
      <trkpt lat="39.08917" lon="40.81865">
        <ele>1534.532414</ele>
        <time>2021-12-12T08:19:06.629Z</time>
      </trkpt>
      <trkpt lat="39.08714" lon="40.81755">
        <ele>1550.512498</ele>
        <time>2021-12-12T08:21:14.620Z</time>
      </trkpt>
      <trkpt lat="39.08524" lon="40.81644">
        <ele>1564.295935</ele>
        <time>2021-12-12T08:23:35.640Z</time>
      </trkpt>
      <trkpt lat="39.0831" lon="40.81584">
        <ele>1573.361663</ele>
        <time>2021-12-12T08:25:55.613Z</time>
      </trkpt>
      <trkpt lat="39.08129" lon="40.81698">
        <ele>1581.15466</ele>
        <time>2021-12-12T08:28:09.619Z</time>
      </trkpt>
      <trkpt lat="39.08078" lon="40.81446">
        <ele>1594.370388</ele>
        <time>2021-12-12T08:30:26.643Z</time>
      </trkpt>
      <trkpt lat="39.07961" lon="40.81234">
        <ele>1612.85209</ele>
        <time>2021-12-12T08:33:09.636Z</time>
      </trkpt>
      <trkpt lat="39.07744" lon="40.81287">
        <ele>1624.520038</ele>
        <time>2021-12-12T08:35:01.645Z</time>
      </trkpt>
      <trkpt lat="39.07491" lon="40.81441">
        <ele>1609.050797</ele>
        <time>2021-12-12T08:35:48.630Z</time>
      </trkpt>
      <trkpt lat="39.07166" lon="40.81324">
        <ele>1575.977324</ele>
        <time>2021-12-12T08:36:29.635Z</time>
      </trkpt>
      <trkpt lat="39.06914" lon="40.81164">
        <ele>1553.291366</ele>
        <time>2021-12-12T08:37:01.635Z</time>
      </trkpt>
      <trkpt lat="39.06683" lon="40.80936">
        <ele>1531.294835</ele>
        <time>2021-12-12T08:37:45.632Z</time>
      </trkpt>
      <trkpt lat="39.06511" lon="40.80607">
        <ele>1504.18204</ele>
        <time>2021-12-12T08:38:28.635Z</time>
      </trkpt>
      <trkpt lat="39.06381" lon="40.80362">
        <ele>1489.649686</ele>
        <time>2021-12-12T08:38:51.629Z</time>
      </trkpt>
      <trkpt lat="39.06151" lon="40.80107">
        <ele>1479.736666</ele>
        <time>2021-12-12T08:39:33.677Z</time>
      </trkpt>
      <trkpt lat="39.05908" lon="40.79824">
        <ele>1462.908117</ele>
        <time>2021-12-12T08:40:14.632Z</time>
      </trkpt>
      <trkpt lat="39.05816" lon="40.79441">
        <ele>1443.889128</ele>
        <time>2021-12-12T08:41:00.633Z</time>
      </trkpt>
      <trkpt lat="39.05806" lon="40.79121">
        <ele>1418.47349</ele>
        <time>2021-12-12T08:41:52.626Z</time>
      </trkpt>
      <trkpt lat="39.05795" lon="40.78901">
        <ele>1418.182842</ele>
        <time>2021-12-12T09:23:53.978Z</time>
      </trkpt>
      <trkpt lat="39.05746" lon="40.78611">
        <ele>1418.662879</ele>
        <time>2021-12-12T09:25:01.999Z</time>
      </trkpt>
      <trkpt lat="39.05667" lon="40.7826">
        <ele>1404.623099</ele>
        <time>2021-12-12T09:25:42.006Z</time>
      </trkpt>
      <trkpt lat="39.05542" lon="40.78001">
        <ele>1394.30156</ele>
        <time>2021-12-12T09:26:04.996Z</time>
      </trkpt>
      <trkpt lat="39.05376" lon="40.77792">
        <ele>1397.886225</ele>
        <time>2021-12-12T09:27:19.002Z</time>
      </trkpt>
      <trkpt lat="39.05231" lon="40.77556">
        <ele>1404.803954</ele>
        <time>2021-12-12T09:28:48.987Z</time>
      </trkpt>
      <trkpt lat="39.05092" lon="40.77324">
        <ele>1408.793757</ele>
        <time>2021-12-12T09:29:59.997Z</time>
      </trkpt>
      <trkpt lat="39.04936" lon="40.77128">
        <ele>1411.642207</ele>
        <time>2021-12-12T09:31:38.000Z</time>
      </trkpt>
      <trkpt lat="39.0469" lon="40.76917">
        <ele>1399.59136</ele>
        <time>2021-12-12T09:32:25.003Z</time>
      </trkpt>
      <trkpt lat="39.046" lon="40.76601">
        <ele>1375.966939</ele>
        <time>2021-12-12T09:32:55.002Z</time>
      </trkpt>
      <trkpt lat="39.04468" lon="40.7632">
        <ele>1352.595858</ele>
        <time>2021-12-12T09:33:23.985Z</time>
      </trkpt>
      <trkpt lat="39.04413" lon="40.75974">
        <ele>1336.24318</ele>
        <time>2021-12-12T09:33:50.022Z</time>
      </trkpt>
      <trkpt lat="39.04251" lon="40.75737">
        <ele>1328.117368</ele>
        <time>2021-12-12T09:34:20.013Z</time>
      </trkpt>
      <trkpt lat="39.04055" lon="40.7556">
        <ele>1338.117732</ele>
        <time>2021-12-12T09:35:23.994Z</time>
      </trkpt>
      <trkpt lat="39.03888" lon="40.7526">
        <ele>1335.897469</ele>
        <time>2021-12-12T09:36:08.006Z</time>
      </trkpt>
      <trkpt lat="39.03779" lon="40.74858">
        <ele>1322.6535</ele>
        <time>2021-12-12T09:36:54.000Z</time>
      </trkpt>
      <trkpt lat="39.03516" lon="40.74687">
        <ele>1298.992331</ele>
        <time>2021-12-12T09:37:38.023Z</time>
      </trkpt>
      <trkpt lat="39.03272" lon="40.74436">
        <ele>1274.635686</ele>
        <time>2021-12-12T09:38:17.014Z</time>
      </trkpt>
      <trkpt lat="39.03183" lon="40.74141">
        <ele>1264.142781</ele>
        <time>2021-12-12T09:38:44.005Z</time>
      </trkpt>
      <trkpt lat="39.03041" lon="40.73715">
        <ele>1255.520385</ele>
        <time>2021-12-12T09:39:28.045Z</time>
      </trkpt>
      <trkpt lat="39.02865" lon="40.73397">
        <ele>1247.561703</ele>
        <time>2021-12-12T09:40:04.012Z</time>
      </trkpt>
      <trkpt lat="39.02562" lon="40.73168">
        <ele>1245.974706</ele>
        <time>2021-12-12T09:40:49.999Z</time>
      </trkpt>
      <trkpt lat="39.02346" lon="40.72833">
        <ele>1241.349134</ele>
        <time>2021-12-12T09:41:33.991Z</time>
      </trkpt>
      <trkpt lat="39.02233" lon="40.7241">
        <ele>1237.75684</ele>
        <time>2021-12-12T09:42:18.045Z</time>
      </trkpt>
      <trkpt lat="39.02042" lon="40.72127">
        <ele>1223.937688</ele>
        <time>2021-12-12T09:42:53.008Z</time>
      </trkpt>
      <trkpt lat="39.01949" lon="40.71727">
        <ele>1229.2303</ele>
        <time>2021-12-12T09:43:30.011Z</time>
      </trkpt>
      <trkpt lat="39.0182" lon="40.71346">
        <ele>1211.135526</ele>
        <time>2021-12-12T09:44:14.050Z</time>
      </trkpt>
      <trkpt lat="39.01653" lon="40.70956">
        <ele>1203.929209</ele>
        <time>2021-12-12T09:44:58.006Z</time>
      </trkpt>
      <trkpt lat="39.0145" lon="40.70587">
        <ele>1197.140784</ele>
        <time>2021-12-12T09:45:44.013Z</time>
      </trkpt>
      <trkpt lat="39.01221" lon="40.70297">
        <ele>1198.92861</ele>
        <time>2021-12-12T09:46:27.988Z</time>
      </trkpt>
      <trkpt lat="39.01012" lon="40.70063">
        <ele>1199.780048</ele>
        <time>2021-12-12T09:47:12.000Z</time>
      </trkpt>
      <trkpt lat="39.00796" lon="40.69927">
        <ele>1201.566214</ele>
        <time>2021-12-12T09:47:58.016Z</time>
      </trkpt>
      <trkpt lat="39.00577" lon="40.69837">
        <ele>1205.167795</ele>
        <time>2021-12-12T09:49:13.056Z</time>
      </trkpt>
      <trkpt lat="39.00422" lon="40.69637">
        <ele>1213.236027</ele>
        <time>2021-12-12T09:51:12.042Z</time>
      </trkpt>
      <trkpt lat="39.00246" lon="40.69447">
        <ele>1228.651802</ele>
        <time>2021-12-12T09:52:44.010Z</time>
      </trkpt>
      <trkpt lat="39.00077" lon="40.69272">
        <ele>1239.184664</ele>
        <time>2021-12-12T09:54:58.987Z</time>
      </trkpt>
      <trkpt lat="38.99894" lon="40.69099">
        <ele>1245.481578</ele>
        <time>2021-12-12T09:56:40.015Z</time>
      </trkpt>
      <trkpt lat="38.99655" lon="40.68922">
        <ele>1238.957022</ele>
        <time>2021-12-12T09:57:16.039Z</time>
      </trkpt>
      <trkpt lat="38.99434" lon="40.68733">
        <ele>1219.66943</ele>
        <time>2021-12-12T09:57:39.043Z</time>
      </trkpt>
      <trkpt lat="38.99296" lon="40.68489">
        <ele>1205.420411</ele>
        <time>2021-12-12T09:58:01.051Z</time>
      </trkpt>
      <trkpt lat="38.9914" lon="40.68282">
        <ele>1195.513438</ele>
        <time>2021-12-12T09:58:24.050Z</time>
      </trkpt>
      <trkpt lat="38.98992" lon="40.68014">
        <ele>1187.214292</ele>
        <time>2021-12-12T09:58:47.047Z</time>
      </trkpt>
      <trkpt lat="38.9879" lon="40.67676">
        <ele>1185.323692</ele>
        <time>2021-12-12T09:59:30.002Z</time>
      </trkpt>
      <trkpt lat="38.98539" lon="40.67615">
        <ele>1189.51973</ele>
        <time>2021-12-12T10:00:16.008Z</time>
      </trkpt>
      <trkpt lat="38.98316" lon="40.67711">
        <ele>1191.584786</ele>
        <time>2021-12-12T10:01:05.005Z</time>
      </trkpt>
      <trkpt lat="38.98116" lon="40.67601">
        <ele>1189.791668</ele>
        <time>2021-12-12T10:01:56.006Z</time>
      </trkpt>
      <trkpt lat="38.97906" lon="40.67454">
        <ele>1200.384249</ele>
        <time>2021-12-12T10:13:47.029Z</time>
      </trkpt>
      <trkpt lat="38.97703" lon="40.67314">
        <ele>1211.889218</ele>
        <time>2021-12-12T10:15:52.014Z</time>
      </trkpt>
      <trkpt lat="38.97562" lon="40.671">
        <ele>1221.04655</ele>
        <time>2021-12-12T10:17:54.010Z</time>
      </trkpt>
      <trkpt lat="38.97388" lon="40.66945">
        <ele>1229.920561</ele>
        <time>2021-12-12T10:19:53.016Z</time>
      </trkpt>
      <trkpt lat="38.97195" lon="40.66795">
        <ele>1235.454132</ele>
        <time>2021-12-12T10:21:35.007Z</time>
      </trkpt>
      <trkpt lat="38.96999" lon="40.666">
        <ele>1238.980537</ele>
        <time>2021-12-12T10:25:13.016Z</time>
      </trkpt>
      <trkpt lat="38.96799" lon="40.66416">
        <ele>1241.421127</ele>
        <time>2021-12-12T10:26:19.020Z</time>
      </trkpt>
      <trkpt lat="38.96606" lon="40.66239">
        <ele>1242.218254</ele>
        <time>2021-12-12T10:27:23.027Z</time>
      </trkpt>
      <trkpt lat="38.96387" lon="40.6603">
        <ele>1240.746404</ele>
        <time>2021-12-12T10:28:10.057Z</time>
      </trkpt>
      <trkpt lat="38.96206" lon="40.65868">
        <ele>1238.891285</ele>
        <time>2021-12-12T10:28:54.027Z</time>
      </trkpt>
      <trkpt lat="38.95945" lon="40.65779">
        <ele>1230.964707</ele>
        <time>2021-12-12T10:29:38.017Z</time>
      </trkpt>
      <trkpt lat="38.95622" lon="40.65588">
        <ele>1213.920628</ele>
        <time>2021-12-12T10:30:20.014Z</time>
      </trkpt>
      <trkpt lat="38.95512" lon="40.65363">
        <ele>1201.183386</ele>
        <time>2021-12-12T10:30:41.998Z</time>
      </trkpt>
      <trkpt lat="38.95383" lon="40.65131">
        <ele>1184.937191</ele>
        <time>2021-12-12T10:31:04.004Z</time>
      </trkpt>
      <trkpt lat="38.95184" lon="40.6493">
        <ele>1168.02609</ele>
        <time>2021-12-12T10:31:27.016Z</time>
      </trkpt>
      <trkpt lat="38.94977" lon="40.64727">
        <ele>1157.509978</ele>
        <time>2021-12-12T10:31:49.010Z</time>
      </trkpt>
      <trkpt lat="38.94766" lon="40.64519">
        <ele>1155.677778</ele>
        <time>2021-12-12T10:32:24.030Z</time>
      </trkpt>
      <trkpt lat="38.94588" lon="40.64355">
        <ele>1159.961015</ele>
        <time>2021-12-12T10:33:10.021Z</time>
      </trkpt>
      <trkpt lat="38.94386" lon="40.64198">
        <ele>1160.60394</ele>
        <time>2021-12-12T10:34:01.024Z</time>
      </trkpt>
      <trkpt lat="38.94169" lon="40.64049">
        <ele>1164.178267</ele>
        <time>2021-12-12T10:35:07.021Z</time>
      </trkpt>
      <trkpt lat="38.93965" lon="40.63888">
        <ele>1167.428478</ele>
        <time>2021-12-12T10:36:13.003Z</time>
      </trkpt>
      <trkpt lat="38.93817" lon="40.63635">
        <ele>1167.436326</ele>
        <time>2021-12-12T10:37:03.019Z</time>
      </trkpt>
      <trkpt lat="38.9368" lon="40.63385">
        <ele>1165.11746</ele>
        <time>2021-12-12T10:37:46.999Z</time>
      </trkpt>
      <trkpt lat="38.93536" lon="40.63132">
        <ele>1159.264374</ele>
        <time>2021-12-12T10:38:34.009Z</time>
      </trkpt>
      <trkpt lat="38.93359" lon="40.62875">
        <ele>1147.094176</ele>
        <time>2021-12-12T10:39:01.024Z</time>
      </trkpt>
      <trkpt lat="38.93169" lon="40.62627">
        <ele>1143.034132</ele>
        <time>2021-12-12T10:39:37.055Z</time>
      </trkpt>
      <trkpt lat="38.93046" lon="40.6233">
        <ele>1145.245825</ele>
        <time>2021-12-12T10:40:36.034Z</time>
      </trkpt>
      <trkpt lat="38.92902" lon="40.62056">
        <ele>1151.256076</ele>
        <time>2021-12-12T10:41:55.046Z</time>
      </trkpt>
      <trkpt lat="38.92736" lon="40.61856">
        <ele>1156.749864</ele>
        <time>2021-12-12T10:43:31.013Z</time>
      </trkpt>
      <trkpt lat="38.92538" lon="40.61668">
        <ele>1151.480014</ele>
        <time>2021-12-12T10:44:23.024Z</time>
      </trkpt>
      <trkpt lat="38.92353" lon="40.61401">
        <ele>1134.426516</ele>
        <time>2021-12-12T10:44:57.035Z</time>
      </trkpt>
      <trkpt lat="38.92201" lon="40.61148">
        <ele>1120.467923</ele>
        <time>2021-12-12T10:45:20.007Z</time>
      </trkpt>
      <trkpt lat="38.92088" lon="40.60907">
        <ele>1112.611872</ele>
        <time>2021-12-12T10:45:42.015Z</time>
      </trkpt>
      <trkpt lat="38.91977" lon="40.60671">
        <ele>1107.457768</ele>
        <time>2021-12-12T10:46:04.054Z</time>
      </trkpt>
      <trkpt lat="38.91848" lon="40.60393">
        <ele>1099.478109</ele>
        <time>2021-12-12T10:46:31.997Z</time>
      </trkpt>
      <trkpt lat="38.91676" lon="40.60088">
        <ele>1091.156619</ele>
        <time>2021-12-12T10:47:19.054Z</time>
      </trkpt>
      <trkpt lat="38.91465" lon="40.59874">
        <ele>1085.610827</ele>
        <time>2021-12-12T10:50:05.017Z</time>
      </trkpt>
      <trkpt lat="38.91334" lon="40.59608">
        <ele>1083.022933</ele>
        <time>2021-12-12T10:51:03.021Z</time>
      </trkpt>
      <trkpt lat="38.91328" lon="40.59326">
        <ele>1079.471084</ele>
        <time>2021-12-12T10:51:48.024Z</time>
      </trkpt>
      <trkpt lat="38.91279" lon="40.59035">
        <ele>1077.759816</ele>
        <time>2021-12-12T10:52:32.003Z</time>
      </trkpt>
      <trkpt lat="38.91221" lon="40.5875">
        <ele>1078.173684</ele>
        <time>2021-12-12T10:53:20.027Z</time>
      </trkpt>
      <trkpt lat="38.91161" lon="40.58463">
        <ele>1080.997891</ele>
        <time>2021-12-12T10:54:11.016Z</time>
      </trkpt>
      <trkpt lat="38.91102" lon="40.5818">
        <ele>1080.930256</ele>
        <time>2021-12-12T10:55:01.040Z</time>
      </trkpt>
      <trkpt lat="38.91043" lon="40.57903">
        <ele>1080.888717</ele>
        <time>2021-12-12T10:55:46.033Z</time>
      </trkpt>
      <trkpt lat="38.90978" lon="40.57606">
        <ele>1080.782058</ele>
        <time>2021-12-12T10:56:33.023Z</time>
      </trkpt>
      <trkpt lat="38.90921" lon="40.573">
        <ele>1086.615555</ele>
        <time>2021-12-12T10:57:39.029Z</time>
      </trkpt>
      <trkpt lat="38.90864" lon="40.56988">
        <ele>1090.189478</ele>
        <time>2021-12-12T10:58:45.021Z</time>
      </trkpt>
      <trkpt lat="38.90843" lon="40.56658">
        <ele>1090.140786</ele>
        <time>2021-12-12T11:01:57.018Z</time>
      </trkpt>
      <trkpt lat="38.90822" lon="40.56369">
        <ele>1089.093516</ele>
        <time>2021-12-12T11:02:41.006Z</time>
      </trkpt>
      <trkpt lat="38.90806" lon="40.56058">
        <ele>1087.778647</ele>
        <time>2021-12-12T11:03:25.020Z</time>
      </trkpt>
      <trkpt lat="38.90783" lon="40.55735">
        <ele>1082.312335</ele>
        <time>2021-12-12T11:04:35.020Z</time>
      </trkpt>
      <trkpt lat="38.90749" lon="40.55403">
        <ele>1079.451951</ele>
        <time>2021-12-12T11:05:19.022Z</time>
      </trkpt>
      <trkpt lat="38.90723" lon="40.55096">
        <ele>1075.825816</ele>
        <time>2021-12-12T11:06:03.057Z</time>
      </trkpt>
      <trkpt lat="38.90695" lon="40.54785">
        <ele>1078.819693</ele>
        <time>2021-12-12T11:06:57.013Z</time>
      </trkpt>
      <trkpt lat="38.90673" lon="40.54467">
        <ele>1078.81209</ele>
        <time>2021-12-12T11:08:09.025Z</time>
      </trkpt>
      <trkpt lat="38.90642" lon="40.54148">
        <ele>1078.156148</ele>
        <time>2021-12-12T11:09:06.031Z</time>
      </trkpt>
      <trkpt lat="38.90614" lon="40.5384">
        <ele>1081.210052</ele>
        <time>2021-12-12T11:10:05.011Z</time>
      </trkpt>
      <trkpt lat="38.90587" lon="40.53542">
        <ele>1086.398122</ele>
        <time>2021-12-12T11:11:18.043Z</time>
      </trkpt>
      <trkpt lat="38.90545" lon="40.53254">
        <ele>1087.523496</ele>
        <time>2021-12-12T11:12:23.014Z</time>
      </trkpt>
      <trkpt lat="38.90371" lon="40.52944">
        <ele>1078.37732</ele>
        <time>2021-12-12T11:13:10.047Z</time>
      </trkpt>
      <trkpt lat="38.90186" lon="40.52687">
        <ele>1080.616742</ele>
        <time>2021-12-12T11:14:08.064Z</time>
      </trkpt>
      <trkpt lat="38.90009" lon="40.52616">
        <ele>1084.023258</ele>
        <time>2021-12-12T11:15:46.007Z</time>
      </trkpt>
      <trkpt lat="38.89791" lon="40.52752">
        <ele>1087.019022</ele>
        <time>2021-12-12T11:16:53.021Z</time>
      </trkpt>
      <trkpt lat="38.89556" lon="40.52882">
        <ele>1085.260681</ele>
        <time>2021-12-12T11:17:50.035Z</time>
      </trkpt>
      <trkpt lat="38.89331" lon="40.52964">
        <ele>1086.211411</ele>
        <time>2021-12-12T11:18:44.026Z</time>
      </trkpt>
      <trkpt lat="38.8922" lon="40.52744">
        <ele>1093.102262</ele>
        <time>2021-12-12T11:20:04.032Z</time>
      </trkpt>
      <trkpt lat="38.89118" lon="40.52478">
        <ele>1101.028201</ele>
        <time>2021-12-12T11:21:32.049Z</time>
      </trkpt>
      <trkpt lat="38.89027" lon="40.52202">
        <ele>1109.975205</ele>
        <time>2021-12-12T11:22:55.080Z</time>
      </trkpt>
      <trkpt lat="38.88961" lon="40.51919">
        <ele>1122.912269</ele>
        <time>2021-12-12T11:24:22.025Z</time>
      </trkpt>
      <trkpt lat="38.88901" lon="40.51636">
        <ele>1129.669242</ele>
        <time>2021-12-12T11:25:45.033Z</time>
      </trkpt>
      <trkpt lat="38.8882" lon="40.51352">
        <ele>1127.333992</ele>
        <time>2021-12-12T11:27:18.035Z</time>
      </trkpt>
      <trkpt lat="38.88658" lon="40.51285">
        <ele>1141.756101</ele>
        <time>2021-12-12T11:28:52.036Z</time>
      </trkpt>
      <trkpt lat="38.88486" lon="40.51204">
        <ele>1149.192812</ele>
        <time>2021-12-12T11:30:26.023Z</time>
      </trkpt>
      <trkpt lat="38.88566" lon="40.51108">
        <ele>1149.165554</ele>
        <time>2021-12-12T11:39:34.025Z</time>
      </trkpt>
      <trkpt lat="38.88517" lon="40.50829">
        <ele>1153.406349</ele>
        <time>2021-12-12T11:41:19.020Z</time>
      </trkpt>
      <trkpt lat="38.88493" lon="40.50559">
        <ele>1167.64547</ele>
        <time>2021-12-12T11:44:13.024Z</time>
      </trkpt>
      <trkpt lat="38.88547" lon="40.50259">
        <ele>1183.046643</ele>
        <time>2021-12-12T11:45:52.023Z</time>
      </trkpt>
      <trkpt lat="38.88449" lon="40.50029">
        <ele>1177.265318</ele>
        <time>2021-12-12T11:47:04.020Z</time>
      </trkpt>
      <trkpt lat="38.8838" lon="40.49923">
        <ele>1177.265318</ele>
        <time>2021-12-12T11:48:59.488Z</time>
      </trkpt>
      <trkpt lat="38.88833" lon="40.49817">
        <ele>1111.518841</ele>
        <time>2022-02-24T07:54:53.844Z</time>
      </trkpt>
      <trkpt lat="38.88913" lon="40.49522">
        <ele>1114.087514</ele>
        <time>2022-02-24T07:56:17.492Z</time>
      </trkpt>
      <trkpt lat="38.88973" lon="40.49317">
        <ele>1118.786786</ele>
        <time>2022-02-24T07:57:28.573Z</time>
      </trkpt>
      <trkpt lat="38.88994" lon="40.49246">
        <ele>1120.390491</ele>
        <time>2022-02-24T07:57:55.360Z</time>
      </trkpt>
      <trkpt lat="38.89007" lon="40.49199">
        <ele>1121.30813</ele>
        <time>2022-02-24T07:58:13.189Z</time>
      </trkpt>
      <trkpt lat="38.89067" lon="40.48995">
        <ele>1124.559964</ele>
        <time>2022-02-24T07:59:14.426Z</time>
      </trkpt>
      <trkpt lat="38.89079" lon="40.48986">
        <ele>1124.70096</ele>
        <time>2022-02-24T07:59:17.641Z</time>
      </trkpt>
      <trkpt lat="38.89116" lon="40.48973">
        <ele>1125.072081</ele>
        <time>2022-02-24T07:59:27.851Z</time>
      </trkpt>
      <trkpt lat="38.89151" lon="40.48992">
        <ele>1125.44358</ele>
        <time>2022-02-24T07:59:39.917Z</time>
      </trkpt>
      <trkpt lat="38.89166" lon="40.48992">
        <ele>1125.591225</ele>
        <time>2022-02-24T07:59:45.710Z</time>
      </trkpt>
      <trkpt lat="38.89199" lon="40.48971">
        <ele>1126.501866</ele>
        <time>2022-02-24T07:59:58.709Z</time>
      </trkpt>
      <trkpt lat="38.89204" lon="40.48969">
        <ele>1126.712567</ele>
        <time>2022-02-24T08:00:00.046Z</time>
      </trkpt>
      <trkpt lat="38.89224" lon="40.48963">
        <ele>1127.664373</ele>
        <time>2022-02-24T08:00:06.609Z</time>
      </trkpt>
      <trkpt lat="38.89235" lon="40.48964">
        <ele>1128.213627</ele>
        <time>2022-02-24T08:00:12.088Z</time>
      </trkpt>
      <trkpt lat="38.89262" lon="40.48981">
        <ele>1129.605483</ele>
        <time>2022-02-24T08:00:24.562Z</time>
      </trkpt>
      <trkpt lat="38.89272" lon="40.48978">
        <ele>1130.074462</ele>
        <time>2022-02-24T08:00:29.940Z</time>
      </trkpt>
      <trkpt lat="38.89282" lon="40.48971">
        <ele>1130.592174</ele>
        <time>2022-02-24T08:00:35.058Z</time>
      </trkpt>
      <trkpt lat="38.89291" lon="40.48975">
        <ele>1131.005979</ele>
        <time>2022-02-24T08:00:39.223Z</time>
      </trkpt>
      <trkpt lat="38.89298" lon="40.48988">
        <ele>1131.617029</ele>
        <time>2022-02-24T08:00:46.723Z</time>
      </trkpt>
      <trkpt lat="38.893" lon="40.49055">
        <ele>1134.027248</ele>
        <time>2022-02-24T08:01:19.115Z</time>
      </trkpt>
      <trkpt lat="38.89293" lon="40.49147">
        <ele>1139.6229</ele>
        <time>2022-02-24T08:02:12.951Z</time>
      </trkpt>
      <trkpt lat="38.89299" lon="40.49166">
        <ele>1140.907364</ele>
        <time>2022-02-24T08:02:22.329Z</time>
      </trkpt>
      <trkpt lat="38.89332" lon="40.49215">
        <ele>1144.873785</ele>
        <time>2022-02-24T08:02:54.944Z</time>
      </trkpt>
      <trkpt lat="38.89344" lon="40.49224">
        <ele>1145.968555</ele>
        <time>2022-02-24T08:03:04.229Z</time>
      </trkpt>
      <trkpt lat="38.89358" lon="40.49219">
        <ele>1147.145752</ele>
        <time>2022-02-24T08:03:11.957Z</time>
      </trkpt>
      <trkpt lat="38.89365" lon="40.49205">
        <ele>1148.155637</ele>
        <time>2022-02-24T08:03:22.064Z</time>
      </trkpt>
      <trkpt lat="38.89363" lon="40.49215">
        <ele>1148.655604</ele>
        <time>2022-02-24T08:03:26.573Z</time>
      </trkpt>
      <trkpt lat="38.89359" lon="40.49236">
        <ele>1149.497611</ele>
        <time>2022-02-24T08:03:35.306Z</time>
      </trkpt>
      <trkpt lat="38.89369" lon="40.49236">
        <ele>1149.977554</ele>
        <time>2022-02-24T08:03:43.125Z</time>
      </trkpt>
      <trkpt lat="38.89373" lon="40.49166">
        <ele>1152.712634</ele>
        <time>2022-02-24T08:04:14.099Z</time>
      </trkpt>
      <trkpt lat="38.89471" lon="40.4915">
        <ele>1157.515451</ele>
        <time>2022-02-24T08:04:56.928Z</time>
      </trkpt>
      <trkpt lat="38.89512" lon="40.49144">
        <ele>1158.573988</ele>
        <time>2022-02-24T08:05:12.488Z</time>
      </trkpt>
      <trkpt lat="38.89552" lon="40.49139">
        <ele>1159.592488</ele>
        <time>2022-02-24T08:05:28.726Z</time>
      </trkpt>
      <trkpt lat="38.89559" lon="40.49138">
        <ele>1159.788012</ele>
        <time>2022-02-24T08:05:31.768Z</time>
      </trkpt>
      <trkpt lat="38.89561" lon="40.49144">
        <ele>1159.915775</ele>
        <time>2022-02-24T08:05:33.598Z</time>
      </trkpt>
      <trkpt lat="38.89564" lon="40.49149">
        <ele>1160.044191</ele>
        <time>2022-02-24T08:05:35.547Z</time>
      </trkpt>
      <trkpt lat="38.89568" lon="40.49153">
        <ele>1160.171875</ele>
        <time>2022-02-24T08:05:37.339Z</time>
      </trkpt>
      <trkpt lat="38.89572" lon="40.49155">
        <ele>1160.298409</ele>
        <time>2022-02-24T08:05:39.436Z</time>
      </trkpt>
      <trkpt lat="38.89577" lon="40.49155">
        <ele>1160.425567</ele>
        <time>2022-02-24T08:05:41.416Z</time>
      </trkpt>
      <trkpt lat="38.89582" lon="40.49153">
        <ele>1160.553882</ele>
        <time>2022-02-24T08:05:43.355Z</time>
      </trkpt>
      <trkpt lat="38.89586" lon="40.49149">
        <ele>1160.6836</ele>
        <time>2022-02-24T08:05:45.288Z</time>
      </trkpt>
      <trkpt lat="38.89589" lon="40.49144">
        <ele>1160.810374</ele>
        <time>2022-02-24T08:05:47.007Z</time>
      </trkpt>
      <trkpt lat="38.89591" lon="40.49138">
        <ele>1160.938868</ele>
        <time>2022-02-24T08:05:48.872Z</time>
      </trkpt>
      <trkpt lat="38.8959" lon="40.49131">
        <ele>1161.073661</ele>
        <time>2022-02-24T08:05:50.657Z</time>
      </trkpt>
      <trkpt lat="38.89588" lon="40.49125">
        <ele>1161.206486</ele>
        <time>2022-02-24T08:05:52.736Z</time>
      </trkpt>
      <trkpt lat="38.89583" lon="40.49103">
        <ele>1161.655098</ele>
        <time>2022-02-24T08:05:59.174Z</time>
      </trkpt>
      <trkpt lat="38.89567" lon="40.48805">
        <ele>1166.992526</ele>
        <time>2022-02-24T08:07:25.246Z</time>
      </trkpt>
      <trkpt lat="38.89564" lon="40.48763">
        <ele>1167.890184</ele>
        <time>2022-02-24T08:07:38.936Z</time>
      </trkpt>
      <trkpt lat="38.89563" lon="40.48751">
        <ele>1168.144</ele>
        <time>2022-02-24T08:07:42.695Z</time>
      </trkpt>
      <trkpt lat="38.89561" lon="40.48619">
        <ele>1170.985126</ele>
        <time>2022-02-24T08:08:24.148Z</time>
      </trkpt>
      <trkpt lat="38.89564" lon="40.48581">
        <ele>1171.930008</ele>
        <time>2022-02-24T08:08:36.478Z</time>
      </trkpt>
      <trkpt lat="38.89567" lon="40.48511">
        <ele>1173.663612</ele>
        <time>2022-02-24T08:08:59.344Z</time>
      </trkpt>
      <trkpt lat="38.89578" lon="40.48451">
        <ele>1175.188493</ele>
        <time>2022-02-24T08:09:19.557Z</time>
      </trkpt>
      <trkpt lat="38.89595" lon="40.48363">
        <ele>1177.520738</ele>
        <time>2022-02-24T08:09:49.290Z</time>
      </trkpt>
      <trkpt lat="38.8962" lon="40.48265">
        <ele>1180.393773</ele>
        <time>2022-02-24T08:10:24.697Z</time>
      </trkpt>
      <trkpt lat="38.89656" lon="40.48165">
        <ele>1183.361803</ele>
        <time>2022-02-24T08:11:03.150Z</time>
      </trkpt>
      <trkpt lat="38.89697" lon="40.48077">
        <ele>1185.788409</ele>
        <time>2022-02-24T08:11:37.619Z</time>
      </trkpt>
      <trkpt lat="38.89804" lon="40.47877">
        <ele>1190.2067</ele>
        <time>2022-02-24T08:12:50.149Z</time>
      </trkpt>
      <trkpt lat="38.90108" lon="40.47358">
        <ele>1195.877072</ele>
        <time>2022-02-24T08:15:26.558Z</time>
      </trkpt>
      <trkpt lat="38.90117" lon="40.47336">
        <ele>1196.196276</ele>
        <time>2022-02-24T08:15:33.532Z</time>
      </trkpt>
      <trkpt lat="38.90121" lon="40.47333">
        <ele>1196.278413</ele>
        <time>2022-02-24T08:15:35.111Z</time>
      </trkpt>
      <trkpt lat="38.90126" lon="40.47323">
        <ele>1196.433339</ele>
        <time>2022-02-24T08:15:38.166Z</time>
      </trkpt>
      <trkpt lat="38.90126" lon="40.47317">
        <ele>1196.512048</ele>
        <time>2022-02-24T08:15:39.686Z</time>
      </trkpt>
      <trkpt lat="38.90133" lon="40.47298">
        <ele>1196.783189</ele>
        <time>2022-02-24T08:15:45.914Z</time>
      </trkpt>
      <trkpt lat="38.90182" lon="40.47135">
        <ele>1199.720434</ele>
        <time>2022-02-24T08:16:37.880Z</time>
      </trkpt>
      <trkpt lat="38.9021" lon="40.4701">
        <ele>1202.241745</ele>
        <time>2022-02-24T08:17:17.905Z</time>
      </trkpt>
      <trkpt lat="38.90336" lon="40.4618">
        <ele>1218.028019</ele>
        <time>2022-02-24T08:21:29.497Z</time>
      </trkpt>
      <trkpt lat="38.90371" lon="40.46005">
        <ele>1222.520092</ele>
        <time>2022-02-24T08:22:20.761Z</time>
      </trkpt>
      <trkpt lat="38.90467" lon="40.45621">
        <ele>1238.731481</ele>
        <time>2022-02-24T08:25:05.984Z</time>
      </trkpt>
      <trkpt lat="38.90488" lon="40.45545">
        <ele>1243.175789</ele>
        <time>2022-02-24T08:25:44.787Z</time>
      </trkpt>
      <trkpt lat="38.90506" lon="40.45496">
        <ele>1246.174351</ele>
        <time>2022-02-24T08:26:11.616Z</time>
      </trkpt>
      <trkpt lat="38.90597" lon="40.45292">
        <ele>1260.22424</ele>
        <time>2022-02-24T08:28:10.026Z</time>
      </trkpt>
      <trkpt lat="38.90664" lon="40.4513">
        <ele>1271.242938</ele>
        <time>2022-02-24T08:29:40.942Z</time>
      </trkpt>
      <trkpt lat="38.9073" lon="40.44907">
        <ele>1285.232776</ele>
        <time>2022-02-24T08:31:38.328Z</time>
      </trkpt>
      <trkpt lat="38.90839" lon="40.44679">
        <ele>1299.717558</ele>
        <time>2022-02-24T08:33:46.382Z</time>
      </trkpt>
      <trkpt lat="38.90893" lon="40.44599">
        <ele>1303.881285</ele>
        <time>2022-02-24T08:34:30.057Z</time>
      </trkpt>
      <trkpt lat="38.90922" lon="40.44568">
        <ele>1305.166466</ele>
        <time>2022-02-24T08:34:47.724Z</time>
      </trkpt>
      <trkpt lat="38.91002" lon="40.44507">
        <ele>1308.341926</ele>
        <time>2022-02-24T08:35:24.496Z</time>
      </trkpt>
      <trkpt lat="38.9108" lon="40.44427">
        <ele>1308.159886</ele>
        <time>2022-02-24T08:35:53.124Z</time>
      </trkpt>
      <trkpt lat="38.91145" lon="40.44338">
        <ele>1307.520105</ele>
        <time>2022-02-24T08:36:13.685Z</time>
      </trkpt>
      <trkpt lat="38.91185" lon="40.44261">
        <ele>1305.400634</ele>
        <time>2022-02-24T08:36:28.148Z</time>
      </trkpt>
      <trkpt lat="38.91245" lon="40.44121">
        <ele>1301.59937</ele>
        <time>2022-02-24T08:36:52.122Z</time>
      </trkpt>
      <trkpt lat="38.91293" lon="40.43992">
        <ele>1297.586244</ele>
        <time>2022-02-24T08:37:13.371Z</time>
      </trkpt>
      <trkpt lat="38.91393" lon="40.43689">
        <ele>1291.368149</ele>
        <time>2022-02-24T08:38:03.289Z</time>
      </trkpt>
      <trkpt lat="38.91476" lon="40.43511">
        <ele>1295.078173</ele>
        <time>2022-02-24T08:39:11.493Z</time>
      </trkpt>
      <trkpt lat="38.91556" lon="40.43315">
        <ele>1304.595262</ele>
        <time>2022-02-24T08:40:47.848Z</time>
      </trkpt>
      <trkpt lat="38.91619" lon="40.43202">
        <ele>1310.403293</ele>
        <time>2022-02-24T08:41:43.767Z</time>
      </trkpt>
      <trkpt lat="38.91745" lon="40.43044">
        <ele>1320.143623</ele>
        <time>2022-02-24T08:43:15.023Z</time>
      </trkpt>
      <trkpt lat="38.91788" lon="40.42969">
        <ele>1324.222144</ele>
        <time>2022-02-24T08:43:56.288Z</time>
      </trkpt>
      <trkpt lat="38.91813" lon="40.42901">
        <ele>1327.282626</ele>
        <time>2022-02-24T08:44:29.807Z</time>
      </trkpt>
      <trkpt lat="38.91861" lon="40.4272">
        <ele>1334.113767</ele>
        <time>2022-02-24T08:45:45.641Z</time>
      </trkpt>
      <trkpt lat="38.91891" lon="40.42556">
        <ele>1336.482465</ele>
        <time>2022-02-24T08:46:30.023Z</time>
      </trkpt>
      <trkpt lat="38.91898" lon="40.42496">
        <ele>1336.499356</ele>
        <time>2022-02-24T08:46:41.247Z</time>
      </trkpt>
      <trkpt lat="38.91905" lon="40.42246">
        <ele>1335.599197</ele>
        <time>2022-02-24T08:47:23.656Z</time>
      </trkpt>
      <trkpt lat="38.9191" lon="40.42157">
        <ele>1336.97151</ele>
        <time>2022-02-24T08:47:45.444Z</time>
      </trkpt>
      <trkpt lat="38.9193" lon="40.41954">
        <ele>1344.634483</ele>
        <time>2022-02-24T08:49:09.364Z</time>
      </trkpt>
      <trkpt lat="38.9193" lon="40.41868">
        <ele>1349.243147</ele>
        <time>2022-02-24T08:49:54.262Z</time>
      </trkpt>
      <trkpt lat="38.91903" lon="40.41749">
        <ele>1356.044993</ele>
        <time>2022-02-24T08:51:00.522Z</time>
      </trkpt>
      <trkpt lat="38.91836" lon="40.41593">
        <ele>1363.916088</ele>
        <time>2022-02-24T08:52:19.561Z</time>
      </trkpt>
      <trkpt lat="38.91773" lon="40.41474">
        <ele>1365.447062</ele>
        <time>2022-02-24T08:52:57.562Z</time>
      </trkpt>
      <trkpt lat="38.91668" lon="40.41333">
        <ele>1361.408605</ele>
        <time>2022-02-24T08:53:26.316Z</time>
      </trkpt>
      <trkpt lat="38.9165" lon="40.41302">
        <ele>1360.261357</ele>
        <time>2022-02-24T08:53:31.710Z</time>
      </trkpt>
      <trkpt lat="38.91634" lon="40.41261">
        <ele>1358.971769</ele>
        <time>2022-02-24T08:53:38.411Z</time>
      </trkpt>
      <trkpt lat="38.91628" lon="40.41228">
        <ele>1358.565533</ele>
        <time>2022-02-24T08:53:43.280Z</time>
      </trkpt>
      <trkpt lat="38.91629" lon="40.41193">
        <ele>1358.132775</ele>
        <time>2022-02-24T08:53:48.599Z</time>
      </trkpt>
      <trkpt lat="38.91639" lon="40.41157">
        <ele>1357.665832</ele>
        <time>2022-02-24T08:53:54.538Z</time>
      </trkpt>
      <trkpt lat="38.91721" lon="40.41012">
        <ele>1356.336008</ele>
        <time>2022-02-24T08:54:34.125Z</time>
      </trkpt>
      <trkpt lat="38.91749" lon="40.4097">
        <ele>1356.452983</ele>
        <time>2022-02-24T08:54:49.223Z</time>
      </trkpt>
      <trkpt lat="38.91762" lon="40.40936">
        <ele>1356.532392</ele>
        <time>2022-02-24T08:54:57.531Z</time>
      </trkpt>
      <trkpt lat="38.91767" lon="40.40916">
        <ele>1356.576376</ele>
        <time>2022-02-24T08:55:03.488Z</time>
      </trkpt>
      <trkpt lat="38.9177" lon="40.40905">
        <ele>1356.60202</ele>
        <time>2022-02-24T08:55:05.435Z</time>
      </trkpt>
      <trkpt lat="38.91781" lon="40.40833">
        <ele>1355.939088</ele>
        <time>2022-02-24T08:55:19.591Z</time>
      </trkpt>
      <trkpt lat="38.91783" lon="40.40651">
        <ele>1351.025086</ele>
        <time>2022-02-24T08:55:46.600Z</time>
      </trkpt>
      <trkpt lat="38.91798" lon="40.40551">
        <ele>1346.304288</ele>
        <time>2022-02-24T08:56:00.631Z</time>
      </trkpt>
      <trkpt lat="38.91839" lon="40.40463">
        <ele>1341.116605</ele>
        <time>2022-02-24T08:56:14.266Z</time>
      </trkpt>
      <trkpt lat="38.919" lon="40.4038">
        <ele>1334.568903</ele>
        <time>2022-02-24T08:56:29.404Z</time>
      </trkpt>
      <trkpt lat="38.91921" lon="40.40361">
        <ele>1332.534078</ele>
        <time>2022-02-24T08:56:33.723Z</time>
      </trkpt>
      <trkpt lat="38.91946" lon="40.40348">
        <ele>1330.38668</ele>
        <time>2022-02-24T08:56:38.282Z</time>
      </trkpt>
      <trkpt lat="38.91974" lon="40.40342">
        <ele>1328.167826</ele>
        <time>2022-02-24T08:56:42.971Z</time>
      </trkpt>
      <trkpt lat="38.91999" lon="40.40341">
        <ele>1326.237537</ele>
        <time>2022-02-24T08:56:47.059Z</time>
      </trkpt>
      <trkpt lat="38.92078" lon="40.40363">
        <ele>1320.807407</ele>
        <time>2022-02-24T08:57:00.811Z</time>
      </trkpt>
      <trkpt lat="38.92109" lon="40.40365">
        <ele>1318.89772</ele>
        <time>2022-02-24T08:57:06.148Z</time>
      </trkpt>
      <trkpt lat="38.92146" lon="40.40363">
        <ele>1316.63529</ele>
        <time>2022-02-24T08:57:12.583Z</time>
      </trkpt>
      <trkpt lat="38.92177" lon="40.40354">
        <ele>1314.66248</ele>
        <time>2022-02-24T08:57:18.301Z</time>
      </trkpt>
      <trkpt lat="38.92288" lon="40.40301">
        <ele>1310.97055</ele>
        <time>2022-02-24T08:57:41.130Z</time>
      </trkpt>
      <trkpt lat="38.92318" lon="40.40278">
        <ele>1310.123915</ele>
        <time>2022-02-24T08:57:48.950Z</time>
      </trkpt>
      <trkpt lat="38.92339" lon="40.40249">
        <ele>1309.371712</ele>
        <time>2022-02-24T08:57:56.343Z</time>
      </trkpt>
      <trkpt lat="38.92356" lon="40.40198">
        <ele>1308.815386</ele>
        <time>2022-02-24T08:58:06.708Z</time>
      </trkpt>
      <trkpt lat="38.9236" lon="40.4015">
        <ele>1308.605778</ele>
        <time>2022-02-24T08:58:16.023Z</time>
      </trkpt>
      <trkpt lat="38.92357" lon="40.40096">
        <ele>1308.366502</ele>
        <time>2022-02-24T08:58:26.960Z</time>
      </trkpt>
      <trkpt lat="38.92318" lon="40.39801">
        <ele>1306.587661</ele>
        <time>2022-02-24T08:59:23.337Z</time>
      </trkpt>
      <trkpt lat="38.92309" lon="40.39681">
        <ele>1304.346902</ele>
        <time>2022-02-24T08:59:43.308Z</time>
      </trkpt>
      <trkpt lat="38.92275" lon="40.39401">
        <ele>1296.800091</ele>
        <time>2022-02-24T09:00:25.475Z</time>
      </trkpt>
      <trkpt lat="38.92281" lon="40.39302">
        <ele>1293.738361</ele>
        <time>2022-02-24T09:00:39.561Z</time>
      </trkpt>
      <trkpt lat="38.92361" lon="40.3894">
        <ele>1285.329988</ele>
        <time>2022-02-24T09:01:35.672Z</time>
      </trkpt>
      <trkpt lat="38.92363" lon="40.38906">
        <ele>1284.878434</ele>
        <time>2022-02-24T09:01:44.470Z</time>
      </trkpt>
      <trkpt lat="38.92365" lon="40.38883">
        <ele>1284.580559</ele>
        <time>2022-02-24T09:01:51.268Z</time>
      </trkpt>
      <trkpt lat="38.92365" lon="40.38876">
        <ele>1284.497857</ele>
        <time>2022-02-24T09:01:52.782Z</time>
      </trkpt>
      <trkpt lat="38.92364" lon="40.3887">
        <ele>1284.419924</ele>
        <time>2022-02-24T09:01:54.233Z</time>
      </trkpt>
      <trkpt lat="38.92358" lon="40.38838">
        <ele>1284.947352</ele>
        <time>2022-02-24T09:02:04.787Z</time>
      </trkpt>
      <trkpt lat="38.92335" lon="40.38734">
        <ele>1287.002354</ele>
        <time>2022-02-24T09:02:40.090Z</time>
      </trkpt>
      <trkpt lat="38.92333" lon="40.38621">
        <ele>1288.769797</ele>
        <time>2022-02-24T09:03:15.335Z</time>
      </trkpt>
      <trkpt lat="38.92349" lon="40.38425">
        <ele>1288.757694</ele>
        <time>2022-02-24T09:03:52.881Z</time>
      </trkpt>
      <trkpt lat="38.92374" lon="40.38243">
        <ele>1288.338968</ele>
        <time>2022-02-24T09:04:27.095Z</time>
      </trkpt>
      <trkpt lat="38.9239" lon="40.38067">
        <ele>1290.130685</ele>
        <time>2022-02-24T09:05:09.458Z</time>
      </trkpt>
      <trkpt lat="38.92397" lon="40.38006">
        <ele>1291.142492</ele>
        <time>2022-02-24T09:05:28.515Z</time>
      </trkpt>
      <trkpt lat="38.92404" lon="40.37921">
        <ele>1293.343163</ele>
        <time>2022-02-24T09:05:58.518Z</time>
      </trkpt>
      <trkpt lat="38.92426" lon="40.37717">
        <ele>1301.66756</ele>
        <time>2022-02-24T09:07:23.826Z</time>
      </trkpt>
      <trkpt lat="38.92439" lon="40.37649">
        <ele>1304.810399</ele>
        <time>2022-02-24T09:07:53.632Z</time>
      </trkpt>
      <trkpt lat="38.9245" lon="40.37616">
        <ele>1306.395444</ele>
        <time>2022-02-24T09:08:08.781Z</time>
      </trkpt>
      <trkpt lat="38.92554" lon="40.37415">
        <ele>1316.639787</ele>
        <time>2022-02-24T09:09:50.849Z</time>
      </trkpt>
      <trkpt lat="38.92592" lon="40.3732">
        <ele>1320.905512</ele>
        <time>2022-02-24T09:10:31.812Z</time>
      </trkpt>
      <trkpt lat="38.92602" lon="40.37256">
        <ele>1322.578196</ele>
        <time>2022-02-24T09:10:55.139Z</time>
      </trkpt>
      <trkpt lat="38.92602" lon="40.37039">
        <ele>1327.66511</ele>
        <time>2022-02-24T09:12:03.557Z</time>
      </trkpt>
      <trkpt lat="38.92614" lon="40.36959">
        <ele>1329.044913</ele>
        <time>2022-02-24T09:12:26.385Z</time>
      </trkpt>
      <trkpt lat="38.92633" lon="40.36877">
        <ele>1330.486283</ele>
        <time>2022-02-24T09:12:49.915Z</time>
      </trkpt>
      <trkpt lat="38.92681" lon="40.36754">
        <ele>1333.29301</ele>
        <time>2022-02-24T09:13:29.651Z</time>
      </trkpt>
      <trkpt lat="38.9278" lon="40.36574">
        <ele>1338.70193</ele>
        <time>2022-02-24T09:14:42.317Z</time>
      </trkpt>
      <trkpt lat="38.92845" lon="40.36445">
        <ele>1343.232959</ele>
        <time>2022-02-24T09:15:36.615Z</time>
      </trkpt>
      <trkpt lat="38.92884" lon="40.3634">
        <ele>1347.183544</ele>
        <time>2022-02-24T09:16:20.779Z</time>
      </trkpt>
      <trkpt lat="38.92892" lon="40.36314">
        <ele>1348.121406</ele>
        <time>2022-02-24T09:16:30.973Z</time>
      </trkpt>
      <trkpt lat="38.92902" lon="40.36279">
        <ele>1349.39709</ele>
        <time>2022-02-24T09:16:45.311Z</time>
      </trkpt>
      <trkpt lat="38.92929" lon="40.3616">
        <ele>1352.43551</ele>
        <time>2022-02-24T09:17:30.505Z</time>
      </trkpt>
      <trkpt lat="38.93142" lon="40.35112">
        <ele>1378.021898</ele>
        <time>2022-02-24T09:23:10.194Z</time>
      </trkpt>
      <trkpt lat="38.93146" lon="40.35094">
        <ele>1378.676494</ele>
        <time>2022-02-24T09:23:16.697Z</time>
      </trkpt>
      <trkpt lat="38.93155" lon="40.35055">
        <ele>1380.092191</ele>
        <time>2022-02-24T09:23:31.319Z</time>
      </trkpt>
      <trkpt lat="38.93279" lon="40.34434">
        <ele>1404.359339</ele>
        <time>2022-02-24T09:27:39.675Z</time>
      </trkpt>
      <trkpt lat="38.9333" lon="40.34237">
        <ele>1416.140748</ele>
        <time>2022-02-24T09:29:25.446Z</time>
      </trkpt>
      <trkpt lat="38.93373" lon="40.34099">
        <ele>1424.415911</ele>
        <time>2022-02-24T09:30:41.862Z</time>
      </trkpt>
      <trkpt lat="38.9339" lon="40.34047">
        <ele>1427.496325</ele>
        <time>2022-02-24T09:31:05.766Z</time>
      </trkpt>
      <trkpt lat="38.93399" lon="40.34019">
        <ele>1428.349661</ele>
        <time>2022-02-24T09:31:18.146Z</time>
      </trkpt>
      <trkpt lat="38.93559" lon="40.33559">
        <ele>1436.788283</ele>
        <time>2022-02-24T09:33:38.090Z</time>
      </trkpt>
      <trkpt lat="38.93588" lon="40.33483">
        <ele>1437.892164</ele>
        <time>2022-02-24T09:33:59.407Z</time>
      </trkpt>
      <trkpt lat="38.93613" lon="40.33411">
        <ele>1438.939478</ele>
        <time>2022-02-24T09:34:20.700Z</time>
      </trkpt>
      <trkpt lat="38.93665" lon="40.33253">
        <ele>1442.456131</ele>
        <time>2022-02-24T09:35:12.832Z</time>
      </trkpt>
      <trkpt lat="38.93695" lon="40.33169">
        <ele>1444.501674</ele>
        <time>2022-02-24T09:35:42.376Z</time>
      </trkpt>
      <trkpt lat="38.93722" lon="40.3309">
        <ele>1446.769432</ele>
        <time>2022-02-24T09:36:11.165Z</time>
      </trkpt>
      <trkpt lat="38.9375" lon="40.32987">
        <ele>1449.613653</ele>
        <time>2022-02-24T09:36:48.172Z</time>
      </trkpt>
      <trkpt lat="38.93764" lon="40.32883">
        <ele>1452.701162</ele>
        <time>2022-02-24T09:37:24.050Z</time>
      </trkpt>
      <trkpt lat="38.93761" lon="40.32785">
        <ele>1455.604372</ele>
        <time>2022-02-24T09:37:58.133Z</time>
      </trkpt>
      <trkpt lat="38.9374" lon="40.32678">
        <ele>1459.652791</ele>
        <time>2022-02-24T09:38:38.834Z</time>
      </trkpt>
      <trkpt lat="38.93708" lon="40.32591">
        <ele>1463.494913</ele>
        <time>2022-02-24T09:39:17.572Z</time>
      </trkpt>
      <trkpt lat="38.93608" lon="40.32408">
        <ele>1473.692119</ele>
        <time>2022-02-24T09:40:55.961Z</time>
      </trkpt>
      <trkpt lat="38.93546" lon="40.32263">
        <ele>1481.336843</ele>
        <time>2022-02-24T09:42:07.782Z</time>
      </trkpt>
      <trkpt lat="38.93502" lon="40.32132">
        <ele>1487.739488</ele>
        <time>2022-02-24T09:43:06.460Z</time>
      </trkpt>
      <trkpt lat="38.9339" lon="40.31721">
        <ele>1508.571142</ele>
        <time>2022-02-24T09:46:15.632Z</time>
      </trkpt>
      <trkpt lat="38.93369" lon="40.31622">
        <ele>1514.718982</ele>
        <time>2022-02-24T09:47:06.320Z</time>
      </trkpt>
      <trkpt lat="38.93358" lon="40.31543">
        <ele>1519.709471</ele>
        <time>2022-02-24T09:47:47.930Z</time>
      </trkpt>
      <trkpt lat="38.93357" lon="40.3148">
        <ele>1523.56443</ele>
        <time>2022-02-24T09:48:20.728Z</time>
      </trkpt>
      <trkpt lat="38.93361" lon="40.31428">
        <ele>1526.867931</ele>
        <time>2022-02-24T09:48:48.514Z</time>
      </trkpt>
      <trkpt lat="38.93371" lon="40.31379">
        <ele>1529.98789</ele>
        <time>2022-02-24T09:49:14.289Z</time>
      </trkpt>
      <trkpt lat="38.93413" lon="40.31241">
        <ele>1539.100645</ele>
        <time>2022-02-24T09:50:28.422Z</time>
      </trkpt>
      <trkpt lat="38.93421" lon="40.31198">
        <ele>1541.520096</ele>
        <time>2022-02-24T09:50:49.609Z</time>
      </trkpt>
      <trkpt lat="38.93465" lon="40.30874">
        <ele>1558.955196</ele>
        <time>2022-02-24T09:53:22.798Z</time>
      </trkpt>
      <trkpt lat="38.93534" lon="40.3046">
        <ele>1578.858788</ele>
        <time>2022-02-24T09:56:21.754Z</time>
      </trkpt>
      <trkpt lat="38.93558" lon="40.30387">
        <ele>1582.695337</ele>
        <time>2022-02-24T09:56:57.417Z</time>
      </trkpt>
      <trkpt lat="38.93573" lon="40.30353">
        <ele>1584.703121</ele>
        <time>2022-02-24T09:57:15.818Z</time>
      </trkpt>
      <trkpt lat="38.93587" lon="40.30326">
        <ele>1586.605163</ele>
        <time>2022-02-24T09:57:31.213Z</time>
      </trkpt>
      <trkpt lat="38.93633" lon="40.30262">
        <ele>1591.768863</ele>
        <time>2022-02-24T09:58:14.340Z</time>
      </trkpt>
      <trkpt lat="38.93708" lon="40.30178">
        <ele>1599.305016</ele>
        <time>2022-02-24T09:59:19.328Z</time>
      </trkpt>
      <trkpt lat="38.93877" lon="40.30015">
        <ele>1614.381315</ele>
        <time>2022-02-24T10:01:31.247Z</time>
      </trkpt>
      <trkpt lat="38.94031" lon="40.29909">
        <ele>1623.792358</ele>
        <time>2022-02-24T10:03:03.290Z</time>
      </trkpt>
      <trkpt lat="38.94088" lon="40.29853">
        <ele>1626.400299</ele>
        <time>2022-02-24T10:03:34.830Z</time>
      </trkpt>
      <trkpt lat="38.94503" lon="40.29267">
        <ele>1641.194786</ele>
        <time>2022-02-24T10:07:27.188Z</time>
      </trkpt>
      <trkpt lat="38.94519" lon="40.29245">
        <ele>1641.520058</ele>
        <time>2022-02-24T10:07:35.595Z</time>
      </trkpt>
      <trkpt lat="38.94537" lon="40.29219">
        <ele>1641.894455</ele>
        <time>2022-02-24T10:07:45.052Z</time>
      </trkpt>
      <trkpt lat="38.94611" lon="40.29119">
        <ele>1643.403371</ele>
        <time>2022-02-24T10:08:20.093Z</time>
      </trkpt>
      <trkpt lat="38.94909" lon="40.28686">
        <ele>1645.871197</ele>
        <time>2022-02-24T10:10:24.667Z</time>
      </trkpt>
      <trkpt lat="38.94926" lon="40.28663">
        <ele>1646.291771</ele>
        <time>2022-02-24T10:10:33.730Z</time>
      </trkpt>
      <trkpt lat="38.94952" lon="40.28628">
        <ele>1646.943157</ele>
        <time>2022-02-24T10:10:48.619Z</time>
      </trkpt>
      <trkpt lat="38.95014" lon="40.28537">
        <ele>1650.09868</ele>
        <time>2022-02-24T10:11:31.142Z</time>
      </trkpt>
      <trkpt lat="38.95085" lon="40.2845">
        <ele>1654.236464</ele>
        <time>2022-02-24T10:12:18.108Z</time>
      </trkpt>
      <trkpt lat="38.95162" lon="40.2838">
        <ele>1659.00283</ele>
        <time>2022-02-24T10:13:04.901Z</time>
      </trkpt>
      <trkpt lat="38.95234" lon="40.28326">
        <ele>1663.362321</ele>
        <time>2022-02-24T10:13:47.229Z</time>
      </trkpt>
      <trkpt lat="38.95406" lon="40.28231">
        <ele>1675.858101</ele>
        <time>2022-02-24T10:15:38.066Z</time>
      </trkpt>
      <trkpt lat="38.9546" lon="40.28179">
        <ele>1680.609118</ele>
        <time>2022-02-24T10:16:23.189Z</time>
      </trkpt>
      <trkpt lat="38.95481" lon="40.2815">
        <ele>1682.790723</ele>
        <time>2022-02-24T10:16:43.382Z</time>
      </trkpt>
      <trkpt lat="38.95515" lon="40.28084">
        <ele>1687.095618</ele>
        <time>2022-02-24T10:17:21.521Z</time>
      </trkpt>
      <trkpt lat="38.95529" lon="40.28011">
        <ele>1690.195797</ele>
        <time>2022-02-24T10:17:53.403Z</time>
      </trkpt>
      <trkpt lat="38.95531" lon="40.27921">
        <ele>1691.638146</ele>
        <time>2022-02-24T10:18:22.794Z</time>
      </trkpt>
      <trkpt lat="38.95492" lon="40.27501">
        <ele>1694.05829</ele>
        <time>2022-02-24T10:19:46.602Z</time>
      </trkpt>
      <trkpt lat="38.9549" lon="40.27296">
        <ele>1697.411125</ele>
        <time>2022-02-24T10:20:49.970Z</time>
      </trkpt>
      <trkpt lat="38.95516" lon="40.26994">
        <ele>1704.395435</ele>
        <time>2022-02-24T10:22:33.495Z</time>
      </trkpt>
      <trkpt lat="38.95517" lon="40.26921">
        <ele>1705.768454</ele>
        <time>2022-02-24T10:22:54.019Z</time>
      </trkpt>
      <trkpt lat="38.95539" lon="40.26698">
        <ele>1706.509165</ele>
        <time>2022-02-24T10:23:40.844Z</time>
      </trkpt>
      <trkpt lat="38.95542" lon="40.26669">
        <ele>1706.525138</ele>
        <time>2022-02-24T10:23:46.310Z</time>
      </trkpt>
      <trkpt lat="38.95544" lon="40.26663">
        <ele>1706.52886</ele>
        <time>2022-02-24T10:23:47.551Z</time>
      </trkpt>
      <trkpt lat="38.95543" lon="40.26656">
        <ele>1706.534957</ele>
        <time>2022-02-24T10:23:48.764Z</time>
      </trkpt>
      <trkpt lat="38.95545" lon="40.26616">
        <ele>1706.638561</ele>
        <time>2022-02-24T10:23:56.748Z</time>
      </trkpt>
      <trkpt lat="38.9555" lon="40.26483">
        <ele>1706.973913</ele>
        <time>2022-02-24T10:24:24.428Z</time>
      </trkpt>
      <trkpt lat="38.95591" lon="40.26166">
        <ele>1709.787323</ele>
        <time>2022-02-24T10:25:48.369Z</time>
      </trkpt>
      <trkpt lat="38.95647" lon="40.25859">
        <ele>1711.551198</ele>
        <time>2022-02-24T10:27:02.906Z</time>
      </trkpt>
      <trkpt lat="38.9569" lon="40.25573">
        <ele>1713.216369</ele>
        <time>2022-02-24T10:28:03.453Z</time>
      </trkpt>
      <trkpt lat="38.95808" lon="40.24881">
        <ele>1730.621882</ele>
        <time>2022-02-24T10:32:04.821Z</time>
      </trkpt>
      <trkpt lat="38.95816" lon="40.24835">
        <ele>1731.488409</ele>
        <time>2022-02-24T10:32:17.294Z</time>
      </trkpt>
      <trkpt lat="38.95821" lon="40.24798">
        <ele>1731.385465</ele>
        <time>2022-02-24T10:32:26.154Z</time>
      </trkpt>
      <trkpt lat="38.95831" lon="40.24647">
        <ele>1730.965529</ele>
        <time>2022-02-24T10:32:54.736Z</time>
      </trkpt>
      <trkpt lat="38.95827" lon="40.24558">
        <ele>1730.228611</ele>
        <time>2022-02-24T10:33:09.229Z</time>
      </trkpt>
      <trkpt lat="38.95818" lon="40.24482">
        <ele>1729.326667</ele>
        <time>2022-02-24T10:33:22.022Z</time>
      </trkpt>
      <trkpt lat="38.9579" lon="40.24346">
        <ele>1728.141786</ele>
        <time>2022-02-24T10:33:46.876Z</time>
      </trkpt>
      <trkpt lat="38.95772" lon="40.24259">
        <ele>1728.081044</ele>
        <time>2022-02-24T10:34:04.526Z</time>
      </trkpt>
      <trkpt lat="38.95754" lon="40.24176">
        <ele>1728.022545</ele>
        <time>2022-02-24T10:34:23.354Z</time>
      </trkpt>
      <trkpt lat="38.9573" lon="40.2406">
        <ele>1729.860997</ele>
        <time>2022-02-24T10:34:54.065Z</time>
      </trkpt>
      <trkpt lat="38.95725" lon="40.24033">
        <ele>1730.347161</ele>
        <time>2022-02-24T10:35:02.288Z</time>
      </trkpt>
      <trkpt lat="38.95708" lon="40.23954">
        <ele>1731.783798</ele>
        <time>2022-02-24T10:35:28.604Z</time>
      </trkpt>
      <trkpt lat="38.95703" lon="40.2393">
        <ele>1732.419366</ele>
        <time>2022-02-24T10:35:37.153Z</time>
      </trkpt>
      <trkpt lat="38.95678" lon="40.23803">
        <ele>1737.596598</ele>
        <time>2022-02-24T10:36:27.418Z</time>
      </trkpt>
      <trkpt lat="38.95669" lon="40.23694">
        <ele>1742.12305</ele>
        <time>2022-02-24T10:37:14.581Z</time>
      </trkpt>
      <trkpt lat="38.95668" lon="40.23594">
        <ele>1747.362759</ele>
        <time>2022-02-24T10:38:00.338Z</time>
      </trkpt>
      <trkpt lat="38.95678" lon="40.23489">
        <ele>1752.937831</ele>
        <time>2022-02-24T10:38:51.454Z</time>
      </trkpt>
      <trkpt lat="38.95712" lon="40.23318">
        <ele>1760.007067</ele>
        <time>2022-02-24T10:40:08.778Z</time>
      </trkpt>
      <trkpt lat="38.95843" lon="40.22732">
        <ele>1770.006853</ele>
        <time>2022-02-24T10:43:00.862Z</time>
      </trkpt>
      <trkpt lat="38.95869" lon="40.22639">
        <ele>1770.31383</ele>
        <time>2022-02-24T10:43:20.261Z</time>
      </trkpt>
      <trkpt lat="38.95903" lon="40.22542">
        <ele>1769.770868</ele>
        <time>2022-02-24T10:43:39.388Z</time>
      </trkpt>
      <trkpt lat="38.95977" lon="40.22396">
        <ele>1767.732665</ele>
        <time>2022-02-24T10:44:08.975Z</time>
      </trkpt>
      <trkpt lat="38.96018" lon="40.22334">
        <ele>1766.075094</ele>
        <time>2022-02-24T10:44:22.027Z</time>
      </trkpt>
      <trkpt lat="38.9617" lon="40.22125">
        <ele>1759.901759</ele>
        <time>2022-02-24T10:45:05.996Z</time>
      </trkpt>
      <trkpt lat="38.96385" lon="40.21846">
        <ele>1751.316949</ele>
        <time>2022-02-24T10:46:07.256Z</time>
      </trkpt>
      <trkpt lat="38.96397" lon="40.21834">
        <ele>1750.91148</ele>
        <time>2022-02-24T10:46:10.173Z</time>
      </trkpt>
      <trkpt lat="38.96401" lon="40.21831">
        <ele>1750.779005</ele>
        <time>2022-02-24T10:46:11.201Z</time>
      </trkpt>
      <trkpt lat="38.96405" lon="40.21827">
        <ele>1750.643133</ele>
        <time>2022-02-24T10:46:12.231Z</time>
      </trkpt>
      <trkpt lat="38.96407" lon="40.21821">
        <ele>1750.50841</ele>
        <time>2022-02-24T10:46:13.248Z</time>
      </trkpt>
      <trkpt lat="38.96419" lon="40.218">
        <ele>1749.95411</ele>
        <time>2022-02-24T10:46:17.265Z</time>
      </trkpt>
      <trkpt lat="38.96524" lon="40.21636">
        <ele>1745.430223</ele>
        <time>2022-02-24T10:46:50.482Z</time>
      </trkpt>
      <trkpt lat="38.96542" lon="40.21591">
        <ele>1744.349122</ele>
        <time>2022-02-24T10:46:58.408Z</time>
      </trkpt>
      <trkpt lat="38.96558" lon="40.21529">
        <ele>1742.952593</ele>
        <time>2022-02-24T10:47:08.583Z</time>
      </trkpt>
      <trkpt lat="38.96572" lon="40.21449">
        <ele>1741.023514</ele>
        <time>2022-02-24T10:47:21.325Z</time>
      </trkpt>
      <trkpt lat="38.96574" lon="40.21397">
        <ele>1739.795141</ele>
        <time>2022-02-24T10:47:29.392Z</time>
      </trkpt>
      <trkpt lat="38.96565" lon="40.21293">
        <ele>1737.299672</ele>
        <time>2022-02-24T10:47:45.372Z</time>
      </trkpt>
      <trkpt lat="38.96555" lon="40.21242">
        <ele>1735.731373</ele>
        <time>2022-02-24T10:47:53.314Z</time>
      </trkpt>
      <trkpt lat="38.9611" lon="40.19387">
        <ele>1677.277439</ele>
        <time>2022-02-24T10:52:39.047Z</time>
      </trkpt>
      <trkpt lat="38.96065" lon="40.19277">
        <ele>1672.940907</ele>
        <time>2022-02-24T10:52:56.789Z</time>
      </trkpt>
      <trkpt lat="38.96044" lon="40.19241">
        <ele>1671.125946</ele>
        <time>2022-02-24T10:53:03.190Z</time>
      </trkpt>
      <trkpt lat="38.96001" lon="40.19194">
        <ele>1668.238416</ele>
        <time>2022-02-24T10:53:13.287Z</time>
      </trkpt>
      <trkpt lat="38.95959" lon="40.19156">
        <ele>1665.602716</ele>
        <time>2022-02-24T10:53:22.422Z</time>
      </trkpt>
      <trkpt lat="38.95797" lon="40.19042">
        <ele>1655.009007</ele>
        <time>2022-02-24T10:53:55.225Z</time>
      </trkpt>
      <trkpt lat="38.95741" lon="40.19005">
        <ele>1651.013183</ele>
        <time>2022-02-24T10:54:06.410Z</time>
      </trkpt>
      <trkpt lat="38.95559" lon="40.18885">
        <ele>1636.852488</ele>
        <time>2022-02-24T10:54:41.629Z</time>
      </trkpt>
      <trkpt lat="38.95525" lon="40.18859">
        <ele>1633.835584</ele>
        <time>2022-02-24T10:54:48.196Z</time>
      </trkpt>
      <trkpt lat="38.95479" lon="40.18824">
        <ele>1629.73979</ele>
        <time>2022-02-24T10:54:57.165Z</time>
      </trkpt>
      <trkpt lat="38.95388" lon="40.18761">
        <ele>1623.341818</ele>
        <time>2022-02-24T10:55:14.567Z</time>
      </trkpt>
      <trkpt lat="38.95293" lon="40.18694">
        <ele>1617.528195</ele>
        <time>2022-02-24T10:55:34.962Z</time>
      </trkpt>
      <trkpt lat="38.95259" lon="40.18663">
        <ele>1616.116831</ele>
        <time>2022-02-24T10:55:43.463Z</time>
      </trkpt>
      <trkpt lat="38.95226" lon="40.18611">
        <ele>1614.334361</ele>
        <time>2022-02-24T10:55:54.148Z</time>
      </trkpt>
      <trkpt lat="38.95187" lon="40.18536">
        <ele>1611.529056</ele>
        <time>2022-02-24T10:56:07.645Z</time>
      </trkpt>
      <trkpt lat="38.94984" lon="40.17878">
        <ele>1579.032385</ele>
        <time>2022-02-24T10:57:44.111Z</time>
      </trkpt>
      <trkpt lat="38.94975" lon="40.17706">
        <ele>1572.940552</ele>
        <time>2022-02-24T10:58:08.740Z</time>
      </trkpt>
      <trkpt lat="38.95013" lon="40.17333">
        <ele>1564.083591</ele>
        <time>2022-02-24T10:59:08.221Z</time>
      </trkpt>
      <trkpt lat="38.95039" lon="40.16982">
        <ele>1553.498412</ele>
        <time>2022-02-24T10:59:59.480Z</time>
      </trkpt>
      <trkpt lat="38.951" lon="40.1638">
        <ele>1535.485466</ele>
        <time>2022-02-24T11:01:29.106Z</time>
      </trkpt>
      <trkpt lat="38.95127" lon="40.16256">
        <ele>1531.529198</ele>
        <time>2022-02-24T11:01:48.201Z</time>
      </trkpt>
      <trkpt lat="38.95165" lon="40.16011">
        <ele>1523.098691</ele>
        <time>2022-02-24T11:02:24.361Z</time>
      </trkpt>
      <trkpt lat="38.95206" lon="40.15847">
        <ele>1516.451204</ele>
        <time>2022-02-24T11:02:48.643Z</time>
      </trkpt>
      <trkpt lat="38.95251" lon="40.15718">
        <ele>1510.271796</ele>
        <time>2022-02-24T11:03:08.081Z</time>
      </trkpt>
      <trkpt lat="38.95278" lon="40.1565">
        <ele>1506.905452</ele>
        <time>2022-02-24T11:03:18.605Z</time>
      </trkpt>
      <trkpt lat="38.95437" lon="40.15335">
        <ele>1489.694301</ele>
        <time>2022-02-24T11:04:10.197Z</time>
      </trkpt>
      <trkpt lat="38.95461" lon="40.15268">
        <ele>1486.227209</ele>
        <time>2022-02-24T11:04:20.327Z</time>
      </trkpt>
      <trkpt lat="38.95499" lon="40.15181">
        <ele>1480.973089</ele>
        <time>2022-02-24T11:04:33.727Z</time>
      </trkpt>
      <trkpt lat="38.95521" lon="40.15078">
        <ele>1475.191099</ele>
        <time>2022-02-24T11:04:48.043Z</time>
      </trkpt>
      <trkpt lat="38.9554" lon="40.14951">
        <ele>1467.067288</ele>
        <time>2022-02-24T11:05:05.081Z</time>
      </trkpt>
      <trkpt lat="38.95594" lon="40.14283">
        <ele>1422.184337</ele>
        <time>2022-02-24T11:06:31.900Z</time>
      </trkpt>
      <trkpt lat="38.95596" lon="40.14134">
        <ele>1412.251947</ele>
        <time>2022-02-24T11:06:51.195Z</time>
      </trkpt>
      <trkpt lat="38.95563" lon="40.13641">
        <ele>1378.435238</ele>
        <time>2022-02-24T11:07:55.279Z</time>
      </trkpt>
      <trkpt lat="38.95514" lon="40.13019">
        <ele>1330.2786</ele>
        <time>2022-02-24T11:09:14.622Z</time>
      </trkpt>
      <trkpt lat="38.95503" lon="40.1295">
        <ele>1324.687468</ele>
        <time>2022-02-24T11:09:23.565Z</time>
      </trkpt>
      <trkpt lat="38.9548" lon="40.12874">
        <ele>1318.416598</ele>
        <time>2022-02-24T11:09:33.808Z</time>
      </trkpt>
      <trkpt lat="38.95463" lon="40.12836">
        <ele>1315.022978</ele>
        <time>2022-02-24T11:09:39.395Z</time>
      </trkpt>
      <trkpt lat="38.95445" lon="40.12814">
        <ele>1312.564466</ele>
        <time>2022-02-24T11:09:43.430Z</time>
      </trkpt>
      <trkpt lat="38.95305" lon="40.12639">
        <ele>1295.738536</ele>
        <time>2022-02-24T11:10:16.021Z</time>
      </trkpt>
      <trkpt lat="38.95263" lon="40.12569">
        <ele>1290.675708</ele>
        <time>2022-02-24T11:10:27.745Z</time>
      </trkpt>
      <trkpt lat="38.95228" lon="40.12496">
        <ele>1286.013591</ele>
        <time>2022-02-24T11:10:39.364Z</time>
      </trkpt>
      <trkpt lat="38.95005" lon="40.11943">
        <ele>1253.610055</ele>
        <time>2022-02-24T11:12:03.264Z</time>
      </trkpt>
      <trkpt lat="38.94967" lon="40.11866">
        <ele>1248.697308</ele>
        <time>2022-02-24T11:12:15.448Z</time>
      </trkpt>
      <trkpt lat="38.9491" lon="40.11772">
        <ele>1242.068702</ele>
        <time>2022-02-24T11:12:31.353Z</time>
      </trkpt>
      <trkpt lat="38.94874" lon="40.11722">
        <ele>1238.15601</ele>
        <time>2022-02-24T11:12:40.387Z</time>
      </trkpt>
      <trkpt lat="38.94787" lon="40.11583">
        <ele>1227.437317</ele>
        <time>2022-02-24T11:13:03.878Z</time>
      </trkpt>
      <trkpt lat="38.94403" lon="40.11073">
        <ele>1183.73945</ele>
        <time>2022-02-24T11:14:36.155Z</time>
      </trkpt>
      <trkpt lat="38.94139" lon="40.10729">
        <ele>1174.673664</ele>
        <time>2022-02-24T11:15:52.016Z</time>
      </trkpt>
      <trkpt lat="38.93862" lon="40.1038">
        <ele>1183.170812</ele>
        <time>2022-02-24T11:18:26.210Z</time>
      </trkpt>
      <trkpt lat="38.9376" lon="40.10226">
        <ele>1189.928759</ele>
        <time>2022-02-24T11:19:51.275Z</time>
      </trkpt>
      <trkpt lat="38.93702" lon="40.10139">
        <ele>1194.007404</ele>
        <time>2022-02-24T11:20:34.582Z</time>
      </trkpt>
      <trkpt lat="38.93566" lon="40.09971">
        <ele>1196.413811</ele>
        <time>2022-02-24T11:21:35.366Z</time>
      </trkpt>
      <trkpt lat="38.93542" lon="40.0992">
        <ele>1195.708915</ele>
        <time>2022-02-24T11:21:45.888Z</time>
      </trkpt>
      <trkpt lat="38.93481" lon="40.09746">
        <ele>1193.283735</ele>
        <time>2022-02-24T11:22:17.111Z</time>
      </trkpt>
      <trkpt lat="38.93251" lon="40.09012">
        <ele>1177.978524</ele>
        <time>2022-02-24T11:24:22.868Z</time>
      </trkpt>
      <trkpt lat="38.93185" lon="40.08844">
        <ele>1173.505586</ele>
        <time>2022-02-24T11:24:51.425Z</time>
      </trkpt>
      <trkpt lat="38.93091" lon="40.08662">
        <ele>1167.819978</ele>
        <time>2022-02-24T11:25:24.021Z</time>
      </trkpt>
      <trkpt lat="38.93024" lon="40.08553">
        <ele>1164.523518</ele>
        <time>2022-02-24T11:25:45.214Z</time>
      </trkpt>
      <trkpt lat="38.92663" lon="40.0801">
        <ele>1152.286912</ele>
        <time>2022-02-24T11:27:41.595Z</time>
      </trkpt>
      <trkpt lat="38.92617" lon="40.07918">
        <ele>1150.151367</ele>
        <time>2022-02-24T11:27:58.885Z</time>
      </trkpt>
      <trkpt lat="38.9259" lon="40.07851">
        <ele>1148.66829</ele>
        <time>2022-02-24T11:28:10.708Z</time>
      </trkpt>
      <trkpt lat="38.92552" lon="40.07717">
        <ele>1145.973586</ele>
        <time>2022-02-24T11:28:33.180Z</time>
      </trkpt>
      <trkpt lat="38.92527" lon="40.07548">
        <ele>1142.964305</ele>
        <time>2022-02-24T11:29:00.858Z</time>
      </trkpt>
      <trkpt lat="38.92524" lon="40.07472">
        <ele>1141.925113</ele>
        <time>2022-02-24T11:29:13.386Z</time>
      </trkpt>
      <trkpt lat="38.92548" lon="40.0689">
        <ele>1134.165421</ele>
        <time>2022-02-24T11:30:51.818Z</time>
      </trkpt>
      <trkpt lat="38.92536" lon="40.06771">
        <ele>1132.85909</ele>
        <time>2022-02-24T11:31:12.510Z</time>
      </trkpt>
      <trkpt lat="38.92537" lon="40.06759">
        <ele>1132.7301</ele>
        <time>2022-02-24T11:31:14.547Z</time>
      </trkpt>
      <trkpt lat="38.92541" lon="40.06755">
        <ele>1132.663271</ele>
        <time>2022-02-24T11:31:15.623Z</time>
      </trkpt>
      <trkpt lat="38.92543" lon="40.0675">
        <ele>1132.601131</ele>
        <time>2022-02-24T11:31:16.623Z</time>
      </trkpt>
      <trkpt lat="38.92544" lon="40.06745">
        <ele>1132.539107</ele>
        <time>2022-02-24T11:31:17.607Z</time>
      </trkpt>
      <trkpt lat="38.92541" lon="40.06729">
        <ele>1132.358323</ele>
        <time>2022-02-24T11:31:20.527Z</time>
      </trkpt>
      <trkpt lat="38.92538" lon="40.06724">
        <ele>1132.297207</ele>
        <time>2022-02-24T11:31:21.506Z</time>
      </trkpt>
      <trkpt lat="38.92534" lon="40.06718">
        <ele>1132.206345</ele>
        <time>2022-02-24T11:31:22.971Z</time>
      </trkpt>
      <trkpt lat="38.92512" lon="40.06679">
        <ele>1131.67974</ele>
        <time>2022-02-24T11:31:31.478Z</time>
      </trkpt>
      <trkpt lat="38.92439" lon="40.06551">
        <ele>1130.124773</ele>
        <time>2022-02-24T11:31:59.084Z</time>
      </trkpt>
      <trkpt lat="38.92376" lon="40.06466">
        <ele>1129.0086</ele>
        <time>2022-02-24T11:32:19.814Z</time>
      </trkpt>
      <trkpt lat="38.92328" lon="40.0642">
        <ele>1128.326489</ele>
        <time>2022-02-24T11:32:33.231Z</time>
      </trkpt>
      <trkpt lat="38.92283" lon="40.06384">
        <ele>1127.72747</ele>
        <time>2022-02-24T11:32:45.059Z</time>
      </trkpt>
      <trkpt lat="38.92238" lon="40.06351">
        <ele>1127.355433</ele>
        <time>2022-02-24T11:32:57.453Z</time>
      </trkpt>
      <trkpt lat="38.9219" lon="40.06314">
        <ele>1127.570509</ele>
        <time>2022-02-24T11:33:11.415Z</time>
      </trkpt>
      <trkpt lat="38.9216" lon="40.06293">
        <ele>1127.699649</ele>
        <time>2022-02-24T11:33:20.529Z</time>
      </trkpt>
      <trkpt lat="38.92116" lon="40.06262">
        <ele>1127.893546</ele>
        <time>2022-02-24T11:33:35.261Z</time>
      </trkpt>
      <trkpt lat="38.92114" lon="40.0626">
        <ele>1127.903244</ele>
        <time>2022-02-24T11:33:36.349Z</time>
      </trkpt>
      <trkpt lat="38.91828" lon="40.06049">
        <ele>1136.216504</ele>
        <time>2022-02-24T11:35:43.872Z</time>
      </trkpt>
      <trkpt lat="38.91775" lon="40.06009">
        <ele>1138.288349</ele>
        <time>2022-02-24T11:36:12.251Z</time>
      </trkpt>
      <trkpt lat="38.91772" lon="40.06007">
        <ele>1138.444658</ele>
        <time>2022-02-24T11:36:14.928Z</time>
      </trkpt>
      <trkpt lat="38.9154" lon="40.05831">
        <ele>1151.436408</ele>
        <time>2022-02-24T11:38:30.369Z</time>
      </trkpt>
      <trkpt lat="38.91495" lon="40.05795">
        <ele>1153.990345</ele>
        <time>2022-02-24T11:38:56.162Z</time>
      </trkpt>
      <trkpt lat="38.91491" lon="40.05792">
        <ele>1154.247172</ele>
        <time>2022-02-24T11:38:59.440Z</time>
      </trkpt>
      <trkpt lat="38.91421" lon="40.05718">
        <ele>1158.321286</ele>
        <time>2022-02-24T11:39:43.661Z</time>
      </trkpt>
      <trkpt lat="38.91386" lon="40.05673">
        <ele>1160.465585</ele>
        <time>2022-02-24T11:40:06.900Z</time>
      </trkpt>
      <trkpt lat="38.91358" lon="40.05637">
        <ele>1162.226885</ele>
        <time>2022-02-24T11:40:25.135Z</time>
      </trkpt>
      <trkpt lat="38.9127" lon="40.05511">
        <ele>1167.182771</ele>
        <time>2022-02-24T11:41:27.052Z</time>
      </trkpt>
      <trkpt lat="38.91236" lon="40.05459">
        <ele>1169.134372</ele>
        <time>2022-02-24T11:41:49.170Z</time>
      </trkpt>
      <trkpt lat="38.91234" lon="40.05456">
        <ele>1169.251221</ele>
        <time>2022-02-24T11:41:51.052Z</time>
      </trkpt>
      <trkpt lat="38.91178" lon="40.05374">
        <ele>1170.775329</ele>
        <time>2022-02-24T11:42:22.254Z</time>
      </trkpt>
      <trkpt lat="38.91077" lon="40.05221">
        <ele>1173.081984</ele>
        <time>2022-02-24T11:43:10.187Z</time>
      </trkpt>
      <trkpt lat="38.90889" lon="40.04944">
        <ele>1178.585438</ele>
        <time>2022-02-24T11:44:50.328Z</time>
      </trkpt>
      <trkpt lat="38.90845" lon="40.04886">
        <ele>1181.361375</ele>
        <time>2022-02-24T11:45:19.526Z</time>
      </trkpt>
      <trkpt lat="38.90527" lon="40.04516">
        <ele>1206.822757</ele>
        <time>2022-02-24T11:49:20.424Z</time>
      </trkpt>
      <trkpt lat="38.9038" lon="40.04352">
        <ele>1219.073159</ele>
        <time>2022-02-24T11:51:14.267Z</time>
      </trkpt>
      <trkpt lat="38.90304" lon="40.04256">
        <ele>1224.669138</ele>
        <time>2022-02-24T11:52:12.724Z</time>
      </trkpt>
      <trkpt lat="38.89994" lon="40.03767">
        <ele>1241.369869</ele>
        <time>2022-02-24T11:55:48.121Z</time>
      </trkpt>
      <trkpt lat="38.8978" lon="40.03439">
        <ele>1226.516922</ele>
        <time>2022-02-24T11:56:48.668Z</time>
      </trkpt>
      <trkpt lat="38.89725" lon="40.03353">
        <ele>1222.326533</ele>
        <time>2022-02-24T11:57:03.867Z</time>
      </trkpt>
      <trkpt lat="38.89647" lon="40.03233">
        <ele>1216.584763</ele>
        <time>2022-02-24T11:57:26.292Z</time>
      </trkpt>
      <trkpt lat="38.89554" lon="40.03086">
        <ele>1212.63475</ele>
        <time>2022-02-24T11:57:56.438Z</time>
      </trkpt>
      <trkpt lat="38.89462" lon="40.02956">
        <ele>1208.626858</ele>
        <time>2022-02-24T11:58:25.078Z</time>
      </trkpt>
      <trkpt lat="38.89412" lon="40.02895">
        <ele>1206.558619</ele>
        <time>2022-02-24T11:58:37.955Z</time>
      </trkpt>
      <trkpt lat="38.89373" lon="40.02856">
        <ele>1204.921346</ele>
        <time>2022-02-24T11:58:46.978Z</time>
      </trkpt>
      <trkpt lat="38.89334" lon="40.02821">
        <ele>1203.304811</ele>
        <time>2022-02-24T11:58:55.821Z</time>
      </trkpt>
      <trkpt lat="38.89248" lon="40.02748">
        <ele>1200.439725</ele>
        <time>2022-02-24T11:59:16.159Z</time>
      </trkpt>
      <trkpt lat="38.89147" lon="40.02673">
        <ele>1201.399113</ele>
        <time>2022-02-24T11:59:53.132Z</time>
      </trkpt>
      <trkpt lat="38.89066" lon="40.02619">
        <ele>1202.046342</ele>
        <time>2022-02-24T12:00:30.001Z</time>
      </trkpt>
      <trkpt lat="38.89006" lon="40.02587">
        <ele>1202.414018</ele>
        <time>2022-02-24T12:00:52.786Z</time>
      </trkpt>
      <trkpt lat="38.88892" lon="40.0254">
        <ele>1200.593586</ele>
        <time>2022-02-24T12:01:18.905Z</time>
      </trkpt>
      <trkpt lat="38.88785" lon="40.0251">
        <ele>1195.468572</ele>
        <time>2022-02-24T12:01:38.436Z</time>
      </trkpt>
      <trkpt lat="38.88598" lon="40.02483">
        <ele>1184.51692</ele>
        <time>2022-02-24T12:02:11.109Z</time>
      </trkpt>
      <trkpt lat="38.88569" lon="40.0248">
        <ele>1183.554345</ele>
        <time>2022-02-24T12:02:16.415Z</time>
      </trkpt>
      <trkpt lat="38.88536" lon="40.02477">
        <ele>1183.200175</ele>
        <time>2022-02-24T12:02:22.983Z</time>
      </trkpt>
      <trkpt lat="38.88515" lon="40.02474">
        <ele>1182.970945</ele>
        <time>2022-02-24T12:02:27.654Z</time>
      </trkpt>
      <trkpt lat="38.88398" lon="40.02454">
        <ele>1181.944124</ele>
        <time>2022-02-24T12:03:00.550Z</time>
      </trkpt>
      <trkpt lat="38.88294" lon="40.02417">
        <ele>1184.155539</ele>
        <time>2022-02-24T12:03:41.807Z</time>
      </trkpt>
      <trkpt lat="38.88216" lon="40.02377">
        <ele>1185.866652</ele>
        <time>2022-02-24T12:04:13.420Z</time>
      </trkpt>
      <trkpt lat="38.88152" lon="40.02336">
        <ele>1187.351808</ele>
        <time>2022-02-24T12:04:40.665Z</time>
      </trkpt>
      <trkpt lat="38.88066" lon="40.02268">
        <ele>1189.226671</ele>
        <time>2022-02-24T12:05:16.650Z</time>
      </trkpt>
      <trkpt lat="38.88063" lon="40.02265">
        <ele>1189.245312</ele>
        <time>2022-02-24T12:05:18.481Z</time>
      </trkpt>
      <trkpt lat="38.88026" lon="40.02231">
        <ele>1189.436919</ele>
        <time>2022-02-24T12:05:32.932Z</time>
      </trkpt>
      <trkpt lat="38.87972" lon="40.02177">
        <ele>1189.730949</ele>
        <time>2022-02-24T12:05:52.894Z</time>
      </trkpt>
      <trkpt lat="38.87936" lon="40.02141">
        <ele>1189.927105</ele>
        <time>2022-02-24T12:06:04.865Z</time>
      </trkpt>
      <trkpt lat="38.87475" lon="40.01684">
        <ele>1177.132136</ele>
        <time>2022-02-24T12:08:06.439Z</time>
      </trkpt>
      <trkpt lat="38.87418" lon="40.01625">
        <ele>1174.389934</ele>
        <time>2022-02-24T12:08:19.977Z</time>
      </trkpt>
      <trkpt lat="38.87374" lon="40.01585">
        <ele>1172.340675</ele>
        <time>2022-02-24T12:08:29.933Z</time>
      </trkpt>
      <trkpt lat="38.8731" lon="40.0152">
        <ele>1169.485983</ele>
        <time>2022-02-24T12:08:45.153Z</time>
      </trkpt>
      <trkpt lat="38.87286" lon="40.01496">
        <ele>1168.428102</ele>
        <time>2022-02-24T12:08:51.059Z</time>
      </trkpt>
      <trkpt lat="38.87258" lon="40.01468">
        <ele>1167.213089</ele>
        <time>2022-02-24T12:08:58.070Z</time>
      </trkpt>
      <trkpt lat="38.87216" lon="40.01425">
        <ele>1165.443013</ele>
        <time>2022-02-24T12:09:09.196Z</time>
      </trkpt>
      <trkpt lat="38.87031" lon="40.01235">
        <ele>1158.888937</ele>
        <time>2022-02-24T12:09:57.886Z</time>
      </trkpt>
      <trkpt lat="38.87016" lon="40.01218">
        <ele>1158.096947</ele>
        <time>2022-02-24T12:10:01.801Z</time>
      </trkpt>
      <trkpt lat="38.86561" lon="40.0077">
        <ele>1135.678701</ele>
        <time>2022-02-24T12:11:49.220Z</time>
      </trkpt>
      <trkpt lat="38.86082" lon="40.00298">
        <ele>1112.703603</ele>
        <time>2022-02-24T12:13:43.094Z</time>
      </trkpt>
      <trkpt lat="38.8515" lon="39.9938">
        <ele>1105.370577</ele>
        <time>2022-02-24T12:18:33.425Z</time>
      </trkpt>
      <trkpt lat="38.84186" lon="39.98432">
        <ele>1078.209565</ele>
        <time>2022-02-24T12:22:43.458Z</time>
      </trkpt>
      <trkpt lat="38.84078" lon="39.98321">
        <ele>1076.082511</ele>
        <time>2022-02-24T12:23:14.305Z</time>
      </trkpt>
      <trkpt lat="38.83642" lon="39.97892">
        <ele>1073.788205</ele>
        <time>2022-02-24T12:25:30.927Z</time>
      </trkpt>
      <trkpt lat="38.83584" lon="39.97845">
        <ele>1074.148553</ele>
        <time>2022-02-24T12:25:50.536Z</time>
      </trkpt>
      <trkpt lat="38.83503" lon="39.97792">
        <ele>1074.623992</ele>
        <time>2022-02-24T12:26:18.787Z</time>
      </trkpt>
      <trkpt lat="38.83449" lon="39.97766">
        <ele>1074.730026</ele>
        <time>2022-02-24T12:26:37.751Z</time>
      </trkpt>
      <trkpt lat="38.83366" lon="39.97736">
        <ele>1074.889434</ele>
        <time>2022-02-24T12:27:02.199Z</time>
      </trkpt>
      <trkpt lat="38.8333" lon="39.97727">
        <ele>1074.924205</ele>
        <time>2022-02-24T12:27:10.989Z</time>
      </trkpt>
      <trkpt lat="38.83323" lon="39.97699">
        <ele>1074.369065</ele>
        <time>2022-02-24T12:27:15.812Z</time>
      </trkpt>
      <trkpt lat="38.83277" lon="39.97591">
        <ele>1071.980821</ele>
        <time>2022-02-24T12:27:35.803Z</time>
      </trkpt>
      <trkpt lat="38.83248" lon="39.9755">
        <ele>1070.91716</ele>
        <time>2022-02-24T12:27:43.965Z</time>
      </trkpt>
      <trkpt lat="38.83187" lon="39.97431">
        <ele>1067.444413</ele>
        <time>2022-02-24T12:28:05.216Z</time>
      </trkpt>
      <trkpt lat="38.83148" lon="39.97333">
        <ele>1064.673332</ele>
        <time>2022-02-24T12:28:21.947Z</time>
      </trkpt>
      <trkpt lat="38.83114" lon="39.97299">
        <ele>1064.216388</ele>
        <time>2022-02-24T12:28:30.886Z</time>
      </trkpt>
      <trkpt lat="38.83058" lon="39.97283">
        <ele>1063.629269</ele>
        <time>2022-02-24T12:28:44.033Z</time>
      </trkpt>
      <trkpt lat="38.83046" lon="39.97281">
        <ele>1063.505737</ele>
        <time>2022-02-24T12:28:46.686Z</time>
      </trkpt>
      <trkpt lat="38.83035" lon="39.97274">
        <ele>1063.379017</ele>
        <time>2022-02-24T12:28:49.915Z</time>
      </trkpt>
      <trkpt lat="38.8303" lon="39.97267">
        <ele>1063.298846</ele>
        <time>2022-02-24T12:28:52.049Z</time>
      </trkpt>
      <trkpt lat="38.83027" lon="39.97241">
        <ele>1063.092576</ele>
        <time>2022-02-24T12:28:56.985Z</time>
      </trkpt>
      <trkpt lat="38.83026" lon="39.97234">
        <ele>1063.036509</ele>
        <time>2022-02-24T12:28:58.527Z</time>
      </trkpt>
      <trkpt lat="38.83023" lon="39.97203">
        <ele>1062.84731</ele>
        <time>2022-02-24T12:29:05.263Z</time>
      </trkpt>
      <trkpt lat="38.83022" lon="39.97188">
        <ele>1063.025721</ele>
        <time>2022-02-24T12:29:08.851Z</time>
      </trkpt>
      <trkpt lat="38.83022" lon="39.9718">
        <ele>1063.119917</ele>
        <time>2022-02-24T12:29:10.960Z</time>
      </trkpt>
      <trkpt lat="38.83016" lon="39.97187">
        <ele>1063.242513</ele>
        <time>2022-02-24T12:29:13.485Z</time>
      </trkpt>
      <trkpt lat="38.82992" lon="39.97195">
        <ele>1063.610035</ele>
        <time>2022-02-24T12:29:20.998Z</time>
      </trkpt>
      <trkpt lat="38.82953" lon="39.97191">
        <ele>1064.192094</ele>
        <time>2022-02-24T12:29:34.058Z</time>
      </trkpt>
      <trkpt lat="38.82861" lon="39.97159">
        <ele>1065.721833</ele>
        <time>2022-02-24T12:30:09.547Z</time>
      </trkpt>
      <trkpt lat="38.82761" lon="39.9715">
        <ele>1068.346913</ele>
        <time>2022-02-24T12:30:48.060Z</time>
      </trkpt>
      <trkpt lat="38.82644" lon="39.97123">
        <ele>1071.639996</ele>
        <time>2022-02-24T12:31:36.467Z</time>
      </trkpt>
      <trkpt lat="38.82519" lon="39.97102">
        <ele>1075.441069</ele>
        <time>2022-02-24T12:32:28.967Z</time>
      </trkpt>
      <trkpt lat="38.82384" lon="39.9714">
        <ele>1079.2545</ele>
        <time>2022-02-24T12:33:24.486Z</time>
      </trkpt>
      <trkpt lat="38.82302" lon="39.97173">
        <ele>1081.442169</ele>
        <time>2022-02-24T12:33:57.852Z</time>
      </trkpt>
      <trkpt lat="38.82185" lon="39.97199">
        <ele>1084.104498</ele>
        <time>2022-02-24T12:34:42.224Z</time>
      </trkpt>
      <trkpt lat="38.81896" lon="39.97279">
        <ele>1089.882812</ele>
        <time>2022-02-24T12:36:29.057Z</time>
      </trkpt>
      <trkpt lat="38.81818" lon="39.97299">
        <ele>1091.327889</ele>
        <time>2022-02-24T12:36:56.629Z</time>
      </trkpt>
      <trkpt lat="38.8179" lon="39.97308">
        <ele>1091.816507</ele>
        <time>2022-02-24T12:37:06.668Z</time>
      </trkpt>
      <trkpt lat="38.8176" lon="39.9732">
        <ele>1092.314021</ele>
        <time>2022-02-24T12:37:17.308Z</time>
      </trkpt>
      <trkpt lat="38.81745" lon="39.97322">
        <ele>1092.554359</ele>
        <time>2022-02-24T12:37:22.612Z</time>
      </trkpt>
      <trkpt lat="38.81551" lon="39.97371">
        <ele>1095.697287</ele>
        <time>2022-02-24T12:38:30.644Z</time>
      </trkpt>
      <trkpt lat="38.81476" lon="39.97377">
        <ele>1096.872569</ele>
        <time>2022-02-24T12:38:55.824Z</time>
      </trkpt>
      <trkpt lat="38.81414" lon="39.97396">
        <ele>1097.928995</ele>
        <time>2022-02-24T12:39:17.882Z</time>
      </trkpt>
      <trkpt lat="38.81359" lon="39.97421">
        <ele>1098.935025</ele>
        <time>2022-02-24T12:39:38.185Z</time>
      </trkpt>
      <trkpt lat="38.81319" lon="39.97429">
        <ele>1099.644956</ele>
        <time>2022-02-24T12:39:52.761Z</time>
      </trkpt>
      <trkpt lat="38.81222" lon="39.97448">
        <ele>1101.272342</ele>
        <time>2022-02-24T12:40:27.606Z</time>
      </trkpt>
      <trkpt lat="38.81005" lon="39.97466">
        <ele>1104.223608</ele>
        <time>2022-02-24T12:41:41.279Z</time>
      </trkpt>
      <trkpt lat="38.80692" lon="39.97461">
        <ele>1105.937568</ele>
        <time>2022-02-24T12:43:11.666Z</time>
      </trkpt>
      <trkpt lat="38.79989" lon="39.97417">
        <ele>1107.130878</ele>
        <time>2022-02-24T12:46:23.824Z</time>
      </trkpt>
      <trkpt lat="38.78441" lon="39.97351">
        <ele>1110.861815</ele>
        <time>2022-02-24T12:53:48.765Z</time>
      </trkpt>
      <trkpt lat="38.77423" lon="39.9729">
        <ele>1037.462916</ele>
        <time>2022-02-24T12:56:41.649Z</time>
      </trkpt>
      <trkpt lat="38.7735" lon="39.97282">
        <ele>1032.782499</ele>
        <time>2022-02-24T12:56:54.707Z</time>
      </trkpt>
      <trkpt lat="38.77253" lon="39.97258">
        <ele>1028.731662</ele>
        <time>2022-02-24T12:57:13.094Z</time>
      </trkpt>
      <trkpt lat="38.77151" lon="39.9722">
        <ele>1025.056666</ele>
        <time>2022-02-24T12:57:34.235Z</time>
      </trkpt>
      <trkpt lat="38.7706" lon="39.97168">
        <ele>1022.890526</ele>
        <time>2022-02-24T12:57:54.787Z</time>
      </trkpt>
      <trkpt lat="38.76986" lon="39.97114">
        <ele>1021.079927</ele>
        <time>2022-02-24T12:58:12.741Z</time>
      </trkpt>
      <trkpt lat="38.76911" lon="39.97048">
        <ele>1019.602952</ele>
        <time>2022-02-24T12:58:32.298Z</time>
      </trkpt>
      <trkpt lat="38.76832" lon="39.96956">
        <ele>1017.92179</ele>
        <time>2022-02-24T12:58:56.216Z</time>
      </trkpt>
      <trkpt lat="38.76828" lon="39.96965">
        <ele>1017.815085</ele>
        <time>2022-02-24T12:58:57.992Z</time>
      </trkpt>
      <trkpt lat="38.76815" lon="39.96987">
        <ele>1017.498127</ele>
        <time>2022-02-24T12:59:03.293Z</time>
      </trkpt>
      <trkpt lat="38.76738" lon="39.9688">
        <ele>1015.878286</ele>
        <time>2022-02-24T12:59:29.775Z</time>
      </trkpt>
      <trkpt lat="38.76677" lon="39.96776">
        <ele>1013.91033</ele>
        <time>2022-02-24T12:59:52.529Z</time>
      </trkpt>
      <trkpt lat="38.76621" lon="39.96673">
        <ele>1011.910044</ele>
        <time>2022-02-24T13:00:13.890Z</time>
      </trkpt>
      <trkpt lat="38.76646" lon="39.96646">
        <ele>1011.085846</ele>
        <time>2022-02-24T13:00:21.005Z</time>
      </trkpt>
      <trkpt lat="38.76654" lon="39.9664">
        <ele>1010.857729</ele>
        <time>2022-02-24T13:00:23.014Z</time>
      </trkpt>
      <trkpt lat="38.76" lon="39.95288">
        <ele>979.998602</ele>
        <time>2022-02-24T13:04:35.348Z</time>
      </trkpt>
      <trkpt lat="38.75485" lon="39.94234">
        <ele>962.55938</ele>
        <time>2022-02-24T13:08:03.325Z</time>
      </trkpt>
      <trkpt lat="38.75141" lon="39.93532">
        <ele>955.787593</ele>
        <time>2022-02-24T13:10:33.246Z</time>
      </trkpt>
      <trkpt lat="38.74131" lon="39.91465">
        <ele>936.269789</ele>
        <time>2022-02-24T13:17:52.764Z</time>
      </trkpt>
      <trkpt lat="38.73886" lon="39.90964">
        <ele>931.059203</ele>
        <time>2022-02-24T13:19:35.444Z</time>
      </trkpt>
      <trkpt lat="38.73109" lon="39.89376">
        <ele>934.736863</ele>
        <time>2022-02-24T13:26:26.402Z</time>
      </trkpt>
      <trkpt lat="38.72916" lon="39.88983">
        <ele>937.910078</ele>
        <time>2022-02-24T13:28:21.255Z</time>
      </trkpt>
      <trkpt lat="38.7277" lon="39.88685">
        <ele>939.153672</ele>
        <time>2022-02-24T13:29:39.881Z</time>
      </trkpt>
      <trkpt lat="38.72724" lon="39.8859">
        <ele>938.834564</ele>
        <time>2022-02-24T13:30:02.381Z</time>
      </trkpt>
      <trkpt lat="38.72674" lon="39.88488">
        <ele>938.477663</ele>
        <time>2022-02-24T13:30:25.141Z</time>
      </trkpt>
      <trkpt lat="38.72619" lon="39.88367">
        <ele>937.84224</ele>
        <time>2022-02-24T13:30:51.216Z</time>
      </trkpt>
      <trkpt lat="38.72593" lon="39.88294">
        <ele>937.47486</ele>
        <time>2022-02-24T13:31:06.647Z</time>
      </trkpt>
      <trkpt lat="38.7257" lon="39.88228">
        <ele>937.49649</ele>
        <time>2022-02-24T13:31:21.185Z</time>
      </trkpt>
      <trkpt lat="38.72549" lon="39.88185">
        <ele>937.554181</ele>
        <time>2022-02-24T13:31:31.888Z</time>
      </trkpt>
      <trkpt lat="38.72545" lon="39.88179">
        <ele>937.562994</ele>
        <time>2022-02-24T13:31:33.564Z</time>
      </trkpt>
      <trkpt lat="38.72514" lon="39.88132">
        <ele>937.634753</ele>
        <time>2022-02-24T13:31:47.450Z</time>
      </trkpt>
      <trkpt lat="38.72481" lon="39.88077">
        <ele>937.803756</ele>
        <time>2022-02-24T13:32:03.081Z</time>
      </trkpt>
      <trkpt lat="38.72514" lon="39.88043">
        <ele>938.107715</ele>
        <time>2022-02-24T13:32:15.487Z</time>
      </trkpt>
      <trkpt lat="38.72437" lon="39.87894">
        <ele>939.188186</ele>
        <time>2022-02-24T13:32:59.822Z</time>
      </trkpt>
      <trkpt lat="38.72364" lon="39.87741">
        <ele>940.825767</ele>
        <time>2022-02-24T13:33:46.031Z</time>
      </trkpt>
      <trkpt lat="38.7229" lon="39.87589">
        <ele>943.193482</ele>
        <time>2022-02-24T13:34:36.942Z</time>
      </trkpt>
      <trkpt lat="38.72288" lon="39.87584">
        <ele>943.274348</ele>
        <time>2022-02-24T13:34:38.980Z</time>
      </trkpt>
      <trkpt lat="38.72251" lon="39.87503">
        <ele>944.564219</ele>
        <time>2022-02-24T13:35:05.733Z</time>
      </trkpt>
      <trkpt lat="38.7221" lon="39.87425">
        <ele>945.786089</ele>
        <time>2022-02-24T13:35:32.190Z</time>
      </trkpt>
      <trkpt lat="38.72235" lon="39.87395">
        <ele>946.375667</ele>
        <time>2022-02-24T13:35:44.410Z</time>
      </trkpt>
      <trkpt lat="38.72228" lon="39.87385">
        <ele>946.556533</ele>
        <time>2022-02-24T13:35:48.030Z</time>
      </trkpt>
      <trkpt lat="38.72116" lon="39.87235">
        <ele>949.721802</ele>
        <time>2022-02-24T13:36:44.262Z</time>
      </trkpt>
      <trkpt lat="38.7201" lon="39.86959">
        <ele>955.689972</ele>
        <time>2022-02-24T13:38:19.772Z</time>
      </trkpt>
      <trkpt lat="38.71901" lon="39.86676">
        <ele>961.107753</ele>
        <time>2022-02-24T13:39:51.956Z</time>
      </trkpt>
      <trkpt lat="38.71862" lon="39.86582">
        <ele>962.718451</ele>
        <time>2022-02-24T13:40:20.667Z</time>
      </trkpt>
      <trkpt lat="38.71855" lon="39.86561">
        <ele>963.066967</ele>
        <time>2022-02-24T13:40:27.172Z</time>
      </trkpt>
      <trkpt lat="38.7185" lon="39.86547">
        <ele>963.296395</ele>
        <time>2022-02-24T13:40:31.502Z</time>
      </trkpt>
      <trkpt lat="38.71826" lon="39.86483">
        <ele>964.411132</ele>
        <time>2022-02-24T13:40:52.299Z</time>
      </trkpt>
      <trkpt lat="38.71813" lon="39.86448">
        <ele>965.017155</ele>
        <time>2022-02-24T13:41:03.722Z</time>
      </trkpt>
      <trkpt lat="38.71804" lon="39.86423">
        <ele>965.454231</ele>
        <time>2022-02-24T13:41:11.969Z</time>
      </trkpt>
      <trkpt lat="38.71759" lon="39.8631">
        <ele>967.120301</ele>
        <time>2022-02-24T13:41:50.346Z</time>
      </trkpt>
      <trkpt lat="38.71696" lon="39.86148">
        <ele>967.979546</ele>
        <time>2022-02-24T13:42:34.922Z</time>
      </trkpt>
      <trkpt lat="38.71576" lon="39.86227">
        <ele>966.398097</ele>
        <time>2022-02-24T13:43:04.807Z</time>
      </trkpt>
      <trkpt lat="38.71522" lon="39.86118">
        <ele>965.724603</ele>
        <time>2022-02-24T13:43:27.205Z</time>
      </trkpt>
      <trkpt lat="38.71449" lon="39.85973">
        <ele>966.416628</ele>
        <time>2022-02-24T13:44:09.501Z</time>
      </trkpt>
      <trkpt lat="38.71382" lon="39.85839">
        <ele>968.425178</ele>
        <time>2022-02-24T13:44:55.132Z</time>
      </trkpt>
      <trkpt lat="38.7135" lon="39.85773">
        <ele>969.431023</ele>
        <time>2022-02-24T13:45:14.870Z</time>
      </trkpt>
      <trkpt lat="38.71299" lon="39.85668">
        <ele>970.866853</ele>
        <time>2022-02-24T13:45:45.952Z</time>
      </trkpt>
      <trkpt lat="38.71244" lon="39.85556">
        <ele>972.630262</ele>
        <time>2022-02-24T13:46:21.663Z</time>
      </trkpt>
      <trkpt lat="38.71192" lon="39.8545">
        <ele>975.345753</ele>
        <time>2022-02-24T13:46:59.245Z</time>
      </trkpt>
      <trkpt lat="38.71188" lon="39.8544">
        <ele>975.604953</ele>
        <time>2022-02-24T13:47:03.408Z</time>
      </trkpt>
      <trkpt lat="38.71165" lon="39.85394">
        <ele>976.797828</ele>
        <time>2022-02-24T13:47:21.904Z</time>
      </trkpt>
      <trkpt lat="38.71114" lon="39.85291">
        <ele>980.520329</ele>
        <time>2022-02-24T13:48:05.844Z</time>
      </trkpt>
      <trkpt lat="38.7117" lon="39.85222">
        <ele>983.722403</ele>
        <time>2022-02-24T13:48:43.811Z</time>
      </trkpt>
      <trkpt lat="38.71136" lon="39.85131">
        <ele>986.202059</ele>
        <time>2022-02-24T13:49:21.234Z</time>
      </trkpt>
      <trkpt lat="38.71082" lon="39.85039">
        <ele>988.751518</ele>
        <time>2022-02-24T13:49:58.471Z</time>
      </trkpt>
      <trkpt lat="38.70988" lon="39.84844">
        <ele>990.357677</ele>
        <time>2022-02-24T13:50:54.773Z</time>
      </trkpt>
      <trkpt lat="38.70914" lon="39.84692">
        <ele>989.909605</ele>
        <time>2022-02-24T13:51:29.296Z</time>
      </trkpt>
      <trkpt lat="38.70898" lon="39.84663">
        <ele>989.757284</ele>
        <time>2022-02-24T13:51:36.167Z</time>
      </trkpt>
      <trkpt lat="38.70815" lon="39.84687">
        <ele>989.990549</ele>
        <time>2022-02-24T13:51:58.712Z</time>
      </trkpt>
      <trkpt lat="38.70776" lon="39.84609">
        <ele>990.779435</ele>
        <time>2022-02-24T13:52:19.435Z</time>
      </trkpt>
      <trkpt lat="38.70673" lon="39.844">
        <ele>995.87867</ele>
        <time>2022-02-24T13:53:37.312Z</time>
      </trkpt>
      <trkpt lat="38.70654" lon="39.84355">
        <ele>997.229124</ele>
        <time>2022-02-24T13:53:56.478Z</time>
      </trkpt>
      <trkpt lat="38.70645" lon="39.84335">
        <ele>998.004883</ele>
        <time>2022-02-24T13:54:05.587Z</time>
      </trkpt>
      <trkpt lat="38.70615" lon="39.84266">
        <ele>1001.482212</ele>
        <time>2022-02-24T13:54:37.433Z</time>
      </trkpt>
      <trkpt lat="38.70584" lon="39.84154">
        <ele>1006.758457</ele>
        <time>2022-02-24T13:55:29.345Z</time>
      </trkpt>
      <trkpt lat="38.70565" lon="39.84043">
        <ele>1012.428388</ele>
        <time>2022-02-24T13:56:20.146Z</time>
      </trkpt>
      <trkpt lat="38.70558" lon="39.83897">
        <ele>1020.003719</ele>
        <time>2022-02-24T13:57:27.795Z</time>
      </trkpt>
      <trkpt lat="38.70584" lon="39.83839">
        <ele>1023.512116</ele>
        <time>2022-02-24T13:57:59.362Z</time>
      </trkpt>
      <trkpt lat="38.70607" lon="39.83802">
        <ele>1025.943724</ele>
        <time>2022-02-24T13:58:20.950Z</time>
      </trkpt>
      <trkpt lat="38.70629" lon="39.83714">
        <ele>1030.741096</ele>
        <time>2022-02-24T13:59:03.005Z</time>
      </trkpt>
      <trkpt lat="38.7064" lon="39.83653">
        <ele>1033.923722</ele>
        <time>2022-02-24T13:59:31.340Z</time>
      </trkpt>
      <trkpt lat="38.70647" lon="39.83572">
        <ele>1037.997276</ele>
        <time>2022-02-24T14:00:07.220Z</time>
      </trkpt>
      <trkpt lat="38.70645" lon="39.83488">
        <ele>1042.215881</ele>
        <time>2022-02-24T14:00:43.997Z</time>
      </trkpt>
      <trkpt lat="38.70633" lon="39.83418">
        <ele>1046.026523</ele>
        <time>2022-02-24T14:01:17.998Z</time>
      </trkpt>
      <trkpt lat="38.7061" lon="39.83335">
        <ele>1050.872122</ele>
        <time>2022-02-24T14:02:01.412Z</time>
      </trkpt>
      <trkpt lat="38.70607" lon="39.83325">
        <ele>1051.420548</ele>
        <time>2022-02-24T14:02:07.209Z</time>
      </trkpt>
      <trkpt lat="38.7059" lon="39.83277">
        <ele>1054.322868</ele>
        <time>2022-02-24T14:02:32.164Z</time>
      </trkpt>
      <trkpt lat="38.70569" lon="39.83231">
        <ele>1056.708808</ele>
        <time>2022-02-24T14:02:56.930Z</time>
      </trkpt>
      <trkpt lat="38.70464" lon="39.83067">
        <ele>1063.449124</ele>
        <time>2022-02-24T14:04:15.146Z</time>
      </trkpt>
      <trkpt lat="38.70397" lon="39.8294">
        <ele>1062.7884</ele>
        <time>2022-02-24T14:04:43.464Z</time>
      </trkpt>
      <trkpt lat="38.7036" lon="39.82909">
        <ele>1062.539796</ele>
        <time>2022-02-24T14:04:52.720Z</time>
      </trkpt>
      <trkpt lat="38.69406" lon="39.81454">
        <ele>1033.049061</ele>
        <time>2022-02-24T14:10:03.635Z</time>
      </trkpt>
      <trkpt lat="38.69276" lon="39.81255">
        <ele>1034.445407</ele>
        <time>2022-02-24T14:11:15.655Z</time>
      </trkpt>
      <trkpt lat="38.69056" lon="39.80931">
        <ele>1031.486218</ele>
        <time>2022-02-24T14:12:36.126Z</time>
      </trkpt>
      <trkpt lat="38.6832" lon="39.79816">
        <ele>978.294281</ele>
        <time>2022-02-24T14:16:04.253Z</time>
      </trkpt>
      <trkpt lat="38.68202" lon="39.79668">
        <ele>969.991501</ele>
        <time>2022-02-24T14:16:34.146Z</time>
      </trkpt>
      <trkpt lat="38.67934" lon="39.79389">
        <ele>951.756767</ele>
        <time>2022-02-24T14:17:36.138Z</time>
      </trkpt>
      <trkpt lat="38.67863" lon="39.79303">
        <ele>946.370474</ele>
        <time>2022-02-24T14:17:53.563Z</time>
      </trkpt>
      <trkpt lat="38.67811" lon="39.79214">
        <ele>941.74657</ele>
        <time>2022-02-24T14:18:08.997Z</time>
      </trkpt>
      <trkpt lat="38.67759" lon="39.79142">
        <ele>937.687241</ele>
        <time>2022-02-24T14:18:22.795Z</time>
      </trkpt>
      <trkpt lat="38.67714" lon="39.7909">
        <ele>934.689121</ele>
        <time>2022-02-24T14:18:33.796Z</time>
      </trkpt>
      <trkpt lat="38.67657" lon="39.79046">
        <ele>931.703989</ele>
        <time>2022-02-24T14:18:46.029Z</time>
      </trkpt>
      <trkpt lat="38.67479" lon="39.7896">
        <ele>923.524756</ele>
        <time>2022-02-24T14:19:21.424Z</time>
      </trkpt>
      <trkpt lat="38.67365" lon="39.78861">
        <ele>918.034102</ele>
        <time>2022-02-24T14:19:47.359Z</time>
      </trkpt>
      <trkpt lat="38.67304" lon="39.78779">
        <ele>914.670694</ele>
        <time>2022-02-24T14:20:04.276Z</time>
      </trkpt>
      <trkpt lat="38.67104" lon="39.78432">
        <ele>902.281328</ele>
        <time>2022-02-24T14:21:08.794Z</time>
      </trkpt>
      <trkpt lat="38.67021" lon="39.78346">
        <ele>897.923889</ele>
        <time>2022-02-24T14:21:28.907Z</time>
      </trkpt>
      <trkpt lat="38.66924" lon="39.78281">
        <ele>893.153265</ele>
        <time>2022-02-24T14:21:49.000Z</time>
      </trkpt>
      <trkpt lat="38.66874" lon="39.7826">
        <ele>890.754001</ele>
        <time>2022-02-24T14:21:58.706Z</time>
      </trkpt>
      <trkpt lat="38.66728" lon="39.78213">
        <ele>883.815234</ele>
        <time>2022-02-24T14:22:26.296Z</time>
      </trkpt>
      <trkpt lat="38.66681" lon="39.78189">
        <ele>881.657637</ele>
        <time>2022-02-24T14:22:35.565Z</time>
      </trkpt>
      <trkpt lat="38.66614" lon="39.78145">
        <ele>878.43611</ele>
        <time>2022-02-24T14:22:49.604Z</time>
      </trkpt>
      <trkpt lat="38.666" lon="39.78133">
        <ele>877.733875</ele>
        <time>2022-02-24T14:22:52.668Z</time>
      </trkpt>
      <trkpt lat="38.66596" lon="39.78129">
        <ele>877.527438</ele>
        <time>2022-02-24T14:22:53.624Z</time>
      </trkpt>
      <trkpt lat="38.6658" lon="39.78115">
        <ele>876.680203</ele>
        <time>2022-02-24T14:22:57.419Z</time>
      </trkpt>
      <trkpt lat="38.66496" lon="39.78025">
        <ele>873.796015</ele>
        <time>2022-02-24T14:23:18.839Z</time>
      </trkpt>
      <trkpt lat="38.66453" lon="39.7796">
        <ele>872.11515</ele>
        <time>2022-02-24T14:23:33.125Z</time>
      </trkpt>
      <trkpt lat="38.66387" lon="39.77836">
        <ele>870.838775</ele>
        <time>2022-02-24T14:24:00.306Z</time>
      </trkpt>
      <trkpt lat="38.66174" lon="39.7736">
        <ele>868.013245</ele>
        <time>2022-02-24T14:25:44.006Z</time>
      </trkpt>
      <trkpt lat="38.65919" lon="39.76802">
        <ele>864.847339</ele>
        <time>2022-02-24T14:27:47.654Z</time>
      </trkpt>
      <trkpt lat="38.65805" lon="39.76554">
        <ele>861.824075</ele>
        <time>2022-02-24T14:28:37.149Z</time>
      </trkpt>
      <trkpt lat="38.65814" lon="39.76528">
        <ele>861.507357</ele>
        <time>2022-02-24T14:28:42.220Z</time>
      </trkpt>
      <trkpt lat="38.65723" lon="39.76333">
        <ele>859.072672</ele>
        <time>2022-02-24T14:29:23.330Z</time>
      </trkpt>
      <trkpt lat="38.65659" lon="39.76191">
        <ele>857.782857</ele>
        <time>2022-02-24T14:29:54.529Z</time>
      </trkpt>
      <trkpt lat="38.65642" lon="39.76198">
        <ele>857.606075</ele>
        <time>2022-02-24T14:29:58.901Z</time>
      </trkpt>
      <trkpt lat="38.65506" lon="39.75902">
        <ele>855.639026</ele>
        <time>2022-02-24T14:31:03.697Z</time>
      </trkpt>
      <trkpt lat="38.654" lon="39.75669">
        <ele>853.846875</ele>
        <time>2022-02-24T14:31:52.382Z</time>
      </trkpt>
      <trkpt lat="38.65328" lon="39.755">
        <ele>852.936149</ele>
        <time>2022-02-24T14:32:28.789Z</time>
      </trkpt>
      <trkpt lat="38.65241" lon="39.75242">
        <ele>852.573034</ele>
        <time>2022-02-24T14:33:25.921Z</time>
      </trkpt>
      <trkpt lat="38.6521" lon="39.75105">
        <ele>852.739414</ele>
        <time>2022-02-24T14:33:56.824Z</time>
      </trkpt>
      <trkpt lat="38.65177" lon="39.74927">
        <ele>853.197023</ele>
        <time>2022-02-24T14:34:37.455Z</time>
      </trkpt>
      <trkpt lat="38.65158" lon="39.74756">
        <ele>853.602972</ele>
        <time>2022-02-24T14:35:15.604Z</time>
      </trkpt>
      <trkpt lat="38.65146" lon="39.74601">
        <ele>853.718914</ele>
        <time>2022-02-24T14:35:48.679Z</time>
      </trkpt>
      <trkpt lat="38.65132" lon="39.74229">
        <ele>853.679595</ele>
        <time>2022-02-24T14:37:05.585Z</time>
      </trkpt>
      <trkpt lat="38.65129" lon="39.74128">
        <ele>853.763385</ele>
        <time>2022-02-24T14:37:27.231Z</time>
      </trkpt>
      <trkpt lat="38.65113" lon="39.73925">
        <ele>853.805131</ele>
        <time>2022-02-24T14:38:10.302Z</time>
      </trkpt>
      <trkpt lat="38.65094" lon="39.73789">
        <ele>853.756968</ele>
        <time>2022-02-24T14:38:38.282Z</time>
      </trkpt>
      <trkpt lat="38.65067" lon="39.73654">
        <ele>853.888037</ele>
        <time>2022-02-24T14:39:07.633Z</time>
      </trkpt>
      <trkpt lat="38.65033" lon="39.73502">
        <ele>854.170771</ele>
        <time>2022-02-24T14:39:42.738Z</time>
      </trkpt>
      <trkpt lat="38.64983" lon="39.73339">
        <ele>854.570594</ele>
        <time>2022-02-24T14:40:22.035Z</time>
      </trkpt>
      <trkpt lat="38.64917" lon="39.73172">
        <ele>854.452242</ele>
        <time>2022-02-24T14:41:00.800Z</time>
      </trkpt>
      <trkpt lat="38.6471" lon="39.72732">
        <ele>851.014076</ele>
        <time>2022-02-24T14:42:35.711Z</time>
      </trkpt>
      <trkpt lat="38.64531" lon="39.72397">
        <ele>845.298066</ele>
        <time>2022-02-24T14:43:42.280Z</time>
      </trkpt>
      <trkpt lat="38.64301" lon="39.71952">
        <ele>842.990733</ele>
        <time>2022-02-24T14:45:22.106Z</time>
      </trkpt>
      <trkpt lat="38.6426" lon="39.71902">
        <ele>843.89885</ele>
        <time>2022-02-24T14:45:39.983Z</time>
      </trkpt>
      <trkpt lat="38.64093" lon="39.71589">
        <ele>852.659071</ele>
        <time>2022-02-24T14:47:45.262Z</time>
      </trkpt>
      <trkpt lat="38.64079" lon="39.71554">
        <ele>854.022805</ele>
        <time>2022-02-24T14:48:00.312Z</time>
      </trkpt>
      <trkpt lat="38.64074" lon="39.71537">
        <ele>854.636987</ele>
        <time>2022-02-24T14:48:08.954Z</time>
      </trkpt>
      <trkpt lat="38.64071" lon="39.71502">
        <ele>855.84725</ele>
        <time>2022-02-24T14:48:21.971Z</time>
      </trkpt>
      <trkpt lat="38.64078" lon="39.71453">
        <ele>857.567859</ele>
        <time>2022-02-24T14:48:42.375Z</time>
      </trkpt>
      <trkpt lat="38.64175" lon="39.71287">
        <ele>862.997499</ele>
        <time>2022-02-24T14:49:55.374Z</time>
      </trkpt>
      <trkpt lat="38.64214" lon="39.71206">
        <ele>864.663151</ele>
        <time>2022-02-24T14:50:20.446Z</time>
      </trkpt>
      <trkpt lat="38.64229" lon="39.71166">
        <ele>864.631261</ele>
        <time>2022-02-24T14:50:31.061Z</time>
      </trkpt>
      <trkpt lat="38.6446" lon="39.70561">
        <ele>863.448744</ele>
        <time>2022-02-24T14:52:43.358Z</time>
      </trkpt>
      <trkpt lat="38.64527" lon="39.70372">
        <ele>862.517756</ele>
        <time>2022-02-24T14:53:22.043Z</time>
      </trkpt>
      <trkpt lat="38.64562" lon="39.70235">
        <ele>862.365498</ele>
        <time>2022-02-24T14:53:50.589Z</time>
      </trkpt>
      <trkpt lat="38.64582" lon="39.70118">
        <ele>862.832327</ele>
        <time>2022-02-24T14:54:18.174Z</time>
      </trkpt>
      <trkpt lat="38.64591" lon="39.70067">
        <ele>863.272973</ele>
        <time>2022-02-24T14:54:31.163Z</time>
      </trkpt>
      <trkpt lat="38.64657" lon="39.69716">
        <ele>867.086886</ele>
        <time>2022-02-24T14:56:06.307Z</time>
      </trkpt>
      <trkpt lat="38.64881" lon="39.68546">
        <ele>880.582426</ele>
        <time>2022-02-24T15:01:22.820Z</time>
      </trkpt>
      <trkpt lat="38.64906" lon="39.68349">
        <ele>882.535118</ele>
        <time>2022-02-24T15:02:12.996Z</time>
      </trkpt>
      <trkpt lat="38.64912" lon="39.68154">
        <ele>884.521894</ele>
        <time>2022-02-24T15:03:01.952Z</time>
      </trkpt>
      <trkpt lat="38.64909" lon="39.67998">
        <ele>888.324433</ele>
        <time>2022-02-24T15:03:48.715Z</time>
      </trkpt>
      <trkpt lat="38.64862" lon="39.6728">
        <ele>915.055097</ele>
        <time>2022-02-24T15:08:33.430Z</time>
      </trkpt>
      <trkpt lat="38.64846" lon="39.67179">
        <ele>917.966509</ele>
        <time>2022-02-24T15:09:12.996Z</time>
      </trkpt>
      <trkpt lat="38.64807" lon="39.67061">
        <ele>920.740563</ele>
        <time>2022-02-24T15:09:54.624Z</time>
      </trkpt>
      <trkpt lat="38.64083" lon="39.65139">
        <ele>916.22313</ele>
        <time>2022-02-24T15:16:51.769Z</time>
      </trkpt>
      <trkpt lat="38.64025" lon="39.6497">
        <ele>918.885278</ele>
        <time>2022-02-24T15:17:44.588Z</time>
      </trkpt>
      <trkpt lat="38.63986" lon="39.64829">
        <ele>922.226708</ele>
        <time>2022-02-24T15:18:33.365Z</time>
      </trkpt>
      <trkpt lat="38.63953" lon="39.64685">
        <ele>925.814966</ele>
        <time>2022-02-24T15:19:22.561Z</time>
      </trkpt>
      <trkpt lat="38.6393" lon="39.64554">
        <ele>929.009557</ele>
        <time>2022-02-24T15:20:06.194Z</time>
      </trkpt>
      <trkpt lat="38.6386" lon="39.63954">
        <ele>940.991711</ele>
        <time>2022-02-24T15:23:17.340Z</time>
      </trkpt>
      <trkpt lat="38.63755" lon="39.6297">
        <ele>945.003346</ele>
        <time>2022-02-24T15:27:00.322Z</time>
      </trkpt>
      <trkpt lat="38.63664" lon="39.62181">
        <ele>934.452399</ele>
        <time>2022-02-24T15:29:13.400Z</time>
      </trkpt>
      <trkpt lat="38.63659" lon="39.62058">
        <ele>932.771317</ele>
        <time>2022-02-24T15:29:34.342Z</time>
      </trkpt>
      <trkpt lat="38.63674" lon="39.61621">
        <ele>925.9268</ele>
        <time>2022-02-24T15:30:47.770Z</time>
      </trkpt>
      <trkpt lat="38.6368" lon="39.61424">
        <ele>919.956371</ele>
        <time>2022-02-24T15:31:17.326Z</time>
      </trkpt>
      <trkpt lat="38.63704" lon="39.60592">
        <ele>887.184826</ele>
        <time>2022-02-24T15:33:14.102Z</time>
      </trkpt>
      <trkpt lat="38.63701" lon="39.60492">
        <ele>884.047686</ele>
        <time>2022-02-24T15:33:28.452Z</time>
      </trkpt>
      <trkpt lat="38.63688" lon="39.60402">
        <ele>881.178216</ele>
        <time>2022-02-24T15:33:42.159Z</time>
      </trkpt>
      <trkpt lat="38.63669" lon="39.60329">
        <ele>880.368979</ele>
        <time>2022-02-24T15:33:54.686Z</time>
      </trkpt>
      <trkpt lat="38.63637" lon="39.60244">
        <ele>879.98515</ele>
        <time>2022-02-24T15:34:12.278Z</time>
      </trkpt>
      <trkpt lat="38.63491" lon="39.59896">
        <ele>882.453595</ele>
        <time>2022-02-24T15:35:54.941Z</time>
      </trkpt>
      <trkpt lat="38.6341" lon="39.5968">
        <ele>882.125979</ele>
        <time>2022-02-24T15:36:45.889Z</time>
      </trkpt>
      <trkpt lat="38.63375" lon="39.59516">
        <ele>880.142988</ele>
        <time>2022-02-24T15:37:13.381Z</time>
      </trkpt>
      <trkpt lat="38.63358" lon="39.59398">
        <ele>878.057566</ele>
        <time>2022-02-24T15:37:32.003Z</time>
      </trkpt>
      <trkpt lat="38.63306" lon="39.57375">
        <ele>857.031352</ele>
        <time>2022-02-24T15:43:25.370Z</time>
      </trkpt>
      <trkpt lat="38.63304" lon="39.57245">
        <ele>856.651595</ele>
        <time>2022-02-24T15:43:52.288Z</time>
      </trkpt>
      <trkpt lat="38.63295" lon="39.56865">
        <ele>860.519104</ele>
        <time>2022-02-24T15:45:31.612Z</time>
      </trkpt>
      <trkpt lat="38.63286" lon="39.567">
        <ele>862.249544</ele>
        <time>2022-02-24T15:46:15.331Z</time>
      </trkpt>
      <trkpt lat="38.63269" lon="39.5655">
        <ele>863.657053</ele>
        <time>2022-02-24T15:46:53.743Z</time>
      </trkpt>
      <trkpt lat="38.63239" lon="39.56405">
        <ele>864.317506</ele>
        <time>2022-02-24T15:47:29.185Z</time>
      </trkpt>
      <trkpt lat="38.63203" lon="39.56268">
        <ele>864.325509</ele>
        <time>2022-02-24T15:47:59.115Z</time>
      </trkpt>
      <trkpt lat="38.63168" lon="39.56167">
        <ele>863.928782</ele>
        <time>2022-02-24T15:48:19.956Z</time>
      </trkpt>
      <trkpt lat="38.63123" lon="39.56054">
        <ele>863.266012</ele>
        <time>2022-02-24T15:48:43.235Z</time>
      </trkpt>
      <trkpt lat="38.6307" lon="39.5594">
        <ele>862.474234</ele>
        <time>2022-02-24T15:49:07.860Z</time>
      </trkpt>
      <trkpt lat="38.6276" lon="39.55309">
        <ele>859.43729</ele>
        <time>2022-02-24T15:51:31.517Z</time>
      </trkpt>
      <trkpt lat="38.62643" lon="39.55071">
        <ele>858.192106</ele>
        <time>2022-02-24T15:52:24.466Z</time>
      </trkpt>
      <trkpt lat="38.62338" lon="39.54448">
        <ele>855.760569</ele>
        <time>2022-02-24T15:54:48.219Z</time>
      </trkpt>
      <trkpt lat="38.62295" lon="39.54341">
        <ele>855.76582</ele>
        <time>2022-02-24T15:55:10.764Z</time>
      </trkpt>
      <trkpt lat="38.62265" lon="39.54238">
        <ele>856.924169</ele>
        <time>2022-02-24T15:55:36.831Z</time>
      </trkpt>
      <trkpt lat="38.62232" lon="39.54098">
        <ele>858.828005</ele>
        <time>2022-02-24T15:56:23.336Z</time>
      </trkpt>
      <trkpt lat="38.62219" lon="39.53966">
        <ele>861.109951</ele>
        <time>2022-02-24T15:57:05.905Z</time>
      </trkpt>
      <trkpt lat="38.62178" lon="39.53262">
        <ele>860.795645</ele>
        <time>2022-02-24T15:59:27.450Z</time>
      </trkpt>
      <trkpt lat="38.62161" lon="39.53132">
        <ele>860.292342</ele>
        <time>2022-02-24T15:59:52.506Z</time>
      </trkpt>
      <trkpt lat="38.62133" lon="39.52993">
        <ele>859.687006</ele>
        <time>2022-02-24T16:00:19.967Z</time>
      </trkpt>
      <trkpt lat="38.62101" lon="39.52867">
        <ele>859.085712</ele>
        <time>2022-02-24T16:00:45.257Z</time>
      </trkpt>
      <trkpt lat="38.62079" lon="39.52803">
        <ele>858.770043</ele>
        <time>2022-02-24T16:00:58.459Z</time>
      </trkpt>
      <trkpt lat="38.62063" lon="39.52757">
        <ele>858.549631</ele>
        <time>2022-02-24T16:01:08.046Z</time>
      </trkpt>
      <trkpt lat="38.61971" lon="39.52544">
        <ele>857.595216</ele>
        <time>2022-02-24T16:01:54.724Z</time>
      </trkpt>
      <trkpt lat="38.61911" lon="39.52438">
        <ele>857.252522</ele>
        <time>2022-02-24T16:02:20.860Z</time>
      </trkpt>
      <trkpt lat="38.61019" lon="39.50909">
        <ele>854.063865</ele>
        <time>2022-02-24T16:08:44.723Z</time>
      </trkpt>
      <trkpt lat="38.60986" lon="39.50849">
        <ele>853.887689</ele>
        <time>2022-02-24T16:08:59.074Z</time>
      </trkpt>
      <trkpt lat="38.6095" lon="39.50783">
        <ele>853.696689</ele>
        <time>2022-02-24T16:09:14.959Z</time>
      </trkpt>
      <trkpt lat="38.60941" lon="39.50765">
        <ele>853.647075</ele>
        <time>2022-02-24T16:09:19.014Z</time>
      </trkpt>
      <trkpt lat="38.60899" lon="39.50678">
        <ele>853.54231</ele>
        <time>2022-02-24T16:09:39.608Z</time>
      </trkpt>
      <trkpt lat="38.60889" lon="39.50655">
        <ele>853.533518</ele>
        <time>2022-02-24T16:09:44.936Z</time>
      </trkpt>
      <trkpt lat="38.60826" lon="39.50506">
        <ele>853.525243</ele>
        <time>2022-02-24T16:10:20.837Z</time>
      </trkpt>
      <trkpt lat="38.6023" lon="39.49001">
        <ele>855.402911</ele>
        <time>2022-02-24T16:16:21.796Z</time>
      </trkpt>
      <trkpt lat="38.59287" lon="39.46601">
        <ele>858.417757</ele>
        <time>2022-02-24T16:25:57.035Z</time>
      </trkpt>
      <trkpt lat="38.59263" lon="39.46505">
        <ele>858.384046</ele>
        <time>2022-02-24T16:26:17.953Z</time>
      </trkpt>
      <trkpt lat="38.59244" lon="39.46408">
        <ele>858.343377</ele>
        <time>2022-02-24T16:26:38.368Z</time>
      </trkpt>
      <trkpt lat="38.5923" lon="39.46302">
        <ele>858.164666</ele>
        <time>2022-02-24T16:27:00.138Z</time>
      </trkpt>
      <trkpt lat="38.5922" lon="39.46202">
        <ele>857.996635</ele>
        <time>2022-02-24T16:27:20.389Z</time>
      </trkpt>
      <trkpt lat="38.59217" lon="39.46101">
        <ele>857.864625</ele>
        <time>2022-02-24T16:27:40.282Z</time>
      </trkpt>
      <trkpt lat="38.59232" lon="39.45883">
        <ele>857.921412</ele>
        <time>2022-02-24T16:28:25.127Z</time>
      </trkpt>
      <trkpt lat="38.59248" lon="39.45791">
        <ele>858.228219</ele>
        <time>2022-02-24T16:28:46.522Z</time>
      </trkpt>
      <trkpt lat="38.59295" lon="39.45601">
        <ele>859.454536</ele>
        <time>2022-02-24T16:29:35.582Z</time>
      </trkpt>
      <trkpt lat="38.59386" lon="39.4531">
        <ele>861.497065</ele>
        <time>2022-02-24T16:30:51.475Z</time>
      </trkpt>
      <trkpt lat="38.59414" lon="39.45198">
        <ele>861.644656</ele>
        <time>2022-02-24T16:31:16.185Z</time>
      </trkpt>
      <trkpt lat="38.5943" lon="39.45113">
        <ele>861.710979</ele>
        <time>2022-02-24T16:31:33.425Z</time>
      </trkpt>
      <trkpt lat="38.59445" lon="39.44973">
        <ele>862.819483</ele>
        <time>2022-02-24T16:32:04.440Z</time>
      </trkpt>
      <trkpt lat="38.59444" lon="39.44874">
        <ele>863.832791</ele>
        <time>2022-02-24T16:32:32.160Z</time>
      </trkpt>
      <trkpt lat="38.59438" lon="39.44784">
        <ele>865.291562</ele>
        <time>2022-02-24T16:33:01.537Z</time>
      </trkpt>
      <trkpt lat="38.59427" lon="39.44697">
        <ele>866.919306</ele>
        <time>2022-02-24T16:33:30.050Z</time>
      </trkpt>
      <trkpt lat="38.5941" lon="39.44613">
        <ele>868.27242</ele>
        <time>2022-02-24T16:33:55.565Z</time>
      </trkpt>
      <trkpt lat="38.592" lon="39.4388">
        <ele>862.166139</ele>
        <time>2022-02-24T16:36:14.366Z</time>
      </trkpt>
      <trkpt lat="38.5918" lon="39.43729">
        <ele>861.011724</ele>
        <time>2022-02-24T16:36:41.908Z</time>
      </trkpt>
      <trkpt lat="38.59179" lon="39.43642">
        <ele>860.801813</ele>
        <time>2022-02-24T16:36:58.521Z</time>
      </trkpt>
      <trkpt lat="38.59179" lon="39.43625">
        <ele>860.758265</ele>
        <time>2022-02-24T16:37:02.120Z</time>
      </trkpt>
      <trkpt lat="38.5918" lon="39.43582">
        <ele>860.654137</ele>
        <time>2022-02-24T16:37:10.890Z</time>
      </trkpt>
      <trkpt lat="38.59185" lon="39.43522">
        <ele>860.512008</ele>
        <time>2022-02-24T16:37:23.850Z</time>
      </trkpt>
      <trkpt lat="38.59211" lon="39.43369">
        <ele>861.043068</ele>
        <time>2022-02-24T16:37:58.936Z</time>
      </trkpt>
      <trkpt lat="38.59283" lon="39.43057">
        <ele>862.311719</ele>
        <time>2022-02-24T16:39:13.400Z</time>
      </trkpt>
      <trkpt lat="38.59293" lon="39.42968">
        <ele>862.677806</ele>
        <time>2022-02-24T16:39:33.760Z</time>
      </trkpt>
      <trkpt lat="38.59298" lon="39.42862">
        <ele>863.112018</ele>
        <time>2022-02-24T16:39:58.127Z</time>
      </trkpt>
      <trkpt lat="38.59294" lon="39.4277">
        <ele>863.42651</ele>
        <time>2022-02-24T16:40:19.239Z</time>
      </trkpt>
      <trkpt lat="38.59281" lon="39.42679">
        <ele>863.727791</ele>
        <time>2022-02-24T16:40:39.664Z</time>
      </trkpt>
      <trkpt lat="38.59235" lon="39.42503">
        <ele>864.52464</ele>
        <time>2022-02-24T16:41:20.498Z</time>
      </trkpt>
      <trkpt lat="38.58981" lon="39.41818">
        <ele>870.976238</ele>
        <time>2022-02-24T16:44:27.442Z</time>
      </trkpt>
      <trkpt lat="38.58906" lon="39.4162">
        <ele>875.594211</ele>
        <time>2022-02-24T16:45:41.747Z</time>
      </trkpt>
      <trkpt lat="38.58879" lon="39.41536">
        <ele>876.611695</ele>
        <time>2022-02-24T16:46:08.615Z</time>
      </trkpt>
      <trkpt lat="38.58557" lon="39.40692">
        <ele>876.789666</ele>
        <time>2022-02-24T16:49:19.537Z</time>
      </trkpt>
      <trkpt lat="38.58469" lon="39.40431">
        <ele>876.709421</ele>
        <time>2022-02-24T16:50:19.813Z</time>
      </trkpt>
      <trkpt lat="38.5847" lon="39.40425">
        <ele>876.70435</ele>
        <time>2022-02-24T16:50:21.003Z</time>
      </trkpt>
      <trkpt lat="38.58469" lon="39.4042">
        <ele>876.69924</ele>
        <time>2022-02-24T16:50:22.207Z</time>
      </trkpt>
      <trkpt lat="38.58468" lon="39.40414">
        <ele>876.694136</ele>
        <time>2022-02-24T16:50:23.394Z</time>
      </trkpt>
      <trkpt lat="38.58465" lon="39.40409">
        <ele>876.688448</ele>
        <time>2022-02-24T16:50:24.709Z</time>
      </trkpt>
      <trkpt lat="38.5846" lon="39.40406">
        <ele>876.682733</ele>
        <time>2022-02-24T16:50:26.031Z</time>
      </trkpt>
      <trkpt lat="38.58415" lon="39.40299">
        <ele>876.238676</ele>
        <time>2022-02-24T16:50:50.225Z</time>
      </trkpt>
      <trkpt lat="38.58153" lon="39.39603">
        <ele>868.922448</ele>
        <time>2022-02-24T16:53:06.832Z</time>
      </trkpt>
      <trkpt lat="38.58105" lon="39.39476">
        <ele>867.111925</ele>
        <time>2022-02-24T16:53:30.450Z</time>
      </trkpt>
      <trkpt lat="38.57966" lon="39.39104">
        <ele>860.706808</ele>
        <time>2022-02-24T16:54:38.050Z</time>
      </trkpt>
      <trkpt lat="38.57936" lon="39.39006">
        <ele>859.9433</ele>
        <time>2022-02-24T16:54:56.532Z</time>
      </trkpt>
      <trkpt lat="38.57916" lon="39.38922">
        <ele>859.421677</ele>
        <time>2022-02-24T16:55:13.145Z</time>
      </trkpt>
      <trkpt lat="38.57899" lon="39.38814">
        <ele>859.352632</ele>
        <time>2022-02-24T16:55:36.454Z</time>
      </trkpt>
      <trkpt lat="38.57898" lon="39.38811">
        <ele>859.367269</ele>
        <time>2022-02-24T16:55:37.550Z</time>
      </trkpt>
      <trkpt lat="38.57885" lon="39.38701">
        <ele>859.80041</ele>
        <time>2022-02-24T16:56:03.295Z</time>
      </trkpt>
      <trkpt lat="38.57884" lon="39.38685">
        <ele>859.860934</ele>
        <time>2022-02-24T16:56:07.023Z</time>
      </trkpt>
      <trkpt lat="38.5788" lon="39.38578">
        <ele>860.29168</ele>
        <time>2022-02-24T16:56:32.557Z</time>
      </trkpt>
      <trkpt lat="38.57881" lon="39.38471">
        <ele>860.729716</ele>
        <time>2022-02-24T16:56:57.170Z</time>
      </trkpt>
      <trkpt lat="38.57882" lon="39.38463">
        <ele>860.762105</ele>
        <time>2022-02-24T16:56:58.878Z</time>
      </trkpt>
      <trkpt lat="38.57893" lon="39.38349">
        <ele>860.92719</ele>
        <time>2022-02-24T16:57:23.778Z</time>
      </trkpt>
      <trkpt lat="38.57911" lon="39.38239">
        <ele>860.879254</ele>
        <time>2022-02-24T16:57:47.311Z</time>
      </trkpt>
      <trkpt lat="38.57942" lon="39.38115">
        <ele>860.312281</ele>
        <time>2022-02-24T16:58:12.281Z</time>
      </trkpt>
      <trkpt lat="38.58016" lon="39.3787">
        <ele>858.51754</ele>
        <time>2022-02-24T16:58:59.153Z</time>
      </trkpt>
      <trkpt lat="38.58166" lon="39.37374">
        <ele>855.217804</ele>
        <time>2022-02-24T17:00:37.942Z</time>
      </trkpt>
      <trkpt lat="38.58369" lon="39.36701">
        <ele>854.093584</ele>
        <time>2022-02-24T17:03:03.969Z</time>
      </trkpt>
      <trkpt lat="38.58419" lon="39.36486">
        <ele>854.422706</ele>
        <time>2022-02-24T17:03:52.287Z</time>
      </trkpt>
      <trkpt lat="38.58465" lon="39.36252">
        <ele>855.476261</ele>
        <time>2022-02-24T17:04:47.723Z</time>
      </trkpt>
      <trkpt lat="38.58476" lon="39.36204">
        <ele>855.847149</ele>
        <time>2022-02-24T17:04:59.791Z</time>
      </trkpt>
      <trkpt lat="38.58479" lon="39.36199">
        <ele>855.895933</ele>
        <time>2022-02-24T17:05:01.208Z</time>
      </trkpt>
      <trkpt lat="38.58481" lon="39.36194">
        <ele>855.945719</ele>
        <time>2022-02-24T17:05:02.712Z</time>
      </trkpt>
      <trkpt lat="38.58482" lon="39.36188">
        <ele>855.99518</ele>
        <time>2022-02-24T17:05:04.216Z</time>
      </trkpt>
      <trkpt lat="38.58482" lon="39.36182">
        <ele>856.04242</ele>
        <time>2022-02-24T17:05:05.645Z</time>
      </trkpt>
      <trkpt lat="38.5848" lon="39.36177">
        <ele>856.089549</ele>
        <time>2022-02-24T17:05:07.076Z</time>
      </trkpt>
      <trkpt lat="38.58477" lon="39.36172">
        <ele>856.139956</ele>
        <time>2022-02-24T17:05:08.680Z</time>
      </trkpt>
      <trkpt lat="38.58463" lon="39.36167">
        <ele>856.288069</ele>
        <time>2022-02-24T17:05:13.033Z</time>
      </trkpt>
      <trkpt lat="38.58459" lon="39.36169">
        <ele>856.337961</ele>
        <time>2022-02-24T17:05:14.634Z</time>
      </trkpt>
      <trkpt lat="38.58446" lon="39.36171">
        <ele>856.466816</ele>
        <time>2022-02-24T17:05:18.534Z</time>
      </trkpt>
      <trkpt lat="38.5844" lon="39.36171">
        <ele>856.535171</ele>
        <time>2022-02-24T17:05:20.694Z</time>
      </trkpt>
      <trkpt lat="38.58432" lon="39.36169">
        <ele>856.617561</ele>
        <time>2022-02-24T17:05:23.172Z</time>
      </trkpt>
      <trkpt lat="38.58414" lon="39.36103">
        <ele>857.181021</ele>
        <time>2022-02-24T17:05:40.721Z</time>
      </trkpt>
      <trkpt lat="38.58383" lon="39.36038">
        <ele>857.942865</ele>
        <time>2022-02-24T17:06:00.518Z</time>
      </trkpt>
      <trkpt lat="38.58369" lon="39.36022">
        <ele>858.197992</ele>
        <time>2022-02-24T17:06:06.649Z</time>
      </trkpt>
      <trkpt lat="38.58313" lon="39.35988">
        <ele>859.054828</ele>
        <time>2022-02-24T17:06:27.488Z</time>
      </trkpt>
      <trkpt lat="38.58291" lon="39.35986">
        <ele>859.347627</ele>
        <time>2022-02-24T17:06:34.446Z</time>
      </trkpt>
      <trkpt lat="38.58247" lon="39.35996">
        <ele>859.984553</ele>
        <time>2022-02-24T17:06:49.954Z</time>
      </trkpt>
      <trkpt lat="38.58228" lon="39.35995">
        <ele>860.260037</ele>
        <time>2022-02-24T17:06:56.126Z</time>
      </trkpt>
      <trkpt lat="38.58185" lon="39.3597">
        <ele>860.973032</ele>
        <time>2022-02-24T17:07:12.077Z</time>
      </trkpt>
      <trkpt lat="38.58176" lon="39.35966">
        <ele>861.099904</ele>
        <time>2022-02-24T17:07:15.218Z</time>
      </trkpt>
      <trkpt lat="38.58163" lon="39.35961">
        <ele>861.313257</ele>
        <time>2022-02-24T17:07:19.891Z</time>
      </trkpt>
      <trkpt lat="38.57984" lon="39.35983">
        <ele>863.983939</ele>
        <time>2022-02-24T17:08:20.935Z</time>
      </trkpt>
      <trkpt lat="38.57961" lon="39.35983">
        <ele>864.334923</ele>
        <time>2022-02-24T17:08:29.034Z</time>
      </trkpt>
      <trkpt lat="38.57947" lon="39.35967">
        <ele>864.61302</ele>
        <time>2022-02-24T17:08:34.986Z</time>
      </trkpt>
      <trkpt lat="38.57946" lon="39.35954">
        <ele>864.7558</ele>
        <time>2022-02-24T17:08:38.522Z</time>
      </trkpt>
      <trkpt lat="38.57944" lon="39.35938">
        <ele>864.946449</ele>
        <time>2022-02-24T17:08:42.740Z</time>
      </trkpt>
      <trkpt lat="38.57943" lon="39.35739">
        <ele>866.993623</ele>
        <time>2022-02-24T17:09:34.452Z</time>
      </trkpt>
      <trkpt lat="38.57946" lon="39.35678">
        <ele>867.592472</ele>
        <time>2022-02-24T17:09:49.666Z</time>
      </trkpt>
      <trkpt lat="38.57958" lon="39.35637">
        <ele>867.941503</ele>
        <time>2022-02-24T17:10:00.665Z</time>
      </trkpt>
      <trkpt lat="38.57974" lon="39.35592">
        <ele>868.33861</ele>
        <time>2022-02-24T17:10:13.228Z</time>
      </trkpt>
      <trkpt lat="38.57972" lon="39.35557">
        <ele>868.614314</ele>
        <time>2022-02-24T17:10:21.855Z</time>
      </trkpt>
      <trkpt lat="38.5797" lon="39.35549">
        <ele>868.685537</ele>
        <time>2022-02-24T17:10:24.030Z</time>
      </trkpt>
      <trkpt lat="38.57955" lon="39.35493">
        <ele>869.155353</ele>
        <time>2022-02-24T17:10:38.477Z</time>
      </trkpt>
      <trkpt lat="38.57943" lon="39.35446">
        <ele>869.426428</ele>
        <time>2022-02-24T17:10:50.183Z</time>
      </trkpt>
      <trkpt lat="38.57929" lon="39.3543">
        <ele>869.4903</ele>
        <time>2022-02-24T17:10:56.303Z</time>
      </trkpt>
      <trkpt lat="38.57926" lon="39.35427">
        <ele>869.499213</ele>
        <time>2022-02-24T17:10:57.087Z</time>
      </trkpt>
      <trkpt lat="38.57938" lon="39.35305">
        <ele>869.81019</ele>
        <time>2022-02-24T17:11:24.484Z</time>
      </trkpt>
      <trkpt lat="38.57944" lon="39.35231">
        <ele>869.879817</ele>
        <time>2022-02-24T17:11:39.670Z</time>
      </trkpt>
      <trkpt lat="38.57944" lon="39.35224">
        <ele>869.849345</ele>
        <time>2022-02-24T17:11:41.155Z</time>
      </trkpt>
      <trkpt lat="38.57948" lon="39.35193">
        <ele>869.722758</ele>
        <time>2022-02-24T17:11:47.271Z</time>
      </trkpt>
      <trkpt lat="38.5798" lon="39.34903">
        <ele>868.182364</ele>
        <time>2022-02-24T17:12:42.397Z</time>
      </trkpt>
      <trkpt lat="38.58062" lon="39.34512">
        <ele>864.941727</ele>
        <time>2022-02-24T17:13:54.663Z</time>
      </trkpt>
      <trkpt lat="38.58106" lon="39.34238">
        <ele>863.347568</ele>
        <time>2022-02-24T17:14:46.460Z</time>
      </trkpt>
      <trkpt lat="38.58123" lon="39.34136">
        <ele>862.940265</ele>
        <time>2022-02-24T17:15:07.173Z</time>
      </trkpt>
      <trkpt lat="38.58131" lon="39.34111">
        <ele>862.903619</ele>
        <time>2022-02-24T17:15:12.558Z</time>
      </trkpt>
      <trkpt lat="38.58203" lon="39.33975">
        <ele>863.029472</ele>
        <time>2022-02-24T17:15:47.806Z</time>
      </trkpt>
      <trkpt lat="38.5825" lon="39.33915">
        <ele>863.04896</ele>
        <time>2022-02-24T17:16:06.401Z</time>
      </trkpt>
      <trkpt lat="38.58227" lon="39.33807">
        <ele>862.984022</ele>
        <time>2022-02-24T17:16:30.340Z</time>
      </trkpt>
      <trkpt lat="38.58224" lon="39.33796">
        <ele>862.977409</ele>
        <time>2022-02-24T17:16:32.497Z</time>
      </trkpt>
      <trkpt lat="38.58222" lon="39.3376">
        <ele>862.956158</ele>
        <time>2022-02-24T17:16:40.299Z</time>
      </trkpt>
      <trkpt lat="38.58222" lon="39.33757">
        <ele>862.954879</ele>
        <time>2022-02-24T17:16:40.646Z</time>
      </trkpt>
      <trkpt lat="38.58228" lon="39.33338">
        <ele>860.889402</ele>
        <time>2022-02-24T17:17:59.029Z</time>
      </trkpt>
      <trkpt lat="38.58233" lon="39.33316">
        <ele>860.772081</ele>
        <time>2022-02-24T17:18:03.335Z</time>
      </trkpt>
      <trkpt lat="38.58236" lon="39.33308">
        <ele>860.723398</ele>
        <time>2022-02-24T17:18:05.032Z</time>
      </trkpt>
      <trkpt lat="38.58245" lon="39.33281">
        <ele>860.571836</ele>
        <time>2022-02-24T17:18:10.606Z</time>
      </trkpt>
      <trkpt lat="38.58395" lon="39.32964">
        <ele>859.678244</ele>
        <time>2022-02-24T17:19:23.321Z</time>
      </trkpt>
      <trkpt lat="38.58404" lon="39.32951">
        <ele>859.664726</ele>
        <time>2022-02-24T17:19:26.965Z</time>
      </trkpt>
      <trkpt lat="38.58416" lon="39.32927">
        <ele>859.643157</ele>
        <time>2022-02-24T17:19:32.809Z</time>
      </trkpt>
      <trkpt lat="38.58432" lon="39.329">
        <ele>859.616377</ele>
        <time>2022-02-24T17:19:40.198Z</time>
      </trkpt>
      <trkpt lat="38.5849" lon="39.3286">
        <ele>859.960983</ele>
        <time>2022-02-24T17:19:58.744Z</time>
      </trkpt>
      <trkpt lat="38.58576" lon="39.32768">
        <ele>860.826588</ele>
        <time>2022-02-24T17:20:33.437Z</time>
      </trkpt>
      <trkpt lat="38.586" lon="39.32751">
        <ele>861.043516</ele>
        <time>2022-02-24T17:20:42.582Z</time>
      </trkpt>
      <trkpt lat="38.58621" lon="39.32742">
        <ele>861.229959</ele>
        <time>2022-02-24T17:20:49.717Z</time>
      </trkpt>
      <trkpt lat="38.58638" lon="39.32737">
        <ele>861.385504</ele>
        <time>2022-02-24T17:20:55.494Z</time>
      </trkpt>
      <trkpt lat="38.58659" lon="39.32732">
        <ele>861.570846</ele>
        <time>2022-02-24T17:21:02.382Z</time>
      </trkpt>
      <trkpt lat="38.58673" lon="39.32724">
        <ele>861.698804</ele>
        <time>2022-02-24T17:21:07.021Z</time>
      </trkpt>
      <trkpt lat="38.58688" lon="39.32704">
        <ele>861.886996</ele>
        <time>2022-02-24T17:21:13.839Z</time>
      </trkpt>
      <trkpt lat="38.58695" lon="39.32677">
        <ele>862.078014</ele>
        <time>2022-02-24T17:21:20.699Z</time>
      </trkpt>
      <trkpt lat="38.58708" lon="39.32628">
        <ele>862.424915</ele>
        <time>2022-02-24T17:21:32.859Z</time>
      </trkpt>
      <trkpt lat="38.58725" lon="39.3261">
        <ele>862.550428</ele>
        <time>2022-02-24T17:21:39.276Z</time>
      </trkpt>
      <trkpt lat="38.58848" lon="39.32523">
        <ele>862.794081</ele>
        <time>2022-02-24T17:22:17.506Z</time>
      </trkpt>
      <trkpt lat="38.58875" lon="39.32492">
        <ele>862.868808</ele>
        <time>2022-02-24T17:22:27.173Z</time>
      </trkpt>
      <trkpt lat="38.58899" lon="39.32451">
        <ele>863.00842</ele>
        <time>2022-02-24T17:22:38.105Z</time>
      </trkpt>
      <trkpt lat="38.5893" lon="39.32382">
        <ele>863.225182</ele>
        <time>2022-02-24T17:22:55.380Z</time>
      </trkpt>
      <trkpt lat="38.58938" lon="39.32364">
        <ele>863.282521</ele>
        <time>2022-02-24T17:23:00.204Z</time>
      </trkpt>
      <trkpt lat="38.58968" lon="39.32267">
        <ele>863.683739</ele>
        <time>2022-02-24T17:23:24.117Z</time>
      </trkpt>
      <trkpt lat="38.59014" lon="39.32085">
        <ele>864.848177</ele>
        <time>2022-02-24T17:24:09.806Z</time>
      </trkpt>
      <trkpt lat="38.59031" lon="39.31868">
        <ele>866.508092</ele>
        <time>2022-02-24T17:25:03.550Z</time>
      </trkpt>
      <trkpt lat="38.59041" lon="39.31831">
        <ele>866.782998</ele>
        <time>2022-02-24T17:25:13.233Z</time>
      </trkpt>
      <trkpt lat="38.59052" lon="39.31803">
        <ele>866.988326</ele>
        <time>2022-02-24T17:25:20.943Z</time>
      </trkpt>
      <trkpt lat="38.59067" lon="39.31782">
        <ele>867.173071</ele>
        <time>2022-02-24T17:25:27.848Z</time>
      </trkpt>
      <trkpt lat="38.59159" lon="39.31709">
        <ele>868.067717</ele>
        <time>2022-02-24T17:26:00.743Z</time>
      </trkpt>
      <trkpt lat="38.59278" lon="39.31616">
        <ele>868.903646</ele>
        <time>2022-02-24T17:26:42.023Z</time>
      </trkpt>
      <trkpt lat="38.59569" lon="39.31388">
        <ele>870.426946</ele>
        <time>2022-02-24T17:28:20.130Z</time>
      </trkpt>
      <trkpt lat="38.59584" lon="39.31377">
        <ele>870.501466</ele>
        <time>2022-02-24T17:28:24.928Z</time>
      </trkpt>
      <trkpt lat="38.59814" lon="39.31197">
        <ele>871.789381</ele>
        <time>2022-02-24T17:29:42.842Z</time>
      </trkpt>
      <trkpt lat="38.59886" lon="39.31137">
        <ele>872.31435</ele>
        <time>2022-02-24T17:30:08.563Z</time>
      </trkpt>
      <trkpt lat="38.60079" lon="39.30976">
        <ele>873.779196</ele>
        <time>2022-02-24T17:31:17.384Z</time>
      </trkpt>
      <trkpt lat="38.60096" lon="39.30961">
        <ele>873.905517</ele>
        <time>2022-02-24T17:31:23.338Z</time>
      </trkpt>
      <trkpt lat="38.60259" lon="39.30817">
        <ele>875.173669</ele>
        <time>2022-02-24T17:32:21.821Z</time>
      </trkpt>
      <trkpt lat="38.60301" lon="39.30777">
        <ele>875.586285</ele>
        <time>2022-02-24T17:32:38.067Z</time>
      </trkpt>
      <trkpt lat="38.60348" lon="39.30731">
        <ele>876.046977</ele>
        <time>2022-02-24T17:32:56.351Z</time>
      </trkpt>
      <trkpt lat="38.60553" lon="39.30535">
        <ele>877.84945</ele>
        <time>2022-02-24T17:34:13.612Z</time>
      </trkpt>
      <trkpt lat="38.60714" lon="39.30364">
        <ele>879.086558</ele>
        <time>2022-02-24T17:35:15.014Z</time>
      </trkpt>
      <trkpt lat="38.60726" lon="39.30349">
        <ele>879.179563</ele>
        <time>2022-02-24T17:35:19.733Z</time>
      </trkpt>
      <trkpt lat="38.60737" lon="39.30341">
        <ele>879.252056</ele>
        <time>2022-02-24T17:35:23.387Z</time>
      </trkpt>
      <trkpt lat="38.60746" lon="39.30335">
        <ele>879.305687</ele>
        <time>2022-02-24T17:35:26.211Z</time>
      </trkpt>
      <trkpt lat="38.60766" lon="39.30324">
        <ele>879.428953</ele>
        <time>2022-02-24T17:35:32.638Z</time>
      </trkpt>
      <trkpt lat="38.60785" lon="39.30316">
        <ele>879.542912</ele>
        <time>2022-02-24T17:35:38.802Z</time>
      </trkpt>
      <trkpt lat="38.60838" lon="39.30294">
        <ele>879.847229</ele>
        <time>2022-02-24T17:35:55.573Z</time>
      </trkpt>
      <trkpt lat="38.60848" lon="39.30291">
        <ele>879.901092</ele>
        <time>2022-02-24T17:35:58.618Z</time>
      </trkpt>
      <trkpt lat="38.60858" lon="39.30274">
        <ele>879.988339</ele>
        <time>2022-02-24T17:36:03.414Z</time>
      </trkpt>
      <trkpt lat="38.60866" lon="39.30265">
        <ele>880.048179</ele>
        <time>2022-02-24T17:36:06.703Z</time>
      </trkpt>
      <trkpt lat="38.6092" lon="39.30208">
        <ele>880.425685</ele>
        <time>2022-02-24T17:36:26.813Z</time>
      </trkpt>
      <trkpt lat="38.60941" lon="39.30182">
        <ele>880.58301</ele>
        <time>2022-02-24T17:36:35.115Z</time>
      </trkpt>
      <trkpt lat="38.60946" lon="39.30176">
        <ele>880.617718</ele>
        <time>2022-02-24T17:36:37.012Z</time>
      </trkpt>
      <trkpt lat="38.60953" lon="39.30166">
        <ele>880.672218</ele>
        <time>2022-02-24T17:36:40.146Z</time>
      </trkpt>
      <trkpt lat="38.6096" lon="39.30157">
        <ele>880.717</ele>
        <time>2022-02-24T17:36:43.055Z</time>
      </trkpt>
      <trkpt lat="38.61007" lon="39.30096">
        <ele>881.021455</ele>
        <time>2022-02-24T17:37:03.014Z</time>
      </trkpt>
      <trkpt lat="38.6103" lon="39.30065">
        <ele>881.172698</ele>
        <time>2022-02-24T17:37:12.641Z</time>
      </trkpt>
      <trkpt lat="38.61037" lon="39.30056">
        <ele>881.216654</ele>
        <time>2022-02-24T17:37:15.354Z</time>
      </trkpt>
      <trkpt lat="38.6105" lon="39.3004">
        <ele>881.297586</ele>
        <time>2022-02-24T17:37:20.344Z</time>
      </trkpt>
      <trkpt lat="38.61119" lon="39.29952">
        <ele>881.795962</ele>
        <time>2022-02-24T17:37:47.846Z</time>
      </trkpt>
      <trkpt lat="38.61206" lon="39.29841">
        <ele>882.481058</ele>
        <time>2022-02-24T17:38:24.287Z</time>
      </trkpt>
      <trkpt lat="38.61214" lon="39.29831">
        <ele>882.608914</ele>
        <time>2022-02-24T17:38:27.509Z</time>
      </trkpt>
      <trkpt lat="38.61286" lon="39.29734">
        <ele>883.849685</ele>
        <time>2022-02-24T17:39:00.569Z</time>
      </trkpt>
      <trkpt lat="38.6136" lon="39.29602">
        <ele>885.735034</ele>
        <time>2022-02-24T17:39:44.787Z</time>
      </trkpt>
      <trkpt lat="38.6149" lon="39.29325">
        <ele>889.955785</ele>
        <time>2022-02-24T17:41:13.953Z</time>
      </trkpt>
      <trkpt lat="38.61494" lon="39.29289">
        <ele>890.411463</ele>
        <time>2022-02-24T17:41:23.370Z</time>
      </trkpt>
      <trkpt lat="38.61504" lon="39.29228">
        <ele>891.003777</ele>
        <time>2022-02-24T17:41:39.711Z</time>
      </trkpt>
      <trkpt lat="38.6152" lon="39.29164">
        <ele>891.56501</ele>
        <time>2022-02-24T17:41:56.744Z</time>
      </trkpt>
      <trkpt lat="38.6153" lon="39.29137">
        <ele>891.818012</ele>
        <time>2022-02-24T17:42:04.373Z</time>
      </trkpt>
      <trkpt lat="38.6153" lon="39.29102">
        <ele>892.112094</ele>
        <time>2022-02-24T17:42:13.031Z</time>
      </trkpt>
      <trkpt lat="38.61539" lon="39.29039">
        <ele>892.652719</ele>
        <time>2022-02-24T17:42:29.403Z</time>
      </trkpt>
      <trkpt lat="38.61555" lon="39.28955">
        <ele>893.395898</ele>
        <time>2022-02-24T17:42:51.998Z</time>
      </trkpt>
      <trkpt lat="38.61562" lon="39.28883">
        <ele>894.018294</ele>
        <time>2022-02-24T17:43:10.962Z</time>
      </trkpt>
      <trkpt lat="38.61574" lon="39.28838">
        <ele>894.423653</ele>
        <time>2022-02-24T17:43:23.113Z</time>
      </trkpt>
      <trkpt lat="38.61578" lon="39.28747">
        <ele>895.071045</ele>
        <time>2022-02-24T17:43:46.175Z</time>
      </trkpt>
      <trkpt lat="38.61588" lon="39.28718">
        <ele>895.283379</ele>
        <time>2022-02-24T17:43:53.924Z</time>
      </trkpt>
      <trkpt lat="38.61585" lon="39.28642">
        <ele>895.810049</ele>
        <time>2022-02-24T17:44:13.011Z</time>
      </trkpt>
      <trkpt lat="38.61594" lon="39.28618">
        <ele>895.988503</ele>
        <time>2022-02-24T17:44:19.435Z</time>
      </trkpt>
      <trkpt lat="38.61603" lon="39.28423">
        <ele>897.310724</ele>
        <time>2022-02-24T17:45:08.221Z</time>
      </trkpt>
      <trkpt lat="38.61598" lon="39.2841">
        <ele>897.411379</ele>
        <time>2022-02-24T17:45:11.973Z</time>
      </trkpt>
      <trkpt lat="38.61598" lon="39.2834">
        <ele>897.88959</ele>
        <time>2022-02-24T17:45:29.415Z</time>
      </trkpt>
      <trkpt lat="38.61612" lon="39.28232">
        <ele>898.65375</ele>
        <time>2022-02-24T17:45:56.744Z</time>
      </trkpt>
      <trkpt lat="38.61619" lon="39.28214">
        <ele>898.798808</ele>
        <time>2022-02-24T17:46:01.913Z</time>
      </trkpt>
      <trkpt lat="38.61624" lon="39.28002">
        <ele>900.437375</ele>
        <time>2022-02-24T17:46:55.183Z</time>
      </trkpt>
      <trkpt lat="38.61633" lon="39.27909">
        <ele>901.207236</ele>
        <time>2022-02-24T17:47:19.717Z</time>
      </trkpt>
      <trkpt lat="38.61668" lon="39.27742">
        <ele>902.790783</ele>
        <time>2022-02-24T17:48:05.628Z</time>
      </trkpt>
      <trkpt lat="38.61674" lon="39.27682">
        <ele>903.302645</ele>
        <time>2022-02-24T17:48:20.991Z</time>
      </trkpt>
      <trkpt lat="38.61678" lon="39.27635">
        <ele>903.585916</ele>
        <time>2022-02-24T17:48:32.870Z</time>
      </trkpt>
      <trkpt lat="38.6168" lon="39.27577">
        <ele>903.927768</ele>
        <time>2022-02-24T17:48:47.024Z</time>
      </trkpt>
      <trkpt lat="38.61673" lon="39.27521">
        <ele>904.267225</ele>
        <time>2022-02-24T17:49:00.878Z</time>
      </trkpt>
      <trkpt lat="38.61659" lon="39.27456">
        <ele>904.687529</ele>
        <time>2022-02-24T17:49:16.623Z</time>
      </trkpt>
      <trkpt lat="38.61658" lon="39.27308">
        <ele>905.882603</ele>
        <time>2022-02-24T17:49:53.521Z</time>
      </trkpt>
      <trkpt lat="38.61669" lon="39.27146">
        <ele>907.975388</ele>
        <time>2022-02-24T17:50:38.063Z</time>
      </trkpt>
      <trkpt lat="38.61678" lon="39.27115">
        <ele>908.538565</ele>
        <time>2022-02-24T17:50:47.921Z</time>
      </trkpt>
      <trkpt lat="38.61679" lon="39.2711">
        <ele>908.625531</ele>
        <time>2022-02-24T17:50:49.536Z</time>
      </trkpt>
      <trkpt lat="38.61681" lon="39.271">
        <ele>908.79043</ele>
        <time>2022-02-24T17:50:52.564Z</time>
      </trkpt>
      <trkpt lat="38.61683" lon="39.27085">
        <ele>909.038262</ele>
        <time>2022-02-24T17:50:56.951Z</time>
      </trkpt>
      <trkpt lat="38.61681" lon="39.27065">
        <ele>909.377424</ele>
        <time>2022-02-24T17:51:03.341Z</time>
      </trkpt>
      <trkpt lat="38.617" lon="39.27052">
        <ele>909.830748</ele>
        <time>2022-02-24T17:51:11.727Z</time>
      </trkpt>
      <trkpt lat="38.61708" lon="39.27012">
        <ele>910.642306</ele>
        <time>2022-02-24T17:51:25.657Z</time>
      </trkpt>
      <trkpt lat="38.61716" lon="39.27009">
        <ele>910.916924</ele>
        <time>2022-02-24T17:51:29.513Z</time>
      </trkpt>
      <trkpt lat="38.61748" lon="39.27005">
        <ele>911.937255</ele>
        <time>2022-02-24T17:51:43.544Z</time>
      </trkpt>
      <trkpt lat="38.61759" lon="39.26947">
        <ele>913.423231</ele>
        <time>2022-02-24T17:52:03.034Z</time>
      </trkpt>
      <trkpt lat="38.61772" lon="39.26922">
        <ele>914.166517</ele>
        <time>2022-02-24T17:52:14.020Z</time>
      </trkpt>
      <trkpt lat="38.61784" lon="39.26906">
        <ele>914.746135</ele>
        <time>2022-02-24T17:52:22.229Z</time>
      </trkpt>
      <trkpt lat="38.61791" lon="39.26906">
        <ele>914.977991</ele>
        <time>2022-02-24T17:52:24.930Z</time>
      </trkpt>
      <trkpt lat="38.61805" lon="39.26906">
        <ele>915.403101</ele>
        <time>2022-02-24T17:52:31.007Z</time>
      </trkpt>
      <trkpt lat="38.6185" lon="39.26886">
        <ele>916.643533</ele>
        <time>2022-02-24T17:52:50.380Z</time>
      </trkpt>
      <trkpt lat="38.61887" lon="39.26882">
        <ele>917.445009</ele>
        <time>2022-02-24T17:53:05.452Z</time>
      </trkpt>
      <trkpt lat="38.61889" lon="39.26881">
        <ele>917.494685</ele>
        <time>2022-02-24T17:53:07.275Z</time>
      </trkpt>
      <trkpt lat="38.61899" lon="39.26875">
        <ele>917.718371</ele>
        <time>2022-02-24T17:53:10.941Z</time>
      </trkpt>
      <trkpt lat="38.61929" lon="39.26839">
        <ele>918.60529</ele>
        <time>2022-02-24T17:53:26.696Z</time>
      </trkpt>
      <trkpt lat="38.61972" lon="39.2674">
        <ele>920.117818</ele>
        <time>2022-02-24T17:53:56.652Z</time>
      </trkpt>
      <trkpt lat="38.61991" lon="39.26714">
        <ele>920.329648</ele>
        <time>2022-02-24T17:54:05.992Z</time>
      </trkpt>
      <trkpt lat="38.62018" lon="39.26692">
        <ele>920.579014</ele>
        <time>2022-02-24T17:54:15.882Z</time>
      </trkpt>
      <trkpt lat="38.62045" lon="39.26676">
        <ele>920.809424</ele>
        <time>2022-02-24T17:54:25.029Z</time>
      </trkpt>
      <trkpt lat="38.62052" lon="39.26682">
        <ele>920.870702</ele>
        <time>2022-02-24T17:54:27.286Z</time>
      </trkpt>
      <trkpt lat="38.62073" lon="39.26667">
        <ele>921.059243</ele>
        <time>2022-02-24T17:54:34.758Z</time>
      </trkpt>
      <trkpt lat="38.62096" lon="39.26654">
        <ele>921.251929</ele>
        <time>2022-02-24T17:54:42.162Z</time>
      </trkpt>
      <trkpt lat="38.6211" lon="39.26631">
        <ele>921.333454</ele>
        <time>2022-02-24T17:54:49.277Z</time>
      </trkpt>
      <trkpt lat="38.62143" lon="39.26589">
        <ele>921.429723</ele>
        <time>2022-02-24T17:55:03.189Z</time>
      </trkpt>
      <trkpt lat="38.62238" lon="39.26433">
        <ele>921.703722</ele>
        <time>2022-02-24T17:55:46.290Z</time>
      </trkpt>
      <trkpt lat="38.62263" lon="39.26388">
        <ele>921.74152</ele>
        <time>2022-02-24T17:55:58.257Z</time>
      </trkpt>
      <trkpt lat="38.6229" lon="39.26315">
        <ele>921.796269</ele>
        <time>2022-02-24T17:56:15.833Z</time>
      </trkpt>
      <trkpt lat="38.62311" lon="39.26258">
        <ele>921.907757</ele>
        <time>2022-02-24T17:56:30.202Z</time>
      </trkpt>
      <trkpt lat="38.62326" lon="39.26224">
        <ele>922.083428</ele>
        <time>2022-02-24T17:56:39.097Z</time>
      </trkpt>
      <trkpt lat="38.62339" lon="39.2621">
        <ele>922.184403</ele>
        <time>2022-02-24T17:56:44.133Z</time>
      </trkpt>
      <trkpt lat="38.62475" lon="39.26061">
        <ele>923.549184</ele>
        <time>2022-02-24T17:57:40.177Z</time>
      </trkpt>
      <trkpt lat="38.6252" lon="39.2603">
        <ele>924.12793</ele>
        <time>2022-02-24T17:57:57.396Z</time>
      </trkpt>
      <trkpt lat="38.62566" lon="39.26037">
        <ele>924.655065</ele>
        <time>2022-02-24T17:58:13.496Z</time>
      </trkpt>
      <trkpt lat="38.62641" lon="39.26013">
        <ele>925.652397</ele>
        <time>2022-02-24T17:58:40.174Z</time>
      </trkpt>
      <trkpt lat="38.62665" lon="39.26004">
        <ele>925.984519</ele>
        <time>2022-02-24T17:58:48.702Z</time>
      </trkpt>
      <trkpt lat="38.62704" lon="39.25967">
        <ele>926.649825</ele>
        <time>2022-02-24T17:59:05.469Z</time>
      </trkpt>
      <trkpt lat="38.62807" lon="39.25859">
        <ele>928.277787</ele>
        <time>2022-02-24T17:59:50.835Z</time>
      </trkpt>
      <trkpt lat="38.6283" lon="39.25849">
        <ele>928.548203</ele>
        <time>2022-02-24T17:59:58.627Z</time>
      </trkpt>
      <trkpt lat="38.62897" lon="39.25859">
        <ele>929.314772</ele>
        <time>2022-02-24T18:00:20.598Z</time>
      </trkpt>
      <trkpt lat="38.62935" lon="39.2585">
        <ele>929.723546</ele>
        <time>2022-02-24T18:00:33.258Z</time>
      </trkpt>
      <trkpt lat="38.62976" lon="39.25812">
        <ele>930.249881</ele>
        <time>2022-02-24T18:00:49.812Z</time>
      </trkpt>
      <trkpt lat="38.63036" lon="39.25708">
        <ele>931.314981</ele>
        <time>2022-02-24T18:01:22.965Z</time>
      </trkpt>
      <trkpt lat="38.63056" lon="39.25691">
        <ele>931.662596</ele>
        <time>2022-02-24T18:01:30.997Z</time>
      </trkpt>
      <trkpt lat="38.63086" lon="39.25676">
        <ele>932.132571</ele>
        <time>2022-02-24T18:01:41.754Z</time>
      </trkpt>
      <trkpt lat="38.63133" lon="39.25676">
        <ele>932.808129</ele>
        <time>2022-02-24T18:01:57.079Z</time>
      </trkpt>
      <trkpt lat="38.63162" lon="39.25653">
        <ele>933.291008</ele>
        <time>2022-02-24T18:02:08.568Z</time>
      </trkpt>
      <trkpt lat="38.63187" lon="39.25655">
        <ele>933.650292</ele>
        <time>2022-02-24T18:02:17.388Z</time>
      </trkpt>
      <trkpt lat="38.63282" lon="39.2566">
        <ele>936.550307</ele>
        <time>2022-02-24T18:02:55.428Z</time>
      </trkpt>
      <trkpt lat="38.63325" lon="39.25663">
        <ele>937.95367</ele>
        <time>2022-02-24T18:03:13.422Z</time>
      </trkpt>
      <trkpt lat="38.63375" lon="39.25675">
        <ele>939.636895</ele>
        <time>2022-02-24T18:03:37.124Z</time>
      </trkpt>
      <trkpt lat="38.63487" lon="39.25682">
        <ele>944.810878</ele>
        <time>2022-02-24T18:04:32.984Z</time>
      </trkpt>
      <trkpt lat="38.63491" lon="39.25682">
        <ele>945.002872</ele>
        <time>2022-02-24T18:04:36.100Z</time>
      </trkpt>
      <trkpt lat="38.6366" lon="39.25695">
        <ele>951.523054</ele>
        <time>2022-02-24T18:05:57.559Z</time>
      </trkpt>
      <trkpt lat="38.63685" lon="39.25696">
        <ele>952.354609</ele>
        <time>2022-02-24T18:06:07.237Z</time>
      </trkpt>
      <trkpt lat="38.63696" lon="39.25698">
        <ele>952.717044</ele>
        <time>2022-02-24T18:06:11.865Z</time>
      </trkpt>
      <trkpt lat="38.6371" lon="39.25701">
        <ele>953.16575</ele>
        <time>2022-02-24T18:06:16.792Z</time>
      </trkpt>
      <trkpt lat="38.6372" lon="39.25701">
        <ele>953.492422</ele>
        <time>2022-02-24T18:06:19.995Z</time>
      </trkpt>
      <trkpt lat="38.63734" lon="39.25691">
        <ele>954.038765</ele>
        <time>2022-02-24T18:06:26.055Z</time>
      </trkpt>
      <trkpt lat="38.63739" lon="39.25698">
        <ele>954.080731</ele>
        <time>2022-02-24T18:06:28.482Z</time>
      </trkpt>
      <trkpt lat="38.6375" lon="39.25705">
        <ele>954.028826</ele>
        <time>2022-02-24T18:06:31.945Z</time>
      </trkpt>
      <trkpt lat="38.63758" lon="39.25703">
        <ele>953.993662</ele>
        <time>2022-02-24T18:06:35.075Z</time>
      </trkpt>
      <trkpt lat="38.63765" lon="39.25699">
        <ele>953.964548</ele>
        <time>2022-02-24T18:06:36.916Z</time>
      </trkpt>
      <trkpt lat="38.63775" lon="39.25677">
        <ele>953.881121</ele>
        <time>2022-02-24T18:06:42.360Z</time>
      </trkpt>
      <trkpt lat="38.6377" lon="39.25659">
        <ele>953.81948</ele>
        <time>2022-02-24T18:06:46.741Z</time>
      </trkpt>
      <trkpt lat="38.63764" lon="39.25652">
        <ele>953.788447</ele>
        <time>2022-02-24T18:06:48.713Z</time>
      </trkpt>
      <trkpt lat="38.63771" lon="39.25612">
        <ele>953.656136</ele>
        <time>2022-02-24T18:06:56.513Z</time>
      </trkpt>
      <trkpt lat="38.63771" lon="39.25561">
        <ele>953.490966</ele>
        <time>2022-02-24T18:07:05.377Z</time>
      </trkpt>
      <trkpt lat="38.63768" lon="39.2553">
        <ele>953.387786</ele>
        <time>2022-02-24T18:07:10.628Z</time>
      </trkpt>
      <trkpt lat="38.6369" lon="39.25153">
        <ele>948.051231</ele>
        <time>2022-02-24T18:08:14.235Z</time>
      </trkpt>
      <trkpt lat="38.63669" lon="39.25027">
        <ele>947.650266</ele>
        <time>2022-02-24T18:08:41.040Z</time>
      </trkpt>
      <trkpt lat="38.63667" lon="39.24983">
        <ele>948.050821</ele>
        <time>2022-02-24T18:08:51.655Z</time>
      </trkpt>
      <trkpt lat="38.63662" lon="39.24871">
        <ele>949.073069</ele>
        <time>2022-02-24T18:09:21.545Z</time>
      </trkpt>
      <trkpt lat="38.63672" lon="39.24734">
        <ele>951.686652</ele>
        <time>2022-02-24T18:10:01.586Z</time>
      </trkpt>
      <trkpt lat="38.63723" lon="39.2448">
        <ele>958.377367</ele>
        <time>2022-02-24T18:11:29.431Z</time>
      </trkpt>
      <trkpt lat="38.6374" lon="39.24417">
        <ele>960.300766</ele>
        <time>2022-02-24T18:11:53.706Z</time>
      </trkpt>
      <trkpt lat="38.6375" lon="39.24385">
        <ele>961.324465</ele>
        <time>2022-02-24T18:12:06.638Z</time>
      </trkpt>
      <trkpt lat="38.63794" lon="39.24274">
        <ele>965.133301</ele>
        <time>2022-02-24T18:12:52.032Z</time>
      </trkpt>
      <trkpt lat="38.63799" lon="39.24261">
        <ele>965.556002</ele>
        <time>2022-02-24T18:12:57.611Z</time>
      </trkpt>
      <trkpt lat="38.63946" lon="39.23963">
        <ele>974.860692</ele>
        <time>2022-02-24T18:14:53.908Z</time>
      </trkpt>
      <trkpt lat="38.63996" lon="39.23836">
        <ele>978.37702</ele>
        <time>2022-02-24T18:15:39.995Z</time>
      </trkpt>
      <trkpt lat="38.64049" lon="39.23684">
        <ele>982.945317</ele>
        <time>2022-02-24T18:16:35.239Z</time>
      </trkpt>
      <trkpt lat="38.64122" lon="39.23411">
        <ele>992.413589</ele>
        <time>2022-02-24T18:18:19.506Z</time>
      </trkpt>
      <trkpt lat="38.64161" lon="39.23141">
        <ele>1004.712837</ele>
        <time>2022-02-24T18:20:16.598Z</time>
      </trkpt>
      <trkpt lat="38.64185" lon="39.2294">
        <ele>1017.320658</ele>
        <time>2022-02-24T18:21:59.361Z</time>
      </trkpt>
      <trkpt lat="38.64201" lon="39.2281">
        <ele>1026.549877</ele>
        <time>2022-02-24T18:23:13.319Z</time>
      </trkpt>
      <trkpt lat="38.6421" lon="39.22738">
        <ele>1031.797344</ele>
        <time>2022-02-24T18:23:55.027Z</time>
      </trkpt>
      <trkpt lat="38.64303" lon="39.21964">
        <ele>1083.02945</ele>
        <time>2022-02-24T18:31:00.084Z</time>
      </trkpt>
      <trkpt lat="38.6433" lon="39.21764">
        <ele>1083.672717</ele>
        <time>2022-02-24T18:31:36.332Z</time>
      </trkpt>
      <trkpt lat="38.64352" lon="39.21587">
        <ele>1078.417847</ele>
        <time>2022-02-24T18:32:01.601Z</time>
      </trkpt>
      <trkpt lat="38.6448" lon="39.20558">
        <ele>1068.36187</ele>
        <time>2022-02-24T18:35:07.465Z</time>
      </trkpt>
      <trkpt lat="38.64543" lon="39.20083">
        <ele>1069.522733</ele>
        <time>2022-02-24T18:36:51.867Z</time>
      </trkpt>
      <trkpt lat="38.64545" lon="39.2008">
        <ele>1069.568266</ele>
        <time>2022-02-24T18:36:52.778Z</time>
      </trkpt>
      <trkpt lat="38.64547" lon="39.20076">
        <ele>1069.61465</ele>
        <time>2022-02-24T18:36:53.812Z</time>
      </trkpt>
      <trkpt lat="38.64548" lon="39.20071">
        <ele>1069.667845</ele>
        <time>2022-02-24T18:36:55.105Z</time>
      </trkpt>
      <trkpt lat="38.64547" lon="39.20066">
        <ele>1069.720303</ele>
        <time>2022-02-24T18:36:56.301Z</time>
      </trkpt>
      <trkpt lat="38.64546" lon="39.20062">
        <ele>1069.773595</ele>
        <time>2022-02-24T18:36:57.559Z</time>
      </trkpt>
      <trkpt lat="38.64543" lon="39.20057">
        <ele>1069.837996</ele>
        <time>2022-02-24T18:36:59.294Z</time>
      </trkpt>
      <trkpt lat="38.64535" lon="39.20052">
        <ele>1069.964147</ele>
        <time>2022-02-24T18:37:02.299Z</time>
      </trkpt>
      <trkpt lat="38.64526" lon="39.20055">
        <ele>1070.089821</ele>
        <time>2022-02-24T18:37:05.097Z</time>
      </trkpt>
      <trkpt lat="38.64523" lon="39.20059">
        <ele>1070.153959</ele>
        <time>2022-02-24T18:37:06.866Z</time>
      </trkpt>
      <trkpt lat="38.64521" lon="39.20065">
        <ele>1070.216767</ele>
        <time>2022-02-24T18:37:08.463Z</time>
      </trkpt>
      <trkpt lat="38.64508" lon="39.20048">
        <ele>1070.470562</ele>
        <time>2022-02-24T18:37:15.461Z</time>
      </trkpt>
      <trkpt lat="38.64495" lon="39.19991">
        <ele>1071.465312</ele>
        <time>2022-02-24T18:37:34.023Z</time>
      </trkpt>
      <trkpt lat="38.64484" lon="39.19983">
        <ele>1072.012549</ele>
        <time>2022-02-24T18:37:39.669Z</time>
      </trkpt>
      <trkpt lat="38.64463" lon="39.19979">
        <ele>1072.93987</ele>
        <time>2022-02-24T18:37:48.987Z</time>
      </trkpt>
      <trkpt lat="38.64427" lon="39.19982">
        <ele>1074.491481</ele>
        <time>2022-02-24T18:38:05.634Z</time>
      </trkpt>
      <trkpt lat="38.64359" lon="39.19933">
        <ele>1077.802458</ele>
        <time>2022-02-24T18:38:45.695Z</time>
      </trkpt>
      <trkpt lat="38.64325" lon="39.19906">
        <ele>1079.655303</ele>
        <time>2022-02-24T18:39:07.189Z</time>
      </trkpt>
      <trkpt lat="38.64298" lon="39.19867">
        <ele>1081.618873</ele>
        <time>2022-02-24T18:39:28.577Z</time>
      </trkpt>
      <trkpt lat="38.64274" lon="39.19827">
        <ele>1083.549199</ele>
        <time>2022-02-24T18:39:49.389Z</time>
      </trkpt>
      <trkpt lat="38.64262" lon="39.19806">
        <ele>1084.542798</ele>
        <time>2022-02-24T18:39:59.690Z</time>
      </trkpt>
      <trkpt lat="38.64207" lon="39.19728">
        <ele>1088.313116</ele>
        <time>2022-02-24T18:40:39.877Z</time>
      </trkpt>
      <trkpt lat="38.64189" lon="39.19703">
        <ele>1089.366397</ele>
        <time>2022-02-24T18:40:52.751Z</time>
      </trkpt>
      <trkpt lat="38.64184" lon="39.19697">
        <ele>1089.653004</ele>
        <time>2022-02-24T18:40:56.320Z</time>
      </trkpt>
      <trkpt lat="38.64133" lon="39.19644">
        <ele>1092.261631</ele>
        <time>2022-02-24T18:41:25.869Z</time>
      </trkpt>
      <trkpt lat="38.64094" lon="39.19609">
        <ele>1094.161474</ele>
        <time>2022-02-24T18:41:47.904Z</time>
      </trkpt>
      <trkpt lat="38.6398" lon="39.19478">
        <ele>1100.264967</ele>
        <time>2022-02-24T18:43:00.190Z</time>
      </trkpt>
      <trkpt lat="38.63932" lon="39.19433">
        <ele>1102.66387</ele>
        <time>2022-02-24T18:43:27.725Z</time>
      </trkpt>
      <trkpt lat="38.63886" lon="39.19392">
        <ele>1104.976804</ele>
        <time>2022-02-24T18:43:54.272Z</time>
      </trkpt>
      <trkpt lat="38.63811" lon="39.19346">
        <ele>1108.366734</ele>
        <time>2022-02-24T18:44:32.422Z</time>
      </trkpt>
      <trkpt lat="38.6379" lon="39.19341">
        <ele>1109.338671</ele>
        <time>2022-02-24T18:44:43.285Z</time>
      </trkpt>
      <trkpt lat="38.63725" lon="39.19325">
        <ele>1113.593105</ele>
        <time>2022-02-24T18:45:18.073Z</time>
      </trkpt>
      <trkpt lat="38.63668" lon="39.19321">
        <ele>1117.231084</ele>
        <time>2022-02-24T18:45:51.333Z</time>
      </trkpt>
      <trkpt lat="38.63658" lon="39.1931">
        <ele>1118.111299</ele>
        <time>2022-02-24T18:46:01.223Z</time>
      </trkpt>
      <trkpt lat="38.63654" lon="39.193">
        <ele>1118.644267</ele>
        <time>2022-02-24T18:46:07.207Z</time>
      </trkpt>
      <trkpt lat="38.63631" lon="39.19239">
        <ele>1122.566289</ele>
        <time>2022-02-24T18:46:41.452Z</time>
      </trkpt>
      <trkpt lat="38.63622" lon="39.19232">
        <ele>1123.440223</ele>
        <time>2022-02-24T18:46:49.184Z</time>
      </trkpt>
      <trkpt lat="38.63594" lon="39.19227">
        <ele>1125.955477</ele>
        <time>2022-02-24T18:47:08.185Z</time>
      </trkpt>
      <trkpt lat="38.63578" lon="39.19231">
        <ele>1127.336381</ele>
        <time>2022-02-24T18:47:20.596Z</time>
      </trkpt>
      <trkpt lat="38.6355" lon="39.19243">
        <ele>1129.934901</ele>
        <time>2022-02-24T18:47:42.252Z</time>
      </trkpt>
      <trkpt lat="38.63474" lon="39.19248">
        <ele>1136.528168</ele>
        <time>2022-02-24T18:48:37.652Z</time>
      </trkpt>
      <trkpt lat="38.63391" lon="39.19246">
        <ele>1141.610438</ele>
        <time>2022-02-24T18:49:29.431Z</time>
      </trkpt>
      <trkpt lat="38.63363" lon="39.19223">
        <ele>1143.688689</ele>
        <time>2022-02-24T18:49:47.228Z</time>
      </trkpt>
      <trkpt lat="38.63278" lon="39.19083">
        <ele>1150.325813</ele>
        <time>2022-02-24T18:50:52.057Z</time>
      </trkpt>
      <trkpt lat="38.63233" lon="39.19031">
        <ele>1152.620052</ele>
        <time>2022-02-24T18:51:17.892Z</time>
      </trkpt>
      <trkpt lat="38.63206" lon="39.18984">
        <ele>1154.331501</ele>
        <time>2022-02-24T18:51:37.589Z</time>
      </trkpt>
      <trkpt lat="38.63176" lon="39.18963">
        <ele>1155.590089</ele>
        <time>2022-02-24T18:51:52.359Z</time>
      </trkpt>
      <trkpt lat="38.63169" lon="39.1896">
        <ele>1155.848327</ele>
        <time>2022-02-24T18:51:55.972Z</time>
      </trkpt>
      <trkpt lat="38.63102" lon="39.18924">
        <ele>1158.512689</ele>
        <time>2022-02-24T18:52:28.347Z</time>
      </trkpt>
      <trkpt lat="38.6308" lon="39.18904">
        <ele>1159.513118</ele>
        <time>2022-02-24T18:52:40.172Z</time>
      </trkpt>
      <trkpt lat="38.63029" lon="39.18835">
        <ele>1162.309377</ele>
        <time>2022-02-24T18:53:14.071Z</time>
      </trkpt>
      <trkpt lat="38.63019" lon="39.18811">
        <ele>1163.09661</ele>
        <time>2022-02-24T18:53:22.787Z</time>
      </trkpt>
      <trkpt lat="38.63021" lon="39.18799">
        <ele>1163.454839</ele>
        <time>2022-02-24T18:53:27.387Z</time>
      </trkpt>
      <trkpt lat="38.63023" lon="39.18783">
        <ele>1163.94002</ele>
        <time>2022-02-24T18:53:32.856Z</time>
      </trkpt>
      <trkpt lat="38.63038" lon="39.18736">
        <ele>1165.468101</ele>
        <time>2022-02-24T18:53:50.183Z</time>
      </trkpt>
      <trkpt lat="38.63038" lon="39.18715">
        <ele>1166.098971</ele>
        <time>2022-02-24T18:53:57.586Z</time>
      </trkpt>
      <trkpt lat="38.63031" lon="39.18696">
        <ele>1166.740906</ele>
        <time>2022-02-24T18:54:05.078Z</time>
      </trkpt>
      <trkpt lat="38.63012" lon="39.18677">
        <ele>1167.689156</ele>
        <time>2022-02-24T18:54:16.512Z</time>
      </trkpt>
      <trkpt lat="38.62897" lon="39.18564">
        <ele>1174.022539</ele>
        <time>2022-02-24T18:55:25.467Z</time>
      </trkpt>
      <trkpt lat="38.62885" lon="39.18553">
        <ele>1174.637183</ele>
        <time>2022-02-24T18:55:32.223Z</time>
      </trkpt>
      <trkpt lat="38.62861" lon="39.18526">
        <ele>1176.115935</ele>
        <time>2022-02-24T18:55:48.245Z</time>
      </trkpt>
      <trkpt lat="38.6284" lon="39.18503">
        <ele>1177.443239</ele>
        <time>2022-02-24T18:56:01.875Z</time>
      </trkpt>
      <trkpt lat="38.62748" lon="39.18365">
        <ele>1184.400342</ele>
        <time>2022-02-24T18:57:13.812Z</time>
      </trkpt>
      <trkpt lat="38.62696" lon="39.18276">
        <ele>1188.940305</ele>
        <time>2022-02-24T18:57:57.554Z</time>
      </trkpt>
      <trkpt lat="38.62687" lon="39.18261">
        <ele>1189.737831</ele>
        <time>2022-02-24T18:58:06.037Z</time>
      </trkpt>
      <trkpt lat="38.62626" lon="39.18151">
        <ele>1195.316482</ele>
        <time>2022-02-24T18:59:00.880Z</time>
      </trkpt>
      <trkpt lat="38.62622" lon="39.18144">
        <ele>1195.679552</ele>
        <time>2022-02-24T18:59:04.985Z</time>
      </trkpt>
      <trkpt lat="38.62584" lon="39.18064">
        <ele>1199.618232</ele>
        <time>2022-02-24T18:59:43.729Z</time>
      </trkpt>
      <trkpt lat="38.62571" lon="39.18035">
        <ele>1201.063933</ele>
        <time>2022-02-24T18:59:57.341Z</time>
      </trkpt>
      <trkpt lat="38.62562" lon="39.18017">
        <ele>1201.976378</ele>
        <time>2022-02-24T19:00:06.245Z</time>
      </trkpt>
      <trkpt lat="38.6255" lon="39.17992">
        <ele>1203.186943</ele>
        <time>2022-02-24T19:00:18.102Z</time>
      </trkpt>
      <trkpt lat="38.62512" lon="39.17905">
        <ele>1207.494377</ele>
        <time>2022-02-24T19:00:58.315Z</time>
      </trkpt>
      <trkpt lat="38.62488" lon="39.17831">
        <ele>1210.986388</ele>
        <time>2022-02-24T19:01:34.383Z</time>
      </trkpt>
      <trkpt lat="38.62479" lon="39.17789">
        <ele>1212.867565</ele>
        <time>2022-02-24T19:01:52.373Z</time>
      </trkpt>
      <trkpt lat="38.62474" lon="39.17717">
        <ele>1215.257756</ele>
        <time>2022-02-24T19:02:19.901Z</time>
      </trkpt>
      <trkpt lat="38.62473" lon="39.17703">
        <ele>1215.691929</ele>
        <time>2022-02-24T19:02:26.587Z</time>
      </trkpt>
      <trkpt lat="38.62466" lon="39.17639">
        <ele>1217.683576</ele>
        <time>2022-02-24T19:02:49.795Z</time>
      </trkpt>
      <trkpt lat="38.62456" lon="39.1761">
        <ele>1218.633878</ele>
        <time>2022-02-24T19:03:01.125Z</time>
      </trkpt>
      <trkpt lat="38.6244" lon="39.17583">
        <ele>1219.704188</ele>
        <time>2022-02-24T19:03:12.248Z</time>
      </trkpt>
      <trkpt lat="38.62411" lon="39.17547">
        <ele>1220.683714</ele>
        <time>2022-02-24T19:03:28.999Z</time>
      </trkpt>
      <trkpt lat="38.62046" lon="39.17231">
        <ele>1221.780425</ele>
        <time>2022-02-24T19:05:32.626Z</time>
      </trkpt>
      <trkpt lat="38.62004" lon="39.17202">
        <ele>1221.381321</ele>
        <time>2022-02-24T19:05:42.710Z</time>
      </trkpt>
      <trkpt lat="38.61958" lon="39.17158">
        <ele>1220.522492</ele>
        <time>2022-02-24T19:05:54.623Z</time>
      </trkpt>
      <trkpt lat="38.61798" lon="39.16982">
        <ele>1215.768811</ele>
        <time>2022-02-24T19:06:37.733Z</time>
      </trkpt>
      <trkpt lat="38.61682" lon="39.16843">
        <ele>1213.043816</ele>
        <time>2022-02-24T19:07:12.271Z</time>
      </trkpt>
      <trkpt lat="38.61594" lon="39.16755">
        <ele>1211.661126</ele>
        <time>2022-02-24T19:07:37.706Z</time>
      </trkpt>
      <trkpt lat="38.61572" lon="39.16738">
        <ele>1211.339463</ele>
        <time>2022-02-24T19:07:43.696Z</time>
      </trkpt>
      <trkpt lat="38.61487" lon="39.16713">
        <ele>1210.71525</ele>
        <time>2022-02-24T19:08:03.991Z</time>
      </trkpt>
      <trkpt lat="38.61453" lon="39.16696">
        <ele>1210.464859</ele>
        <time>2022-02-24T19:08:12.978Z</time>
      </trkpt>
      <trkpt lat="38.61413" lon="39.16659">
        <ele>1210.140305</ele>
        <time>2022-02-24T19:08:24.757Z</time>
      </trkpt>
      <trkpt lat="38.61209" lon="39.16439">
        <ele>1209.395866</ele>
        <time>2022-02-24T19:09:33.817Z</time>
      </trkpt>
      <trkpt lat="38.61162" lon="39.16397">
        <ele>1209.206262</ele>
        <time>2022-02-24T19:09:48.650Z</time>
      </trkpt>
      <trkpt lat="38.61114" lon="39.16347">
        <ele>1208.935138</ele>
        <time>2022-02-24T19:10:04.041Z</time>
      </trkpt>
      <trkpt lat="38.6098" lon="39.16164">
        <ele>1207.053833</ele>
        <time>2022-02-24T19:10:49.198Z</time>
      </trkpt>
      <trkpt lat="38.60838" lon="39.15972">
        <ele>1205.584282</ele>
        <time>2022-02-24T19:11:37.489Z</time>
      </trkpt>
      <trkpt lat="38.608" lon="39.15901">
        <ele>1205.522321</ele>
        <time>2022-02-24T19:11:55.744Z</time>
      </trkpt>
      <trkpt lat="38.60655" lon="39.15719">
        <ele>1205.523191</ele>
        <time>2022-02-24T19:12:54.350Z</time>
      </trkpt>
      <trkpt lat="38.60623" lon="39.15682">
        <ele>1205.367408</ele>
        <time>2022-02-24T19:13:04.695Z</time>
      </trkpt>
      <trkpt lat="38.60571" lon="39.1563">
        <ele>1203.885817</ele>
        <time>2022-02-24T19:13:18.852Z</time>
      </trkpt>
      <trkpt lat="38.60432" lon="39.15456">
        <ele>1199.443238</ele>
        <time>2022-02-24T19:13:57.474Z</time>
      </trkpt>
      <trkpt lat="38.60402" lon="39.15382">
        <ele>1197.943015</ele>
        <time>2022-02-24T19:14:11.033Z</time>
      </trkpt>
      <trkpt lat="38.60346" lon="39.15279">
        <ele>1197.04632</ele>
        <time>2022-02-24T19:14:33.246Z</time>
      </trkpt>
      <trkpt lat="38.60259" lon="39.15134">
        <ele>1196.709019</ele>
        <time>2022-02-24T19:15:12.825Z</time>
      </trkpt>
      <trkpt lat="38.60219" lon="39.15085">
        <ele>1196.85629</ele>
        <time>2022-02-24T19:15:29.838Z</time>
      </trkpt>
      <trkpt lat="38.60204" lon="39.15056">
        <ele>1196.926744</ele>
        <time>2022-02-24T19:15:36.612Z</time>
      </trkpt>
      <trkpt lat="38.60192" lon="39.15047">
        <ele>1196.966573</ele>
        <time>2022-02-24T19:15:40.833Z</time>
      </trkpt>
      <trkpt lat="38.60141" lon="39.15032">
        <ele>1197.116775</ele>
        <time>2022-02-24T19:15:54.526Z</time>
      </trkpt>
      <trkpt lat="38.60127" lon="39.15026">
        <ele>1197.196586</ele>
        <time>2022-02-24T19:15:59.333Z</time>
      </trkpt>
      <trkpt lat="38.60119" lon="39.15016">
        <ele>1197.259856</ele>
        <time>2022-02-24T19:16:01.779Z</time>
      </trkpt>
      <trkpt lat="38.60101" lon="39.14986">
        <ele>1197.422702</ele>
        <time>2022-02-24T19:16:10.405Z</time>
      </trkpt>
      <trkpt lat="38.6006" lon="39.14934">
        <ele>1197.742182</ele>
        <time>2022-02-24T19:16:26.585Z</time>
      </trkpt>
      <trkpt lat="38.60016" lon="39.14903">
        <ele>1198.019908</ele>
        <time>2022-02-24T19:16:41.794Z</time>
      </trkpt>
      <trkpt lat="38.60008" lon="39.14886">
        <ele>1198.175127</ele>
        <time>2022-02-24T19:16:46.333Z</time>
      </trkpt>
      <trkpt lat="38.60003" lon="39.14821">
        <ele>1199.668519</ele>
        <time>2022-02-24T19:17:04.595Z</time>
      </trkpt>
      <trkpt lat="38.59984" lon="39.14739">
        <ele>1201.63862</ele>
        <time>2022-02-24T19:17:32.639Z</time>
      </trkpt>
      <trkpt lat="38.59967" lon="39.14707">
        <ele>1202.52909</ele>
        <time>2022-02-24T19:17:46.390Z</time>
      </trkpt>
      <trkpt lat="38.59948" lon="39.14696">
        <ele>1203.134021</ele>
        <time>2022-02-24T19:17:55.981Z</time>
      </trkpt>
      <trkpt lat="38.59864" lon="39.14692">
        <ele>1206.585936</ele>
        <time>2022-02-24T19:18:35.840Z</time>
      </trkpt>
      <trkpt lat="38.59845" lon="39.14681">
        <ele>1207.459708</ele>
        <time>2022-02-24T19:18:45.703Z</time>
      </trkpt>
      <trkpt lat="38.59816" lon="39.14634">
        <ele>1209.470665</ele>
        <time>2022-02-24T19:19:08.515Z</time>
      </trkpt>
      <trkpt lat="38.59771" lon="39.14546">
        <ele>1212.322624</ele>
        <time>2022-02-24T19:19:46.400Z</time>
      </trkpt>
      <trkpt lat="38.5976" lon="39.14511">
        <ele>1213.17804</ele>
        <time>2022-02-24T19:19:59.291Z</time>
      </trkpt>
      <trkpt lat="38.59757" lon="39.14456">
        <ele>1214.428151</ele>
        <time>2022-02-24T19:20:17.219Z</time>
      </trkpt>
      <trkpt lat="38.59749" lon="39.14429">
        <ele>1215.058971</ele>
        <time>2022-02-24T19:20:25.751Z</time>
      </trkpt>
      <trkpt lat="38.59695" lon="39.14314">
        <ele>1215.911615</ele>
        <time>2022-02-24T19:21:00.244Z</time>
      </trkpt>
      <trkpt lat="38.59687" lon="39.14198">
        <ele>1215.507267</ele>
        <time>2022-02-24T19:21:21.034Z</time>
      </trkpt>
      <trkpt lat="38.59666" lon="39.14152">
        <ele>1214.993132</ele>
        <time>2022-02-24T19:21:29.524Z</time>
      </trkpt>
      <trkpt lat="38.59652" lon="39.14102">
        <ele>1214.058802</ele>
        <time>2022-02-24T19:21:37.715Z</time>
      </trkpt>
      <trkpt lat="38.5964" lon="39.14082">
        <ele>1213.61113</ele>
        <time>2022-02-24T19:21:41.657Z</time>
      </trkpt>
      <trkpt lat="38.59611" lon="39.14058">
        <ele>1212.831778</ele>
        <time>2022-02-24T19:21:48.710Z</time>
      </trkpt>
      <trkpt lat="38.59596" lon="39.14028">
        <ele>1212.204379</ele>
        <time>2022-02-24T19:21:54.457Z</time>
      </trkpt>
      <trkpt lat="38.59572" lon="39.13982">
        <ele>1211.260305</ele>
        <time>2022-02-24T19:22:03.650Z</time>
      </trkpt>
      <trkpt lat="38.59529" lon="39.13905">
        <ele>1210.238738</ele>
        <time>2022-02-24T19:22:19.933Z</time>
      </trkpt>
      <trkpt lat="38.59458" lon="39.1378">
        <ele>1208.508314</ele>
        <time>2022-02-24T19:22:47.687Z</time>
      </trkpt>
      <trkpt lat="38.59437" lon="39.13728">
        <ele>1207.75528</ele>
        <time>2022-02-24T19:22:57.639Z</time>
      </trkpt>
      <trkpt lat="38.59419" lon="39.13702">
        <ele>1207.299561</ele>
        <time>2022-02-24T19:23:03.489Z</time>
      </trkpt>
      <trkpt lat="38.59301" lon="39.13611">
        <ele>1205.341027</ele>
        <time>2022-02-24T19:23:32.959Z</time>
      </trkpt>
      <trkpt lat="38.59288" lon="39.13576">
        <ele>1205.035725</ele>
        <time>2022-02-24T19:23:39.742Z</time>
      </trkpt>
      <trkpt lat="38.59277" lon="39.13561">
        <ele>1204.869504</ele>
        <time>2022-02-24T19:23:43.686Z</time>
      </trkpt>
      <trkpt lat="38.59249" lon="39.13534">
        <ele>1204.514047</ele>
        <time>2022-02-24T19:23:52.013Z</time>
      </trkpt>
      <trkpt lat="38.59229" lon="39.13499">
        <ele>1204.166126</ele>
        <time>2022-02-24T19:24:00.368Z</time>
      </trkpt>
      <trkpt lat="38.59211" lon="39.13482">
        <ele>1203.972354</ele>
        <time>2022-02-24T19:24:05.809Z</time>
      </trkpt>
      <trkpt lat="38.5915" lon="39.13447">
        <ele>1203.555054</ele>
        <time>2022-02-24T19:24:23.076Z</time>
      </trkpt>
      <trkpt lat="38.59095" lon="39.13389">
        <ele>1203.108432</ele>
        <time>2022-02-24T19:24:40.815Z</time>
      </trkpt>
      <trkpt lat="38.59036" lon="39.13286">
        <ele>1201.769513</ele>
        <time>2022-02-24T19:25:02.948Z</time>
      </trkpt>
      <trkpt lat="38.59009" lon="39.13228">
        <ele>1200.874319</ele>
        <time>2022-02-24T19:25:14.279Z</time>
      </trkpt>
      <trkpt lat="38.58994" lon="39.13203">
        <ele>1200.45039</ele>
        <time>2022-02-24T19:25:19.572Z</time>
      </trkpt>
      <trkpt lat="38.58978" lon="39.13177">
        <ele>1200.017041</ele>
        <time>2022-02-24T19:25:24.962Z</time>
      </trkpt>
      <trkpt lat="38.58939" lon="39.13103">
        <ele>1198.60169</ele>
        <time>2022-02-24T19:25:39.561Z</time>
      </trkpt>
      <trkpt lat="38.58902" lon="39.13046">
        <ele>1197.411242</ele>
        <time>2022-02-24T19:25:51.465Z</time>
      </trkpt>
      <trkpt lat="38.58879" lon="39.13002">
        <ele>1196.543624</ele>
        <time>2022-02-24T19:26:00.402Z</time>
      </trkpt>
      <trkpt lat="38.58867" lon="39.12984">
        <ele>1196.163066</ele>
        <time>2022-02-24T19:26:04.234Z</time>
      </trkpt>
      <trkpt lat="38.58856" lon="39.12974">
        <ele>1195.903342</ele>
        <time>2022-02-24T19:26:07.171Z</time>
      </trkpt>
      <trkpt lat="38.58809" lon="39.12956">
        <ele>1194.955967</ele>
        <time>2022-02-24T19:26:17.588Z</time>
      </trkpt>
      <trkpt lat="38.58745" lon="39.12895">
        <ele>1193.418027</ele>
        <time>2022-02-24T19:26:34.283Z</time>
      </trkpt>
      <trkpt lat="38.58539" lon="39.12726">
        <ele>1189.493754</ele>
        <time>2022-02-24T19:27:27.174Z</time>
      </trkpt>
      <trkpt lat="38.58463" lon="39.1267">
        <ele>1189.004627</ele>
        <time>2022-02-24T19:27:47.854Z</time>
      </trkpt>
      <trkpt lat="38.58438" lon="39.12654">
        <ele>1188.846758</ele>
        <time>2022-02-24T19:27:55.736Z</time>
      </trkpt>
      <trkpt lat="38.58402" lon="39.12648">
        <ele>1188.643913</ele>
        <time>2022-02-24T19:28:05.896Z</time>
      </trkpt>
      <trkpt lat="38.58355" lon="39.12608">
        <ele>1188.492255</ele>
        <time>2022-02-24T19:28:22.065Z</time>
      </trkpt>
      <trkpt lat="38.58296" lon="39.12557">
        <ele>1188.316601</ele>
        <time>2022-02-24T19:28:41.126Z</time>
      </trkpt>
      <trkpt lat="38.58284" lon="39.12546">
        <ele>1188.27965</ele>
        <time>2022-02-24T19:28:44.605Z</time>
      </trkpt>
      <trkpt lat="38.58204" lon="39.12498">
        <ele>1187.084727</ele>
        <time>2022-02-24T19:29:05.004Z</time>
      </trkpt>
      <trkpt lat="38.58174" lon="39.12472">
        <ele>1186.234039</ele>
        <time>2022-02-24T19:29:12.614Z</time>
      </trkpt>
      <trkpt lat="38.58141" lon="39.12431">
        <ele>1185.18092</ele>
        <time>2022-02-24T19:29:21.532Z</time>
      </trkpt>
      <trkpt lat="38.58069" lon="39.12381">
        <ele>1183.050401</ele>
        <time>2022-02-24T19:29:37.645Z</time>
      </trkpt>
      <trkpt lat="38.57655" lon="39.12269">
        <ele>1170.364759</ele>
        <time>2022-02-24T19:31:01.268Z</time>
      </trkpt>
      <trkpt lat="38.57519" lon="39.122">
        <ele>1166.975985</ele>
        <time>2022-02-24T19:31:30.665Z</time>
      </trkpt>
      <trkpt lat="38.57487" lon="39.12198">
        <ele>1166.459912</ele>
        <time>2022-02-24T19:31:37.478Z</time>
      </trkpt>
      <trkpt lat="38.57461" lon="39.12189">
        <ele>1166.0425</ele>
        <time>2022-02-24T19:31:43.168Z</time>
      </trkpt>
      <trkpt lat="38.57433" lon="39.12166">
        <ele>1165.50686</ele>
        <time>2022-02-24T19:31:50.887Z</time>
      </trkpt>
      <trkpt lat="38.57369" lon="39.12128">
        <ele>1166.006647</ele>
        <time>2022-02-24T19:32:10.173Z</time>
      </trkpt>
      <trkpt lat="38.57276" lon="39.12121">
        <ele>1167.878425</ele>
        <time>2022-02-24T19:32:44.754Z</time>
      </trkpt>
      <trkpt lat="38.57232" lon="39.12101">
        <ele>1168.929746</ele>
        <time>2022-02-24T19:33:06.013Z</time>
      </trkpt>
      <trkpt lat="38.57118" lon="39.12109">
        <ele>1173.617526</ele>
        <time>2022-02-24T19:34:00.471Z</time>
      </trkpt>
      <trkpt lat="38.57096" lon="39.12099">
        <ele>1174.570441</ele>
        <time>2022-02-24T19:34:11.086Z</time>
      </trkpt>
      <trkpt lat="38.5706" lon="39.12065">
        <ele>1176.409628</ele>
        <time>2022-02-24T19:34:31.431Z</time>
      </trkpt>
      <trkpt lat="38.56971" lon="39.1202">
        <ele>1180.162617</ele>
        <time>2022-02-24T19:35:15.392Z</time>
      </trkpt>
      <trkpt lat="38.5694" lon="39.12011">
        <ele>1181.428417</ele>
        <time>2022-02-24T19:35:29.999Z</time>
      </trkpt>
      <trkpt lat="38.56891" lon="39.11964">
        <ele>1183.6919</ele>
        <time>2022-02-24T19:36:08.483Z</time>
      </trkpt>
      <trkpt lat="38.56869" lon="39.11924">
        <ele>1184.86844</ele>
        <time>2022-02-24T19:36:32.384Z</time>
      </trkpt>
      <trkpt lat="38.56835" lon="39.11877">
        <ele>1186.406876</ele>
        <time>2022-02-24T19:37:03.245Z</time>
      </trkpt>
      <trkpt lat="38.5679" lon="39.11795">
        <ele>1188.765494</ele>
        <time>2022-02-24T19:37:49.046Z</time>
      </trkpt>
      <trkpt lat="38.5669" lon="39.11668">
        <ele>1188.966883</ele>
        <time>2022-02-24T19:38:54.036Z</time>
      </trkpt>
      <trkpt lat="38.56636" lon="39.11611">
        <ele>1188.357061</ele>
        <time>2022-02-24T19:39:20.843Z</time>
      </trkpt>
      <trkpt lat="38.56597" lon="39.1155">
        <ele>1187.132017</ele>
        <time>2022-02-24T19:39:43.843Z</time>
      </trkpt>
      <trkpt lat="38.56585" lon="39.11519">
        <ele>1186.598631</ele>
        <time>2022-02-24T19:39:53.681Z</time>
      </trkpt>
      <trkpt lat="38.56561" lon="39.11499">
        <ele>1186.022528</ele>
        <time>2022-02-24T19:40:04.106Z</time>
      </trkpt>
      <trkpt lat="38.56551" lon="39.11473">
        <ele>1185.572487</ele>
        <time>2022-02-24T19:40:12.797Z</time>
      </trkpt>
      <trkpt lat="38.56531" lon="39.11461">
        <ele>1185.500263</ele>
        <time>2022-02-24T19:40:21.105Z</time>
      </trkpt>
      <trkpt lat="38.56506" lon="39.11432">
        <ele>1185.599973</ele>
        <time>2022-02-24T19:40:34.586Z</time>
      </trkpt>
      <trkpt lat="38.5648" lon="39.11368">
        <ele>1185.765401</ele>
        <time>2022-02-24T19:40:59.472Z</time>
      </trkpt>
      <trkpt lat="38.56474" lon="39.11358">
        <ele>1185.793949</ele>
        <time>2022-02-24T19:41:03.624Z</time>
      </trkpt>
      <trkpt lat="38.56447" lon="39.11306">
        <ele>1185.938086</ele>
        <time>2022-02-24T19:41:29.096Z</time>
      </trkpt>
      <trkpt lat="38.56424" lon="39.11275">
        <ele>1186.74811</ele>
        <time>2022-02-24T19:41:48.010Z</time>
      </trkpt>
      <trkpt lat="38.56387" lon="39.1124">
        <ele>1188.702123</ele>
        <time>2022-02-24T19:42:16.277Z</time>
      </trkpt>
      <trkpt lat="38.56192" lon="39.11116">
        <ele>1198.398457</ele>
        <time>2022-02-24T19:44:47.332Z</time>
      </trkpt>
      <trkpt lat="38.55981" lon="39.11014">
        <ele>1206.402546</ele>
        <time>2022-02-24T19:47:10.941Z</time>
      </trkpt>
      <trkpt lat="38.55865" lon="39.10965">
        <ele>1205.627771</ele>
        <time>2022-02-24T19:48:02.916Z</time>
      </trkpt>
      <trkpt lat="38.55738" lon="39.10923">
        <ele>1202.314655</ele>
        <time>2022-02-24T19:48:48.073Z</time>
      </trkpt>
      <trkpt lat="38.55612" lon="39.10857">
        <ele>1197.145386</ele>
        <time>2022-02-24T19:49:34.266Z</time>
      </trkpt>
      <trkpt lat="38.5553" lon="39.10823">
        <ele>1195.926091</ele>
        <time>2022-02-24T19:50:06.293Z</time>
      </trkpt>
      <trkpt lat="38.5548" lon="39.10806">
        <ele>1195.221089</ele>
        <time>2022-02-24T19:50:27.694Z</time>
      </trkpt>
      <trkpt lat="38.55473" lon="39.1072">
        <ele>1194.850964</ele>
        <time>2022-02-24T19:50:58.355Z</time>
      </trkpt>
      <trkpt lat="38.55433" lon="39.10349">
        <ele>1197.699222</ele>
        <time>2022-02-24T19:53:25.881Z</time>
      </trkpt>
      <trkpt lat="38.55415" lon="39.10275">
        <ele>1198.00472</ele>
        <time>2022-02-24T19:53:54.012Z</time>
      </trkpt>
      <trkpt lat="38.55391" lon="39.10212">
        <ele>1197.657819</ele>
        <time>2022-02-24T19:54:17.871Z</time>
      </trkpt>
      <trkpt lat="38.55367" lon="39.10158">
        <ele>1197.352926</ele>
        <time>2022-02-24T19:54:37.993Z</time>
      </trkpt>
      <trkpt lat="38.55283" lon="39.10003">
        <ele>1196.024051</ele>
        <time>2022-02-24T19:55:36.065Z</time>
      </trkpt>
      <trkpt lat="38.55251" lon="39.09957">
        <ele>1195.50224</ele>
        <time>2022-02-24T19:55:55.393Z</time>
      </trkpt>
      <trkpt lat="38.55208" lon="39.099">
        <ele>1194.952836</ele>
        <time>2022-02-24T19:56:21.009Z</time>
      </trkpt>
      <trkpt lat="38.55155" lon="39.09816">
        <ele>1194.617483</ele>
        <time>2022-02-24T19:56:57.127Z</time>
      </trkpt>
      <trkpt lat="38.55125" lon="39.09781">
        <ele>1194.457038</ele>
        <time>2022-02-24T19:57:15.162Z</time>
      </trkpt>
      <trkpt lat="38.55075" lon="39.09671">
        <ele>1193.827616</ele>
        <time>2022-02-24T19:57:57.698Z</time>
      </trkpt>
      <trkpt lat="38.55035" lon="39.09601">
        <ele>1193.300694</ele>
        <time>2022-02-24T19:58:25.522Z</time>
      </trkpt>
      <trkpt lat="38.55023" lon="39.09569">
        <ele>1193.08347</ele>
        <time>2022-02-24T19:58:36.859Z</time>
      </trkpt>
      <trkpt lat="38.5501" lon="39.09512">
        <ele>1192.622381</ele>
        <time>2022-02-24T19:58:55.087Z</time>
      </trkpt>
      <trkpt lat="38.55011" lon="39.09467">
        <ele>1192.194533</ele>
        <time>2022-02-24T19:59:09.119Z</time>
      </trkpt>
      <trkpt lat="38.54992" lon="39.09353">
        <ele>1191.097018</ele>
        <time>2022-02-24T19:59:44.935Z</time>
      </trkpt>
      <trkpt lat="38.54972" lon="39.09279">
        <ele>1190.68472</ele>
        <time>2022-02-24T20:00:09.999Z</time>
      </trkpt>
      <trkpt lat="38.5495" lon="39.0925">
        <ele>1190.621076</ele>
        <time>2022-02-24T20:00:23.118Z</time>
      </trkpt>
      <trkpt lat="38.54933" lon="39.09182">
        <ele>1190.508747</ele>
        <time>2022-02-24T20:00:46.931Z</time>
      </trkpt>
      <trkpt lat="38.54888" lon="39.09076">
        <ele>1190.697774</ele>
        <time>2022-02-24T20:01:31.545Z</time>
      </trkpt>
      <trkpt lat="38.54862" lon="39.0901">
        <ele>1191.237338</ele>
        <time>2022-02-24T20:02:00.457Z</time>
      </trkpt>
      <trkpt lat="38.54847" lon="39.08963">
        <ele>1191.595635</ele>
        <time>2022-02-24T20:02:13.445Z</time>
      </trkpt>
      <trkpt lat="38.54825" lon="39.08908">
        <ele>1192.04407</ele>
        <time>2022-02-24T20:02:29.867Z</time>
      </trkpt>
      <trkpt lat="38.54744" lon="39.08754">
        <ele>1192.409058</ele>
        <time>2022-02-24T20:03:13.753Z</time>
      </trkpt>
      <trkpt lat="38.54723" lon="39.08703">
        <ele>1192.35605</ele>
        <time>2022-02-24T20:03:25.094Z</time>
      </trkpt>
      <trkpt lat="38.54642" lon="39.08542">
        <ele>1190.200481</ele>
        <time>2022-02-24T20:03:59.526Z</time>
      </trkpt>
      <trkpt lat="38.546" lon="39.08486">
        <ele>1189.337289</ele>
        <time>2022-02-24T20:04:13.177Z</time>
      </trkpt>
      <trkpt lat="38.54582" lon="39.08457">
        <ele>1188.934512</ele>
        <time>2022-02-24T20:04:19.706Z</time>
      </trkpt>
      <trkpt lat="38.54579" lon="39.0844">
        <ele>1188.745567</ele>
        <time>2022-02-24T20:04:22.704Z</time>
      </trkpt>
      <trkpt lat="38.54436" lon="39.08135">
        <ele>1185.548154</ele>
        <time>2022-02-24T20:05:29.640Z</time>
      </trkpt>
      <trkpt lat="38.54337" lon="39.07855">
        <ele>1182.98105</ele>
        <time>2022-02-24T20:06:28.978Z</time>
      </trkpt>
      <trkpt lat="38.54235" lon="39.07581">
        <ele>1179.144186</ele>
        <time>2022-02-24T20:07:21.223Z</time>
      </trkpt>
      <trkpt lat="38.54198" lon="39.07519">
        <ele>1178.17564</ele>
        <time>2022-02-24T20:07:35.822Z</time>
      </trkpt>
      <trkpt lat="38.54152" lon="39.07466">
        <ele>1178.780118</ele>
        <time>2022-02-24T20:07:52.763Z</time>
      </trkpt>
      <trkpt lat="38.54115" lon="39.0741">
        <ele>1179.328603</ele>
        <time>2022-02-24T20:08:10.791Z</time>
      </trkpt>
      <trkpt lat="38.54076" lon="39.07323">
        <ele>1180.533695</ele>
        <time>2022-02-24T20:08:41.123Z</time>
      </trkpt>
      <trkpt lat="38.54035" lon="39.0725">
        <ele>1182.949559</ele>
        <time>2022-02-24T20:09:13.384Z</time>
      </trkpt>
      <trkpt lat="38.54011" lon="39.07222">
        <ele>1184.033241</ele>
        <time>2022-02-24T20:09:28.048Z</time>
      </trkpt>
      <trkpt lat="38.53996" lon="39.07196">
        <ele>1184.90057</ele>
        <time>2022-02-24T20:09:40.194Z</time>
      </trkpt>
      <trkpt lat="38.53985" lon="39.07159">
        <ele>1185.967933</ele>
        <time>2022-02-24T20:09:54.474Z</time>
      </trkpt>
      <trkpt lat="38.53956" lon="39.07022">
        <ele>1188.445965</ele>
        <time>2022-02-24T20:10:42.277Z</time>
      </trkpt>
      <trkpt lat="38.53922" lon="39.06939">
        <ele>1190.007289</ele>
        <time>2022-02-24T20:11:05.875Z</time>
      </trkpt>
      <trkpt lat="38.53879" lon="39.06862">
        <ele>1189.4882</ele>
        <time>2022-02-24T20:11:25.692Z</time>
      </trkpt>
      <trkpt lat="38.53871" lon="39.06846">
        <ele>1189.383168</ele>
        <time>2022-02-24T20:11:29.287Z</time>
      </trkpt>
      <trkpt lat="38.53821" lon="39.06673">
        <ele>1187.792761</ele>
        <time>2022-02-24T20:12:02.973Z</time>
      </trkpt>
      <trkpt lat="38.5381" lon="39.0662">
        <ele>1187.044561</ele>
        <time>2022-02-24T20:12:12.687Z</time>
      </trkpt>
      <trkpt lat="38.53812" lon="39.06597">
        <ele>1186.732807</ele>
        <time>2022-02-24T20:12:16.713Z</time>
      </trkpt>
      <trkpt lat="38.53963" lon="39.06372">
        <ele>1182.45052</ele>
        <time>2022-02-24T20:13:07.460Z</time>
      </trkpt>
      <trkpt lat="38.54043" lon="39.06279">
        <ele>1182.349768</ele>
        <time>2022-02-24T20:13:35.395Z</time>
      </trkpt>
      <trkpt lat="38.5399" lon="39.06239">
        <ele>1182.420885</ele>
        <time>2022-02-24T20:13:54.089Z</time>
      </trkpt>
      <trkpt lat="38.53888" lon="39.06183">
        <ele>1183.529029</ele>
        <time>2022-02-24T20:14:32.898Z</time>
      </trkpt>
      <trkpt lat="38.53824" lon="39.0617">
        <ele>1184.319729</ele>
        <time>2022-02-24T20:14:54.449Z</time>
      </trkpt>
      <trkpt lat="38.53693" lon="39.0613">
        <ele>1184.213737</ele>
        <time>2022-02-24T20:15:30.384Z</time>
      </trkpt>
      <trkpt lat="38.53604" lon="39.06108">
        <ele>1183.775346</ele>
        <time>2022-02-24T20:15:51.080Z</time>
      </trkpt>
      <trkpt lat="38.53568" lon="39.06104">
        <ele>1183.499652</ele>
        <time>2022-02-24T20:15:59.118Z</time>
      </trkpt>
      <trkpt lat="38.53539" lon="39.0611">
        <ele>1183.271037</ele>
        <time>2022-02-24T20:16:05.738Z</time>
      </trkpt>
      <trkpt lat="38.5354" lon="39.06086">
        <ele>1183.124198</ele>
        <time>2022-02-24T20:16:10.281Z</time>
      </trkpt>
      <trkpt lat="38.53535" lon="39.06069">
        <ele>1183.014651</ele>
        <time>2022-02-24T20:16:13.654Z</time>
      </trkpt>
      <trkpt lat="38.53427" lon="39.05876">
        <ele>1183.192605</ele>
        <time>2022-02-24T20:17:05.278Z</time>
      </trkpt>
      <trkpt lat="38.53418" lon="39.0585">
        <ele>1183.310916</ele>
        <time>2022-02-24T20:17:12.867Z</time>
      </trkpt>
      <trkpt lat="38.53427" lon="39.05788">
        <ele>1183.853448</ele>
        <time>2022-02-24T20:17:30.469Z</time>
      </trkpt>
      <trkpt lat="38.53425" lon="39.05702">
        <ele>1185.449856</ele>
        <time>2022-02-24T20:17:55.760Z</time>
      </trkpt>
      <trkpt lat="38.53437" lon="39.05603">
        <ele>1187.319212</ele>
        <time>2022-02-24T20:18:27.738Z</time>
      </trkpt>
      <trkpt lat="38.53413" lon="39.05542">
        <ele>1188.707555</ele>
        <time>2022-02-24T20:18:50.610Z</time>
      </trkpt>
      <trkpt lat="38.53386" lon="39.05472">
        <ele>1190.371258</ele>
        <time>2022-02-24T20:19:16.715Z</time>
      </trkpt>
      <trkpt lat="38.53366" lon="39.05467">
        <ele>1190.935944</ele>
        <time>2022-02-24T20:19:27.326Z</time>
      </trkpt>
      <trkpt lat="38.53334" lon="39.05457">
        <ele>1191.829616</ele>
        <time>2022-02-24T20:19:39.994Z</time>
      </trkpt>
      <trkpt lat="38.53306" lon="39.05423">
        <ele>1192.610422</ele>
        <time>2022-02-24T20:19:54.220Z</time>
      </trkpt>
      <trkpt lat="38.53287" lon="39.05398">
        <ele>1192.344683</ele>
        <time>2022-02-24T20:20:02.136Z</time>
      </trkpt>
      <trkpt lat="38.53278" lon="39.0536">
        <ele>1192.043232</ele>
        <time>2022-02-24T20:20:11.079Z</time>
      </trkpt>
      <trkpt lat="38.53266" lon="39.05344">
        <ele>1191.869812</ele>
        <time>2022-02-24T20:20:17.476Z</time>
      </trkpt>
      <trkpt lat="38.53255" lon="39.05371">
        <ele>1191.638972</ele>
        <time>2022-02-24T20:20:22.629Z</time>
      </trkpt>
      <trkpt lat="38.53222" lon="39.05456">
        <ele>1190.902936</ele>
        <time>2022-02-24T20:20:38.211Z</time>
      </trkpt>
      <trkpt lat="38.53162" lon="39.05505">
        <ele>1189.052028</ele>
        <time>2022-02-24T20:20:52.681Z</time>
      </trkpt>
      <trkpt lat="38.53154" lon="39.05512">
        <ele>1188.797131</ele>
        <time>2022-02-24T20:20:54.445Z</time>
      </trkpt>
      <trkpt lat="38.53128" lon="39.05508">
        <ele>1188.129536</ele>
        <time>2022-02-24T20:21:00.298Z</time>
      </trkpt>
      <trkpt lat="38.53103" lon="39.05486">
        <ele>1187.347475</ele>
        <time>2022-02-24T20:21:06.621Z</time>
      </trkpt>
      <trkpt lat="38.5303" lon="39.05351">
        <ele>1186.416097</ele>
        <time>2022-02-24T20:21:37.826Z</time>
      </trkpt>
      <trkpt lat="38.52985" lon="39.05245">
        <ele>1186.593369</ele>
        <time>2022-02-24T20:22:09.306Z</time>
      </trkpt>
      <trkpt lat="38.52951" lon="39.05089">
        <ele>1189.404349</ele>
        <time>2022-02-24T20:22:56.347Z</time>
      </trkpt>
      <trkpt lat="38.52941" lon="39.05061">
        <ele>1189.938794</ele>
        <time>2022-02-24T20:23:06.176Z</time>
      </trkpt>
      <trkpt lat="38.52932" lon="39.05003">
        <ele>1191.258203</ele>
        <time>2022-02-24T20:23:25.733Z</time>
      </trkpt>
      <trkpt lat="38.52843" lon="39.04767">
        <ele>1199.101696</ele>
        <time>2022-02-24T20:25:02.156Z</time>
      </trkpt>
      <trkpt lat="38.52809" lon="39.04715">
        <ele>1201.205457</ele>
        <time>2022-02-24T20:25:28.051Z</time>
      </trkpt>
      <trkpt lat="38.52764" lon="39.04677">
        <ele>1203.342688</ele>
        <time>2022-02-24T20:25:53.449Z</time>
      </trkpt>
      <trkpt lat="38.52699" lon="39.04602">
        <ele>1205.858578</ele>
        <time>2022-02-24T20:26:32.286Z</time>
      </trkpt>
      <trkpt lat="38.52604" lon="39.04527">
        <ele>1208.490161</ele>
        <time>2022-02-24T20:27:14.302Z</time>
      </trkpt>
      <trkpt lat="38.5256" lon="39.04484">
        <ele>1208.860034</ele>
        <time>2022-02-24T20:27:31.672Z</time>
      </trkpt>
      <trkpt lat="38.52536" lon="39.04462">
        <ele>1208.959474</ele>
        <time>2022-02-24T20:27:40.426Z</time>
      </trkpt>
      <trkpt lat="38.52513" lon="39.04435">
        <ele>1209.065645</ele>
        <time>2022-02-24T20:27:49.496Z</time>
      </trkpt>
      <trkpt lat="38.52463" lon="39.04397">
        <ele>1209.258554</ele>
        <time>2022-02-24T20:28:05.296Z</time>
      </trkpt>
      <trkpt lat="38.52419" lon="39.04377">
        <ele>1209.077712</ele>
        <time>2022-02-24T20:28:17.442Z</time>
      </trkpt>
      <trkpt lat="38.52367" lon="39.04348">
        <ele>1208.650515</ele>
        <time>2022-02-24T20:28:31.889Z</time>
      </trkpt>
      <trkpt lat="38.52353" lon="39.04336">
        <ele>1208.523009</ele>
        <time>2022-02-24T20:28:36.256Z</time>
      </trkpt>
      <trkpt lat="38.52283" lon="39.04302">
        <ele>1207.957693</ele>
        <time>2022-02-24T20:28:54.620Z</time>
      </trkpt>
      <trkpt lat="38.52113" lon="39.04223">
        <ele>1205.058314</ele>
        <time>2022-02-24T20:29:35.952Z</time>
      </trkpt>
      <trkpt lat="38.52007" lon="39.04197">
        <ele>1202.2748</ele>
        <time>2022-02-24T20:29:58.835Z</time>
      </trkpt>
      <trkpt lat="38.52" lon="39.04193">
        <ele>1202.064542</ele>
        <time>2022-02-24T20:30:00.465Z</time>
      </trkpt>
      <trkpt lat="38.51931" lon="39.0416">
        <ele>1200.194233</ele>
        <time>2022-02-24T20:30:15.790Z</time>
      </trkpt>
      <trkpt lat="38.51812" lon="39.04115">
        <ele>1197.214162</ele>
        <time>2022-02-24T20:30:42.132Z</time>
      </trkpt>
      <trkpt lat="38.51771" lon="39.04116">
        <ele>1196.231058</ele>
        <time>2022-02-24T20:30:51.311Z</time>
      </trkpt>
      <trkpt lat="38.51718" lon="39.041">
        <ele>1195.780527</ele>
        <time>2022-02-24T20:31:04.005Z</time>
      </trkpt>
      <trkpt lat="38.51694" lon="39.0408">
        <ele>1195.577986</ele>
        <time>2022-02-24T20:31:10.990Z</time>
      </trkpt>
      <trkpt lat="38.51672" lon="39.04027">
        <ele>1195.251844</ele>
        <time>2022-02-24T20:31:22.842Z</time>
      </trkpt>
      <trkpt lat="38.5165" lon="39.04024">
        <ele>1195.095844</ele>
        <time>2022-02-24T20:31:28.730Z</time>
      </trkpt>
      <trkpt lat="38.51582" lon="39.03993">
        <ele>1195.134964</ele>
        <time>2022-02-24T20:31:49.768Z</time>
      </trkpt>
      <trkpt lat="38.51546" lon="39.03971">
        <ele>1195.397333</ele>
        <time>2022-02-24T20:32:02.042Z</time>
      </trkpt>
      <trkpt lat="38.51507" lon="39.03938">
        <ele>1195.706629</ele>
        <time>2022-02-24T20:32:16.669Z</time>
      </trkpt>
      <trkpt lat="38.51471" lon="39.03891">
        <ele>1196.047653</ele>
        <time>2022-02-24T20:32:33.306Z</time>
      </trkpt>
      <trkpt lat="38.51426" lon="39.03856">
        <ele>1196.844956</ele>
        <time>2022-02-24T20:32:50.484Z</time>
      </trkpt>
      <trkpt lat="38.51379" lon="39.03802">
        <ele>1197.835615</ele>
        <time>2022-02-24T20:33:13.359Z</time>
      </trkpt>
      <trkpt lat="38.51353" lon="39.03771">
        <ele>1198.382919</ele>
        <time>2022-02-24T20:33:26.200Z</time>
      </trkpt>
      <trkpt lat="38.51329" lon="39.03744">
        <ele>1198.895086</ele>
        <time>2022-02-24T20:33:38.035Z</time>
      </trkpt>
      <trkpt lat="38.51308" lon="39.03725">
        <ele>1199.404219</ele>
        <time>2022-02-24T20:33:47.632Z</time>
      </trkpt>
      <trkpt lat="38.51294" lon="39.03707">
        <ele>1199.785436</ele>
        <time>2022-02-24T20:33:55.238Z</time>
      </trkpt>
      <trkpt lat="38.51279" lon="39.03663">
        <ele>1200.531243</ele>
        <time>2022-02-24T20:34:09.932Z</time>
      </trkpt>
      <trkpt lat="38.51247" lon="39.03608">
        <ele>1201.599357</ele>
        <time>2022-02-24T20:34:31.243Z</time>
      </trkpt>
      <trkpt lat="38.51226" lon="39.03602">
        <ele>1202.01636</ele>
        <time>2022-02-24T20:34:40.101Z</time>
      </trkpt>
      <trkpt lat="38.51138" lon="39.03497">
        <ele>1202.171458</ele>
        <time>2022-02-24T20:35:16.599Z</time>
      </trkpt>
      <trkpt lat="38.51121" lon="39.03482">
        <ele>1202.122912</ele>
        <time>2022-02-24T20:35:22.145Z</time>
      </trkpt>
      <trkpt lat="38.51113" lon="39.03485">
        <ele>1202.103179</ele>
        <time>2022-02-24T20:35:24.048Z</time>
      </trkpt>
      <trkpt lat="38.51103" lon="39.0349">
        <ele>1202.078644</ele>
        <time>2022-02-24T20:35:26.297Z</time>
      </trkpt>
      <trkpt lat="38.51087" lon="39.03498">
        <ele>1202.039023</ele>
        <time>2022-02-24T20:35:30.666Z</time>
      </trkpt>
      <trkpt lat="38.51067" lon="39.03502">
        <ele>1201.990227</ele>
        <time>2022-02-24T20:35:35.130Z</time>
      </trkpt>
      <trkpt lat="38.51032" lon="39.03528">
        <ele>1200.877027</ele>
        <time>2022-02-24T20:35:43.904Z</time>
      </trkpt>
      <trkpt lat="38.51002" lon="39.03538">
        <ele>1199.961245</ele>
        <time>2022-02-24T20:35:50.585Z</time>
      </trkpt>
      <trkpt lat="38.50957" lon="39.0358">
        <ele>1198.35959</ele>
        <time>2022-02-24T20:36:02.029Z</time>
      </trkpt>
      <trkpt lat="38.5085" lon="39.03652">
        <ele>1195.743323</ele>
        <time>2022-02-24T20:36:26.238Z</time>
      </trkpt>
      <trkpt lat="38.50823" lon="39.03665">
        <ele>1195.297472</ele>
        <time>2022-02-24T20:36:32.768Z</time>
      </trkpt>
      <trkpt lat="38.50816" lon="39.03674">
        <ele>1195.133924</ele>
        <time>2022-02-24T20:36:34.951Z</time>
      </trkpt>
      <trkpt lat="38.50826" lon="39.03691">
        <ele>1194.876738</ele>
        <time>2022-02-24T20:36:38.885Z</time>
      </trkpt>
      <trkpt lat="38.50842" lon="39.0374">
        <ele>1194.230838</ele>
        <time>2022-02-24T20:36:50.353Z</time>
      </trkpt>
      <trkpt lat="38.50839" lon="39.03789">
        <ele>1195.298031</ele>
        <time>2022-02-24T20:37:03.674Z</time>
      </trkpt>
      <trkpt lat="38.50836" lon="39.03799">
        <ele>1195.785094</ele>
        <time>2022-02-24T20:37:05.874Z</time>
      </trkpt>
      <trkpt lat="38.50808" lon="39.03773">
        <ele>1197.828275</ele>
        <time>2022-02-24T20:37:21.154Z</time>
      </trkpt>
      <trkpt lat="38.50764" lon="39.0374">
        <ele>1200.874686</ele>
        <time>2022-02-24T20:37:49.981Z</time>
      </trkpt>
      <trkpt lat="38.50743" lon="39.03738">
        <ele>1202.114697</ele>
        <time>2022-02-24T20:38:03.335Z</time>
      </trkpt>
      <trkpt lat="38.50719" lon="39.03755">
        <ele>1203.740901</ele>
        <time>2022-02-24T20:38:24.697Z</time>
      </trkpt>
      <trkpt lat="38.50691" lon="39.03745">
        <ele>1206.48213</ele>
        <time>2022-02-24T20:38:47.399Z</time>
      </trkpt>
      <trkpt lat="38.50665" lon="39.03719">
        <ele>1210.953783</ele>
        <time>2022-02-24T20:39:16.747Z</time>
      </trkpt>
      <trkpt lat="38.50629" lon="39.03717">
        <ele>1215.799764</ele>
        <time>2022-02-24T20:39:49.314Z</time>
      </trkpt>
      <trkpt lat="38.50614" lon="39.03707">
        <ele>1218.054618</ele>
        <time>2022-02-24T20:40:04.985Z</time>
      </trkpt>
      <trkpt lat="38.50515" lon="39.0356">
        <ele>1240.03405</ele>
        <time>2022-02-24T20:42:38.305Z</time>
      </trkpt>
      <trkpt lat="38.50495" lon="39.03542">
        <ele>1243.847955</ele>
        <time>2022-02-24T20:43:04.256Z</time>
      </trkpt>
      <trkpt lat="38.50428" lon="39.03505">
        <ele>1255.181727</ele>
        <time>2022-02-24T20:44:20.803Z</time>
      </trkpt>
      <trkpt lat="38.50363" lon="39.0343">
        <ele>1267.436491</ele>
        <time>2022-02-24T20:45:49.935Z</time>
      </trkpt>
      <trkpt lat="38.50327" lon="39.03408">
        <ele>1272.844473</ele>
        <time>2022-02-24T20:46:27.873Z</time>
      </trkpt>
      <trkpt lat="38.50217" lon="39.03316">
        <ele>1288.022789</ele>
        <time>2022-02-24T20:48:15.694Z</time>
      </trkpt>
      <trkpt lat="38.502" lon="39.03292">
        <ele>1290.412941</ele>
        <time>2022-02-24T20:48:33.277Z</time>
      </trkpt>
      <trkpt lat="38.50168" lon="39.03229">
        <ele>1296.18279</ele>
        <time>2022-02-24T20:49:14.337Z</time>
      </trkpt>
      <trkpt lat="38.50122" lon="39.03173">
        <ele>1301.977659</ele>
        <time>2022-02-24T20:49:57.429Z</time>
      </trkpt>
      <trkpt lat="38.50105" lon="39.03163">
        <ele>1303.67185</ele>
        <time>2022-02-24T20:50:10.493Z</time>
      </trkpt>
      <trkpt lat="38.50044" lon="39.03149">
        <ele>1309.133475</ele>
        <time>2022-02-24T20:50:53.441Z</time>
      </trkpt>
      <trkpt lat="38.5002" lon="39.03136">
        <ele>1311.350267</ele>
        <time>2022-02-24T20:51:11.633Z</time>
      </trkpt>
      <trkpt lat="38.49973" lon="39.03089">
        <ele>1316.470777</ele>
        <time>2022-02-24T20:51:55.236Z</time>
      </trkpt>
      <trkpt lat="38.49944" lon="39.03084">
        <ele>1318.862198</ele>
        <time>2022-02-24T20:52:16.704Z</time>
      </trkpt>
      <trkpt lat="38.49881" lon="39.03094">
        <ele>1324.001437</ele>
        <time>2022-02-24T20:53:02.601Z</time>
      </trkpt>
      <trkpt lat="38.49779" lon="39.03089">
        <ele>1330.053007</ele>
        <time>2022-02-24T20:54:02.676Z</time>
      </trkpt>
      <trkpt lat="38.49753" lon="39.03079">
        <ele>1330.630558</ele>
        <time>2022-02-24T20:54:15.464Z</time>
      </trkpt>
      <trkpt lat="38.49677" lon="39.03055">
        <ele>1332.243571</ele>
        <time>2022-02-24T20:54:54.697Z</time>
      </trkpt>
      <trkpt lat="38.49581" lon="39.03035">
        <ele>1331.093162</ele>
        <time>2022-02-24T20:55:31.738Z</time>
      </trkpt>
      <trkpt lat="38.49407" lon="39.03008">
        <ele>1325.194445</ele>
        <time>2022-02-24T20:56:31.464Z</time>
      </trkpt>
      <trkpt lat="38.4939" lon="39.03003">
        <ele>1324.522752</ele>
        <time>2022-02-24T20:56:37.499Z</time>
      </trkpt>
      <trkpt lat="38.4934" lon="39.02993">
        <ele>1322.645438</ele>
        <time>2022-02-24T20:56:47.576Z</time>
      </trkpt>
      <trkpt lat="38.49306" lon="39.02986">
        <ele>1321.324269</ele>
        <time>2022-02-24T20:56:54.652Z</time>
      </trkpt>
      <trkpt lat="38.49272" lon="39.02974">
        <ele>1320.102453</ele>
        <time>2022-02-24T20:57:01.800Z</time>
      </trkpt>
      <trkpt lat="38.49227" lon="39.02955">
        <ele>1318.665246</ele>
        <time>2022-02-24T20:57:11.556Z</time>
      </trkpt>
      <trkpt lat="38.49088" lon="39.02876">
        <ele>1313.800244</ele>
        <time>2022-02-24T20:57:43.408Z</time>
      </trkpt>
      <trkpt lat="38.48965" lon="39.02793">
        <ele>1308.611406</ele>
        <time>2022-02-24T20:58:11.036Z</time>
      </trkpt>
      <trkpt lat="38.48863" lon="39.027">
        <ele>1303.732007</ele>
        <time>2022-02-24T20:58:35.159Z</time>
      </trkpt>
      <trkpt lat="38.48816" lon="39.02635">
        <ele>1301.211419</ele>
        <time>2022-02-24T20:58:49.298Z</time>
      </trkpt>
      <trkpt lat="38.48806" lon="39.02628">
        <ele>1301.074598</ele>
        <time>2022-02-24T20:58:51.898Z</time>
      </trkpt>
      <trkpt lat="38.48788" lon="39.02624">
        <ele>1300.857202</ele>
        <time>2022-02-24T20:58:55.710Z</time>
      </trkpt>
      <trkpt lat="38.48766" lon="39.02606">
        <ele>1300.552884</ele>
        <time>2022-02-24T20:59:01.631Z</time>
      </trkpt>
      <trkpt lat="38.48721" lon="39.02559">
        <ele>1299.860392</ele>
        <time>2022-02-24T20:59:15.670Z</time>
      </trkpt>
      <trkpt lat="38.48647" lon="39.0247">
        <ele>1299.356767</ele>
        <time>2022-02-24T20:59:44.761Z</time>
      </trkpt>
      <trkpt lat="38.48528" lon="39.02353">
        <ele>1299.928662</ele>
        <time>2022-02-24T21:00:30.825Z</time>
      </trkpt>
      <trkpt lat="38.48457" lon="39.02271">
        <ele>1299.851117</ele>
        <time>2022-02-24T21:00:58.028Z</time>
      </trkpt>
      <trkpt lat="38.48428" lon="39.02249">
        <ele>1299.823621</ele>
        <time>2022-02-24T21:01:07.182Z</time>
      </trkpt>
      <trkpt lat="38.48381" lon="39.02223">
        <ele>1299.54618</ele>
        <time>2022-02-24T21:01:20.430Z</time>
      </trkpt>
      <trkpt lat="38.4827" lon="39.02139">
        <ele>1297.2804</ele>
        <time>2022-02-24T21:01:50.026Z</time>
      </trkpt>
      <trkpt lat="38.48204" lon="39.02072">
        <ele>1294.681306</ele>
        <time>2022-02-24T21:02:07.608Z</time>
      </trkpt>
      <trkpt lat="38.48079" lon="39.01969">
        <ele>1288.707244</ele>
        <time>2022-02-24T21:02:36.333Z</time>
      </trkpt>
      <trkpt lat="38.48042" lon="39.01922">
        <ele>1286.721985</ele>
        <time>2022-02-24T21:02:46.463Z</time>
      </trkpt>
      <trkpt lat="38.48031" lon="39.01898">
        <ele>1285.899714</ele>
        <time>2022-02-24T21:02:50.625Z</time>
      </trkpt>
      <trkpt lat="38.48021" lon="39.0188">
        <ele>1285.246281</ele>
        <time>2022-02-24T21:02:54.094Z</time>
      </trkpt>
      <trkpt lat="38.4799" lon="39.01855">
        <ele>1283.852637</ele>
        <time>2022-02-24T21:03:01.604Z</time>
      </trkpt>
      <trkpt lat="38.47935" lon="39.01834">
        <ele>1282.110008</ele>
        <time>2022-02-24T21:03:13.505Z</time>
      </trkpt>
      <trkpt lat="38.4792" lon="39.01822">
        <ele>1281.776788</ele>
        <time>2022-02-24T21:03:17.370Z</time>
      </trkpt>
      <trkpt lat="38.47919" lon="39.01808">
        <ele>1281.573644</ele>
        <time>2022-02-24T21:03:19.566Z</time>
      </trkpt>
      <trkpt lat="38.47949" lon="39.01822">
        <ele>1280.957942</ele>
        <time>2022-02-24T21:03:32.169Z</time>
      </trkpt>
      <trkpt lat="38.47967" lon="39.0183">
        <ele>1280.61344</ele>
        <time>2022-02-24T21:03:39.744Z</time>
      </trkpt>
      <trkpt lat="38.47921" lon="39.01682">
        <ele>1278.365661</ele>
        <time>2022-02-24T21:04:08.507Z</time>
      </trkpt>
      <trkpt lat="38.47878" lon="39.01567">
        <ele>1276.674293</ele>
        <time>2022-02-24T21:04:30.999Z</time>
      </trkpt>
      <trkpt lat="38.47832" lon="39.01444">
        <ele>1274.810808</ele>
        <time>2022-02-24T21:04:55.005Z</time>
      </trkpt>
      <trkpt lat="38.4778" lon="39.01296">
        <ele>1272.582491</ele>
        <time>2022-02-24T21:05:23.744Z</time>
      </trkpt>
      <trkpt lat="38.47772" lon="39.01281">
        <ele>1272.343984</ele>
        <time>2022-02-24T21:05:26.743Z</time>
      </trkpt>
      <trkpt lat="38.4774" lon="39.01288">
        <ele>1271.780211</ele>
        <time>2022-02-24T21:05:34.243Z</time>
      </trkpt>
      <trkpt lat="38.47722" lon="39.01282">
        <ele>1271.467421</ele>
        <time>2022-02-24T21:05:38.424Z</time>
      </trkpt>
      <trkpt lat="38.47701" lon="39.01287">
        <ele>1271.096511</ele>
        <time>2022-02-24T21:05:43.191Z</time>
      </trkpt>
      <trkpt lat="38.47643" lon="39.01267">
        <ele>1270.081791</ele>
        <time>2022-02-24T21:05:56.824Z</time>
      </trkpt>
      <trkpt lat="38.47618" lon="39.01225">
        <ele>1269.641356</ele>
        <time>2022-02-24T21:06:06.409Z</time>
      </trkpt>
      <trkpt lat="38.47617" lon="39.01204">
        <ele>1269.509382</ele>
        <time>2022-02-24T21:06:10.507Z</time>
      </trkpt>
      <trkpt lat="38.47602" lon="39.01202">
        <ele>1269.394746</ele>
        <time>2022-02-24T21:06:13.933Z</time>
      </trkpt>
      <trkpt lat="38.47606" lon="39.01058">
        <ele>1268.496595</ele>
        <time>2022-02-24T21:06:41.214Z</time>
      </trkpt>
      <trkpt lat="38.47608" lon="39.00938">
        <ele>1267.73538</ele>
        <time>2022-02-24T21:07:04.932Z</time>
      </trkpt>
      <trkpt lat="38.4761" lon="39.00853">
        <ele>1267.199964</ele>
        <time>2022-02-24T21:07:20.587Z</time>
      </trkpt>
      <trkpt lat="38.47629" lon="39.00113">
        <ele>1256.981119</ele>
        <time>2022-02-24T21:09:24.794Z</time>
      </trkpt>
      <trkpt lat="38.47632" lon="38.9998">
        <ele>1255.061711</ele>
        <time>2022-02-24T21:09:46.750Z</time>
      </trkpt>
      <trkpt lat="38.47635" lon="38.99883">
        <ele>1253.792008</ele>
        <time>2022-02-24T21:10:02.850Z</time>
      </trkpt>
      <trkpt lat="38.47639" lon="38.99736">
        <ele>1252.937349</ele>
        <time>2022-02-24T21:10:29.315Z</time>
      </trkpt>
      <trkpt lat="38.47652" lon="38.9924">
        <ele>1253.77422</ele>
        <time>2022-02-24T21:12:22.760Z</time>
      </trkpt>
      <trkpt lat="38.47654" lon="38.99149">
        <ele>1252.401764</ele>
        <time>2022-02-24T21:12:39.712Z</time>
      </trkpt>
      <trkpt lat="38.47682" lon="38.98069">
        <ele>1227.333206</ele>
        <time>2022-02-24T21:15:25.559Z</time>
      </trkpt>
      <trkpt lat="38.47689" lon="38.97954">
        <ele>1225.817331</ele>
        <time>2022-02-24T21:15:44.403Z</time>
      </trkpt>
      <trkpt lat="38.47694" lon="38.97793">
        <ele>1224.120732</ele>
        <time>2022-02-24T21:16:13.858Z</time>
      </trkpt>
      <trkpt lat="38.477" lon="38.97606">
        <ele>1223.162486</ele>
        <time>2022-02-24T21:16:51.097Z</time>
      </trkpt>
      <trkpt lat="38.47706" lon="38.97429">
        <ele>1219.669573</ele>
        <time>2022-02-24T21:17:21.013Z</time>
      </trkpt>
      <trkpt lat="38.47728" lon="38.96576">
        <ele>1186.292421</ele>
        <time>2022-02-24T21:19:21.403Z</time>
      </trkpt>
      <trkpt lat="38.47738" lon="38.96216">
        <ele>1170.331518</ele>
        <time>2022-02-24T21:20:11.341Z</time>
      </trkpt>
      <trkpt lat="38.47743" lon="38.96032">
        <ele>1163.035033</ele>
        <time>2022-02-24T21:20:37.532Z</time>
      </trkpt>
      <trkpt lat="38.47746" lon="38.95956">
        <ele>1160.149317</ele>
        <time>2022-02-24T21:20:48.308Z</time>
      </trkpt>
      <trkpt lat="38.47734" lon="38.9583">
        <ele>1155.471488</ele>
        <time>2022-02-24T21:21:06.336Z</time>
      </trkpt>
      <trkpt lat="38.47724" lon="38.95781">
        <ele>1153.610231</ele>
        <time>2022-02-24T21:21:13.642Z</time>
      </trkpt>
      <trkpt lat="38.47715" lon="38.95738">
        <ele>1152.303548</ele>
        <time>2022-02-24T21:21:20.337Z</time>
      </trkpt>
      <trkpt lat="38.47701" lon="38.95677">
        <ele>1150.694493</ele>
        <time>2022-02-24T21:21:29.718Z</time>
      </trkpt>
      <trkpt lat="38.47654" lon="38.95556">
        <ele>1147.218377</ele>
        <time>2022-02-24T21:21:50.792Z</time>
      </trkpt>
      <trkpt lat="38.47635" lon="38.95457">
        <ele>1144.879694</ele>
        <time>2022-02-24T21:22:07.203Z</time>
      </trkpt>
      <trkpt lat="38.47627" lon="38.95376">
        <ele>1143.025422</ele>
        <time>2022-02-24T21:22:19.822Z</time>
      </trkpt>
      <trkpt lat="38.47632" lon="38.95203">
        <ele>1137.909321</ele>
        <time>2022-02-24T21:22:45.633Z</time>
      </trkpt>
      <trkpt lat="38.47656" lon="38.94805">
        <ele>1124.118486</ele>
        <time>2022-02-24T21:23:43.258Z</time>
      </trkpt>
      <trkpt lat="38.47688" lon="38.94361">
        <ele>1109.062547</ele>
        <time>2022-02-24T21:24:48.207Z</time>
      </trkpt>
      <trkpt lat="38.47707" lon="38.94153">
        <ele>1101.757127</ele>
        <time>2022-02-24T21:25:18.734Z</time>
      </trkpt>
      <trkpt lat="38.47708" lon="38.94136">
        <ele>1101.116582</ele>
        <time>2022-02-24T21:25:21.069Z</time>
      </trkpt>
      <trkpt lat="38.47715" lon="38.94038">
        <ele>1097.267366</ele>
        <time>2022-02-24T21:25:35.060Z</time>
      </trkpt>
      <trkpt lat="38.47715" lon="38.93871">
        <ele>1091.463001</ele>
        <time>2022-02-24T21:25:58.563Z</time>
      </trkpt>
      <trkpt lat="38.47709" lon="38.93718">
        <ele>1086.816176</ele>
        <time>2022-02-24T21:26:21.719Z</time>
      </trkpt>
      <trkpt lat="38.47688" lon="38.93407">
        <ele>1080.639514</ele>
        <time>2022-02-24T21:27:12.748Z</time>
      </trkpt>
      <trkpt lat="38.47672" lon="38.93187">
        <ele>1074.551513</ele>
        <time>2022-02-24T21:27:46.123Z</time>
      </trkpt>
      <trkpt lat="38.47644" lon="38.92833">
        <ele>1060.827993</ele>
        <time>2022-02-24T21:28:36.334Z</time>
      </trkpt>
      <trkpt lat="38.47626" lon="38.92608">
        <ele>1051.201895</ele>
        <time>2022-02-24T21:29:07.977Z</time>
      </trkpt>
      <trkpt lat="38.47608" lon="38.92314">
        <ele>1037.948015</ele>
        <time>2022-02-24T21:29:49.020Z</time>
      </trkpt>
      <trkpt lat="38.47587" lon="38.9213">
        <ele>1029.514881</ele>
        <time>2022-02-24T21:30:14.455Z</time>
      </trkpt>
      <trkpt lat="38.4758" lon="38.92065">
        <ele>1027.62749</ele>
        <time>2022-02-24T21:30:23.955Z</time>
      </trkpt>
      <trkpt lat="38.47574" lon="38.92031">
        <ele>1026.680878</ele>
        <time>2022-02-24T21:30:28.963Z</time>
      </trkpt>
      <trkpt lat="38.47558" lon="38.91931">
        <ele>1023.859447</ele>
        <time>2022-02-24T21:30:44.967Z</time>
      </trkpt>
      <trkpt lat="38.47527" lon="38.91771">
        <ele>1020.589762</ele>
        <time>2022-02-24T21:31:12.841Z</time>
      </trkpt>
      <trkpt lat="38.47515" lon="38.91721">
        <ele>1019.654959</ele>
        <time>2022-02-24T21:31:21.268Z</time>
      </trkpt>
      <trkpt lat="38.47491" lon="38.91626">
        <ele>1016.924043</ele>
        <time>2022-02-24T21:31:36.477Z</time>
      </trkpt>
      <trkpt lat="38.47466" lon="38.91535">
        <ele>1013.646559</ele>
        <time>2022-02-24T21:31:50.438Z</time>
      </trkpt>
      <trkpt lat="38.47448" lon="38.9148">
        <ele>1011.605234</ele>
        <time>2022-02-24T21:31:58.846Z</time>
      </trkpt>
      <trkpt lat="38.47422" lon="38.91398">
        <ele>1007.892593</ele>
        <time>2022-02-24T21:32:11.298Z</time>
      </trkpt>
      <trkpt lat="38.47268" lon="38.90987">
        <ele>987.849826</ele>
        <time>2022-02-24T21:33:14.416Z</time>
      </trkpt>
      <trkpt lat="38.47107" lon="38.90555">
        <ele>972.154707</ele>
        <time>2022-02-24T21:34:23.536Z</time>
      </trkpt>
      <trkpt lat="38.4702" lon="38.90328">
        <ele>969.917218</ele>
        <time>2022-02-24T21:35:11.381Z</time>
      </trkpt>
      <trkpt lat="38.46974" lon="38.90207">
        <ele>970.039215</ele>
        <time>2022-02-24T21:35:44.805Z</time>
      </trkpt>
      <trkpt lat="38.46931" lon="38.90082">
        <ele>969.67887</ele>
        <time>2022-02-24T21:36:15.988Z</time>
      </trkpt>
      <trkpt lat="38.46861" lon="38.89893">
        <ele>966.41808</ele>
        <time>2022-02-24T21:36:50.231Z</time>
      </trkpt>
      <trkpt lat="38.46856" lon="38.8988">
        <ele>966.077208</ele>
        <time>2022-02-24T21:36:52.343Z</time>
      </trkpt>
      <trkpt lat="38.46352" lon="38.8854">
        <ele>917.55753</ele>
        <time>2022-02-24T21:40:29.537Z</time>
      </trkpt>
      <trkpt lat="38.46333" lon="38.88487">
        <ele>915.256159</ele>
        <time>2022-02-24T21:40:37.874Z</time>
      </trkpt>
      <trkpt lat="38.46303" lon="38.88394">
        <ele>911.298564</ele>
        <time>2022-02-24T21:40:52.188Z</time>
      </trkpt>
      <trkpt lat="38.46256" lon="38.88257">
        <ele>903.734923</ele>
        <time>2022-02-24T21:41:12.790Z</time>
      </trkpt>
      <trkpt lat="38.46221" lon="38.88143">
        <ele>896.995123</ele>
        <time>2022-02-24T21:41:29.005Z</time>
      </trkpt>
      <trkpt lat="38.46212" lon="38.88107">
        <ele>894.416456</ele>
        <time>2022-02-24T21:41:33.894Z</time>
      </trkpt>
      <trkpt lat="38.46176" lon="38.87952">
        <ele>883.168368</ele>
        <time>2022-02-24T21:41:54.827Z</time>
      </trkpt>
      <trkpt lat="38.46173" lon="38.8793">
        <ele>881.613563</ele>
        <time>2022-02-24T21:41:57.660Z</time>
      </trkpt>
      <trkpt lat="38.46153" lon="38.87815">
        <ele>874.3717</ele>
        <time>2022-02-24T21:42:13.247Z</time>
      </trkpt>
      <trkpt lat="38.46138" lon="38.87701">
        <ele>867.327707</ele>
        <time>2022-02-24T21:42:28.564Z</time>
      </trkpt>
      <trkpt lat="38.46123" lon="38.87519">
        <ele>858.130005</ele>
        <time>2022-02-24T21:42:53.472Z</time>
      </trkpt>
      <trkpt lat="38.46116" lon="38.87385">
        <ele>852.620463</ele>
        <time>2022-02-24T21:43:12.234Z</time>
      </trkpt>
      <trkpt lat="38.46119" lon="38.872">
        <ele>846.330091</ele>
        <time>2022-02-24T21:43:39.517Z</time>
      </trkpt>
      <trkpt lat="38.46117" lon="38.87128">
        <ele>844.320132</ele>
        <time>2022-02-24T21:43:50.499Z</time>
      </trkpt>
      <trkpt lat="38.4608" lon="38.86789">
        <ele>834.599893</ele>
        <time>2022-02-24T21:44:42.084Z</time>
      </trkpt>
      <trkpt lat="38.4606" lon="38.86689">
        <ele>830.981613</ele>
        <time>2022-02-24T21:44:57.113Z</time>
      </trkpt>
      <trkpt lat="38.4604" lon="38.86625">
        <ele>828.559108</ele>
        <time>2022-02-24T21:45:06.899Z</time>
      </trkpt>
      <trkpt lat="38.46024" lon="38.86576">
        <ele>826.667579</ele>
        <time>2022-02-24T21:45:14.486Z</time>
      </trkpt>
      <trkpt lat="38.45983" lon="38.86461">
        <ele>821.865352</ele>
        <time>2022-02-24T21:45:32.373Z</time>
      </trkpt>
      <trkpt lat="38.45931" lon="38.8631">
        <ele>816.084357</ele>
        <time>2022-02-24T21:45:55.999Z</time>
      </trkpt>
      <trkpt lat="38.45889" lon="38.86193">
        <ele>812.673786</ele>
        <time>2022-02-24T21:46:15.026Z</time>
      </trkpt>
      <trkpt lat="38.45828" lon="38.86011">
        <ele>809.327938</ele>
        <time>2022-02-24T21:46:49.311Z</time>
      </trkpt>
      <trkpt lat="38.45737" lon="38.85731">
        <ele>804.81989</ele>
        <time>2022-02-24T21:47:40.402Z</time>
      </trkpt>
      <trkpt lat="38.45733" lon="38.85714">
        <ele>804.533206</ele>
        <time>2022-02-24T21:47:42.932Z</time>
      </trkpt>
      <trkpt lat="38.4571" lon="38.85658">
        <ele>803.254495</ele>
        <time>2022-02-24T21:47:52.838Z</time>
      </trkpt>
      <trkpt lat="38.45706" lon="38.85648">
        <ele>803.026339</ele>
        <time>2022-02-24T21:47:54.581Z</time>
      </trkpt>
      <trkpt lat="38.45698" lon="38.85633">
        <ele>802.677684</ele>
        <time>2022-02-24T21:47:57.198Z</time>
      </trkpt>
      <trkpt lat="38.45596" lon="38.8543">
        <ele>798.093102</ele>
        <time>2022-02-24T21:48:36.276Z</time>
      </trkpt>
      <trkpt lat="38.45483" lon="38.85233">
        <ele>791.714535</ele>
        <time>2022-02-24T21:49:15.876Z</time>
      </trkpt>
      <trkpt lat="38.45406" lon="38.85106">
        <ele>784.698255</ele>
        <time>2022-02-24T21:49:37.622Z</time>
      </trkpt>
      <trkpt lat="38.45309" lon="38.8493">
        <ele>773.232319</ele>
        <time>2022-02-24T21:50:05.595Z</time>
      </trkpt>
      <trkpt lat="38.45278" lon="38.84881">
        <ele>772.663542</ele>
        <time>2022-02-24T21:50:14.837Z</time>
      </trkpt>
      <trkpt lat="38.45281" lon="38.84871">
        <ele>772.572934</ele>
        <time>2022-02-24T21:50:17.138Z</time>
      </trkpt>
      <trkpt lat="38.45281" lon="38.84861">
        <ele>772.481613</ele>
        <time>2022-02-24T21:50:18.840Z</time>
      </trkpt>
      <trkpt lat="38.45279" lon="38.84852">
        <ele>772.390505</ele>
        <time>2022-02-24T21:50:21.169Z</time>
      </trkpt>
      <trkpt lat="38.45274" lon="38.84844">
        <ele>772.300776</ele>
        <time>2022-02-24T21:50:23.013Z</time>
      </trkpt>
      <trkpt lat="38.45184" lon="38.84629">
        <ele>775.172339</ele>
        <time>2022-02-24T21:51:57.493Z</time>
      </trkpt>
      <trkpt lat="38.45026" lon="38.84243">
        <ele>775.048355</ele>
        <time>2022-02-24T21:53:25.741Z</time>
      </trkpt>
      <trkpt lat="38.44706" lon="38.83456">
        <ele>762.202736</ele>
        <time>2022-02-24T21:55:59.972Z</time>
      </trkpt>
      <trkpt lat="38.44448" lon="38.82841">
        <ele>751.584299</ele>
        <time>2022-02-24T21:58:01.357Z</time>
      </trkpt>
      <trkpt lat="38.44317" lon="38.82513">
        <ele>745.972161</ele>
        <time>2022-02-24T21:59:05.443Z</time>
      </trkpt>
      <trkpt lat="38.44196" lon="38.82183">
        <ele>741.400792</ele>
        <time>2022-02-24T22:00:10.019Z</time>
      </trkpt>
      <trkpt lat="38.44148" lon="38.82071">
        <ele>740.291943</ele>
        <time>2022-02-24T22:00:33.486Z</time>
      </trkpt>
      <trkpt lat="38.44102" lon="38.8194">
        <ele>739.490163</ele>
        <time>2022-02-24T22:01:01.928Z</time>
      </trkpt>
      <trkpt lat="38.43949" lon="38.81535">
        <ele>733.356785</ele>
        <time>2022-02-24T22:02:20.033Z</time>
      </trkpt>
      <trkpt lat="38.43929" lon="38.81492">
        <ele>732.2408</ele>
        <time>2022-02-24T22:02:27.155Z</time>
      </trkpt>
      <trkpt lat="38.43894" lon="38.81419">
        <ele>728.179711</ele>
        <time>2022-02-24T22:02:38.856Z</time>
      </trkpt>
      <trkpt lat="38.43843" lon="38.81344">
        <ele>723.434448</ele>
        <time>2022-02-24T22:02:52.050Z</time>
      </trkpt>
      <trkpt lat="38.43802" lon="38.81306">
        <ele>720.75564</ele>
        <time>2022-02-24T22:03:01.061Z</time>
      </trkpt>
      <trkpt lat="38.43728" lon="38.81261">
        <ele>717.531687</ele>
        <time>2022-02-24T22:03:16.444Z</time>
      </trkpt>
      <trkpt lat="38.4369" lon="38.81238">
        <ele>715.8772</ele>
        <time>2022-02-24T22:03:24.617Z</time>
      </trkpt>
      <trkpt lat="38.43602" lon="38.81184">
        <ele>714.492478</ele>
        <time>2022-02-24T22:03:44.102Z</time>
      </trkpt>
      <trkpt lat="38.43468" lon="38.81136">
        <ele>715.477071</ele>
        <time>2022-02-24T22:04:31.263Z</time>
      </trkpt>
      <trkpt lat="38.43396" lon="38.8111">
        <ele>718.634066</ele>
        <time>2022-02-24T22:05:05.112Z</time>
      </trkpt>
      <trkpt lat="38.43191" lon="38.80963">
        <ele>729.175133</ele>
        <time>2022-02-24T22:07:10.814Z</time>
      </trkpt>
      <trkpt lat="38.42949" lon="38.80814">
        <ele>733.997317</ele>
        <time>2022-02-24T22:08:38.213Z</time>
      </trkpt>
      <trkpt lat="38.42841" lon="38.80704">
        <ele>735.885354</ele>
        <time>2022-02-24T22:09:24.709Z</time>
      </trkpt>
      <trkpt lat="38.42755" lon="38.80584">
        <ele>737.513962</ele>
        <time>2022-02-24T22:10:08.434Z</time>
      </trkpt>
      <trkpt lat="38.42554" lon="38.80189">
        <ele>739.258695</ele>
        <time>2022-02-24T22:11:54.940Z</time>
      </trkpt>
      <trkpt lat="38.42378" lon="38.79829">
        <ele>739.134768</ele>
        <time>2022-02-24T22:13:18.655Z</time>
      </trkpt>
      <trkpt lat="38.42335" lon="38.79696">
        <ele>740.977695</ele>
        <time>2022-02-24T22:13:56.716Z</time>
      </trkpt>
      <trkpt lat="38.42278" lon="38.79389">
        <ele>748.340465</ele>
        <time>2022-02-24T22:15:45.463Z</time>
      </trkpt>
      <trkpt lat="38.42263" lon="38.79298">
        <ele>750.05189</ele>
        <time>2022-02-24T22:16:13.002Z</time>
      </trkpt>
      <trkpt lat="38.42248" lon="38.79205">
        <ele>750.319123</ele>
        <time>2022-02-24T22:16:37.425Z</time>
      </trkpt>
      <trkpt lat="38.4221" lon="38.78976">
        <ele>748.744526</ele>
        <time>2022-02-24T22:17:19.257Z</time>
      </trkpt>
      <trkpt lat="38.42193" lon="38.78874">
        <ele>747.17808</ele>
        <time>2022-02-24T22:17:35.605Z</time>
      </trkpt>
      <trkpt lat="38.42196" lon="38.78845">
        <ele>746.653952</ele>
        <time>2022-02-24T22:17:40.176Z</time>
      </trkpt>
      <trkpt lat="38.42196" lon="38.78827">
        <ele>746.327369</ele>
        <time>2022-02-24T22:17:42.784Z</time>
      </trkpt>
      <trkpt lat="38.42193" lon="38.78627">
        <ele>742.954206</ele>
        <time>2022-02-24T22:18:15.098Z</time>
      </trkpt>
      <trkpt lat="38.4219" lon="38.78573">
        <ele>742.870061</ele>
        <time>2022-02-24T22:18:25.724Z</time>
      </trkpt>
      <trkpt lat="38.42189" lon="38.78543">
        <ele>742.822769</ele>
        <time>2022-02-24T22:18:32.316Z</time>
      </trkpt>
      <trkpt lat="38.42166" lon="38.78411">
        <ele>742.658163</ele>
        <time>2022-02-24T22:19:03.563Z</time>
      </trkpt>
      <trkpt lat="38.42164" lon="38.78403">
        <ele>742.697866</ele>
        <time>2022-02-24T22:19:05.898Z</time>
      </trkpt>
      <trkpt lat="38.42151" lon="38.78355">
        <ele>742.929929</ele>
        <time>2022-02-24T22:19:18.482Z</time>
      </trkpt>
      <trkpt lat="38.42121" lon="38.78226">
        <ele>743.552588</ele>
        <time>2022-02-24T22:19:51.169Z</time>
      </trkpt>
      <trkpt lat="38.4211" lon="38.7818">
        <ele>743.717004</ele>
        <time>2022-02-24T22:20:02.197Z</time>
      </trkpt>
      <trkpt lat="38.42094" lon="38.78107">
        <ele>743.856003</ele>
        <time>2022-02-24T22:20:19.689Z</time>
      </trkpt>
      <trkpt lat="38.42061" lon="38.77961">
        <ele>744.065288</ele>
        <time>2022-02-24T22:20:53.698Z</time>
      </trkpt>
      <trkpt lat="38.4205" lon="38.77937">
        <ele>744.012528</ele>
        <time>2022-02-24T22:20:59.700Z</time>
      </trkpt>
      <trkpt lat="38.42041" lon="38.77922">
        <ele>743.979379</ele>
        <time>2022-02-24T22:21:03.535Z</time>
      </trkpt>
      <trkpt lat="38.4201" lon="38.77727">
        <ele>743.56589</ele>
        <time>2022-02-24T22:21:43.044Z</time>
      </trkpt>
      <trkpt lat="38.41974" lon="38.77537">
        <ele>742.972467</ele>
        <time>2022-02-24T22:22:20.913Z</time>
      </trkpt>
      <trkpt lat="38.41971" lon="38.77522">
        <ele>743.006988</ele>
        <time>2022-02-24T22:22:23.882Z</time>
      </trkpt>
      <trkpt lat="38.4193" lon="38.77378">
        <ele>743.351634</ele>
        <time>2022-02-24T22:22:56.513Z</time>
      </trkpt>
      <trkpt lat="38.4185" lon="38.77163">
        <ele>745.117038</ele>
        <time>2022-02-24T22:23:55.970Z</time>
      </trkpt>
      <trkpt lat="38.41724" lon="38.76923">
        <ele>747.91878</ele>
        <time>2022-02-24T22:25:12.127Z</time>
      </trkpt>
      <trkpt lat="38.41786" lon="38.76874">
        <ele>747.8702</ele>
        <time>2022-02-24T22:25:32.790Z</time>
      </trkpt>
      <trkpt lat="38.4178" lon="38.76854">
        <ele>747.85878</ele>
        <time>2022-02-24T22:25:37.466Z</time>
      </trkpt>
      <trkpt lat="38.41736" lon="38.76784">
        <ele>747.811326</ele>
        <time>2022-02-24T22:25:55.120Z</time>
      </trkpt>
      <trkpt lat="38.41686" lon="38.76703">
        <ele>747.032642</ele>
        <time>2022-02-24T22:26:14.734Z</time>
      </trkpt>
      <trkpt lat="38.41683" lon="38.76689">
        <ele>746.90672</ele>
        <time>2022-02-24T22:26:17.236Z</time>
      </trkpt>
      <trkpt lat="38.41627" lon="38.76628">
        <ele>746.055987</ele>
        <time>2022-02-24T22:26:34.647Z</time>
      </trkpt>
      <trkpt lat="38.41454" lon="38.76539">
        <ele>743.974904</ele>
        <time>2022-02-24T22:27:18.607Z</time>
      </trkpt>
      <trkpt lat="38.41417" lon="38.76521">
        <ele>743.734167</ele>
        <time>2022-02-24T22:27:28.764Z</time>
      </trkpt>
      <trkpt lat="38.41393" lon="38.7649">
        <ele>743.73777</ele>
        <time>2022-02-24T22:27:37.398Z</time>
      </trkpt>
      <trkpt lat="38.41374" lon="38.76486">
        <ele>743.739813</ele>
        <time>2022-02-24T22:27:42.737Z</time>
      </trkpt>
      <trkpt lat="38.41338" lon="38.76477">
        <ele>743.743745</ele>
        <time>2022-02-24T22:27:53.211Z</time>
      </trkpt>
      <trkpt lat="38.41224" lon="38.76416">
        <ele>743.735565</ele>
        <time>2022-02-24T22:28:30.035Z</time>
      </trkpt>
      <trkpt lat="38.41183" lon="38.76386">
        <ele>743.720966</ele>
        <time>2022-02-24T22:28:44.238Z</time>
      </trkpt>
      <trkpt lat="38.4106" lon="38.76275">
        <ele>742.563628</ele>
        <time>2022-02-24T22:29:22.506Z</time>
      </trkpt>
      <trkpt lat="38.40873" lon="38.76101">
        <ele>738.01321</ele>
        <time>2022-02-24T22:30:12.779Z</time>
      </trkpt>
      <trkpt lat="38.40852" lon="38.76088">
        <ele>737.490358</ele>
        <time>2022-02-24T22:30:17.356Z</time>
      </trkpt>
      <trkpt lat="38.40786" lon="38.76088">
        <ele>736.491954</ele>
        <time>2022-02-24T22:30:32.117Z</time>
      </trkpt>
      <trkpt lat="38.40765" lon="38.76081">
        <ele>736.357221</ele>
        <time>2022-02-24T22:30:37.178Z</time>
      </trkpt>
      <trkpt lat="38.4073" lon="38.76039">
        <ele>736.056242</ele>
        <time>2022-02-24T22:30:49.433Z</time>
      </trkpt>
      <trkpt lat="38.40726" lon="38.76035">
        <ele>736.025662</ele>
        <time>2022-02-24T22:30:50.397Z</time>
      </trkpt>
      <trkpt lat="38.40714" lon="38.76021">
        <ele>735.924487</ele>
        <time>2022-02-24T22:30:55.114Z</time>
      </trkpt>
      <trkpt lat="38.40693" lon="38.75994">
        <ele>735.741449</ele>
        <time>2022-02-24T22:31:03.501Z</time>
      </trkpt>
      <trkpt lat="38.40681" lon="38.75966">
        <ele>735.582452</ele>
        <time>2022-02-24T22:31:11.006Z</time>
      </trkpt>
      <trkpt lat="38.40675" lon="38.75927">
        <ele>735.857804</ele>
        <time>2022-02-24T22:31:21.600Z</time>
      </trkpt>
      <trkpt lat="38.40682" lon="38.75822">
        <ele>736.733906</ele>
        <time>2022-02-24T22:31:50.203Z</time>
      </trkpt>
      <trkpt lat="38.40677" lon="38.75786">
        <ele>737.03041</ele>
        <time>2022-02-24T22:31:59.892Z</time>
      </trkpt>
      <trkpt lat="38.40659" lon="38.75751">
        <ele>737.376382</ele>
        <time>2022-02-24T22:32:10.593Z</time>
      </trkpt>
      <trkpt lat="38.40634" lon="38.75719">
        <ele>737.528205</ele>
        <time>2022-02-24T22:32:21.700Z</time>
      </trkpt>
      <trkpt lat="38.40508" lon="38.7556">
        <ele>737.777126</ele>
        <time>2022-02-24T22:33:12.137Z</time>
      </trkpt>
      <trkpt lat="38.40386" lon="38.75406">
        <ele>736.708191</ele>
        <time>2022-02-24T22:33:55.913Z</time>
      </trkpt>
      <trkpt lat="38.40367" lon="38.75375">
        <ele>736.093514</ele>
        <time>2022-02-24T22:34:03.375Z</time>
      </trkpt>
      <trkpt lat="38.40321" lon="38.752">
        <ele>733.243986</ele>
        <time>2022-02-24T22:34:34.240Z</time>
      </trkpt>
      <trkpt lat="38.40325" lon="38.75183">
        <ele>733.004593</ele>
        <time>2022-02-24T22:34:37.240Z</time>
      </trkpt>
      <trkpt lat="38.40342" lon="38.75176">
        <ele>732.699905</ele>
        <time>2022-02-24T22:34:40.718Z</time>
      </trkpt>
      <trkpt lat="38.4039" lon="38.75155">
        <ele>731.822384</ele>
        <time>2022-02-24T22:34:51.490Z</time>
      </trkpt>
      <trkpt lat="38.40404" lon="38.75132">
        <ele>731.424685</ele>
        <time>2022-02-24T22:34:56.336Z</time>
      </trkpt>
      <trkpt lat="38.40413" lon="38.75124">
        <ele>731.230155</ele>
        <time>2022-02-24T22:34:58.927Z</time>
      </trkpt>
      <trkpt lat="38.40322" lon="38.74957">
        <ele>729.704849</ele>
        <time>2022-02-24T22:35:36.896Z</time>
      </trkpt>
      <trkpt lat="38.40255" lon="38.74835">
        <ele>728.920668</ele>
        <time>2022-02-24T22:36:06.798Z</time>
      </trkpt>
      <trkpt lat="38.4015" lon="38.74638">
        <ele>727.57974</ele>
        <time>2022-02-24T22:36:50.061Z</time>
      </trkpt>
      <trkpt lat="38.40026" lon="38.74404">
        <ele>726.445184</ele>
        <time>2022-02-24T22:37:45.970Z</time>
      </trkpt>
      <trkpt lat="38.39955" lon="38.7427">
        <ele>725.667364</ele>
        <time>2022-02-24T22:38:16.629Z</time>
      </trkpt>
      <trkpt lat="38.39861" lon="38.74093">
        <ele>724.263451</ele>
        <time>2022-02-24T22:38:55.507Z</time>
      </trkpt>
      <trkpt lat="38.39814" lon="38.74005">
        <ele>723.809733</ele>
        <time>2022-02-24T22:39:15.432Z</time>
      </trkpt>
      <trkpt lat="38.39547" lon="38.73503">
        <ele>723.059092</ele>
        <time>2022-02-24T22:41:20.010Z</time>
      </trkpt>
      <trkpt lat="38.39314" lon="38.73066">
        <ele>723.160758</ele>
        <time>2022-02-24T22:43:10.793Z</time>
      </trkpt>
      <trkpt lat="38.3931" lon="38.73057">
        <ele>723.167721</ele>
        <time>2022-02-24T22:43:13.313Z</time>
      </trkpt>
      <trkpt lat="38.38965" lon="38.72404">
        <ele>723.958397</ele>
        <time>2022-02-24T22:46:03.033Z</time>
      </trkpt>
      <trkpt lat="38.38889" lon="38.72233">
        <ele>723.015844</ele>
        <time>2022-02-24T22:46:39.702Z</time>
      </trkpt>
      <trkpt lat="38.38871" lon="38.72182">
        <ele>722.782522</ele>
        <time>2022-02-24T22:46:50.085Z</time>
      </trkpt>
      <trkpt lat="38.38844" lon="38.72095">
        <ele>722.427498</ele>
        <time>2022-02-24T22:47:08.092Z</time>
      </trkpt>
      <trkpt lat="38.3881" lon="38.71986">
        <ele>721.999397</ele>
        <time>2022-02-24T22:47:31.685Z</time>
      </trkpt>
      <trkpt lat="38.38756" lon="38.71723">
        <ele>721.269188</ele>
        <time>2022-02-24T22:48:25.668Z</time>
      </trkpt>
      <trkpt lat="38.38739" lon="38.71584">
        <ele>720.850319</ele>
        <time>2022-02-24T22:48:52.690Z</time>
      </trkpt>
      <trkpt lat="38.3873" lon="38.71441">
        <ele>720.840432</ele>
        <time>2022-02-24T22:49:21.569Z</time>
      </trkpt>
      <trkpt lat="38.3873" lon="38.71378">
        <ele>720.887595</ele>
        <time>2022-02-24T22:49:35.283Z</time>
      </trkpt>
      <trkpt lat="38.38727" lon="38.71068">
        <ele>722.229883</ele>
        <time>2022-02-24T22:50:47.996Z</time>
      </trkpt>
      <trkpt lat="38.38728" lon="38.70279">
        <ele>724.994787</ele>
        <time>2022-02-24T22:53:47.707Z</time>
      </trkpt>
      <trkpt lat="38.38729" lon="38.69958">
        <ele>724.606411</ele>
        <time>2022-02-24T22:54:52.615Z</time>
      </trkpt>
      <trkpt lat="38.3873" lon="38.69379">
        <ele>721.168022</ele>
        <time>2022-02-24T22:56:38.139Z</time>
      </trkpt>
      <trkpt lat="38.3873" lon="38.69367">
        <ele>721.152069</ele>
        <time>2022-02-24T22:56:40.518Z</time>
      </trkpt>
      <trkpt lat="38.3873" lon="38.69344">
        <ele>721.122844</ele>
        <time>2022-02-24T22:56:45.350Z</time>
      </trkpt>
      <trkpt lat="38.38734" lon="38.68318">
        <ele>727.781048</ele>
        <time>2022-02-24T23:00:54.177Z</time>
      </trkpt>
      <trkpt lat="38.38736" lon="38.679">
        <ele>732.476081</ele>
        <time>2022-02-24T23:02:45.878Z</time>
      </trkpt>
      <trkpt lat="38.38736" lon="38.67853">
        <ele>732.929991</ele>
        <time>2022-02-24T23:02:57.913Z</time>
      </trkpt>
      <trkpt lat="38.38737" lon="38.67612">
        <ele>734.99091</ele>
        <time>2022-02-24T23:03:57.587Z</time>
      </trkpt>
      <trkpt lat="38.38738" lon="38.6708">
        <ele>739.192851</ele>
        <time>2022-02-24T23:06:09.724Z</time>
      </trkpt>
      <trkpt lat="38.38738" lon="38.67043">
        <ele>739.453474</ele>
        <time>2022-02-24T23:06:18.344Z</time>
      </trkpt>
      <trkpt lat="38.38739" lon="38.66537">
        <ele>743.51431</ele>
        <time>2022-02-24T23:08:19.757Z</time>
      </trkpt>
      <trkpt lat="38.38739" lon="38.65965">
        <ele>756.791166</ele>
        <time>2022-02-24T23:11:26.018Z</time>
      </trkpt>
      <trkpt lat="38.38733" lon="38.65805">
        <ele>761.060643</ele>
        <time>2022-02-24T23:12:20.394Z</time>
      </trkpt>
      <trkpt lat="38.38732" lon="38.65789">
        <ele>761.560539</ele>
        <time>2022-02-24T23:12:26.445Z</time>
      </trkpt>
      <trkpt lat="38.38727" lon="38.65713">
        <ele>763.849252</ele>
        <time>2022-02-24T23:12:52.349Z</time>
      </trkpt>
      <trkpt lat="38.38417" lon="38.63479">
        <ele>832.564906</ele>
        <time>2022-02-24T23:26:19.220Z</time>
      </trkpt>
      <trkpt lat="38.38377" lon="38.63212">
        <ele>839.756236</ele>
        <time>2022-02-24T23:27:50.648Z</time>
      </trkpt>
      <trkpt lat="38.3834" lon="38.63001">
        <ele>844.636566</ele>
        <time>2022-02-24T23:29:00.034Z</time>
      </trkpt>
      <trkpt lat="38.38302" lon="38.62833">
        <ele>848.063474</ele>
        <time>2022-02-24T23:29:51.217Z</time>
      </trkpt>
      <trkpt lat="38.38247" lon="38.62636">
        <ele>851.979921</ele>
        <time>2022-02-24T23:30:53.103Z</time>
      </trkpt>
      <trkpt lat="38.38132" lon="38.623">
        <ele>858.268583</ele>
        <time>2022-02-24T23:32:49.816Z</time>
      </trkpt>
      <trkpt lat="38.37375" lon="38.60498">
        <ele>829.315134</ele>
        <time>2022-02-24T23:38:31.909Z</time>
      </trkpt>
      <trkpt lat="38.37286" lon="38.60324">
        <ele>823.287534</ele>
        <time>2022-02-24T23:39:02.120Z</time>
      </trkpt>
      <trkpt lat="38.37253" lon="38.6026">
        <ele>820.712984</ele>
        <time>2022-02-24T23:39:13.162Z</time>
      </trkpt>
      <trkpt lat="38.36766" lon="38.59315">
        <ele>789.480958</ele>
        <time>2022-02-24T23:42:03.886Z</time>
      </trkpt>
      <trkpt lat="38.36705" lon="38.59188">
        <ele>785.65496</ele>
        <time>2022-02-24T23:42:26.600Z</time>
      </trkpt>
      <trkpt lat="38.36636" lon="38.58972">
        <ele>779.599575</ele>
        <time>2022-02-24T23:43:02.567Z</time>
      </trkpt>
      <trkpt lat="38.36612" lon="38.58837">
        <ele>775.804869</ele>
        <time>2022-02-24T23:43:23.494Z</time>
      </trkpt>
      <trkpt lat="38.36602" lon="38.58722">
        <ele>772.149992</ele>
        <time>2022-02-24T23:43:40.349Z</time>
      </trkpt>
      <trkpt lat="38.36592" lon="38.58378">
        <ele>763.113854</ele>
        <time>2022-02-24T23:44:30.932Z</time>
      </trkpt>
      <trkpt lat="38.3659" lon="38.58279">
        <ele>765.623107</ele>
        <time>2022-02-24T23:44:56.560Z</time>
      </trkpt>
      <trkpt lat="38.36584" lon="38.58001">
        <ele>778.557262</ele>
        <time>2022-02-24T23:47:11.622Z</time>
      </trkpt>
      <trkpt lat="38.36577" lon="38.57871">
        <ele>786.3479</ele>
        <time>2022-02-24T23:48:21.406Z</time>
      </trkpt>
      <trkpt lat="38.36558" lon="38.5777">
        <ele>792.48236</ele>
        <time>2022-02-24T23:49:12.669Z</time>
      </trkpt>
      <trkpt lat="38.3653" lon="38.57664">
        <ele>798.191423</ele>
        <time>2022-02-24T23:50:03.640Z</time>
      </trkpt>
      <trkpt lat="38.3633" lon="38.5708">
        <ele>825.172491</ele>
        <time>2022-02-24T23:54:25.393Z</time>
      </trkpt>
      <trkpt lat="38.36287" lon="38.56968">
        <ele>828.668555</ele>
        <time>2022-02-24T23:55:10.776Z</time>
      </trkpt>
      <trkpt lat="38.3621" lon="38.5681">
        <ele>832.687647</ele>
        <time>2022-02-24T23:56:07.340Z</time>
      </trkpt>
      <trkpt lat="38.3605" lon="38.56515">
        <ele>837.483543</ele>
        <time>2022-02-24T23:57:40.693Z</time>
      </trkpt>
      <trkpt lat="38.3603" lon="38.56479">
        <ele>838.539632</ele>
        <time>2022-02-24T23:57:54.676Z</time>
      </trkpt>
      <trkpt lat="38.35975" lon="38.56369">
        <ele>842.211123</ele>
        <time>2022-02-24T23:58:39.638Z</time>
      </trkpt>
      <trkpt lat="38.35933" lon="38.56261">
        <ele>846.180218</ele>
        <time>2022-02-24T23:59:25.499Z</time>
      </trkpt>
      <trkpt lat="38.35787" lon="38.55719">
        <ele>868.542906</ele>
        <time>2022-02-25T00:03:13.805Z</time>
      </trkpt>
      <trkpt lat="38.35771" lon="38.55682">
        <ele>870.218846</ele>
        <time>2022-02-25T00:03:30.946Z</time>
      </trkpt>
      <trkpt lat="38.35746" lon="38.55622">
        <ele>872.877252</ele>
        <time>2022-02-25T00:03:58.009Z</time>
      </trkpt>
      <trkpt lat="38.35696" lon="38.55536">
        <ele>877.130619</ele>
        <time>2022-02-25T00:04:41.539Z</time>
      </trkpt>
      <trkpt lat="38.35648" lon="38.55477">
        <ele>880.468887</ele>
        <time>2022-02-25T00:05:14.036Z</time>
      </trkpt>
      <trkpt lat="38.3545" lon="38.55309">
        <ele>892.469521</ele>
        <time>2022-02-25T00:07:15.129Z</time>
      </trkpt>
      <trkpt lat="38.35338" lon="38.55206">
        <ele>899.660821</ele>
        <time>2022-02-25T00:08:27.236Z</time>
      </trkpt>
      <trkpt lat="38.35244" lon="38.55104">
        <ele>906.149359</ele>
        <time>2022-02-25T00:09:31.774Z</time>
      </trkpt>
      <trkpt lat="38.35164" lon="38.55005">
        <ele>911.726506</ele>
        <time>2022-02-25T00:10:28.337Z</time>
      </trkpt>
      <trkpt lat="38.35082" lon="38.54893">
        <ele>917.592102</ele>
        <time>2022-02-25T00:11:27.618Z</time>
      </trkpt>
      <trkpt lat="38.35003" lon="38.54771">
        <ele>923.877957</ele>
        <time>2022-02-25T00:12:30.449Z</time>
      </trkpt>
      <trkpt lat="38.34912" lon="38.54593">
        <ele>932.924154</ele>
        <time>2022-02-25T00:13:58.800Z</time>
      </trkpt>
      <trkpt lat="38.34595" lon="38.53818">
        <ele>972.245272</ele>
        <time>2022-02-25T00:20:11.010Z</time>
      </trkpt>
      <trkpt lat="38.34498" lon="38.53615">
        <ele>982.982573</ele>
        <time>2022-02-25T00:21:53.067Z</time>
      </trkpt>
      <trkpt lat="38.34433" lon="38.53506">
        <ele>989.178806</ele>
        <time>2022-02-25T00:22:50.581Z</time>
      </trkpt>
      <trkpt lat="38.34361" lon="38.534">
        <ele>995.556958</ele>
        <time>2022-02-25T00:23:49.586Z</time>
      </trkpt>
      <trkpt lat="38.33618" lon="38.52362">
        <ele>1065.734224</ele>
        <time>2022-02-25T00:34:19.944Z</time>
      </trkpt>
      <trkpt lat="38.33518" lon="38.52234">
        <ele>1076.919538</ele>
        <time>2022-02-25T00:35:53.567Z</time>
      </trkpt>
      <trkpt lat="38.33435" lon="38.52142">
        <ele>1085.150417</ele>
        <time>2022-02-25T00:37:07.721Z</time>
      </trkpt>
      <trkpt lat="38.33249" lon="38.5197">
        <ele>1097.687171</ele>
        <time>2022-02-25T00:39:16.351Z</time>
      </trkpt>
      <trkpt lat="38.33198" lon="38.5191">
        <ele>1100.3038</ele>
        <time>2022-02-25T00:39:39.592Z</time>
      </trkpt>
      <trkpt lat="38.3315" lon="38.51839">
        <ele>1098.857676</ele>
        <time>2022-02-25T00:39:56.475Z</time>
      </trkpt>
      <trkpt lat="38.33117" lon="38.51772">
        <ele>1097.346099</ele>
        <time>2022-02-25T00:40:08.616Z</time>
      </trkpt>
      <trkpt lat="38.33092" lon="38.51691">
        <ele>1095.214119</ele>
        <time>2022-02-25T00:40:21.458Z</time>
      </trkpt>
      <trkpt lat="38.33075" lon="38.51612">
        <ele>1092.106647</ele>
        <time>2022-02-25T00:40:33.252Z</time>
      </trkpt>
      <trkpt lat="38.33068" lon="38.51526">
        <ele>1088.820724</ele>
        <time>2022-02-25T00:40:45.400Z</time>
      </trkpt>
      <trkpt lat="38.33072" lon="38.51442">
        <ele>1085.351537</ele>
        <time>2022-02-25T00:40:57.306Z</time>
      </trkpt>
      <trkpt lat="38.33076" lon="38.51419">
        <ele>1084.368484</ele>
        <time>2022-02-25T00:41:00.465Z</time>
      </trkpt>
      <trkpt lat="38.33086" lon="38.51359">
        <ele>1081.727855</ele>
        <time>2022-02-25T00:41:09.082Z</time>
      </trkpt>
      <trkpt lat="38.33199" lon="38.50797">
        <ele>1056.528397</ele>
        <time>2022-02-25T00:42:30.517Z</time>
      </trkpt>
      <trkpt lat="38.33205" lon="38.50756">
        <ele>1054.357511</ele>
        <time>2022-02-25T00:42:36.216Z</time>
      </trkpt>
      <trkpt lat="38.33228" lon="38.50601">
        <ele>1046.080338</ele>
        <time>2022-02-25T00:42:57.542Z</time>
      </trkpt>
      <trkpt lat="38.3324" lon="38.50446">
        <ele>1036.678765</ele>
        <time>2022-02-25T00:43:18.116Z</time>
      </trkpt>
      <trkpt lat="38.33246" lon="38.50252">
        <ele>1025.282077</ele>
        <time>2022-02-25T00:43:43.791Z</time>
      </trkpt>
      <trkpt lat="38.33241" lon="38.49932">
        <ele>1008.818986</ele>
        <time>2022-02-25T00:44:27.354Z</time>
      </trkpt>
      <trkpt lat="38.33233" lon="38.49593">
        <ele>998.023041</ele>
        <time>2022-02-25T00:45:17.796Z</time>
      </trkpt>
      <trkpt lat="38.33232" lon="38.49505">
        <ele>995.607225</ele>
        <time>2022-02-25T00:45:31.159Z</time>
      </trkpt>
      <trkpt lat="38.33228" lon="38.49346">
        <ele>991.421969</ele>
        <time>2022-02-25T00:45:55.530Z</time>
      </trkpt>
      <trkpt lat="38.33219" lon="38.48784">
        <ele>977.08878</ele>
        <time>2022-02-25T00:47:21.440Z</time>
      </trkpt>
      <trkpt lat="38.33226" lon="38.48637">
        <ele>973.5902</ele>
        <time>2022-02-25T00:47:43.997Z</time>
      </trkpt>
      <trkpt lat="38.33226" lon="38.4861">
        <ele>972.964686</ele>
        <time>2022-02-25T00:47:48.045Z</time>
      </trkpt>
      <trkpt lat="38.33209" lon="38.4783">
        <ele>958.098424</ele>
        <time>2022-02-25T00:49:53.350Z</time>
      </trkpt>
      <trkpt lat="38.33215" lon="38.47183">
        <ele>950.619954</ele>
        <time>2022-02-25T00:51:46.706Z</time>
      </trkpt>
      <trkpt lat="38.33233" lon="38.47191">
        <ele>950.318267</ele>
        <time>2022-02-25T00:51:50.841Z</time>
      </trkpt>
      <trkpt lat="38.33308" lon="38.47221">
        <ele>948.662758</ele>
        <time>2022-02-25T00:52:07.887Z</time>
      </trkpt>
      <trkpt lat="38.33367" lon="38.4723">
        <ele>947.405566</ele>
        <time>2022-02-25T00:52:20.675Z</time>
      </trkpt>
      <trkpt lat="38.3339" lon="38.4724">
        <ele>946.877464</ele>
        <time>2022-02-25T00:52:26.114Z</time>
      </trkpt>
      <trkpt lat="38.33412" lon="38.47257">
        <ele>946.352043</ele>
        <time>2022-02-25T00:52:31.968Z</time>
      </trkpt>
      <trkpt lat="38.33421" lon="38.47254">
        <ele>946.19552</ele>
        <time>2022-02-25T00:52:33.909Z</time>
      </trkpt>
      <trkpt lat="38.33431" lon="38.47232">
        <ele>945.837834</ele>
        <time>2022-02-25T00:52:38.370Z</time>
      </trkpt>
      <trkpt lat="38.33434" lon="38.47196">
        <ele>945.318281</ele>
        <time>2022-02-25T00:52:44.829Z</time>
      </trkpt>
      <trkpt lat="38.33455" lon="38.47147">
        <ele>944.537201</ele>
        <time>2022-02-25T00:52:54.572Z</time>
      </trkpt>
      <trkpt lat="38.33473" lon="38.47081">
        <ele>943.548185</ele>
        <time>2022-02-25T00:53:06.991Z</time>
      </trkpt>
      <trkpt lat="38.33467" lon="38.47044">
        <ele>943.143577</ele>
        <time>2022-02-25T00:53:13.781Z</time>
      </trkpt>
      <trkpt lat="38.33488" lon="38.47002">
        <ele>942.796601</ele>
        <time>2022-02-25T00:53:22.774Z</time>
      </trkpt>
      <trkpt lat="38.3352" lon="38.46955">
        <ele>942.358931</ele>
        <time>2022-02-25T00:53:34.541Z</time>
      </trkpt>
      <trkpt lat="38.33573" lon="38.46924">
        <ele>941.840385</ele>
        <time>2022-02-25T00:53:49.475Z</time>
      </trkpt>
      <trkpt lat="38.33616" lon="38.46934">
        <ele>941.900964</ele>
        <time>2022-02-25T00:54:01.750Z</time>
      </trkpt>
      <trkpt lat="38.33625" lon="38.46929">
        <ele>941.991636</ele>
        <time>2022-02-25T00:54:04.655Z</time>
      </trkpt>
      <trkpt lat="38.3365" lon="38.46891">
        <ele>942.347364</ele>
        <time>2022-02-25T00:54:16.534Z</time>
      </trkpt>
      <trkpt lat="38.33675" lon="38.46875">
        <ele>942.604039</ele>
        <time>2022-02-25T00:54:25.560Z</time>
      </trkpt>
      <trkpt lat="38.33772" lon="38.4685">
        <ele>943.664591</ele>
        <time>2022-02-25T00:55:00.448Z</time>
      </trkpt>
      <trkpt lat="38.33783" lon="38.46849">
        <ele>943.844346</ele>
        <time>2022-02-25T00:55:04.476Z</time>
      </trkpt>
      <trkpt lat="38.33799" lon="38.46847">
        <ele>944.10104</ele>
        <time>2022-02-25T00:55:10.187Z</time>
      </trkpt>
      <trkpt lat="38.33903" lon="38.46869">
        <ele>945.828144</ele>
        <time>2022-02-25T00:55:48.389Z</time>
      </trkpt>
      <trkpt lat="38.34034" lon="38.46923">
        <ele>947.485988</ele>
        <time>2022-02-25T00:56:36.010Z</time>
      </trkpt>
      <trkpt lat="38.34207" lon="38.47023">
        <ele>948.073038</ele>
        <time>2022-02-25T00:57:33.798Z</time>
      </trkpt>
      <trkpt lat="38.34252" lon="38.47062">
        <ele>947.99248</ele>
        <time>2022-02-25T00:57:47.052Z</time>
      </trkpt>
      <trkpt lat="38.34243" lon="38.47035">
        <ele>947.455179</ele>
        <time>2022-02-25T00:57:51.897Z</time>
      </trkpt>
      <trkpt lat="38.34234" lon="38.46991">
        <ele>946.460318</ele>
        <time>2022-02-25T00:57:59.307Z</time>
      </trkpt>
      <trkpt lat="38.34215" lon="38.46779">
        <ele>941.48222</ele>
        <time>2022-02-25T00:58:31.614Z</time>
      </trkpt>
      <trkpt lat="38.34217" lon="38.46735">
        <ele>940.294725</ele>
        <time>2022-02-25T00:58:38.276Z</time>
      </trkpt>
      <trkpt lat="38.34218" lon="38.46717">
        <ele>939.795517</ele>
        <time>2022-02-25T00:58:41.015Z</time>
      </trkpt>
      <trkpt lat="38.34233" lon="38.46567">
        <ele>935.880993</ele>
        <time>2022-02-25T00:59:03.981Z</time>
      </trkpt>
      <trkpt lat="38.34226" lon="38.46451">
        <ele>933.231117</ele>
        <time>2022-02-25T00:59:22.142Z</time>
      </trkpt>
      <trkpt lat="38.3421" lon="38.46286">
        <ele>929.650303</ele>
        <time>2022-02-25T00:59:48.577Z</time>
      </trkpt>
      <trkpt lat="38.34205" lon="38.4626">
        <ele>929.099967</ele>
        <time>2022-02-25T00:59:52.860Z</time>
      </trkpt>
      <trkpt lat="38.34192" lon="38.46241">
        <ele>928.602237</ele>
        <time>2022-02-25T00:59:56.727Z</time>
      </trkpt>
      <trkpt lat="38.34128" lon="38.46199">
        <ele>926.717116</ele>
        <time>2022-02-25T01:00:11.350Z</time>
      </trkpt>
      <trkpt lat="38.3407" lon="38.46132">
        <ele>924.724618</ele>
        <time>2022-02-25T01:00:27.123Z</time>
      </trkpt>
      <trkpt lat="38.34023" lon="38.46063">
        <ele>922.907002</ele>
        <time>2022-02-25T01:00:41.596Z</time>
      </trkpt>
      <trkpt lat="38.3397" lon="38.4597">
        <ele>921.041255</ele>
        <time>2022-02-25T01:01:00.218Z</time>
      </trkpt>
      <trkpt lat="38.33919" lon="38.45854">
        <ele>919.079535</ele>
        <time>2022-02-25T01:01:22.897Z</time>
      </trkpt>
      <trkpt lat="38.33829" lon="38.45718">
        <ele>917.334428</ele>
        <time>2022-02-25T01:01:54.608Z</time>
      </trkpt>
      <trkpt lat="38.33772" lon="38.45677">
        <ele>916.540344</ele>
        <time>2022-02-25T01:02:09.452Z</time>
      </trkpt>
      <trkpt lat="38.33723" lon="38.45625">
        <ele>915.704743</ele>
        <time>2022-02-25T01:02:23.698Z</time>
      </trkpt>
      <trkpt lat="38.33676" lon="38.45563">
        <ele>914.814503</ele>
        <time>2022-02-25T01:02:38.669Z</time>
      </trkpt>
      <trkpt lat="38.33577" lon="38.45367">
        <ele>913.31867</ele>
        <time>2022-02-25T01:03:19.750Z</time>
      </trkpt>
      <trkpt lat="38.33548" lon="38.45266">
        <ele>914.201186</ele>
        <time>2022-02-25T01:03:47.523Z</time>
      </trkpt>
      <trkpt lat="38.33541" lon="38.45238">
        <ele>914.705136</ele>
        <time>2022-02-25T01:03:55.485Z</time>
      </trkpt>
      <trkpt lat="38.33529" lon="38.45226">
        <ele>915.028093</ele>
        <time>2022-02-25T01:04:01.968Z</time>
      </trkpt>
      <trkpt lat="38.33512" lon="38.45217">
        <ele>915.430921</ele>
        <time>2022-02-25T01:04:09.800Z</time>
      </trkpt>
      <trkpt lat="38.33482" lon="38.4522">
        <ele>916.083544</ele>
        <time>2022-02-25T01:04:22.855Z</time>
      </trkpt>
      <trkpt lat="38.33444" lon="38.45232">
        <ele>916.913555</ele>
        <time>2022-02-25T01:04:37.899Z</time>
      </trkpt>
      <trkpt lat="38.33417" lon="38.45254">
        <ele>917.056944</ele>
        <time>2022-02-25T01:04:50.797Z</time>
      </trkpt>
      <trkpt lat="38.33401" lon="38.45278">
        <ele>917.14098</ele>
        <time>2022-02-25T01:04:59.714Z</time>
      </trkpt>
      <trkpt lat="38.3339" lon="38.45284">
        <ele>917.181355</ele>
        <time>2022-02-25T01:05:04.277Z</time>
      </trkpt>
      <trkpt lat="38.33399" lon="38.45251">
        <ele>917.274525</ele>
        <time>2022-02-25T01:05:11.609Z</time>
      </trkpt>
      <trkpt lat="38.33415" lon="38.45222">
        <ele>917.368712</ele>
        <time>2022-02-25T01:05:18.506Z</time>
      </trkpt>
      <trkpt lat="38.3345" lon="38.4519">
        <ele>917.516079</ele>
        <time>2022-02-25T01:05:28.726Z</time>
      </trkpt>
      <trkpt lat="38.33506" lon="38.4518">
        <ele>916.25092</ele>
        <time>2022-02-25T01:05:40.665Z</time>
      </trkpt>
      <trkpt lat="38.33574" lon="38.45117">
        <ele>913.631839</ele>
        <time>2022-02-25T01:05:56.459Z</time>
      </trkpt>
      <trkpt lat="38.33605" lon="38.45108">
        <ele>912.644668</ele>
        <time>2022-02-25T01:06:02.585Z</time>
      </trkpt>
      <trkpt lat="38.33631" lon="38.45112">
        <ele>911.852947</ele>
        <time>2022-02-25T01:06:07.955Z</time>
      </trkpt>
      <trkpt lat="38.33637" lon="38.45111">
        <ele>911.73264</ele>
        <time>2022-02-25T01:06:08.922Z</time>
      </trkpt>
      <trkpt lat="38.33647" lon="38.45114">
        <ele>911.507983</ele>
        <time>2022-02-25T01:06:10.868Z</time>
      </trkpt>
      <trkpt lat="38.33693" lon="38.45115">
        <ele>910.478103</ele>
        <time>2022-02-25T01:06:20.150Z</time>
      </trkpt>
      <trkpt lat="38.33724" lon="38.45101">
        <ele>909.7324</ele>
        <time>2022-02-25T01:06:26.886Z</time>
      </trkpt>
      <trkpt lat="38.33752" lon="38.45076">
        <ele>908.970425</ele>
        <time>2022-02-25T01:06:33.877Z</time>
      </trkpt>
      <trkpt lat="38.33772" lon="38.45045">
        <ele>908.276924</ele>
        <time>2022-02-25T01:06:40.307Z</time>
      </trkpt>
      <trkpt lat="38.33854" lon="38.44907">
        <ele>909.139485</ele>
        <time>2022-02-25T01:07:18.387Z</time>
      </trkpt>
      <trkpt lat="38.33846" lon="38.44897">
        <ele>909.245534</ele>
        <time>2022-02-25T01:07:22.250Z</time>
      </trkpt>
      <trkpt lat="38.33786" lon="38.44852">
        <ele>910.625386</ele>
        <time>2022-02-25T01:07:51.461Z</time>
      </trkpt>
      <trkpt lat="38.33721" lon="38.44803">
        <ele>913.700153</ele>
        <time>2022-02-25T01:08:27.557Z</time>
      </trkpt>
      <trkpt lat="38.33687" lon="38.44777">
        <ele>915.316574</ele>
        <time>2022-02-25T01:08:48.913Z</time>
      </trkpt>
      <trkpt lat="38.33577" lon="38.44695">
        <ele>919.509831</ele>
        <time>2022-02-25T01:09:49.610Z</time>
      </trkpt>
      <trkpt lat="38.33576" lon="38.44685">
        <ele>919.735555</ele>
        <time>2022-02-25T01:09:53.854Z</time>
      </trkpt>
      <trkpt lat="38.33577" lon="38.44677">
        <ele>919.924982</ele>
        <time>2022-02-25T01:09:56.274Z</time>
      </trkpt>
      <trkpt lat="38.3363" lon="38.44503">
        <ele>922.372618</ele>
        <time>2022-02-25T01:10:46.468Z</time>
      </trkpt>
      <trkpt lat="38.33665" lon="38.44402">
        <ele>922.50958</ele>
        <time>2022-02-25T01:11:08.658Z</time>
      </trkpt>
      <trkpt lat="38.33685" lon="38.44345">
        <ele>922.477509</ele>
        <time>2022-02-25T01:11:20.481Z</time>
      </trkpt>
      <trkpt lat="38.33693" lon="38.44332">
        <ele>922.430952</ele>
        <time>2022-02-25T01:11:23.637Z</time>
      </trkpt>
      <trkpt lat="38.33765" lon="38.44051">
        <ele>922.049877</ele>
        <time>2022-02-25T01:12:22.959Z</time>
      </trkpt>
      <trkpt lat="38.33788" lon="38.4396">
        <ele>922.158617</ele>
        <time>2022-02-25T01:12:44.592Z</time>
      </trkpt>
      <trkpt lat="38.33885" lon="38.43594">
        <ele>923.323189</ele>
        <time>2022-02-25T01:14:12.756Z</time>
      </trkpt>
      <trkpt lat="38.3392" lon="38.43459">
        <ele>923.310267</ele>
        <time>2022-02-25T01:14:41.912Z</time>
      </trkpt>
      <trkpt lat="38.33956" lon="38.43339">
        <ele>922.793902</ele>
        <time>2022-02-25T01:15:07.068Z</time>
      </trkpt>
      <trkpt lat="38.3398" lon="38.43231">
        <ele>922.063729</ele>
        <time>2022-02-25T01:15:27.568Z</time>
      </trkpt>
      <trkpt lat="38.3398" lon="38.43204">
        <ele>921.820866</ele>
        <time>2022-02-25T01:15:32.664Z</time>
      </trkpt>
      <trkpt lat="38.33991" lon="38.4321">
        <ele>921.690136</ele>
        <time>2022-02-25T01:15:35.294Z</time>
      </trkpt>
      <trkpt lat="38.34021" lon="38.43085">
        <ele>920.527777</ele>
        <time>2022-02-25T01:15:59.595Z</time>
      </trkpt>
      <trkpt lat="38.34036" lon="38.43012">
        <ele>919.730851</ele>
        <time>2022-02-25T01:16:13.272Z</time>
      </trkpt>
      <trkpt lat="38.34055" lon="38.42925">
        <ele>918.783041</ele>
        <time>2022-02-25T01:16:29.860Z</time>
      </trkpt>
      <trkpt lat="38.34066" lon="38.42874">
        <ele>918.227155</ele>
        <time>2022-02-25T01:16:39.714Z</time>
      </trkpt>
      <trkpt lat="38.34112" lon="38.42666">
        <ele>915.656676</ele>
        <time>2022-02-25T01:17:18.719Z</time>
      </trkpt>
      <trkpt lat="38.34122" lon="38.42589">
        <ele>914.952</ele>
        <time>2022-02-25T01:17:32.535Z</time>
      </trkpt>
      <trkpt lat="38.34133" lon="38.42533">
        <ele>914.496184</ele>
        <time>2022-02-25T01:17:42.843Z</time>
      </trkpt>
      <trkpt lat="38.34179" lon="38.42364">
        <ele>913.947879</ele>
        <time>2022-02-25T01:18:19.327Z</time>
      </trkpt>
      <trkpt lat="38.34175" lon="38.42316">
        <ele>914.226296</ele>
        <time>2022-02-25T01:18:31.598Z</time>
      </trkpt>
      <trkpt lat="38.34188" lon="38.42262">
        <ele>914.559126</ele>
        <time>2022-02-25T01:18:46.392Z</time>
      </trkpt>
      <trkpt lat="38.34197" lon="38.42228">
        <ele>914.765939</ele>
        <time>2022-02-25T01:18:55.890Z</time>
      </trkpt>
      <trkpt lat="38.34241" lon="38.42057">
        <ele>916.203761</ele>
        <time>2022-02-25T01:19:42.018Z</time>
      </trkpt>
      <trkpt lat="38.34265" lon="38.42028">
        <ele>916.549312</ele>
        <time>2022-02-25T01:19:52.065Z</time>
      </trkpt>
      <trkpt lat="38.3429" lon="38.42008">
        <ele>916.886644</ele>
        <time>2022-02-25T01:20:01.150Z</time>
      </trkpt>
      <trkpt lat="38.34314" lon="38.4196">
        <ele>917.588933</ele>
        <time>2022-02-25T01:20:14.906Z</time>
      </trkpt>
      <trkpt lat="38.34386" lon="38.41737">
        <ele>921.746405</ele>
        <time>2022-02-25T01:21:24.685Z</time>
      </trkpt>
      <trkpt lat="38.34389" lon="38.41728">
        <ele>922.038776</ele>
        <time>2022-02-25T01:21:28.490Z</time>
      </trkpt>
      <trkpt lat="38.34443" lon="38.41558">
        <ele>927.990415</ele>
        <time>2022-02-25T01:22:38.097Z</time>
      </trkpt>
      <trkpt lat="38.34484" lon="38.41431">
        <ele>934.732768</ele>
        <time>2022-02-25T01:23:42.135Z</time>
      </trkpt>
      <trkpt lat="38.34507" lon="38.41362">
        <ele>938.683763</ele>
        <time>2022-02-25T01:24:17.621Z</time>
      </trkpt>
      <trkpt lat="38.34499" lon="38.41352">
        <ele>939.565815</ele>
        <time>2022-02-25T01:24:26.252Z</time>
      </trkpt>
      <trkpt lat="38.34465" lon="38.41312">
        <ele>943.154427</ele>
        <time>2022-02-25T01:24:56.686Z</time>
      </trkpt>
      <trkpt lat="38.34452" lon="38.41284">
        <ele>945.041592</ele>
        <time>2022-02-25T01:25:13.490Z</time>
      </trkpt>
      <trkpt lat="38.34453" lon="38.41261">
        <ele>946.466996</ele>
        <time>2022-02-25T01:25:25.103Z</time>
      </trkpt>
      <trkpt lat="38.34488" lon="38.41141">
        <ele>953.7995</ele>
        <time>2022-02-25T01:26:31.266Z</time>
      </trkpt>
      <trkpt lat="38.34521" lon="38.40986">
        <ele>962.078549</ele>
        <time>2022-02-25T01:27:46.323Z</time>
      </trkpt>
      <trkpt lat="38.34522" lon="38.4097">
        <ele>962.910707</ele>
        <time>2022-02-25T01:27:52.502Z</time>
      </trkpt>
      <trkpt lat="38.3452" lon="38.40957">
        <ele>963.382892</ele>
        <time>2022-02-25T01:27:58.992Z</time>
      </trkpt>
      <trkpt lat="38.34538" lon="38.40889">
        <ele>965.357354</ele>
        <time>2022-02-25T01:28:25.116Z</time>
      </trkpt>
      <trkpt lat="38.34589" lon="38.40702">
        <ele>969.84566</ele>
        <time>2022-02-25T01:29:28.107Z</time>
      </trkpt>
      <trkpt lat="38.3464" lon="38.40477">
        <ele>971.099124</ele>
        <time>2022-02-25T01:30:19.770Z</time>
      </trkpt>
      <trkpt lat="38.34652" lon="38.40421">
        <ele>971.055975</ele>
        <time>2022-02-25T01:30:30.835Z</time>
      </trkpt>
      <trkpt lat="38.34666" lon="38.40337">
        <ele>970.992152</ele>
        <time>2022-02-25T01:30:47.916Z</time>
      </trkpt>
      <trkpt lat="38.34682" lon="38.40238">
        <ele>971.551664</ele>
        <time>2022-02-25T01:31:09.353Z</time>
      </trkpt>
      <trkpt lat="38.34692" lon="38.40173">
        <ele>972.099507</ele>
        <time>2022-02-25T01:31:25.066Z</time>
      </trkpt>
      <trkpt lat="38.34694" lon="38.40155">
        <ele>972.252227</ele>
        <time>2022-02-25T01:31:29.629Z</time>
      </trkpt>
      <trkpt lat="38.34719" lon="38.39961">
        <ele>975.532905</ele>
        <time>2022-02-25T01:32:27.365Z</time>
      </trkpt>
      <trkpt lat="38.34745" lon="38.39755">
        <ele>980.882453</ele>
        <time>2022-02-25T01:33:38.092Z</time>
      </trkpt>
      <trkpt lat="38.34764" lon="38.39609">
        <ele>985.332674</ele>
        <time>2022-02-25T01:34:31.077Z</time>
      </trkpt>
      <trkpt lat="38.34795" lon="38.39382">
        <ele>993.343322</ele>
        <time>2022-02-25T01:35:57.856Z</time>
      </trkpt>
      <trkpt lat="38.34817" lon="38.39301">
        <ele>996.596757</ele>
        <time>2022-02-25T01:36:31.846Z</time>
      </trkpt>
      <trkpt lat="38.34916" lon="38.38997">
        <ele>1009.021743</ele>
        <time>2022-02-25T01:38:42.240Z</time>
      </trkpt>
      <trkpt lat="38.34946" lon="38.38865">
        <ele>1012.963869</ele>
        <time>2022-02-25T01:39:31.519Z</time>
      </trkpt>
      <trkpt lat="38.34953" lon="38.38806">
        <ele>1014.56893</ele>
        <time>2022-02-25T01:39:50.402Z</time>
      </trkpt>
      <trkpt lat="38.34953" lon="38.388">
        <ele>1014.734022</ele>
        <time>2022-02-25T01:39:53.665Z</time>
      </trkpt>
      <trkpt lat="38.34954" lon="38.38789">
        <ele>1015.028981</ele>
        <time>2022-02-25T01:39:56.932Z</time>
      </trkpt>
      <trkpt lat="38.34975" lon="38.38803">
        <ele>1015.850026</ele>
        <time>2022-02-25T01:40:05.324Z</time>
      </trkpt>
      <trkpt lat="38.34973" lon="38.38801">
        <ele>1015.952232</ele>
        <time>2022-02-25T01:40:07.627Z</time>
      </trkpt>
      <trkpt lat="38.34971" lon="38.38635">
        <ele>1018.499859</ele>
        <time>2022-02-25T01:40:54.019Z</time>
      </trkpt>
      <trkpt lat="38.34958" lon="38.38588">
        <ele>1019.241769</ele>
        <time>2022-02-25T01:41:07.017Z</time>
      </trkpt>
      <trkpt lat="38.34938" lon="38.38501">
        <ele>1020.802035</ele>
        <time>2022-02-25T01:41:31.505Z</time>
      </trkpt>
      <trkpt lat="38.34929" lon="38.38453">
        <ele>1021.662059</ele>
        <time>2022-02-25T01:41:45.230Z</time>
      </trkpt>
      <trkpt lat="38.34896" lon="38.38208">
        <ele>1026.695698</ele>
        <time>2022-02-25T01:43:04.553Z</time>
      </trkpt>
      <trkpt lat="38.34889" lon="38.37979">
        <ele>1030.723379</ele>
        <time>2022-02-25T01:44:15.674Z</time>
      </trkpt>
      <trkpt lat="38.3489" lon="38.3792">
        <ele>1031.583096</ele>
        <time>2022-02-25T01:44:30.468Z</time>
      </trkpt>
      <trkpt lat="38.34891" lon="38.37867">
        <ele>1031.897391</ele>
        <time>2022-02-25T01:44:42.803Z</time>
      </trkpt>
      <trkpt lat="38.34892" lon="38.37771">
        <ele>1031.378835</ele>
        <time>2022-02-25T01:45:01.433Z</time>
      </trkpt>
      <trkpt lat="38.34903" lon="38.37591">
        <ele>1030.326032</ele>
        <time>2022-02-25T01:45:32.952Z</time>
      </trkpt>
      <trkpt lat="38.34904" lon="38.37568">
        <ele>1030.179337</ele>
        <time>2022-02-25T01:45:36.721Z</time>
      </trkpt>
      <trkpt lat="38.34896" lon="38.37472">
        <ele>1029.555745</ele>
        <time>2022-02-25T01:45:55.283Z</time>
      </trkpt>
      <trkpt lat="38.34896" lon="38.37459">
        <ele>1029.477027</ele>
        <time>2022-02-25T01:45:58.312Z</time>
      </trkpt>
      <trkpt lat="38.34894" lon="38.3743">
        <ele>1029.308128</ele>
        <time>2022-02-25T01:46:03.761Z</time>
      </trkpt>
      <trkpt lat="38.34893" lon="38.37419">
        <ele>1029.309875</ele>
        <time>2022-02-25T01:46:06.596Z</time>
      </trkpt>
      <trkpt lat="38.34892" lon="38.37402">
        <ele>1029.312558</ele>
        <time>2022-02-25T01:46:10.434Z</time>
      </trkpt>
      <trkpt lat="38.34891" lon="38.3737">
        <ele>1029.31751</ele>
        <time>2022-02-25T01:46:17.257Z</time>
      </trkpt>
      <trkpt lat="38.34892" lon="38.37134">
        <ele>1029.180638</ele>
        <time>2022-02-25T01:47:06.970Z</time>
      </trkpt>
      <trkpt lat="38.34893" lon="38.3703">
        <ele>1028.940776</ele>
        <time>2022-02-25T01:47:26.221Z</time>
      </trkpt>
      <trkpt lat="38.34895" lon="38.36644">
        <ele>1029.054729</ele>
        <time>2022-02-25T01:48:46.254Z</time>
      </trkpt>
      <trkpt lat="38.34902" lon="38.36535">
        <ele>1029.488065</ele>
        <time>2022-02-25T01:49:12.952Z</time>
      </trkpt>
      <trkpt lat="38.34903" lon="38.36513">
        <ele>1029.579989</ele>
        <time>2022-02-25T01:49:18.586Z</time>
      </trkpt>
      <trkpt lat="38.34905" lon="38.36508">
        <ele>1029.607207</ele>
        <time>2022-02-25T01:49:20.025Z</time>
      </trkpt>
      <trkpt lat="38.34904" lon="38.36492">
        <ele>1029.68844</ele>
        <time>2022-02-25T01:49:23.672Z</time>
      </trkpt>
      <trkpt lat="38.34902" lon="38.36488">
        <ele>1029.715501</ele>
        <time>2022-02-25T01:49:25.008Z</time>
      </trkpt>
      <trkpt lat="38.34901" lon="38.36461">
        <ele>1029.853675</ele>
        <time>2022-02-25T01:49:31.866Z</time>
      </trkpt>
      <trkpt lat="38.34901" lon="38.36359">
        <ele>1030.381325</ele>
        <time>2022-02-25T01:49:57.031Z</time>
      </trkpt>
      <trkpt lat="38.34926" lon="38.35968">
        <ele>1029.153364</ele>
        <time>2022-02-25T01:51:18.549Z</time>
      </trkpt>
      <trkpt lat="38.34932" lon="38.35852">
        <ele>1027.20567</ele>
        <time>2022-02-25T01:51:36.558Z</time>
      </trkpt>
      <trkpt lat="38.34951" lon="38.35851">
        <ele>1026.74025</ele>
        <time>2022-02-25T01:51:39.979Z</time>
      </trkpt>
      <trkpt lat="38.34953" lon="38.35822">
        <ele>1025.439809</ele>
        <time>2022-02-25T01:51:44.215Z</time>
      </trkpt>
      <trkpt lat="38.34966" lon="38.3573">
        <ele>1021.300842</ele>
        <time>2022-02-25T01:51:57.351Z</time>
      </trkpt>
      <trkpt lat="38.34972" lon="38.35664">
        <ele>1018.376632</ele>
        <time>2022-02-25T01:52:06.239Z</time>
      </trkpt>
      <trkpt lat="38.34976" lon="38.35612">
        <ele>1016.026401</ele>
        <time>2022-02-25T01:52:13.444Z</time>
      </trkpt>
      <trkpt lat="38.34992" lon="38.35551">
        <ele>1013.022161</ele>
        <time>2022-02-25T01:52:22.358Z</time>
      </trkpt>
      <trkpt lat="38.34998" lon="38.35536">
        <ele>1012.204236</ele>
        <time>2022-02-25T01:52:24.674Z</time>
      </trkpt>
      <trkpt lat="38.35017" lon="38.3551">
        <ele>1010.547452</ele>
        <time>2022-02-25T01:52:29.579Z</time>
      </trkpt>
      <trkpt lat="38.35026" lon="38.35495">
        <ele>1009.675767</ele>
        <time>2022-02-25T01:52:32.074Z</time>
      </trkpt>
      <trkpt lat="38.3503" lon="38.35487">
        <ele>1009.203658</ele>
        <time>2022-02-25T01:52:33.450Z</time>
      </trkpt>
      <trkpt lat="38.35034" lon="38.35475">
        <ele>1008.602985</ele>
        <time>2022-02-25T01:52:35.298Z</time>
      </trkpt>
      <trkpt lat="38.3504" lon="38.35454">
        <ele>1007.572172</ele>
        <time>2022-02-25T01:52:38.293Z</time>
      </trkpt>
      <trkpt lat="38.35047" lon="38.35424">
        <ele>1006.098294</ele>
        <time>2022-02-25T01:52:42.732Z</time>
      </trkpt>
      <trkpt lat="38.3505" lon="38.35406">
        <ele>1005.389218</ele>
        <time>2022-02-25T01:52:45.240Z</time>
      </trkpt>
      <trkpt lat="38.35052" lon="38.35396">
        <ele>1004.993959</ele>
        <time>2022-02-25T01:52:46.792Z</time>
      </trkpt>
      <trkpt lat="38.35059" lon="38.35338">
        <ele>1002.860556</ele>
        <time>2022-02-25T01:52:55.094Z</time>
      </trkpt>
      <trkpt lat="38.35061" lon="38.35324">
        <ele>1002.307812</ele>
        <time>2022-02-25T01:52:57.308Z</time>
      </trkpt>
      <trkpt lat="38.35064" lon="38.35313">
        <ele>1001.909694</ele>
        <time>2022-02-25T01:52:58.795Z</time>
      </trkpt>
      <trkpt lat="38.35079" lon="38.35279">
        <ele>1000.476369</ele>
        <time>2022-02-25T01:53:04.598Z</time>
      </trkpt>
      <trkpt lat="38.35088" lon="38.35255">
        <ele>999.472567</ele>
        <time>2022-02-25T01:53:08.562Z</time>
      </trkpt>
      <trkpt lat="38.35096" lon="38.35233">
        <ele>998.611007</ele>
        <time>2022-02-25T01:53:11.938Z</time>
      </trkpt>
      <trkpt lat="38.35122" lon="38.35145">
        <ele>995.703525</ele>
        <time>2022-02-25T01:53:25.771Z</time>
      </trkpt>
      <trkpt lat="38.35127" lon="38.35129">
        <ele>995.210013</ele>
        <time>2022-02-25T01:53:28.382Z</time>
      </trkpt>
      <trkpt lat="38.35128" lon="38.35119">
        <ele>994.914443</ele>
        <time>2022-02-25T01:53:29.913Z</time>
      </trkpt>
      <trkpt lat="38.35129" lon="38.35112">
        <ele>994.704415</ele>
        <time>2022-02-25T01:53:31.038Z</time>
      </trkpt>
      <trkpt lat="38.35128" lon="38.35095">
        <ele>994.239441</ele>
        <time>2022-02-25T01:53:33.583Z</time>
      </trkpt>
      <trkpt lat="38.35128" lon="38.3506">
        <ele>993.236025</ele>
        <time>2022-02-25T01:53:38.893Z</time>
      </trkpt>
      <trkpt lat="38.35133" lon="38.35005">
        <ele>991.681547</ele>
        <time>2022-02-25T01:53:47.386Z</time>
      </trkpt>
      <trkpt lat="38.35139" lon="38.34969">
        <ele>990.712869</ele>
        <time>2022-02-25T01:53:53.036Z</time>
      </trkpt>
      <trkpt lat="38.35148" lon="38.34925">
        <ele>989.733268</ele>
        <time>2022-02-25T01:53:59.904Z</time>
      </trkpt>
      <trkpt lat="38.35154" lon="38.34888">
        <ele>988.918843</ele>
        <time>2022-02-25T01:54:05.792Z</time>
      </trkpt>
      <trkpt lat="38.35157" lon="38.34874">
        <ele>988.606774</ele>
        <time>2022-02-25T01:54:08.013Z</time>
      </trkpt>
      <trkpt lat="38.35159" lon="38.34864">
        <ele>988.388952</ele>
        <time>2022-02-25T01:54:09.667Z</time>
      </trkpt>
      <trkpt lat="38.35171" lon="38.34832">
        <ele>987.614044</ele>
        <time>2022-02-25T01:54:15.280Z</time>
      </trkpt>
      <trkpt lat="38.35177" lon="38.34811">
        <ele>987.135062</ele>
        <time>2022-02-25T01:54:18.832Z</time>
      </trkpt>
      <trkpt lat="38.35179" lon="38.34796">
        <ele>986.798546</ele>
        <time>2022-02-25T01:54:21.199Z</time>
      </trkpt>
      <trkpt lat="38.35196" lon="38.34716">
        <ele>985.584212</ele>
        <time>2022-02-25T01:54:34.977Z</time>
      </trkpt>
      <trkpt lat="38.35204" lon="38.34677">
        <ele>985.193491</ele>
        <time>2022-02-25T01:54:41.625Z</time>
      </trkpt>
      <trkpt lat="38.3521" lon="38.34647">
        <ele>984.888318</ele>
        <time>2022-02-25T01:54:46.864Z</time>
      </trkpt>
      <trkpt lat="38.35214" lon="38.34629">
        <ele>984.70567</ele>
        <time>2022-02-25T01:54:50.067Z</time>
      </trkpt>
      <trkpt lat="38.35224" lon="38.34562">
        <ele>984.034507</ele>
        <time>2022-02-25T01:55:03.003Z</time>
      </trkpt>
      <trkpt lat="38.35226" lon="38.34545">
        <ele>983.862853</ele>
        <time>2022-02-25T01:55:06.707Z</time>
      </trkpt>
      <trkpt lat="38.35227" lon="38.34541">
        <ele>983.82327</ele>
        <time>2022-02-25T01:55:07.450Z</time>
      </trkpt>
      <trkpt lat="38.3523" lon="38.34495">
        <ele>984.083882</ele>
        <time>2022-02-25T01:55:17.509Z</time>
      </trkpt>
      <trkpt lat="38.3523" lon="38.34479">
        <ele>984.180651</ele>
        <time>2022-02-25T01:55:21.174Z</time>
      </trkpt>
      <trkpt lat="38.3523" lon="38.3446">
        <ele>984.293532</ele>
        <time>2022-02-25T01:55:25.976Z</time>
      </trkpt>
      <trkpt lat="38.3523" lon="38.34444">
        <ele>984.389041</ele>
        <time>2022-02-25T01:55:29.526Z</time>
      </trkpt>
      <trkpt lat="38.35231" lon="38.34425">
        <ele>984.502721</ele>
        <time>2022-02-25T01:55:34.438Z</time>
      </trkpt>
      <trkpt lat="38.35233" lon="38.34404">
        <ele>984.626568</ele>
        <time>2022-02-25T01:55:39.600Z</time>
      </trkpt>
      <trkpt lat="38.35236" lon="38.3438">
        <ele>984.777815</ele>
        <time>2022-02-25T01:55:45.869Z</time>
      </trkpt>
      <trkpt lat="38.35238" lon="38.3436">
        <ele>984.893406</ele>
        <time>2022-02-25T01:55:50.700Z</time>
      </trkpt>
      <trkpt lat="38.35243" lon="38.34332">
        <ele>985.067511</ele>
        <time>2022-02-25T01:55:57.932Z</time>
      </trkpt>
      <trkpt lat="38.3525" lon="38.34306">
        <ele>985.260818</ele>
        <time>2022-02-25T01:56:04.937Z</time>
      </trkpt>
      <trkpt lat="38.35258" lon="38.3428">
        <ele>985.536348</ele>
        <time>2022-02-25T01:56:12.429Z</time>
      </trkpt>
      <trkpt lat="38.35271" lon="38.3424">
        <ele>985.958829</ele>
        <time>2022-02-25T01:56:23.832Z</time>
      </trkpt>
      <trkpt lat="38.35285" lon="38.34197">
        <ele>986.407921</ele>
        <time>2022-02-25T01:56:36.128Z</time>
      </trkpt>
      <trkpt lat="38.35287" lon="38.34186">
        <ele>986.514991</ele>
        <time>2022-02-25T01:56:38.971Z</time>
      </trkpt>
      <trkpt lat="38.35293" lon="38.34158">
        <ele>986.800381</ele>
        <time>2022-02-25T01:56:46.950Z</time>
      </trkpt>
      <trkpt lat="38.35304" lon="38.341">
        <ele>987.382788</ele>
        <time>2022-02-25T01:57:02.293Z</time>
      </trkpt>
      <trkpt lat="38.35313" lon="38.3405">
        <ele>987.234855</ele>
        <time>2022-02-25T01:57:13.779Z</time>
      </trkpt>
      <trkpt lat="38.35318" lon="38.34021">
        <ele>987.114497</ele>
        <time>2022-02-25T01:57:20.108Z</time>
      </trkpt>
      <trkpt lat="38.35323" lon="38.33991">
        <ele>986.993425</ele>
        <time>2022-02-25T01:57:25.958Z</time>
      </trkpt>
      <trkpt lat="38.35325" lon="38.33983">
        <ele>986.958818</ele>
        <time>2022-02-25T01:57:27.769Z</time>
      </trkpt>
      <trkpt lat="38.35326" lon="38.33956">
        <ele>986.849895</ele>
        <time>2022-02-25T01:57:32.751Z</time>
      </trkpt>
      <trkpt lat="38.35321" lon="38.33942">
        <ele>986.787022</ele>
        <time>2022-02-25T01:57:35.871Z</time>
      </trkpt>
      <trkpt lat="38.3534" lon="38.33908">
        <ele>986.618055</ele>
        <time>2022-02-25T01:57:43.393Z</time>
      </trkpt>
      <trkpt lat="38.35349" lon="38.3389">
        <ele>986.532811</ele>
        <time>2022-02-25T01:57:47.014Z</time>
      </trkpt>
      <trkpt lat="38.35378" lon="38.33831">
        <ele>985.315797</ele>
        <time>2022-02-25T01:57:58.482Z</time>
      </trkpt>
      <trkpt lat="38.35395" lon="38.338">
        <ele>984.575607</ele>
        <time>2022-02-25T01:58:04.528Z</time>
      </trkpt>
      <trkpt lat="38.35415" lon="38.33762">
        <ele>983.694787</ele>
        <time>2022-02-25T01:58:11.535Z</time>
      </trkpt>
      <trkpt lat="38.35425" lon="38.33742">
        <ele>983.251722</ele>
        <time>2022-02-25T01:58:15.005Z</time>
      </trkpt>
      <trkpt lat="38.35456" lon="38.33657">
        <ele>981.554827</ele>
        <time>2022-02-25T01:58:30.056Z</time>
      </trkpt>
      <trkpt lat="38.3548" lon="38.33588">
        <ele>980.353936</ele>
        <time>2022-02-25T01:58:43.042Z</time>
      </trkpt>
      <trkpt lat="38.35513" lon="38.33498">
        <ele>978.788312</ele>
        <time>2022-02-25T01:58:59.878Z</time>
      </trkpt>
      <trkpt lat="38.35543" lon="38.33404">
        <ele>976.537117</ele>
        <time>2022-02-25T01:59:15.909Z</time>
      </trkpt>
      <trkpt lat="38.35549" lon="38.33381">
        <ele>975.974337</ele>
        <time>2022-02-25T01:59:19.560Z</time>
      </trkpt>
      <trkpt lat="38.35551" lon="38.33371">
        <ele>975.722744</ele>
        <time>2022-02-25T01:59:21.166Z</time>
      </trkpt>
      <trkpt lat="38.35553" lon="38.33368">
        <ele>975.621548</ele>
        <time>2022-02-25T01:59:21.812Z</time>
      </trkpt>
      <trkpt lat="38.35556" lon="38.33365">
        <ele>975.517945</ele>
        <time>2022-02-25T01:59:22.443Z</time>
      </trkpt>
      <trkpt lat="38.3556" lon="38.33353">
        <ele>975.212364</ele>
        <time>2022-02-25T01:59:24.487Z</time>
      </trkpt>
      <trkpt lat="38.3556" lon="38.33349">
        <ele>975.107676</ele>
        <time>2022-02-25T01:59:25.119Z</time>
      </trkpt>
      <trkpt lat="38.35559" lon="38.33345">
        <ele>975.006145</ele>
        <time>2022-02-25T01:59:25.799Z</time>
      </trkpt>
      <trkpt lat="38.3557" lon="38.33315">
        <ele>974.217641</ele>
        <time>2022-02-25T01:59:30.835Z</time>
      </trkpt>
      <trkpt lat="38.35572" lon="38.33306">
        <ele>973.98705</ele>
        <time>2022-02-25T01:59:32.316Z</time>
      </trkpt>
      <trkpt lat="38.3558" lon="38.33281">
        <ele>973.374773</ele>
        <time>2022-02-25T01:59:36.195Z</time>
      </trkpt>
      <trkpt lat="38.35584" lon="38.33247">
        <ele>972.615672</ele>
        <time>2022-02-25T01:59:41.420Z</time>
      </trkpt>
      <trkpt lat="38.35591" lon="38.33207">
        <ele>971.761398</ele>
        <time>2022-02-25T01:59:47.688Z</time>
      </trkpt>
      <trkpt lat="38.35605" lon="38.33104">
        <ele>969.628471</ele>
        <time>2022-02-25T02:00:03.884Z</time>
      </trkpt>
      <trkpt lat="38.35608" lon="38.33055">
        <ele>968.627038</ele>
        <time>2022-02-25T02:00:12.173Z</time>
      </trkpt>
      <trkpt lat="38.35608" lon="38.33001">
        <ele>968.146218</ele>
        <time>2022-02-25T02:00:21.844Z</time>
      </trkpt>
      <trkpt lat="38.35597" lon="38.32888">
        <ele>967.666793</ele>
        <time>2022-02-25T02:00:43.724Z</time>
      </trkpt>
      <trkpt lat="38.3557" lon="38.32757">
        <ele>967.441743</ele>
        <time>2022-02-25T02:01:12.585Z</time>
      </trkpt>
      <trkpt lat="38.35569" lon="38.3275">
        <ele>967.45516</ele>
        <time>2022-02-25T02:01:14.340Z</time>
      </trkpt>
      <trkpt lat="38.35563" lon="38.32733">
        <ele>967.484654</ele>
        <time>2022-02-25T02:01:18.398Z</time>
      </trkpt>
      <trkpt lat="38.35547" lon="38.3268">
        <ele>967.57955</ele>
        <time>2022-02-25T02:01:30.835Z</time>
      </trkpt>
      <trkpt lat="38.35534" lon="38.32641">
        <ele>967.65009</ele>
        <time>2022-02-25T02:01:40.269Z</time>
      </trkpt>
      <trkpt lat="38.35539" lon="38.3263">
        <ele>967.671412</ele>
        <time>2022-02-25T02:01:43.053Z</time>
      </trkpt>
      <trkpt lat="38.35549" lon="38.3261">
        <ele>967.709319</ele>
        <time>2022-02-25T02:01:48.498Z</time>
      </trkpt>
      <trkpt lat="38.35551" lon="38.32583">
        <ele>967.660538</ele>
        <time>2022-02-25T02:01:54.624Z</time>
      </trkpt>
      <trkpt lat="38.35543" lon="38.32518">
        <ele>967.419613</ele>
        <time>2022-02-25T02:02:08.956Z</time>
      </trkpt>
      <trkpt lat="38.3553" lon="38.32434">
        <ele>967.101854</ele>
        <time>2022-02-25T02:02:26.172Z</time>
      </trkpt>
      <trkpt lat="38.35526" lon="38.32376">
        <ele>966.889657</ele>
        <time>2022-02-25T02:02:37.278Z</time>
      </trkpt>
      <trkpt lat="38.35531" lon="38.32361">
        <ele>966.711773</ele>
        <time>2022-02-25T02:02:40.579Z</time>
      </trkpt>
      <trkpt lat="38.35537" lon="38.32356">
        <ele>966.623513</ele>
        <time>2022-02-25T02:02:41.941Z</time>
      </trkpt>
      <trkpt lat="38.35571" lon="38.32327">
        <ele>966.024512</ele>
        <time>2022-02-25T02:02:51.550Z</time>
      </trkpt>
      <trkpt lat="38.35581" lon="38.32242">
        <ele>965.047959</ele>
        <time>2022-02-25T02:03:07.381Z</time>
      </trkpt>
      <trkpt lat="38.3558" lon="38.32203">
        <ele>964.609632</ele>
        <time>2022-02-25T02:03:14.389Z</time>
      </trkpt>
      <trkpt lat="38.3558" lon="38.32192">
        <ele>964.48956</ele>
        <time>2022-02-25T02:03:16.157Z</time>
      </trkpt>
      <trkpt lat="38.35557" lon="38.32139">
        <ele>963.647088</ele>
        <time>2022-02-25T02:03:26.790Z</time>
      </trkpt>
      <trkpt lat="38.35532" lon="38.32163">
        <ele>963.060051</ele>
        <time>2022-02-25T02:03:33.614Z</time>
      </trkpt>
      <trkpt lat="38.35516" lon="38.32175">
        <ele>962.713626</ele>
        <time>2022-02-25T02:03:37.691Z</time>
      </trkpt>
      <trkpt lat="38.35486" lon="38.32096">
        <ele>961.413421</ele>
        <time>2022-02-25T02:03:52.866Z</time>
      </trkpt>
      <trkpt lat="38.35456" lon="38.32013">
        <ele>960.064471</ele>
        <time>2022-02-25T02:04:09.166Z</time>
      </trkpt>
      <trkpt lat="38.35452" lon="38.32002">
        <ele>959.884773</ele>
        <time>2022-02-25T02:04:11.305Z</time>
      </trkpt>
      <trkpt lat="38.35431" lon="38.31954">
        <ele>959.095392</ele>
        <time>2022-02-25T02:04:20.544Z</time>
      </trkpt>
      <trkpt lat="38.35419" lon="38.31944">
        <ele>958.839274</ele>
        <time>2022-02-25T02:04:23.628Z</time>
      </trkpt>
      <trkpt lat="38.35407" lon="38.31941">
        <ele>958.608134</ele>
        <time>2022-02-25T02:04:26.458Z</time>
      </trkpt>
      <trkpt lat="38.35401" lon="38.31931">
        <ele>958.424751</ele>
        <time>2022-02-25T02:04:28.712Z</time>
      </trkpt>
      <trkpt lat="38.35399" lon="38.31915">
        <ele>958.197834</ele>
        <time>2022-02-25T02:04:31.578Z</time>
      </trkpt>
      <trkpt lat="38.3538" lon="38.31794">
        <ele>956.788246</ele>
        <time>2022-02-25T02:04:53.874Z</time>
      </trkpt>
      <trkpt lat="38.35369" lon="38.31712">
        <ele>955.974042</ele>
        <time>2022-02-25T02:05:09.146Z</time>
      </trkpt>
      <trkpt lat="38.35356" lon="38.31629">
        <ele>955.302491</ele>
        <time>2022-02-25T02:05:25.270Z</time>
      </trkpt>
      <trkpt lat="38.35347" lon="38.31562">
        <ele>955.203162</ele>
        <time>2022-02-25T02:05:39.822Z</time>
      </trkpt>
      <trkpt lat="38.35342" lon="38.31528">
        <ele>955.152648</ele>
        <time>2022-02-25T02:05:47.222Z</time>
      </trkpt>
      <trkpt lat="38.35324" lon="38.31505">
        <ele>955.106207</ele>
        <time>2022-02-25T02:05:53.746Z</time>
      </trkpt>
      <trkpt lat="38.35349" lon="38.31464">
        <ele>955.030121</ele>
        <time>2022-02-25T02:06:05.271Z</time>
      </trkpt>
      <trkpt lat="38.35344" lon="38.3139">
        <ele>954.831998</ele>
        <time>2022-02-25T02:06:22.793Z</time>
      </trkpt>
      <trkpt lat="38.35349" lon="38.31374">
        <ele>954.775533</ele>
        <time>2022-02-25T02:06:26.764Z</time>
      </trkpt>
      <trkpt lat="38.3533" lon="38.31291">
        <ele>954.493808</ele>
        <time>2022-02-25T02:06:44.893Z</time>
      </trkpt>
      <trkpt lat="38.35312" lon="38.31203">
        <ele>954.112039</ele>
        <time>2022-02-25T02:07:02.005Z</time>
      </trkpt>
      <trkpt lat="38.35298" lon="38.31157">
        <ele>953.682231</ele>
        <time>2022-02-25T02:07:10.814Z</time>
      </trkpt>
      <trkpt lat="38.35297" lon="38.31151">
        <ele>953.626236</ele>
        <time>2022-02-25T02:07:11.889Z</time>
      </trkpt>
      <trkpt lat="38.35289" lon="38.31118">
        <ele>953.324389</ele>
        <time>2022-02-25T02:07:18.211Z</time>
      </trkpt>
      <trkpt lat="38.35283" lon="38.31076">
        <ele>952.941343</ele>
        <time>2022-02-25T02:07:26.296Z</time>
      </trkpt>
      <trkpt lat="38.35282" lon="38.31018">
        <ele>952.431066</ele>
        <time>2022-02-25T02:07:37.313Z</time>
      </trkpt>
      <trkpt lat="38.35266" lon="38.30937">
        <ele>952.009911</ele>
        <time>2022-02-25T02:07:53.514Z</time>
      </trkpt>
      <trkpt lat="38.35241" lon="38.30834">
        <ele>951.63108</ele>
        <time>2022-02-25T02:08:15.465Z</time>
      </trkpt>
      <trkpt lat="38.35244" lon="38.30801">
        <ele>951.513203</ele>
        <time>2022-02-25T02:08:22.507Z</time>
      </trkpt>
      <trkpt lat="38.35245" lon="38.30767">
        <ele>951.385853</ele>
        <time>2022-02-25T02:08:30.171Z</time>
      </trkpt>
      <trkpt lat="38.35252" lon="38.30698">
        <ele>951.069213</ele>
        <time>2022-02-25T02:08:45.383Z</time>
      </trkpt>
      <trkpt lat="38.3526" lon="38.30645">
        <ele>950.825355</ele>
        <time>2022-02-25T02:08:56.154Z</time>
      </trkpt>
      <trkpt lat="38.35266" lon="38.30615">
        <ele>950.682004</ele>
        <time>2022-02-25T02:09:02.186Z</time>
      </trkpt>
      <trkpt lat="38.35267" lon="38.30611">
        <ele>950.663092</ele>
        <time>2022-02-25T02:09:03.170Z</time>
      </trkpt>
      <trkpt lat="38.35277" lon="38.30566">
        <ele>950.453192</ele>
        <time>2022-02-25T02:09:11.914Z</time>
      </trkpt>
      <trkpt lat="38.35294" lon="38.30476">
        <ele>949.426375</ele>
        <time>2022-02-25T02:09:29.129Z</time>
      </trkpt>
      <trkpt lat="38.35307" lon="38.30393">
        <ele>948.341324</ele>
        <time>2022-02-25T02:09:44.345Z</time>
      </trkpt>
      <trkpt lat="38.35315" lon="38.30348">
        <ele>947.755447</ele>
        <time>2022-02-25T02:09:52.203Z</time>
      </trkpt>
      <trkpt lat="38.35322" lon="38.30305">
        <ele>947.125441</ele>
        <time>2022-02-25T02:09:59.690Z</time>
      </trkpt>
      <trkpt lat="38.35332" lon="38.30261">
        <ele>946.379841</ele>
        <time>2022-02-25T02:10:07.492Z</time>
      </trkpt>
      <trkpt lat="38.35351" lon="38.30168">
        <ele>944.815101</ele>
        <time>2022-02-25T02:10:24.178Z</time>
      </trkpt>
      <trkpt lat="38.35356" lon="38.30128">
        <ele>944.16691</ele>
        <time>2022-02-25T02:10:31.023Z</time>
      </trkpt>
      <trkpt lat="38.3536" lon="38.30126">
        <ele>944.079721</ele>
        <time>2022-02-25T02:10:31.906Z</time>
      </trkpt>
      <trkpt lat="38.35362" lon="38.30124">
        <ele>944.009038</ele>
        <time>2022-02-25T02:10:32.652Z</time>
      </trkpt>
      <trkpt lat="38.35365" lon="38.3012">
        <ele>943.928604</ele>
        <time>2022-02-25T02:10:33.501Z</time>
      </trkpt>
      <trkpt lat="38.35366" lon="38.30115">
        <ele>943.840098</ele>
        <time>2022-02-25T02:10:34.423Z</time>
      </trkpt>
      <trkpt lat="38.35366" lon="38.30109">
        <ele>943.749075</ele>
        <time>2022-02-25T02:10:35.390Z</time>
      </trkpt>
      <trkpt lat="38.35364" lon="38.30104">
        <ele>943.674476</ele>
        <time>2022-02-25T02:10:36.251Z</time>
      </trkpt>
      <trkpt lat="38.35361" lon="38.301">
        <ele>943.610927</ele>
        <time>2022-02-25T02:10:37.116Z</time>
      </trkpt>
      <trkpt lat="38.35359" lon="38.30098">
        <ele>943.567188</ele>
        <time>2022-02-25T02:10:37.711Z</time>
      </trkpt>
      <trkpt lat="38.35355" lon="38.30098">
        <ele>943.519873</ele>
        <time>2022-02-25T02:10:38.342Z</time>
      </trkpt>
      <trkpt lat="38.35347" lon="38.30091">
        <ele>943.37538</ele>
        <time>2022-02-25T02:10:40.421Z</time>
      </trkpt>
      <trkpt lat="38.35338" lon="38.3008">
        <ele>943.187131</ele>
        <time>2022-02-25T02:10:43.226Z</time>
      </trkpt>
      <trkpt lat="38.35329" lon="38.30066">
        <ele>942.96617</ele>
        <time>2022-02-25T02:10:46.275Z</time>
      </trkpt>
      <trkpt lat="38.35296" lon="38.30012">
        <ele>942.16025</ele>
        <time>2022-02-25T02:10:58.177Z</time>
      </trkpt>
      <trkpt lat="38.35293" lon="38.30002">
        <ele>942.035163</ele>
        <time>2022-02-25T02:11:00.026Z</time>
      </trkpt>
      <trkpt lat="38.35293" lon="38.3">
        <ele>942.007034</ele>
        <time>2022-02-25T02:11:00.416Z</time>
      </trkpt>
      <trkpt lat="38.35293" lon="38.29995">
        <ele>941.951458</ele>
        <time>2022-02-25T02:11:01.219Z</time>
      </trkpt>
      <trkpt lat="38.35298" lon="38.29986">
        <ele>941.817911</ele>
        <time>2022-02-25T02:11:03.262Z</time>
      </trkpt>
      <trkpt lat="38.35309" lon="38.29961">
        <ele>941.47563</ele>
        <time>2022-02-25T02:11:08.787Z</time>
      </trkpt>
      <trkpt lat="38.35313" lon="38.29949">
        <ele>941.326882</ele>
        <time>2022-02-25T02:11:11.035Z</time>
      </trkpt>
      <trkpt lat="38.35321" lon="38.29926">
        <ele>941.025544</ele>
        <time>2022-02-25T02:11:16.067Z</time>
      </trkpt>
      <trkpt lat="38.35325" lon="38.29905">
        <ele>940.92622</ele>
        <time>2022-02-25T02:11:19.819Z</time>
      </trkpt>
      <trkpt lat="38.35327" lon="38.2988">
        <ele>940.823899</ele>
        <time>2022-02-25T02:11:24.592Z</time>
      </trkpt>
      <trkpt lat="38.35335" lon="38.29805">
        <ele>940.51403</ele>
        <time>2022-02-25T02:11:38.842Z</time>
      </trkpt>
      <trkpt lat="38.35336" lon="38.29784">
        <ele>940.425927</ele>
        <time>2022-02-25T02:11:43.387Z</time>
      </trkpt>
      <trkpt lat="38.35335" lon="38.29728">
        <ele>940.197435</ele>
        <time>2022-02-25T02:11:55.898Z</time>
      </trkpt>
      <trkpt lat="38.35339" lon="38.29704">
        <ele>940.098047</ele>
        <time>2022-02-25T02:12:01.808Z</time>
      </trkpt>
      <trkpt lat="38.35341" lon="38.29701">
        <ele>940.080905</ele>
        <time>2022-02-25T02:12:02.898Z</time>
      </trkpt>
      <trkpt lat="38.35346" lon="38.29686">
        <ele>940.058506</ele>
        <time>2022-02-25T02:12:06.626Z</time>
      </trkpt>
      <trkpt lat="38.35346" lon="38.29681">
        <ele>940.055462</ele>
        <time>2022-02-25T02:12:07.523Z</time>
      </trkpt>
      <trkpt lat="38.35346" lon="38.29677">
        <ele>940.052222</ele>
        <time>2022-02-25T02:12:08.504Z</time>
      </trkpt>
      <trkpt lat="38.35339" lon="38.29663">
        <ele>940.039811</ele>
        <time>2022-02-25T02:12:12.111Z</time>
      </trkpt>
      <trkpt lat="38.35334" lon="38.29658">
        <ele>940.033541</ele>
        <time>2022-02-25T02:12:14.111Z</time>
      </trkpt>
      <trkpt lat="38.35328" lon="38.29655">
        <ele>940.027276</ele>
        <time>2022-02-25T02:12:15.768Z</time>
      </trkpt>
      <trkpt lat="38.35321" lon="38.29655">
        <ele>940.020936</ele>
        <time>2022-02-25T02:12:17.383Z</time>
      </trkpt>
      <trkpt lat="38.3531" lon="38.29641">
        <ele>940.006347</ele>
        <time>2022-02-25T02:12:21.429Z</time>
      </trkpt>
      <trkpt lat="38.353" lon="38.29617">
        <ele>939.985945</ele>
        <time>2022-02-25T02:12:27.073Z</time>
      </trkpt>
      <trkpt lat="38.35292" lon="38.29542">
        <ele>939.929712</ele>
        <time>2022-02-25T02:12:43.141Z</time>
      </trkpt>
      <trkpt lat="38.35287" lon="38.29493">
        <ele>939.873918</ele>
        <time>2022-02-25T02:12:53.607Z</time>
      </trkpt>
      <trkpt lat="38.35284" lon="38.2945">
        <ele>939.713905</ele>
        <time>2022-02-25T02:13:02.775Z</time>
      </trkpt>
      <trkpt lat="38.35277" lon="38.29343">
        <ele>939.317558</ele>
        <time>2022-02-25T02:13:23.890Z</time>
      </trkpt>
      <trkpt lat="38.3527" lon="38.2925">
        <ele>939.128703</ele>
        <time>2022-02-25T02:13:42.537Z</time>
      </trkpt>
      <trkpt lat="38.35261" lon="38.29118">
        <ele>939.583854</ele>
        <time>2022-02-25T02:14:13.881Z</time>
      </trkpt>
      <trkpt lat="38.35259" lon="38.29087">
        <ele>939.69235</ele>
        <time>2022-02-25T02:14:21.629Z</time>
      </trkpt>
      <trkpt lat="38.35255" lon="38.29033">
        <ele>939.914833</ele>
        <time>2022-02-25T02:14:35.148Z</time>
      </trkpt>
      <trkpt lat="38.35253" lon="38.29009">
        <ele>940.092206</ele>
        <time>2022-02-25T02:14:41.296Z</time>
      </trkpt>
      <trkpt lat="38.35243" lon="38.28949">
        <ele>940.543424</ele>
        <time>2022-02-25T02:14:56.569Z</time>
      </trkpt>
      <trkpt lat="38.35234" lon="38.28895">
        <ele>940.953033</ele>
        <time>2022-02-25T02:15:10.556Z</time>
      </trkpt>
      <trkpt lat="38.35216" lon="38.28796">
        <ele>941.73599</ele>
        <time>2022-02-25T02:15:36.508Z</time>
      </trkpt>
      <trkpt lat="38.35215" lon="38.2879">
        <ele>941.786678</ele>
        <time>2022-02-25T02:15:37.811Z</time>
      </trkpt>
      <trkpt lat="38.3521" lon="38.28758">
        <ele>942.076638</ele>
        <time>2022-02-25T02:15:46.588Z</time>
      </trkpt>
      <trkpt lat="38.35179" lon="38.28572">
        <ele>943.629262</ele>
        <time>2022-02-25T02:16:37.105Z</time>
      </trkpt>
      <trkpt lat="38.35157" lon="38.28469">
        <ele>943.872348</ele>
        <time>2022-02-25T02:17:02.809Z</time>
      </trkpt>
      <trkpt lat="38.35137" lon="38.28386">
        <ele>944.070337</ele>
        <time>2022-02-25T02:17:21.116Z</time>
      </trkpt>
      <trkpt lat="38.35179" lon="38.28369">
        <ele>943.834567</ele>
        <time>2022-02-25T02:17:31.540Z</time>
      </trkpt>
      <trkpt lat="38.35171" lon="38.28345">
        <ele>943.667828</ele>
        <time>2022-02-25T02:17:36.353Z</time>
      </trkpt>
      <trkpt lat="38.35127" lon="38.28205">
        <ele>942.701124</ele>
        <time>2022-02-25T02:18:03.811Z</time>
      </trkpt>
      <trkpt lat="38.35112" lon="38.28183">
        <ele>942.541092</ele>
        <time>2022-02-25T02:18:09.319Z</time>
      </trkpt>
      <trkpt lat="38.35105" lon="38.28167">
        <ele>942.45291</ele>
        <time>2022-02-25T02:18:12.685Z</time>
      </trkpt>
      <trkpt lat="38.35047" lon="38.27987">
        <ele>941.502259</ele>
        <time>2022-02-25T02:18:49.731Z</time>
      </trkpt>
      <trkpt lat="38.34997" lon="38.27828">
        <ele>941.27857</ele>
        <time>2022-02-25T02:19:24.099Z</time>
      </trkpt>
      <trkpt lat="38.34987" lon="38.27799">
        <ele>941.237118</ele>
        <time>2022-02-25T02:19:30.894Z</time>
      </trkpt>
      <trkpt lat="38.34946" lon="38.27673">
        <ele>941.335765</ele>
        <time>2022-02-25T02:20:00.800Z</time>
      </trkpt>
      <trkpt lat="38.34936" lon="38.27633">
        <ele>941.384375</ele>
        <time>2022-02-25T02:20:09.991Z</time>
      </trkpt>
      <trkpt lat="38.34914" lon="38.27565">
        <ele>941.469511</ele>
        <time>2022-02-25T02:20:25.682Z</time>
      </trkpt>
      <trkpt lat="38.34906" lon="38.27552">
        <ele>941.436723</ele>
        <time>2022-02-25T02:20:29.088Z</time>
      </trkpt>
      <trkpt lat="38.34907" lon="38.27546">
        <ele>941.421845</ele>
        <time>2022-02-25T02:20:30.387Z</time>
      </trkpt>
      <trkpt lat="38.34904" lon="38.27534">
        <ele>941.392552</ele>
        <time>2022-02-25T02:20:33.012Z</time>
      </trkpt>
      <trkpt lat="38.349" lon="38.27529">
        <ele>941.377626</ele>
        <time>2022-02-25T02:20:34.344Z</time>
      </trkpt>
      <trkpt lat="38.34898" lon="38.27528">
        <ele>941.370666</ele>
        <time>2022-02-25T02:20:34.973Z</time>
      </trkpt>
      <trkpt lat="38.34897" lon="38.27509">
        <ele>941.326682</ele>
        <time>2022-02-25T02:20:38.775Z</time>
      </trkpt>
      <trkpt lat="38.34895" lon="38.27213">
        <ele>940.629753</ele>
        <time>2022-02-25T02:21:36.832Z</time>
      </trkpt>
      <trkpt lat="38.34885" lon="38.27144">
        <ele>940.463877</ele>
        <time>2022-02-25T02:21:50.906Z</time>
      </trkpt>
      <trkpt lat="38.34685" lon="38.2645">
        <ele>939.666778</ele>
        <time>2022-02-25T02:24:23.451Z</time>
      </trkpt>
      <trkpt lat="38.346" lon="38.26173">
        <ele>937.716456</ele>
        <time>2022-02-25T02:25:18.092Z</time>
      </trkpt>
      <trkpt lat="38.34585" lon="38.26128">
        <ele>937.327006</ele>
        <time>2022-02-25T02:25:26.826Z</time>
      </trkpt>
      <trkpt lat="38.34586" lon="38.26124">
        <ele>937.294236</ele>
        <time>2022-02-25T02:25:27.564Z</time>
      </trkpt>
      <trkpt lat="38.34587" lon="38.2612">
        <ele>937.260765</ele>
        <time>2022-02-25T02:25:28.315Z</time>
      </trkpt>
      <trkpt lat="38.34587" lon="38.26116">
        <ele>937.228045</ele>
        <time>2022-02-25T02:25:29.054Z</time>
      </trkpt>
      <trkpt lat="38.34586" lon="38.26112">
        <ele>937.194775</ele>
        <time>2022-02-25T02:25:29.796Z</time>
      </trkpt>
      <trkpt lat="38.34585" lon="38.26108">
        <ele>937.162098</ele>
        <time>2022-02-25T02:25:30.539Z</time>
      </trkpt>
      <trkpt lat="38.34583" lon="38.26105">
        <ele>937.128712</ele>
        <time>2022-02-25T02:25:31.279Z</time>
      </trkpt>
      <trkpt lat="38.3458" lon="38.26101">
        <ele>937.079618</ele>
        <time>2022-02-25T02:25:32.389Z</time>
      </trkpt>
      <trkpt lat="38.34575" lon="38.26098">
        <ele>937.030293</ele>
        <time>2022-02-25T02:25:33.501Z</time>
      </trkpt>
      <trkpt lat="38.34573" lon="38.26098">
        <ele>937.009811</ele>
        <time>2022-02-25T02:25:33.965Z</time>
      </trkpt>
      <trkpt lat="38.34557" lon="38.26042">
        <ele>936.532788</ele>
        <time>2022-02-25T02:25:44.671Z</time>
      </trkpt>
      <trkpt lat="38.34179" lon="38.24777">
        <ele>925.952601</ele>
        <time>2022-02-25T02:29:50.444Z</time>
      </trkpt>
      <trkpt lat="38.34119" lon="38.24584">
        <ele>924.719446</ele>
        <time>2022-02-25T02:30:29.129Z</time>
      </trkpt>
      <trkpt lat="38.34114" lon="38.24568">
        <ele>924.615883</ele>
        <time>2022-02-25T02:30:32.522Z</time>
      </trkpt>
      <trkpt lat="38.3411" lon="38.24553">
        <ele>924.521557</ele>
        <time>2022-02-25T02:30:35.617Z</time>
      </trkpt>
      <trkpt lat="38.34048" lon="38.24347">
        <ele>923.513365</ele>
        <time>2022-02-25T02:31:17.999Z</time>
      </trkpt>
      <trkpt lat="38.34027" lon="38.24265">
        <ele>923.198543</ele>
        <time>2022-02-25T02:31:34.004Z</time>
      </trkpt>
      <trkpt lat="38.34014" lon="38.24183">
        <ele>922.904097</ele>
        <time>2022-02-25T02:31:50.014Z</time>
      </trkpt>
      <trkpt lat="38.34013" lon="38.24173">
        <ele>922.870149</ele>
        <time>2022-02-25T02:31:51.693Z</time>
      </trkpt>
      <trkpt lat="38.34013" lon="38.24161">
        <ele>922.828617</ele>
        <time>2022-02-25T02:31:54.057Z</time>
      </trkpt>
      <trkpt lat="38.34012" lon="38.2415">
        <ele>922.787765</ele>
        <time>2022-02-25T02:31:56.247Z</time>
      </trkpt>
      <trkpt lat="38.33996" lon="38.2368">
        <ele>924.438348</ele>
        <time>2022-02-25T02:33:42.646Z</time>
      </trkpt>
      <trkpt lat="38.33991" lon="38.23566">
        <ele>925.715302</ele>
        <time>2022-02-25T02:34:13.421Z</time>
      </trkpt>
      <trkpt lat="38.33982" lon="38.23567">
        <ele>925.855951</ele>
        <time>2022-02-25T02:34:16.587Z</time>
      </trkpt>
      <trkpt lat="38.33972" lon="38.23568">
        <ele>926.016427</ele>
        <time>2022-02-25T02:34:20.228Z</time>
      </trkpt>
      <trkpt lat="38.33888" lon="38.23577">
        <ele>927.421379</ele>
        <time>2022-02-25T02:34:52.191Z</time>
      </trkpt>
      <trkpt lat="38.33884" lon="38.23569">
        <ele>927.542841</ele>
        <time>2022-02-25T02:34:54.668Z</time>
      </trkpt>
      <trkpt lat="38.33883" lon="38.23559">
        <ele>927.626736</ele>
        <time>2022-02-25T02:34:57.629Z</time>
      </trkpt>
      <trkpt lat="38.33886" lon="38.23554">
        <ele>927.677961</ele>
        <time>2022-02-25T02:34:59.345Z</time>
      </trkpt>
      <trkpt lat="38.33886" lon="38.2355">
        <ele>927.715179</ele>
        <time>2022-02-25T02:35:00.511Z</time>
      </trkpt>
      <trkpt lat="38.33884" lon="38.23517">
        <ele>927.983011</ele>
        <time>2022-02-25T02:35:08.838Z</time>
      </trkpt>
      <trkpt lat="38.33881" lon="38.23466">
        <ele>928.403821</ele>
        <time>2022-02-25T02:35:21.871Z</time>
      </trkpt>
      <trkpt lat="38.33879" lon="38.23453">
        <ele>928.517312</ele>
        <time>2022-02-25T02:35:25.313Z</time>
      </trkpt>
      <trkpt lat="38.33873" lon="38.2341">
        <ele>928.877236</ele>
        <time>2022-02-25T02:35:36.323Z</time>
      </trkpt>
      <trkpt lat="38.33874" lon="38.23407">
        <ele>928.906205</ele>
        <time>2022-02-25T02:35:37.201Z</time>
      </trkpt>
      <trkpt lat="38.33875" lon="38.23403">
        <ele>928.935523</ele>
        <time>2022-02-25T02:35:38.057Z</time>
      </trkpt>
      <trkpt lat="38.33875" lon="38.234">
        <ele>928.957873</ele>
        <time>2022-02-25T02:35:38.738Z</time>
      </trkpt>
      <trkpt lat="38.33899" lon="38.2335">
        <ele>929.444294</ele>
        <time>2022-02-25T02:35:53.588Z</time>
      </trkpt>
      <trkpt lat="38.33889" lon="38.23342">
        <ele>929.536641</ele>
        <time>2022-02-25T02:35:57.478Z</time>
      </trkpt>
      <trkpt lat="38.33848" lon="38.23302">
        <ele>929.936565</ele>
        <time>2022-02-25T02:36:13.583Z</time>
      </trkpt>
      <trkpt lat="38.33809" lon="38.23264">
        <ele>930.314326</ele>
        <time>2022-02-25T02:36:28.252Z</time>
      </trkpt>
      <trkpt lat="38.33769" lon="38.23225">
        <ele>930.698946</ele>
        <time>2022-02-25T02:36:43.843Z</time>
      </trkpt>
      <trkpt lat="38.33759" lon="38.23215">
        <ele>930.799723</ele>
        <time>2022-02-25T02:36:48.215Z</time>
      </trkpt>
      <trkpt lat="38.33729" lon="38.23187">
        <ele>931.304317</ele>
        <time>2022-02-25T02:37:00.528Z</time>
      </trkpt>
      <trkpt lat="38.33689" lon="38.23148">
        <ele>932.032528</ele>
        <time>2022-02-25T02:37:18.348Z</time>
      </trkpt>
      <trkpt lat="38.3365" lon="38.23112">
        <ele>932.715564</ele>
        <time>2022-02-25T02:37:35.107Z</time>
      </trkpt>
      <trkpt lat="38.3361" lon="38.23074">
        <ele>933.443153</ele>
        <time>2022-02-25T02:37:52.761Z</time>
      </trkpt>
      <trkpt lat="38.33591" lon="38.23044">
        <ele>934.016277</ele>
        <time>2022-02-25T02:38:03.636Z</time>
      </trkpt>
      <trkpt lat="38.33581" lon="38.22928">
        <ele>935.724182</ele>
        <time>2022-02-25T02:38:37.446Z</time>
      </trkpt>
      <trkpt lat="38.3358" lon="38.22917">
        <ele>935.885201</ele>
        <time>2022-02-25T02:38:40.712Z</time>
      </trkpt>
      <trkpt lat="38.3353" lon="38.22923">
        <ele>936.82551</ele>
        <time>2022-02-25T02:38:59.700Z</time>
      </trkpt>
      <trkpt lat="38.33524" lon="38.22868">
        <ele>937.635849</ele>
        <time>2022-02-25T02:39:15.861Z</time>
      </trkpt>
      <trkpt lat="38.33517" lon="38.22809">
        <ele>938.495039</ele>
        <time>2022-02-25T02:39:32.892Z</time>
      </trkpt>
      <trkpt lat="38.3351" lon="38.22748">
        <ele>939.38871</ele>
        <time>2022-02-25T02:39:50.515Z</time>
      </trkpt>
      <trkpt lat="38.33503" lon="38.22686">
        <ele>940.245828</ele>
        <time>2022-02-25T02:40:08.259Z</time>
      </trkpt>
      <trkpt lat="38.33489" lon="38.22553">
        <ele>941.766181</ele>
        <time>2022-02-25T02:40:46.311Z</time>
      </trkpt>
      <trkpt lat="38.33476" lon="38.22481">
        <ele>942.608116</ele>
        <time>2022-02-25T02:41:05.841Z</time>
      </trkpt>
      <trkpt lat="38.33458" lon="38.22391">
        <ele>942.763028</ele>
        <time>2022-02-25T02:41:27.935Z</time>
      </trkpt>
      <trkpt lat="38.33438" lon="38.22237">
        <ele>942.838575</ele>
        <time>2022-02-25T02:41:59.925Z</time>
      </trkpt>
      <trkpt lat="38.33429" lon="38.22169">
        <ele>942.491795</ele>
        <time>2022-02-25T02:42:12.627Z</time>
      </trkpt>
      <trkpt lat="38.33434" lon="38.22091">
        <ele>942.091882</ele>
        <time>2022-02-25T02:42:26.660Z</time>
      </trkpt>
      <trkpt lat="38.33438" lon="38.22063">
        <ele>941.947172</ele>
        <time>2022-02-25T02:42:31.794Z</time>
      </trkpt>
      <trkpt lat="38.33461" lon="38.21993">
        <ele>942.017927</ele>
        <time>2022-02-25T02:42:46.798Z</time>
      </trkpt>
      <trkpt lat="38.3347" lon="38.21965">
        <ele>942.258366</ele>
        <time>2022-02-25T02:42:53.707Z</time>
      </trkpt>
      <trkpt lat="38.33476" lon="38.21935">
        <ele>942.497995</ele>
        <time>2022-02-25T02:43:00.796Z</time>
      </trkpt>
      <trkpt lat="38.33488" lon="38.21901">
        <ele>942.790045</ele>
        <time>2022-02-25T02:43:10.525Z</time>
      </trkpt>
      <trkpt lat="38.33526" lon="38.21819">
        <ele>943.53588</ele>
        <time>2022-02-25T02:43:36.499Z</time>
      </trkpt>
      <trkpt lat="38.33561" lon="38.2177">
        <ele>944.562086</ele>
        <time>2022-02-25T02:43:56.124Z</time>
      </trkpt>
      <trkpt lat="38.33584" lon="38.21749">
        <ele>945.132874</ele>
        <time>2022-02-25T02:44:07.560Z</time>
      </trkpt>
      <trkpt lat="38.33612" lon="38.21727">
        <ele>945.774134</ele>
        <time>2022-02-25T02:44:19.851Z</time>
      </trkpt>
      <trkpt lat="38.33697" lon="38.21656">
        <ele>947.26991</ele>
        <time>2022-02-25T02:44:55.164Z</time>
      </trkpt>
      <trkpt lat="38.33745" lon="38.21613">
        <ele>947.568789</ele>
        <time>2022-02-25T02:45:11.819Z</time>
      </trkpt>
      <trkpt lat="38.33781" lon="38.21575">
        <ele>947.806846</ele>
        <time>2022-02-25T02:45:24.399Z</time>
      </trkpt>
      <trkpt lat="38.33806" lon="38.21538">
        <ele>948.005213</ele>
        <time>2022-02-25T02:45:34.680Z</time>
      </trkpt>
      <trkpt lat="38.33835" lon="38.21473">
        <ele>948.13917</ele>
        <time>2022-02-25T02:45:50.227Z</time>
      </trkpt>
      <trkpt lat="38.33854" lon="38.21403">
        <ele>948.268168</ele>
        <time>2022-02-25T02:46:06.447Z</time>
      </trkpt>
      <trkpt lat="38.33864" lon="38.21287">
        <ele>948.454968</ele>
        <time>2022-02-25T02:46:32.338Z</time>
      </trkpt>
      <trkpt lat="38.3387" lon="38.21212">
        <ele>948.550218</ele>
        <time>2022-02-25T02:46:49.019Z</time>
      </trkpt>
      <trkpt lat="38.33876" lon="38.20982">
        <ele>948.628347</ele>
        <time>2022-02-25T02:47:37.352Z</time>
      </trkpt>
      <trkpt lat="38.33881" lon="38.20919">
        <ele>948.587463</ele>
        <time>2022-02-25T02:47:50.205Z</time>
      </trkpt>
      <trkpt lat="38.33915" lon="38.2061">
        <ele>948.332611</ele>
        <time>2022-02-25T02:48:53.948Z</time>
      </trkpt>
      <trkpt lat="38.3393" lon="38.20402">
        <ele>948.341123</ele>
        <time>2022-02-25T02:49:37.701Z</time>
      </trkpt>
      <trkpt lat="38.33932" lon="38.20333">
        <ele>948.544022</ele>
        <time>2022-02-25T02:49:53.184Z</time>
      </trkpt>
      <trkpt lat="38.33927" lon="38.20293">
        <ele>948.661495</ele>
        <time>2022-02-25T02:50:02.270Z</time>
      </trkpt>
      <trkpt lat="38.33926" lon="38.20215">
        <ele>948.890164</ele>
        <time>2022-02-25T02:50:20.190Z</time>
      </trkpt>
      <trkpt lat="38.33931" lon="38.20191">
        <ele>948.963949</ele>
        <time>2022-02-25T02:50:25.793Z</time>
      </trkpt>
      <trkpt lat="38.33941" lon="38.20172">
        <ele>948.968201</ele>
        <time>2022-02-25T02:50:30.909Z</time>
      </trkpt>
      <trkpt lat="38.33962" lon="38.20153">
        <ele>948.909317</ele>
        <time>2022-02-25T02:50:38.219Z</time>
      </trkpt>
      <trkpt lat="38.33986" lon="38.20141">
        <ele>948.851732</ele>
        <time>2022-02-25T02:50:45.130Z</time>
      </trkpt>
      <trkpt lat="38.34013" lon="38.20135">
        <ele>948.789915</ele>
        <time>2022-02-25T02:50:52.541Z</time>
      </trkpt>
      <trkpt lat="38.34026" lon="38.20132">
        <ele>948.760531</ele>
        <time>2022-02-25T02:50:55.867Z</time>
      </trkpt>
      <trkpt lat="38.34041" lon="38.20128">
        <ele>948.725321</ele>
        <time>2022-02-25T02:50:59.810Z</time>
      </trkpt>
      <trkpt lat="38.34036" lon="38.2011">
        <ele>948.693073</ele>
        <time>2022-02-25T02:51:03.283Z</time>
      </trkpt>
      <trkpt lat="38.34027" lon="38.2008">
        <ele>948.635489</ele>
        <time>2022-02-25T02:51:09.318Z</time>
      </trkpt>
      <trkpt lat="38.34003" lon="38.2003">
        <ele>948.409279</ele>
        <time>2022-02-25T02:51:19.960Z</time>
      </trkpt>
      <trkpt lat="38.33932" lon="38.19885">
        <ele>947.421874</ele>
        <time>2022-02-25T02:51:51.404Z</time>
      </trkpt>
      <trkpt lat="38.33925" lon="38.19871">
        <ele>947.329167</ele>
        <time>2022-02-25T02:51:54.578Z</time>
      </trkpt>
      <trkpt lat="38.33924" lon="38.19868">
        <ele>947.310484</ele>
        <time>2022-02-25T02:51:55.184Z</time>
      </trkpt>
      <trkpt lat="38.33918" lon="38.19856">
        <ele>947.2851</ele>
        <time>2022-02-25T02:51:58.191Z</time>
      </trkpt>
      <trkpt lat="38.33881" lon="38.19781">
        <ele>947.601388</ele>
        <time>2022-02-25T02:52:16.917Z</time>
      </trkpt>
      <trkpt lat="38.33862" lon="38.19731">
        <ele>947.796001</ele>
        <time>2022-02-25T02:52:29.688Z</time>
      </trkpt>
      <trkpt lat="38.33856" lon="38.19651">
        <ele>948.08819</ele>
        <time>2022-02-25T02:52:49.932Z</time>
      </trkpt>
      <trkpt lat="38.33854" lon="38.19579">
        <ele>948.61573</ele>
        <time>2022-02-25T02:53:07.970Z</time>
      </trkpt>
      <trkpt lat="38.3385" lon="38.1946">
        <ele>949.490364</ele>
        <time>2022-02-25T02:53:36.541Z</time>
      </trkpt>
      <trkpt lat="38.33849" lon="38.19435">
        <ele>949.676709</ele>
        <time>2022-02-25T02:53:43.043Z</time>
      </trkpt>
      <trkpt lat="38.33847" lon="38.19364">
        <ele>950.417025</ele>
        <time>2022-02-25T02:54:00.374Z</time>
      </trkpt>
      <trkpt lat="38.33837" lon="38.19366">
        <ele>950.556034</ele>
        <time>2022-02-25T02:54:03.714Z</time>
      </trkpt>
      <trkpt lat="38.33779" lon="38.19366">
        <ele>951.370599</ele>
        <time>2022-02-25T02:54:22.955Z</time>
      </trkpt>
      <trkpt lat="38.33651" lon="38.19371">
        <ele>953.535937</ele>
        <time>2022-02-25T02:55:10.465Z</time>
      </trkpt>
      <trkpt lat="38.33605" lon="38.19372">
        <ele>954.447812</ele>
        <time>2022-02-25T02:55:27.843Z</time>
      </trkpt>
      <trkpt lat="38.33587" lon="38.19372">
        <ele>954.812137</ele>
        <time>2022-02-25T02:55:34.912Z</time>
      </trkpt>
      <trkpt lat="38.3354" lon="38.19367">
        <ele>955.751088</ele>
        <time>2022-02-25T02:55:52.461Z</time>
      </trkpt>
      <trkpt lat="38.33493" lon="38.19361">
        <ele>956.342161</ele>
        <time>2022-02-25T02:56:10.046Z</time>
      </trkpt>
      <trkpt lat="38.33492" lon="38.19342">
        <ele>956.507683</ele>
        <time>2022-02-25T02:56:15.496Z</time>
      </trkpt>
      <trkpt lat="38.33492" lon="38.19291">
        <ele>956.957328</ele>
        <time>2022-02-25T02:56:29.185Z</time>
      </trkpt>
      <trkpt lat="38.33491" lon="38.19177">
        <ele>957.911566</ele>
        <time>2022-02-25T02:56:56.341Z</time>
      </trkpt>
      <trkpt lat="38.33491" lon="38.19138">
        <ele>957.96061</ele>
        <time>2022-02-25T02:57:05.275Z</time>
      </trkpt>
      <trkpt lat="38.33488" lon="38.18995">
        <ele>958.141498</ele>
        <time>2022-02-25T02:57:37.202Z</time>
      </trkpt>
      <trkpt lat="38.33486" lon="38.18799">
        <ele>958.23628</ele>
        <time>2022-02-25T02:58:19.831Z</time>
      </trkpt>
      <trkpt lat="38.33485" lon="38.18703">
        <ele>958.371054</ele>
        <time>2022-02-25T02:58:41.003Z</time>
      </trkpt>
      <trkpt lat="38.33484" lon="38.18607">
        <ele>958.843153</ele>
        <time>2022-02-25T02:59:03.265Z</time>
      </trkpt>
      <trkpt lat="38.33484" lon="38.18595">
        <ele>958.904143</ele>
        <time>2022-02-25T02:59:06.388Z</time>
      </trkpt>
      <trkpt lat="38.33482" lon="38.18436">
        <ele>960.136167</ele>
        <time>2022-02-25T02:59:46.948Z</time>
      </trkpt>
      <trkpt lat="38.33482" lon="38.18375">
        <ele>960.88777</ele>
        <time>2022-02-25T03:00:04.414Z</time>
      </trkpt>
      <trkpt lat="38.3346" lon="38.18377">
        <ele>961.236082</ele>
        <time>2022-02-25T03:00:12.473Z</time>
      </trkpt>
      <trkpt lat="38.33309" lon="38.18389">
        <ele>963.504736</ele>
        <time>2022-02-25T03:01:07.398Z</time>
      </trkpt>
      <trkpt lat="38.33297" lon="38.18387">
        <ele>963.682341</ele>
        <time>2022-02-25T03:01:11.589Z</time>
      </trkpt>
      <trkpt lat="38.33292" lon="38.18374">
        <ele>963.850707</ele>
        <time>2022-02-25T03:01:15.544Z</time>
      </trkpt>
      <trkpt lat="38.33286" lon="38.18279">
        <ele>964.863899</ele>
        <time>2022-02-25T03:01:40.604Z</time>
      </trkpt>
      <trkpt lat="38.33285" lon="38.18266">
        <ele>964.90039</ele>
        <time>2022-02-25T03:01:43.930Z</time>
      </trkpt>
      <trkpt lat="38.33274" lon="38.18111">
        <ele>965.335656</ele>
        <time>2022-02-25T03:02:21.009Z</time>
      </trkpt>
      <trkpt lat="38.33264" lon="38.17639">
        <ele>963.660486</ele>
        <time>2022-02-25T03:03:55.019Z</time>
      </trkpt>
      <trkpt lat="38.33263" lon="38.176">
        <ele>963.491055</ele>
        <time>2022-02-25T03:04:03.034Z</time>
      </trkpt>
      <trkpt lat="38.33262" lon="38.1755">
        <ele>963.451307</ele>
        <time>2022-02-25T03:04:13.187Z</time>
      </trkpt>
      <trkpt lat="38.33259" lon="38.17397">
        <ele>963.32876</ele>
        <time>2022-02-25T03:04:45.718Z</time>
      </trkpt>
      <trkpt lat="38.33258" lon="38.173">
        <ele>963.880138</ele>
        <time>2022-02-25T03:05:08.787Z</time>
      </trkpt>
      <trkpt lat="38.33248" lon="38.17282">
        <ele>964.056284</ele>
        <time>2022-02-25T03:05:14.185Z</time>
      </trkpt>
      <trkpt lat="38.3307" lon="38.17049">
        <ele>967.256915</ele>
        <time>2022-02-25T03:06:42.814Z</time>
      </trkpt>
      <trkpt lat="38.33035" lon="38.16995">
        <ele>967.874315</ele>
        <time>2022-02-25T03:07:01.922Z</time>
      </trkpt>
      <trkpt lat="38.32979" lon="38.16947">
        <ele>968.342931</ele>
        <time>2022-02-25T03:07:23.839Z</time>
      </trkpt>
      <trkpt lat="38.32986" lon="38.16906">
        <ele>968.574477</ele>
        <time>2022-02-25T03:07:34.085Z</time>
      </trkpt>
      <trkpt lat="38.33025" lon="38.1676">
        <ele>968.582006</ele>
        <time>2022-02-25T03:08:07.952Z</time>
      </trkpt>
      <trkpt lat="38.33116" lon="38.1664">
        <ele>967.734787</ele>
        <time>2022-02-25T03:08:39.933Z</time>
      </trkpt>
      <trkpt lat="38.33174" lon="38.1656">
        <ele>966.794663</ele>
        <time>2022-02-25T03:09:00.344Z</time>
      </trkpt>
      <trkpt lat="38.33183" lon="38.16548">
        <ele>966.655655</ele>
        <time>2022-02-25T03:09:03.318Z</time>
      </trkpt>
      <trkpt lat="38.33247" lon="38.16466">
        <ele>965.702272</ele>
        <time>2022-02-25T03:09:24.837Z</time>
      </trkpt>
      <trkpt lat="38.33467" lon="38.16312">
        <ele>963.149862</ele>
        <time>2022-02-25T03:10:26.436Z</time>
      </trkpt>
      <trkpt lat="38.33485" lon="38.16265">
        <ele>962.686653</ele>
        <time>2022-02-25T03:10:36.167Z</time>
      </trkpt>
      <trkpt lat="38.33495" lon="38.16211">
        <ele>962.18253</ele>
        <time>2022-02-25T03:10:46.314Z</time>
      </trkpt>
      <trkpt lat="38.33499" lon="38.1617">
        <ele>961.5588</ele>
        <time>2022-02-25T03:10:53.654Z</time>
      </trkpt>
      <trkpt lat="38.33497" lon="38.1613">
        <ele>960.957725</ele>
        <time>2022-02-25T03:11:00.704Z</time>
      </trkpt>
      <trkpt lat="38.33497" lon="38.16111">
        <ele>960.681482</ele>
        <time>2022-02-25T03:11:03.963Z</time>
      </trkpt>
      <trkpt lat="38.33506" lon="38.161">
        <ele>960.431412</ele>
        <time>2022-02-25T03:11:06.839Z</time>
      </trkpt>
      <trkpt lat="38.33538" lon="38.16077">
        <ele>959.729251</ele>
        <time>2022-02-25T03:11:14.848Z</time>
      </trkpt>
      <trkpt lat="38.33548" lon="38.16066">
        <ele>959.480843</ele>
        <time>2022-02-25T03:11:17.695Z</time>
      </trkpt>
      <trkpt lat="38.33534" lon="38.15992">
        <ele>958.429388</ele>
        <time>2022-02-25T03:11:30.759Z</time>
      </trkpt>
      <trkpt lat="38.33517" lon="38.15941">
        <ele>957.772405</ele>
        <time>2022-02-25T03:11:40.411Z</time>
      </trkpt>
      <trkpt lat="38.33506" lon="38.1592">
        <ele>957.471978</ele>
        <time>2022-02-25T03:11:45.000Z</time>
      </trkpt>
      <trkpt lat="38.33478" lon="38.15865">
        <ele>956.700264</ele>
        <time>2022-02-25T03:11:56.938Z</time>
      </trkpt>
      <trkpt lat="38.33448" lon="38.15824">
        <ele>956.040255</ele>
        <time>2022-02-25T03:12:07.479Z</time>
      </trkpt>
      <trkpt lat="38.33407" lon="38.15774">
        <ele>955.506406</ele>
        <time>2022-02-25T03:12:21.710Z</time>
      </trkpt>
      <trkpt lat="38.33406" lon="38.15756">
        <ele>955.380366</ele>
        <time>2022-02-25T03:12:24.989Z</time>
      </trkpt>
      <trkpt lat="38.33412" lon="38.15742">
        <ele>955.259763</ele>
        <time>2022-02-25T03:12:28.391Z</time>
      </trkpt>
      <trkpt lat="38.33454" lon="38.15687">
        <ele>954.696669</ele>
        <time>2022-02-25T03:12:43.299Z</time>
      </trkpt>
      <trkpt lat="38.33481" lon="38.15647">
        <ele>954.293806</ele>
        <time>2022-02-25T03:12:53.233Z</time>
      </trkpt>
      <trkpt lat="38.33481" lon="38.15622">
        <ele>954.047741</ele>
        <time>2022-02-25T03:12:57.744Z</time>
      </trkpt>
      <trkpt lat="38.33472" lon="38.15567">
        <ele>953.466401</ele>
        <time>2022-02-25T03:13:08.146Z</time>
      </trkpt>
      <trkpt lat="38.33443" lon="38.15459">
        <ele>952.304705</ele>
        <time>2022-02-25T03:13:28.680Z</time>
      </trkpt>
      <trkpt lat="38.33439" lon="38.15425">
        <ele>952.007</ele>
        <time>2022-02-25T03:13:35.007Z</time>
      </trkpt>
      <trkpt lat="38.33445" lon="38.1537">
        <ele>951.868336</ele>
        <time>2022-02-25T03:13:45.670Z</time>
      </trkpt>
      <trkpt lat="38.33432" lon="38.15353">
        <ele>951.807642</ele>
        <time>2022-02-25T03:13:50.172Z</time>
      </trkpt>
      <trkpt lat="38.3343" lon="38.15351">
        <ele>951.800087</ele>
        <time>2022-02-25T03:13:51.085Z</time>
      </trkpt>
      <trkpt lat="38.33349" lon="38.1528">
        <ele>951.484249</ele>
        <time>2022-02-25T03:14:18.011Z</time>
      </trkpt>
      <trkpt lat="38.33341" lon="38.15272">
        <ele>951.451034</ele>
        <time>2022-02-25T03:14:21.338Z</time>
      </trkpt>
      <trkpt lat="38.33285" lon="38.15221">
        <ele>951.901297</ele>
        <time>2022-02-25T03:14:43.089Z</time>
      </trkpt>
      <trkpt lat="38.33267" lon="38.15206">
        <ele>952.044693</ele>
        <time>2022-02-25T03:14:50.210Z</time>
      </trkpt>
      <trkpt lat="38.33269" lon="38.15202">
        <ele>952.072801</ele>
        <time>2022-02-25T03:14:51.442Z</time>
      </trkpt>
      <trkpt lat="38.33279" lon="38.15184">
        <ele>952.189384</ele>
        <time>2022-02-25T03:14:57.040Z</time>
      </trkpt>
      <trkpt lat="38.33311" lon="38.15132">
        <ele>952.534023</ele>
        <time>2022-02-25T03:15:12.660Z</time>
      </trkpt>
      <trkpt lat="38.33349" lon="38.15068">
        <ele>952.607268</ele>
        <time>2022-02-25T03:15:30.341Z</time>
      </trkpt>
      <trkpt lat="38.33412" lon="38.14961">
        <ele>952.505145</ele>
        <time>2022-02-25T03:15:57.266Z</time>
      </trkpt>
      <trkpt lat="38.33474" lon="38.14856">
        <ele>952.256479</ele>
        <time>2022-02-25T03:16:23.149Z</time>
      </trkpt>
      <trkpt lat="38.33517" lon="38.14784">
        <ele>952.045948</ele>
        <time>2022-02-25T03:16:41.099Z</time>
      </trkpt>
      <trkpt lat="38.3358" lon="38.14671">
        <ele>951.708984</ele>
        <time>2022-02-25T03:17:09.148Z</time>
      </trkpt>
      <trkpt lat="38.33808" lon="38.14297">
        <ele>949.842638</ele>
        <time>2022-02-25T03:18:41.829Z</time>
      </trkpt>
      <trkpt lat="38.33953" lon="38.14056">
        <ele>945.955935</ele>
        <time>2022-02-25T03:19:34.813Z</time>
      </trkpt>
      <trkpt lat="38.33977" lon="38.14017">
        <ele>945.093489</ele>
        <time>2022-02-25T03:19:42.083Z</time>
      </trkpt>
      <trkpt lat="38.34017" lon="38.13952">
        <ele>941.585894</ele>
        <time>2022-02-25T03:19:54.189Z</time>
      </trkpt>
      <trkpt lat="38.34006" lon="38.13925">
        <ele>940.298948</ele>
        <time>2022-02-25T03:19:58.616Z</time>
      </trkpt>
      <trkpt lat="38.33993" lon="38.13884">
        <ele>938.427375</ele>
        <time>2022-02-25T03:20:05.073Z</time>
      </trkpt>
      <trkpt lat="38.33985" lon="38.13825">
        <ele>935.935598</ele>
        <time>2022-02-25T03:20:13.588Z</time>
      </trkpt>
      <trkpt lat="38.33989" lon="38.13805">
        <ele>935.048239</ele>
        <time>2022-02-25T03:20:16.486Z</time>
      </trkpt>
      <trkpt lat="38.34013" lon="38.13774">
        <ele>933.124753</ele>
        <time>2022-02-25T03:20:22.722Z</time>
      </trkpt>
      <trkpt lat="38.34025" lon="38.13749">
        <ele>931.829882</ele>
        <time>2022-02-25T03:20:26.929Z</time>
      </trkpt>
      <trkpt lat="38.34025" lon="38.13693">
        <ele>929.409063</ele>
        <time>2022-02-25T03:20:34.977Z</time>
      </trkpt>
      <trkpt lat="38.34019" lon="38.13685">
        <ele>928.871394</ele>
        <time>2022-02-25T03:20:36.756Z</time>
      </trkpt>
      <trkpt lat="38.33994" lon="38.13685">
        <ele>927.475907</ele>
        <time>2022-02-25T03:20:41.527Z</time>
      </trkpt>
      <trkpt lat="38.33973" lon="38.13673">
        <ele>926.210017</ele>
        <time>2022-02-25T03:20:45.882Z</time>
      </trkpt>
      <trkpt lat="38.33928" lon="38.13633">
        <ele>924.455233</ele>
        <time>2022-02-25T03:20:56.812Z</time>
      </trkpt>
      <trkpt lat="38.33926" lon="38.13621">
        <ele>924.206915</ele>
        <time>2022-02-25T03:20:58.712Z</time>
      </trkpt>
      <trkpt lat="38.33948" lon="38.13579">
        <ele>923.203554</ele>
        <time>2022-02-25T03:21:07.114Z</time>
      </trkpt>
      <trkpt lat="38.33994" lon="38.13519">
        <ele>921.519455</ele>
        <time>2022-02-25T03:21:21.980Z</time>
      </trkpt>
      <trkpt lat="38.34032" lon="38.13439">
        <ele>920.335436</ele>
        <time>2022-02-25T03:21:39.509Z</time>
      </trkpt>
      <trkpt lat="38.34036" lon="38.13422">
        <ele>920.168563</ele>
        <time>2022-02-25T03:21:42.884Z</time>
      </trkpt>
      <trkpt lat="38.34033" lon="38.13404">
        <ele>919.991579</ele>
        <time>2022-02-25T03:21:46.428Z</time>
      </trkpt>
      <trkpt lat="38.34061" lon="38.13316">
        <ele>919.087803</ele>
        <time>2022-02-25T03:22:04.185Z</time>
      </trkpt>
      <trkpt lat="38.34075" lon="38.13237">
        <ele>918.221864</ele>
        <time>2022-02-25T03:22:18.967Z</time>
      </trkpt>
      <trkpt lat="38.34085" lon="38.13215">
        <ele>917.926717</ele>
        <time>2022-02-25T03:22:23.564Z</time>
      </trkpt>
      <trkpt lat="38.34125" lon="38.13146">
        <ele>916.932489</ele>
        <time>2022-02-25T03:22:38.642Z</time>
      </trkpt>
      <trkpt lat="38.34176" lon="38.13084">
        <ele>916.097693</ele>
        <time>2022-02-25T03:22:55.312Z</time>
      </trkpt>
      <trkpt lat="38.34199" lon="38.13058">
        <ele>916.039617</ele>
        <time>2022-02-25T03:23:02.852Z</time>
      </trkpt>
      <trkpt lat="38.34235" lon="38.13043">
        <ele>915.968222</ele>
        <time>2022-02-25T03:23:12.652Z</time>
      </trkpt>
      <trkpt lat="38.34247" lon="38.13029">
        <ele>915.936665</ele>
        <time>2022-02-25T03:23:17.404Z</time>
      </trkpt>
      <trkpt lat="38.34277" lon="38.12983">
        <ele>915.84848</ele>
        <time>2022-02-25T03:23:30.315Z</time>
      </trkpt>
      <trkpt lat="38.34288" lon="38.12955">
        <ele>915.800938</ele>
        <time>2022-02-25T03:23:37.838Z</time>
      </trkpt>
      <trkpt lat="38.34302" lon="38.12881">
        <ele>916.02297</ele>
        <time>2022-02-25T03:23:56.562Z</time>
      </trkpt>
      <trkpt lat="38.3434" lon="38.12811">
        <ele>916.332763</ele>
        <time>2022-02-25T03:24:18.365Z</time>
      </trkpt>
      <trkpt lat="38.3435" lon="38.12744">
        <ele>916.580638</ele>
        <time>2022-02-25T03:24:34.511Z</time>
      </trkpt>
      <trkpt lat="38.34425" lon="38.12528">
        <ele>914.826747</ele>
        <time>2022-02-25T03:25:19.161Z</time>
      </trkpt>
      <trkpt lat="38.3443" lon="38.12515">
        <ele>914.691931</ele>
        <time>2022-02-25T03:25:21.769Z</time>
      </trkpt>
      <trkpt lat="38.34435" lon="38.12502">
        <ele>914.557555</ele>
        <time>2022-02-25T03:25:24.029Z</time>
      </trkpt>
      <trkpt lat="38.34442" lon="38.12386">
        <ele>913.439</ele>
        <time>2022-02-25T03:25:44.528Z</time>
      </trkpt>
      <trkpt lat="38.3445" lon="38.12336">
        <ele>912.955491</ele>
        <time>2022-02-25T03:25:54.143Z</time>
      </trkpt>
      <trkpt lat="38.34468" lon="38.12296">
        <ele>912.745125</ele>
        <time>2022-02-25T03:26:03.449Z</time>
      </trkpt>
      <trkpt lat="38.34483" lon="38.12275">
        <ele>913.173461</ele>
        <time>2022-02-25T03:26:10.034Z</time>
      </trkpt>
      <trkpt lat="38.34487" lon="38.12271">
        <ele>913.26925</ele>
        <time>2022-02-25T03:26:11.110Z</time>
      </trkpt>
      <trkpt lat="38.34483" lon="38.12264">
        <ele>913.398682</ele>
        <time>2022-02-25T03:26:14.310Z</time>
      </trkpt>
      <trkpt lat="38.34475" lon="38.12177">
        <ele>914.714095</ele>
        <time>2022-02-25T03:26:38.486Z</time>
      </trkpt>
      <trkpt lat="38.34487" lon="38.12052">
        <ele>916.7623</ele>
        <time>2022-02-25T03:27:22.913Z</time>
      </trkpt>
      <trkpt lat="38.34501" lon="38.11956">
        <ele>918.626859</ele>
        <time>2022-02-25T03:27:55.912Z</time>
      </trkpt>
      <trkpt lat="38.34502" lon="38.11934">
        <ele>919.052364</ele>
        <time>2022-02-25T03:28:03.517Z</time>
      </trkpt>
      <trkpt lat="38.34507" lon="38.11901">
        <ele>919.695026</ele>
        <time>2022-02-25T03:28:13.474Z</time>
      </trkpt>
      <trkpt lat="38.34552" lon="38.11658">
        <ele>920.265434</ele>
        <time>2022-02-25T03:29:07.805Z</time>
      </trkpt>
      <trkpt lat="38.34556" lon="38.11642">
        <ele>920.250654</ele>
        <time>2022-02-25T03:29:10.965Z</time>
      </trkpt>
      <trkpt lat="38.34553" lon="38.11623">
        <ele>920.164485</ele>
        <time>2022-02-25T03:29:14.338Z</time>
      </trkpt>
      <trkpt lat="38.34546" lon="38.11541">
        <ele>919.760263</ele>
        <time>2022-02-25T03:29:29.470Z</time>
      </trkpt>
      <trkpt lat="38.3456" lon="38.1146">
        <ele>919.34907</ele>
        <time>2022-02-25T03:29:45.389Z</time>
      </trkpt>
      <trkpt lat="38.34591" lon="38.11325">
        <ele>920.286227</ele>
        <time>2022-02-25T03:30:19.592Z</time>
      </trkpt>
      <trkpt lat="38.34616" lon="38.11121">
        <ele>922.770926</ele>
        <time>2022-02-25T03:31:22.862Z</time>
      </trkpt>
      <trkpt lat="38.34619" lon="38.11023">
        <ele>923.878863</ele>
        <time>2022-02-25T03:31:49.944Z</time>
      </trkpt>
      <trkpt lat="38.34618" lon="38.11003">
        <ele>924.102665</ele>
        <time>2022-02-25T03:31:55.683Z</time>
      </trkpt>
      <trkpt lat="38.34617" lon="38.1099">
        <ele>924.252541</ele>
        <time>2022-02-25T03:31:58.239Z</time>
      </trkpt>
      <trkpt lat="38.34612" lon="38.10911">
        <ele>924.465782</ele>
        <time>2022-02-25T03:32:16.102Z</time>
      </trkpt>
      <trkpt lat="38.34591" lon="38.10752">
        <ele>924.157105</ele>
        <time>2022-02-25T03:32:47.458Z</time>
      </trkpt>
      <trkpt lat="38.34538" lon="38.10513">
        <ele>925.50126</ele>
        <time>2022-02-25T03:33:48.058Z</time>
      </trkpt>
      <trkpt lat="38.34522" lon="38.10404">
        <ele>927.24303</ele>
        <time>2022-02-25T03:34:22.316Z</time>
      </trkpt>
      <trkpt lat="38.34521" lon="38.10383">
        <ele>927.579163</ele>
        <time>2022-02-25T03:34:29.079Z</time>
      </trkpt>
      <trkpt lat="38.34521" lon="38.10364">
        <ele>927.869768</ele>
        <time>2022-02-25T03:34:34.484Z</time>
      </trkpt>
      <trkpt lat="38.34518" lon="38.10335">
        <ele>928.329613</ele>
        <time>2022-02-25T03:34:43.446Z</time>
      </trkpt>
      <trkpt lat="38.34516" lon="38.10319">
        <ele>928.587266</ele>
        <time>2022-02-25T03:34:48.186Z</time>
      </trkpt>
      <trkpt lat="38.34515" lon="38.10306">
        <ele>928.787901</ele>
        <time>2022-02-25T03:34:52.109Z</time>
      </trkpt>
      <trkpt lat="38.3451" lon="38.10207">
        <ele>929.486291</ele>
        <time>2022-02-25T03:35:20.308Z</time>
      </trkpt>
      <trkpt lat="38.34505" lon="38.09924">
        <ele>930.28746</ele>
        <time>2022-02-25T03:36:21.710Z</time>
      </trkpt>
      <trkpt lat="38.34504" lon="38.09858">
        <ele>930.30678</ele>
        <time>2022-02-25T03:36:36.238Z</time>
      </trkpt>
      <trkpt lat="38.34506" lon="38.09843">
        <ele>930.311028</ele>
        <time>2022-02-25T03:36:39.101Z</time>
      </trkpt>
      <trkpt lat="38.34567" lon="38.09387">
        <ele>931.41885</ele>
        <time>2022-02-25T03:38:27.654Z</time>
      </trkpt>
      <trkpt lat="38.3457" lon="38.09156">
        <ele>930.077902</ele>
        <time>2022-02-25T03:39:12.659Z</time>
      </trkpt>
      <trkpt lat="38.34581" lon="38.09097">
        <ele>929.348335</ele>
        <time>2022-02-25T03:39:23.358Z</time>
      </trkpt>
      <trkpt lat="38.34614" lon="38.08998">
        <ele>927.987158</ele>
        <time>2022-02-25T03:39:42.238Z</time>
      </trkpt>
      <trkpt lat="38.34616" lon="38.08991">
        <ele>927.90121</ele>
        <time>2022-02-25T03:39:43.253Z</time>
      </trkpt>
      <trkpt lat="38.34619" lon="38.08982">
        <ele>927.776995</ele>
        <time>2022-02-25T03:39:44.968Z</time>
      </trkpt>
      <trkpt lat="38.34652" lon="38.08875">
        <ele>927.158582</ele>
        <time>2022-02-25T03:40:06.479Z</time>
      </trkpt>
      <trkpt lat="38.34698" lon="38.08746">
        <ele>927.210099</ele>
        <time>2022-02-25T03:40:39.598Z</time>
      </trkpt>
      <trkpt lat="38.34712" lon="38.08713">
        <ele>927.304716</ele>
        <time>2022-02-25T03:40:49.483Z</time>
      </trkpt>
      <trkpt lat="38.34713" lon="38.08701">
        <ele>927.374013</ele>
        <time>2022-02-25T03:40:52.759Z</time>
      </trkpt>
      <trkpt lat="38.34739" lon="38.08641">
        <ele>927.787372</ele>
        <time>2022-02-25T03:41:10.730Z</time>
      </trkpt>
      <trkpt lat="38.34751" lon="38.08625">
        <ele>927.917153</ele>
        <time>2022-02-25T03:41:16.298Z</time>
      </trkpt>
      <trkpt lat="38.34755" lon="38.08615">
        <ele>927.982485</ele>
        <time>2022-02-25T03:41:19.434Z</time>
      </trkpt>
      <trkpt lat="38.3476" lon="38.08612">
        <ele>928.023083</ele>
        <time>2022-02-25T03:41:20.959Z</time>
      </trkpt>
      <trkpt lat="38.34822" lon="38.0849">
        <ele>928.54839</ele>
        <time>2022-02-25T03:41:55.226Z</time>
      </trkpt>
      <trkpt lat="38.34908" lon="38.08362">
        <ele>928.429507</ele>
        <time>2022-02-25T03:42:31.357Z</time>
      </trkpt>
      <trkpt lat="38.35039" lon="38.0814">
        <ele>924.279852</ele>
        <time>2022-02-25T03:43:23.569Z</time>
      </trkpt>
      <trkpt lat="38.35043" lon="38.08128">
        <ele>923.637839</ele>
        <time>2022-02-25T03:43:25.449Z</time>
      </trkpt>
      <trkpt lat="38.35039" lon="38.08103">
        <ele>922.35053</ele>
        <time>2022-02-25T03:43:29.393Z</time>
      </trkpt>
      <trkpt lat="38.35005" lon="38.08055">
        <ele>919.120544</ele>
        <time>2022-02-25T03:43:38.668Z</time>
      </trkpt>
      <trkpt lat="38.34956" lon="38.07899">
        <ele>906.465592</ele>
        <time>2022-02-25T03:44:01.239Z</time>
      </trkpt>
      <trkpt lat="38.34934" lon="38.07867">
        <ele>902.130863</ele>
        <time>2022-02-25T03:44:06.728Z</time>
      </trkpt>
      <trkpt lat="38.34929" lon="38.07793">
        <ele>894.60858</ele>
        <time>2022-02-25T03:44:16.182Z</time>
      </trkpt>
      <trkpt lat="38.34887" lon="38.07705">
        <ele>884.405441</ele>
        <time>2022-02-25T03:44:29.332Z</time>
      </trkpt>
      <trkpt lat="38.34866" lon="38.07638">
        <ele>877.352026</ele>
        <time>2022-02-25T03:44:38.646Z</time>
      </trkpt>
      <trkpt lat="38.34846" lon="38.07605">
        <ele>873.192333</ele>
        <time>2022-02-25T03:44:44.241Z</time>
      </trkpt>
      <trkpt lat="38.3483" lon="38.07545">
        <ele>868.213942</ele>
        <time>2022-02-25T03:44:52.799Z</time>
      </trkpt>
      <trkpt lat="38.3482" lon="38.0753">
        <ele>867.51943</ele>
        <time>2022-02-25T03:44:55.552Z</time>
      </trkpt>
      <trkpt lat="38.34781" lon="38.07518">
        <ele>865.704733</ele>
        <time>2022-02-25T03:45:03.003Z</time>
      </trkpt>
      <trkpt lat="38.34747" lon="38.07493">
        <ele>863.947027</ele>
        <time>2022-02-25T03:45:10.750Z</time>
      </trkpt>
      <trkpt lat="38.34692" lon="38.07477">
        <ele>861.426709</ele>
        <time>2022-02-25T03:45:23.318Z</time>
      </trkpt>
      <trkpt lat="38.34639" lon="38.07439">
        <ele>861.407004</ele>
        <time>2022-02-25T03:45:39.750Z</time>
      </trkpt>
      <trkpt lat="38.34623" lon="38.07414">
        <ele>861.715288</ele>
        <time>2022-02-25T03:45:47.187Z</time>
      </trkpt>
      <trkpt lat="38.34592" lon="38.07339">
        <ele>862.523525</ele>
        <time>2022-02-25T03:46:10.189Z</time>
      </trkpt>
      <trkpt lat="38.34575" lon="38.07312">
        <ele>862.852282</ele>
        <time>2022-02-25T03:46:21.496Z</time>
      </trkpt>
      <trkpt lat="38.34561" lon="38.07257">
        <ele>864.549378</ele>
        <time>2022-02-25T03:46:41.863Z</time>
      </trkpt>
      <trkpt lat="38.34555" lon="38.07251">
        <ele>864.909548</ele>
        <time>2022-02-25T03:46:45.375Z</time>
      </trkpt>
      <trkpt lat="38.34522" lon="38.07265">
        <ele>866.584314</ele>
        <time>2022-02-25T03:47:02.904Z</time>
      </trkpt>
      <trkpt lat="38.34501" lon="38.07263">
        <ele>867.570686</ele>
        <time>2022-02-25T03:47:13.666Z</time>
      </trkpt>
      <trkpt lat="38.34426" lon="38.07231">
        <ele>871.389371</ele>
        <time>2022-02-25T03:47:56.938Z</time>
      </trkpt>
      <trkpt lat="38.34372" lon="38.07218">
        <ele>873.462731</ele>
        <time>2022-02-25T03:48:28.272Z</time>
      </trkpt>
      <trkpt lat="38.34351" lon="38.07202">
        <ele>874.363529</ele>
        <time>2022-02-25T03:48:41.214Z</time>
      </trkpt>
      <trkpt lat="38.3432" lon="38.07195">
        <ele>875.490197</ele>
        <time>2022-02-25T03:48:56.002Z</time>
      </trkpt>
      <trkpt lat="38.34316" lon="38.07159">
        <ele>876.494728</ele>
        <time>2022-02-25T03:49:07.621Z</time>
      </trkpt>
      <trkpt lat="38.34298" lon="38.07143">
        <ele>877.28528</ele>
        <time>2022-02-25T03:49:15.968Z</time>
      </trkpt>
      <trkpt lat="38.34295" lon="38.07107">
        <ele>878.106795</ele>
        <time>2022-02-25T03:49:25.233Z</time>
      </trkpt>
      <trkpt lat="38.34269" lon="38.07097">
        <ele>877.690564</ele>
        <time>2022-02-25T03:49:33.108Z</time>
      </trkpt>
      <trkpt lat="38.34226" lon="38.07056">
        <ele>876.886175</ele>
        <time>2022-02-25T03:49:46.173Z</time>
      </trkpt>
      <trkpt lat="38.3421" lon="38.07005">
        <ele>876.244766</ele>
        <time>2022-02-25T03:49:55.182Z</time>
      </trkpt>
      <trkpt lat="38.34187" lon="38.06906">
        <ele>875.164777</ele>
        <time>2022-02-25T03:50:11.745Z</time>
      </trkpt>
      <trkpt lat="38.34167" lon="38.06903">
        <ele>874.953856</ele>
        <time>2022-02-25T03:50:16.239Z</time>
      </trkpt>
      <trkpt lat="38.34134" lon="38.06875">
        <ele>874.54147</ele>
        <time>2022-02-25T03:50:25.281Z</time>
      </trkpt>
      <trkpt lat="38.34122" lon="38.06844">
        <ele>874.259748</ele>
        <time>2022-02-25T03:50:31.868Z</time>
      </trkpt>
      <trkpt lat="38.34113" lon="38.06807">
        <ele>873.946871</ele>
        <time>2022-02-25T03:50:39.884Z</time>
      </trkpt>
      <trkpt lat="38.341" lon="38.06797">
        <ele>873.788833</ele>
        <time>2022-02-25T03:50:44.136Z</time>
      </trkpt>
      <trkpt lat="38.34088" lon="38.06796">
        <ele>873.656831</ele>
        <time>2022-02-25T03:50:48.126Z</time>
      </trkpt>
      <trkpt lat="38.34065" lon="38.06818">
        <ele>873.860614</ele>
        <time>2022-02-25T03:50:58.175Z</time>
      </trkpt>
      <trkpt lat="38.34051" lon="38.0682">
        <ele>874.016542</ele>
        <time>2022-02-25T03:51:03.300Z</time>
      </trkpt>
      <trkpt lat="38.3404" lon="38.06803">
        <ele>874.223277</ele>
        <time>2022-02-25T03:51:09.412Z</time>
      </trkpt>
      <trkpt lat="38.34006" lon="38.06796">
        <ele>874.623793</ele>
        <time>2022-02-25T03:51:22.739Z</time>
      </trkpt>
      <trkpt lat="38.33947" lon="38.06745">
        <ele>875.453559</ele>
        <time>2022-02-25T03:51:48.043Z</time>
      </trkpt>
      <trkpt lat="38.33933" lon="38.06722">
        <ele>875.602296</ele>
        <time>2022-02-25T03:51:55.033Z</time>
      </trkpt>
      <trkpt lat="38.33924" lon="38.0667">
        <ele>874.242964</ele>
        <time>2022-02-25T03:52:05.200Z</time>
      </trkpt>
      <trkpt lat="38.33921" lon="38.0662">
        <ele>872.932269</ele>
        <time>2022-02-25T03:52:14.379Z</time>
      </trkpt>
      <trkpt lat="38.33913" lon="38.06608">
        <ele>872.533757</ele>
        <time>2022-02-25T03:52:16.912Z</time>
      </trkpt>
      <trkpt lat="38.33866" lon="38.06577">
        <ele>870.792103</ele>
        <time>2022-02-25T03:52:26.957Z</time>
      </trkpt>
      <trkpt lat="38.33853" lon="38.06555">
        <ele>870.084719</ele>
        <time>2022-02-25T03:52:30.866Z</time>
      </trkpt>
      <trkpt lat="38.33832" lon="38.06493">
        <ele>866.347193</ele>
        <time>2022-02-25T03:52:40.377Z</time>
      </trkpt>
      <trkpt lat="38.33822" lon="38.06484">
        <ele>865.381451</ele>
        <time>2022-02-25T03:52:42.609Z</time>
      </trkpt>
      <trkpt lat="38.33804" lon="38.06483">
        <ele>864.023255</ele>
        <time>2022-02-25T03:52:45.620Z</time>
      </trkpt>
      <trkpt lat="38.3382" lon="38.06459">
        <ele>862.096362</ele>
        <time>2022-02-25T03:52:49.882Z</time>
      </trkpt>
      <trkpt lat="38.33873" lon="38.06383">
        <ele>855.846725</ele>
        <time>2022-02-25T03:53:03.802Z</time>
      </trkpt>
      <trkpt lat="38.33873" lon="38.06369">
        <ele>855.434291</ele>
        <time>2022-02-25T03:53:05.643Z</time>
      </trkpt>
      <trkpt lat="38.33939" lon="38.06308">
        <ele>853.231612</ele>
        <time>2022-02-25T03:53:20.083Z</time>
      </trkpt>
      <trkpt lat="38.33994" lon="38.06267">
        <ele>851.486569</ele>
        <time>2022-02-25T03:53:33.865Z</time>
      </trkpt>
      <trkpt lat="38.34139" lon="38.06141">
        <ele>858.255541</ele>
        <time>2022-02-25T03:55:02.331Z</time>
      </trkpt>
      <trkpt lat="38.34157" lon="38.06126">
        <ele>859.357308</ele>
        <time>2022-02-25T03:55:16.572Z</time>
      </trkpt>
      <trkpt lat="38.34321" lon="38.0598">
        <ele>872.435071</ele>
        <time>2022-02-25T03:57:14.981Z</time>
      </trkpt>
      <trkpt lat="38.34402" lon="38.059">
        <ele>878.095133</ele>
        <time>2022-02-25T03:58:12.216Z</time>
      </trkpt>
      <trkpt lat="38.34479" lon="38.05813">
        <ele>882.324993</ele>
        <time>2022-02-25T03:59:02.959Z</time>
      </trkpt>
      <trkpt lat="38.34527" lon="38.05746">
        <ele>883.353441</ele>
        <time>2022-02-25T03:59:29.548Z</time>
      </trkpt>
      <trkpt lat="38.34652" lon="38.05543">
        <ele>883.269042</ele>
        <time>2022-02-25T04:00:15.590Z</time>
      </trkpt>
      <trkpt lat="38.34706" lon="38.05454">
        <ele>883.464913</ele>
        <time>2022-02-25T04:00:37.062Z</time>
      </trkpt>
      <trkpt lat="38.34793" lon="38.05312">
        <ele>885.768705</ele>
        <time>2022-02-25T04:01:28.339Z</time>
      </trkpt>
      <trkpt lat="38.34957" lon="38.04999">
        <ele>898.635833</ele>
        <time>2022-02-25T04:03:51.156Z</time>
      </trkpt>
      <trkpt lat="38.35097" lon="38.04732">
        <ele>910.862686</ele>
        <time>2022-02-25T04:05:56.362Z</time>
      </trkpt>
      <trkpt lat="38.35148" lon="38.04644">
        <ele>915.639166</ele>
        <time>2022-02-25T04:06:43.462Z</time>
      </trkpt>
      <trkpt lat="38.35178" lon="38.04593">
        <ele>918.40148</ele>
        <time>2022-02-25T04:07:10.508Z</time>
      </trkpt>
      <trkpt lat="38.35184" lon="38.04582">
        <ele>918.969741</ele>
        <time>2022-02-25T04:07:16.856Z</time>
      </trkpt>
      <trkpt lat="38.35236" lon="38.04476">
        <ele>923.249829</ele>
        <time>2022-02-25T04:08:06.358Z</time>
      </trkpt>
      <trkpt lat="38.35245" lon="38.04454">
        <ele>923.995627</ele>
        <time>2022-02-25T04:08:16.105Z</time>
      </trkpt>
      <trkpt lat="38.35244" lon="38.04438">
        <ele>924.510994</ele>
        <time>2022-02-25T04:08:21.749Z</time>
      </trkpt>
      <trkpt lat="38.35236" lon="38.04424">
        <ele>925.022204</ele>
        <time>2022-02-25T04:08:28.470Z</time>
      </trkpt>
      <trkpt lat="38.35216" lon="38.04412">
        <ele>925.901465</ele>
        <time>2022-02-25T04:08:37.498Z</time>
      </trkpt>
      <trkpt lat="38.35196" lon="38.04391">
        <ele>926.926438</ele>
        <time>2022-02-25T04:08:47.671Z</time>
      </trkpt>
      <trkpt lat="38.35102" lon="38.04178">
        <ele>930.210441</ele>
        <time>2022-02-25T04:09:52.249Z</time>
      </trkpt>
      <trkpt lat="38.34763" lon="38.03378">
        <ele>938.135248</ele>
        <time>2022-02-25T04:13:40.028Z</time>
      </trkpt>
      <trkpt lat="38.347" lon="38.03221">
        <ele>939.525715</ele>
        <time>2022-02-25T04:14:25.062Z</time>
      </trkpt>
      <trkpt lat="38.34694" lon="38.03171">
        <ele>939.922429</ele>
        <time>2022-02-25T04:14:37.775Z</time>
      </trkpt>
      <trkpt lat="38.34724" lon="38.02505">
        <ele>940.865766</ele>
        <time>2022-02-25T04:17:05.099Z</time>
      </trkpt>
      <trkpt lat="38.34724" lon="38.02441">
        <ele>941.378937</ele>
        <time>2022-02-25T04:17:21.437Z</time>
      </trkpt>
      <trkpt lat="38.34724" lon="38.02396">
        <ele>942.040891</ele>
        <time>2022-02-25T04:17:33.708Z</time>
      </trkpt>
      <trkpt lat="38.34736" lon="38.02393">
        <ele>942.255526</ele>
        <time>2022-02-25T04:17:38.196Z</time>
      </trkpt>
      <trkpt lat="38.3474" lon="38.02377">
        <ele>942.505766</ele>
        <time>2022-02-25T04:17:42.888Z</time>
      </trkpt>
      <trkpt lat="38.34736" lon="38.02264">
        <ele>944.170551</ele>
        <time>2022-02-25T04:18:17.335Z</time>
      </trkpt>
      <trkpt lat="38.34741" lon="38.02169">
        <ele>945.978845</ele>
        <time>2022-02-25T04:18:47.948Z</time>
      </trkpt>
      <trkpt lat="38.34831" lon="38.02021">
        <ele>949.276671</ele>
        <time>2022-02-25T04:19:45.880Z</time>
      </trkpt>
      <trkpt lat="38.34948" lon="38.01884">
        <ele>951.516189</ele>
        <time>2022-02-25T04:20:40.360Z</time>
      </trkpt>
      <trkpt lat="38.34985" lon="38.0183">
        <ele>951.739969</ele>
        <time>2022-02-25T04:20:57.193Z</time>
      </trkpt>
      <trkpt lat="38.34996" lon="38.01815">
        <ele>951.804529</ele>
        <time>2022-02-25T04:21:01.723Z</time>
      </trkpt>
      <trkpt lat="38.35074" lon="38.01699">
        <ele>952.390924</ele>
        <time>2022-02-25T04:21:35.208Z</time>
      </trkpt>
      <trkpt lat="38.35161" lon="38.01595">
        <ele>953.416372</ele>
        <time>2022-02-25T04:22:13.588Z</time>
      </trkpt>
      <trkpt lat="38.35201" lon="38.01551">
        <ele>953.912703</ele>
        <time>2022-02-25T04:22:31.761Z</time>
      </trkpt>
      <trkpt lat="38.35211" lon="38.0154">
        <ele>954.068645</ele>
        <time>2022-02-25T04:22:36.576Z</time>
      </trkpt>
      <trkpt lat="38.35235" lon="38.01519">
        <ele>954.391673</ele>
        <time>2022-02-25T04:22:46.554Z</time>
      </trkpt>
      <trkpt lat="38.35256" lon="38.015">
        <ele>954.68111</ele>
        <time>2022-02-25T04:22:55.538Z</time>
      </trkpt>
      <trkpt lat="38.35282" lon="38.01473">
        <ele>955.052974</ele>
        <time>2022-02-25T04:23:06.996Z</time>
      </trkpt>
      <trkpt lat="38.35491" lon="38.01217">
        <ele>957.19322</ele>
        <time>2022-02-25T04:24:36.072Z</time>
      </trkpt>
      <trkpt lat="38.356" lon="38.01052">
        <ele>958.794691</ele>
        <time>2022-02-25T04:25:29.392Z</time>
      </trkpt>
      <trkpt lat="38.35608" lon="38.01028">
        <ele>959.117043</ele>
        <time>2022-02-25T04:25:36.789Z</time>
      </trkpt>
      <trkpt lat="38.35611" lon="38.01023">
        <ele>959.184184</ele>
        <time>2022-02-25T04:25:38.276Z</time>
      </trkpt>
      <trkpt lat="38.35595" lon="38.00962">
        <ele>959.975013</ele>
        <time>2022-02-25T04:25:56.422Z</time>
      </trkpt>
      <trkpt lat="38.35568" lon="38.00864">
        <ele>961.268717</ele>
        <time>2022-02-25T04:26:26.498Z</time>
      </trkpt>
      <trkpt lat="38.35567" lon="38.00861">
        <ele>961.318669</ele>
        <time>2022-02-25T04:26:28.173Z</time>
      </trkpt>
      <trkpt lat="38.35542" lon="38.00781">
        <ele>962.429652</ele>
        <time>2022-02-25T04:26:52.748Z</time>
      </trkpt>
      <trkpt lat="38.35526" lon="38.00735">
        <ele>963.081029</ele>
        <time>2022-02-25T04:27:07.057Z</time>
      </trkpt>
      <trkpt lat="38.35525" lon="38.00719">
        <ele>963.290501</ele>
        <time>2022-02-25T04:27:11.511Z</time>
      </trkpt>
      <trkpt lat="38.35531" lon="38.00707">
        <ele>963.471649</ele>
        <time>2022-02-25T04:27:15.196Z</time>
      </trkpt>
      <trkpt lat="38.35669" lon="38.00556">
        <ele>965.587071</ele>
        <time>2022-02-25T04:28:14.931Z</time>
      </trkpt>
      <trkpt lat="38.35746" lon="38.00461">
        <ele>966.857669</ele>
        <time>2022-02-25T04:28:50.307Z</time>
      </trkpt>
      <trkpt lat="38.3576" lon="38.00443">
        <ele>967.09899</ele>
        <time>2022-02-25T04:28:57.044Z</time>
      </trkpt>
      <trkpt lat="38.3575" lon="38.00411">
        <ele>967.434468</ele>
        <time>2022-02-25T04:29:06.334Z</time>
      </trkpt>
      <trkpt lat="38.35734" lon="38.00362">
        <ele>967.946045</ele>
        <time>2022-02-25T04:29:20.597Z</time>
      </trkpt>
      <trkpt lat="38.35734" lon="38.00341">
        <ele>968.140206</ele>
        <time>2022-02-25T04:29:26.094Z</time>
      </trkpt>
      <trkpt lat="38.35737" lon="38.00336">
        <ele>968.203742</ele>
        <time>2022-02-25T04:29:27.956Z</time>
      </trkpt>
      <trkpt lat="38.35737" lon="38.00321">
        <ele>968.338535</ele>
        <time>2022-02-25T04:29:31.918Z</time>
      </trkpt>
      <trkpt lat="38.35752" lon="38.00266">
        <ele>968.87459</ele>
        <time>2022-02-25T04:29:47.777Z</time>
      </trkpt>
      <trkpt lat="38.35787" lon="38.00115">
        <ele>970.249948</ele>
        <time>2022-02-25T04:30:28.718Z</time>
      </trkpt>
      <trkpt lat="38.35814" lon="38.00051">
        <ele>970.518423</ele>
        <time>2022-02-25T04:30:46.405Z</time>
      </trkpt>
      <trkpt lat="38.35846" lon="38.00002">
        <ele>970.751605</ele>
        <time>2022-02-25T04:31:00.746Z</time>
      </trkpt>
      <trkpt lat="38.35883" lon="37.99968">
        <ele>970.965406</ele>
        <time>2022-02-25T04:31:14.089Z</time>
      </trkpt>
      <trkpt lat="38.35902" lon="37.99962">
        <ele>971.058457</ele>
        <time>2022-02-25T04:31:19.774Z</time>
      </trkpt>
      <trkpt lat="38.35928" lon="37.99964">
        <ele>971.181254</ele>
        <time>2022-02-25T04:31:27.303Z</time>
      </trkpt>
      <trkpt lat="38.35967" lon="37.99979">
        <ele>971.377366</ele>
        <time>2022-02-25T04:31:39.165Z</time>
      </trkpt>
      <trkpt lat="38.3598" lon="37.99977">
        <ele>971.440478</ele>
        <time>2022-02-25T04:31:42.689Z</time>
      </trkpt>
      <trkpt lat="38.35992" lon="37.99966">
        <ele>971.513322</ele>
        <time>2022-02-25T04:31:47.603Z</time>
      </trkpt>
      <trkpt lat="38.35997" lon="37.99948">
        <ele>971.585353</ele>
        <time>2022-02-25T04:31:51.921Z</time>
      </trkpt>
      <trkpt lat="38.35998" lon="37.999">
        <ele>971.764084</ele>
        <time>2022-02-25T04:32:03.336Z</time>
      </trkpt>
      <trkpt lat="38.36012" lon="37.99855">
        <ele>972.024301</ele>
        <time>2022-02-25T04:32:15.260Z</time>
      </trkpt>
      <trkpt lat="38.3603" lon="37.99811">
        <ele>972.593332</ele>
        <time>2022-02-25T04:32:27.626Z</time>
      </trkpt>
      <trkpt lat="38.36062" lon="37.99761">
        <ele>973.35377</ele>
        <time>2022-02-25T04:32:45.706Z</time>
      </trkpt>
      <trkpt lat="38.36074" lon="37.99699">
        <ele>974.091596</ele>
        <time>2022-02-25T04:33:03.807Z</time>
      </trkpt>
      <trkpt lat="38.36083" lon="37.99595">
        <ele>975.707861</ele>
        <time>2022-02-25T04:33:34.427Z</time>
      </trkpt>
      <trkpt lat="38.36086" lon="37.99591">
        <ele>975.811642</ele>
        <time>2022-02-25T04:33:36.579Z</time>
      </trkpt>
      <trkpt lat="38.36098" lon="37.99554">
        <ele>976.531939</ele>
        <time>2022-02-25T04:33:48.007Z</time>
      </trkpt>
      <trkpt lat="38.36198" lon="37.99394">
        <ele>980.2077</ele>
        <time>2022-02-25T04:34:52.297Z</time>
      </trkpt>
      <trkpt lat="38.36229" lon="37.99379">
        <ele>980.951583</ele>
        <time>2022-02-25T04:35:04.607Z</time>
      </trkpt>
      <trkpt lat="38.36234" lon="37.99373">
        <ele>981.106842</ele>
        <time>2022-02-25T04:35:07.653Z</time>
      </trkpt>
      <trkpt lat="38.36247" lon="37.99367">
        <ele>981.415821</ele>
        <time>2022-02-25T04:35:12.839Z</time>
      </trkpt>
      <trkpt lat="38.36275" lon="37.99357">
        <ele>982.097626</ele>
        <time>2022-02-25T04:35:24.208Z</time>
      </trkpt>
      <trkpt lat="38.3631" lon="37.9932">
        <ele>983.072342</ele>
        <time>2022-02-25T04:35:40.950Z</time>
      </trkpt>
      <trkpt lat="38.3638" lon="37.9924">
        <ele>984.963054</ele>
        <time>2022-02-25T04:36:15.799Z</time>
      </trkpt>
      <trkpt lat="38.36448" lon="37.99154">
        <ele>987.06737</ele>
        <time>2022-02-25T04:36:51.268Z</time>
      </trkpt>
      <trkpt lat="38.36473" lon="37.99115">
        <ele>988.201688</ele>
        <time>2022-02-25T04:37:07.280Z</time>
      </trkpt>
      <trkpt lat="38.36506" lon="37.99074">
        <ele>989.500174</ele>
        <time>2022-02-25T04:37:26.340Z</time>
      </trkpt>
      <trkpt lat="38.36591" lon="37.99054">
        <ele>992.122607</ele>
        <time>2022-02-25T04:38:04.041Z</time>
      </trkpt>
      <trkpt lat="38.3663" lon="37.99039">
        <ele>993.707749</ele>
        <time>2022-02-25T04:38:22.384Z</time>
      </trkpt>
      <trkpt lat="38.36655" lon="37.99021">
        <ele>994.80454</ele>
        <time>2022-02-25T04:38:35.617Z</time>
      </trkpt>
      <trkpt lat="38.36708" lon="37.98944">
        <ele>997.943213</ele>
        <time>2022-02-25T04:39:13.947Z</time>
      </trkpt>
      <trkpt lat="38.36738" lon="37.98915">
        <ele>999.467612</ele>
        <time>2022-02-25T04:39:32.060Z</time>
      </trkpt>
      <trkpt lat="38.36773" lon="37.98895">
        <ele>1001.049006</ele>
        <time>2022-02-25T04:39:50.412Z</time>
      </trkpt>
      <trkpt lat="38.36782" lon="37.98866">
        <ele>1002.074985</ele>
        <time>2022-02-25T04:40:02.034Z</time>
      </trkpt>
      <trkpt lat="38.36808" lon="37.98788">
        <ele>1004.843245</ele>
        <time>2022-02-25T04:40:33.362Z</time>
      </trkpt>
      <trkpt lat="38.36826" lon="37.98736">
        <ele>1006.549664</ele>
        <time>2022-02-25T04:40:53.659Z</time>
      </trkpt>
      <trkpt lat="38.36843" lon="37.98663">
        <ele>1008.667163</ele>
        <time>2022-02-25T04:41:20.684Z</time>
      </trkpt>
      <trkpt lat="38.36865" lon="37.98485">
        <ele>1013.486132</ele>
        <time>2022-02-25T04:42:20.359Z</time>
      </trkpt>
      <trkpt lat="38.36871" lon="37.98426">
        <ele>1014.890523</ele>
        <time>2022-02-25T04:42:38.972Z</time>
      </trkpt>
      <trkpt lat="38.36864" lon="37.98405">
        <ele>1015.445574</ele>
        <time>2022-02-25T04:42:45.989Z</time>
      </trkpt>
      <trkpt lat="38.36855" lon="37.98377">
        <ele>1016.159687</ele>
        <time>2022-02-25T04:42:55.682Z</time>
      </trkpt>
      <trkpt lat="38.36852" lon="37.98365">
        <ele>1016.471903</ele>
        <time>2022-02-25T04:43:00.454Z</time>
      </trkpt>
      <trkpt lat="38.36839" lon="37.98316">
        <ele>1017.691253</ele>
        <time>2022-02-25T04:43:16.988Z</time>
      </trkpt>
      <trkpt lat="38.36835" lon="37.98303">
        <ele>1018.033962</ele>
        <time>2022-02-25T04:43:21.586Z</time>
      </trkpt>
      <trkpt lat="38.36831" lon="37.98288">
        <ele>1018.420036</ele>
        <time>2022-02-25T04:43:27.277Z</time>
      </trkpt>
      <trkpt lat="38.36852" lon="37.9828">
        <ele>1019.0949</ele>
        <time>2022-02-25T04:43:36.618Z</time>
      </trkpt>
      <trkpt lat="38.36886" lon="37.98278">
        <ele>1020.159948</ele>
        <time>2022-02-25T04:43:51.307Z</time>
      </trkpt>
      <trkpt lat="38.369" lon="37.9828">
        <ele>1020.590957</ele>
        <time>2022-02-25T04:43:57.538Z</time>
      </trkpt>
      <trkpt lat="38.3691" lon="37.98282">
        <ele>1020.88562</ele>
        <time>2022-02-25T04:44:01.969Z</time>
      </trkpt>
      <trkpt lat="38.36956" lon="37.98304">
        <ele>1022.42272</ele>
        <time>2022-02-25T04:44:22.764Z</time>
      </trkpt>
      <trkpt lat="38.36962" lon="37.98305">
        <ele>1022.583273</ele>
        <time>2022-02-25T04:44:25.602Z</time>
      </trkpt>
      <trkpt lat="38.36987" lon="37.98328">
        <ele>1023.473956</ele>
        <time>2022-02-25T04:44:38.232Z</time>
      </trkpt>
      <trkpt lat="38.371" lon="37.98443">
        <ele>1026.886999</ele>
        <time>2022-02-25T04:45:35.616Z</time>
      </trkpt>
      <trkpt lat="38.37208" lon="37.98528">
        <ele>1029.168247</ele>
        <time>2022-02-25T04:46:20.567Z</time>
      </trkpt>
      <trkpt lat="38.37281" lon="37.98573">
        <ele>1030.481321</ele>
        <time>2022-02-25T04:46:49.236Z</time>
      </trkpt>
      <trkpt lat="38.37452" lon="37.9862">
        <ele>1033.194891</ele>
        <time>2022-02-25T04:47:51.165Z</time>
      </trkpt>
      <trkpt lat="38.37479" lon="37.98619">
        <ele>1033.653361</ele>
        <time>2022-02-25T04:48:00.329Z</time>
      </trkpt>
      <trkpt lat="38.37502" lon="37.98624">
        <ele>1034.073177</ele>
        <time>2022-02-25T04:48:08.522Z</time>
      </trkpt>
      <trkpt lat="38.37682" lon="37.98707">
        <ele>1037.756296</ele>
        <time>2022-02-25T04:49:18.956Z</time>
      </trkpt>
      <trkpt lat="38.37692" lon="37.98713">
        <ele>1038.014518</ele>
        <time>2022-02-25T04:49:23.648Z</time>
      </trkpt>
      <trkpt lat="38.37701" lon="37.98719">
        <ele>1038.228474</ele>
        <time>2022-02-25T04:49:27.416Z</time>
      </trkpt>
      <trkpt lat="38.37746" lon="37.98739">
        <ele>1039.329006</ele>
        <time>2022-02-25T04:49:45.939Z</time>
      </trkpt>
      <trkpt lat="38.37814" lon="37.98755">
        <ele>1041.100626</ele>
        <time>2022-02-25T04:50:13.558Z</time>
      </trkpt>
      <trkpt lat="38.37905" lon="37.98795">
        <ele>1044.544924</ele>
        <time>2022-02-25T04:50:53.403Z</time>
      </trkpt>
      <trkpt lat="38.37959" lon="37.98827">
        <ele>1046.669817</ele>
        <time>2022-02-25T04:51:23.259Z</time>
      </trkpt>
      <trkpt lat="38.37971" lon="37.98829">
        <ele>1047.207374</ele>
        <time>2022-02-25T04:51:28.465Z</time>
      </trkpt>
      <trkpt lat="38.37984" lon="37.98826">
        <ele>1048.134028</ele>
        <time>2022-02-25T04:51:36.448Z</time>
      </trkpt>
      <trkpt lat="38.37987" lon="37.98793">
        <ele>1049.950245</ele>
        <time>2022-02-25T04:51:50.004Z</time>
      </trkpt>
      <trkpt lat="38.37988" lon="37.98746">
        <ele>1052.458397</ele>
        <time>2022-02-25T04:52:11.054Z</time>
      </trkpt>
      <trkpt lat="38.38003" lon="37.98728">
        <ele>1053.850369</ele>
        <time>2022-02-25T04:52:23.901Z</time>
      </trkpt>
      <trkpt lat="38.3803" lon="37.98706">
        <ele>1056.041672</ele>
        <time>2022-02-25T04:52:43.849Z</time>
      </trkpt>
      <trkpt lat="38.38168" lon="37.98565">
        <ele>1071.318645</ele>
        <time>2022-02-25T04:54:47.437Z</time>
      </trkpt>
      <trkpt lat="38.38187" lon="37.98509">
        <ele>1075.683303</ele>
        <time>2022-02-25T04:55:24.939Z</time>
      </trkpt>
      <trkpt lat="38.38194" lon="37.98474">
        <ele>1078.341041</ele>
        <time>2022-02-25T04:55:48.110Z</time>
      </trkpt>
      <trkpt lat="38.38192" lon="37.9844">
        <ele>1080.758654</ele>
        <time>2022-02-25T04:56:09.209Z</time>
      </trkpt>
      <trkpt lat="38.38203" lon="37.98392">
        <ele>1084.409741</ele>
        <time>2022-02-25T04:56:38.151Z</time>
      </trkpt>
      <trkpt lat="38.38203" lon="37.98358">
        <ele>1086.830833</ele>
        <time>2022-02-25T04:56:58.464Z</time>
      </trkpt>
      <trkpt lat="38.38222" lon="37.98363">
        <ele>1088.587106</ele>
        <time>2022-02-25T04:57:09.833Z</time>
      </trkpt>
      <trkpt lat="38.38226" lon="37.98364">
        <ele>1088.975588</ele>
        <time>2022-02-25T04:57:12.675Z</time>
      </trkpt>
      <trkpt lat="38.38232" lon="37.98364">
        <ele>1089.473841</ele>
        <time>2022-02-25T04:57:18.084Z</time>
      </trkpt>
      <trkpt lat="38.38283" lon="37.98343">
        <ele>1093.813498</ele>
        <time>2022-02-25T04:57:51.698Z</time>
      </trkpt>
      <trkpt lat="38.38357" lon="37.98287">
        <ele>1099.085723</ele>
        <time>2022-02-25T04:58:42.621Z</time>
      </trkpt>
      <trkpt lat="38.38371" lon="37.9829">
        <ele>1099.933391</ele>
        <time>2022-02-25T04:58:50.205Z</time>
      </trkpt>
      <trkpt lat="38.38387" lon="37.98317">
        <ele>1101.535022</ele>
        <time>2022-02-25T04:59:02.802Z</time>
      </trkpt>
      <trkpt lat="38.38416" lon="37.98351">
        <ele>1103.948027</ele>
        <time>2022-02-25T04:59:22.976Z</time>
      </trkpt>
      <trkpt lat="38.38437" lon="37.98357">
        <ele>1105.218774</ele>
        <time>2022-02-25T04:59:34.391Z</time>
      </trkpt>
      <trkpt lat="38.38494" lon="37.98319">
        <ele>1109.105745</ele>
        <time>2022-02-25T05:00:11.204Z</time>
      </trkpt>
      <trkpt lat="38.38521" lon="37.98288">
        <ele>1111.261428</ele>
        <time>2022-02-25T05:00:32.470Z</time>
      </trkpt>
      <trkpt lat="38.38538" lon="37.98227">
        <ele>1114.301107</ele>
        <time>2022-02-25T05:01:02.579Z</time>
      </trkpt>
      <trkpt lat="38.38538" lon="37.98178">
        <ele>1116.229794</ele>
        <time>2022-02-25T05:01:24.672Z</time>
      </trkpt>
      <trkpt lat="38.38528" lon="37.98108">
        <ele>1119.057002</ele>
        <time>2022-02-25T05:01:55.707Z</time>
      </trkpt>
      <trkpt lat="38.38547" lon="37.98006">
        <ele>1123.24095</ele>
        <time>2022-02-25T05:02:38.200Z</time>
      </trkpt>
      <trkpt lat="38.38545" lon="37.97956">
        <ele>1122.776414</ele>
        <time>2022-02-25T05:02:53.020Z</time>
      </trkpt>
      <trkpt lat="38.38535" lon="37.9791">
        <ele>1122.173268</ele>
        <time>2022-02-25T05:03:03.995Z</time>
      </trkpt>
      <trkpt lat="38.38508" lon="37.97849">
        <ele>1121.286843</ele>
        <time>2022-02-25T05:03:15.466Z</time>
      </trkpt>
      <trkpt lat="38.38502" lon="37.97824">
        <ele>1120.948739</ele>
        <time>2022-02-25T05:03:20.399Z</time>
      </trkpt>
      <trkpt lat="38.38503" lon="37.97816">
        <ele>1120.857201</ele>
        <time>2022-02-25T05:03:21.316Z</time>
      </trkpt>
      <trkpt lat="38.38518" lon="37.9774">
        <ele>1117.138052</ele>
        <time>2022-02-25T05:03:32.839Z</time>
      </trkpt>
      <trkpt lat="38.38523" lon="37.97737">
        <ele>1116.65856</ele>
        <time>2022-02-25T05:03:33.802Z</time>
      </trkpt>
      <trkpt lat="38.38563" lon="37.97756">
        <ele>1112.842646</ele>
        <time>2022-02-25T05:03:41.155Z</time>
      </trkpt>
      <trkpt lat="38.38594" lon="37.97741">
        <ele>1109.845597</ele>
        <time>2022-02-25T05:03:46.919Z</time>
      </trkpt>
      <trkpt lat="38.38599" lon="37.97745">
        <ele>1109.377881</ele>
        <time>2022-02-25T05:03:47.810Z</time>
      </trkpt>
      <trkpt lat="38.386" lon="37.97784">
        <ele>1106.633898</ele>
        <time>2022-02-25T05:03:53.089Z</time>
      </trkpt>
      <trkpt lat="38.38626" lon="37.97824">
        <ele>1103.043219</ele>
        <time>2022-02-25T05:03:59.968Z</time>
      </trkpt>
      <trkpt lat="38.38651" lon="37.9782">
        <ele>1100.78335</ele>
        <time>2022-02-25T05:04:04.328Z</time>
      </trkpt>
      <trkpt lat="38.38661" lon="37.97801">
        <ele>1099.176882</ele>
        <time>2022-02-25T05:04:07.372Z</time>
      </trkpt>
      <trkpt lat="38.38678" lon="37.97796">
        <ele>1097.665941</ele>
        <time>2022-02-25T05:04:10.341Z</time>
      </trkpt>
      <trkpt lat="38.38691" lon="37.9782">
        <ele>1095.69391</ele>
        <time>2022-02-25T05:04:14.139Z</time>
      </trkpt>
      <trkpt lat="38.38707" lon="37.9783">
        <ele>1094.071508</ele>
        <time>2022-02-25T05:04:17.383Z</time>
      </trkpt>
      <trkpt lat="38.38727" lon="37.9787">
        <ele>1090.74175</ele>
        <time>2022-02-25T05:04:24.012Z</time>
      </trkpt>
      <trkpt lat="38.38735" lon="37.97875">
        <ele>1089.976793</ele>
        <time>2022-02-25T05:04:25.477Z</time>
      </trkpt>
      <trkpt lat="38.3875" lon="37.98016">
        <ele>1083.507063</ele>
        <time>2022-02-25T05:04:45.119Z</time>
      </trkpt>
      <trkpt lat="38.38755" lon="37.98075">
        <ele>1081.046574</ele>
        <time>2022-02-25T05:04:53.657Z</time>
      </trkpt>
      <trkpt lat="38.38752" lon="37.98164">
        <ele>1077.874588</ele>
        <time>2022-02-25T05:05:07.041Z</time>
      </trkpt>
      <trkpt lat="38.38743" lon="37.98233">
        <ele>1075.871124</ele>
        <time>2022-02-25T05:05:17.558Z</time>
      </trkpt>
      <trkpt lat="38.38725" lon="37.98308">
        <ele>1073.624541</ele>
        <time>2022-02-25T05:05:29.307Z</time>
      </trkpt>
      <trkpt lat="38.38695" lon="37.98393">
        <ele>1071.666277</ele>
        <time>2022-02-25T05:05:43.163Z</time>
      </trkpt>
      <trkpt lat="38.38667" lon="37.98456">
        <ele>1070.567874</ele>
        <time>2022-02-25T05:05:54.687Z</time>
      </trkpt>
      <trkpt lat="38.38639" lon="37.98505">
        <ele>1069.648191</ele>
        <time>2022-02-25T05:06:05.280Z</time>
      </trkpt>
      <trkpt lat="38.38615" lon="37.98536">
        <ele>1068.99115</ele>
        <time>2022-02-25T05:06:13.810Z</time>
      </trkpt>
      <trkpt lat="38.38624" lon="37.98543">
        <ele>1069.203928</ele>
        <time>2022-02-25T05:06:16.907Z</time>
      </trkpt>
      <trkpt lat="38.38647" lon="37.98514">
        <ele>1069.88885</ele>
        <time>2022-02-25T05:06:26.927Z</time>
      </trkpt>
      <trkpt lat="38.38676" lon="37.98463">
        <ele>1070.910755</ele>
        <time>2022-02-25T05:06:44.187Z</time>
      </trkpt>
      <trkpt lat="38.38704" lon="37.98399">
        <ele>1072.118176</ele>
        <time>2022-02-25T05:07:07.879Z</time>
      </trkpt>
      <trkpt lat="38.38735" lon="37.98313">
        <ele>1074.268692</ele>
        <time>2022-02-25T05:07:41.619Z</time>
      </trkpt>
      <trkpt lat="38.38753" lon="37.98236">
        <ele>1076.430851</ele>
        <time>2022-02-25T05:08:08.912Z</time>
      </trkpt>
      <trkpt lat="38.38762" lon="37.98165">
        <ele>1078.362335</ele>
        <time>2022-02-25T05:08:32.678Z</time>
      </trkpt>
      <trkpt lat="38.38765" lon="37.98075">
        <ele>1080.815414</ele>
        <time>2022-02-25T05:09:02.622Z</time>
      </trkpt>
      <trkpt lat="38.3876" lon="37.98014">
        <ele>1082.449902</ele>
        <time>2022-02-25T05:09:22.630Z</time>
      </trkpt>
      <trkpt lat="38.38713" lon="37.97574">
        <ele>1095.512911</ele>
        <time>2022-02-25T05:11:58.151Z</time>
      </trkpt>
      <trkpt lat="38.38659" lon="37.97064">
        <ele>1112.693211</ele>
        <time>2022-02-25T05:15:08.360Z</time>
      </trkpt>
      <trkpt lat="38.38628" lon="37.96887">
        <ele>1119.854055</ele>
        <time>2022-02-25T05:16:20.134Z</time>
      </trkpt>
      <trkpt lat="38.38518" lon="37.96525">
        <ele>1136.782869</ele>
        <time>2022-02-25T05:19:05.780Z</time>
      </trkpt>
      <trkpt lat="38.38505" lon="37.96453">
        <ele>1139.817415</ele>
        <time>2022-02-25T05:19:36.404Z</time>
      </trkpt>
      <trkpt lat="38.38501" lon="37.96374">
        <ele>1143.084836</ele>
        <time>2022-02-25T05:20:08.247Z</time>
      </trkpt>
      <trkpt lat="38.38524" lon="37.96091">
        <ele>1152.747666</ele>
        <time>2022-02-25T05:21:53.675Z</time>
      </trkpt>
      <trkpt lat="38.38524" lon="37.96021">
        <ele>1154.902815</ele>
        <time>2022-02-25T05:22:17.995Z</time>
      </trkpt>
      <trkpt lat="38.38523" lon="37.95992">
        <ele>1155.807958</ele>
        <time>2022-02-25T05:22:28.274Z</time>
      </trkpt>
      <trkpt lat="38.3852" lon="37.95902">
        <ele>1158.56353</ele>
        <time>2022-02-25T05:22:59.866Z</time>
      </trkpt>
      <trkpt lat="38.38503" lon="37.95793">
        <ele>1162.409305</ele>
        <time>2022-02-25T05:23:40.699Z</time>
      </trkpt>
      <trkpt lat="38.3848" lon="37.95681">
        <ele>1166.400237</ele>
        <time>2022-02-25T05:24:24.915Z</time>
      </trkpt>
      <trkpt lat="38.38421" lon="37.95523">
        <ele>1172.861637</ele>
        <time>2022-02-25T05:25:34.072Z</time>
      </trkpt>
      <trkpt lat="38.3831" lon="37.95266">
        <ele>1183.069693</ele>
        <time>2022-02-25T05:27:23.014Z</time>
      </trkpt>
      <trkpt lat="38.38272" lon="37.95158">
        <ele>1187.721328</ele>
        <time>2022-02-25T05:28:08.821Z</time>
      </trkpt>
      <trkpt lat="38.38251" lon="37.95099">
        <ele>1190.241954</ele>
        <time>2022-02-25T05:28:34.734Z</time>
      </trkpt>
      <trkpt lat="38.38229" lon="37.9501">
        <ele>1194.439808</ele>
        <time>2022-02-25T05:29:14.010Z</time>
      </trkpt>
      <trkpt lat="38.38198" lon="37.94842">
        <ele>1203.164205</ele>
        <time>2022-02-25T05:30:33.704Z</time>
      </trkpt>
      <trkpt lat="38.38185" lon="37.94727">
        <ele>1208.810192</ele>
        <time>2022-02-25T05:31:27.610Z</time>
      </trkpt>
      <trkpt lat="38.38184" lon="37.94718">
        <ele>1209.253591</ele>
        <time>2022-02-25T05:31:32.686Z</time>
      </trkpt>
      <trkpt lat="38.38153" lon="37.94393">
        <ele>1223.921669</ele>
        <time>2022-02-25T05:33:49.512Z</time>
      </trkpt>
      <trkpt lat="38.38149" lon="37.94283">
        <ele>1228.308497</ele>
        <time>2022-02-25T05:34:32.547Z</time>
      </trkpt>
      <trkpt lat="38.38155" lon="37.94094">
        <ele>1235.890217</ele>
        <time>2022-02-25T05:35:47.431Z</time>
      </trkpt>
      <trkpt lat="38.38163" lon="37.93995">
        <ele>1240.156522</ele>
        <time>2022-02-25T05:36:28.325Z</time>
      </trkpt>
      <trkpt lat="38.38182" lon="37.93879">
        <ele>1245.509994</ele>
        <time>2022-02-25T05:37:19.510Z</time>
      </trkpt>
      <trkpt lat="38.38234" lon="37.93655">
        <ele>1257.087314</ele>
        <time>2022-02-25T05:39:05.481Z</time>
      </trkpt>
      <trkpt lat="38.38336" lon="37.93323">
        <ele>1274.565446</ele>
        <time>2022-02-25T05:41:43.220Z</time>
      </trkpt>
      <trkpt lat="38.38364" lon="37.93185">
        <ele>1281.814297</ele>
        <time>2022-02-25T05:42:47.011Z</time>
      </trkpt>
      <trkpt lat="38.38372" lon="37.93092">
        <ele>1286.725143</ele>
        <time>2022-02-25T05:43:30.642Z</time>
      </trkpt>
      <trkpt lat="38.3837" lon="37.9299">
        <ele>1292.278988</ele>
        <time>2022-02-25T05:44:19.090Z</time>
      </trkpt>
      <trkpt lat="38.38361" lon="37.9289">
        <ele>1297.943129</ele>
        <time>2022-02-25T05:45:07.113Z</time>
      </trkpt>
      <trkpt lat="38.38306" lon="37.92589">
        <ele>1316.263688</ele>
        <time>2022-02-25T05:47:38.590Z</time>
      </trkpt>
      <trkpt lat="38.38302" lon="37.92526">
        <ele>1320.618393</ele>
        <time>2022-02-25T05:48:12.495Z</time>
      </trkpt>
      <trkpt lat="38.38302" lon="37.92522">
        <ele>1320.93816</ele>
        <time>2022-02-25T05:48:16.503Z</time>
      </trkpt>
      <trkpt lat="38.383" lon="37.92441">
        <ele>1326.548108</ele>
        <time>2022-02-25T05:49:00.328Z</time>
      </trkpt>
      <trkpt lat="38.38306" lon="37.92401">
        <ele>1329.40895</ele>
        <time>2022-02-25T05:49:23.455Z</time>
      </trkpt>
      <trkpt lat="38.3832" lon="37.92339">
        <ele>1333.697267</ele>
        <time>2022-02-25T05:50:00.458Z</time>
      </trkpt>
      <trkpt lat="38.38392" lon="37.92068">
        <ele>1350.864191</ele>
        <time>2022-02-25T05:52:21.513Z</time>
      </trkpt>
      <trkpt lat="38.3842" lon="37.92005">
        <ele>1354.867167</ele>
        <time>2022-02-25T05:52:54.652Z</time>
      </trkpt>
      <trkpt lat="38.38447" lon="37.9196">
        <ele>1357.982495</ele>
        <time>2022-02-25T05:53:20.611Z</time>
      </trkpt>
      <trkpt lat="38.38528" lon="37.91868">
        <ele>1365.875756</ele>
        <time>2022-02-25T05:54:26.610Z</time>
      </trkpt>
      <trkpt lat="38.3876" lon="37.91597">
        <ele>1389.083138</ele>
        <time>2022-02-25T05:57:45.254Z</time>
      </trkpt>
      <trkpt lat="38.38786" lon="37.9156">
        <ele>1391.765227</ele>
        <time>2022-02-25T05:58:08.496Z</time>
      </trkpt>
      <trkpt lat="38.38806" lon="37.9152">
        <ele>1394.28004</ele>
        <time>2022-02-25T05:58:29.853Z</time>
      </trkpt>
      <trkpt lat="38.38817" lon="37.91474">
        <ele>1396.865709</ele>
        <time>2022-02-25T05:58:51.364Z</time>
      </trkpt>
      <trkpt lat="38.38822" lon="37.91432">
        <ele>1399.283982</ele>
        <time>2022-02-25T05:59:10.495Z</time>
      </trkpt>
      <trkpt lat="38.38822" lon="37.91376">
        <ele>1402.681567</ele>
        <time>2022-02-25T05:59:36.158Z</time>
      </trkpt>
      <trkpt lat="38.38813" lon="37.91331">
        <ele>1405.548781</ele>
        <time>2022-02-25T05:59:58.800Z</time>
      </trkpt>
      <trkpt lat="38.38796" lon="37.91288">
        <ele>1408.457888</ele>
        <time>2022-02-25T06:00:22.686Z</time>
      </trkpt>
      <trkpt lat="38.38646" lon="37.90994">
        <ele>1434.31247</ele>
        <time>2022-02-25T06:03:43.769Z</time>
      </trkpt>
      <trkpt lat="38.38599" lon="37.90924">
        <ele>1441.606776</ele>
        <time>2022-02-25T06:04:40.341Z</time>
      </trkpt>
      <trkpt lat="38.38564" lon="37.90893">
        <ele>1445.998315</ele>
        <time>2022-02-25T06:05:13.286Z</time>
      </trkpt>
      <trkpt lat="38.38526" lon="37.90878">
        <ele>1449.401559</ele>
        <time>2022-02-25T06:05:42.801Z</time>
      </trkpt>
      <trkpt lat="38.38485" lon="37.90874">
        <ele>1452.435135</ele>
        <time>2022-02-25T06:06:11.561Z</time>
      </trkpt>
      <trkpt lat="38.3831" lon="37.90896">
        <ele>1463.371761</ele>
        <time>2022-02-25T06:07:51.343Z</time>
      </trkpt>
      <trkpt lat="38.38246" lon="37.90886">
        <ele>1465.873915</ele>
        <time>2022-02-25T06:08:18.579Z</time>
      </trkpt>
      <trkpt lat="38.38202" lon="37.90871">
        <ele>1467.613703</ele>
        <time>2022-02-25T06:08:35.400Z</time>
      </trkpt>
      <trkpt lat="38.3815" lon="37.90844">
        <ele>1468.482228</ele>
        <time>2022-02-25T06:08:54.784Z</time>
      </trkpt>
      <trkpt lat="38.38157" lon="37.90818">
        <ele>1468.713482</ele>
        <time>2022-02-25T06:09:01.658Z</time>
      </trkpt>
      <trkpt lat="38.38115" lon="37.90794">
        <ele>1469.211675</ele>
        <time>2022-02-25T06:09:16.708Z</time>
      </trkpt>
      <trkpt lat="38.38" lon="37.90732">
        <ele>1469.822191</ele>
        <time>2022-02-25T06:09:54.948Z</time>
      </trkpt>
      <trkpt lat="38.37895" lon="37.90676">
        <ele>1469.605771</ele>
        <time>2022-02-25T06:10:24.682Z</time>
      </trkpt>
      <trkpt lat="38.37874" lon="37.90661">
        <ele>1469.228409</ele>
        <time>2022-02-25T06:10:30.336Z</time>
      </trkpt>
      <trkpt lat="38.37852" lon="37.9066">
        <ele>1468.75933</ele>
        <time>2022-02-25T06:10:35.434Z</time>
      </trkpt>
      <trkpt lat="38.37844" lon="37.90654">
        <ele>1468.556214</ele>
        <time>2022-02-25T06:10:37.541Z</time>
      </trkpt>
      <trkpt lat="38.37828" lon="37.9064">
        <ele>1468.139272</ele>
        <time>2022-02-25T06:10:41.799Z</time>
      </trkpt>
      <trkpt lat="38.37792" lon="37.90603">
        <ele>1467.158663</ele>
        <time>2022-02-25T06:10:51.511Z</time>
      </trkpt>
      <trkpt lat="38.37747" lon="37.90533">
        <ele>1465.489728</ele>
        <time>2022-02-25T06:11:05.744Z</time>
      </trkpt>
      <trkpt lat="38.37729" lon="37.90478">
        <ele>1463.321887</ele>
        <time>2022-02-25T06:11:14.702Z</time>
      </trkpt>
      <trkpt lat="38.37655" lon="37.89978">
        <ele>1443.343244</ele>
        <time>2022-02-25T06:12:27.125Z</time>
      </trkpt>
      <trkpt lat="38.37628" lon="37.89754">
        <ele>1432.055427</ele>
        <time>2022-02-25T06:12:57.454Z</time>
      </trkpt>
      <trkpt lat="38.37623" lon="37.89696">
        <ele>1429.060733</ele>
        <time>2022-02-25T06:13:05.397Z</time>
      </trkpt>
      <trkpt lat="38.37619" lon="37.89651">
        <ele>1426.715765</ele>
        <time>2022-02-25T06:13:11.739Z</time>
      </trkpt>
      <trkpt lat="38.37615" lon="37.896">
        <ele>1424.524943</ele>
        <time>2022-02-25T06:13:18.831Z</time>
      </trkpt>
      <trkpt lat="38.37604" lon="37.89551">
        <ele>1422.428009</ele>
        <time>2022-02-25T06:13:26.075Z</time>
      </trkpt>
      <trkpt lat="38.37583" lon="37.89502">
        <ele>1420.123382</ele>
        <time>2022-02-25T06:13:34.311Z</time>
      </trkpt>
      <trkpt lat="38.37478" lon="37.89361">
        <ele>1411.147201</ele>
        <time>2022-02-25T06:14:01.375Z</time>
      </trkpt>
      <trkpt lat="38.37445" lon="37.89269">
        <ele>1406.03846</ele>
        <time>2022-02-25T06:14:14.936Z</time>
      </trkpt>
      <trkpt lat="38.37435" lon="37.8922">
        <ele>1403.363218</ele>
        <time>2022-02-25T06:14:21.671Z</time>
      </trkpt>
      <trkpt lat="38.37429" lon="37.89143">
        <ele>1399.088996</ele>
        <time>2022-02-25T06:14:32.085Z</time>
      </trkpt>
      <trkpt lat="38.37429" lon="37.89032">
        <ele>1392.944857</ele>
        <time>2022-02-25T06:14:47.147Z</time>
      </trkpt>
      <trkpt lat="38.37438" lon="37.88914">
        <ele>1386.245515</ele>
        <time>2022-02-25T06:15:03.007Z</time>
      </trkpt>
      <trkpt lat="38.37444" lon="37.88858">
        <ele>1383.027203</ele>
        <time>2022-02-25T06:15:10.620Z</time>
      </trkpt>
      <trkpt lat="38.37445" lon="37.88849">
        <ele>1382.541375</ele>
        <time>2022-02-25T06:15:11.732Z</time>
      </trkpt>
      <trkpt lat="38.37455" lon="37.88787">
        <ele>1378.967219</ele>
        <time>2022-02-25T06:15:20.149Z</time>
      </trkpt>
      <trkpt lat="38.37557" lon="37.88287">
        <ele>1350.833678</ele>
        <time>2022-02-25T06:16:29.690Z</time>
      </trkpt>
      <trkpt lat="38.37552" lon="37.8824">
        <ele>1348.508078</ele>
        <time>2022-02-25T06:16:36.198Z</time>
      </trkpt>
      <trkpt lat="38.37548" lon="37.88211">
        <ele>1347.058401</ele>
        <time>2022-02-25T06:16:40.274Z</time>
      </trkpt>
      <trkpt lat="38.37543" lon="37.88194">
        <ele>1346.146754</ele>
        <time>2022-02-25T06:16:42.853Z</time>
      </trkpt>
      <trkpt lat="38.37528" lon="37.88158">
        <ele>1344.148266</ele>
        <time>2022-02-25T06:16:48.437Z</time>
      </trkpt>
      <trkpt lat="38.37489" lon="37.88092">
        <ele>1341.299077</ele>
        <time>2022-02-25T06:16:59.930Z</time>
      </trkpt>
      <trkpt lat="38.37447" lon="37.8803">
        <ele>1338.987323</ele>
        <time>2022-02-25T06:17:12.029Z</time>
      </trkpt>
      <trkpt lat="38.37442" lon="37.88022">
        <ele>1338.683439</ele>
        <time>2022-02-25T06:17:13.525Z</time>
      </trkpt>
      <trkpt lat="38.37405" lon="37.87955">
        <ele>1336.446386</ele>
        <time>2022-02-25T06:17:27.159Z</time>
      </trkpt>
      <trkpt lat="38.37381" lon="37.87897">
        <ele>1337.1882</ele>
        <time>2022-02-25T06:17:39.059Z</time>
      </trkpt>
      <trkpt lat="38.37349" lon="37.87785">
        <ele>1338.5486</ele>
        <time>2022-02-25T06:18:12.773Z</time>
      </trkpt>
      <trkpt lat="38.37343" lon="37.87726">
        <ele>1339.74432</ele>
        <time>2022-02-25T06:18:34.229Z</time>
      </trkpt>
      <trkpt lat="38.37343" lon="37.87672">
        <ele>1342.000311</ele>
        <time>2022-02-25T06:18:55.537Z</time>
      </trkpt>
      <trkpt lat="38.37357" lon="37.87312">
        <ele>1357.62339</ele>
        <time>2022-02-25T06:21:31.746Z</time>
      </trkpt>
      <trkpt lat="38.3735" lon="37.87258">
        <ele>1359.612557</ele>
        <time>2022-02-25T06:21:52.519Z</time>
      </trkpt>
      <trkpt lat="38.37338" lon="37.87204">
        <ele>1361.261005</ele>
        <time>2022-02-25T06:22:12.680Z</time>
      </trkpt>
      <trkpt lat="38.37293" lon="37.87107">
        <ele>1364.563523</ele>
        <time>2022-02-25T06:22:50.226Z</time>
      </trkpt>
      <trkpt lat="38.37255" lon="37.87044">
        <ele>1366.976486</ele>
        <time>2022-02-25T06:23:15.722Z</time>
      </trkpt>
      <trkpt lat="38.37178" lon="37.86958">
        <ele>1371.103333</ele>
        <time>2022-02-25T06:24:02.322Z</time>
      </trkpt>
      <trkpt lat="38.37128" lon="37.8689">
        <ele>1374.056775</ele>
        <time>2022-02-25T06:24:39.836Z</time>
      </trkpt>
      <trkpt lat="38.37053" lon="37.86758">
        <ele>1379.362746</ele>
        <time>2022-02-25T06:25:43.554Z</time>
      </trkpt>
      <trkpt lat="38.37005" lon="37.86642">
        <ele>1377.983647</ele>
        <time>2022-02-25T06:26:16.142Z</time>
      </trkpt>
      <trkpt lat="38.36969" lon="37.8649">
        <ele>1372.588426</ele>
        <time>2022-02-25T06:26:38.195Z</time>
      </trkpt>
      <trkpt lat="38.36965" lon="37.86471">
        <ele>1371.00001</ele>
        <time>2022-02-25T06:26:40.665Z</time>
      </trkpt>
      <trkpt lat="38.36947" lon="37.86423">
        <ele>1366.687953</ele>
        <time>2022-02-25T06:26:47.435Z</time>
      </trkpt>
      <trkpt lat="38.36849" lon="37.86247">
        <ele>1351.289595</ele>
        <time>2022-02-25T06:27:14.513Z</time>
      </trkpt>
      <trkpt lat="38.36807" lon="37.86186">
        <ele>1346.559623</ele>
        <time>2022-02-25T06:27:25.142Z</time>
      </trkpt>
      <trkpt lat="38.36528" lon="37.85938">
        <ele>1342.401714</ele>
        <time>2022-02-25T06:28:46.314Z</time>
      </trkpt>
      <trkpt lat="38.36435" lon="37.85845">
        <ele>1345.393184</ele>
        <time>2022-02-25T06:29:36.237Z</time>
      </trkpt>
      <trkpt lat="38.36426" lon="37.85837">
        <ele>1345.887679</ele>
        <time>2022-02-25T06:29:41.897Z</time>
      </trkpt>
      <trkpt lat="38.36394" lon="37.85807">
        <ele>1347.711544</ele>
        <time>2022-02-25T06:30:01.342Z</time>
      </trkpt>
      <trkpt lat="38.36343" lon="37.8574">
        <ele>1351.060163</ele>
        <time>2022-02-25T06:30:40.059Z</time>
      </trkpt>
      <trkpt lat="38.36323" lon="37.85692">
        <ele>1353.740336</ele>
        <time>2022-02-25T06:31:03.955Z</time>
      </trkpt>
      <trkpt lat="38.36311" lon="37.85638">
        <ele>1356.531154</ele>
        <time>2022-02-25T06:31:28.836Z</time>
      </trkpt>
      <trkpt lat="38.36291" lon="37.8545">
        <ele>1366.001369</ele>
        <time>2022-02-25T06:32:56.248Z</time>
      </trkpt>
      <trkpt lat="38.36265" lon="37.85399">
        <ele>1369.05608</ele>
        <time>2022-02-25T06:33:23.994Z</time>
      </trkpt>
      <trkpt lat="38.36238" lon="37.8536">
        <ele>1371.696772</ele>
        <time>2022-02-25T06:33:47.485Z</time>
      </trkpt>
      <trkpt lat="38.36204" lon="37.85331">
        <ele>1374.386095</ele>
        <time>2022-02-25T06:34:10.909Z</time>
      </trkpt>
      <trkpt lat="38.36109" lon="37.85288">
        <ele>1380.491948</ele>
        <time>2022-02-25T06:35:05.675Z</time>
      </trkpt>
      <trkpt lat="38.3608" lon="37.85268">
        <ele>1382.489557</ele>
        <time>2022-02-25T06:35:23.807Z</time>
      </trkpt>
      <trkpt lat="38.36035" lon="37.85213">
        <ele>1386.534645</ele>
        <time>2022-02-25T06:35:58.735Z</time>
      </trkpt>
      <trkpt lat="38.35935" lon="37.85048">
        <ele>1398.788476</ele>
        <time>2022-02-25T06:37:41.764Z</time>
      </trkpt>
      <trkpt lat="38.35802" lon="37.84811">
        <ele>1418.678484</ele>
        <time>2022-02-25T06:40:22.779Z</time>
      </trkpt>
      <trkpt lat="38.35776" lon="37.84756">
        <ele>1422.810853</ele>
        <time>2022-02-25T06:40:56.612Z</time>
      </trkpt>
      <trkpt lat="38.35748" lon="37.84675">
        <ele>1428.443259</ele>
        <time>2022-02-25T06:41:40.359Z</time>
      </trkpt>
      <trkpt lat="38.35725" lon="37.84585">
        <ele>1433.658613</ele>
        <time>2022-02-25T06:42:24.848Z</time>
      </trkpt>
      <trkpt lat="38.35705" lon="37.8454">
        <ele>1436.481383</ele>
        <time>2022-02-25T06:42:48.587Z</time>
      </trkpt>
      <trkpt lat="38.35675" lon="37.84493">
        <ele>1439.792855</ele>
        <time>2022-02-25T06:43:16.348Z</time>
      </trkpt>
      <trkpt lat="38.35528" lon="37.84304">
        <ele>1455.472241</ele>
        <time>2022-02-25T06:45:25.069Z</time>
      </trkpt>
      <trkpt lat="38.35386" lon="37.84157">
        <ele>1473.310338</ele>
        <time>2022-02-25T06:47:42.169Z</time>
      </trkpt>
      <trkpt lat="38.35364" lon="37.84127">
        <ele>1476.522962</ele>
        <time>2022-02-25T06:48:07.221Z</time>
      </trkpt>
      <trkpt lat="38.35349" lon="37.84087">
        <ele>1480.051465</ele>
        <time>2022-02-25T06:48:34.373Z</time>
      </trkpt>
      <trkpt lat="38.35342" lon="37.84053">
        <ele>1482.811683</ele>
        <time>2022-02-25T06:48:55.454Z</time>
      </trkpt>
      <trkpt lat="38.35346" lon="37.83966">
        <ele>1489.677503</ele>
        <time>2022-02-25T06:49:46.693Z</time>
      </trkpt>
      <trkpt lat="38.35397" lon="37.83836">
        <ele>1499.77094</ele>
        <time>2022-02-25T06:51:05.385Z</time>
      </trkpt>
      <trkpt lat="38.35443" lon="37.8374">
        <ele>1507.45537</ele>
        <time>2022-02-25T06:52:04.113Z</time>
      </trkpt>
      <trkpt lat="38.35451" lon="37.83692">
        <ele>1510.794845</ele>
        <time>2022-02-25T06:52:30.088Z</time>
      </trkpt>
      <trkpt lat="38.35451" lon="37.83647">
        <ele>1513.847783</ele>
        <time>2022-02-25T06:52:53.910Z</time>
      </trkpt>
      <trkpt lat="38.35445" lon="37.83592">
        <ele>1517.622588</ele>
        <time>2022-02-25T06:53:23.873Z</time>
      </trkpt>
      <trkpt lat="38.35409" lon="37.83494">
        <ele>1524.808748</ele>
        <time>2022-02-25T06:54:23.631Z</time>
      </trkpt>
      <trkpt lat="38.35365" lon="37.83444">
        <ele>1529.637028</ele>
        <time>2022-02-25T06:55:05.359Z</time>
      </trkpt>
      <trkpt lat="38.35246" lon="37.83331">
        <ele>1540.051506</ele>
        <time>2022-02-25T06:56:35.874Z</time>
      </trkpt>
      <trkpt lat="38.35078" lon="37.83193">
        <ele>1550.951598</ele>
        <time>2022-02-25T06:58:12.497Z</time>
      </trkpt>
      <trkpt lat="38.35063" lon="37.83177">
        <ele>1552.043395</ele>
        <time>2022-02-25T06:58:22.588Z</time>
      </trkpt>
      <trkpt lat="38.34973" lon="37.83082">
        <ele>1559.231823</ele>
        <time>2022-02-25T06:59:29.426Z</time>
      </trkpt>
      <trkpt lat="38.34862" lon="37.83005">
        <ele>1568.821134</ele>
        <time>2022-02-25T07:00:52.480Z</time>
      </trkpt>
      <trkpt lat="38.34763" lon="37.82937">
        <ele>1576.693221</ele>
        <time>2022-02-25T07:02:04.276Z</time>
      </trkpt>
      <trkpt lat="38.34613" lon="37.82846">
        <ele>1586.701428</ele>
        <time>2022-02-25T07:03:35.545Z</time>
      </trkpt>
      <trkpt lat="38.34517" lon="37.82789">
        <ele>1592.136436</ele>
        <time>2022-02-25T07:04:27.575Z</time>
      </trkpt>
      <trkpt lat="38.3448" lon="37.82737">
        <ele>1594.513162</ele>
        <time>2022-02-25T07:04:53.006Z</time>
      </trkpt>
      <trkpt lat="38.3445" lon="37.8271">
        <ele>1596.10116</ele>
        <time>2022-02-25T07:05:09.888Z</time>
      </trkpt>
      <trkpt lat="38.34423" lon="37.82694">
        <ele>1597.388726</ele>
        <time>2022-02-25T07:05:23.783Z</time>
      </trkpt>
      <trkpt lat="38.34329" lon="37.82667">
        <ele>1602.229029</ele>
        <time>2022-02-25T07:06:10.668Z</time>
      </trkpt>
      <trkpt lat="38.34311" lon="37.82662">
        <ele>1603.306146</ele>
        <time>2022-02-25T07:06:20.150Z</time>
      </trkpt>
      <trkpt lat="38.34274" lon="37.82625">
        <ele>1606.007573</ele>
        <time>2022-02-25T07:06:45.159Z</time>
      </trkpt>
      <trkpt lat="38.34265" lon="37.826">
        <ele>1607.247027</ele>
        <time>2022-02-25T07:06:57.393Z</time>
      </trkpt>
      <trkpt lat="38.3426" lon="37.82568">
        <ele>1608.717232</ele>
        <time>2022-02-25T07:07:12.320Z</time>
      </trkpt>
      <trkpt lat="38.34262" lon="37.82539">
        <ele>1610.130426</ele>
        <time>2022-02-25T07:07:26.158Z</time>
      </trkpt>
      <trkpt lat="38.34272" lon="37.82506">
        <ele>1612.377758</ele>
        <time>2022-02-25T07:07:43.684Z</time>
      </trkpt>
      <trkpt lat="38.3433" lon="37.82376">
        <ele>1621.878532</ele>
        <time>2022-02-25T07:09:02.210Z</time>
      </trkpt>
      <trkpt lat="38.34336" lon="37.82345">
        <ele>1623.906849</ele>
        <time>2022-02-25T07:09:19.366Z</time>
      </trkpt>
      <trkpt lat="38.34333" lon="37.82278">
        <ele>1628.098856</ele>
        <time>2022-02-25T07:09:55.085Z</time>
      </trkpt>
      <trkpt lat="38.34324" lon="37.82245">
        <ele>1630.277011</ele>
        <time>2022-02-25T07:10:13.329Z</time>
      </trkpt>
      <trkpt lat="38.34238" lon="37.82093">
        <ele>1641.720962</ele>
        <time>2022-02-25T07:11:45.960Z</time>
      </trkpt>
      <trkpt lat="38.34209" lon="37.82034">
        <ele>1645.789767</ele>
        <time>2022-02-25T07:12:19.916Z</time>
      </trkpt>
      <trkpt lat="38.34196" lon="37.81992">
        <ele>1648.416143</ele>
        <time>2022-02-25T07:12:41.904Z</time>
      </trkpt>
      <trkpt lat="38.34188" lon="37.81919">
        <ele>1652.730582</ele>
        <time>2022-02-25T07:13:17.915Z</time>
      </trkpt>
      <trkpt lat="38.34191" lon="37.8188">
        <ele>1655.095643</ele>
        <time>2022-02-25T07:13:36.650Z</time>
      </trkpt>
      <trkpt lat="38.34217" lon="37.81752">
        <ele>1663.075678</ele>
        <time>2022-02-25T07:14:43.741Z</time>
      </trkpt>
      <trkpt lat="38.3422" lon="37.81703">
        <ele>1666.048028</ele>
        <time>2022-02-25T07:15:08.241Z</time>
      </trkpt>
      <trkpt lat="38.34219" lon="37.81632">
        <ele>1670.472604</ele>
        <time>2022-02-25T07:15:43.376Z</time>
      </trkpt>
      <trkpt lat="38.34218" lon="37.8155">
        <ele>1675.542651</ele>
        <time>2022-02-25T07:16:25.397Z</time>
      </trkpt>
      <trkpt lat="38.34225" lon="37.81513">
        <ele>1677.904261</ele>
        <time>2022-02-25T07:16:45.489Z</time>
      </trkpt>
      <trkpt lat="38.34255" lon="37.81447">
        <ele>1682.489379</ele>
        <time>2022-02-25T07:17:24.165Z</time>
      </trkpt>
      <trkpt lat="38.34292" lon="37.81388">
        <ele>1686.917273</ele>
        <time>2022-02-25T07:18:02.032Z</time>
      </trkpt>
      <trkpt lat="38.34314" lon="37.81354">
        <ele>1689.485722</ele>
        <time>2022-02-25T07:18:23.265Z</time>
      </trkpt>
      <trkpt lat="38.34323" lon="37.81333">
        <ele>1690.885429</ele>
        <time>2022-02-25T07:18:33.972Z</time>
      </trkpt>
      <trkpt lat="38.34331" lon="37.81285">
        <ele>1693.726755</ele>
        <time>2022-02-25T07:18:57.633Z</time>
      </trkpt>
      <trkpt lat="38.34323" lon="37.81238">
        <ele>1696.28471</ele>
        <time>2022-02-25T07:19:20.796Z</time>
      </trkpt>
      <trkpt lat="38.34316" lon="37.8122">
        <ele>1697.308122</ele>
        <time>2022-02-25T07:19:30.845Z</time>
      </trkpt>
      <trkpt lat="38.34303" lon="37.812">
        <ele>1698.674644</ele>
        <time>2022-02-25T07:19:41.423Z</time>
      </trkpt>
      <trkpt lat="38.34205" lon="37.81107">
        <ele>1706.810473</ele>
        <time>2022-02-25T07:20:53.030Z</time>
      </trkpt>
      <trkpt lat="38.3413" lon="37.80954">
        <ele>1715.886966</ele>
        <time>2022-02-25T07:22:13.482Z</time>
      </trkpt>
      <trkpt lat="38.34061" lon="37.80885">
        <ele>1721.826657</ele>
        <time>2022-02-25T07:23:05.192Z</time>
      </trkpt>
      <trkpt lat="38.34022" lon="37.80836">
        <ele>1725.587764</ele>
        <time>2022-02-25T07:23:38.028Z</time>
      </trkpt>
      <trkpt lat="38.34006" lon="37.80807">
        <ele>1727.498016</ele>
        <time>2022-02-25T07:23:54.861Z</time>
      </trkpt>
      <trkpt lat="38.33961" lon="37.80689">
        <ele>1734.689377</ele>
        <time>2022-02-25T07:24:57.845Z</time>
      </trkpt>
      <trkpt lat="38.33921" lon="37.80616">
        <ele>1739.601159</ele>
        <time>2022-02-25T07:25:40.806Z</time>
      </trkpt>
      <trkpt lat="38.33909" lon="37.80603">
        <ele>1740.708545</ele>
        <time>2022-02-25T07:25:50.026Z</time>
      </trkpt>
      <trkpt lat="38.33838" lon="37.80579">
        <ele>1745.945358</ele>
        <time>2022-02-25T07:26:32.207Z</time>
      </trkpt>
      <trkpt lat="38.33803" lon="37.80561">
        <ele>1748.649198</ele>
        <time>2022-02-25T07:26:55.497Z</time>
      </trkpt>
      <trkpt lat="38.33787" lon="37.80546">
        <ele>1750.080319</ele>
        <time>2022-02-25T07:27:08.428Z</time>
      </trkpt>
      <trkpt lat="38.33748" lon="37.80491">
        <ele>1754.241365</ele>
        <time>2022-02-25T07:27:43.167Z</time>
      </trkpt>
      <trkpt lat="38.33733" lon="37.80453">
        <ele>1756.833012</ele>
        <time>2022-02-25T07:28:04.941Z</time>
      </trkpt>
      <trkpt lat="38.33725" lon="37.80412">
        <ele>1759.492589</ele>
        <time>2022-02-25T07:28:27.493Z</time>
      </trkpt>
      <trkpt lat="38.33721" lon="37.80359">
        <ele>1762.84431</ele>
        <time>2022-02-25T07:28:55.601Z</time>
      </trkpt>
      <trkpt lat="38.33734" lon="37.80295">
        <ele>1767.00596</ele>
        <time>2022-02-25T07:29:29.240Z</time>
      </trkpt>
      <trkpt lat="38.33747" lon="37.80264">
        <ele>1769.252349</ele>
        <time>2022-02-25T07:29:48.319Z</time>
      </trkpt>
      <trkpt lat="38.33787" lon="37.8017">
        <ele>1775.128661</ele>
        <time>2022-02-25T07:30:39.690Z</time>
      </trkpt>
      <trkpt lat="38.33794" lon="37.80139">
        <ele>1776.904756</ele>
        <time>2022-02-25T07:30:55.284Z</time>
      </trkpt>
      <trkpt lat="38.33796" lon="37.80103">
        <ele>1778.891782</ele>
        <time>2022-02-25T07:31:12.168Z</time>
      </trkpt>
      <trkpt lat="38.33788" lon="37.79893">
        <ele>1789.751094</ele>
        <time>2022-02-25T07:32:45.047Z</time>
      </trkpt>
      <trkpt lat="38.33792" lon="37.79843">
        <ele>1792.28361</ele>
        <time>2022-02-25T07:33:08.671Z</time>
      </trkpt>
      <trkpt lat="38.33802" lon="37.79796">
        <ele>1794.628013</ele>
        <time>2022-02-25T07:33:31.592Z</time>
      </trkpt>
      <trkpt lat="38.33821" lon="37.79752">
        <ele>1796.920819</ele>
        <time>2022-02-25T07:33:54.537Z</time>
      </trkpt>
      <trkpt lat="38.33878" lon="37.79648">
        <ele>1802.712421</ele>
        <time>2022-02-25T07:34:48.935Z</time>
      </trkpt>
      <trkpt lat="38.33936" lon="37.79306">
        <ele>1816.617983</ele>
        <time>2022-02-25T07:37:00.085Z</time>
      </trkpt>
      <trkpt lat="38.33982" lon="37.79034">
        <ele>1831.821675</ele>
        <time>2022-02-25T07:39:16.178Z</time>
      </trkpt>
      <trkpt lat="38.33983" lon="37.78994">
        <ele>1834.243954</ele>
        <time>2022-02-25T07:39:36.887Z</time>
      </trkpt>
      <trkpt lat="38.33974" lon="37.78915">
        <ele>1839.23688</ele>
        <time>2022-02-25T07:40:17.998Z</time>
      </trkpt>
      <trkpt lat="38.33924" lon="37.78721">
        <ele>1852.638307</ele>
        <time>2022-02-25T07:42:05.303Z</time>
      </trkpt>
      <trkpt lat="38.33919" lon="37.7867">
        <ele>1855.819427</ele>
        <time>2022-02-25T07:42:33.394Z</time>
      </trkpt>
      <trkpt lat="38.33923" lon="37.78613">
        <ele>1859.361436</ele>
        <time>2022-02-25T07:43:03.501Z</time>
      </trkpt>
      <trkpt lat="38.33929" lon="37.78587">
        <ele>1861.03518</ele>
        <time>2022-02-25T07:43:17.984Z</time>
      </trkpt>
      <trkpt lat="38.33933" lon="37.78571">
        <ele>1862.0781</ele>
        <time>2022-02-25T07:43:25.935Z</time>
      </trkpt>
      <trkpt lat="38.33946" lon="37.78541">
        <ele>1864.175545</ele>
        <time>2022-02-25T07:43:42.868Z</time>
      </trkpt>
      <trkpt lat="38.33931" lon="37.78532">
        <ele>1865.446538</ele>
        <time>2022-02-25T07:43:53.128Z</time>
      </trkpt>
      <trkpt lat="38.33893" lon="37.78518">
        <ele>1867.77816</ele>
        <time>2022-02-25T07:44:17.559Z</time>
      </trkpt>
      <trkpt lat="38.33773" lon="37.78419">
        <ele>1874.745985</ele>
        <time>2022-02-25T07:45:29.693Z</time>
      </trkpt>
      <trkpt lat="38.33729" lon="37.78394">
        <ele>1875.930902</ele>
        <time>2022-02-25T07:45:48.928Z</time>
      </trkpt>
      <trkpt lat="38.33675" lon="37.7838">
        <ele>1876.944586</ele>
        <time>2022-02-25T07:46:09.213Z</time>
      </trkpt>
      <trkpt lat="38.33586" lon="37.78373">
        <ele>1878.547809</ele>
        <time>2022-02-25T07:46:39.276Z</time>
      </trkpt>
      <trkpt lat="38.33518" lon="37.78337">
        <ele>1878.265829</ele>
        <time>2022-02-25T07:47:00.501Z</time>
      </trkpt>
      <trkpt lat="38.33497" lon="37.78333">
        <ele>1878.183149</ele>
        <time>2022-02-25T07:47:06.133Z</time>
      </trkpt>
      <trkpt lat="38.33486" lon="37.78323">
        <ele>1878.127754</ele>
        <time>2022-02-25T07:47:09.859Z</time>
      </trkpt>
      <trkpt lat="38.33437" lon="37.78249">
        <ele>1877.614425</ele>
        <time>2022-02-25T07:47:28.127Z</time>
      </trkpt>
      <trkpt lat="38.33388" lon="37.78157">
        <ele>1874.686364</ele>
        <time>2022-02-25T07:47:46.856Z</time>
      </trkpt>
      <trkpt lat="38.33353" lon="37.78121">
        <ele>1873.185464</ele>
        <time>2022-02-25T07:47:55.700Z</time>
      </trkpt>
      <trkpt lat="38.33313" lon="37.78105">
        <ele>1871.715936</ele>
        <time>2022-02-25T07:48:03.715Z</time>
      </trkpt>
      <trkpt lat="38.33287" lon="37.78104">
        <ele>1869.98826</ele>
        <time>2022-02-25T07:48:08.464Z</time>
      </trkpt>
      <trkpt lat="38.33191" lon="37.78122">
        <ele>1863.370817</ele>
        <time>2022-02-25T07:48:26.162Z</time>
      </trkpt>
      <trkpt lat="38.33082" lon="37.78061">
        <ele>1854.310579</ele>
        <time>2022-02-25T07:48:47.010Z</time>
      </trkpt>
      <trkpt lat="38.3305" lon="37.78029">
        <ele>1850.871329</ele>
        <time>2022-02-25T07:48:54.159Z</time>
      </trkpt>
      <trkpt lat="38.33014" lon="37.77963">
        <ele>1845.605038</ele>
        <time>2022-02-25T07:49:05.107Z</time>
      </trkpt>
      <trkpt lat="38.32984" lon="37.77931">
        <ele>1842.466042</ele>
        <time>2022-02-25T07:49:12.006Z</time>
      </trkpt>
      <trkpt lat="38.32971" lon="37.77891">
        <ele>1839.842731</ele>
        <time>2022-02-25T07:49:17.920Z</time>
      </trkpt>
      <trkpt lat="38.32971" lon="37.77844">
        <ele>1836.985996</ele>
        <time>2022-02-25T07:49:24.390Z</time>
      </trkpt>
      <trkpt lat="38.3296" lon="37.77794">
        <ele>1833.825124</ele>
        <time>2022-02-25T07:49:31.619Z</time>
      </trkpt>
      <trkpt lat="38.32906" lon="37.77656">
        <ele>1825.620186</ele>
        <time>2022-02-25T07:49:53.648Z</time>
      </trkpt>
      <trkpt lat="38.32886" lon="37.77622">
        <ele>1823.543616</ele>
        <time>2022-02-25T07:49:59.790Z</time>
      </trkpt>
      <trkpt lat="38.32817" lon="37.77542">
        <ele>1818.006724</ele>
        <time>2022-02-25T07:50:17.113Z</time>
      </trkpt>
      <trkpt lat="38.32752" lon="37.77486">
        <ele>1813.870622</ele>
        <time>2022-02-25T07:50:32.069Z</time>
      </trkpt>
      <trkpt lat="38.32652" lon="37.77413">
        <ele>1807.249661</ele>
        <time>2022-02-25T07:50:53.747Z</time>
      </trkpt>
      <trkpt lat="38.32629" lon="37.77405">
        <ele>1805.646467</ele>
        <time>2022-02-25T07:50:58.163Z</time>
      </trkpt>
      <trkpt lat="38.32605" lon="37.77399">
        <ele>1804.026463</ele>
        <time>2022-02-25T07:51:02.912Z</time>
      </trkpt>
      <trkpt lat="38.32615" lon="37.77396">
        <ele>1803.364568</ele>
        <time>2022-02-25T07:51:04.603Z</time>
      </trkpt>
      <trkpt lat="38.32636" lon="37.77394">
        <ele>1801.951023</ele>
        <time>2022-02-25T07:51:08.308Z</time>
      </trkpt>
      <trkpt lat="38.32667" lon="37.77401">
        <ele>1799.817966</ele>
        <time>2022-02-25T07:51:13.679Z</time>
      </trkpt>
      <trkpt lat="38.32677" lon="37.77405">
        <ele>1799.131225</ele>
        <time>2022-02-25T07:51:15.302Z</time>
      </trkpt>
      <trkpt lat="38.32689" lon="37.7741">
        <ele>1798.253548</ele>
        <time>2022-02-25T07:51:17.435Z</time>
      </trkpt>
      <trkpt lat="38.32772" lon="37.77424">
        <ele>1788.379465</ele>
        <time>2022-02-25T07:51:31.080Z</time>
      </trkpt>
      <trkpt lat="38.32774" lon="37.77425">
        <ele>1788.119343</ele>
        <time>2022-02-25T07:51:31.409Z</time>
      </trkpt>
      <trkpt lat="38.32789" lon="37.77424">
        <ele>1786.300553</ele>
        <time>2022-02-25T07:51:33.719Z</time>
      </trkpt>
      <trkpt lat="38.32855" lon="37.77421">
        <ele>1778.102891</ele>
        <time>2022-02-25T07:51:44.280Z</time>
      </trkpt>
      <trkpt lat="38.32896" lon="37.77401">
        <ele>1772.066678</ele>
        <time>2022-02-25T07:51:51.040Z</time>
      </trkpt>
      <trkpt lat="38.32962" lon="37.77354">
        <ele>1760.481607</ele>
        <time>2022-02-25T07:52:02.917Z</time>
      </trkpt>
      <trkpt lat="38.33037" lon="37.77313">
        <ele>1748.121468</ele>
        <time>2022-02-25T07:52:15.517Z</time>
      </trkpt>
      <trkpt lat="38.33083" lon="37.77245">
        <ele>1738.237626</ele>
        <time>2022-02-25T07:52:26.475Z</time>
      </trkpt>
      <trkpt lat="38.33083" lon="37.7724">
        <ele>1737.736922</ele>
        <time>2022-02-25T07:52:27.024Z</time>
      </trkpt>
      <trkpt lat="38.33083" lon="37.7723">
        <ele>1736.572465</ele>
        <time>2022-02-25T07:52:28.348Z</time>
      </trkpt>
      <trkpt lat="38.33083" lon="37.77212">
        <ele>1734.564511</ele>
        <time>2022-02-25T07:52:30.629Z</time>
      </trkpt>
      <trkpt lat="38.33084" lon="37.77199">
        <ele>1733.096749</ele>
        <time>2022-02-25T07:52:32.251Z</time>
      </trkpt>
      <trkpt lat="38.33095" lon="37.77174">
        <ele>1729.878624</ele>
        <time>2022-02-25T07:52:35.846Z</time>
      </trkpt>
      <trkpt lat="38.33147" lon="37.77129">
        <ele>1721.157762</ele>
        <time>2022-02-25T07:52:45.680Z</time>
      </trkpt>
      <trkpt lat="38.3325" lon="37.77067">
        <ele>1706.048827</ele>
        <time>2022-02-25T07:53:03.600Z</time>
      </trkpt>
      <trkpt lat="38.333" lon="37.77014">
        <ele>1697.453313</ele>
        <time>2022-02-25T07:53:13.895Z</time>
      </trkpt>
      <trkpt lat="38.33327" lon="37.77002">
        <ele>1693.776576</ele>
        <time>2022-02-25T07:53:18.422Z</time>
      </trkpt>
      <trkpt lat="38.33336" lon="37.77002">
        <ele>1692.570424</ele>
        <time>2022-02-25T07:53:19.850Z</time>
      </trkpt>
      <trkpt lat="38.33343" lon="37.77002">
        <ele>1691.714326</ele>
        <time>2022-02-25T07:53:20.859Z</time>
      </trkpt>
      <trkpt lat="38.33352" lon="37.77001">
        <ele>1690.466081</ele>
        <time>2022-02-25T07:53:22.436Z</time>
      </trkpt>
      <trkpt lat="38.33367" lon="37.76989">
        <ele>1688.185182</ele>
        <time>2022-02-25T07:53:25.215Z</time>
      </trkpt>
      <trkpt lat="38.33426" lon="37.7692">
        <ele>1677.839142</ele>
        <time>2022-02-25T07:53:37.779Z</time>
      </trkpt>
      <trkpt lat="38.33475" lon="37.76848">
        <ele>1669.527741</ele>
        <time>2022-02-25T07:53:49.705Z</time>
      </trkpt>
      <trkpt lat="38.33483" lon="37.76823">
        <ele>1667.242383</ele>
        <time>2022-02-25T07:53:53.194Z</time>
      </trkpt>
      <trkpt lat="38.335" lon="37.76716">
        <ele>1658.103462</ele>
        <time>2022-02-25T07:54:07.164Z</time>
      </trkpt>
      <trkpt lat="38.33553" lon="37.7664">
        <ele>1651.253685</ele>
        <time>2022-02-25T07:54:20.330Z</time>
      </trkpt>
      <trkpt lat="38.3359" lon="37.76601">
        <ele>1647.403213</ele>
        <time>2022-02-25T07:54:28.377Z</time>
      </trkpt>
      <trkpt lat="38.33605" lon="37.76583">
        <ele>1645.728996</ele>
        <time>2022-02-25T07:54:31.919Z</time>
      </trkpt>
      <trkpt lat="38.33611" lon="37.76575">
        <ele>1645.05548</ele>
        <time>2022-02-25T07:54:33.311Z</time>
      </trkpt>
      <trkpt lat="38.33634" lon="37.76556">
        <ele>1642.840032</ele>
        <time>2022-02-25T07:54:38.090Z</time>
      </trkpt>
      <trkpt lat="38.33645" lon="37.76538">
        <ele>1641.537163</ele>
        <time>2022-02-25T07:54:41.208Z</time>
      </trkpt>
      <trkpt lat="38.33687" lon="37.76443">
        <ele>1636.224563</ele>
        <time>2022-02-25T07:54:56.169Z</time>
      </trkpt>
      <trkpt lat="38.33715" lon="37.76364">
        <ele>1631.981663</ele>
        <time>2022-02-25T07:55:08.291Z</time>
      </trkpt>
      <trkpt lat="38.33742" lon="37.76252">
        <ele>1626.004519</ele>
        <time>2022-02-25T07:55:24.273Z</time>
      </trkpt>
      <trkpt lat="38.33756" lon="37.7612">
        <ele>1619.117063</ele>
        <time>2022-02-25T07:55:42.250Z</time>
      </trkpt>
      <trkpt lat="38.33771" lon="37.76019">
        <ele>1614.326164</ele>
        <time>2022-02-25T07:55:56.164Z</time>
      </trkpt>
      <trkpt lat="38.3378" lon="37.75992">
        <ele>1612.941681</ele>
        <time>2022-02-25T07:56:00.234Z</time>
      </trkpt>
      <trkpt lat="38.33812" lon="37.75923">
        <ele>1609.229199</ele>
        <time>2022-02-25T07:56:11.484Z</time>
      </trkpt>
      <trkpt lat="38.33829" lon="37.75879">
        <ele>1607.455183</ele>
        <time>2022-02-25T07:56:18.547Z</time>
      </trkpt>
      <trkpt lat="38.33832" lon="37.75871">
        <ele>1607.183792</ele>
        <time>2022-02-25T07:56:19.871Z</time>
      </trkpt>
      <trkpt lat="38.33811" lon="37.75803">
        <ele>1605.029322</ele>
        <time>2022-02-25T07:56:30.781Z</time>
      </trkpt>
      <trkpt lat="38.33766" lon="37.7573">
        <ele>1602.288622</ele>
        <time>2022-02-25T07:56:44.821Z</time>
      </trkpt>
      <trkpt lat="38.33761" lon="37.75716">
        <ele>1601.828306</ele>
        <time>2022-02-25T07:56:47.174Z</time>
      </trkpt>
      <trkpt lat="38.33767" lon="37.75644">
        <ele>1599.716166</ele>
        <time>2022-02-25T07:56:58.525Z</time>
      </trkpt>
      <trkpt lat="38.33768" lon="37.75483">
        <ele>1595.041496</ele>
        <time>2022-02-25T07:57:22.295Z</time>
      </trkpt>
      <trkpt lat="38.33782" lon="37.75421">
        <ele>1593.421667</ele>
        <time>2022-02-25T07:57:31.634Z</time>
      </trkpt>
      <trkpt lat="38.33798" lon="37.75382">
        <ele>1592.315422</ele>
        <time>2022-02-25T07:57:38.367Z</time>
      </trkpt>
      <trkpt lat="38.33805" lon="37.75353">
        <ele>1591.579895</ele>
        <time>2022-02-25T07:57:42.945Z</time>
      </trkpt>
      <trkpt lat="38.338" lon="37.75351">
        <ele>1591.394415</ele>
        <time>2022-02-25T07:57:44.051Z</time>
      </trkpt>
      <trkpt lat="38.3376" lon="37.75302">
        <ele>1589.650655</ele>
        <time>2022-02-25T07:57:55.376Z</time>
      </trkpt>
      <trkpt lat="38.33738" lon="37.75271">
        <ele>1588.874696</ele>
        <time>2022-02-25T07:58:02.130Z</time>
      </trkpt>
      <trkpt lat="38.33743" lon="37.75225">
        <ele>1588.22592</ele>
        <time>2022-02-25T07:58:09.926Z</time>
      </trkpt>
      <trkpt lat="38.33756" lon="37.75163">
        <ele>1587.3372</ele>
        <time>2022-02-25T07:58:21.418Z</time>
      </trkpt>
      <trkpt lat="38.33774" lon="37.75126">
        <ele>1586.732936</ele>
        <time>2022-02-25T07:58:29.660Z</time>
      </trkpt>
      <trkpt lat="38.33839" lon="37.75019">
        <ele>1583.176065</ele>
        <time>2022-02-25T07:58:51.269Z</time>
      </trkpt>
      <trkpt lat="38.33854" lon="37.74976">
        <ele>1581.607533</ele>
        <time>2022-02-25T07:58:58.081Z</time>
      </trkpt>
      <trkpt lat="38.3386" lon="37.74954">
        <ele>1580.797528</ele>
        <time>2022-02-25T07:59:01.428Z</time>
      </trkpt>
      <trkpt lat="38.33867" lon="37.74932">
        <ele>1579.998539</ele>
        <time>2022-02-25T07:59:04.784Z</time>
      </trkpt>
      <trkpt lat="38.33873" lon="37.74888">
        <ele>1578.505568</ele>
        <time>2022-02-25T07:59:10.832Z</time>
      </trkpt>
      <trkpt lat="38.33874" lon="37.74861">
        <ele>1577.160465</ele>
        <time>2022-02-25T07:59:14.511Z</time>
      </trkpt>
      <trkpt lat="38.33875" lon="37.74847">
        <ele>1576.402037</ele>
        <time>2022-02-25T07:59:16.483Z</time>
      </trkpt>
      <trkpt lat="38.33875" lon="37.74807">
        <ele>1574.209676</ele>
        <time>2022-02-25T07:59:21.892Z</time>
      </trkpt>
      <trkpt lat="38.33873" lon="37.74794">
        <ele>1573.460279</ele>
        <time>2022-02-25T07:59:23.729Z</time>
      </trkpt>
      <trkpt lat="38.33877" lon="37.74796">
        <ele>1573.172637</ele>
        <time>2022-02-25T07:59:24.414Z</time>
      </trkpt>
      <trkpt lat="38.3391" lon="37.7481">
        <ele>1570.758729</ele>
        <time>2022-02-25T07:59:30.623Z</time>
      </trkpt>
      <trkpt lat="38.33919" lon="37.7481">
        <ele>1570.094891</ele>
        <time>2022-02-25T07:59:32.315Z</time>
      </trkpt>
      <trkpt lat="38.33919" lon="37.74809">
        <ele>1570.02143</ele>
        <time>2022-02-25T07:59:32.488Z</time>
      </trkpt>
      <trkpt lat="38.33912" lon="37.74734">
        <ele>1565.903544</ele>
        <time>2022-02-25T07:59:42.674Z</time>
      </trkpt>
      <trkpt lat="38.33904" lon="37.74717">
        <ele>1564.788111</ele>
        <time>2022-02-25T07:59:45.287Z</time>
      </trkpt>
      <trkpt lat="38.33902" lon="37.74712">
        <ele>1564.447111</ele>
        <time>2022-02-25T07:59:46.161Z</time>
      </trkpt>
      <trkpt lat="38.33903" lon="37.74698">
        <ele>1563.615183</ele>
        <time>2022-02-25T07:59:48.184Z</time>
      </trkpt>
      <trkpt lat="38.339" lon="37.7466">
        <ele>1561.447472</ele>
        <time>2022-02-25T07:59:53.297Z</time>
      </trkpt>
      <trkpt lat="38.3391" lon="37.74611">
        <ele>1558.527061</ele>
        <time>2022-02-25T08:00:00.354Z</time>
      </trkpt>
      <trkpt lat="38.3391" lon="37.74587">
        <ele>1557.129845</ele>
        <time>2022-02-25T08:00:03.855Z</time>
      </trkpt>
      <trkpt lat="38.33947" lon="37.74578">
        <ele>1554.406466</ele>
        <time>2022-02-25T08:00:10.457Z</time>
      </trkpt>
      <trkpt lat="38.33954" lon="37.74557">
        <ele>1553.100138</ele>
        <time>2022-02-25T08:00:13.589Z</time>
      </trkpt>
      <trkpt lat="38.33965" lon="37.74552">
        <ele>1552.236071</ele>
        <time>2022-02-25T08:00:15.931Z</time>
      </trkpt>
      <trkpt lat="38.33971" lon="37.74552">
        <ele>1551.890381</ele>
        <time>2022-02-25T08:00:16.829Z</time>
      </trkpt>
      <trkpt lat="38.33973" lon="37.74537">
        <ele>1551.12965</ele>
        <time>2022-02-25T08:00:18.977Z</time>
      </trkpt>
      <trkpt lat="38.34025" lon="37.74457">
        <ele>1546.031859</ele>
        <time>2022-02-25T08:00:33.738Z</time>
      </trkpt>
      <trkpt lat="38.34039" lon="37.74443">
        <ele>1544.888498</ele>
        <time>2022-02-25T08:00:36.971Z</time>
      </trkpt>
      <trkpt lat="38.3404" lon="37.74435">
        <ele>1544.502699</ele>
        <time>2022-02-25T08:00:38.018Z</time>
      </trkpt>
      <trkpt lat="38.34056" lon="37.74397">
        <ele>1542.373936</ele>
        <time>2022-02-25T08:00:43.990Z</time>
      </trkpt>
      <trkpt lat="38.34063" lon="37.74382">
        <ele>1541.527158</ele>
        <time>2022-02-25T08:00:46.562Z</time>
      </trkpt>
      <trkpt lat="38.34075" lon="37.74358">
        <ele>1540.678285</ele>
        <time>2022-02-25T08:00:50.694Z</time>
      </trkpt>
      <trkpt lat="38.34111" lon="37.74295">
        <ele>1538.860586</ele>
        <time>2022-02-25T08:01:02.659Z</time>
      </trkpt>
      <trkpt lat="38.34135" lon="37.7428">
        <ele>1538.067519</ele>
        <time>2022-02-25T08:01:07.998Z</time>
      </trkpt>
      <trkpt lat="38.34156" lon="37.74276">
        <ele>1537.450898</ele>
        <time>2022-02-25T08:01:12.345Z</time>
      </trkpt>
      <trkpt lat="38.34188" lon="37.74289">
        <ele>1536.446111</ele>
        <time>2022-02-25T08:01:19.428Z</time>
      </trkpt>
      <trkpt lat="38.34253" lon="37.74335">
        <ele>1535.334654</ele>
        <time>2022-02-25T08:01:35.888Z</time>
      </trkpt>
      <trkpt lat="38.34298" lon="37.74327">
        <ele>1534.890424</ele>
        <time>2022-02-25T08:01:46.074Z</time>
      </trkpt>
      <trkpt lat="38.34345" lon="37.74272">
        <ele>1534.27497</ele>
        <time>2022-02-25T08:02:01.230Z</time>
      </trkpt>
      <trkpt lat="38.34401" lon="37.74193">
        <ele>1534.918352</ele>
        <time>2022-02-25T08:02:24.736Z</time>
      </trkpt>
      <trkpt lat="38.34456" lon="37.74139">
        <ele>1535.750523</ele>
        <time>2022-02-25T08:02:47.651Z</time>
      </trkpt>
      <trkpt lat="38.34473" lon="37.7413">
        <ele>1535.981961</ele>
        <time>2022-02-25T08:02:54.649Z</time>
      </trkpt>
      <trkpt lat="38.345" lon="37.74125">
        <ele>1536.342886</ele>
        <time>2022-02-25T08:03:04.798Z</time>
      </trkpt>
      <trkpt lat="38.34533" lon="37.74144">
        <ele>1537.439861</ele>
        <time>2022-02-25T08:03:19.416Z</time>
      </trkpt>
      <trkpt lat="38.34567" lon="37.74177">
        <ele>1538.729775</ele>
        <time>2022-02-25T08:03:37.743Z</time>
      </trkpt>
      <trkpt lat="38.34593" lon="37.7418">
        <ele>1539.537778</ele>
        <time>2022-02-25T08:03:49.336Z</time>
      </trkpt>
      <trkpt lat="38.34623" lon="37.74167">
        <ele>1540.496575</ele>
        <time>2022-02-25T08:04:02.965Z</time>
      </trkpt>
      <trkpt lat="38.34718" lon="37.74106">
        <ele>1542.734426</ele>
        <time>2022-02-25T08:04:46.460Z</time>
      </trkpt>
      <trkpt lat="38.34757" lon="37.74098">
        <ele>1543.341093</ele>
        <time>2022-02-25T08:05:00.619Z</time>
      </trkpt>
      <trkpt lat="38.34805" lon="37.7412">
        <ele>1544.113592</ele>
        <time>2022-02-25T08:05:16.263Z</time>
      </trkpt>
      <trkpt lat="38.3481" lon="37.74124">
        <ele>1544.188798</ele>
        <time>2022-02-25T08:05:18.207Z</time>
      </trkpt>
      <trkpt lat="38.34805" lon="37.7412">
        <ele>1544.264005</ele>
        <time>2022-02-25T08:05:19.227Z</time>
      </trkpt>
      <trkpt lat="38.34757" lon="37.74098">
        <ele>1543.664422</ele>
        <time>2022-02-25T08:05:31.310Z</time>
      </trkpt>
      <trkpt lat="38.34718" lon="37.74106">
        <ele>1542.803091</ele>
        <time>2022-02-25T08:05:39.920Z</time>
      </trkpt>
      <trkpt lat="38.34623" lon="37.74167">
        <ele>1540.490185</ele>
        <time>2022-02-25T08:06:00.991Z</time>
      </trkpt>
      <trkpt lat="38.34593" lon="37.7418">
        <ele>1539.583918</ele>
        <time>2022-02-25T08:06:07.081Z</time>
      </trkpt>
      <trkpt lat="38.34567" lon="37.74177">
        <ele>1538.820184</ele>
        <time>2022-02-25T08:06:12.223Z</time>
      </trkpt>
      <trkpt lat="38.34533" lon="37.74144">
        <ele>1537.600941</ele>
        <time>2022-02-25T08:06:20.420Z</time>
      </trkpt>
      <trkpt lat="38.345" lon="37.74125">
        <ele>1536.564067</ele>
        <time>2022-02-25T08:06:27.615Z</time>
      </trkpt>
      <trkpt lat="38.34473" lon="37.7413">
        <ele>1535.787447</ele>
        <time>2022-02-25T08:06:33.216Z</time>
      </trkpt>
      <trkpt lat="38.34456" lon="37.74139">
        <ele>1535.39574</ele>
        <time>2022-02-25T08:06:37.220Z</time>
      </trkpt>
      <trkpt lat="38.34401" lon="37.74193">
        <ele>1534.930805</ele>
        <time>2022-02-25T08:06:52.581Z</time>
      </trkpt>
      <trkpt lat="38.34345" lon="37.74272">
        <ele>1534.36717</ele>
        <time>2022-02-25T08:07:13.706Z</time>
      </trkpt>
      <trkpt lat="38.34298" lon="37.74327">
        <ele>1534.791587</ele>
        <time>2022-02-25T08:07:33.016Z</time>
      </trkpt>
      <trkpt lat="38.34253" lon="37.74335">
        <ele>1535.387942</ele>
        <time>2022-02-25T08:07:48.304Z</time>
      </trkpt>
      <trkpt lat="38.34188" lon="37.74289">
        <ele>1536.346296</ele>
        <time>2022-02-25T08:08:12.853Z</time>
      </trkpt>
      <trkpt lat="38.34156" lon="37.74276">
        <ele>1537.184141</ele>
        <time>2022-02-25T08:08:25.613Z</time>
      </trkpt>
      <trkpt lat="38.34135" lon="37.7428">
        <ele>1537.938556</ele>
        <time>2022-02-25T08:08:33.408Z</time>
      </trkpt>
      <trkpt lat="38.34111" lon="37.74295">
        <ele>1538.908847</ele>
        <time>2022-02-25T08:08:44.503Z</time>
      </trkpt>
      <trkpt lat="38.34075" lon="37.74358">
        <ele>1541.132741</ele>
        <time>2022-02-25T08:09:10.950Z</time>
      </trkpt>
      <trkpt lat="38.34063" lon="37.74382">
        <ele>1541.924744</ele>
        <time>2022-02-25T08:09:21.155Z</time>
      </trkpt>
      <trkpt lat="38.34056" lon="37.74397">
        <ele>1542.409977</ele>
        <time>2022-02-25T08:09:27.047Z</time>
      </trkpt>
      <trkpt lat="38.3404" lon="37.74435">
        <ele>1544.147781</ele>
        <time>2022-02-25T08:09:45.786Z</time>
      </trkpt>
      <trkpt lat="38.34039" lon="37.74443">
        <ele>1544.564593</ele>
        <time>2022-02-25T08:09:49.488Z</time>
      </trkpt>
      <trkpt lat="38.34025" lon="37.74457">
        <ele>1545.799862</ele>
        <time>2022-02-25T08:10:01.450Z</time>
      </trkpt>
      <trkpt lat="38.33973" lon="37.74537">
        <ele>1551.307435</ele>
        <time>2022-02-25T08:10:49.541Z</time>
      </trkpt>
      <trkpt lat="38.33971" lon="37.74552">
        <ele>1552.129317</ele>
        <time>2022-02-25T08:10:57.162Z</time>
      </trkpt>
      <trkpt lat="38.33965" lon="37.74552">
        <ele>1552.502795</ele>
        <time>2022-02-25T08:11:02.323Z</time>
      </trkpt>
      <trkpt lat="38.33954" lon="37.74557">
        <ele>1553.334119</ele>
        <time>2022-02-25T08:11:08.723Z</time>
      </trkpt>
      <trkpt lat="38.33947" lon="37.74578">
        <ele>1554.539502</ele>
        <time>2022-02-25T08:11:20.642Z</time>
      </trkpt>
      <trkpt lat="38.3391" lon="37.74587">
        <ele>1556.507049</ele>
        <time>2022-02-25T08:11:45.237Z</time>
      </trkpt>
      <trkpt lat="38.3391" lon="37.74611">
        <ele>1557.404606</ele>
        <time>2022-02-25T08:11:57.210Z</time>
      </trkpt>
      <trkpt lat="38.339" lon="37.7466">
        <ele>1559.280648</ele>
        <time>2022-02-25T08:12:21.665Z</time>
      </trkpt>
      <trkpt lat="38.33903" lon="37.74698">
        <ele>1560.673164</ele>
        <time>2022-02-25T08:12:37.961Z</time>
      </trkpt>
      <trkpt lat="38.33902" lon="37.74712">
        <ele>1561.207585</ele>
        <time>2022-02-25T08:12:43.582Z</time>
      </trkpt>
      <trkpt lat="38.33891" lon="37.74687">
        <ele>1562.259295</ele>
        <time>2022-02-25T08:12:50.853Z</time>
      </trkpt>
      <trkpt lat="38.33876" lon="37.7465">
        <ele>1563.697302</ele>
        <time>2022-02-25T08:13:01.249Z</time>
      </trkpt>
      <trkpt lat="38.33856" lon="37.74624">
        <ele>1562.625362</ele>
        <time>2022-02-25T08:13:08.948Z</time>
      </trkpt>
      <trkpt lat="38.33848" lon="37.74577">
        <ele>1561.2099</ele>
        <time>2022-02-25T08:13:16.931Z</time>
      </trkpt>
      <trkpt lat="38.33824" lon="37.74405">
        <ele>1555.888919</ele>
        <time>2022-02-25T08:13:41.166Z</time>
      </trkpt>
      <trkpt lat="38.33825" lon="37.7434">
        <ele>1553.674835</ele>
        <time>2022-02-25T08:13:49.860Z</time>
      </trkpt>
      <trkpt lat="38.33844" lon="37.74271">
        <ele>1551.115971</ele>
        <time>2022-02-25T08:14:00.480Z</time>
      </trkpt>
      <trkpt lat="38.33877" lon="37.74225">
        <ele>1549.149608</ele>
        <time>2022-02-25T08:14:10.320Z</time>
      </trkpt>
      <trkpt lat="38.33925" lon="37.74184">
        <ele>1551.437859</ele>
        <time>2022-02-25T08:14:24.928Z</time>
      </trkpt>
      <trkpt lat="38.34105" lon="37.74086">
        <ele>1563.253268</ele>
        <time>2022-02-25T08:16:20.822Z</time>
      </trkpt>
      <trkpt lat="38.34119" lon="37.74076">
        <ele>1564.690511</ele>
        <time>2022-02-25T08:16:33.540Z</time>
      </trkpt>
      <trkpt lat="38.34141" lon="37.74054">
        <ele>1567.246477</ele>
        <time>2022-02-25T08:16:55.465Z</time>
      </trkpt>
      <trkpt lat="38.3417" lon="37.7401">
        <ele>1571.439537</ele>
        <time>2022-02-25T08:17:32.084Z</time>
      </trkpt>
      <trkpt lat="38.34222" lon="37.73876">
        <ele>1582.369765</ele>
        <time>2022-02-25T08:19:05.592Z</time>
      </trkpt>
      <trkpt lat="38.34237" lon="37.73849">
        <ele>1584.828597</ele>
        <time>2022-02-25T08:19:22.820Z</time>
      </trkpt>
      <trkpt lat="38.34265" lon="37.73815">
        <ele>1588.454075</ele>
        <time>2022-02-25T08:19:47.507Z</time>
      </trkpt>
      <trkpt lat="38.34676" lon="37.7346">
        <ele>1618.419778</ele>
        <time>2022-02-25T08:24:22.221Z</time>
      </trkpt>
      <trkpt lat="38.34813" lon="37.73325">
        <ele>1627.399634</ele>
        <time>2022-02-25T08:25:50.295Z</time>
      </trkpt>
      <trkpt lat="38.34899" lon="37.7325">
        <ele>1632.440478</ele>
        <time>2022-02-25T08:26:42.392Z</time>
      </trkpt>
      <trkpt lat="38.34949" lon="37.73204">
        <ele>1635.295555</ele>
        <time>2022-02-25T08:27:11.532Z</time>
      </trkpt>
      <trkpt lat="38.34971" lon="37.73211">
        <ele>1636.330384</ele>
        <time>2022-02-25T08:27:22.284Z</time>
      </trkpt>
      <trkpt lat="38.35098" lon="37.7319">
        <ele>1642.221944</ele>
        <time>2022-02-25T08:28:26.057Z</time>
      </trkpt>
      <trkpt lat="38.3514" lon="37.73169">
        <ele>1644.289724</ele>
        <time>2022-02-25T08:28:47.540Z</time>
      </trkpt>
      <trkpt lat="38.35188" lon="37.7312">
        <ele>1647.108744</ele>
        <time>2022-02-25T08:29:17.152Z</time>
      </trkpt>
      <trkpt lat="38.35213" lon="37.73066">
        <ele>1648.83642</ele>
        <time>2022-02-25T08:29:41.746Z</time>
      </trkpt>
      <trkpt lat="38.35232" lon="37.72895">
        <ele>1653.556548</ele>
        <time>2022-02-25T08:30:39.216Z</time>
      </trkpt>
      <trkpt lat="38.35219" lon="37.72862">
        <ele>1654.064366</ele>
        <time>2022-02-25T08:30:50.257Z</time>
      </trkpt>
      <trkpt lat="38.35248" lon="37.72813">
        <ele>1654.893171</ele>
        <time>2022-02-25T08:31:05.905Z</time>
      </trkpt>
      <trkpt lat="38.35467" lon="37.72499">
        <ele>1660.932803</ele>
        <time>2022-02-25T08:32:56.378Z</time>
      </trkpt>
      <trkpt lat="38.35495" lon="37.72448">
        <ele>1662.491198</ele>
        <time>2022-02-25T08:33:18.526Z</time>
      </trkpt>
      <trkpt lat="38.35513" lon="37.72404">
        <ele>1663.742671</ele>
        <time>2022-02-25T08:33:36.719Z</time>
      </trkpt>
      <trkpt lat="38.35524" lon="37.72349">
        <ele>1665.155004</ele>
        <time>2022-02-25T08:33:57.751Z</time>
      </trkpt>
      <trkpt lat="38.3553" lon="37.72258">
        <ele>1666.956156</ele>
        <time>2022-02-25T08:34:30.346Z</time>
      </trkpt>
      <trkpt lat="38.35493" lon="37.71877">
        <ele>1671.951367</ele>
        <time>2022-02-25T08:36:11.216Z</time>
      </trkpt>
      <trkpt lat="38.35478" lon="37.71676">
        <ele>1672.190843</ele>
        <time>2022-02-25T08:36:52.444Z</time>
      </trkpt>
      <trkpt lat="38.35477" lon="37.71639">
        <ele>1672.52587</ele>
        <time>2022-02-25T08:36:59.947Z</time>
      </trkpt>
      <trkpt lat="38.35483" lon="37.71594">
        <ele>1672.998651</ele>
        <time>2022-02-25T08:37:09.486Z</time>
      </trkpt>
      <trkpt lat="38.35504" lon="37.71543">
        <ele>1673.590453</ele>
        <time>2022-02-25T08:37:23.033Z</time>
      </trkpt>
      <trkpt lat="38.35521" lon="37.71518">
        <ele>1673.941021</ele>
        <time>2022-02-25T08:37:32.246Z</time>
      </trkpt>
      <trkpt lat="38.35593" lon="37.71464">
        <ele>1676.361309</ele>
        <time>2022-02-25T08:38:06.014Z</time>
      </trkpt>
      <trkpt lat="38.35686" lon="37.71409">
        <ele>1681.567576</ele>
        <time>2022-02-25T08:39:02.038Z</time>
      </trkpt>
      <trkpt lat="38.35709" lon="37.71389">
        <ele>1682.966358</ele>
        <time>2022-02-25T08:39:17.873Z</time>
      </trkpt>
      <trkpt lat="38.35731" lon="37.7136">
        <ele>1684.183862</ele>
        <time>2022-02-25T08:39:35.489Z</time>
      </trkpt>
      <trkpt lat="38.35753" lon="37.71321">
        <ele>1685.28641</ele>
        <time>2022-02-25T08:39:55.399Z</time>
      </trkpt>
      <trkpt lat="38.35765" lon="37.7129">
        <ele>1686.048778</ele>
        <time>2022-02-25T08:40:07.987Z</time>
      </trkpt>
      <trkpt lat="38.35774" lon="37.71256">
        <ele>1686.866758</ele>
        <time>2022-02-25T08:40:20.274Z</time>
      </trkpt>
      <trkpt lat="38.35781" lon="37.71203">
        <ele>1688.091189</ele>
        <time>2022-02-25T08:40:36.719Z</time>
      </trkpt>
      <trkpt lat="38.35785" lon="37.70938">
        <ele>1684.191277</ele>
        <time>2022-02-25T08:41:19.169Z</time>
      </trkpt>
      <trkpt lat="38.35785" lon="37.70931">
        <ele>1683.93857</ele>
        <time>2022-02-25T08:41:19.968Z</time>
      </trkpt>
      <trkpt lat="38.35786" lon="37.7083">
        <ele>1679.867469</ele>
        <time>2022-02-25T08:41:34.414Z</time>
      </trkpt>
      <trkpt lat="38.35805" lon="37.70698">
        <ele>1674.430134</ele>
        <time>2022-02-25T08:41:53.084Z</time>
      </trkpt>
      <trkpt lat="38.35954" lon="37.70127">
        <ele>1648.057404</ele>
        <time>2022-02-25T08:43:17.120Z</time>
      </trkpt>
      <trkpt lat="38.35967" lon="37.70032">
        <ele>1643.593158</ele>
        <time>2022-02-25T08:43:30.620Z</time>
      </trkpt>
      <trkpt lat="38.35955" lon="37.69948">
        <ele>1638.865394</ele>
        <time>2022-02-25T08:43:42.249Z</time>
      </trkpt>
      <trkpt lat="38.35939" lon="37.69906">
        <ele>1636.230254</ele>
        <time>2022-02-25T08:43:48.606Z</time>
      </trkpt>
      <trkpt lat="38.35918" lon="37.69868">
        <ele>1633.646358</ele>
        <time>2022-02-25T08:43:54.725Z</time>
      </trkpt>
      <trkpt lat="38.35885" lon="37.6983">
        <ele>1629.881156</ele>
        <time>2022-02-25T08:44:02.094Z</time>
      </trkpt>
      <trkpt lat="38.35853" lon="37.69802">
        <ele>1626.134528</ele>
        <time>2022-02-25T08:44:08.442Z</time>
      </trkpt>
      <trkpt lat="38.3563" lon="37.69637">
        <ele>1601.389793</ele>
        <time>2022-02-25T08:44:50.486Z</time>
      </trkpt>
      <trkpt lat="38.35601" lon="37.69603">
        <ele>1597.55169</ele>
        <time>2022-02-25T08:44:57.201Z</time>
      </trkpt>
      <trkpt lat="38.35572" lon="37.69554">
        <ele>1594.423798</ele>
        <time>2022-02-25T08:45:05.221Z</time>
      </trkpt>
      <trkpt lat="38.35555" lon="37.69523">
        <ele>1592.496174</ele>
        <time>2022-02-25T08:45:10.200Z</time>
      </trkpt>
      <trkpt lat="38.35542" lon="37.69483">
        <ele>1590.281562</ele>
        <time>2022-02-25T08:45:16.030Z</time>
      </trkpt>
      <trkpt lat="38.35533" lon="37.69443">
        <ele>1588.122117</ele>
        <time>2022-02-25T08:45:21.885Z</time>
      </trkpt>
      <trkpt lat="38.35529" lon="37.69393">
        <ele>1585.759618</ele>
        <time>2022-02-25T08:45:29.060Z</time>
      </trkpt>
      <trkpt lat="38.35533" lon="37.69351">
        <ele>1585.362203</ele>
        <time>2022-02-25T08:45:35.392Z</time>
      </trkpt>
      <trkpt lat="38.35542" lon="37.69316">
        <ele>1585.009934</ele>
        <time>2022-02-25T08:45:41.274Z</time>
      </trkpt>
      <trkpt lat="38.35644" lon="37.69022">
        <ele>1583.615987</ele>
        <time>2022-02-25T08:46:53.338Z</time>
      </trkpt>
      <trkpt lat="38.35649" lon="37.68952">
        <ele>1583.219887</ele>
        <time>2022-02-25T08:47:06.732Z</time>
      </trkpt>
      <trkpt lat="38.35647" lon="37.68921">
        <ele>1582.52833</ele>
        <time>2022-02-25T08:47:12.064Z</time>
      </trkpt>
      <trkpt lat="38.35632" lon="37.6888">
        <ele>1581.538642</ele>
        <time>2022-02-25T08:47:19.216Z</time>
      </trkpt>
      <trkpt lat="38.35599" lon="37.68815">
        <ele>1579.829193</ele>
        <time>2022-02-25T08:47:31.017Z</time>
      </trkpt>
      <trkpt lat="38.35545" lon="37.68737">
        <ele>1577.21501</ele>
        <time>2022-02-25T08:47:46.206Z</time>
      </trkpt>
      <trkpt lat="38.3549" lon="37.68641">
        <ele>1573.752354</ele>
        <time>2022-02-25T08:48:03.613Z</time>
      </trkpt>
      <trkpt lat="38.35465" lon="37.68597">
        <ele>1572.162067</ele>
        <time>2022-02-25T08:48:11.994Z</time>
      </trkpt>
      <trkpt lat="38.35429" lon="37.68543">
        <ele>1571.162036</ele>
        <time>2022-02-25T08:48:23.388Z</time>
      </trkpt>
      <trkpt lat="38.35373" lon="37.68469">
        <ele>1569.981165</ele>
        <time>2022-02-25T08:48:41.043Z</time>
      </trkpt>
      <trkpt lat="38.35344" lon="37.68423">
        <ele>1569.29881</ele>
        <time>2022-02-25T08:48:52.190Z</time>
      </trkpt>
      <trkpt lat="38.35245" lon="37.68285">
        <ele>1570.314827</ele>
        <time>2022-02-25T08:49:35.450Z</time>
      </trkpt>
      <trkpt lat="38.35185" lon="37.68196">
        <ele>1571.064609</ele>
        <time>2022-02-25T08:50:08.772Z</time>
      </trkpt>
      <trkpt lat="38.3511" lon="37.68087">
        <ele>1572.029467</ele>
        <time>2022-02-25T08:50:43.908Z</time>
      </trkpt>
      <trkpt lat="38.35053" lon="37.68014">
        <ele>1569.990176</ele>
        <time>2022-02-25T08:51:02.823Z</time>
      </trkpt>
      <trkpt lat="38.34663" lon="37.6746">
        <ele>1552.173457</ele>
        <time>2022-02-25T08:52:55.124Z</time>
      </trkpt>
      <trkpt lat="38.34617" lon="37.67371">
        <ele>1550.981954</ele>
        <time>2022-02-25T08:53:12.163Z</time>
      </trkpt>
      <trkpt lat="38.34597" lon="37.67321">
        <ele>1552.860712</ele>
        <time>2022-02-25T08:53:26.704Z</time>
      </trkpt>
      <trkpt lat="38.34582" lon="37.67271">
        <ele>1554.639759</ele>
        <time>2022-02-25T08:53:45.596Z</time>
      </trkpt>
      <trkpt lat="38.34571" lon="37.67214">
        <ele>1556.571238</ele>
        <time>2022-02-25T08:54:12.224Z</time>
      </trkpt>
      <trkpt lat="38.34568" lon="37.67147">
        <ele>1559.977034</ele>
        <time>2022-02-25T08:54:49.299Z</time>
      </trkpt>
      <trkpt lat="38.34565" lon="37.67018">
        <ele>1570.075071</ele>
        <time>2022-02-25T08:56:09.597Z</time>
      </trkpt>
      <trkpt lat="38.3457" lon="37.66839">
        <ele>1582.394305</ele>
        <time>2022-02-25T08:57:51.980Z</time>
      </trkpt>
      <trkpt lat="38.34572" lon="37.66809">
        <ele>1584.281002</ele>
        <time>2022-02-25T08:58:06.238Z</time>
      </trkpt>
      <trkpt lat="38.34577" lon="37.66675">
        <ele>1592.104034</ele>
        <time>2022-02-25T08:59:05.692Z</time>
      </trkpt>
      <trkpt lat="38.34603" lon="37.66151">
        <ele>1619.297941</ele>
        <time>2022-02-25T09:03:04.584Z</time>
      </trkpt>
      <trkpt lat="38.34634" lon="37.65901">
        <ele>1633.684507</ele>
        <time>2022-02-25T09:05:09.721Z</time>
      </trkpt>
      <trkpt lat="38.34636" lon="37.65838">
        <ele>1637.372456</ele>
        <time>2022-02-25T09:05:40.218Z</time>
      </trkpt>
      <trkpt lat="38.34632" lon="37.65787">
        <ele>1640.362052</ele>
        <time>2022-02-25T09:06:04.736Z</time>
      </trkpt>
      <trkpt lat="38.3462" lon="37.65743">
        <ele>1643.055367</ele>
        <time>2022-02-25T09:06:26.797Z</time>
      </trkpt>
      <trkpt lat="38.34546" lon="37.65575">
        <ele>1654.318438</ele>
        <time>2022-02-25T09:08:01.188Z</time>
      </trkpt>
      <trkpt lat="38.34527" lon="37.65505">
        <ele>1658.952561</ele>
        <time>2022-02-25T09:08:39.364Z</time>
      </trkpt>
      <trkpt lat="38.34514" lon="37.65431">
        <ele>1663.676958</ele>
        <time>2022-02-25T09:09:18.423Z</time>
      </trkpt>
      <trkpt lat="38.34475" lon="37.65092">
        <ele>1685.359124</ele>
        <time>2022-02-25T09:12:13.723Z</time>
      </trkpt>
      <trkpt lat="38.34477" lon="37.6472">
        <ele>1709.835424</ele>
        <time>2022-02-25T09:15:29.566Z</time>
      </trkpt>
      <trkpt lat="38.34499" lon="37.64519">
        <ele>1723.77412</ele>
        <time>2022-02-25T09:17:19.978Z</time>
      </trkpt>
      <trkpt lat="38.345" lon="37.64463">
        <ele>1727.620865</ele>
        <time>2022-02-25T09:17:50.171Z</time>
      </trkpt>
      <trkpt lat="38.34496" lon="37.64411">
        <ele>1731.083785</ele>
        <time>2022-02-25T09:18:18.035Z</time>
      </trkpt>
      <trkpt lat="38.34485" lon="37.64365">
        <ele>1734.261343</ele>
        <time>2022-02-25T09:18:43.249Z</time>
      </trkpt>
      <trkpt lat="38.34415" lon="37.64213">
        <ele>1745.884266</ele>
        <time>2022-02-25T09:20:15.470Z</time>
      </trkpt>
      <trkpt lat="38.34387" lon="37.64133">
        <ele>1751.625587</ele>
        <time>2022-02-25T09:21:01.453Z</time>
      </trkpt>
      <trkpt lat="38.34374" lon="37.64024">
        <ele>1758.81033</ele>
        <time>2022-02-25T09:21:59.449Z</time>
      </trkpt>
      <trkpt lat="38.34365" lon="37.63874">
        <ele>1768.297019</ele>
        <time>2022-02-25T09:23:17.156Z</time>
      </trkpt>
      <trkpt lat="38.34358" lon="37.63823">
        <ele>1771.544374</ele>
        <time>2022-02-25T09:23:43.137Z</time>
      </trkpt>
      <trkpt lat="38.34336" lon="37.63737">
        <ele>1776.738704</ele>
        <time>2022-02-25T09:24:28.086Z</time>
      </trkpt>
      <trkpt lat="38.34299" lon="37.63659">
        <ele>1781.873209</ele>
        <time>2022-02-25T09:25:12.006Z</time>
      </trkpt>
      <trkpt lat="38.34195" lon="37.63489">
        <ele>1792.710736</ele>
        <time>2022-02-25T09:26:50.725Z</time>
      </trkpt>
      <trkpt lat="38.3416" lon="37.63421">
        <ele>1796.338711</ele>
        <time>2022-02-25T09:27:23.835Z</time>
      </trkpt>
      <trkpt lat="38.34129" lon="37.63342">
        <ele>1798.780512</ele>
        <time>2022-02-25T09:27:57.733Z</time>
      </trkpt>
      <trkpt lat="38.34066" lon="37.63155">
        <ele>1802.769329</ele>
        <time>2022-02-25T09:28:59.136Z</time>
      </trkpt>
      <trkpt lat="38.34039" lon="37.63039">
        <ele>1803.506737</ele>
        <time>2022-02-25T09:29:25.477Z</time>
      </trkpt>
      <trkpt lat="38.34028" lon="37.62929">
        <ele>1803.408114</ele>
        <time>2022-02-25T09:29:46.323Z</time>
      </trkpt>
      <trkpt lat="38.34031" lon="37.62923">
        <ele>1803.381491</ele>
        <time>2022-02-25T09:29:47.572Z</time>
      </trkpt>
      <trkpt lat="38.34032" lon="37.62917">
        <ele>1803.355433</ele>
        <time>2022-02-25T09:29:48.797Z</time>
      </trkpt>
      <trkpt lat="38.34032" lon="37.62911">
        <ele>1803.32902</ele>
        <time>2022-02-25T09:29:50.014Z</time>
      </trkpt>
      <trkpt lat="38.3403" lon="37.62905">
        <ele>1803.302558</ele>
        <time>2022-02-25T09:29:51.217Z</time>
      </trkpt>
      <trkpt lat="38.34027" lon="37.629">
        <ele>1803.276039</ele>
        <time>2022-02-25T09:29:52.390Z</time>
      </trkpt>
      <trkpt lat="38.3402" lon="37.62841">
        <ele>1803.035145</ele>
        <time>2022-02-25T09:30:03.480Z</time>
      </trkpt>
      <trkpt lat="38.34016" lon="37.62767">
        <ele>1802.816829</ele>
        <time>2022-02-25T09:30:17.910Z</time>
      </trkpt>
      <trkpt lat="38.34018" lon="37.62698">
        <ele>1802.987168</ele>
        <time>2022-02-25T09:30:32.596Z</time>
      </trkpt>
      <trkpt lat="38.34024" lon="37.62632">
        <ele>1803.149617</ele>
        <time>2022-02-25T09:30:47.697Z</time>
      </trkpt>
      <trkpt lat="38.34052" lon="37.62493">
        <ele>1803.487632</ele>
        <time>2022-02-25T09:31:21.250Z</time>
      </trkpt>
      <trkpt lat="38.34064" lon="37.62443">
        <ele>1803.603525</ele>
        <time>2022-02-25T09:31:33.264Z</time>
      </trkpt>
      <trkpt lat="38.34165" lon="37.62192">
        <ele>1803.308532</ele>
        <time>2022-02-25T09:32:31.892Z</time>
      </trkpt>
      <trkpt lat="38.34434" lon="37.61578">
        <ele>1795.903445</ele>
        <time>2022-02-25T09:34:35.454Z</time>
      </trkpt>
      <trkpt lat="38.34542" lon="37.61315">
        <ele>1789.631062</ele>
        <time>2022-02-25T09:35:20.865Z</time>
      </trkpt>
      <trkpt lat="38.34582" lon="37.61251">
        <ele>1789.200941</ele>
        <time>2022-02-25T09:35:34.560Z</time>
      </trkpt>
      <trkpt lat="38.34637" lon="37.61188">
        <ele>1788.701215</ele>
        <time>2022-02-25T09:35:54.370Z</time>
      </trkpt>
      <trkpt lat="38.34677" lon="37.61155">
        <ele>1788.923696</ele>
        <time>2022-02-25T09:36:10.655Z</time>
      </trkpt>
      <trkpt lat="38.34741" lon="37.61114">
        <ele>1790.192949</ele>
        <time>2022-02-25T09:36:39.768Z</time>
      </trkpt>
      <trkpt lat="38.3484" lon="37.61078">
        <ele>1790.901889</ele>
        <time>2022-02-25T09:37:16.362Z</time>
      </trkpt>
      <trkpt lat="38.34888" lon="37.61071">
        <ele>1788.607558</ele>
        <time>2022-02-25T09:37:28.030Z</time>
      </trkpt>
      <trkpt lat="38.35289" lon="37.61077">
        <ele>1767.684194</ele>
        <time>2022-02-25T09:38:38.511Z</time>
      </trkpt>
      <trkpt lat="38.35341" lon="37.61086">
        <ele>1764.346967</ele>
        <time>2022-02-25T09:38:47.588Z</time>
      </trkpt>
      <trkpt lat="38.3542" lon="37.6111">
        <ele>1759.49477</ele>
        <time>2022-02-25T09:39:01.618Z</time>
      </trkpt>
      <trkpt lat="38.35575" lon="37.61186">
        <ele>1751.039293</ele>
        <time>2022-02-25T09:39:31.274Z</time>
      </trkpt>
      <trkpt lat="38.35634" lon="37.61204">
        <ele>1749.067448</ele>
        <time>2022-02-25T09:39:43.338Z</time>
      </trkpt>
      <trkpt lat="38.35987" lon="37.61233">
        <ele>1738.222239</ele>
        <time>2022-02-25T09:41:00.085Z</time>
      </trkpt>
      <trkpt lat="38.36241" lon="37.61249">
        <ele>1714.406335</ele>
        <time>2022-02-25T09:41:41.395Z</time>
      </trkpt>
      <trkpt lat="38.36289" lon="37.61247">
        <ele>1708.53684</ele>
        <time>2022-02-25T09:41:48.916Z</time>
      </trkpt>
      <trkpt lat="38.36383" lon="37.61208">
        <ele>1696.396821</ele>
        <time>2022-02-25T09:42:04.474Z</time>
      </trkpt>
      <trkpt lat="38.36421" lon="37.6118">
        <ele>1691.49789</ele>
        <time>2022-02-25T09:42:11.473Z</time>
      </trkpt>
      <trkpt lat="38.36475" lon="37.61127">
        <ele>1688.060491</ele>
        <time>2022-02-25T09:42:22.964Z</time>
      </trkpt>
      <trkpt lat="38.36632" lon="37.60917">
        <ele>1680.415989</ele>
        <time>2022-02-25T09:43:10.837Z</time>
      </trkpt>
      <trkpt lat="38.36658" lon="37.60892">
        <ele>1679.806283</ele>
        <time>2022-02-25T09:43:18.427Z</time>
      </trkpt>
      <trkpt lat="38.36689" lon="37.60872">
        <ele>1678.931407</ele>
        <time>2022-02-25T09:43:26.143Z</time>
      </trkpt>
      <trkpt lat="38.36745" lon="37.60855">
        <ele>1676.587131</ele>
        <time>2022-02-25T09:43:37.881Z</time>
      </trkpt>
      <trkpt lat="38.36802" lon="37.60852">
        <ele>1674.202824</ele>
        <time>2022-02-25T09:43:48.743Z</time>
      </trkpt>
      <trkpt lat="38.36854" lon="37.60864">
        <ele>1672.062546</ele>
        <time>2022-02-25T09:43:57.966Z</time>
      </trkpt>
      <trkpt lat="38.36876" lon="37.60876">
        <ele>1670.059866</ele>
        <time>2022-02-25T09:44:02.206Z</time>
      </trkpt>
      <trkpt lat="38.36997" lon="37.60983">
        <ele>1657.201758</ele>
        <time>2022-02-25T09:44:26.538Z</time>
      </trkpt>
      <trkpt lat="38.37052" lon="37.61006">
        <ele>1651.685505</ele>
        <time>2022-02-25T09:44:35.972Z</time>
      </trkpt>
      <trkpt lat="38.37212" lon="37.6103">
        <ele>1636.136077</ele>
        <time>2022-02-25T09:45:02.359Z</time>
      </trkpt>
      <trkpt lat="38.37325" lon="37.61072">
        <ele>1624.979632</ele>
        <time>2022-02-25T09:45:21.664Z</time>
      </trkpt>
      <trkpt lat="38.37353" lon="37.61077">
        <ele>1622.372208</ele>
        <time>2022-02-25T09:45:26.211Z</time>
      </trkpt>
      <trkpt lat="38.37412" lon="37.61076">
        <ele>1617.683506</ele>
        <time>2022-02-25T09:45:36.062Z</time>
      </trkpt>
      <trkpt lat="38.37467" lon="37.61056">
        <ele>1613.195842</ele>
        <time>2022-02-25T09:45:45.896Z</time>
      </trkpt>
      <trkpt lat="38.37567" lon="37.6098">
        <ele>1604.199181</ele>
        <time>2022-02-25T09:46:05.798Z</time>
      </trkpt>
      <trkpt lat="38.37592" lon="37.60953">
        <ele>1601.684523</ele>
        <time>2022-02-25T09:46:11.384Z</time>
      </trkpt>
      <trkpt lat="38.37596" lon="37.60952">
        <ele>1601.34148</ele>
        <time>2022-02-25T09:46:12.162Z</time>
      </trkpt>
      <trkpt lat="38.376" lon="37.60949">
        <ele>1600.995773</ele>
        <time>2022-02-25T09:46:12.952Z</time>
      </trkpt>
      <trkpt lat="38.37604" lon="37.60946">
        <ele>1600.654718</ele>
        <time>2022-02-25T09:46:13.739Z</time>
      </trkpt>
      <trkpt lat="38.37607" lon="37.6094">
        <ele>1600.215614</ele>
        <time>2022-02-25T09:46:14.717Z</time>
      </trkpt>
      <trkpt lat="38.37608" lon="37.60933">
        <ele>1599.778486</ele>
        <time>2022-02-25T09:46:15.676Z</time>
      </trkpt>
      <trkpt lat="38.37621" lon="37.60919">
        <ele>1598.470989</ele>
        <time>2022-02-25T09:46:18.513Z</time>
      </trkpt>
      <trkpt lat="38.37676" lon="37.60847">
        <ele>1592.103475</ele>
        <time>2022-02-25T09:46:31.642Z</time>
      </trkpt>
      <trkpt lat="38.37747" lon="37.60732">
        <ele>1581.58841</ele>
        <time>2022-02-25T09:46:50.411Z</time>
      </trkpt>
      <trkpt lat="38.37803" lon="37.60587">
        <ele>1570.831736</ele>
        <time>2022-02-25T09:47:11.516Z</time>
      </trkpt>
      <trkpt lat="38.37843" lon="37.605">
        <ele>1564.424582</ele>
        <time>2022-02-25T09:47:24.892Z</time>
      </trkpt>
      <trkpt lat="38.37976" lon="37.60141">
        <ele>1541.911862</ele>
        <time>2022-02-25T09:48:18.098Z</time>
      </trkpt>
      <trkpt lat="38.38065" lon="37.59934">
        <ele>1529.196941</ele>
        <time>2022-02-25T09:48:50.222Z</time>
      </trkpt>
      <trkpt lat="38.38146" lon="37.5971">
        <ele>1515.516988</ele>
        <time>2022-02-25T09:49:23.194Z</time>
      </trkpt>
      <trkpt lat="38.38163" lon="37.59675">
        <ele>1513.195834</ele>
        <time>2022-02-25T09:49:28.670Z</time>
      </trkpt>
      <trkpt lat="38.38246" lon="37.59541">
        <ele>1503.407146</ele>
        <time>2022-02-25T09:49:51.593Z</time>
      </trkpt>
      <trkpt lat="38.38409" lon="37.59291">
        <ele>1484.705973</ele>
        <time>2022-02-25T09:50:34.979Z</time>
      </trkpt>
      <trkpt lat="38.38433" lon="37.59241">
        <ele>1481.797137</ele>
        <time>2022-02-25T09:50:42.806Z</time>
      </trkpt>
      <trkpt lat="38.38507" lon="37.59016">
        <ele>1470.220578</ele>
        <time>2022-02-25T09:51:16.638Z</time>
      </trkpt>
      <trkpt lat="38.38534" lon="37.58969">
        <ele>1467.765212</ele>
        <time>2022-02-25T09:51:24.843Z</time>
      </trkpt>
      <trkpt lat="38.38562" lon="37.58936">
        <ele>1465.69103</ele>
        <time>2022-02-25T09:51:31.766Z</time>
      </trkpt>
      <trkpt lat="38.38589" lon="37.58912">
        <ele>1463.83007</ele>
        <time>2022-02-25T09:51:37.861Z</time>
      </trkpt>
      <trkpt lat="38.38775" lon="37.58821">
        <ele>1451.633657</ele>
        <time>2022-02-25T09:52:12.791Z</time>
      </trkpt>
      <trkpt lat="38.38837" lon="37.58774">
        <ele>1446.221731</ele>
        <time>2022-02-25T09:52:25.035Z</time>
      </trkpt>
      <trkpt lat="38.3888" lon="37.58732">
        <ele>1442.128007</ele>
        <time>2022-02-25T09:52:34.220Z</time>
      </trkpt>
      <trkpt lat="38.39063" lon="37.58482">
        <ele>1421.541591</ele>
        <time>2022-02-25T09:53:19.344Z</time>
      </trkpt>
      <trkpt lat="38.39098" lon="37.58445">
        <ele>1418.267665</ele>
        <time>2022-02-25T09:53:27.185Z</time>
      </trkpt>
      <trkpt lat="38.39196" lon="37.58369">
        <ele>1410.176535</ele>
        <time>2022-02-25T09:53:47.079Z</time>
      </trkpt>
      <trkpt lat="38.39265" lon="37.58298">
        <ele>1404.168496</ele>
        <time>2022-02-25T09:54:02.431Z</time>
      </trkpt>
      <trkpt lat="38.39307" lon="37.5823">
        <ele>1399.585425</ele>
        <time>2022-02-25T09:54:14.064Z</time>
      </trkpt>
      <trkpt lat="38.39337" lon="37.58156">
        <ele>1395.110269</ele>
        <time>2022-02-25T09:54:25.150Z</time>
      </trkpt>
      <trkpt lat="38.39374" lon="37.58044">
        <ele>1388.564084</ele>
        <time>2022-02-25T09:54:41.693Z</time>
      </trkpt>
      <trkpt lat="38.39382" lon="37.58022">
        <ele>1387.531385</ele>
        <time>2022-02-25T09:54:44.975Z</time>
      </trkpt>
      <trkpt lat="38.39408" lon="37.57939">
        <ele>1383.85383</ele>
        <time>2022-02-25T09:54:57.491Z</time>
      </trkpt>
      <trkpt lat="38.39433" lon="37.57879">
        <ele>1381.069138</ele>
        <time>2022-02-25T09:55:07.182Z</time>
      </trkpt>
      <trkpt lat="38.39463" lon="37.57826">
        <ele>1378.600932</ele>
        <time>2022-02-25T09:55:16.600Z</time>
      </trkpt>
      <trkpt lat="38.39498" lon="37.57782">
        <ele>1376.890148</ele>
        <time>2022-02-25T09:55:25.959Z</time>
      </trkpt>
      <trkpt lat="38.39559" lon="37.57725">
        <ele>1374.261055</ele>
        <time>2022-02-25T09:55:40.761Z</time>
      </trkpt>
      <trkpt lat="38.39597" lon="37.57697">
        <ele>1372.734984</ele>
        <time>2022-02-25T09:55:49.388Z</time>
      </trkpt>
      <trkpt lat="38.39608" lon="37.57689">
        <ele>1372.17722</ele>
        <time>2022-02-25T09:55:51.958Z</time>
      </trkpt>
      <trkpt lat="38.39653" lon="37.57666">
        <ele>1370.06534</ele>
        <time>2022-02-25T09:56:01.397Z</time>
      </trkpt>
      <trkpt lat="38.3972" lon="37.57647">
        <ele>1367.11934</ele>
        <time>2022-02-25T09:56:14.259Z</time>
      </trkpt>
      <trkpt lat="38.39984" lon="37.57617">
        <ele>1351.031265</ele>
        <time>2022-02-25T09:57:00.795Z</time>
      </trkpt>
      <trkpt lat="38.40045" lon="37.57608">
        <ele>1346.104449</ele>
        <time>2022-02-25T09:57:11.084Z</time>
      </trkpt>
      <trkpt lat="38.40096" lon="37.57593">
        <ele>1341.883832</ele>
        <time>2022-02-25T09:57:19.843Z</time>
      </trkpt>
      <trkpt lat="38.40171" lon="37.5756">
        <ele>1335.48982</ele>
        <time>2022-02-25T09:57:32.979Z</time>
      </trkpt>
      <trkpt lat="38.40386" lon="37.57419">
        <ele>1316.29057</ele>
        <time>2022-02-25T09:58:13.796Z</time>
      </trkpt>
      <trkpt lat="38.40503" lon="37.57372">
        <ele>1306.56968</ele>
        <time>2022-02-25T09:58:34.627Z</time>
      </trkpt>
      <trkpt lat="38.40624" lon="37.57348">
        <ele>1296.580784</ele>
        <time>2022-02-25T09:58:55.149Z</time>
      </trkpt>
      <trkpt lat="38.40724" lon="37.57353">
        <ele>1288.977758</ele>
        <time>2022-02-25T09:59:11.790Z</time>
      </trkpt>
      <trkpt lat="38.4085" lon="37.57383">
        <ele>1280.434128</ele>
        <time>2022-02-25T09:59:33.837Z</time>
      </trkpt>
      <trkpt lat="38.41211" lon="37.57567">
        <ele>1263.552196</ele>
        <time>2022-02-25T10:00:46.580Z</time>
      </trkpt>
      <trkpt lat="38.41264" lon="37.5759">
        <ele>1261.409234</ele>
        <time>2022-02-25T10:00:57.393Z</time>
      </trkpt>
      <trkpt lat="38.41356" lon="37.57617">
        <ele>1257.957247</ele>
        <time>2022-02-25T10:01:15.555Z</time>
      </trkpt>
      <trkpt lat="38.41505" lon="37.57634">
        <ele>1252.79448</ele>
        <time>2022-02-25T10:01:44.380Z</time>
      </trkpt>
      <trkpt lat="38.42092" lon="37.57666">
        <ele>1234.025005</ele>
        <time>2022-02-25T10:03:39.595Z</time>
      </trkpt>
      <trkpt lat="38.42178" lon="37.57671">
        <ele>1231.099717</ele>
        <time>2022-02-25T10:03:56.137Z</time>
      </trkpt>
      <trkpt lat="38.42239" lon="37.57674">
        <ele>1228.792547</ele>
        <time>2022-02-25T10:04:07.764Z</time>
      </trkpt>
      <trkpt lat="38.42606" lon="37.57691">
        <ele>1213.499001</ele>
        <time>2022-02-25T10:05:16.042Z</time>
      </trkpt>
      <trkpt lat="38.42717" lon="37.57709">
        <ele>1209.419257</ele>
        <time>2022-02-25T10:05:37.545Z</time>
      </trkpt>
      <trkpt lat="38.42801" lon="37.57735">
        <ele>1206.619478</ele>
        <time>2022-02-25T10:05:54.582Z</time>
      </trkpt>
      <trkpt lat="38.43031" lon="37.57859">
        <ele>1199.208964</ele>
        <time>2022-02-25T10:06:44.117Z</time>
      </trkpt>
      <trkpt lat="38.43134" lon="37.57907">
        <ele>1195.770166</ele>
        <time>2022-02-25T10:07:05.760Z</time>
      </trkpt>
      <trkpt lat="38.43472" lon="37.58003">
        <ele>1185.098673</ele>
        <time>2022-02-25T10:08:12.846Z</time>
      </trkpt>
      <trkpt lat="38.43509" lon="37.58019">
        <ele>1184.57668</ele>
        <time>2022-02-25T10:08:21.690Z</time>
      </trkpt>
      <trkpt lat="38.43535" lon="37.58029">
        <ele>1184.225871</ele>
        <time>2022-02-25T10:08:27.791Z</time>
      </trkpt>
      <trkpt lat="38.43578" lon="37.58037">
        <ele>1183.648478</ele>
        <time>2022-02-25T10:08:38.761Z</time>
      </trkpt>
      <trkpt lat="38.43681" lon="37.58072">
        <ele>1182.600669</ele>
        <time>2022-02-25T10:09:07.633Z</time>
      </trkpt>
      <trkpt lat="38.43854" lon="37.58169">
        <ele>1179.335119</ele>
        <time>2022-02-25T10:09:49.211Z</time>
      </trkpt>
      <trkpt lat="38.43921" lon="37.58206">
        <ele>1177.331907</ele>
        <time>2022-02-25T10:10:03.077Z</time>
      </trkpt>
      <trkpt lat="38.43964" lon="37.58227">
        <ele>1175.578437</ele>
        <time>2022-02-25T10:10:11.711Z</time>
      </trkpt>
      <trkpt lat="38.44105" lon="37.58282">
        <ele>1168.772196</ele>
        <time>2022-02-25T10:10:38.671Z</time>
      </trkpt>
      <trkpt lat="38.44184" lon="37.58307">
        <ele>1164.902096</ele>
        <time>2022-02-25T10:10:53.474Z</time>
      </trkpt>
      <trkpt lat="38.44402" lon="37.58348">
        <ele>1154.725692</ele>
        <time>2022-02-25T10:11:33.831Z</time>
      </trkpt>
      <trkpt lat="38.44528" lon="37.58358">
        <ele>1149.991951</ele>
        <time>2022-02-25T10:11:57.611Z</time>
      </trkpt>
      <trkpt lat="38.4464" lon="37.58356">
        <ele>1146.514042</ele>
        <time>2022-02-25T10:12:20.117Z</time>
      </trkpt>
      <trkpt lat="38.44901" lon="37.58335">
        <ele>1141.630967</ele>
        <time>2022-02-25T10:13:15.029Z</time>
      </trkpt>
      <trkpt lat="38.45038" lon="37.58326">
        <ele>1140.534807</ele>
        <time>2022-02-25T10:13:48.744Z</time>
      </trkpt>
      <trkpt lat="38.4519" lon="37.58319">
        <ele>1140.767329</ele>
        <time>2022-02-25T10:14:34.259Z</time>
      </trkpt>
      <trkpt lat="38.46317" lon="37.58509">
        <ele>1128.198511</ele>
        <time>2022-02-25T10:18:54.483Z</time>
      </trkpt>
      <trkpt lat="38.46423" lon="37.58539">
        <ele>1126.161316</ele>
        <time>2022-02-25T10:19:17.303Z</time>
      </trkpt>
      <trkpt lat="38.46461" lon="37.58554">
        <ele>1125.073642</ele>
        <time>2022-02-25T10:19:25.255Z</time>
      </trkpt>
      <trkpt lat="38.46629" lon="37.58618">
        <ele>1119.632598</ele>
        <time>2022-02-25T10:19:59.624Z</time>
      </trkpt>
      <trkpt lat="38.46691" lon="37.58642">
        <ele>1117.30684</ele>
        <time>2022-02-25T10:20:12.054Z</time>
      </trkpt>
      <trkpt lat="38.46732" lon="37.5866">
        <ele>1115.744169</ele>
        <time>2022-02-25T10:20:20.373Z</time>
      </trkpt>
      <trkpt lat="38.46735" lon="37.58663">
        <ele>1115.586547</ele>
        <time>2022-02-25T10:20:21.206Z</time>
      </trkpt>
      <trkpt lat="38.4674" lon="37.58665">
        <ele>1115.429821</ele>
        <time>2022-02-25T10:20:22.064Z</time>
      </trkpt>
      <trkpt lat="38.46744" lon="37.58665">
        <ele>1115.271598</ele>
        <time>2022-02-25T10:20:22.898Z</time>
      </trkpt>
      <trkpt lat="38.46769" lon="37.58671">
        <ele>1114.365868</ele>
        <time>2022-02-25T10:20:27.669Z</time>
      </trkpt>
      <trkpt lat="38.46822" lon="37.58684">
        <ele>1112.311278</ele>
        <time>2022-02-25T10:20:37.783Z</time>
      </trkpt>
      <trkpt lat="38.46903" lon="37.5871">
        <ele>1109.062979</ele>
        <time>2022-02-25T10:20:53.680Z</time>
      </trkpt>
      <trkpt lat="38.46917" lon="37.58714">
        <ele>1108.52135</ele>
        <time>2022-02-25T10:20:56.283Z</time>
      </trkpt>
      <trkpt lat="38.47106" lon="37.58781">
        <ele>1101.186267</ele>
        <time>2022-02-25T10:21:33.811Z</time>
      </trkpt>
      <trkpt lat="38.47245" lon="37.5883">
        <ele>1095.957261</ele>
        <time>2022-02-25T10:22:00.955Z</time>
      </trkpt>
      <trkpt lat="38.47284" lon="37.5884">
        <ele>1094.497255</ele>
        <time>2022-02-25T10:22:08.824Z</time>
      </trkpt>
      <trkpt lat="38.47325" lon="37.58852">
        <ele>1093.386584</ele>
        <time>2022-02-25T10:22:17.392Z</time>
      </trkpt>
      <trkpt lat="38.47359" lon="37.58861">
        <ele>1092.656031</ele>
        <time>2022-02-25T10:22:24.427Z</time>
      </trkpt>
      <trkpt lat="38.47385" lon="37.58864">
        <ele>1092.095541</ele>
        <time>2022-02-25T10:22:29.815Z</time>
      </trkpt>
      <trkpt lat="38.47409" lon="37.58866">
        <ele>1091.570431</ele>
        <time>2022-02-25T10:22:35.009Z</time>
      </trkpt>
      <trkpt lat="38.47482" lon="37.58868">
        <ele>1090.014589</ele>
        <time>2022-02-25T10:22:50.853Z</time>
      </trkpt>
      <trkpt lat="38.47514" lon="37.58866">
        <ele>1089.29012</ele>
        <time>2022-02-25T10:22:57.912Z</time>
      </trkpt>
      <trkpt lat="38.47634" lon="37.58853">
        <ele>1086.57007</ele>
        <time>2022-02-25T10:23:23.033Z</time>
      </trkpt>
      <trkpt lat="38.47725" lon="37.5883">
        <ele>1083.233716</ele>
        <time>2022-02-25T10:23:40.928Z</time>
      </trkpt>
      <trkpt lat="38.47749" lon="37.58821">
        <ele>1082.233885</ele>
        <time>2022-02-25T10:23:45.759Z</time>
      </trkpt>
      <trkpt lat="38.47774" lon="37.58812">
        <ele>1081.184313</ele>
        <time>2022-02-25T10:23:50.602Z</time>
      </trkpt>
      <trkpt lat="38.47852" lon="37.58774">
        <ele>1077.313448</ele>
        <time>2022-02-25T10:24:05.860Z</time>
      </trkpt>
      <trkpt lat="38.47853" lon="37.58774">
        <ele>1077.26133</ele>
        <time>2022-02-25T10:24:05.995Z</time>
      </trkpt>
      <trkpt lat="38.47914" lon="37.58735">
        <ele>1073.1324</ele>
        <time>2022-02-25T10:24:18.126Z</time>
      </trkpt>
      <trkpt lat="38.48449" lon="37.58345">
        <ele>1032.177069</ele>
        <time>2022-02-25T10:26:04.340Z</time>
      </trkpt>
      <trkpt lat="38.48538" lon="37.58301">
        <ele>1028.197662</ele>
        <time>2022-02-25T10:26:21.931Z</time>
      </trkpt>
      <trkpt lat="38.48583" lon="37.58285">
        <ele>1026.352943</ele>
        <time>2022-02-25T10:26:30.998Z</time>
      </trkpt>
      <trkpt lat="38.48643" lon="37.58274">
        <ele>1024.265879</ele>
        <time>2022-02-25T10:26:43.078Z</time>
      </trkpt>
      <trkpt lat="38.48941" lon="37.58272">
        <ele>1018.634262</ele>
        <time>2022-02-25T10:27:46.747Z</time>
      </trkpt>
      <trkpt lat="38.49074" lon="37.58257">
        <ele>1016.454518</ele>
        <time>2022-02-25T10:28:16.098Z</time>
      </trkpt>
      <trkpt lat="38.49157" lon="37.58231">
        <ele>1015.117471</ele>
        <time>2022-02-25T10:28:34.838Z</time>
      </trkpt>
      <trkpt lat="38.49229" lon="37.58198">
        <ele>1013.422974</ele>
        <time>2022-02-25T10:28:51.317Z</time>
      </trkpt>
      <trkpt lat="38.49271" lon="37.58177">
        <ele>1012.379754</ele>
        <time>2022-02-25T10:29:00.744Z</time>
      </trkpt>
      <trkpt lat="38.49356" lon="37.58134">
        <ele>1010.115145</ele>
        <time>2022-02-25T10:29:18.890Z</time>
      </trkpt>
      <trkpt lat="38.49523" lon="37.5805">
        <ele>1005.188234</ele>
        <time>2022-02-25T10:29:53.925Z</time>
      </trkpt>
      <trkpt lat="38.49611" lon="37.58004">
        <ele>1004.077072</ele>
        <time>2022-02-25T10:30:14.873Z</time>
      </trkpt>
      <trkpt lat="38.49666" lon="37.57962">
        <ele>1003.395613</ele>
        <time>2022-02-25T10:30:32.548Z</time>
      </trkpt>
      <trkpt lat="38.49734" lon="37.57884">
        <ele>1004.215226</ele>
        <time>2022-02-25T10:31:01.267Z</time>
      </trkpt>
      <trkpt lat="38.49772" lon="37.57819">
        <ele>1004.789484</ele>
        <time>2022-02-25T10:31:22.000Z</time>
      </trkpt>
      <trkpt lat="38.4981" lon="37.57705">
        <ele>1005.405776</ele>
        <time>2022-02-25T10:31:51.516Z</time>
      </trkpt>
      <trkpt lat="38.49822" lon="37.57606">
        <ele>1005.843639</ele>
        <time>2022-02-25T10:32:13.684Z</time>
      </trkpt>
      <trkpt lat="38.49814" lon="37.5749">
        <ele>1006.439945</ele>
        <time>2022-02-25T10:32:39.691Z</time>
      </trkpt>
      <trkpt lat="38.49774" lon="37.5721">
        <ele>1007.976279</ele>
        <time>2022-02-25T10:33:48.571Z</time>
      </trkpt>
      <trkpt lat="38.49771" lon="37.57104">
        <ele>1008.418357</ele>
        <time>2022-02-25T10:34:12.979Z</time>
      </trkpt>
      <trkpt lat="38.49786" lon="37.56976">
        <ele>1007.885604</ele>
        <time>2022-02-25T10:34:38.932Z</time>
      </trkpt>
      <trkpt lat="38.49834" lon="37.56861">
        <ele>1006.842122</ele>
        <time>2022-02-25T10:35:02.093Z</time>
      </trkpt>
      <trkpt lat="38.49882" lon="37.56782">
        <ele>1005.285399</ele>
        <time>2022-02-25T10:35:18.662Z</time>
      </trkpt>
      <trkpt lat="38.49929" lon="37.56727">
        <ele>1004.019653</ele>
        <time>2022-02-25T10:35:31.663Z</time>
      </trkpt>
      <trkpt lat="38.49983" lon="37.56686">
        <ele>1002.238394</ele>
        <time>2022-02-25T10:35:44.281Z</time>
      </trkpt>
      <trkpt lat="38.50052" lon="37.56646">
        <ele>1000.038254</ele>
        <time>2022-02-25T10:35:59.394Z</time>
      </trkpt>
      <trkpt lat="38.5052" lon="37.56409">
        <ele>985.666696</ele>
        <time>2022-02-25T10:37:38.731Z</time>
      </trkpt>
      <trkpt lat="38.50622" lon="37.56354">
        <ele>983.764222</ele>
        <time>2022-02-25T10:38:03.298Z</time>
      </trkpt>
      <trkpt lat="38.5068" lon="37.5631">
        <ele>983.563215</ele>
        <time>2022-02-25T10:38:20.313Z</time>
      </trkpt>
      <trkpt lat="38.50728" lon="37.56251">
        <ele>983.363504</ele>
        <time>2022-02-25T10:38:39.390Z</time>
      </trkpt>
      <trkpt lat="38.50758" lon="37.56203">
        <ele>983.103195</ele>
        <time>2022-02-25T10:38:52.863Z</time>
      </trkpt>
      <trkpt lat="38.50784" lon="37.56125">
        <ele>982.662593</ele>
        <time>2022-02-25T10:39:09.832Z</time>
      </trkpt>
      <trkpt lat="38.50798" lon="37.56051">
        <ele>982.266963</ele>
        <time>2022-02-25T10:39:24.081Z</time>
      </trkpt>
      <trkpt lat="38.50819" lon="37.56048">
        <ele>982.127697</ele>
        <time>2022-02-25T10:39:28.376Z</time>
      </trkpt>
      <trkpt lat="38.50859" lon="37.56008">
        <ele>980.720819</ele>
        <time>2022-02-25T10:39:38.831Z</time>
      </trkpt>
      <trkpt lat="38.50923" lon="37.55968">
        <ele>978.719044</ele>
        <time>2022-02-25T10:39:52.648Z</time>
      </trkpt>
      <trkpt lat="38.5095" lon="37.5594">
        <ele>977.711099</ele>
        <time>2022-02-25T10:39:59.410Z</time>
      </trkpt>
      <trkpt lat="38.50973" lon="37.55917">
        <ele>976.956797</ele>
        <time>2022-02-25T10:40:05.114Z</time>
      </trkpt>
      <trkpt lat="38.50982" lon="37.55912">
        <ele>976.780024</ele>
        <time>2022-02-25T10:40:06.886Z</time>
      </trkpt>
      <trkpt lat="38.51147" lon="37.55886">
        <ele>973.71341</ele>
        <time>2022-02-25T10:40:42.348Z</time>
      </trkpt>
      <trkpt lat="38.51237" lon="37.55898">
        <ele>974.441768</ele>
        <time>2022-02-25T10:41:08.322Z</time>
      </trkpt>
      <trkpt lat="38.51353" lon="37.55869">
        <ele>975.932196</ele>
        <time>2022-02-25T10:41:49.557Z</time>
      </trkpt>
      <trkpt lat="38.51412" lon="37.55847">
        <ele>977.543062</ele>
        <time>2022-02-25T10:42:13.723Z</time>
      </trkpt>
      <trkpt lat="38.51433" lon="37.5585">
        <ele>978.099935</ele>
        <time>2022-02-25T10:42:22.286Z</time>
      </trkpt>
      <trkpt lat="38.51486" lon="37.55877">
        <ele>979.595228</ele>
        <time>2022-02-25T10:42:45.702Z</time>
      </trkpt>
      <trkpt lat="38.51533" lon="37.55892">
        <ele>981.130456</ele>
        <time>2022-02-25T10:43:05.801Z</time>
      </trkpt>
      <trkpt lat="38.51675" lon="37.55992">
        <ele>986.793852</ele>
        <time>2022-02-25T10:44:15.165Z</time>
      </trkpt>
      <trkpt lat="38.51746" lon="37.56029">
        <ele>990.236529</ele>
        <time>2022-02-25T10:44:52.352Z</time>
      </trkpt>
      <trkpt lat="38.51772" lon="37.56045">
        <ele>991.531107</ele>
        <time>2022-02-25T10:45:06.201Z</time>
      </trkpt>
      <trkpt lat="38.51787" lon="37.56048">
        <ele>992.191359</ele>
        <time>2022-02-25T10:45:14.440Z</time>
      </trkpt>
      <trkpt lat="38.518" lon="37.56051">
        <ele>992.772185</ele>
        <time>2022-02-25T10:45:20.337Z</time>
      </trkpt>
      <trkpt lat="38.5182" lon="37.56069">
        <ele>993.86801</ele>
        <time>2022-02-25T10:45:33.173Z</time>
      </trkpt>
      <trkpt lat="38.51833" lon="37.56098">
        <ele>994.883839</ele>
        <time>2022-02-25T10:45:45.816Z</time>
      </trkpt>
      <trkpt lat="38.51835" lon="37.56207">
        <ele>998.232359</ele>
        <time>2022-02-25T10:46:29.553Z</time>
      </trkpt>
      <trkpt lat="38.5184" lon="37.56252">
        <ele>999.629899</ele>
        <time>2022-02-25T10:46:44.250Z</time>
      </trkpt>
      <trkpt lat="38.51846" lon="37.56322">
        <ele>1000.920444</ele>
        <time>2022-02-25T10:47:04.897Z</time>
      </trkpt>
      <trkpt lat="38.51852" lon="37.56357">
        <ele>1000.864795</ele>
        <time>2022-02-25T10:47:13.870Z</time>
      </trkpt>
      <trkpt lat="38.51885" lon="37.56452">
        <ele>1000.702952</ele>
        <time>2022-02-25T10:47:34.966Z</time>
      </trkpt>
      <trkpt lat="38.51895" lon="37.56469">
        <ele>1000.670101</ele>
        <time>2022-02-25T10:47:38.543Z</time>
      </trkpt>
      <trkpt lat="38.51912" lon="37.56531">
        <ele>1000.012991</ele>
        <time>2022-02-25T10:47:49.100Z</time>
      </trkpt>
      <trkpt lat="38.5193" lon="37.56626">
        <ele>997.594491</ele>
        <time>2022-02-25T10:48:04.111Z</time>
      </trkpt>
      <trkpt lat="38.52041" lon="37.56787">
        <ele>992.077758</ele>
        <time>2022-02-25T10:48:36.233Z</time>
      </trkpt>
      <trkpt lat="38.52071" lon="37.56821">
        <ele>990.703858</ele>
        <time>2022-02-25T10:48:43.971Z</time>
      </trkpt>
      <trkpt lat="38.52096" lon="37.56858">
        <ele>989.395344</ele>
        <time>2022-02-25T10:48:51.405Z</time>
      </trkpt>
      <trkpt lat="38.52109" lon="37.56889">
        <ele>988.522022</ele>
        <time>2022-02-25T10:48:56.887Z</time>
      </trkpt>
      <trkpt lat="38.5211" lon="37.56905">
        <ele>988.198579</ele>
        <time>2022-02-25T10:48:59.387Z</time>
      </trkpt>
      <trkpt lat="38.52063" lon="37.56963">
        <ele>986.53493</ele>
        <time>2022-02-25T10:49:12.364Z</time>
      </trkpt>
      <trkpt lat="38.52036" lon="37.56984">
        <ele>985.723838</ele>
        <time>2022-02-25T10:49:18.790Z</time>
      </trkpt>
      <trkpt lat="38.52013" lon="37.57015">
        <ele>984.857169</ele>
        <time>2022-02-25T10:49:25.770Z</time>
      </trkpt>
      <trkpt lat="38.51997" lon="37.57052">
        <ele>984.068132</ele>
        <time>2022-02-25T10:49:32.704Z</time>
      </trkpt>
      <trkpt lat="38.51979" lon="37.57204">
        <ele>982.213559</ele>
        <time>2022-02-25T10:49:58.792Z</time>
      </trkpt>
      <trkpt lat="38.51987" lon="37.57318">
        <ele>981.030611</ele>
        <time>2022-02-25T10:50:19.234Z</time>
      </trkpt>
      <trkpt lat="38.51999" lon="37.57396">
        <ele>980.439439</ele>
        <time>2022-02-25T10:50:33.629Z</time>
      </trkpt>
      <trkpt lat="38.5201" lon="37.57429">
        <ele>980.176638</ele>
        <time>2022-02-25T10:50:40.132Z</time>
      </trkpt>
      <trkpt lat="38.52061" lon="37.5748">
        <ele>979.642177</ele>
        <time>2022-02-25T10:50:55.656Z</time>
      </trkpt>
      <trkpt lat="38.52078" lon="37.57486">
        <ele>979.613091</ele>
        <time>2022-02-25T10:50:59.809Z</time>
      </trkpt>
      <trkpt lat="38.52135" lon="37.57468">
        <ele>979.513546</ele>
        <time>2022-02-25T10:51:14.385Z</time>
      </trkpt>
      <trkpt lat="38.52171" lon="37.5748">
        <ele>979.450743</ele>
        <time>2022-02-25T10:51:24.024Z</time>
      </trkpt>
      <trkpt lat="38.52247" lon="37.57525">
        <ele>979.666516</ele>
        <time>2022-02-25T10:51:47.662Z</time>
      </trkpt>
      <trkpt lat="38.52297" lon="37.57509">
        <ele>980.245403</ele>
        <time>2022-02-25T10:52:03.776Z</time>
      </trkpt>
      <trkpt lat="38.52477" lon="37.57444">
        <ele>982.997554</ele>
        <time>2022-02-25T10:53:07.127Z</time>
      </trkpt>
      <trkpt lat="38.5295" lon="37.57192">
        <ele>993.918368</ele>
        <time>2022-02-25T10:56:13.519Z</time>
      </trkpt>
      <trkpt lat="38.52965" lon="37.57191">
        <ele>994.426974</ele>
        <time>2022-02-25T10:56:19.873Z</time>
      </trkpt>
      <trkpt lat="38.52999" lon="37.57117">
        <ele>996.771288</ele>
        <time>2022-02-25T10:56:50.933Z</time>
      </trkpt>
      <trkpt lat="38.5301" lon="37.57079">
        <ele>997.874567</ele>
        <time>2022-02-25T10:57:06.351Z</time>
      </trkpt>
      <trkpt lat="38.53015" lon="37.57011">
        <ele>1000.372202</ele>
        <time>2022-02-25T10:57:33.437Z</time>
      </trkpt>
      <trkpt lat="38.53045" lon="37.56824">
        <ele>1007.530674</ele>
        <time>2022-02-25T10:58:48.594Z</time>
      </trkpt>
      <trkpt lat="38.5305" lon="37.56761">
        <ele>1009.70341</ele>
        <time>2022-02-25T10:59:12.499Z</time>
      </trkpt>
      <trkpt lat="38.5307" lon="37.56661">
        <ele>1013.269905</ele>
        <time>2022-02-25T10:59:50.771Z</time>
      </trkpt>
      <trkpt lat="38.53116" lon="37.56514">
        <ele>1018.561104</ele>
        <time>2022-02-25T11:00:47.759Z</time>
      </trkpt>
      <trkpt lat="38.53139" lon="37.56463">
        <ele>1020.534756</ele>
        <time>2022-02-25T11:01:09.621Z</time>
      </trkpt>
      <trkpt lat="38.53173" lon="37.5642">
        <ele>1022.619898</ele>
        <time>2022-02-25T11:01:32.698Z</time>
      </trkpt>
      <trkpt lat="38.53215" lon="37.56353">
        <ele>1026.077541</ele>
        <time>2022-02-25T11:02:06.040Z</time>
      </trkpt>
      <trkpt lat="38.53242" lon="37.56262">
        <ele>1030.002441</ele>
        <time>2022-02-25T11:02:45.522Z</time>
      </trkpt>
      <trkpt lat="38.53243" lon="37.56214">
        <ele>1032.025211</ele>
        <time>2022-02-25T11:03:05.958Z</time>
      </trkpt>
      <trkpt lat="38.53221" lon="37.56113">
        <ele>1037.190282</ele>
        <time>2022-02-25T11:03:51.459Z</time>
      </trkpt>
      <trkpt lat="38.53222" lon="37.5608">
        <ele>1038.840056</ele>
        <time>2022-02-25T11:04:06.341Z</time>
      </trkpt>
      <trkpt lat="38.53346" lon="37.55861">
        <ele>1053.04374</ele>
        <time>2022-02-25T11:06:12.884Z</time>
      </trkpt>
      <trkpt lat="38.53382" lon="37.55819">
        <ele>1056.346578</ele>
        <time>2022-02-25T11:06:42.046Z</time>
      </trkpt>
      <trkpt lat="38.53442" lon="37.55774">
        <ele>1060.973397</ele>
        <time>2022-02-25T11:07:23.679Z</time>
      </trkpt>
      <trkpt lat="38.53502" lon="37.55687">
        <ele>1067.05381</ele>
        <time>2022-02-25T11:08:16.655Z</time>
      </trkpt>
      <trkpt lat="38.53512" lon="37.55667">
        <ele>1068.151117</ele>
        <time>2022-02-25T11:08:27.349Z</time>
      </trkpt>
      <trkpt lat="38.53518" lon="37.55624">
        <ele>1070.013646</ele>
        <time>2022-02-25T11:08:46.192Z</time>
      </trkpt>
      <trkpt lat="38.53533" lon="37.55594">
        <ele>1071.556309</ele>
        <time>2022-02-25T11:09:01.532Z</time>
      </trkpt>
      <trkpt lat="38.53563" lon="37.5557">
        <ele>1073.50502</ele>
        <time>2022-02-25T11:09:20.593Z</time>
      </trkpt>
      <trkpt lat="38.53599" lon="37.55558">
        <ele>1075.565877</ele>
        <time>2022-02-25T11:09:40.080Z</time>
      </trkpt>
      <trkpt lat="38.53617" lon="37.55536">
        <ele>1076.918836</ele>
        <time>2022-02-25T11:09:52.284Z</time>
      </trkpt>
      <trkpt lat="38.53643" lon="37.55489">
        <ele>1078.655361</ele>
        <time>2022-02-25T11:10:14.119Z</time>
      </trkpt>
      <trkpt lat="38.53671" lon="37.55464">
        <ele>1079.822066</ele>
        <time>2022-02-25T11:10:29.465Z</time>
      </trkpt>
      <trkpt lat="38.53706" lon="37.55448">
        <ele>1081.107321</ele>
        <time>2022-02-25T11:10:45.545Z</time>
      </trkpt>
      <trkpt lat="38.53792" lon="37.55422">
        <ele>1083.874331</ele>
        <time>2022-02-25T11:11:20.049Z</time>
      </trkpt>
      <trkpt lat="38.53818" lon="37.55401">
        <ele>1084.456727</ele>
        <time>2022-02-25T11:11:31.109Z</time>
      </trkpt>
      <trkpt lat="38.53843" lon="37.55367">
        <ele>1085.158139</ele>
        <time>2022-02-25T11:11:44.062Z</time>
      </trkpt>
      <trkpt lat="38.53855" lon="37.55262">
        <ele>1086.753109</ele>
        <time>2022-02-25T11:12:13.116Z</time>
      </trkpt>
      <trkpt lat="38.53882" lon="37.55107">
        <ele>1088.480186</ele>
        <time>2022-02-25T11:12:55.974Z</time>
      </trkpt>
      <trkpt lat="38.53896" lon="37.54833">
        <ele>1089.975743</ele>
        <time>2022-02-25T11:14:02.315Z</time>
      </trkpt>
      <trkpt lat="38.53913" lon="37.54697">
        <ele>1088.473172</ele>
        <time>2022-02-25T11:14:26.750Z</time>
      </trkpt>
      <trkpt lat="38.53917" lon="37.54627">
        <ele>1087.268045</ele>
        <time>2022-02-25T11:14:37.968Z</time>
      </trkpt>
      <trkpt lat="38.53924" lon="37.54593">
        <ele>1086.683476</ele>
        <time>2022-02-25T11:14:43.225Z</time>
      </trkpt>
      <trkpt lat="38.5396" lon="37.5452">
        <ele>1084.255988</ele>
        <time>2022-02-25T11:14:56.261Z</time>
      </trkpt>
      <trkpt lat="38.54006" lon="37.54398">
        <ele>1079.709073</ele>
        <time>2022-02-25T11:15:15.864Z</time>
      </trkpt>
      <trkpt lat="38.54042" lon="37.54326">
        <ele>1076.297204</ele>
        <time>2022-02-25T11:15:27.989Z</time>
      </trkpt>
      <trkpt lat="38.54048" lon="37.54271">
        <ele>1073.831127</ele>
        <time>2022-02-25T11:15:35.752Z</time>
      </trkpt>
      <trkpt lat="38.54062" lon="37.54238">
        <ele>1072.196559</ele>
        <time>2022-02-25T11:15:40.856Z</time>
      </trkpt>
      <trkpt lat="38.54103" lon="37.542">
        <ele>1069.348387</ele>
        <time>2022-02-25T11:15:49.713Z</time>
      </trkpt>
      <trkpt lat="38.54117" lon="37.54167">
        <ele>1067.680061</ele>
        <time>2022-02-25T11:15:54.935Z</time>
      </trkpt>
      <trkpt lat="38.54129" lon="37.54094">
        <ele>1064.493822</ele>
        <time>2022-02-25T11:16:05.165Z</time>
      </trkpt>
      <trkpt lat="38.54132" lon="37.54016">
        <ele>1061.172945</ele>
        <time>2022-02-25T11:16:15.963Z</time>
      </trkpt>
      <trkpt lat="38.54143" lon="37.53928">
        <ele>1057.657282</ele>
        <time>2022-02-25T11:16:28.740Z</time>
      </trkpt>
      <trkpt lat="38.54152" lon="37.53892">
        <ele>1056.513353</ele>
        <time>2022-02-25T11:16:34.180Z</time>
      </trkpt>
      <trkpt lat="38.5415" lon="37.53861">
        <ele>1055.548599</ele>
        <time>2022-02-25T11:16:38.824Z</time>
      </trkpt>
      <trkpt lat="38.54141" lon="37.5384">
        <ele>1054.814542</ele>
        <time>2022-02-25T11:16:42.360Z</time>
      </trkpt>
      <trkpt lat="38.54105" lon="37.53807">
        <ele>1053.095817</ele>
        <time>2022-02-25T11:16:50.780Z</time>
      </trkpt>
      <trkpt lat="38.54069" lon="37.537">
        <ele>1049.770287</ele>
        <time>2022-02-25T11:17:08.633Z</time>
      </trkpt>
      <trkpt lat="38.54057" lon="37.53642">
        <ele>1048.190815</ele>
        <time>2022-02-25T11:17:17.745Z</time>
      </trkpt>
      <trkpt lat="38.54062" lon="37.53551">
        <ele>1045.791388</ele>
        <time>2022-02-25T11:17:31.497Z</time>
      </trkpt>
      <trkpt lat="38.54051" lon="37.53498">
        <ele>1044.450689</ele>
        <time>2022-02-25T11:17:39.787Z</time>
      </trkpt>
      <trkpt lat="38.5401" lon="37.53422">
        <ele>1042.241925</ele>
        <time>2022-02-25T11:17:54.031Z</time>
      </trkpt>
      <trkpt lat="38.53972" lon="37.5327">
        <ele>1038.661549</ele>
        <time>2022-02-25T11:18:18.861Z</time>
      </trkpt>
      <trkpt lat="38.5397" lon="37.53208">
        <ele>1037.392978</ele>
        <time>2022-02-25T11:18:28.746Z</time>
      </trkpt>
      <trkpt lat="38.53954" lon="37.53085">
        <ele>1034.842106</ele>
        <time>2022-02-25T11:18:48.617Z</time>
      </trkpt>
      <trkpt lat="38.53907" lon="37.52915">
        <ele>1031.182462</ele>
        <time>2022-02-25T11:19:16.930Z</time>
      </trkpt>
      <trkpt lat="38.53859" lon="37.52799">
        <ele>1029.303605</ele>
        <time>2022-02-25T11:19:37.996Z</time>
      </trkpt>
      <trkpt lat="38.53825" lon="37.52598">
        <ele>1028.036891</ele>
        <time>2022-02-25T11:20:15.819Z</time>
      </trkpt>
      <trkpt lat="38.53825" lon="37.52556">
        <ele>1028.231103</ele>
        <time>2022-02-25T11:20:25.982Z</time>
      </trkpt>
      <trkpt lat="38.53851" lon="37.52421">
        <ele>1028.90825</ele>
        <time>2022-02-25T11:21:02.668Z</time>
      </trkpt>
      <trkpt lat="38.53851" lon="37.52366">
        <ele>1029.222802</ele>
        <time>2022-02-25T11:21:18.084Z</time>
      </trkpt>
      <trkpt lat="38.53829" lon="37.52165">
        <ele>1029.425834</ele>
        <time>2022-02-25T11:22:02.870Z</time>
      </trkpt>
      <trkpt lat="38.53827" lon="37.51892">
        <ele>1025.953738</ele>
        <time>2022-02-25T11:22:46.989Z</time>
      </trkpt>
      <trkpt lat="38.53831" lon="37.51816">
        <ele>1025.001939</ele>
        <time>2022-02-25T11:22:59.848Z</time>
      </trkpt>
      <trkpt lat="38.53857" lon="37.51739">
        <ele>1024.4739</ele>
        <time>2022-02-25T11:23:15.557Z</time>
      </trkpt>
      <trkpt lat="38.5386" lon="37.51707">
        <ele>1024.719907</ele>
        <time>2022-02-25T11:23:22.279Z</time>
      </trkpt>
      <trkpt lat="38.53883" lon="37.51691">
        <ele>1024.976738</ele>
        <time>2022-02-25T11:23:29.785Z</time>
      </trkpt>
      <trkpt lat="38.53956" lon="37.51587">
        <ele>1026.064429</ele>
        <time>2022-02-25T11:24:07.157Z</time>
      </trkpt>
      <trkpt lat="38.53985" lon="37.51536">
        <ele>1027.552003</ele>
        <time>2022-02-25T11:24:26.595Z</time>
      </trkpt>
      <trkpt lat="38.54019" lon="37.51505">
        <ele>1028.811661</ele>
        <time>2022-02-25T11:24:44.003Z</time>
      </trkpt>
      <trkpt lat="38.54058" lon="37.51436">
        <ele>1030.815019</ele>
        <time>2022-02-25T11:25:12.722Z</time>
      </trkpt>
      <trkpt lat="38.54069" lon="37.51394">
        <ele>1031.903647</ele>
        <time>2022-02-25T11:25:27.789Z</time>
      </trkpt>
      <trkpt lat="38.54087" lon="37.51376">
        <ele>1032.674326</ele>
        <time>2022-02-25T11:25:37.715Z</time>
      </trkpt>
      <trkpt lat="38.54129" lon="37.51346">
        <ele>1034.30413</ele>
        <time>2022-02-25T11:25:58.484Z</time>
      </trkpt>
      <trkpt lat="38.54188" lon="37.51281">
        <ele>1036.963145</ele>
        <time>2022-02-25T11:26:31.879Z</time>
      </trkpt>
      <trkpt lat="38.54244" lon="37.5125">
        <ele>1039.034554</ele>
        <time>2022-02-25T11:26:57.837Z</time>
      </trkpt>
      <trkpt lat="38.54305" lon="37.51197">
        <ele>1041.52624</ele>
        <time>2022-02-25T11:27:29.387Z</time>
      </trkpt>
      <trkpt lat="38.54375" lon="37.51205">
        <ele>1043.847354</ele>
        <time>2022-02-25T11:28:00.215Z</time>
      </trkpt>
      <trkpt lat="38.54407" lon="37.51226">
        <ele>1044.868265</ele>
        <time>2022-02-25T11:28:15.937Z</time>
      </trkpt>
      <trkpt lat="38.54461" lon="37.5128">
        <ele>1046.819406</ele>
        <time>2022-02-25T11:28:45.134Z</time>
      </trkpt>
      <trkpt lat="38.54562" lon="37.51351">
        <ele>1048.732724</ele>
        <time>2022-02-25T11:29:27.459Z</time>
      </trkpt>
      <trkpt lat="38.54749" lon="37.51377">
        <ele>1046.88952</ele>
        <time>2022-02-25T11:30:11.825Z</time>
      </trkpt>
      <trkpt lat="38.54796" lon="37.51368">
        <ele>1045.364251</ele>
        <time>2022-02-25T11:30:20.858Z</time>
      </trkpt>
      <trkpt lat="38.54855" lon="37.51347">
        <ele>1043.36798</ele>
        <time>2022-02-25T11:30:32.175Z</time>
      </trkpt>
      <trkpt lat="38.54895" lon="37.51314">
        <ele>1041.227493</ele>
        <time>2022-02-25T11:30:40.663Z</time>
      </trkpt>
      <trkpt lat="38.54937" lon="37.51264">
        <ele>1038.297158</ele>
        <time>2022-02-25T11:30:50.733Z</time>
      </trkpt>
      <trkpt lat="38.5496" lon="37.51228">
        <ele>1036.381188</ele>
        <time>2022-02-25T11:30:57.401Z</time>
      </trkpt>
      <trkpt lat="38.54977" lon="37.51186">
        <ele>1034.499183</ele>
        <time>2022-02-25T11:31:04.040Z</time>
      </trkpt>
      <trkpt lat="38.54994" lon="37.51074">
        <ele>1031.989631</ele>
        <time>2022-02-25T11:31:20.923Z</time>
      </trkpt>
      <trkpt lat="38.54997" lon="37.51022">
        <ele>1031.081645</ele>
        <time>2022-02-25T11:31:29.070Z</time>
      </trkpt>
      <trkpt lat="38.54984" lon="37.50897">
        <ele>1029.975458</ele>
        <time>2022-02-25T11:31:54.945Z</time>
      </trkpt>
      <trkpt lat="38.54983" lon="37.50886">
        <ele>1030.091743</ele>
        <time>2022-02-25T11:31:57.232Z</time>
      </trkpt>
      <trkpt lat="38.54978" lon="37.50835">
        <ele>1030.613426</ele>
        <time>2022-02-25T11:32:10.185Z</time>
      </trkpt>
      <trkpt lat="38.54982" lon="37.50823">
        <ele>1030.754187</ele>
        <time>2022-02-25T11:32:15.001Z</time>
      </trkpt>
      <trkpt lat="38.55001" lon="37.50809">
        <ele>1031.033964</ele>
        <time>2022-02-25T11:32:21.580Z</time>
      </trkpt>
      <trkpt lat="38.55058" lon="37.50747">
        <ele>1032.024248</ele>
        <time>2022-02-25T11:32:49.473Z</time>
      </trkpt>
      <trkpt lat="38.55139" lon="37.50607">
        <ele>1033.989337</ele>
        <time>2022-02-25T11:33:38.339Z</time>
      </trkpt>
      <trkpt lat="38.55228" lon="37.50483">
        <ele>1034.436492</ele>
        <time>2022-02-25T11:34:13.088Z</time>
      </trkpt>
      <trkpt lat="38.5525" lon="37.50433">
        <ele>1034.399888</ele>
        <time>2022-02-25T11:34:24.037Z</time>
      </trkpt>
      <trkpt lat="38.55254" lon="37.5042">
        <ele>1034.391188</ele>
        <time>2022-02-25T11:34:26.363Z</time>
      </trkpt>
      <trkpt lat="38.55295" lon="37.5029">
        <ele>1034.715788</ele>
        <time>2022-02-25T11:34:56.332Z</time>
      </trkpt>
      <trkpt lat="38.55298" lon="37.50281">
        <ele>1034.748963</ele>
        <time>2022-02-25T11:34:59.244Z</time>
      </trkpt>
      <trkpt lat="38.55333" lon="37.50173">
        <ele>1035.146418</ele>
        <time>2022-02-25T11:35:26.598Z</time>
      </trkpt>
      <trkpt lat="38.55355" lon="37.50106">
        <ele>1034.871341</ele>
        <time>2022-02-25T11:35:44.433Z</time>
      </trkpt>
      <trkpt lat="38.55397" lon="37.49989">
        <ele>1034.378282</ele>
        <time>2022-02-25T11:36:09.570Z</time>
      </trkpt>
      <trkpt lat="38.55441" lon="37.4985">
        <ele>1031.511248</ele>
        <time>2022-02-25T11:36:32.634Z</time>
      </trkpt>
      <trkpt lat="38.55419" lon="37.49843">
        <ele>1030.84722</ele>
        <time>2022-02-25T11:36:37.188Z</time>
      </trkpt>
      <trkpt lat="38.55403" lon="37.49841">
        <ele>1030.382515</ele>
        <time>2022-02-25T11:36:40.553Z</time>
      </trkpt>
      <trkpt lat="38.55374" lon="37.49815">
        <ele>1029.351093</ele>
        <time>2022-02-25T11:36:47.817Z</time>
      </trkpt>
      <trkpt lat="38.5539" lon="37.49777">
        <ele>1028.654897</ele>
        <time>2022-02-25T11:36:54.848Z</time>
      </trkpt>
      <trkpt lat="38.55418" lon="37.4972">
        <ele>1027.802565</ele>
        <time>2022-02-25T11:37:05.788Z</time>
      </trkpt>
      <trkpt lat="38.55437" lon="37.49693">
        <ele>1027.342747</ele>
        <time>2022-02-25T11:37:12.123Z</time>
      </trkpt>
      <trkpt lat="38.55501" lon="37.49573">
        <ele>1026.19095</ele>
        <time>2022-02-25T11:37:42.222Z</time>
      </trkpt>
      <trkpt lat="38.55581" lon="37.49445">
        <ele>1026.497014</ele>
        <time>2022-02-25T11:38:20.648Z</time>
      </trkpt>
      <trkpt lat="38.55623" lon="37.49407">
        <ele>1026.695689</ele>
        <time>2022-02-25T11:38:35.842Z</time>
      </trkpt>
      <trkpt lat="38.55652" lon="37.49371">
        <ele>1026.877634</ele>
        <time>2022-02-25T11:38:47.512Z</time>
      </trkpt>
      <trkpt lat="38.55659" lon="37.49351">
        <ele>1026.953739</ele>
        <time>2022-02-25T11:38:52.635Z</time>
      </trkpt>
      <trkpt lat="38.55668" lon="37.49322">
        <ele>1027.060187</ele>
        <time>2022-02-25T11:38:59.274Z</time>
      </trkpt>
      <trkpt lat="38.55695" lon="37.49274">
        <ele>1027.269767</ele>
        <time>2022-02-25T11:39:13.737Z</time>
      </trkpt>
      <trkpt lat="38.55713" lon="37.49264">
        <ele>1027.432224</ele>
        <time>2022-02-25T11:39:19.463Z</time>
      </trkpt>
      <trkpt lat="38.55692" lon="37.49196">
        <ele>1028.681497</ele>
        <time>2022-02-25T11:39:38.311Z</time>
      </trkpt>
      <trkpt lat="38.55689" lon="37.49186">
        <ele>1028.850276</ele>
        <time>2022-02-25T11:39:41.105Z</time>
      </trkpt>
      <trkpt lat="38.55683" lon="37.49161">
        <ele>1029.296418</ele>
        <time>2022-02-25T11:39:48.713Z</time>
      </trkpt>
      <trkpt lat="38.55681" lon="37.49154">
        <ele>1029.430624</ele>
        <time>2022-02-25T11:39:50.871Z</time>
      </trkpt>
      <trkpt lat="38.55659" lon="37.49073">
        <ele>1030.881669</ele>
        <time>2022-02-25T11:40:17.290Z</time>
      </trkpt>
      <trkpt lat="38.55655" lon="37.49059">
        <ele>1031.129344</ele>
        <time>2022-02-25T11:40:21.885Z</time>
      </trkpt>
      <trkpt lat="38.55666" lon="37.49035">
        <ele>1032.006951</ele>
        <time>2022-02-25T11:40:31.814Z</time>
      </trkpt>
      <trkpt lat="38.55676" lon="37.49026">
        <ele>1032.548673</ele>
        <time>2022-02-25T11:40:38.427Z</time>
      </trkpt>
      <trkpt lat="38.55696" lon="37.49017">
        <ele>1033.50319</ele>
        <time>2022-02-25T11:40:48.750Z</time>
      </trkpt>
      <trkpt lat="38.55713" lon="37.48978">
        <ele>1035.025934</ele>
        <time>2022-02-25T11:41:05.916Z</time>
      </trkpt>
      <trkpt lat="38.55775" lon="37.48922">
        <ele>1038.365119</ele>
        <time>2022-02-25T11:41:43.861Z</time>
      </trkpt>
      <trkpt lat="38.55781" lon="37.48913">
        <ele>1038.813482</ele>
        <time>2022-02-25T11:41:50.017Z</time>
      </trkpt>
      <trkpt lat="38.55798" lon="37.48914">
        <ele>1039.582135</ele>
        <time>2022-02-25T11:41:58.464Z</time>
      </trkpt>
      <trkpt lat="38.55873" lon="37.48889">
        <ele>1043.159081</ele>
        <time>2022-02-25T11:42:36.908Z</time>
      </trkpt>
      <trkpt lat="38.55899" lon="37.4888">
        <ele>1044.420906</ele>
        <time>2022-02-25T11:42:51.422Z</time>
      </trkpt>
      <trkpt lat="38.55957" lon="37.48832">
        <ele>1047.637818</ele>
        <time>2022-02-25T11:43:25.679Z</time>
      </trkpt>
      <trkpt lat="38.55962" lon="37.48805">
        <ele>1048.328156</ele>
        <time>2022-02-25T11:43:35.620Z</time>
      </trkpt>
      <trkpt lat="38.55972" lon="37.48785">
        <ele>1048.92583</ele>
        <time>2022-02-25T11:43:44.570Z</time>
      </trkpt>
      <trkpt lat="38.55993" lon="37.48754">
        <ele>1049.939024</ele>
        <time>2022-02-25T11:43:59.394Z</time>
      </trkpt>
      <trkpt lat="38.56012" lon="37.48716">
        <ele>1051.094624</ele>
        <time>2022-02-25T11:44:15.040Z</time>
      </trkpt>
      <trkpt lat="38.5603" lon="37.48702">
        <ele>1051.738926</ele>
        <time>2022-02-25T11:44:23.461Z</time>
      </trkpt>
      <trkpt lat="38.56061" lon="37.48691">
        <ele>1052.785173</ele>
        <time>2022-02-25T11:44:36.608Z</time>
      </trkpt>
      <trkpt lat="38.56153" lon="37.48649">
        <ele>1053.985862</ele>
        <time>2022-02-25T11:45:10.860Z</time>
      </trkpt>
      <trkpt lat="38.56177" lon="37.48627">
        <ele>1054.228581</ele>
        <time>2022-02-25T11:45:20.405Z</time>
      </trkpt>
      <trkpt lat="38.56185" lon="37.48617">
        <ele>1054.314878</ele>
        <time>2022-02-25T11:45:23.585Z</time>
      </trkpt>
      <trkpt lat="38.56194" lon="37.48606">
        <ele>1054.419802</ele>
        <time>2022-02-25T11:45:27.282Z</time>
      </trkpt>
      <trkpt lat="38.56303" lon="37.48425">
        <ele>1054.215469</ele>
        <time>2022-02-25T11:46:13.837Z</time>
      </trkpt>
      <trkpt lat="38.56317" lon="37.48411">
        <ele>1054.138729</ele>
        <time>2022-02-25T11:46:18.300Z</time>
      </trkpt>
      <trkpt lat="38.56379" lon="37.48365">
        <ele>1053.667641</ele>
        <time>2022-02-25T11:46:36.518Z</time>
      </trkpt>
      <trkpt lat="38.56443" lon="37.48322">
        <ele>1053.08185</ele>
        <time>2022-02-25T11:46:54.483Z</time>
      </trkpt>
      <trkpt lat="38.56496" lon="37.48297">
        <ele>1052.624086</ele>
        <time>2022-02-25T11:47:08.186Z</time>
      </trkpt>
      <trkpt lat="38.56525" lon="37.48298">
        <ele>1052.502668</ele>
        <time>2022-02-25T11:47:15.097Z</time>
      </trkpt>
      <trkpt lat="38.56569" lon="37.48315">
        <ele>1052.383269</ele>
        <time>2022-02-25T11:47:26.531Z</time>
      </trkpt>
      <trkpt lat="38.56569" lon="37.48335">
        <ele>1052.342575</ele>
        <time>2022-02-25T11:47:30.212Z</time>
      </trkpt>
      <trkpt lat="38.56575" lon="37.48352">
        <ele>1052.30429</ele>
        <time>2022-02-25T11:47:34.179Z</time>
      </trkpt>
      <trkpt lat="38.56618" lon="37.48402">
        <ele>1052.153074</ele>
        <time>2022-02-25T11:47:49.168Z</time>
      </trkpt>
      <trkpt lat="38.56636" lon="37.48424">
        <ele>1052.087059</ele>
        <time>2022-02-25T11:47:57.374Z</time>
      </trkpt>
      <trkpt lat="38.56684" lon="37.48495">
        <ele>1054.016496</ele>
        <time>2022-02-25T11:48:24.013Z</time>
      </trkpt>
      <trkpt lat="38.56701" lon="37.48511">
        <ele>1054.572363</ele>
        <time>2022-02-25T11:48:32.519Z</time>
      </trkpt>
      <trkpt lat="38.56714" lon="37.48524">
        <ele>1055.009561</ele>
        <time>2022-02-25T11:48:39.488Z</time>
      </trkpt>
      <trkpt lat="38.56723" lon="37.48534">
        <ele>1055.331096</ele>
        <time>2022-02-25T11:48:44.662Z</time>
      </trkpt>
      <trkpt lat="38.56748" lon="37.48487">
        <ele>1056.508091</ele>
        <time>2022-02-25T11:49:04.409Z</time>
      </trkpt>
      <trkpt lat="38.56822" lon="37.48337">
        <ele>1062.806427</ele>
        <time>2022-02-25T11:50:11.923Z</time>
      </trkpt>
      <trkpt lat="38.56848" lon="37.48273">
        <ele>1065.519428</ele>
        <time>2022-02-25T11:50:39.874Z</time>
      </trkpt>
      <trkpt lat="38.56885" lon="37.48138">
        <ele>1073.387147</ele>
        <time>2022-02-25T11:51:43.974Z</time>
      </trkpt>
      <trkpt lat="38.569" lon="37.48055">
        <ele>1078.103785</ele>
        <time>2022-02-25T11:52:28.066Z</time>
      </trkpt>
      <trkpt lat="38.56907" lon="37.4796">
        <ele>1084.79078</ele>
        <time>2022-02-25T11:53:22.917Z</time>
      </trkpt>
      <trkpt lat="38.56903" lon="37.47825">
        <ele>1094.271604</ele>
        <time>2022-02-25T11:54:38.134Z</time>
      </trkpt>
      <trkpt lat="38.56902" lon="37.47799">
        <ele>1095.350055</ele>
        <time>2022-02-25T11:54:52.153Z</time>
      </trkpt>
      <trkpt lat="38.56894" lon="37.47741">
        <ele>1097.850818</ele>
        <time>2022-02-25T11:55:18.611Z</time>
      </trkpt>
      <trkpt lat="38.5684" lon="37.47451">
        <ele>1108.915446</ele>
        <time>2022-02-25T11:57:04.850Z</time>
      </trkpt>
      <trkpt lat="38.56828" lon="37.47344">
        <ele>1112.859971</ele>
        <time>2022-02-25T11:57:44.466Z</time>
      </trkpt>
      <trkpt lat="38.56835" lon="37.47207">
        <ele>1119.225863</ele>
        <time>2022-02-25T11:58:43.056Z</time>
      </trkpt>
      <trkpt lat="38.56876" lon="37.46918">
        <ele>1135.169634</ele>
        <time>2022-02-25T12:01:05.258Z</time>
      </trkpt>
      <trkpt lat="38.56875" lon="37.46806">
        <ele>1140.785219</ele>
        <time>2022-02-25T12:01:57.533Z</time>
      </trkpt>
      <trkpt lat="38.56854" lon="37.46702">
        <ele>1146.162339</ele>
        <time>2022-02-25T12:02:44.182Z</time>
      </trkpt>
      <trkpt lat="38.56809" lon="37.46579">
        <ele>1152.193942</ele>
        <time>2022-02-25T12:03:40.023Z</time>
      </trkpt>
      <trkpt lat="38.56788" lon="37.46488">
        <ele>1156.380961</ele>
        <time>2022-02-25T12:04:18.851Z</time>
      </trkpt>
      <trkpt lat="38.56785" lon="37.46461">
        <ele>1157.830135</ele>
        <time>2022-02-25T12:04:31.076Z</time>
      </trkpt>
      <trkpt lat="38.56787" lon="37.46394">
        <ele>1161.507163</ele>
        <time>2022-02-25T12:05:03.092Z</time>
      </trkpt>
      <trkpt lat="38.56802" lon="37.46314">
        <ele>1166.069654</ele>
        <time>2022-02-25T12:05:42.432Z</time>
      </trkpt>
      <trkpt lat="38.56805" lon="37.46299">
        <ele>1166.955828</ele>
        <time>2022-02-25T12:05:51.397Z</time>
      </trkpt>
      <trkpt lat="38.56809" lon="37.46295">
        <ele>1167.280439</ele>
        <time>2022-02-25T12:05:54.182Z</time>
      </trkpt>
      <trkpt lat="38.56812" lon="37.46291">
        <ele>1167.602709</ele>
        <time>2022-02-25T12:05:56.966Z</time>
      </trkpt>
      <trkpt lat="38.56813" lon="37.46286">
        <ele>1167.870325</ele>
        <time>2022-02-25T12:05:59.205Z</time>
      </trkpt>
      <trkpt lat="38.56814" lon="37.46281">
        <ele>1168.1379</ele>
        <time>2022-02-25T12:06:01.272Z</time>
      </trkpt>
      <trkpt lat="38.56813" lon="37.46277">
        <ele>1168.399999</ele>
        <time>2022-02-25T12:06:03.217Z</time>
      </trkpt>
      <trkpt lat="38.56826" lon="37.46242">
        <ele>1170.480692</ele>
        <time>2022-02-25T12:06:22.688Z</time>
      </trkpt>
      <trkpt lat="38.56838" lon="37.46208">
        <ele>1172.503671</ele>
        <time>2022-02-25T12:06:41.446Z</time>
      </trkpt>
      <trkpt lat="38.56864" lon="37.46167">
        <ele>1175.287021</ele>
        <time>2022-02-25T12:07:06.884Z</time>
      </trkpt>
      <trkpt lat="38.56885" lon="37.46142">
        <ele>1177.260477</ele>
        <time>2022-02-25T12:07:25.163Z</time>
      </trkpt>
      <trkpt lat="38.56932" lon="37.461">
        <ele>1181.205181</ele>
        <time>2022-02-25T12:07:57.403Z</time>
      </trkpt>
      <trkpt lat="38.5698" lon="37.46073">
        <ele>1183.517442</ele>
        <time>2022-02-25T12:08:23.774Z</time>
      </trkpt>
      <trkpt lat="38.57021" lon="37.46061">
        <ele>1185.195151</ele>
        <time>2022-02-25T12:08:43.509Z</time>
      </trkpt>
      <trkpt lat="38.57086" lon="37.46056">
        <ele>1187.792708</ele>
        <time>2022-02-25T12:09:11.156Z</time>
      </trkpt>
      <trkpt lat="38.57111" lon="37.46062">
        <ele>1188.802988</ele>
        <time>2022-02-25T12:09:21.378Z</time>
      </trkpt>
      <trkpt lat="38.57166" lon="37.46082">
        <ele>1191.123026</ele>
        <time>2022-02-25T12:09:44.281Z</time>
      </trkpt>
      <trkpt lat="38.57226" lon="37.46123">
        <ele>1193.921041</ele>
        <time>2022-02-25T12:10:12.779Z</time>
      </trkpt>
      <trkpt lat="38.57391" lon="37.46254">
        <ele>1206.20862</ele>
        <time>2022-02-25T12:12:02.916Z</time>
      </trkpt>
      <trkpt lat="38.57507" lon="37.4636">
        <ele>1218.901396</ele>
        <time>2022-02-25T12:13:51.179Z</time>
      </trkpt>
      <trkpt lat="38.57611" lon="37.46442">
        <ele>1229.570855</ele>
        <time>2022-02-25T12:15:18.537Z</time>
      </trkpt>
      <trkpt lat="38.57701" lon="37.46498">
        <ele>1236.61421</ele>
        <time>2022-02-25T12:16:16.791Z</time>
      </trkpt>
      <trkpt lat="38.57745" lon="37.46505">
        <ele>1239.659519</ele>
        <time>2022-02-25T12:16:40.667Z</time>
      </trkpt>
      <trkpt lat="38.57805" lon="37.46498">
        <ele>1243.250152</ele>
        <time>2022-02-25T12:17:11.879Z</time>
      </trkpt>
      <trkpt lat="38.57842" lon="37.46477">
        <ele>1245.607</ele>
        <time>2022-02-25T12:17:32.946Z</time>
      </trkpt>
      <trkpt lat="38.57884" lon="37.46437">
        <ele>1248.753237</ele>
        <time>2022-02-25T12:18:02.132Z</time>
      </trkpt>
      <trkpt lat="38.579" lon="37.46416">
        <ele>1250.177818</ele>
        <time>2022-02-25T12:18:15.136Z</time>
      </trkpt>
      <trkpt lat="38.5804" lon="37.46154">
        <ele>1272.521859</ele>
        <time>2022-02-25T12:20:59.284Z</time>
      </trkpt>
      <trkpt lat="38.58103" lon="37.46085">
        <ele>1282.142194</ele>
        <time>2022-02-25T12:22:14.141Z</time>
      </trkpt>
      <trkpt lat="38.5814" lon="37.46063">
        <ele>1287.142103</ele>
        <time>2022-02-25T12:22:54.648Z</time>
      </trkpt>
      <trkpt lat="38.58168" lon="37.46056">
        <ele>1291.027562</ele>
        <time>2022-02-25T12:23:23.473Z</time>
      </trkpt>
      <trkpt lat="38.58213" lon="37.46048">
        <ele>1297.270077</ele>
        <time>2022-02-25T12:24:09.798Z</time>
      </trkpt>
      <trkpt lat="38.58284" lon="37.46059">
        <ele>1306.93342</ele>
        <time>2022-02-25T12:25:17.254Z</time>
      </trkpt>
      <trkpt lat="38.5853" lon="37.46198">
        <ele>1329.305193</ele>
        <time>2022-02-25T12:28:19.829Z</time>
      </trkpt>
      <trkpt lat="38.58666" lon="37.46288">
        <ele>1336.573299</ele>
        <time>2022-02-25T12:29:23.369Z</time>
      </trkpt>
      <trkpt lat="38.58679" lon="37.46293">
        <ele>1337.039526</ele>
        <time>2022-02-25T12:29:28.113Z</time>
      </trkpt>
      <trkpt lat="38.58681" lon="37.46297">
        <ele>1337.188872</ele>
        <time>2022-02-25T12:29:29.887Z</time>
      </trkpt>
      <trkpt lat="38.58685" lon="37.463">
        <ele>1337.337763</ele>
        <time>2022-02-25T12:29:31.494Z</time>
      </trkpt>
      <trkpt lat="38.58689" lon="37.46302">
        <ele>1337.50089</ele>
        <time>2022-02-25T12:29:33.131Z</time>
      </trkpt>
      <trkpt lat="38.58694" lon="37.46301">
        <ele>1337.665146</ele>
        <time>2022-02-25T12:29:34.629Z</time>
      </trkpt>
      <trkpt lat="38.58712" lon="37.46311">
        <ele>1338.366083</ele>
        <time>2022-02-25T12:29:42.646Z</time>
      </trkpt>
      <trkpt lat="38.58851" lon="37.46356">
        <ele>1344.207014</ele>
        <time>2022-02-25T12:30:50.922Z</time>
      </trkpt>
      <trkpt lat="38.58906" lon="37.46356">
        <ele>1346.821325</ele>
        <time>2022-02-25T12:31:18.429Z</time>
      </trkpt>
      <trkpt lat="38.58954" lon="37.46344">
        <ele>1349.174596</ele>
        <time>2022-02-25T12:31:43.388Z</time>
      </trkpt>
      <trkpt lat="38.59139" lon="37.46279">
        <ele>1358.928152</ele>
        <time>2022-02-25T12:33:22.205Z</time>
      </trkpt>
      <trkpt lat="38.59256" lon="37.46253">
        <ele>1364.772598</ele>
        <time>2022-02-25T12:34:22.140Z</time>
      </trkpt>
      <trkpt lat="38.59605" lon="37.46221">
        <ele>1382.181181</ele>
        <time>2022-02-25T12:37:17.073Z</time>
      </trkpt>
      <trkpt lat="38.59663" lon="37.4622">
        <ele>1385.204172</ele>
        <time>2022-02-25T12:37:47.720Z</time>
      </trkpt>
      <trkpt lat="38.59721" lon="37.46228">
        <ele>1388.720105</ele>
        <time>2022-02-25T12:38:19.689Z</time>
      </trkpt>
      <trkpt lat="38.59977" lon="37.46316">
        <ele>1406.240573</ele>
        <time>2022-02-25T12:40:54.189Z</time>
      </trkpt>
      <trkpt lat="38.6003" lon="37.46352">
        <ele>1410.430909</ele>
        <time>2022-02-25T12:41:32.458Z</time>
      </trkpt>
      <trkpt lat="38.60057" lon="37.4638">
        <ele>1412.826176</ele>
        <time>2022-02-25T12:41:54.608Z</time>
      </trkpt>
      <trkpt lat="38.60088" lon="37.46442">
        <ele>1416.768424</ele>
        <time>2022-02-25T12:42:31.146Z</time>
      </trkpt>
      <trkpt lat="38.60107" lon="37.466">
        <ele>1423.799806</ele>
        <time>2022-02-25T12:43:41.782Z</time>
      </trkpt>
      <trkpt lat="38.60128" lon="37.4666">
        <ele>1425.353861</ele>
        <time>2022-02-25T12:44:04.202Z</time>
      </trkpt>
      <trkpt lat="38.60149" lon="37.46699">
        <ele>1426.472007</ele>
        <time>2022-02-25T12:44:17.838Z</time>
      </trkpt>
      <trkpt lat="38.60169" lon="37.46721">
        <ele>1427.250975</ele>
        <time>2022-02-25T12:44:26.287Z</time>
      </trkpt>
      <trkpt lat="38.60199" lon="37.46746">
        <ele>1427.94121</ele>
        <time>2022-02-25T12:44:36.814Z</time>
      </trkpt>
      <trkpt lat="38.60218" lon="37.46754">
        <ele>1427.840789</ele>
        <time>2022-02-25T12:44:41.911Z</time>
      </trkpt>
      <trkpt lat="38.6029" lon="37.46765">
        <ele>1427.478412</ele>
        <time>2022-02-25T12:44:58.823Z</time>
      </trkpt>
      <trkpt lat="38.60638" lon="37.46772">
        <ele>1426.468708</ele>
        <time>2022-02-25T12:46:22.422Z</time>
      </trkpt>
      <trkpt lat="38.60812" lon="37.46793">
        <ele>1428.964011</ele>
        <time>2022-02-25T12:47:25.760Z</time>
      </trkpt>
      <trkpt lat="38.61066" lon="37.46795">
        <ele>1435.194504</ele>
        <time>2022-02-25T12:49:04.096Z</time>
      </trkpt>
      <trkpt lat="38.61145" lon="37.46787">
        <ele>1436.475711</ele>
        <time>2022-02-25T12:49:36.297Z</time>
      </trkpt>
      <trkpt lat="38.61176" lon="37.46774">
        <ele>1436.898252</ele>
        <time>2022-02-25T12:49:48.179Z</time>
      </trkpt>
      <trkpt lat="38.61206" lon="37.46746">
        <ele>1437.383649</ele>
        <time>2022-02-25T12:50:00.722Z</time>
      </trkpt>
      <trkpt lat="38.61244" lon="37.46682">
        <ele>1437.602965</ele>
        <time>2022-02-25T12:50:17.887Z</time>
      </trkpt>
      <trkpt lat="38.61303" lon="37.46564">
        <ele>1433.825011</ele>
        <time>2022-02-25T12:50:39.186Z</time>
      </trkpt>
      <trkpt lat="38.61344" lon="37.465">
        <ele>1431.535837</ele>
        <time>2022-02-25T12:50:50.634Z</time>
      </trkpt>
      <trkpt lat="38.61505" lon="37.46343">
        <ele>1424.565502</ele>
        <time>2022-02-25T12:51:28.262Z</time>
      </trkpt>
      <trkpt lat="38.61529" lon="37.46303">
        <ele>1424.991209</ele>
        <time>2022-02-25T12:51:40.052Z</time>
      </trkpt>
      <trkpt lat="38.61545" lon="37.46265">
        <ele>1425.365913</ele>
        <time>2022-02-25T12:51:52.502Z</time>
      </trkpt>
      <trkpt lat="38.61557" lon="37.46213">
        <ele>1425.820282</ele>
        <time>2022-02-25T12:52:10.500Z</time>
      </trkpt>
      <trkpt lat="38.61559" lon="37.46159">
        <ele>1426.281805</ele>
        <time>2022-02-25T12:52:30.318Z</time>
      </trkpt>
      <trkpt lat="38.61555" lon="37.46117">
        <ele>1426.623702</ele>
        <time>2022-02-25T12:52:45.279Z</time>
      </trkpt>
      <trkpt lat="38.6153" lon="37.46023">
        <ele>1427.424827</ele>
        <time>2022-02-25T12:53:14.104Z</time>
      </trkpt>
      <trkpt lat="38.61482" lon="37.4588">
        <ele>1425.388022</ele>
        <time>2022-02-25T12:53:39.518Z</time>
      </trkpt>
      <trkpt lat="38.61479" lon="37.45809">
        <ele>1422.958634</ele>
        <time>2022-02-25T12:53:49.366Z</time>
      </trkpt>
      <trkpt lat="38.61489" lon="37.45756">
        <ele>1421.079752</ele>
        <time>2022-02-25T12:53:56.839Z</time>
      </trkpt>
      <trkpt lat="38.615" lon="37.45725">
        <ele>1419.819317</ele>
        <time>2022-02-25T12:54:01.626Z</time>
      </trkpt>
      <trkpt lat="38.61567" lon="37.45586">
        <ele>1412.968192</ele>
        <time>2022-02-25T12:54:24.269Z</time>
      </trkpt>
      <trkpt lat="38.61618" lon="37.45437">
        <ele>1407.254486</ele>
        <time>2022-02-25T12:54:47.584Z</time>
      </trkpt>
      <trkpt lat="38.61639" lon="37.45365">
        <ele>1404.89832</ele>
        <time>2022-02-25T12:54:58.872Z</time>
      </trkpt>
      <trkpt lat="38.61642" lon="37.45362">
        <ele>1404.718415</ele>
        <time>2022-02-25T12:54:59.750Z</time>
      </trkpt>
      <trkpt lat="38.61645" lon="37.45358">
        <ele>1404.538221</ele>
        <time>2022-02-25T12:55:00.642Z</time>
      </trkpt>
      <trkpt lat="38.61647" lon="37.45352">
        <ele>1404.359468</ele>
        <time>2022-02-25T12:55:01.560Z</time>
      </trkpt>
      <trkpt lat="38.61647" lon="37.45346">
        <ele>1404.180236</ele>
        <time>2022-02-25T12:55:02.493Z</time>
      </trkpt>
      <trkpt lat="38.61654" lon="37.45326">
        <ele>1403.479051</ele>
        <time>2022-02-25T12:55:05.857Z</time>
      </trkpt>
      <trkpt lat="38.61699" lon="37.45238">
        <ele>1402.336465</ele>
        <time>2022-02-25T12:55:22.705Z</time>
      </trkpt>
      <trkpt lat="38.61748" lon="37.4519">
        <ele>1401.574091</ele>
        <time>2022-02-25T12:55:36.773Z</time>
      </trkpt>
      <trkpt lat="38.61931" lon="37.45103">
        <ele>1402.489166</ele>
        <time>2022-02-25T12:56:38.273Z</time>
      </trkpt>
      <trkpt lat="38.61968" lon="37.45076">
        <ele>1402.909051</ele>
        <time>2022-02-25T12:56:51.839Z</time>
      </trkpt>
      <trkpt lat="38.62028" lon="37.45014">
        <ele>1403.718116</ele>
        <time>2022-02-25T12:57:15.469Z</time>
      </trkpt>
      <trkpt lat="38.62052" lon="37.44996">
        <ele>1404.016473</ele>
        <time>2022-02-25T12:57:24.212Z</time>
      </trkpt>
      <trkpt lat="38.62101" lon="37.44978">
        <ele>1404.551326</ele>
        <time>2022-02-25T12:57:40.301Z</time>
      </trkpt>
      <trkpt lat="38.62156" lon="37.44978">
        <ele>1405.705111</ele>
        <time>2022-02-25T12:57:59.253Z</time>
      </trkpt>
      <trkpt lat="38.62182" lon="37.44986">
        <ele>1406.291986</ele>
        <time>2022-02-25T12:58:08.924Z</time>
      </trkpt>
      <trkpt lat="38.62224" lon="37.45011">
        <ele>1407.315304</ele>
        <time>2022-02-25T12:58:26.604Z</time>
      </trkpt>
      <trkpt lat="38.62267" lon="37.45062">
        <ele>1408.614977</ele>
        <time>2022-02-25T12:58:50.601Z</time>
      </trkpt>
      <trkpt lat="38.62378" lon="37.45268">
        <ele>1413.147843</ele>
        <time>2022-02-25T13:00:07.441Z</time>
      </trkpt>
      <trkpt lat="38.625" lon="37.45458">
        <ele>1414.642857</ele>
        <time>2022-02-25T13:01:01.205Z</time>
      </trkpt>
      <trkpt lat="38.62619" lon="37.45632">
        <ele>1417.15018</ele>
        <time>2022-02-25T13:02:00.096Z</time>
      </trkpt>
      <trkpt lat="38.62655" lon="37.45674">
        <ele>1418.508668</ele>
        <time>2022-02-25T13:02:20.801Z</time>
      </trkpt>
      <trkpt lat="38.62694" lon="37.45704">
        <ele>1419.764936</ele>
        <time>2022-02-25T13:02:40.169Z</time>
      </trkpt>
      <trkpt lat="38.62752" lon="37.45727">
        <ele>1421.377265</ele>
        <time>2022-02-25T13:03:05.692Z</time>
      </trkpt>
      <trkpt lat="38.62807" lon="37.45727">
        <ele>1422.115684</ele>
        <time>2022-02-25T13:03:28.090Z</time>
      </trkpt>
      <trkpt lat="38.63171" lon="37.45645">
        <ele>1424.53068</ele>
        <time>2022-02-25T13:05:14.689Z</time>
      </trkpt>
      <trkpt lat="38.63267" lon="37.45608">
        <ele>1424.57975</ele>
        <time>2022-02-25T13:05:41.076Z</time>
      </trkpt>
      <trkpt lat="38.63306" lon="37.45578">
        <ele>1423.75903</ele>
        <time>2022-02-25T13:05:52.385Z</time>
      </trkpt>
      <trkpt lat="38.63339" lon="37.45534">
        <ele>1422.599907</ele>
        <time>2022-02-25T13:06:03.065Z</time>
      </trkpt>
      <trkpt lat="38.6336" lon="37.45493">
        <ele>1421.668941</ele>
        <time>2022-02-25T13:06:10.991Z</time>
      </trkpt>
      <trkpt lat="38.6338" lon="37.45426">
        <ele>1420.314463</ele>
        <time>2022-02-25T13:06:21.829Z</time>
      </trkpt>
      <trkpt lat="38.63414" lon="37.45237">
        <ele>1410.306302</ele>
        <time>2022-02-25T13:06:48.130Z</time>
      </trkpt>
      <trkpt lat="38.63437" lon="37.45168">
        <ele>1405.574747</ele>
        <time>2022-02-25T13:06:57.776Z</time>
      </trkpt>
      <trkpt lat="38.63471" lon="37.4511">
        <ele>1400.034565</ele>
        <time>2022-02-25T13:07:07.031Z</time>
      </trkpt>
      <trkpt lat="38.63492" lon="37.45086">
        <ele>1397.260534</ele>
        <time>2022-02-25T13:07:11.643Z</time>
      </trkpt>
      <trkpt lat="38.63532" lon="37.45054">
        <ele>1392.626406</ele>
        <time>2022-02-25T13:07:19.330Z</time>
      </trkpt>
      <trkpt lat="38.63594" lon="37.45028">
        <ele>1386.500992</ele>
        <time>2022-02-25T13:07:30.011Z</time>
      </trkpt>
      <trkpt lat="38.63748" lon="37.45028">
        <ele>1372.73066</ele>
        <time>2022-02-25T13:07:55.562Z</time>
      </trkpt>
      <trkpt lat="38.63807" lon="37.45015">
        <ele>1368.343189</ele>
        <time>2022-02-25T13:08:05.580Z</time>
      </trkpt>
      <trkpt lat="38.63853" lon="37.44995">
        <ele>1364.708245</ele>
        <time>2022-02-25T13:08:13.941Z</time>
      </trkpt>
      <trkpt lat="38.64039" lon="37.44886">
        <ele>1350.537187</ele>
        <time>2022-02-25T13:08:49.271Z</time>
      </trkpt>
      <trkpt lat="38.64225" lon="37.44834">
        <ele>1337.259905</ele>
        <time>2022-02-25T13:09:22.188Z</time>
      </trkpt>
      <trkpt lat="38.6427" lon="37.44814">
        <ele>1333.752095</ele>
        <time>2022-02-25T13:09:30.215Z</time>
      </trkpt>
      <trkpt lat="38.64864" lon="37.44458">
        <ele>1283.976929</ele>
        <time>2022-02-25T13:11:21.219Z</time>
      </trkpt>
      <trkpt lat="38.64952" lon="37.44429">
        <ele>1278.914927</ele>
        <time>2022-02-25T13:11:37.577Z</time>
      </trkpt>
      <trkpt lat="38.6504" lon="37.44423">
        <ele>1274.842341</ele>
        <time>2022-02-25T13:11:53.836Z</time>
      </trkpt>
      <trkpt lat="38.65053" lon="37.44425">
        <ele>1274.250497</ele>
        <time>2022-02-25T13:11:56.293Z</time>
      </trkpt>
      <trkpt lat="38.65058" lon="37.44425">
        <ele>1274.03225</ele>
        <time>2022-02-25T13:11:57.201Z</time>
      </trkpt>
      <trkpt lat="38.65062" lon="37.44424">
        <ele>1273.819099</ele>
        <time>2022-02-25T13:11:58.116Z</time>
      </trkpt>
      <trkpt lat="38.65079" lon="37.44423">
        <ele>1273.065257</ele>
        <time>2022-02-25T13:12:01.351Z</time>
      </trkpt>
      <trkpt lat="38.65134" lon="37.44427">
        <ele>1271.182702</ele>
        <time>2022-02-25T13:12:11.784Z</time>
      </trkpt>
      <trkpt lat="38.65203" lon="37.44445">
        <ele>1268.733236</ele>
        <time>2022-02-25T13:12:25.251Z</time>
      </trkpt>
      <trkpt lat="38.65261" lon="37.4447">
        <ele>1266.731065</ele>
        <time>2022-02-25T13:12:37.244Z</time>
      </trkpt>
      <trkpt lat="38.65418" lon="37.44564">
        <ele>1262.73594</ele>
        <time>2022-02-25T13:13:13.612Z</time>
      </trkpt>
      <trkpt lat="38.65445" lon="37.44572">
        <ele>1261.892208</ele>
        <time>2022-02-25T13:13:19.482Z</time>
      </trkpt>
      <trkpt lat="38.65486" lon="37.44571">
        <ele>1260.634502</ele>
        <time>2022-02-25T13:13:27.893Z</time>
      </trkpt>
      <trkpt lat="38.65548" lon="37.44543">
        <ele>1258.607322</ele>
        <time>2022-02-25T13:13:40.991Z</time>
      </trkpt>
      <trkpt lat="38.65775" lon="37.44392">
        <ele>1246.435695</ele>
        <time>2022-02-25T13:14:27.619Z</time>
      </trkpt>
      <trkpt lat="38.65861" lon="37.44344">
        <ele>1240.874088</ele>
        <time>2022-02-25T13:14:44.052Z</time>
      </trkpt>
      <trkpt lat="38.66317" lon="37.44211">
        <ele>1212.641699</ele>
        <time>2022-02-25T13:16:05.475Z</time>
      </trkpt>
      <trkpt lat="38.66353" lon="37.44201">
        <ele>1211.04744</ele>
        <time>2022-02-25T13:16:12.419Z</time>
      </trkpt>
      <trkpt lat="38.66442" lon="37.44175">
        <ele>1207.262486</ele>
        <time>2022-02-25T13:16:30.294Z</time>
      </trkpt>
      <trkpt lat="38.66804" lon="37.44067">
        <ele>1200.832767</ele>
        <time>2022-02-25T13:17:50.706Z</time>
      </trkpt>
      <trkpt lat="38.66869" lon="37.44038">
        <ele>1200.195136</ele>
        <time>2022-02-25T13:18:06.601Z</time>
      </trkpt>
      <trkpt lat="38.67101" lon="37.43883">
        <ele>1198.423125</ele>
        <time>2022-02-25T13:19:10.101Z</time>
      </trkpt>
      <trkpt lat="38.67121" lon="37.43869">
        <ele>1198.475268</ele>
        <time>2022-02-25T13:19:15.693Z</time>
      </trkpt>
      <trkpt lat="38.67178" lon="37.4383">
        <ele>1199.165522</ele>
        <time>2022-02-25T13:19:32.984Z</time>
      </trkpt>
      <trkpt lat="38.67874" lon="37.43352">
        <ele>1208.402717</ele>
        <time>2022-02-25T13:23:49.980Z</time>
      </trkpt>
      <trkpt lat="38.67964" lon="37.43281">
        <ele>1211.65947</ele>
        <time>2022-02-25T13:24:33.198Z</time>
      </trkpt>
      <trkpt lat="38.6804" lon="37.43211">
        <ele>1215.187304</ele>
        <time>2022-02-25T13:25:16.761Z</time>
      </trkpt>
      <trkpt lat="38.68139" lon="37.43101">
        <ele>1222.061488</ele>
        <time>2022-02-25T13:26:24.970Z</time>
      </trkpt>
      <trkpt lat="38.6838" lon="37.42793">
        <ele>1240.084736</ele>
        <time>2022-02-25T13:29:33.432Z</time>
      </trkpt>
      <trkpt lat="38.68444" lon="37.42732">
        <ele>1243.263356</ele>
        <time>2022-02-25T13:30:04.992Z</time>
      </trkpt>
      <trkpt lat="38.68515" lon="37.42691">
        <ele>1240.736364</ele>
        <time>2022-02-25T13:30:23.312Z</time>
      </trkpt>
      <trkpt lat="38.68554" lon="37.42675">
        <ele>1239.285836</ele>
        <time>2022-02-25T13:30:31.216Z</time>
      </trkpt>
      <trkpt lat="38.68785" lon="37.42598">
        <ele>1223.647339</ele>
        <time>2022-02-25T13:31:11.651Z</time>
      </trkpt>
      <trkpt lat="38.68863" lon="37.42549">
        <ele>1218.038093</ele>
        <time>2022-02-25T13:31:26.163Z</time>
      </trkpt>
      <trkpt lat="38.68926" lon="37.42484">
        <ele>1212.783267</ele>
        <time>2022-02-25T13:31:40.495Z</time>
      </trkpt>
      <trkpt lat="38.68969" lon="37.42422">
        <ele>1210.536817</ele>
        <time>2022-02-25T13:31:52.585Z</time>
      </trkpt>
      <trkpt lat="38.69003" lon="37.42341">
        <ele>1208.785336</ele>
        <time>2022-02-25T13:32:07.356Z</time>
      </trkpt>
      <trkpt lat="38.69024" lon="37.42274">
        <ele>1207.414205</ele>
        <time>2022-02-25T13:32:20.415Z</time>
      </trkpt>
      <trkpt lat="38.69036" lon="37.42226">
        <ele>1207.37494</ele>
        <time>2022-02-25T13:32:30.246Z</time>
      </trkpt>
      <trkpt lat="38.69048" lon="37.42168">
        <ele>1207.46485</ele>
        <time>2022-02-25T13:32:42.748Z</time>
      </trkpt>
      <trkpt lat="38.69069" lon="37.42101">
        <ele>1207.573383</ele>
        <time>2022-02-25T13:32:59.448Z</time>
      </trkpt>
      <trkpt lat="38.69095" lon="37.42014">
        <ele>1208.008962</ele>
        <time>2022-02-25T13:33:21.150Z</time>
      </trkpt>
      <trkpt lat="38.6911" lon="37.41987">
        <ele>1208.309932</ele>
        <time>2022-02-25T13:33:29.712Z</time>
      </trkpt>
      <trkpt lat="38.69113" lon="37.41983">
        <ele>1208.360333</ele>
        <time>2022-02-25T13:33:31.145Z</time>
      </trkpt>
      <trkpt lat="38.69115" lon="37.41978">
        <ele>1208.416656</ele>
        <time>2022-02-25T13:33:32.705Z</time>
      </trkpt>
      <trkpt lat="38.69121" lon="37.4196">
        <ele>1208.585477</ele>
        <time>2022-02-25T13:33:37.673Z</time>
      </trkpt>
      <trkpt lat="38.69162" lon="37.41901">
        <ele>1209.297516</ele>
        <time>2022-02-25T13:33:57.950Z</time>
      </trkpt>
      <trkpt lat="38.69186" lon="37.41875">
        <ele>1209.657594</ele>
        <time>2022-02-25T13:34:08.227Z</time>
      </trkpt>
      <trkpt lat="38.69785" lon="37.41333">
        <ele>1219.63981</ele>
        <time>2022-02-25T13:38:14.194Z</time>
      </trkpt>
      <trkpt lat="38.70434" lon="37.40659">
        <ele>1218.036538</ele>
        <time>2022-02-25T13:41:46.773Z</time>
      </trkpt>
      <trkpt lat="38.70688" lon="37.40384">
        <ele>1219.394446</ele>
        <time>2022-02-25T13:43:23.803Z</time>
      </trkpt>
      <trkpt lat="38.70762" lon="37.40292">
        <ele>1219.898762</ele>
        <time>2022-02-25T13:43:53.189Z</time>
      </trkpt>
      <trkpt lat="38.70809" lon="37.40215">
        <ele>1220.441174</ele>
        <time>2022-02-25T13:44:14.784Z</time>
      </trkpt>
      <trkpt lat="38.70833" lon="37.40172">
        <ele>1220.727892</ele>
        <time>2022-02-25T13:44:26.733Z</time>
      </trkpt>
      <trkpt lat="38.7089" lon="37.40035">
        <ele>1222.238742</ele>
        <time>2022-02-25T13:45:08.303Z</time>
      </trkpt>
      <trkpt lat="38.70896" lon="37.4002">
        <ele>1222.431114</ele>
        <time>2022-02-25T13:45:12.786Z</time>
      </trkpt>
      <trkpt lat="38.709" lon="37.40017">
        <ele>1222.501445</ele>
        <time>2022-02-25T13:45:14.397Z</time>
      </trkpt>
      <trkpt lat="38.70902" lon="37.40011">
        <ele>1222.574892</ele>
        <time>2022-02-25T13:45:15.910Z</time>
      </trkpt>
      <trkpt lat="38.70903" lon="37.40005">
        <ele>1222.64819</ele>
        <time>2022-02-25T13:45:17.578Z</time>
      </trkpt>
      <trkpt lat="38.70907" lon="37.39991">
        <ele>1222.831418</ele>
        <time>2022-02-25T13:45:22.330Z</time>
      </trkpt>
      <trkpt lat="38.7113" lon="37.39404">
        <ele>1228.361389</ele>
        <time>2022-02-25T13:48:09.878Z</time>
      </trkpt>
      <trkpt lat="38.71133" lon="37.3939">
        <ele>1228.348468</ele>
        <time>2022-02-25T13:48:12.988Z</time>
      </trkpt>
      <trkpt lat="38.71125" lon="37.39386">
        <ele>1228.338381</ele>
        <time>2022-02-25T13:48:15.086Z</time>
      </trkpt>
      <trkpt lat="38.71112" lon="37.39381">
        <ele>1228.32322</ele>
        <time>2022-02-25T13:48:17.888Z</time>
      </trkpt>
      <trkpt lat="38.71047" lon="37.39312">
        <ele>1228.122312</ele>
        <time>2022-02-25T13:48:35.981Z</time>
      </trkpt>
      <trkpt lat="38.70953" lon="37.39243">
        <ele>1227.548719</ele>
        <time>2022-02-25T13:49:01.936Z</time>
      </trkpt>
      <trkpt lat="38.70913" lon="37.39203">
        <ele>1227.383867</ele>
        <time>2022-02-25T13:49:16.476Z</time>
      </trkpt>
      <trkpt lat="38.70898" lon="37.39185">
        <ele>1227.658911</ele>
        <time>2022-02-25T13:49:22.792Z</time>
      </trkpt>
      <trkpt lat="38.70895" lon="37.39177">
        <ele>1227.752156</ele>
        <time>2022-02-25T13:49:25.601Z</time>
      </trkpt>
      <trkpt lat="38.70896" lon="37.39097">
        <ele>1228.572295</ele>
        <time>2022-02-25T13:49:45.600Z</time>
      </trkpt>
      <trkpt lat="38.70889" lon="37.39027">
        <ele>1229.295966</ele>
        <time>2022-02-25T13:50:05.296Z</time>
      </trkpt>
      <trkpt lat="38.7089" lon="37.38999">
        <ele>1229.590576</ele>
        <time>2022-02-25T13:50:13.795Z</time>
      </trkpt>
      <trkpt lat="38.70925" lon="37.38864">
        <ele>1231.197228</ele>
        <time>2022-02-25T13:50:49.843Z</time>
      </trkpt>
      <trkpt lat="38.70923" lon="37.38831">
        <ele>1231.572256</ele>
        <time>2022-02-25T13:50:58.531Z</time>
      </trkpt>
      <trkpt lat="38.70901" lon="37.38772">
        <ele>1232.319022</ele>
        <time>2022-02-25T13:51:16.180Z</time>
      </trkpt>
      <trkpt lat="38.70891" lon="37.38707">
        <ele>1232.962781</ele>
        <time>2022-02-25T13:51:33.989Z</time>
      </trkpt>
      <trkpt lat="38.70905" lon="37.38682">
        <ele>1233.25725</ele>
        <time>2022-02-25T13:51:42.037Z</time>
      </trkpt>
      <trkpt lat="38.7092" lon="37.38636">
        <ele>1233.737905</ele>
        <time>2022-02-25T13:51:54.820Z</time>
      </trkpt>
      <trkpt lat="38.70923" lon="37.38609">
        <ele>1234.002884</ele>
        <time>2022-02-25T13:52:01.662Z</time>
      </trkpt>
      <trkpt lat="38.70958" lon="37.38592">
        <ele>1234.469359</ele>
        <time>2022-02-25T13:52:13.289Z</time>
      </trkpt>
      <trkpt lat="38.70985" lon="37.38565">
        <ele>1234.727395</ele>
        <time>2022-02-25T13:52:23.579Z</time>
      </trkpt>
      <trkpt lat="38.71" lon="37.38508">
        <ele>1235.034107</ele>
        <time>2022-02-25T13:52:37.211Z</time>
      </trkpt>
      <trkpt lat="38.71004" lon="37.38477">
        <ele>1235.19124</ele>
        <time>2022-02-25T13:52:43.944Z</time>
      </trkpt>
      <trkpt lat="38.70992" lon="37.38376">
        <ele>1235.70811</ele>
        <time>2022-02-25T13:53:07.637Z</time>
      </trkpt>
      <trkpt lat="38.70997" lon="37.38327">
        <ele>1236.419968</ele>
        <time>2022-02-25T13:53:19.955Z</time>
      </trkpt>
      <trkpt lat="38.70999" lon="37.38295">
        <ele>1236.866681</ele>
        <time>2022-02-25T13:53:27.694Z</time>
      </trkpt>
      <trkpt lat="38.71006" lon="37.38286">
        <ele>1237.047227</ele>
        <time>2022-02-25T13:53:31.241Z</time>
      </trkpt>
      <trkpt lat="38.71036" lon="37.38206">
        <ele>1238.318654</ele>
        <time>2022-02-25T13:53:56.616Z</time>
      </trkpt>
      <trkpt lat="38.71044" lon="37.38172">
        <ele>1238.810452</ele>
        <time>2022-02-25T13:54:07.124Z</time>
      </trkpt>
      <trkpt lat="38.71068" lon="37.38115">
        <ele>1240.26829</ele>
        <time>2022-02-25T13:54:28.361Z</time>
      </trkpt>
      <trkpt lat="38.71084" lon="37.38053">
        <ele>1241.849423</ele>
        <time>2022-02-25T13:54:49.980Z</time>
      </trkpt>
      <trkpt lat="38.71108" lon="37.38006">
        <ele>1243.204177</ele>
        <time>2022-02-25T13:55:08.545Z</time>
      </trkpt>
      <trkpt lat="38.7113" lon="37.37935">
        <ele>1244.895979</ele>
        <time>2022-02-25T13:55:33.889Z</time>
      </trkpt>
      <trkpt lat="38.71135" lon="37.37901">
        <ele>1245.440859</ele>
        <time>2022-02-25T13:55:44.824Z</time>
      </trkpt>
      <trkpt lat="38.71176" lon="37.37815">
        <ele>1247.021755</ele>
        <time>2022-02-25T13:56:13.950Z</time>
      </trkpt>
      <trkpt lat="38.71194" lon="37.3779">
        <ele>1247.567785</ele>
        <time>2022-02-25T13:56:23.049Z</time>
      </trkpt>
      <trkpt lat="38.71225" lon="37.37724">
        <ele>1248.238867</ele>
        <time>2022-02-25T13:56:41.588Z</time>
      </trkpt>
      <trkpt lat="38.71253" lon="37.37658">
        <ele>1248.285217</ele>
        <time>2022-02-25T13:56:57.749Z</time>
      </trkpt>
      <trkpt lat="38.71313" lon="37.37574">
        <ele>1248.355727</ele>
        <time>2022-02-25T13:57:20.046Z</time>
      </trkpt>
      <trkpt lat="38.71346" lon="37.37515">
        <ele>1248.415811</ele>
        <time>2022-02-25T13:57:34.073Z</time>
      </trkpt>
      <trkpt lat="38.71397" lon="37.37447">
        <ele>1248.495853</ele>
        <time>2022-02-25T13:57:53.599Z</time>
      </trkpt>
      <trkpt lat="38.71419" lon="37.37383">
        <ele>1248.558282</ele>
        <time>2022-02-25T13:58:10.066Z</time>
      </trkpt>
      <trkpt lat="38.71438" lon="37.37282">
        <ele>1249.28057</ele>
        <time>2022-02-25T13:58:35.109Z</time>
      </trkpt>
      <trkpt lat="38.71444" lon="37.3726">
        <ele>1249.447101</ele>
        <time>2022-02-25T13:58:41.399Z</time>
      </trkpt>
      <trkpt lat="38.71492" lon="37.37172">
        <ele>1250.184229</ele>
        <time>2022-02-25T13:59:07.324Z</time>
      </trkpt>
      <trkpt lat="38.71608" lon="37.3698">
        <ele>1251.246706</ele>
        <time>2022-02-25T14:00:02.287Z</time>
      </trkpt>
      <trkpt lat="38.71641" lon="37.36958">
        <ele>1251.507922</ele>
        <time>2022-02-25T14:00:13.096Z</time>
      </trkpt>
      <trkpt lat="38.71688" lon="37.36884">
        <ele>1252.029146</ele>
        <time>2022-02-25T14:00:35.455Z</time>
      </trkpt>
      <trkpt lat="38.7171" lon="37.36836">
        <ele>1252.337124</ele>
        <time>2022-02-25T14:00:49.064Z</time>
      </trkpt>
      <trkpt lat="38.71725" lon="37.36781">
        <ele>1252.760567</ele>
        <time>2022-02-25T14:01:03.240Z</time>
      </trkpt>
      <trkpt lat="38.71731" lon="37.36732">
        <ele>1253.158212</ele>
        <time>2022-02-25T14:01:15.247Z</time>
      </trkpt>
      <trkpt lat="38.71757" lon="37.3662">
        <ele>1254.092731</ele>
        <time>2022-02-25T14:01:43.958Z</time>
      </trkpt>
      <trkpt lat="38.71762" lon="37.36578">
        <ele>1254.499669</ele>
        <time>2022-02-25T14:01:54.953Z</time>
      </trkpt>
      <trkpt lat="38.71775" lon="37.36516">
        <ele>1255.206186</ele>
        <time>2022-02-25T14:02:11.371Z</time>
      </trkpt>
      <trkpt lat="38.71794" lon="37.36429">
        <ele>1256.215363</ele>
        <time>2022-02-25T14:02:35.150Z</time>
      </trkpt>
      <trkpt lat="38.71816" lon="37.363">
        <ele>1257.817983</ele>
        <time>2022-02-25T14:03:10.890Z</time>
      </trkpt>
      <trkpt lat="38.71841" lon="37.36232">
        <ele>1258.784856</ele>
        <time>2022-02-25T14:03:31.214Z</time>
      </trkpt>
      <trkpt lat="38.71848" lon="37.362">
        <ele>1259.213162</ele>
        <time>2022-02-25T14:03:40.203Z</time>
      </trkpt>
      <trkpt lat="38.7185" lon="37.36162">
        <ele>1259.704804</ele>
        <time>2022-02-25T14:03:50.646Z</time>
      </trkpt>
      <trkpt lat="38.71869" lon="37.36087">
        <ele>1260.429593</ele>
        <time>2022-02-25T14:04:11.692Z</time>
      </trkpt>
      <trkpt lat="38.71871" lon="37.35982">
        <ele>1261.344963</ele>
        <time>2022-02-25T14:04:38.257Z</time>
      </trkpt>
      <trkpt lat="38.71864" lon="37.35939">
        <ele>1261.72916</ele>
        <time>2022-02-25T14:04:48.563Z</time>
      </trkpt>
      <trkpt lat="38.71848" lon="37.3591">
        <ele>1261.57829</ele>
        <time>2022-02-25T14:04:56.509Z</time>
      </trkpt>
      <trkpt lat="38.71821" lon="37.35891">
        <ele>1261.233937</ele>
        <time>2022-02-25T14:05:05.033Z</time>
      </trkpt>
      <trkpt lat="38.71807" lon="37.35854">
        <ele>1260.88266</ele>
        <time>2022-02-25T14:05:13.006Z</time>
      </trkpt>
      <trkpt lat="38.7181" lon="37.3583">
        <ele>1260.670228</ele>
        <time>2022-02-25T14:05:17.642Z</time>
      </trkpt>
      <trkpt lat="38.71822" lon="37.3579">
        <ele>1260.304568</ele>
        <time>2022-02-25T14:05:24.954Z</time>
      </trkpt>
      <trkpt lat="38.71861" lon="37.35711">
        <ele>1258.700851</ele>
        <time>2022-02-25T14:05:39.445Z</time>
      </trkpt>
      <trkpt lat="38.71865" lon="37.35666">
        <ele>1257.325923</ele>
        <time>2022-02-25T14:05:45.976Z</time>
      </trkpt>
      <trkpt lat="38.71861" lon="37.35628">
        <ele>1256.204662</ele>
        <time>2022-02-25T14:05:51.617Z</time>
      </trkpt>
      <trkpt lat="38.71867" lon="37.35609">
        <ele>1255.579425</ele>
        <time>2022-02-25T14:05:54.563Z</time>
      </trkpt>
      <trkpt lat="38.7188" lon="37.35596">
        <ele>1254.967387</ele>
        <time>2022-02-25T14:05:57.772Z</time>
      </trkpt>
      <trkpt lat="38.71898" lon="37.35591">
        <ele>1254.237411</ele>
        <time>2022-02-25T14:06:01.191Z</time>
      </trkpt>
      <trkpt lat="38.71933" lon="37.35604">
        <ele>1252.856338</ele>
        <time>2022-02-25T14:06:07.988Z</time>
      </trkpt>
      <trkpt lat="38.71958" lon="37.35622">
        <ele>1252.09323</ele>
        <time>2022-02-25T14:06:13.284Z</time>
      </trkpt>
      <trkpt lat="38.71981" lon="37.35644">
        <ele>1251.317612</ele>
        <time>2022-02-25T14:06:18.785Z</time>
      </trkpt>
      <trkpt lat="38.71999" lon="37.35664">
        <ele>1250.68234</ele>
        <time>2022-02-25T14:06:23.151Z</time>
      </trkpt>
      <trkpt lat="38.71993" lon="37.35708">
        <ele>1249.748803</ele>
        <time>2022-02-25T14:06:30.241Z</time>
      </trkpt>
      <trkpt lat="38.71985" lon="37.35773">
        <ele>1248.381501</ele>
        <time>2022-02-25T14:06:41.328Z</time>
      </trkpt>
      <trkpt lat="38.71986" lon="37.35813">
        <ele>1248.267676</ele>
        <time>2022-02-25T14:06:50.824Z</time>
      </trkpt>
      <trkpt lat="38.71986" lon="37.35818">
        <ele>1248.298113</ele>
        <time>2022-02-25T14:06:52.183Z</time>
      </trkpt>
      <trkpt lat="38.71986" lon="37.35822">
        <ele>1248.329212</ele>
        <time>2022-02-25T14:06:53.184Z</time>
      </trkpt>
      <trkpt lat="38.71987" lon="37.35827">
        <ele>1248.359674</ele>
        <time>2022-02-25T14:06:54.160Z</time>
      </trkpt>
      <trkpt lat="38.7199" lon="37.3583">
        <ele>1248.390967</ele>
        <time>2022-02-25T14:06:55.358Z</time>
      </trkpt>
      <trkpt lat="38.72" lon="37.35833">
        <ele>1248.4797</ele>
        <time>2022-02-25T14:06:58.316Z</time>
      </trkpt>
      <trkpt lat="38.72007" lon="37.35827">
        <ele>1248.545651</ele>
        <time>2022-02-25T14:07:00.680Z</time>
      </trkpt>
      <trkpt lat="38.72008" lon="37.35822">
        <ele>1248.578865</ele>
        <time>2022-02-25T14:07:02.155Z</time>
      </trkpt>
      <trkpt lat="38.72008" lon="37.35817">
        <ele>1248.61254</ele>
        <time>2022-02-25T14:07:03.387Z</time>
      </trkpt>
      <trkpt lat="38.72007" lon="37.35812">
        <ele>1248.645532</ele>
        <time>2022-02-25T14:07:04.341Z</time>
      </trkpt>
      <trkpt lat="38.72004" lon="37.35727">
        <ele>1249.206036</ele>
        <time>2022-02-25T14:07:25.233Z</time>
      </trkpt>
      <trkpt lat="38.72006" lon="37.35696">
        <ele>1249.414456</ele>
        <time>2022-02-25T14:07:32.639Z</time>
      </trkpt>
      <trkpt lat="38.72008" lon="37.35681">
        <ele>1249.511282</ele>
        <time>2022-02-25T14:07:37.246Z</time>
      </trkpt>
      <trkpt lat="38.72015" lon="37.35637">
        <ele>1249.906823</ele>
        <time>2022-02-25T14:07:50.103Z</time>
      </trkpt>
      <trkpt lat="38.72023" lon="37.35565">
        <ele>1250.63968</ele>
        <time>2022-02-25T14:08:09.870Z</time>
      </trkpt>
      <trkpt lat="38.72007" lon="37.35504">
        <ele>1251.277766</ele>
        <time>2022-02-25T14:08:26.586Z</time>
      </trkpt>
      <trkpt lat="38.71968" lon="37.35428">
        <ele>1252.225073</ele>
        <time>2022-02-25T14:08:47.027Z</time>
      </trkpt>
      <trkpt lat="38.71943" lon="37.35369">
        <ele>1252.987441</ele>
        <time>2022-02-25T14:09:02.946Z</time>
      </trkpt>
      <trkpt lat="38.71934" lon="37.35316">
        <ele>1253.593658</ele>
        <time>2022-02-25T14:09:16.712Z</time>
      </trkpt>
      <trkpt lat="38.71936" lon="37.35244">
        <ele>1254.41696</ele>
        <time>2022-02-25T14:09:36.649Z</time>
      </trkpt>
      <trkpt lat="38.7208" lon="37.34385">
        <ele>1279.323838</ele>
        <time>2022-02-25T14:14:38.591Z</time>
      </trkpt>
      <trkpt lat="38.72098" lon="37.34308">
        <ele>1282.141037</ele>
        <time>2022-02-25T14:15:11.184Z</time>
      </trkpt>
      <trkpt lat="38.72153" lon="37.34133">
        <ele>1289.886437</ele>
        <time>2022-02-25T14:16:29.533Z</time>
      </trkpt>
      <trkpt lat="38.72266" lon="37.33878">
        <ele>1300.333974</ele>
        <time>2022-02-25T14:18:21.248Z</time>
      </trkpt>
      <trkpt lat="38.72272" lon="37.3384">
        <ele>1301.489872</ele>
        <time>2022-02-25T14:18:35.041Z</time>
      </trkpt>
      <trkpt lat="38.72269" lon="37.33803">
        <ele>1302.60472</ele>
        <time>2022-02-25T14:18:48.035Z</time>
      </trkpt>
      <trkpt lat="38.72259" lon="37.33767">
        <ele>1303.741055</ele>
        <time>2022-02-25T14:19:01.051Z</time>
      </trkpt>
      <trkpt lat="38.72242" lon="37.3374">
        <ele>1304.809629</ele>
        <time>2022-02-25T14:19:13.166Z</time>
      </trkpt>
      <trkpt lat="38.72212" lon="37.3371">
        <ele>1306.207295</ele>
        <time>2022-02-25T14:19:29.297Z</time>
      </trkpt>
      <trkpt lat="38.72193" lon="37.33701">
        <ele>1306.883687</ele>
        <time>2022-02-25T14:19:37.558Z</time>
      </trkpt>
      <trkpt lat="38.72158" lon="37.337">
        <ele>1308.105062</ele>
        <time>2022-02-25T14:19:52.740Z</time>
      </trkpt>
      <trkpt lat="38.72056" lon="37.33757">
        <ele>1311.938451</ele>
        <time>2022-02-25T14:20:40.513Z</time>
      </trkpt>
      <trkpt lat="38.72026" lon="37.33769">
        <ele>1313.428977</ele>
        <time>2022-02-25T14:20:54.669Z</time>
      </trkpt>
      <trkpt lat="38.71979" lon="37.33777">
        <ele>1315.708612</ele>
        <time>2022-02-25T14:21:17.134Z</time>
      </trkpt>
      <trkpt lat="38.71839" lon="37.33751">
        <ele>1322.64325</ele>
        <time>2022-02-25T14:22:31.730Z</time>
      </trkpt>
      <trkpt lat="38.71715" lon="37.33716">
        <ele>1329.34044</ele>
        <time>2022-02-25T14:23:40.464Z</time>
      </trkpt>
      <trkpt lat="38.71682" lon="37.33694">
        <ele>1330.319928</ele>
        <time>2022-02-25T14:23:57.608Z</time>
      </trkpt>
      <trkpt lat="38.71646" lon="37.33653">
        <ele>1330.819738</ele>
        <time>2022-02-25T14:24:16.173Z</time>
      </trkpt>
      <trkpt lat="38.71615" lon="37.33579">
        <ele>1331.511269</ele>
        <time>2022-02-25T14:24:35.408Z</time>
      </trkpt>
      <trkpt lat="38.71606" lon="37.3351">
        <ele>1331.617811</ele>
        <time>2022-02-25T14:24:47.191Z</time>
      </trkpt>
      <trkpt lat="38.71638" lon="37.33147">
        <ele>1323.606233</ele>
        <time>2022-02-25T14:25:42.888Z</time>
      </trkpt>
      <trkpt lat="38.71653" lon="37.33028">
        <ele>1321.22572</ele>
        <time>2022-02-25T14:26:03.115Z</time>
      </trkpt>
      <trkpt lat="38.71652" lon="37.32933">
        <ele>1319.655846</ele>
        <time>2022-02-25T14:26:18.949Z</time>
      </trkpt>
      <trkpt lat="38.71648" lon="37.32899">
        <ele>1319.073323</ele>
        <time>2022-02-25T14:26:24.709Z</time>
      </trkpt>
      <trkpt lat="38.71625" lon="37.32813">
        <ele>1317.309202</ele>
        <time>2022-02-25T14:26:39.040Z</time>
      </trkpt>
      <trkpt lat="38.71532" lon="37.32552">
        <ele>1311.131644</ele>
        <time>2022-02-25T14:27:22.274Z</time>
      </trkpt>
      <trkpt lat="38.71513" lon="37.32462">
        <ele>1309.922115</ele>
        <time>2022-02-25T14:27:38.621Z</time>
      </trkpt>
      <trkpt lat="38.71503" lon="37.32356">
        <ele>1309.673962</ele>
        <time>2022-02-25T14:28:02.484Z</time>
      </trkpt>
      <trkpt lat="38.71505" lon="37.32288">
        <ele>1310.167323</ele>
        <time>2022-02-25T14:28:20.327Z</time>
      </trkpt>
      <trkpt lat="38.71519" lon="37.32239">
        <ele>1310.538995</ele>
        <time>2022-02-25T14:28:33.895Z</time>
      </trkpt>
      <trkpt lat="38.7153" lon="37.32215">
        <ele>1310.740397</ele>
        <time>2022-02-25T14:28:41.088Z</time>
      </trkpt>
      <trkpt lat="38.7159" lon="37.32148">
        <ele>1310.487123</ele>
        <time>2022-02-25T14:29:05.116Z</time>
      </trkpt>
      <trkpt lat="38.71604" lon="37.32125">
        <ele>1310.309135</ele>
        <time>2022-02-25T14:29:10.858Z</time>
      </trkpt>
      <trkpt lat="38.71644" lon="37.32039">
        <ele>1309.717068</ele>
        <time>2022-02-25T14:29:27.780Z</time>
      </trkpt>
      <trkpt lat="38.71662" lon="37.31955">
        <ele>1308.601463</ele>
        <time>2022-02-25T14:29:41.852Z</time>
      </trkpt>
      <trkpt lat="38.71668" lon="37.319">
        <ele>1307.728279</ele>
        <time>2022-02-25T14:29:50.609Z</time>
      </trkpt>
      <trkpt lat="38.71665" lon="37.3171">
        <ele>1306.127143</ele>
        <time>2022-02-25T14:30:22.747Z</time>
      </trkpt>
      <trkpt lat="38.71669" lon="37.3168">
        <ele>1306.197059</ele>
        <time>2022-02-25T14:30:29.157Z</time>
      </trkpt>
      <trkpt lat="38.71708" lon="37.31548">
        <ele>1306.862648</ele>
        <time>2022-02-25T14:31:05.503Z</time>
      </trkpt>
      <trkpt lat="38.7181" lon="37.3094">
        <ele>1319.350025</ele>
        <time>2022-02-25T14:34:25.074Z</time>
      </trkpt>
      <trkpt lat="38.71841" lon="37.30819">
        <ele>1318.610245</ele>
        <time>2022-02-25T14:34:47.665Z</time>
      </trkpt>
      <trkpt lat="38.7187" lon="37.30762">
        <ele>1317.246451</ele>
        <time>2022-02-25T14:34:58.011Z</time>
      </trkpt>
      <trkpt lat="38.71896" lon="37.30729">
        <ele>1316.294111</ele>
        <time>2022-02-25T14:35:05.045Z</time>
      </trkpt>
      <trkpt lat="38.7192" lon="37.30697">
        <ele>1315.395324</ele>
        <time>2022-02-25T14:35:11.552Z</time>
      </trkpt>
      <trkpt lat="38.71938" lon="37.30677">
        <ele>1314.674437</ele>
        <time>2022-02-25T14:35:15.899Z</time>
      </trkpt>
      <trkpt lat="38.72025" lon="37.30565">
        <ele>1310.830019</ele>
        <time>2022-02-25T14:35:39.714Z</time>
      </trkpt>
      <trkpt lat="38.72076" lon="37.30479">
        <ele>1309.61931</ele>
        <time>2022-02-25T14:35:58.184Z</time>
      </trkpt>
      <trkpt lat="38.72103" lon="37.30377">
        <ele>1309.19851</ele>
        <time>2022-02-25T14:36:17.986Z</time>
      </trkpt>
      <trkpt lat="38.72114" lon="37.30271">
        <ele>1310.232262</ele>
        <time>2022-02-25T14:36:46.148Z</time>
      </trkpt>
      <trkpt lat="38.72114" lon="37.30191">
        <ele>1312.116715</ele>
        <time>2022-02-25T14:37:11.438Z</time>
      </trkpt>
      <trkpt lat="38.72125" lon="37.30173">
        <ele>1312.648388</ele>
        <time>2022-02-25T14:37:20.391Z</time>
      </trkpt>
      <trkpt lat="38.72131" lon="37.30134">
        <ele>1313.587666</ele>
        <time>2022-02-25T14:37:34.754Z</time>
      </trkpt>
      <trkpt lat="38.72214" lon="37.30118">
        <ele>1316.283872</ele>
        <time>2022-02-25T14:38:15.438Z</time>
      </trkpt>
      <trkpt lat="38.72233" lon="37.30097">
        <ele>1317.142816</ele>
        <time>2022-02-25T14:38:28.589Z</time>
      </trkpt>
      <trkpt lat="38.72275" lon="37.29906">
        <ele>1320.69975</ele>
        <time>2022-02-25T14:39:30.192Z</time>
      </trkpt>
      <trkpt lat="38.72291" lon="37.29856">
        <ele>1320.930625</ele>
        <time>2022-02-25T14:39:42.464Z</time>
      </trkpt>
      <trkpt lat="38.72314" lon="37.29729">
        <ele>1321.104686</ele>
        <time>2022-02-25T14:40:08.161Z</time>
      </trkpt>
      <trkpt lat="38.72337" lon="37.29696">
        <ele>1320.686073</ele>
        <time>2022-02-25T14:40:16.078Z</time>
      </trkpt>
      <trkpt lat="38.72375" lon="37.29584">
        <ele>1319.514332</ele>
        <time>2022-02-25T14:40:38.093Z</time>
      </trkpt>
      <trkpt lat="38.72379" lon="37.29552">
        <ele>1319.20518</ele>
        <time>2022-02-25T14:40:44.032Z</time>
      </trkpt>
      <trkpt lat="38.72377" lon="37.29472">
        <ele>1318.692556</ele>
        <time>2022-02-25T14:40:59.088Z</time>
      </trkpt>
      <trkpt lat="38.72425" lon="37.29303">
        <ele>1317.565701</ele>
        <time>2022-02-25T14:41:34.820Z</time>
      </trkpt>
      <trkpt lat="38.72438" lon="37.29241">
        <ele>1317.1454</ele>
        <time>2022-02-25T14:41:47.483Z</time>
      </trkpt>
      <trkpt lat="38.72443" lon="37.29195">
        <ele>1316.847144</ele>
        <time>2022-02-25T14:41:56.260Z</time>
      </trkpt>
      <trkpt lat="38.72433" lon="37.29128">
        <ele>1316.404468</ele>
        <time>2022-02-25T14:42:08.672Z</time>
      </trkpt>
      <trkpt lat="38.72415" lon="37.29056">
        <ele>1316.20048</ele>
        <time>2022-02-25T14:42:23.401Z</time>
      </trkpt>
      <trkpt lat="38.72392" lon="37.29004">
        <ele>1316.166408</ele>
        <time>2022-02-25T14:42:35.860Z</time>
      </trkpt>
      <trkpt lat="38.72366" lon="37.28961">
        <ele>1316.135719</ele>
        <time>2022-02-25T14:42:47.504Z</time>
      </trkpt>
      <trkpt lat="38.7237" lon="37.28864">
        <ele>1316.36341</ele>
        <time>2022-02-25T14:43:10.094Z</time>
      </trkpt>
      <trkpt lat="38.7238" lon="37.28633">
        <ele>1318.411752</ele>
        <time>2022-02-25T14:44:09.732Z</time>
      </trkpt>
      <trkpt lat="38.72378" lon="37.28574">
        <ele>1318.908795</ele>
        <time>2022-02-25T14:44:24.102Z</time>
      </trkpt>
      <trkpt lat="38.72376" lon="37.28522">
        <ele>1319.355115</ele>
        <time>2022-02-25T14:44:37.128Z</time>
      </trkpt>
      <trkpt lat="38.72343" lon="37.28338">
        <ele>1320.983428</ele>
        <time>2022-02-25T14:45:23.557Z</time>
      </trkpt>
      <trkpt lat="38.72323" lon="37.28261">
        <ele>1321.704389</ele>
        <time>2022-02-25T14:45:43.098Z</time>
      </trkpt>
      <trkpt lat="38.72319" lon="37.28248">
        <ele>1321.828871</ele>
        <time>2022-02-25T14:45:46.994Z</time>
      </trkpt>
      <trkpt lat="38.7228" lon="37.28131">
        <ele>1323.203069</ele>
        <time>2022-02-25T14:46:21.511Z</time>
      </trkpt>
      <trkpt lat="38.72257" lon="37.28062">
        <ele>1324.079415</ele>
        <time>2022-02-25T14:46:41.896Z</time>
      </trkpt>
      <trkpt lat="38.72236" lon="37.27998">
        <ele>1324.855054</ele>
        <time>2022-02-25T14:46:59.426Z</time>
      </trkpt>
      <trkpt lat="38.72204" lon="37.27904">
        <ele>1325.324403</ele>
        <time>2022-02-25T14:47:24.702Z</time>
      </trkpt>
      <trkpt lat="38.7219" lon="37.27861">
        <ele>1325.538678</ele>
        <time>2022-02-25T14:47:35.456Z</time>
      </trkpt>
      <trkpt lat="38.72182" lon="37.27836">
        <ele>1325.660655</ele>
        <time>2022-02-25T14:47:41.083Z</time>
      </trkpt>
      <trkpt lat="38.72169" lon="37.27785">
        <ele>1325.876459</ele>
        <time>2022-02-25T14:47:51.996Z</time>
      </trkpt>
      <trkpt lat="38.72201" lon="37.27746">
        <ele>1325.769864</ele>
        <time>2022-02-25T14:48:03.064Z</time>
      </trkpt>
      <trkpt lat="38.72228" lon="37.27691">
        <ele>1325.648705</ele>
        <time>2022-02-25T14:48:15.323Z</time>
      </trkpt>
      <trkpt lat="38.72244" lon="37.27646">
        <ele>1325.555955</ele>
        <time>2022-02-25T14:48:25.247Z</time>
      </trkpt>
      <trkpt lat="38.72246" lon="37.2763">
        <ele>1325.524932</ele>
        <time>2022-02-25T14:48:28.982Z</time>
      </trkpt>
      <trkpt lat="38.7225" lon="37.27595">
        <ele>1325.459299</ele>
        <time>2022-02-25T14:48:36.231Z</time>
      </trkpt>
      <trkpt lat="38.7225" lon="37.27505">
        <ele>1325.66742</ele>
        <time>2022-02-25T14:48:55.155Z</time>
      </trkpt>
      <trkpt lat="38.72243" lon="37.2739">
        <ele>1325.954524</ele>
        <time>2022-02-25T14:49:21.009Z</time>
      </trkpt>
      <trkpt lat="38.72233" lon="37.2733">
        <ele>1326.41664</ele>
        <time>2022-02-25T14:49:35.143Z</time>
      </trkpt>
      <trkpt lat="38.72227" lon="37.27292">
        <ele>1326.891389</ele>
        <time>2022-02-25T14:49:44.335Z</time>
      </trkpt>
      <trkpt lat="38.72222" lon="37.27216">
        <ele>1327.814256</ele>
        <time>2022-02-25T14:50:03.924Z</time>
      </trkpt>
      <trkpt lat="38.72227" lon="37.27056">
        <ele>1330.549767</ele>
        <time>2022-02-25T14:50:52.323Z</time>
      </trkpt>
      <trkpt lat="38.72242" lon="37.27048">
        <ele>1331.015932</ele>
        <time>2022-02-25T14:51:00.222Z</time>
      </trkpt>
      <trkpt lat="38.72273" lon="37.27019">
        <ele>1332.113518</ele>
        <time>2022-02-25T14:51:16.289Z</time>
      </trkpt>
      <trkpt lat="38.72294" lon="37.26989">
        <ele>1333.030381</ele>
        <time>2022-02-25T14:51:29.632Z</time>
      </trkpt>
      <trkpt lat="38.72307" lon="37.26959">
        <ele>1333.777681</ele>
        <time>2022-02-25T14:51:39.516Z</time>
      </trkpt>
      <trkpt lat="38.72309" lon="37.26952">
        <ele>1333.95001</ele>
        <time>2022-02-25T14:51:42.390Z</time>
      </trkpt>
      <trkpt lat="38.72321" lon="37.2691">
        <ele>1334.369601</ele>
        <time>2022-02-25T14:51:56.282Z</time>
      </trkpt>
      <trkpt lat="38.72331" lon="37.26869">
        <ele>1334.752799</ele>
        <time>2022-02-25T14:52:08.398Z</time>
      </trkpt>
      <trkpt lat="38.72341" lon="37.26834">
        <ele>1335.08315</ele>
        <time>2022-02-25T14:52:17.765Z</time>
      </trkpt>
      <trkpt lat="38.72358" lon="37.26759">
        <ele>1335.784318</ele>
        <time>2022-02-25T14:52:35.374Z</time>
      </trkpt>
      <trkpt lat="38.72375" lon="37.26682">
        <ele>1335.85839</ele>
        <time>2022-02-25T14:52:50.372Z</time>
      </trkpt>
      <trkpt lat="38.72414" lon="37.26497">
        <ele>1335.284445</ele>
        <time>2022-02-25T14:53:26.797Z</time>
      </trkpt>
      <trkpt lat="38.72457" lon="37.26333">
        <ele>1335.824367</ele>
        <time>2022-02-25T14:54:05.795Z</time>
      </trkpt>
      <trkpt lat="38.7248" lon="37.26274">
        <ele>1336.115164</ele>
        <time>2022-02-25T14:54:21.618Z</time>
      </trkpt>
      <trkpt lat="38.72508" lon="37.26222">
        <ele>1336.577256</ele>
        <time>2022-02-25T14:54:36.854Z</time>
      </trkpt>
      <trkpt lat="38.72539" lon="37.26126">
        <ele>1337.337398</ele>
        <time>2022-02-25T14:55:02.110Z</time>
      </trkpt>
      <trkpt lat="38.72574" lon="37.26049">
        <ele>1338.016813</ele>
        <time>2022-02-25T14:55:24.367Z</time>
      </trkpt>
      <trkpt lat="38.7259" lon="37.26024">
        <ele>1338.267114</ele>
        <time>2022-02-25T14:55:32.183Z</time>
      </trkpt>
      <trkpt lat="38.72618" lon="37.25929">
        <ele>1339.075049</ele>
        <time>2022-02-25T14:55:57.156Z</time>
      </trkpt>
      <trkpt lat="38.72638" lon="37.2588">
        <ele>1339.528192</ele>
        <time>2022-02-25T14:56:10.486Z</time>
      </trkpt>
      <trkpt lat="38.72696" lon="37.25798">
        <ele>1340.815066</ele>
        <time>2022-02-25T14:56:38.596Z</time>
      </trkpt>
      <trkpt lat="38.72714" lon="37.25753">
        <ele>1341.404624</ele>
        <time>2022-02-25T14:56:52.003Z</time>
      </trkpt>
      <trkpt lat="38.72721" lon="37.2571">
        <ele>1341.920255</ele>
        <time>2022-02-25T14:57:03.869Z</time>
      </trkpt>
      <trkpt lat="38.7274" lon="37.25633">
        <ele>1343.229526</ele>
        <time>2022-02-25T14:57:27.494Z</time>
      </trkpt>
      <trkpt lat="38.72778" lon="37.25497">
        <ele>1345.797525</ele>
        <time>2022-02-25T14:58:12.215Z</time>
      </trkpt>
      <trkpt lat="38.72785" lon="37.25472">
        <ele>1346.243975</ele>
        <time>2022-02-25T14:58:20.258Z</time>
      </trkpt>
      <trkpt lat="38.72799" lon="37.25424">
        <ele>1346.20299</ele>
        <time>2022-02-25T14:58:33.249Z</time>
      </trkpt>
      <trkpt lat="38.72847" lon="37.25325">
        <ele>1346.109776</ele>
        <time>2022-02-25T14:58:56.644Z</time>
      </trkpt>
      <trkpt lat="38.72869" lon="37.25277">
        <ele>1346.064939</ele>
        <time>2022-02-25T14:59:06.500Z</time>
      </trkpt>
      <trkpt lat="38.72884" lon="37.25247">
        <ele>1345.620566</ele>
        <time>2022-02-25T14:59:12.082Z</time>
      </trkpt>
      <trkpt lat="38.72895" lon="37.25218">
        <ele>1345.1275</ele>
        <time>2022-02-25T14:59:17.290Z</time>
      </trkpt>
      <trkpt lat="38.72934" lon="37.25055">
        <ele>1342.554965</ele>
        <time>2022-02-25T14:59:45.033Z</time>
      </trkpt>
      <trkpt lat="38.72955" lon="37.24993">
        <ele>1342.144622</ele>
        <time>2022-02-25T14:59:57.662Z</time>
      </trkpt>
      <trkpt lat="38.73045" lon="37.24803">
        <ele>1341.219479</ele>
        <time>2022-02-25T15:00:40.131Z</time>
      </trkpt>
      <trkpt lat="38.73062" lon="37.24787">
        <ele>1341.240337</ele>
        <time>2022-02-25T15:00:45.760Z</time>
      </trkpt>
      <trkpt lat="38.7307" lon="37.2477">
        <ele>1341.255768</ele>
        <time>2022-02-25T15:00:49.884Z</time>
      </trkpt>
      <trkpt lat="38.73073" lon="37.24748">
        <ele>1341.272942</ele>
        <time>2022-02-25T15:00:54.697Z</time>
      </trkpt>
      <trkpt lat="38.73069" lon="37.24726">
        <ele>1341.290279</ele>
        <time>2022-02-25T15:01:00.119Z</time>
      </trkpt>
      <trkpt lat="38.73066" lon="37.24711">
        <ele>1341.302117</ele>
        <time>2022-02-25T15:01:04.291Z</time>
      </trkpt>
      <trkpt lat="38.73056" lon="37.24693">
        <ele>1341.318921</ele>
        <time>2022-02-25T15:01:08.375Z</time>
      </trkpt>
      <trkpt lat="38.73049" lon="37.24679">
        <ele>1341.331261</ele>
        <time>2022-02-25T15:01:13.086Z</time>
      </trkpt>
      <trkpt lat="38.73017" lon="37.24626">
        <ele>1341.542631</ele>
        <time>2022-02-25T15:01:27.382Z</time>
      </trkpt>
      <trkpt lat="38.73001" lon="37.24583">
        <ele>1341.755419</ele>
        <time>2022-02-25T15:01:37.334Z</time>
      </trkpt>
      <trkpt lat="38.72988" lon="37.24553">
        <ele>1341.90855</ele>
        <time>2022-02-25T15:01:46.081Z</time>
      </trkpt>
      <trkpt lat="38.72994" lon="37.24549">
        <ele>1341.950558</ele>
        <time>2022-02-25T15:01:47.698Z</time>
      </trkpt>
      <trkpt lat="38.73011" lon="37.24516">
        <ele>1342.12611</ele>
        <time>2022-02-25T15:01:58.984Z</time>
      </trkpt>
      <trkpt lat="38.73041" lon="37.24494">
        <ele>1342.321127</ele>
        <time>2022-02-25T15:02:09.940Z</time>
      </trkpt>
      <trkpt lat="38.7307" lon="37.24413">
        <ele>1342.308599</ele>
        <time>2022-02-25T15:02:29.957Z</time>
      </trkpt>
      <trkpt lat="38.73231" lon="37.24162">
        <ele>1342.341208</ele>
        <time>2022-02-25T15:03:36.109Z</time>
      </trkpt>
      <trkpt lat="38.73312" lon="37.24006">
        <ele>1344.635175</ele>
        <time>2022-02-25T15:04:27.300Z</time>
      </trkpt>
      <trkpt lat="38.7335" lon="37.23896">
        <ele>1346.896987</ele>
        <time>2022-02-25T15:05:07.449Z</time>
      </trkpt>
      <trkpt lat="38.73364" lon="37.23886">
        <ele>1347.455854</ele>
        <time>2022-02-25T15:05:14.768Z</time>
      </trkpt>
      <trkpt lat="38.73373" lon="37.23867">
        <ele>1348.057978</ele>
        <time>2022-02-25T15:05:22.830Z</time>
      </trkpt>
      <trkpt lat="38.73377" lon="37.23829">
        <ele>1349.064003</ele>
        <time>2022-02-25T15:05:36.418Z</time>
      </trkpt>
      <trkpt lat="38.73375" lon="37.23808">
        <ele>1349.620133</ele>
        <time>2022-02-25T15:05:44.091Z</time>
      </trkpt>
      <trkpt lat="38.73329" lon="37.23617">
        <ele>1354.384206</ele>
        <time>2022-02-25T15:06:51.551Z</time>
      </trkpt>
      <trkpt lat="38.73329" lon="37.23485">
        <ele>1357.074484</ele>
        <time>2022-02-25T15:07:31.188Z</time>
      </trkpt>
      <trkpt lat="38.73341" lon="37.23424">
        <ele>1358.661376</ele>
        <time>2022-02-25T15:07:49.870Z</time>
      </trkpt>
      <trkpt lat="38.73362" lon="37.23373">
        <ele>1360.177244</ele>
        <time>2022-02-25T15:08:08.599Z</time>
      </trkpt>
      <trkpt lat="38.73358" lon="37.23348">
        <ele>1360.842364</ele>
        <time>2022-02-25T15:08:17.668Z</time>
      </trkpt>
      <trkpt lat="38.73337" lon="37.23358">
        <ele>1361.588354</ele>
        <time>2022-02-25T15:08:27.895Z</time>
      </trkpt>
      <trkpt lat="38.73281" lon="37.23395">
        <ele>1363.920717</ele>
        <time>2022-02-25T15:08:58.203Z</time>
      </trkpt>
      <trkpt lat="38.73262" lon="37.23398">
        <ele>1364.862004</ele>
        <time>2022-02-25T15:09:08.393Z</time>
      </trkpt>
      <trkpt lat="38.73264" lon="37.23299">
        <ele>1368.707069</ele>
        <time>2022-02-25T15:09:48.699Z</time>
      </trkpt>
      <trkpt lat="38.7324" lon="37.23152">
        <ele>1374.072173</ele>
        <time>2022-02-25T15:10:48.399Z</time>
      </trkpt>
      <trkpt lat="38.73195" lon="37.23042">
        <ele>1377.976924</ele>
        <time>2022-02-25T15:11:32.142Z</time>
      </trkpt>
      <trkpt lat="38.73109" lon="37.22899">
        <ele>1382.638093</ele>
        <time>2022-02-25T15:12:30.213Z</time>
      </trkpt>
      <trkpt lat="38.73084" lon="37.22826">
        <ele>1384.564321</ele>
        <time>2022-02-25T15:12:55.754Z</time>
      </trkpt>
      <trkpt lat="38.73052" lon="37.22703">
        <ele>1387.682973</ele>
        <time>2022-02-25T15:13:37.992Z</time>
      </trkpt>
      <trkpt lat="38.73014" lon="37.22589">
        <ele>1390.696388</ele>
        <time>2022-02-25T15:14:18.627Z</time>
      </trkpt>
      <trkpt lat="38.72983" lon="37.22524">
        <ele>1392.402256</ele>
        <time>2022-02-25T15:14:42.101Z</time>
      </trkpt>
      <trkpt lat="38.72939" lon="37.22444">
        <ele>1394.638375</ele>
        <time>2022-02-25T15:15:12.873Z</time>
      </trkpt>
      <trkpt lat="38.72903" lon="37.22389">
        <ele>1396.430983</ele>
        <time>2022-02-25T15:15:35.497Z</time>
      </trkpt>
      <trkpt lat="38.72469" lon="37.2182">
        <ele>1421.151376</ele>
        <time>2022-02-25T15:20:17.296Z</time>
      </trkpt>
      <trkpt lat="38.72394" lon="37.21713">
        <ele>1426.984382</ele>
        <time>2022-02-25T15:21:18.135Z</time>
      </trkpt>
      <trkpt lat="38.72301" lon="37.2155">
        <ele>1436.910488</ele>
        <time>2022-02-25T15:22:50.172Z</time>
      </trkpt>
      <trkpt lat="38.72222" lon="37.21375">
        <ele>1446.049421</ele>
        <time>2022-02-25T15:24:17.201Z</time>
      </trkpt>
      <trkpt lat="38.72177" lon="37.21249">
        <ele>1450.599426</ele>
        <time>2022-02-25T15:25:08.842Z</time>
      </trkpt>
      <trkpt lat="38.72124" lon="37.21049">
        <ele>1456.438456</ele>
        <time>2022-02-25T15:26:18.399Z</time>
      </trkpt>
      <trkpt lat="38.721" lon="37.20908">
        <ele>1459.904595</ele>
        <time>2022-02-25T15:27:04.411Z</time>
      </trkpt>
      <trkpt lat="38.72019" lon="37.20328">
        <ele>1473.440676</ele>
        <time>2022-02-25T15:30:11.983Z</time>
      </trkpt>
      <trkpt lat="38.72008" lon="37.20268">
        <ele>1474.871308</ele>
        <time>2022-02-25T15:30:31.596Z</time>
      </trkpt>
      <trkpt lat="38.71978" lon="37.20161">
        <ele>1477.882837</ele>
        <time>2022-02-25T15:31:08.917Z</time>
      </trkpt>
      <trkpt lat="38.71951" lon="37.20046">
        <ele>1481.164251</ele>
        <time>2022-02-25T15:31:50.100Z</time>
      </trkpt>
      <trkpt lat="38.71936" lon="37.19915">
        <ele>1485.223214</ele>
        <time>2022-02-25T15:32:38.113Z</time>
      </trkpt>
      <trkpt lat="38.71931" lon="37.1981">
        <ele>1488.527892</ele>
        <time>2022-02-25T15:33:16.328Z</time>
      </trkpt>
      <trkpt lat="38.71931" lon="37.19765">
        <ele>1489.862471</ele>
        <time>2022-02-25T15:33:32.271Z</time>
      </trkpt>
      <trkpt lat="38.71932" lon="37.19288">
        <ele>1504.146449</ele>
        <time>2022-02-25T15:36:16.234Z</time>
      </trkpt>
      <trkpt lat="38.71925" lon="37.19124">
        <ele>1510.585808</ele>
        <time>2022-02-25T15:37:22.972Z</time>
      </trkpt>
      <trkpt lat="38.71917" lon="37.19047">
        <ele>1513.920374</ele>
        <time>2022-02-25T15:37:57.189Z</time>
      </trkpt>
      <trkpt lat="38.71898" lon="37.18947">
        <ele>1518.490014</ele>
        <time>2022-02-25T15:38:42.254Z</time>
      </trkpt>
      <trkpt lat="38.71867" lon="37.18825">
        <ele>1523.255232</ele>
        <time>2022-02-25T15:39:33.543Z</time>
      </trkpt>
      <trkpt lat="38.71826" lon="37.1871">
        <ele>1526.929007</ele>
        <time>2022-02-25T15:40:17.106Z</time>
      </trkpt>
      <trkpt lat="38.7175" lon="37.1855">
        <ele>1530.690164</ele>
        <time>2022-02-25T15:41:11.676Z</time>
      </trkpt>
      <trkpt lat="38.71425" lon="37.17959">
        <ele>1543.141627</ele>
        <time>2022-02-25T15:44:37.389Z</time>
      </trkpt>
      <trkpt lat="38.71071" lon="37.17361">
        <ele>1567.549911</ele>
        <time>2022-02-25T15:49:13.263Z</time>
      </trkpt>
      <trkpt lat="38.7106" lon="37.17302">
        <ele>1569.944404</ele>
        <time>2022-02-25T15:49:39.175Z</time>
      </trkpt>
      <trkpt lat="38.71069" lon="37.17257">
        <ele>1571.759771</ele>
        <time>2022-02-25T15:49:58.486Z</time>
      </trkpt>
      <trkpt lat="38.71099" lon="37.17217">
        <ele>1573.954735</ele>
        <time>2022-02-25T15:50:21.268Z</time>
      </trkpt>
      <trkpt lat="38.71125" lon="37.17206">
        <ele>1575.322346</ele>
        <time>2022-02-25T15:50:35.075Z</time>
      </trkpt>
      <trkpt lat="38.71155" lon="37.17206">
        <ele>1576.752462</ele>
        <time>2022-02-25T15:50:49.927Z</time>
      </trkpt>
      <trkpt lat="38.71213" lon="37.17249">
        <ele>1578.908807</ele>
        <time>2022-02-25T15:51:18.951Z</time>
      </trkpt>
      <trkpt lat="38.71296" lon="37.17381">
        <ele>1583.506824</ele>
        <time>2022-02-25T15:52:11.160Z</time>
      </trkpt>
      <trkpt lat="38.71332" lon="37.17425">
        <ele>1585.717032</ele>
        <time>2022-02-25T15:52:32.169Z</time>
      </trkpt>
      <trkpt lat="38.7137" lon="37.17462">
        <ele>1587.838819</ele>
        <time>2022-02-25T15:52:54.065Z</time>
      </trkpt>
      <trkpt lat="38.71621" lon="37.17664">
        <ele>1607.220979</ele>
        <time>2022-02-25T15:55:47.668Z</time>
      </trkpt>
      <trkpt lat="38.71663" lon="37.17692">
        <ele>1611.166818</ele>
        <time>2022-02-25T15:56:20.686Z</time>
      </trkpt>
      <trkpt lat="38.71707" lon="37.17714">
        <ele>1615.176743</ele>
        <time>2022-02-25T15:56:55.024Z</time>
      </trkpt>
      <trkpt lat="38.71754" lon="37.17714">
        <ele>1619.205943</ele>
        <time>2022-02-25T15:57:29.411Z</time>
      </trkpt>
      <trkpt lat="38.71805" lon="37.17698">
        <ele>1623.709572</ele>
        <time>2022-02-25T15:58:06.853Z</time>
      </trkpt>
      <trkpt lat="38.71835" lon="37.17677">
        <ele>1626.595224</ele>
        <time>2022-02-25T15:58:29.671Z</time>
      </trkpt>
      <trkpt lat="38.71882" lon="37.17632">
        <ele>1631.7089</ele>
        <time>2022-02-25T15:59:08.141Z</time>
      </trkpt>
      <trkpt lat="38.71911" lon="37.17594">
        <ele>1635.175205</ele>
        <time>2022-02-25T15:59:34.080Z</time>
      </trkpt>
      <trkpt lat="38.71926" lon="37.17559">
        <ele>1637.817428</ele>
        <time>2022-02-25T15:59:54.160Z</time>
      </trkpt>
      <trkpt lat="38.71942" lon="37.17487">
        <ele>1642.689086</ele>
        <time>2022-02-25T16:00:31.903Z</time>
      </trkpt>
      <trkpt lat="38.71945" lon="37.17443">
        <ele>1645.627336</ele>
        <time>2022-02-25T16:00:55.827Z</time>
      </trkpt>
      <trkpt lat="38.71936" lon="37.17333">
        <ele>1653.834835</ele>
        <time>2022-02-25T16:01:58.859Z</time>
      </trkpt>
      <trkpt lat="38.71928" lon="37.17275">
        <ele>1658.563991</ele>
        <time>2022-02-25T16:02:35.071Z</time>
      </trkpt>
      <trkpt lat="38.71907" lon="37.1722">
        <ele>1663.343409</ele>
        <time>2022-02-25T16:03:12.324Z</time>
      </trkpt>
      <trkpt lat="38.71835" lon="37.17075">
        <ele>1675.845975</ele>
        <time>2022-02-25T16:04:52.570Z</time>
      </trkpt>
      <trkpt lat="38.71807" lon="37.17009">
        <ele>1681.096753</ele>
        <time>2022-02-25T16:05:31.260Z</time>
      </trkpt>
      <trkpt lat="38.71794" lon="37.16957">
        <ele>1684.065547</ele>
        <time>2022-02-25T16:05:57.656Z</time>
      </trkpt>
      <trkpt lat="38.71785" lon="37.16833">
        <ele>1689.588719</ele>
        <time>2022-02-25T16:06:50.885Z</time>
      </trkpt>
      <trkpt lat="38.71797" lon="37.1669">
        <ele>1695.165804</ele>
        <time>2022-02-25T16:07:43.468Z</time>
      </trkpt>
      <trkpt lat="38.71833" lon="37.16565">
        <ele>1699.590498</ele>
        <time>2022-02-25T16:08:30.121Z</time>
      </trkpt>
      <trkpt lat="38.71943" lon="37.16319">
        <ele>1712.074858</ele>
        <time>2022-02-25T16:10:27.695Z</time>
      </trkpt>
      <trkpt lat="38.71978" lon="37.16196">
        <ele>1719.846991</ele>
        <time>2022-02-25T16:11:33.713Z</time>
      </trkpt>
      <trkpt lat="38.71994" lon="37.16087">
        <ele>1726.378645</ele>
        <time>2022-02-25T16:12:32.023Z</time>
      </trkpt>
      <trkpt lat="38.72002" lon="37.15988">
        <ele>1732.231909</ele>
        <time>2022-02-25T16:13:22.509Z</time>
      </trkpt>
      <trkpt lat="38.72003" lon="37.1592">
        <ele>1736.219417</ele>
        <time>2022-02-25T16:13:55.044Z</time>
      </trkpt>
      <trkpt lat="38.71996" lon="37.15698">
        <ele>1746.662268</ele>
        <time>2022-02-25T16:15:30.734Z</time>
      </trkpt>
      <trkpt lat="38.71999" lon="37.15628">
        <ele>1749.534554</ele>
        <time>2022-02-25T16:15:58.326Z</time>
      </trkpt>
      <trkpt lat="38.72007" lon="37.15558">
        <ele>1752.202323</ele>
        <time>2022-02-25T16:16:25.791Z</time>
      </trkpt>
      <trkpt lat="38.72029" lon="37.15472">
        <ele>1755.595991</ele>
        <time>2022-02-25T16:17:00.132Z</time>
      </trkpt>
      <trkpt lat="38.72061" lon="37.15392">
        <ele>1758.982689</ele>
        <time>2022-02-25T16:17:34.677Z</time>
      </trkpt>
      <trkpt lat="38.72102" lon="37.1532">
        <ele>1762.37645</ele>
        <time>2022-02-25T16:18:09.831Z</time>
      </trkpt>
      <trkpt lat="38.72142" lon="37.1527">
        <ele>1765.068501</ele>
        <time>2022-02-25T16:18:37.974Z</time>
      </trkpt>
      <trkpt lat="38.72199" lon="37.15217">
        <ele>1768.270797</ele>
        <time>2022-02-25T16:19:13.219Z</time>
      </trkpt>
      <trkpt lat="38.72261" lon="37.15177">
        <ele>1771.40115</ele>
        <time>2022-02-25T16:19:47.275Z</time>
      </trkpt>
      <trkpt lat="38.72748" lon="37.14946">
        <ele>1789.94469</ele>
        <time>2022-02-25T16:23:40.845Z</time>
      </trkpt>
      <trkpt lat="38.72975" lon="37.14848">
        <ele>1791.215662</ele>
        <time>2022-02-25T16:24:47.187Z</time>
      </trkpt>
      <trkpt lat="38.7303" lon="37.14842">
        <ele>1789.37669</ele>
        <time>2022-02-25T16:24:58.346Z</time>
      </trkpt>
      <trkpt lat="38.73087" lon="37.14848">
        <ele>1787.108045</ele>
        <time>2022-02-25T16:25:09.197Z</time>
      </trkpt>
      <trkpt lat="38.73127" lon="37.14859">
        <ele>1785.495835</ele>
        <time>2022-02-25T16:25:16.567Z</time>
      </trkpt>
      <trkpt lat="38.73186" lon="37.14885">
        <ele>1782.177006</ele>
        <time>2022-02-25T16:25:27.685Z</time>
      </trkpt>
      <trkpt lat="38.73225" lon="37.14909">
        <ele>1779.143437</ele>
        <time>2022-02-25T16:25:35.176Z</time>
      </trkpt>
      <trkpt lat="38.73366" lon="37.15018">
        <ele>1766.906221</ele>
        <time>2022-02-25T16:26:03.096Z</time>
      </trkpt>
      <trkpt lat="38.73441" lon="37.15054">
        <ele>1760.298865</ele>
        <time>2022-02-25T16:26:16.444Z</time>
      </trkpt>
      <trkpt lat="38.73503" lon="37.1506">
        <ele>1755.123852</ele>
        <time>2022-02-25T16:26:26.781Z</time>
      </trkpt>
      <trkpt lat="38.73545" lon="37.15052">
        <ele>1751.51521</ele>
        <time>2022-02-25T16:26:33.823Z</time>
      </trkpt>
      <trkpt lat="38.73779" lon="37.1496">
        <ele>1731.650917</ele>
        <time>2022-02-25T16:27:14.763Z</time>
      </trkpt>
      <trkpt lat="38.73843" lon="37.14949">
        <ele>1726.966764</ele>
        <time>2022-02-25T16:27:25.971Z</time>
      </trkpt>
      <trkpt lat="38.73886" lon="37.14949">
        <ele>1725.193619</ele>
        <time>2022-02-25T16:27:33.473Z</time>
      </trkpt>
      <trkpt lat="38.74079" lon="37.15022">
        <ele>1718.81978</ele>
        <time>2022-02-25T16:28:12.925Z</time>
      </trkpt>
      <trkpt lat="38.74583" lon="37.15282">
        <ele>1712.505508</ele>
        <time>2022-02-25T16:30:19.561Z</time>
      </trkpt>
      <trkpt lat="38.74683" lon="37.15309">
        <ele>1711.678242</ele>
        <time>2022-02-25T16:30:44.070Z</time>
      </trkpt>
      <trkpt lat="38.74759" lon="37.15317">
        <ele>1711.306143</ele>
        <time>2022-02-25T16:31:02.180Z</time>
      </trkpt>
      <trkpt lat="38.74881" lon="37.15297">
        <ele>1710.902913</ele>
        <time>2022-02-25T16:31:32.660Z</time>
      </trkpt>
      <trkpt lat="38.74984" lon="37.15258">
        <ele>1711.524355</ele>
        <time>2022-02-25T16:32:04.220Z</time>
      </trkpt>
      <trkpt lat="38.75075" lon="37.15189">
        <ele>1712.335999</ele>
        <time>2022-02-25T16:32:38.985Z</time>
      </trkpt>
      <trkpt lat="38.75187" lon="37.15081">
        <ele>1713.545478</ele>
        <time>2022-02-25T16:33:23.352Z</time>
      </trkpt>
      <trkpt lat="38.7525" lon="37.14992">
        <ele>1713.18821</ele>
        <time>2022-02-25T16:33:47.811Z</time>
      </trkpt>
      <trkpt lat="38.75317" lon="37.14849">
        <ele>1711.845278</ele>
        <time>2022-02-25T16:34:17.320Z</time>
      </trkpt>
      <trkpt lat="38.75387" lon="37.14603">
        <ele>1706.589917</ele>
        <time>2022-02-25T16:34:59.639Z</time>
      </trkpt>
      <trkpt lat="38.75418" lon="37.14442">
        <ele>1701.142097</ele>
        <time>2022-02-25T16:35:23.491Z</time>
      </trkpt>
      <trkpt lat="38.75452" lon="37.1434">
        <ele>1695.859224</ele>
        <time>2022-02-25T16:35:38.509Z</time>
      </trkpt>
      <trkpt lat="38.75486" lon="37.14268">
        <ele>1691.819367</ele>
        <time>2022-02-25T16:35:49.867Z</time>
      </trkpt>
      <trkpt lat="38.75514" lon="37.14222">
        <ele>1689.058201</ele>
        <time>2022-02-25T16:35:57.606Z</time>
      </trkpt>
      <trkpt lat="38.75563" lon="37.1416">
        <ele>1684.840826</ele>
        <time>2022-02-25T16:36:09.586Z</time>
      </trkpt>
      <trkpt lat="38.75621" lon="37.1411">
        <ele>1680.61432</ele>
        <time>2022-02-25T16:36:22.078Z</time>
      </trkpt>
      <trkpt lat="38.75724" lon="37.1405">
        <ele>1675.034156</ele>
        <time>2022-02-25T16:36:42.801Z</time>
      </trkpt>
      <trkpt lat="38.75799" lon="37.13999">
        <ele>1670.797602</ele>
        <time>2022-02-25T16:36:58.320Z</time>
      </trkpt>
      <trkpt lat="38.75834" lon="37.13968">
        <ele>1668.626749</ele>
        <time>2022-02-25T16:37:05.978Z</time>
      </trkpt>
      <trkpt lat="38.75882" lon="37.13913">
        <ele>1665.344892</ele>
        <time>2022-02-25T16:37:17.508Z</time>
      </trkpt>
      <trkpt lat="38.75909" lon="37.13871">
        <ele>1663.146846</ele>
        <time>2022-02-25T16:37:25.188Z</time>
      </trkpt>
      <trkpt lat="38.75945" lon="37.138">
        <ele>1659.257851</ele>
        <time>2022-02-25T16:37:36.932Z</time>
      </trkpt>
      <trkpt lat="38.75964" lon="37.13748">
        <ele>1656.58289</ele>
        <time>2022-02-25T16:37:44.871Z</time>
      </trkpt>
      <trkpt lat="38.76005" lon="37.13604">
        <ele>1648.897055</ele>
        <time>2022-02-25T16:38:05.674Z</time>
      </trkpt>
      <trkpt lat="38.76058" lon="37.1346">
        <ele>1639.929743</ele>
        <time>2022-02-25T16:38:26.834Z</time>
      </trkpt>
      <trkpt lat="38.76146" lon="37.1328">
        <ele>1628.487535</ele>
        <time>2022-02-25T16:38:55.095Z</time>
      </trkpt>
      <trkpt lat="38.76296" lon="37.13">
        <ele>1614.92513</ele>
        <time>2022-02-25T16:39:42.828Z</time>
      </trkpt>
      <trkpt lat="38.76368" lon="37.12873">
        <ele>1610.06736</ele>
        <time>2022-02-25T16:40:06.309Z</time>
      </trkpt>
      <trkpt lat="38.76483" lon="37.12691">
        <ele>1605.635536</ele>
        <time>2022-02-25T16:40:43.719Z</time>
      </trkpt>
      <trkpt lat="38.76746" lon="37.12297">
        <ele>1601.709507</ele>
        <time>2022-02-25T16:42:16.548Z</time>
      </trkpt>
      <trkpt lat="38.76811" lon="37.12189">
        <ele>1602.090421</ele>
        <time>2022-02-25T16:42:48.632Z</time>
      </trkpt>
      <trkpt lat="38.76855" lon="37.12101">
        <ele>1602.956386</ele>
        <time>2022-02-25T16:43:16.556Z</time>
      </trkpt>
      <trkpt lat="38.76878" lon="37.1204">
        <ele>1603.661709</ele>
        <time>2022-02-25T16:43:34.635Z</time>
      </trkpt>
      <trkpt lat="38.76906" lon="37.11926">
        <ele>1604.779406</ele>
        <time>2022-02-25T16:44:05.069Z</time>
      </trkpt>
      <trkpt lat="38.76926" lon="37.11798">
        <ele>1605.574285</ele>
        <time>2022-02-25T16:44:34.719Z</time>
      </trkpt>
      <trkpt lat="38.76929" lon="37.11686">
        <ele>1606.63371</ele>
        <time>2022-02-25T16:45:00.860Z</time>
      </trkpt>
      <trkpt lat="38.76823" lon="37.10887">
        <ele>1618.323812</ele>
        <time>2022-02-25T16:48:50.799Z</time>
      </trkpt>
      <trkpt lat="38.76785" lon="37.10627">
        <ele>1620.107636</ele>
        <time>2022-02-25T16:49:53.724Z</time>
      </trkpt>
      <trkpt lat="38.7675" lon="37.1038">
        <ele>1619.307192</ele>
        <time>2022-02-25T16:50:43.041Z</time>
      </trkpt>
      <trkpt lat="38.76709" lon="37.101">
        <ele>1615.360138</ele>
        <time>2022-02-25T16:51:29.286Z</time>
      </trkpt>
      <trkpt lat="38.76684" lon="37.09913">
        <ele>1613.461178</ele>
        <time>2022-02-25T16:52:02.773Z</time>
      </trkpt>
      <trkpt lat="38.76673" lon="37.0979">
        <ele>1613.333195</ele>
        <time>2022-02-25T16:52:27.984Z</time>
      </trkpt>
      <trkpt lat="38.7669" lon="37.09395">
        <ele>1613.521367</ele>
        <time>2022-02-25T16:53:53.063Z</time>
      </trkpt>
      <trkpt lat="38.76692" lon="37.09286">
        <ele>1613.525463</ele>
        <time>2022-02-25T16:54:15.316Z</time>
      </trkpt>
      <trkpt lat="38.76677" lon="37.09189">
        <ele>1613.530612</ele>
        <time>2022-02-25T16:54:35.411Z</time>
      </trkpt>
      <trkpt lat="38.76655" lon="37.09096">
        <ele>1613.538388</ele>
        <time>2022-02-25T16:54:55.346Z</time>
      </trkpt>
      <trkpt lat="38.76619" lon="37.09004">
        <ele>1613.553977</ele>
        <time>2022-02-25T16:55:17.474Z</time>
      </trkpt>
      <trkpt lat="38.76394" lon="37.08626">
        <ele>1614.649276</ele>
        <time>2022-02-25T16:57:02.632Z</time>
      </trkpt>
      <trkpt lat="38.76325" lon="37.08472">
        <ele>1614.531577</ele>
        <time>2022-02-25T16:57:38.244Z</time>
      </trkpt>
      <trkpt lat="38.76297" lon="37.08383">
        <ele>1614.717425</ele>
        <time>2022-02-25T16:57:57.655Z</time>
      </trkpt>
      <trkpt lat="38.76181" lon="37.07849">
        <ele>1616.798316</ele>
        <time>2022-02-25T17:00:04.359Z</time>
      </trkpt>
      <trkpt lat="38.76027" lon="37.07108">
        <ele>1620.34428</ele>
        <time>2022-02-25T17:02:59.923Z</time>
      </trkpt>
      <trkpt lat="38.76011" lon="37.07031">
        <ele>1621.20224</ele>
        <time>2022-02-25T17:03:21.162Z</time>
      </trkpt>
      <trkpt lat="38.75988" lon="37.06775">
        <ele>1623.447533</ele>
        <time>2022-02-25T17:04:29.214Z</time>
      </trkpt>
      <trkpt lat="38.75972" lon="37.06297">
        <ele>1625.704006</ele>
        <time>2022-02-25T17:06:17.172Z</time>
      </trkpt>
      <trkpt lat="38.75955" lon="37.05766">
        <ele>1626.743595</ele>
        <time>2022-02-25T17:08:12.682Z</time>
      </trkpt>
      <trkpt lat="38.75891" lon="37.05246">
        <ele>1627.216831</ele>
        <time>2022-02-25T17:10:03.341Z</time>
      </trkpt>
      <trkpt lat="38.75771" lon="37.04833">
        <ele>1628.705876</ele>
        <time>2022-02-25T17:11:42.967Z</time>
      </trkpt>
      <trkpt lat="38.75724" lon="37.04716">
        <ele>1629.214525</ele>
        <time>2022-02-25T17:12:12.616Z</time>
      </trkpt>
      <trkpt lat="38.75204" lon="37.03578">
        <ele>1634.582346</ele>
        <time>2022-02-25T17:17:12.341Z</time>
      </trkpt>
      <trkpt lat="38.75188" lon="37.03519">
        <ele>1634.903736</ele>
        <time>2022-02-25T17:17:27.078Z</time>
      </trkpt>
      <trkpt lat="38.75069" lon="37.02726">
        <ele>1639.74198</ele>
        <time>2022-02-25T17:20:38.997Z</time>
      </trkpt>
      <trkpt lat="38.75045" lon="37.02489">
        <ele>1640.861131</ele>
        <time>2022-02-25T17:21:33.940Z</time>
      </trkpt>
      <trkpt lat="38.75038" lon="37.02157">
        <ele>1642.772837</ele>
        <time>2022-02-25T17:22:48.821Z</time>
      </trkpt>
      <trkpt lat="38.75048" lon="37.02043">
        <ele>1643.875759</ele>
        <time>2022-02-25T17:23:21.054Z</time>
      </trkpt>
      <trkpt lat="38.75111" lon="37.02075">
        <ele>1645.237438</ele>
        <time>2022-02-25T17:23:46.720Z</time>
      </trkpt>
      <trkpt lat="38.7513" lon="37.0208">
        <ele>1645.642434</ele>
        <time>2022-02-25T17:23:54.241Z</time>
      </trkpt>
      <trkpt lat="38.75162" lon="37.02073">
        <ele>1646.287737</ele>
        <time>2022-02-25T17:24:05.978Z</time>
      </trkpt>
      <trkpt lat="38.7518" lon="37.02062">
        <ele>1646.709147</ele>
        <time>2022-02-25T17:24:13.832Z</time>
      </trkpt>
      <trkpt lat="38.7519" lon="37.02042">
        <ele>1647.090535</ele>
        <time>2022-02-25T17:24:20.797Z</time>
      </trkpt>
      <trkpt lat="38.75212" lon="37.01963">
        <ele>1648.326692</ele>
        <time>2022-02-25T17:24:45.281Z</time>
      </trkpt>
      <trkpt lat="38.7521" lon="37.01895">
        <ele>1649.311718</ele>
        <time>2022-02-25T17:25:04.549Z</time>
      </trkpt>
      <trkpt lat="38.75213" lon="37.01875">
        <ele>1649.611334</ele>
        <time>2022-02-25T17:25:10.194Z</time>
      </trkpt>
      <trkpt lat="38.75233" lon="37.01769">
        <ele>1651.105507</ele>
        <time>2022-02-25T17:25:41.308Z</time>
      </trkpt>
      <trkpt lat="38.75233" lon="37.01744">
        <ele>1651.395137</ele>
        <time>2022-02-25T17:25:48.394Z</time>
      </trkpt>
      <trkpt lat="38.75228" lon="37.01702">
        <ele>1651.88971</ele>
        <time>2022-02-25T17:26:00.604Z</time>
      </trkpt>
      <trkpt lat="38.75223" lon="37.01678">
        <ele>1652.181533</ele>
        <time>2022-02-25T17:26:07.909Z</time>
      </trkpt>
      <trkpt lat="38.75211" lon="37.01646">
        <ele>1652.600294</ele>
        <time>2022-02-25T17:26:17.948Z</time>
      </trkpt>
      <trkpt lat="38.75207" lon="37.01636">
        <ele>1652.740106</ele>
        <time>2022-02-25T17:26:21.135Z</time>
      </trkpt>
      <trkpt lat="38.75203" lon="37.01627">
        <ele>1652.862221</ele>
        <time>2022-02-25T17:26:23.938Z</time>
      </trkpt>
      <trkpt lat="38.75185" lon="37.01578">
        <ele>1653.34981</ele>
        <time>2022-02-25T17:26:37.345Z</time>
      </trkpt>
      <trkpt lat="38.75182" lon="37.0157">
        <ele>1653.315682</ele>
        <time>2022-02-25T17:26:39.390Z</time>
      </trkpt>
      <trkpt lat="38.75179" lon="37.01557">
        <ele>1653.257817</ele>
        <time>2022-02-25T17:26:42.688Z</time>
      </trkpt>
      <trkpt lat="38.75177" lon="37.01551">
        <ele>1653.231917</ele>
        <time>2022-02-25T17:26:43.940Z</time>
      </trkpt>
      <trkpt lat="38.75175" lon="37.0148">
        <ele>1652.93161</ele>
        <time>2022-02-25T17:26:59.042Z</time>
      </trkpt>
      <trkpt lat="38.75158" lon="37.0135">
        <ele>1652.34007</ele>
        <time>2022-02-25T17:27:23.435Z</time>
      </trkpt>
      <trkpt lat="38.75163" lon="37.01251">
        <ele>1651.536555</ele>
        <time>2022-02-25T17:27:41.077Z</time>
      </trkpt>
      <trkpt lat="38.75147" lon="37.01163">
        <ele>1650.807367</ele>
        <time>2022-02-25T17:27:58.164Z</time>
      </trkpt>
      <trkpt lat="38.75132" lon="37.01137">
        <ele>1650.558652</ele>
        <time>2022-02-25T17:28:04.320Z</time>
      </trkpt>
      <trkpt lat="38.75146" lon="37.0104">
        <ele>1651.620363</ele>
        <time>2022-02-25T17:28:26.284Z</time>
      </trkpt>
      <trkpt lat="38.75162" lon="37.00949">
        <ele>1652.626292</ele>
        <time>2022-02-25T17:28:51.454Z</time>
      </trkpt>
      <trkpt lat="38.75192" lon="37.00856">
        <ele>1654.353043</ele>
        <time>2022-02-25T17:29:25.983Z</time>
      </trkpt>
      <trkpt lat="38.75228" lon="37.00786">
        <ele>1656.120912</ele>
        <time>2022-02-25T17:29:53.675Z</time>
      </trkpt>
      <trkpt lat="38.7527" lon="37.00726">
        <ele>1657.815325</ele>
        <time>2022-02-25T17:30:17.510Z</time>
      </trkpt>
      <trkpt lat="38.75307" lon="37.00682">
        <ele>1658.251611</ele>
        <time>2022-02-25T17:30:33.332Z</time>
      </trkpt>
      <trkpt lat="38.75437" lon="37.0052">
        <ele>1659.958025</ele>
        <time>2022-02-25T17:31:25.236Z</time>
      </trkpt>
      <trkpt lat="38.75492" lon="37.00448">
        <ele>1661.066077</ele>
        <time>2022-02-25T17:31:51.930Z</time>
      </trkpt>
      <trkpt lat="38.75545" lon="37.00355">
        <ele>1662.324693</ele>
        <time>2022-02-25T17:32:26.342Z</time>
      </trkpt>
      <trkpt lat="38.75699" lon="37.00039">
        <ele>1665.904064</ele>
        <time>2022-02-25T17:33:58.611Z</time>
      </trkpt>
      <trkpt lat="38.75795" lon="36.99857">
        <ele>1668.021863</ele>
        <time>2022-02-25T17:34:55.347Z</time>
      </trkpt>
      <trkpt lat="38.75829" lon="36.99811">
        <ele>1668.614599</ele>
        <time>2022-02-25T17:35:11.448Z</time>
      </trkpt>
      <trkpt lat="38.76009" lon="36.99634">
        <ele>1670.734766</ele>
        <time>2022-02-25T17:36:22.028Z</time>
      </trkpt>
      <trkpt lat="38.7611" lon="36.99518">
        <ele>1671.784183</ele>
        <time>2022-02-25T17:37:03.354Z</time>
      </trkpt>
      <trkpt lat="38.76167" lon="36.99432">
        <ele>1672.091387</ele>
        <time>2022-02-25T17:37:28.684Z</time>
      </trkpt>
      <trkpt lat="38.76211" lon="36.99348">
        <ele>1672.368321</ele>
        <time>2022-02-25T17:37:50.271Z</time>
      </trkpt>
      <trkpt lat="38.76256" lon="36.99255">
        <ele>1672.403185</ele>
        <time>2022-02-25T17:38:13.028Z</time>
      </trkpt>
      <trkpt lat="38.76289" lon="36.99166">
        <ele>1672.432139</ele>
        <time>2022-02-25T17:38:33.490Z</time>
      </trkpt>
      <trkpt lat="38.76318" lon="36.99058">
        <ele>1672.665358</ele>
        <time>2022-02-25T17:38:57.733Z</time>
      </trkpt>
      <trkpt lat="38.76338" lon="36.98944">
        <ele>1672.958335</ele>
        <time>2022-02-25T17:39:23.557Z</time>
      </trkpt>
      <trkpt lat="38.76349" lon="36.98847">
        <ele>1673.586083</ele>
        <time>2022-02-25T17:39:46.770Z</time>
      </trkpt>
      <trkpt lat="38.76351" lon="36.98654">
        <ele>1675.073098</ele>
        <time>2022-02-25T17:40:35.353Z</time>
      </trkpt>
      <trkpt lat="38.76315" lon="36.98291">
        <ele>1677.895622</ele>
        <time>2022-02-25T17:42:05.997Z</time>
      </trkpt>
      <trkpt lat="38.76315" lon="36.9822">
        <ele>1678.397957</ele>
        <time>2022-02-25T17:42:21.750Z</time>
      </trkpt>
      <trkpt lat="38.76325" lon="36.98134">
        <ele>1679.068474</ele>
        <time>2022-02-25T17:42:41.695Z</time>
      </trkpt>
      <trkpt lat="38.76337" lon="36.98059">
        <ele>1679.661595</ele>
        <time>2022-02-25T17:43:00.347Z</time>
      </trkpt>
      <trkpt lat="38.76358" lon="36.9797">
        <ele>1680.601663</ele>
        <time>2022-02-25T17:43:25.258Z</time>
      </trkpt>
      <trkpt lat="38.76395" lon="36.97876">
        <ele>1682.015693</ele>
        <time>2022-02-25T17:43:56.775Z</time>
      </trkpt>
      <trkpt lat="38.76434" lon="36.978">
        <ele>1683.173002</ele>
        <time>2022-02-25T17:44:20.668Z</time>
      </trkpt>
      <trkpt lat="38.7647" lon="36.97745">
        <ele>1682.89122</ele>
        <time>2022-02-25T17:44:36.027Z</time>
      </trkpt>
      <trkpt lat="38.76481" lon="36.97729">
        <ele>1682.805438</ele>
        <time>2022-02-25T17:44:41.415Z</time>
      </trkpt>
      <trkpt lat="38.76475" lon="36.9772">
        <ele>1682.755174</ele>
        <time>2022-02-25T17:44:43.638Z</time>
      </trkpt>
      <trkpt lat="38.76462" lon="36.97736">
        <ele>1682.665918</ele>
        <time>2022-02-25T17:44:47.927Z</time>
      </trkpt>
      <trkpt lat="38.76426" lon="36.97792">
        <ele>1682.379142</ele>
        <time>2022-02-25T17:45:00.691Z</time>
      </trkpt>
      <trkpt lat="38.76387" lon="36.9787">
        <ele>1681.414295</ele>
        <time>2022-02-25T17:45:15.920Z</time>
      </trkpt>
      <trkpt lat="38.76349" lon="36.97965">
        <ele>1680.053555</ele>
        <time>2022-02-25T17:45:33.520Z</time>
      </trkpt>
      <trkpt lat="38.76327" lon="36.98055">
        <ele>1679.184092</ele>
        <time>2022-02-25T17:45:50.433Z</time>
      </trkpt>
      <trkpt lat="38.76316" lon="36.98132">
        <ele>1678.883614</ele>
        <time>2022-02-25T17:46:05.701Z</time>
      </trkpt>
      <trkpt lat="38.76305" lon="36.98219">
        <ele>1678.543344</ele>
        <time>2022-02-25T17:46:23.720Z</time>
      </trkpt>
      <trkpt lat="38.76305" lon="36.98292">
        <ele>1678.183009</ele>
        <time>2022-02-25T17:46:38.558Z</time>
      </trkpt>
      <trkpt lat="38.76341" lon="36.98655">
        <ele>1675.727921</ele>
        <time>2022-02-25T17:47:45.207Z</time>
      </trkpt>
      <trkpt lat="38.76339" lon="36.98845">
        <ele>1674.276848</ele>
        <time>2022-02-25T17:48:18.977Z</time>
      </trkpt>
      <trkpt lat="38.76328" lon="36.98942">
        <ele>1673.56221</ele>
        <time>2022-02-25T17:48:36.967Z</time>
      </trkpt>
      <trkpt lat="38.76308" lon="36.99055">
        <ele>1673.027942</ele>
        <time>2022-02-25T17:48:58.993Z</time>
      </trkpt>
      <trkpt lat="38.7628" lon="36.99161">
        <ele>1672.506501</ele>
        <time>2022-02-25T17:49:20.670Z</time>
      </trkpt>
      <trkpt lat="38.76247" lon="36.99249">
        <ele>1672.066371</ele>
        <time>2022-02-25T17:49:39.145Z</time>
      </trkpt>
      <trkpt lat="38.76159" lon="36.99424">
        <ele>1671.005762</ele>
        <time>2022-02-25T17:50:18.707Z</time>
      </trkpt>
      <trkpt lat="38.76103" lon="36.99509">
        <ele>1670.35041</ele>
        <time>2022-02-25T17:50:39.204Z</time>
      </trkpt>
      <trkpt lat="38.76003" lon="36.99624">
        <ele>1669.319576</ele>
        <time>2022-02-25T17:51:10.675Z</time>
      </trkpt>
      <trkpt lat="38.75822" lon="36.99802">
        <ele>1667.734101</ele>
        <time>2022-02-25T17:52:05.770Z</time>
      </trkpt>
      <trkpt lat="38.75788" lon="36.99849">
        <ele>1667.356254</ele>
        <time>2022-02-25T17:52:17.874Z</time>
      </trkpt>
      <trkpt lat="38.7569" lon="37.00032">
        <ele>1665.833166</ele>
        <time>2022-02-25T17:52:58.456Z</time>
      </trkpt>
      <trkpt lat="38.75537" lon="37.00348">
        <ele>1662.738963</ele>
        <time>2022-02-25T17:54:04.990Z</time>
      </trkpt>
      <trkpt lat="38.75484" lon="37.0044">
        <ele>1661.807193</ele>
        <time>2022-02-25T17:54:25.606Z</time>
      </trkpt>
      <trkpt lat="38.75297" lon="37.00674">
        <ele>1658.432612</ele>
        <time>2022-02-25T17:55:26.036Z</time>
      </trkpt>
      <trkpt lat="38.75257" lon="37.0072">
        <ele>1657.535343</ele>
        <time>2022-02-25T17:55:37.099Z</time>
      </trkpt>
      <trkpt lat="38.75214" lon="37.00788">
        <ele>1655.567725</ele>
        <time>2022-02-25T17:55:50.416Z</time>
      </trkpt>
      <trkpt lat="38.75183" lon="37.00856">
        <ele>1653.648209</ele>
        <time>2022-02-25T17:56:02.388Z</time>
      </trkpt>
      <trkpt lat="38.75156" lon="37.00934">
        <ele>1651.666572</ele>
        <time>2022-02-25T17:56:15.164Z</time>
      </trkpt>
      <trkpt lat="38.75127" lon="37.0111">
        <ele>1648.805962</ele>
        <time>2022-02-25T17:56:44.554Z</time>
      </trkpt>
      <trkpt lat="38.75081" lon="37.01586">
        <ele>1644.516585</ele>
        <time>2022-02-25T17:58:10.687Z</time>
      </trkpt>
      <trkpt lat="38.75039" lon="37.02045">
        <ele>1642.052726</ele>
        <time>2022-02-25T17:59:37.577Z</time>
      </trkpt>
      <trkpt lat="38.75032" lon="37.02176">
        <ele>1641.52369</ele>
        <time>2022-02-25T18:00:02.779Z</time>
      </trkpt>
      <trkpt lat="38.75028" lon="37.02341">
        <ele>1640.898655</ele>
        <time>2022-02-25T18:00:34.549Z</time>
      </trkpt>
      <trkpt lat="38.75034" lon="37.02491">
        <ele>1640.331025</ele>
        <time>2022-02-25T18:01:03.713Z</time>
      </trkpt>
      <trkpt lat="38.75057" lon="37.02728">
        <ele>1639.146791</ele>
        <time>2022-02-25T18:01:49.017Z</time>
      </trkpt>
      <trkpt lat="38.75177" lon="37.03523">
        <ele>1634.251603</ele>
        <time>2022-02-25T18:04:18.478Z</time>
      </trkpt>
      <trkpt lat="38.75194" lon="37.03584">
        <ele>1633.950035</ele>
        <time>2022-02-25T18:04:30.797Z</time>
      </trkpt>
      <trkpt lat="38.75653" lon="37.0459">
        <ele>1630.378891</ele>
        <time>2022-02-25T18:08:19.660Z</time>
      </trkpt>
      <trkpt lat="38.75714" lon="37.04723">
        <ele>1629.565249</ele>
        <time>2022-02-25T18:08:47.867Z</time>
      </trkpt>
      <trkpt lat="38.7576" lon="37.04839">
        <ele>1628.762752</ele>
        <time>2022-02-25T18:09:11.768Z</time>
      </trkpt>
      <trkpt lat="38.7588" lon="37.0525">
        <ele>1626.938467</ele>
        <time>2022-02-25T18:10:35.691Z</time>
      </trkpt>
      <trkpt lat="38.75944" lon="37.05767">
        <ele>1626.292799</ele>
        <time>2022-02-25T18:12:22.142Z</time>
      </trkpt>
      <trkpt lat="38.75961" lon="37.06294">
        <ele>1625.948043</ele>
        <time>2022-02-25T18:14:09.155Z</time>
      </trkpt>
      <trkpt lat="38.75972" lon="37.06297">
        <ele>1625.969367</ele>
        <time>2022-02-25T18:14:12.849Z</time>
      </trkpt>
      <trkpt lat="38.75955" lon="37.05766">
        <ele>1626.739201</ele>
        <time>2022-02-25T18:16:08.736Z</time>
      </trkpt>
      <trkpt lat="38.75891" lon="37.05246">
        <ele>1627.205139</ele>
        <time>2022-02-25T18:17:59.395Z</time>
      </trkpt>
      <trkpt lat="38.75771" lon="37.04833">
        <ele>1628.705422</ele>
        <time>2022-02-25T18:19:39.020Z</time>
      </trkpt>
      <trkpt lat="38.75724" lon="37.04716">
        <ele>1629.214583</ele>
        <time>2022-02-25T18:20:08.670Z</time>
      </trkpt>
      <trkpt lat="38.75204" lon="37.03578">
        <ele>1634.577766</ele>
        <time>2022-02-25T18:25:08.395Z</time>
      </trkpt>
      <trkpt lat="38.75188" lon="37.03519">
        <ele>1634.904664</ele>
        <time>2022-02-25T18:25:23.132Z</time>
      </trkpt>
      <trkpt lat="38.75069" lon="37.02726">
        <ele>1639.748696</ele>
        <time>2022-02-25T18:28:35.050Z</time>
      </trkpt>
      <trkpt lat="38.75045" lon="37.02489">
        <ele>1640.864952</ele>
        <time>2022-02-25T18:29:29.994Z</time>
      </trkpt>
      <trkpt lat="38.75038" lon="37.02157">
        <ele>1642.781553</ele>
        <time>2022-02-25T18:30:44.875Z</time>
      </trkpt>
      <trkpt lat="38.75048" lon="37.02043">
        <ele>1643.872216</ele>
        <time>2022-02-25T18:31:17.108Z</time>
      </trkpt>
      <trkpt lat="38.75111" lon="37.02075">
        <ele>1645.23305</ele>
        <time>2022-02-25T18:31:42.774Z</time>
      </trkpt>
      <trkpt lat="38.7513" lon="37.0208">
        <ele>1645.637795</ele>
        <time>2022-02-25T18:31:50.295Z</time>
      </trkpt>
      <trkpt lat="38.75162" lon="37.02073">
        <ele>1646.282698</ele>
        <time>2022-02-25T18:32:02.032Z</time>
      </trkpt>
      <trkpt lat="38.7518" lon="37.02062">
        <ele>1646.703847</ele>
        <time>2022-02-25T18:32:09.886Z</time>
      </trkpt>
      <trkpt lat="38.7519" lon="37.02042">
        <ele>1647.084998</ele>
        <time>2022-02-25T18:32:16.851Z</time>
      </trkpt>
      <trkpt lat="38.75212" lon="37.01963">
        <ele>1648.331938</ele>
        <time>2022-02-25T18:32:41.335Z</time>
      </trkpt>
      <trkpt lat="38.7521" lon="37.01895">
        <ele>1649.314203</ele>
        <time>2022-02-25T18:33:00.603Z</time>
      </trkpt>
      <trkpt lat="38.75213" lon="37.01875">
        <ele>1649.612979</ele>
        <time>2022-02-25T18:33:06.248Z</time>
      </trkpt>
      <trkpt lat="38.75233" lon="37.01769">
        <ele>1651.122469</ele>
        <time>2022-02-25T18:33:37.362Z</time>
      </trkpt>
      <trkpt lat="38.75233" lon="37.01744">
        <ele>1651.40122</ele>
        <time>2022-02-25T18:33:44.448Z</time>
      </trkpt>
      <trkpt lat="38.75228" lon="37.01702">
        <ele>1651.877216</ele>
        <time>2022-02-25T18:33:56.658Z</time>
      </trkpt>
      <trkpt lat="38.75223" lon="37.01678">
        <ele>1652.158078</ele>
        <time>2022-02-25T18:34:03.963Z</time>
      </trkpt>
      <trkpt lat="38.75211" lon="37.01646">
        <ele>1652.56111</ele>
        <time>2022-02-25T18:34:14.002Z</time>
      </trkpt>
      <trkpt lat="38.75207" lon="37.01636">
        <ele>1652.695671</ele>
        <time>2022-02-25T18:34:17.189Z</time>
      </trkpt>
      <trkpt lat="38.75203" lon="37.01627">
        <ele>1652.813198</ele>
        <time>2022-02-25T18:34:19.992Z</time>
      </trkpt>
      <trkpt lat="38.75185" lon="37.01578">
        <ele>1653.421901</ele>
        <time>2022-02-25T18:34:33.399Z</time>
      </trkpt>
      <trkpt lat="38.75182" lon="37.0157">
        <ele>1653.405069</ele>
        <time>2022-02-25T18:34:35.444Z</time>
      </trkpt>
      <trkpt lat="38.75179" lon="37.01557">
        <ele>1653.337241</ele>
        <time>2022-02-25T18:34:38.742Z</time>
      </trkpt>
      <trkpt lat="38.75177" lon="37.01551">
        <ele>1653.306881</ele>
        <time>2022-02-25T18:34:39.994Z</time>
      </trkpt>
      <trkpt lat="38.75175" lon="37.0148">
        <ele>1652.954866</ele>
        <time>2022-02-25T18:34:55.096Z</time>
      </trkpt>
      <trkpt lat="38.75158" lon="37.0135">
        <ele>1652.304719</ele>
        <time>2022-02-25T18:35:19.489Z</time>
      </trkpt>
      <trkpt lat="38.75163" lon="37.01251">
        <ele>1651.551768</ele>
        <time>2022-02-25T18:35:37.131Z</time>
      </trkpt>
      <trkpt lat="38.75147" lon="37.01163">
        <ele>1650.866104</ele>
        <time>2022-02-25T18:35:54.218Z</time>
      </trkpt>
      <trkpt lat="38.75132" lon="37.01137">
        <ele>1650.625864</ele>
        <time>2022-02-25T18:36:00.374Z</time>
      </trkpt>
      <trkpt lat="38.75146" lon="37.0104">
        <ele>1651.593916</ele>
        <time>2022-02-25T18:36:22.338Z</time>
      </trkpt>
      <trkpt lat="38.75162" lon="37.00949">
        <ele>1652.698013</ele>
        <time>2022-02-25T18:36:47.508Z</time>
      </trkpt>
      <trkpt lat="38.75192" lon="37.00856">
        <ele>1654.343552</ele>
        <time>2022-02-25T18:37:22.037Z</time>
      </trkpt>
      <trkpt lat="38.75228" lon="37.00786">
        <ele>1656.072461</ele>
        <time>2022-02-25T18:37:49.729Z</time>
      </trkpt>
      <trkpt lat="38.7527" lon="37.00726">
        <ele>1657.729533</ele>
        <time>2022-02-25T18:38:13.564Z</time>
      </trkpt>
      <trkpt lat="38.75307" lon="37.00682">
        <ele>1658.301869</ele>
        <time>2022-02-25T18:38:29.386Z</time>
      </trkpt>
      <trkpt lat="38.75437" lon="37.0052">
        <ele>1659.918707</ele>
        <time>2022-02-25T18:39:21.290Z</time>
      </trkpt>
      <trkpt lat="38.75492" lon="37.00448">
        <ele>1661.068174</ele>
        <time>2022-02-25T18:39:47.984Z</time>
      </trkpt>
      <trkpt lat="38.75545" lon="37.00355">
        <ele>1662.351919</ele>
        <time>2022-02-25T18:40:22.396Z</time>
      </trkpt>
      <trkpt lat="38.75699" lon="37.00039">
        <ele>1665.912048</ele>
        <time>2022-02-25T18:41:54.665Z</time>
      </trkpt>
      <trkpt lat="38.75795" lon="36.99857">
        <ele>1668.012413</ele>
        <time>2022-02-25T18:42:51.401Z</time>
      </trkpt>
      <trkpt lat="38.75829" lon="36.99811">
        <ele>1668.625979</ele>
        <time>2022-02-25T18:43:07.501Z</time>
      </trkpt>
      <trkpt lat="38.76009" lon="36.99634">
        <ele>1670.73625</ele>
        <time>2022-02-25T18:44:18.082Z</time>
      </trkpt>
      <trkpt lat="38.7611" lon="36.99518">
        <ele>1671.807701</ele>
        <time>2022-02-25T18:44:59.408Z</time>
      </trkpt>
      <trkpt lat="38.76167" lon="36.99432">
        <ele>1672.091723</ele>
        <time>2022-02-25T18:45:24.738Z</time>
      </trkpt>
      <trkpt lat="38.76211" lon="36.99348">
        <ele>1672.34776</ele>
        <time>2022-02-25T18:45:46.325Z</time>
      </trkpt>
      <trkpt lat="38.76256" lon="36.99255">
        <ele>1672.406864</ele>
        <time>2022-02-25T18:46:09.082Z</time>
      </trkpt>
      <trkpt lat="38.76289" lon="36.99166">
        <ele>1672.436812</ele>
        <time>2022-02-25T18:46:29.544Z</time>
      </trkpt>
      <trkpt lat="38.76318" lon="36.99058">
        <ele>1672.663589</ele>
        <time>2022-02-25T18:46:53.786Z</time>
      </trkpt>
      <trkpt lat="38.76338" lon="36.98944">
        <ele>1672.980764</ele>
        <time>2022-02-25T18:47:19.611Z</time>
      </trkpt>
      <trkpt lat="38.76349" lon="36.98847">
        <ele>1673.571848</ele>
        <time>2022-02-25T18:47:42.824Z</time>
      </trkpt>
      <trkpt lat="38.76351" lon="36.98654">
        <ele>1675.075429</ele>
        <time>2022-02-25T18:48:31.407Z</time>
      </trkpt>
      <trkpt lat="38.76315" lon="36.98291">
        <ele>1677.885669</ele>
        <time>2022-02-25T18:50:02.051Z</time>
      </trkpt>
      <trkpt lat="38.76315" lon="36.9822">
        <ele>1678.371939</ele>
        <time>2022-02-25T18:50:17.804Z</time>
      </trkpt>
      <trkpt lat="38.76325" lon="36.98134">
        <ele>1679.07671</ele>
        <time>2022-02-25T18:50:37.749Z</time>
      </trkpt>
      <trkpt lat="38.76337" lon="36.98059">
        <ele>1679.700132</ele>
        <time>2022-02-25T18:50:56.401Z</time>
      </trkpt>
      <trkpt lat="38.76358" lon="36.9797">
        <ele>1680.733458</ele>
        <time>2022-02-25T18:51:21.312Z</time>
      </trkpt>
      <trkpt lat="38.76395" lon="36.97876">
        <ele>1682.625246</ele>
        <time>2022-02-25T18:51:52.829Z</time>
      </trkpt>
      <trkpt lat="38.76434" lon="36.978">
        <ele>1684.281824</ele>
        <time>2022-02-25T18:52:20.815Z</time>
      </trkpt>
      <trkpt lat="38.7647" lon="36.97745">
        <ele>1685.680822</ele>
        <time>2022-02-25T18:52:41.505Z</time>
      </trkpt>
      <trkpt lat="38.76481" lon="36.97729">
        <ele>1686.109848</ele>
        <time>2022-02-25T18:52:48.526Z</time>
      </trkpt>
      <trkpt lat="38.76523" lon="36.97675">
        <ele>1687.602928</ele>
        <time>2022-02-25T18:53:10.827Z</time>
      </trkpt>
      <trkpt lat="38.76561" lon="36.9763">
        <ele>1688.92225</ele>
        <time>2022-02-25T18:53:31.517Z</time>
      </trkpt>
      <trkpt lat="38.76674" lon="36.97549">
        <ele>1692.549779</ele>
        <time>2022-02-25T18:54:24.167Z</time>
      </trkpt>
      <trkpt lat="38.76832" lon="36.97472">
        <ele>1696.367207</ele>
        <time>2022-02-25T18:55:31.170Z</time>
      </trkpt>
      <trkpt lat="38.76919" lon="36.97418">
        <ele>1697.771559</ele>
        <time>2022-02-25T18:56:00.773Z</time>
      </trkpt>
      <trkpt lat="38.77022" lon="36.97321">
        <ele>1698.347822</ele>
        <time>2022-02-25T18:56:35.761Z</time>
      </trkpt>
      <trkpt lat="38.77059" lon="36.97275">
        <ele>1698.862745</ele>
        <time>2022-02-25T18:56:51.189Z</time>
      </trkpt>
      <trkpt lat="38.77108" lon="36.97198">
        <ele>1699.87268</ele>
        <time>2022-02-25T18:57:16.798Z</time>
      </trkpt>
      <trkpt lat="38.77275" lon="36.96921">
        <ele>1704.329159</ele>
        <time>2022-02-25T18:58:53.720Z</time>
      </trkpt>
      <trkpt lat="38.77411" lon="36.96787">
        <ele>1706.766276</ele>
        <time>2022-02-25T18:59:50.035Z</time>
      </trkpt>
      <trkpt lat="38.77473" lon="36.9672">
        <ele>1708.060284</ele>
        <time>2022-02-25T19:00:16.648Z</time>
      </trkpt>
      <trkpt lat="38.77683" lon="36.96356">
        <ele>1714.591847</ele>
        <time>2022-02-25T19:02:23.369Z</time>
      </trkpt>
      <trkpt lat="38.7774" lon="36.96274">
        <ele>1716.230774</ele>
        <time>2022-02-25T19:02:54.283Z</time>
      </trkpt>
      <trkpt lat="38.77778" lon="36.96232">
        <ele>1717.243341</ele>
        <time>2022-02-25T19:03:12.317Z</time>
      </trkpt>
      <trkpt lat="38.77966" lon="36.96064">
        <ele>1721.946144</ele>
        <time>2022-02-25T19:04:35.821Z</time>
      </trkpt>
      <trkpt lat="38.78064" lon="36.95969">
        <ele>1724.422971</ele>
        <time>2022-02-25T19:05:21.752Z</time>
      </trkpt>
      <trkpt lat="38.78236" lon="36.95788">
        <ele>1728.074825</ele>
        <time>2022-02-25T19:06:39.377Z</time>
      </trkpt>
      <trkpt lat="38.78389" lon="36.95659">
        <ele>1729.428855</ele>
        <time>2022-02-25T19:07:36.970Z</time>
      </trkpt>
      <trkpt lat="38.78485" lon="36.95594">
        <ele>1729.322956</ele>
        <time>2022-02-25T19:08:03.215Z</time>
      </trkpt>
      <trkpt lat="38.78602" lon="36.95538">
        <ele>1727.61285</ele>
        <time>2022-02-25T19:08:30.468Z</time>
      </trkpt>
      <trkpt lat="38.78799" lon="36.95419">
        <ele>1724.943024</ele>
        <time>2022-02-25T19:09:19.117Z</time>
      </trkpt>
      <trkpt lat="38.78936" lon="36.95316">
        <ele>1725.058648</ele>
        <time>2022-02-25T19:10:02.205Z</time>
      </trkpt>
      <trkpt lat="38.79035" lon="36.95225">
        <ele>1726.196374</ele>
        <time>2022-02-25T19:10:40.652Z</time>
      </trkpt>
      <trkpt lat="38.79148" lon="36.9511">
        <ele>1728.022228</ele>
        <time>2022-02-25T19:11:28.724Z</time>
      </trkpt>
      <trkpt lat="38.79234" lon="36.95003">
        <ele>1729.729965</ele>
        <time>2022-02-25T19:12:08.986Z</time>
      </trkpt>
      <trkpt lat="38.79286" lon="36.94928">
        <ele>1731.057744</ele>
        <time>2022-02-25T19:12:35.651Z</time>
      </trkpt>
      <trkpt lat="38.79379" lon="36.94743">
        <ele>1734.092104</ele>
        <time>2022-02-25T19:13:36.918Z</time>
      </trkpt>
      <trkpt lat="38.79469" lon="36.94489">
        <ele>1738.146677</ele>
        <time>2022-02-25T19:14:54.199Z</time>
      </trkpt>
      <trkpt lat="38.79533" lon="36.94273">
        <ele>1742.09186</ele>
        <time>2022-02-25T19:15:59.138Z</time>
      </trkpt>
      <trkpt lat="38.79554" lon="36.9418">
        <ele>1743.954863</ele>
        <time>2022-02-25T19:16:29.047Z</time>
      </trkpt>
      <trkpt lat="38.79601" lon="36.93928">
        <ele>1751.62204</ele>
        <time>2022-02-25T19:18:00.281Z</time>
      </trkpt>
      <trkpt lat="38.79629" lon="36.93861">
        <ele>1754.14348</ele>
        <time>2022-02-25T19:18:28.717Z</time>
      </trkpt>
      <trkpt lat="38.79662" lon="36.93807">
        <ele>1756.431258</ele>
        <time>2022-02-25T19:18:54.629Z</time>
      </trkpt>
      <trkpt lat="38.79763" lon="36.93699">
        <ele>1761.127455</ele>
        <time>2022-02-25T19:19:56.103Z</time>
      </trkpt>
      <trkpt lat="38.79854" lon="36.93646">
        <ele>1764.018682</ele>
        <time>2022-02-25T19:20:35.976Z</time>
      </trkpt>
      <trkpt lat="38.79994" lon="36.93595">
        <ele>1763.949436</ele>
        <time>2022-02-25T19:21:15.786Z</time>
      </trkpt>
      <trkpt lat="38.80178" lon="36.93532">
        <ele>1759.827858</ele>
        <time>2022-02-25T19:21:53.965Z</time>
      </trkpt>
      <trkpt lat="38.80224" lon="36.93516">
        <ele>1759.039779</ele>
        <time>2022-02-25T19:22:03.541Z</time>
      </trkpt>
      <trkpt lat="38.80345" lon="36.93476">
        <ele>1757.386776</ele>
        <time>2022-02-25T19:22:31.172Z</time>
      </trkpt>
      <trkpt lat="38.80496" lon="36.93416">
        <ele>1758.53542</ele>
        <time>2022-02-25T19:23:20.540Z</time>
      </trkpt>
      <trkpt lat="38.80596" lon="36.93363">
        <ele>1760.011608</ele>
        <time>2022-02-25T19:23:59.347Z</time>
      </trkpt>
      <trkpt lat="38.80931" lon="36.93114">
        <ele>1765.909973</ele>
        <time>2022-02-25T19:26:10.372Z</time>
      </trkpt>
      <trkpt lat="38.81051" lon="36.93003">
        <ele>1768.258308</ele>
        <time>2022-02-25T19:26:59.308Z</time>
      </trkpt>
      <trkpt lat="38.81138" lon="36.92865">
        <ele>1770.840572</ele>
        <time>2022-02-25T19:27:50.153Z</time>
      </trkpt>
      <trkpt lat="38.81178" lon="36.92642">
        <ele>1774.357158</ele>
        <time>2022-02-25T19:28:57.815Z</time>
      </trkpt>
      <trkpt lat="38.81188" lon="36.92102">
        <ele>1775.508289</ele>
        <time>2022-02-25T19:30:53.274Z</time>
      </trkpt>
      <trkpt lat="38.81188" lon="36.91665">
        <ele>1775.018391</ele>
        <time>2022-02-25T19:32:20.500Z</time>
      </trkpt>
      <trkpt lat="38.81179" lon="36.91487">
        <ele>1775.271014</ele>
        <time>2022-02-25T19:32:59.033Z</time>
      </trkpt>
      <trkpt lat="38.81156" lon="36.9136">
        <ele>1776.089144</ele>
        <time>2022-02-25T19:33:28.948Z</time>
      </trkpt>
      <trkpt lat="38.81109" lon="36.91223">
        <ele>1777.952395</ele>
        <time>2022-02-25T19:34:07.713Z</time>
      </trkpt>
      <trkpt lat="38.81044" lon="36.91106">
        <ele>1780.645592</ele>
        <time>2022-02-25T19:34:51.769Z</time>
      </trkpt>
      <trkpt lat="38.80945" lon="36.90959">
        <ele>1786.273256</ele>
        <time>2022-02-25T19:36:00.500Z</time>
      </trkpt>
      <trkpt lat="38.80908" lon="36.90893">
        <ele>1788.74907</ele>
        <time>2022-02-25T19:36:30.114Z</time>
      </trkpt>
      <trkpt lat="38.80885" lon="36.90839">
        <ele>1790.683664</ele>
        <time>2022-02-25T19:36:52.108Z</time>
      </trkpt>
      <trkpt lat="38.80869" lon="36.90785">
        <ele>1792.526377</ele>
        <time>2022-02-25T19:37:12.979Z</time>
      </trkpt>
      <trkpt lat="38.80855" lon="36.90705">
        <ele>1795.120724</ele>
        <time>2022-02-25T19:37:42.142Z</time>
      </trkpt>
      <trkpt lat="38.80851" lon="36.90646">
        <ele>1797.249545</ele>
        <time>2022-02-25T19:38:03.595Z</time>
      </trkpt>
      <trkpt lat="38.80855" lon="36.90585">
        <ele>1799.396838</ele>
        <time>2022-02-25T19:38:25.873Z</time>
      </trkpt>
      <trkpt lat="38.80864" lon="36.90525">
        <ele>1801.577126</ele>
        <time>2022-02-25T19:38:49.410Z</time>
      </trkpt>
      <trkpt lat="38.80881" lon="36.90463">
        <ele>1804.15349</ele>
        <time>2022-02-25T19:39:15.990Z</time>
      </trkpt>
      <trkpt lat="38.80898" lon="36.90416">
        <ele>1806.604846</ele>
        <time>2022-02-25T19:39:37.840Z</time>
      </trkpt>
      <trkpt lat="38.80931" lon="36.90346">
        <ele>1810.443935</ele>
        <time>2022-02-25T19:40:13.460Z</time>
      </trkpt>
      <trkpt lat="38.81024" lon="36.90192">
        <ele>1820.073808</ele>
        <time>2022-02-25T19:41:42.301Z</time>
      </trkpt>
      <trkpt lat="38.81145" lon="36.89999">
        <ele>1832.623025</ele>
        <time>2022-02-25T19:43:34.348Z</time>
      </trkpt>
      <trkpt lat="38.81212" lon="36.89918">
        <ele>1838.574854</ele>
        <time>2022-02-25T19:44:26.776Z</time>
      </trkpt>
      <trkpt lat="38.81265" lon="36.89861">
        <ele>1843.143444</ele>
        <time>2022-02-25T19:45:06.800Z</time>
      </trkpt>
      <trkpt lat="38.81311" lon="36.89821">
        <ele>1846.811035</ele>
        <time>2022-02-25T19:45:39.394Z</time>
      </trkpt>
      <trkpt lat="38.81378" lon="36.89788">
        <ele>1851.619413</ele>
        <time>2022-02-25T19:46:22.301Z</time>
      </trkpt>
      <trkpt lat="38.81499" lon="36.89758">
        <ele>1860.014535</ele>
        <time>2022-02-25T19:47:36.224Z</time>
      </trkpt>
      <trkpt lat="38.81574" lon="36.89763">
        <ele>1864.712901</ele>
        <time>2022-02-25T19:48:19.622Z</time>
      </trkpt>
      <trkpt lat="38.81677" lon="36.89795">
        <ele>1871.095933</ele>
        <time>2022-02-25T19:49:17.921Z</time>
      </trkpt>
      <trkpt lat="38.8174" lon="36.89827">
        <ele>1874.954184</ele>
        <time>2022-02-25T19:49:53.385Z</time>
      </trkpt>
      <trkpt lat="38.81871" lon="36.89927">
        <ele>1883.738821</ele>
        <time>2022-02-25T19:51:14.820Z</time>
      </trkpt>
      <trkpt lat="38.81933" lon="36.89964">
        <ele>1888.445117</ele>
        <time>2022-02-25T19:51:53.788Z</time>
      </trkpt>
      <trkpt lat="38.82018" lon="36.90006">
        <ele>1894.755126</ele>
        <time>2022-02-25T19:52:50.963Z</time>
      </trkpt>
      <trkpt lat="38.8208" lon="36.90029">
        <ele>1900.211043</ele>
        <time>2022-02-25T19:53:34.152Z</time>
      </trkpt>
      <trkpt lat="38.82263" lon="36.90071">
        <ele>1914.887343</ele>
        <time>2022-02-25T19:55:42.946Z</time>
      </trkpt>
      <trkpt lat="38.82323" lon="36.90076">
        <ele>1918.862215</ele>
        <time>2022-02-25T19:56:17.784Z</time>
      </trkpt>
      <trkpt lat="38.82369" lon="36.90075">
        <ele>1921.932285</ele>
        <time>2022-02-25T19:56:41.263Z</time>
      </trkpt>
      <trkpt lat="38.82452" lon="36.90054">
        <ele>1923.043789</ele>
        <time>2022-02-25T19:57:15.657Z</time>
      </trkpt>
      <trkpt lat="38.82553" lon="36.89996">
        <ele>1923.480187</ele>
        <time>2022-02-25T19:57:42.417Z</time>
      </trkpt>
      <trkpt lat="38.82596" lon="36.8996">
        <ele>1921.103216</ele>
        <time>2022-02-25T19:57:52.298Z</time>
      </trkpt>
      <trkpt lat="38.82637" lon="36.89911">
        <ele>1918.481565</ele>
        <time>2022-02-25T19:58:02.570Z</time>
      </trkpt>
      <trkpt lat="38.8266" lon="36.8988">
        <ele>1916.930513</ele>
        <time>2022-02-25T19:58:08.444Z</time>
      </trkpt>
      <trkpt lat="38.82742" lon="36.8973">
        <ele>1906.742909</ele>
        <time>2022-02-25T19:58:32.577Z</time>
      </trkpt>
      <trkpt lat="38.82787" lon="36.89662">
        <ele>1901.318055</ele>
        <time>2022-02-25T19:58:44.231Z</time>
      </trkpt>
      <trkpt lat="38.82825" lon="36.89615">
        <ele>1897.427535</ele>
        <time>2022-02-25T19:58:53.182Z</time>
      </trkpt>
      <trkpt lat="38.8287" lon="36.89574">
        <ele>1893.44195</ele>
        <time>2022-02-25T19:59:02.437Z</time>
      </trkpt>
      <trkpt lat="38.8296" lon="36.89525">
        <ele>1887.110397</ele>
        <time>2022-02-25T19:59:19.470Z</time>
      </trkpt>
      <trkpt lat="38.83134" lon="36.89482">
        <ele>1879.873256</ele>
        <time>2022-02-25T19:59:52.696Z</time>
      </trkpt>
      <trkpt lat="38.83171" lon="36.89466">
        <ele>1879.102189</ele>
        <time>2022-02-25T20:00:01.010Z</time>
      </trkpt>
      <trkpt lat="38.83239" lon="36.89421">
        <ele>1877.602905</ele>
        <time>2022-02-25T20:00:18.048Z</time>
      </trkpt>
      <trkpt lat="38.8327" lon="36.8939">
        <ele>1876.843936</ele>
        <time>2022-02-25T20:00:27.099Z</time>
      </trkpt>
      <trkpt lat="38.83302" lon="36.89348">
        <ele>1876.165148</ele>
        <time>2022-02-25T20:00:37.648Z</time>
      </trkpt>
      <trkpt lat="38.83335" lon="36.89293">
        <ele>1875.344528</ele>
        <time>2022-02-25T20:00:50.039Z</time>
      </trkpt>
      <trkpt lat="38.8343" lon="36.89077">
        <ele>1871.785325</ele>
        <time>2022-02-25T20:01:30.497Z</time>
      </trkpt>
      <trkpt lat="38.83476" lon="36.8899">
        <ele>1870.131333</ele>
        <time>2022-02-25T20:01:47.717Z</time>
      </trkpt>
      <trkpt lat="38.83498" lon="36.88957">
        <ele>1869.559039</ele>
        <time>2022-02-25T20:01:54.856Z</time>
      </trkpt>
      <trkpt lat="38.83529" lon="36.88921">
        <ele>1868.846066</ele>
        <time>2022-02-25T20:02:03.816Z</time>
      </trkpt>
      <trkpt lat="38.83608" lon="36.88855">
        <ele>1867.263585</ele>
        <time>2022-02-25T20:02:24.629Z</time>
      </trkpt>
      <trkpt lat="38.83645" lon="36.88832">
        <ele>1866.777885</ele>
        <time>2022-02-25T20:02:33.781Z</time>
      </trkpt>
      <trkpt lat="38.83696" lon="36.88811">
        <ele>1866.136584</ele>
        <time>2022-02-25T20:02:45.871Z</time>
      </trkpt>
      <trkpt lat="38.83777" lon="36.88792">
        <ele>1865.188326</ele>
        <time>2022-02-25T20:03:04.673Z</time>
      </trkpt>
      <trkpt lat="38.83861" lon="36.88796">
        <ele>1865.037849</ele>
        <time>2022-02-25T20:03:24.438Z</time>
      </trkpt>
      <trkpt lat="38.84977" lon="36.88973">
        <ele>1863.042805</ele>
        <time>2022-02-25T20:08:18.965Z</time>
      </trkpt>
      <trkpt lat="38.85045" lon="36.88975">
        <ele>1862.711931</ele>
        <time>2022-02-25T20:08:36.464Z</time>
      </trkpt>
      <trkpt lat="38.85111" lon="36.88965">
        <ele>1861.898244</ele>
        <time>2022-02-25T20:08:52.388Z</time>
      </trkpt>
      <trkpt lat="38.85198" lon="36.88934">
        <ele>1860.7871</ele>
        <time>2022-02-25T20:09:12.099Z</time>
      </trkpt>
      <trkpt lat="38.85287" lon="36.88882">
        <ele>1857.737218</ele>
        <time>2022-02-25T20:09:31.625Z</time>
      </trkpt>
      <trkpt lat="38.85344" lon="36.88833">
        <ele>1855.60341</ele>
        <time>2022-02-25T20:09:44.616Z</time>
      </trkpt>
      <trkpt lat="38.85395" lon="36.88777">
        <ele>1853.371451</ele>
        <time>2022-02-25T20:09:57.354Z</time>
      </trkpt>
      <trkpt lat="38.85449" lon="36.88701">
        <ele>1850.656348</ele>
        <time>2022-02-25T20:10:12.728Z</time>
      </trkpt>
      <trkpt lat="38.85591" lon="36.88412">
        <ele>1843.433175</ele>
        <time>2022-02-25T20:11:06.125Z</time>
      </trkpt>
      <trkpt lat="38.85655" lon="36.8829">
        <ele>1841.374865</ele>
        <time>2022-02-25T20:11:30.836Z</time>
      </trkpt>
      <trkpt lat="38.85752" lon="36.88145">
        <ele>1840.243079</ele>
        <time>2022-02-25T20:12:06.284Z</time>
      </trkpt>
      <trkpt lat="38.85871" lon="36.88016">
        <ele>1840.510009</ele>
        <time>2022-02-25T20:12:49.271Z</time>
      </trkpt>
      <trkpt lat="38.86066" lon="36.87834">
        <ele>1842.673536</ele>
        <time>2022-02-25T20:14:05.978Z</time>
      </trkpt>
      <trkpt lat="38.86194" lon="36.87708">
        <ele>1844.588997</ele>
        <time>2022-02-25T20:14:56.793Z</time>
      </trkpt>
      <trkpt lat="38.86238" lon="36.87658">
        <ele>1845.5202</ele>
        <time>2022-02-25T20:15:16.558Z</time>
      </trkpt>
      <trkpt lat="38.86354" lon="36.87501">
        <ele>1849.467892</ele>
        <time>2022-02-25T20:16:21.121Z</time>
      </trkpt>
      <trkpt lat="38.864" lon="36.87417">
        <ele>1851.591612</ele>
        <time>2022-02-25T20:16:55.128Z</time>
      </trkpt>
      <trkpt lat="38.86442" lon="36.87318">
        <ele>1853.918213</ele>
        <time>2022-02-25T20:17:29.407Z</time>
      </trkpt>
      <trkpt lat="38.86461" lon="36.87267">
        <ele>1854.46817</ele>
        <time>2022-02-25T20:17:45.056Z</time>
      </trkpt>
      <trkpt lat="38.86487" lon="36.87194">
        <ele>1855.164242</ele>
        <time>2022-02-25T20:18:05.288Z</time>
      </trkpt>
      <trkpt lat="38.86711" lon="36.86372">
        <ele>1860.712314</ele>
        <time>2022-02-25T20:21:20.053Z</time>
      </trkpt>
      <trkpt lat="38.86778" lon="36.8617">
        <ele>1868.30524</ele>
        <time>2022-02-25T20:22:50.613Z</time>
      </trkpt>
      <trkpt lat="38.86826" lon="36.86067">
        <ele>1873.984391</ele>
        <time>2022-02-25T20:23:45.991Z</time>
      </trkpt>
      <trkpt lat="38.86857" lon="36.86019">
        <ele>1876.643345</ele>
        <time>2022-02-25T20:24:12.806Z</time>
      </trkpt>
      <trkpt lat="38.86918" lon="36.85941">
        <ele>1880.03759</ele>
        <time>2022-02-25T20:24:55.821Z</time>
      </trkpt>
      <trkpt lat="38.87013" lon="36.85838">
        <ele>1883.58456</ele>
        <time>2022-02-25T20:25:43.735Z</time>
      </trkpt>
      <trkpt lat="38.87102" lon="36.85759">
        <ele>1884.595441</ele>
        <time>2022-02-25T20:26:15.930Z</time>
      </trkpt>
      <trkpt lat="38.87207" lon="36.8569">
        <ele>1884.435674</ele>
        <time>2022-02-25T20:26:46.040Z</time>
      </trkpt>
      <trkpt lat="38.87318" lon="36.85631">
        <ele>1883.543857</ele>
        <time>2022-02-25T20:27:14.858Z</time>
      </trkpt>
      <trkpt lat="38.87377" lon="36.85593">
        <ele>1882.504235</ele>
        <time>2022-02-25T20:27:29.409Z</time>
      </trkpt>
      <trkpt lat="38.87419" lon="36.85558">
        <ele>1881.702765</ele>
        <time>2022-02-25T20:27:40.216Z</time>
      </trkpt>
      <trkpt lat="38.87446" lon="36.85535">
        <ele>1881.176737</ele>
        <time>2022-02-25T20:27:47.023Z</time>
      </trkpt>
      <trkpt lat="38.87513" lon="36.85462">
        <ele>1878.038372</ele>
        <time>2022-02-25T20:28:04.390Z</time>
      </trkpt>
      <trkpt lat="38.87821" lon="36.85028">
        <ele>1861.098985</ele>
        <time>2022-02-25T20:29:30.941Z</time>
      </trkpt>
      <trkpt lat="38.87892" lon="36.84945">
        <ele>1857.350157</ele>
        <time>2022-02-25T20:29:49.080Z</time>
      </trkpt>
      <trkpt lat="38.87955" lon="36.84895">
        <ele>1854.434486</ele>
        <time>2022-02-25T20:30:03.139Z</time>
      </trkpt>
      <trkpt lat="38.88133" lon="36.848">
        <ele>1846.577801</ele>
        <time>2022-02-25T20:30:39.093Z</time>
      </trkpt>
      <trkpt lat="38.88176" lon="36.84767">
        <ele>1844.714469</ele>
        <time>2022-02-25T20:30:48.661Z</time>
      </trkpt>
      <trkpt lat="38.88218" lon="36.84734">
        <ele>1842.898974</ele>
        <time>2022-02-25T20:30:58.042Z</time>
      </trkpt>
      <trkpt lat="38.88243" lon="36.84708">
        <ele>1841.736495</ele>
        <time>2022-02-25T20:31:04.143Z</time>
      </trkpt>
      <trkpt lat="38.88267" lon="36.84679">
        <ele>1840.536321</ele>
        <time>2022-02-25T20:31:10.533Z</time>
      </trkpt>
      <trkpt lat="38.8832" lon="36.84596">
        <ele>1838.655507</ele>
        <time>2022-02-25T20:31:27.211Z</time>
      </trkpt>
      <trkpt lat="38.88551" lon="36.84231">
        <ele>1833.502104</ele>
        <time>2022-02-25T20:32:48.184Z</time>
      </trkpt>
      <trkpt lat="38.88686" lon="36.84004">
        <ele>1833.796151</ele>
        <time>2022-02-25T20:33:53.072Z</time>
      </trkpt>
      <trkpt lat="38.88734" lon="36.83891">
        <ele>1834.072832</ele>
        <time>2022-02-25T20:34:22.638Z</time>
      </trkpt>
      <trkpt lat="38.88775" lon="36.83765">
        <ele>1834.027822</ele>
        <time>2022-02-25T20:34:50.528Z</time>
      </trkpt>
      <trkpt lat="38.88811" lon="36.83619">
        <ele>1833.013244</ele>
        <time>2022-02-25T20:35:18.884Z</time>
      </trkpt>
      <trkpt lat="38.88822" lon="36.83543">
        <ele>1832.347561</ele>
        <time>2022-02-25T20:35:32.284Z</time>
      </trkpt>
      <trkpt lat="38.88828" lon="36.83503">
        <ele>1831.976003</ele>
        <time>2022-02-25T20:35:39.224Z</time>
      </trkpt>
      <trkpt lat="38.88834" lon="36.83444">
        <ele>1831.165959</ele>
        <time>2022-02-25T20:35:49.287Z</time>
      </trkpt>
      <trkpt lat="38.88835" lon="36.83428">
        <ele>1830.937648</ele>
        <time>2022-02-25T20:35:52.034Z</time>
      </trkpt>
      <trkpt lat="38.88837" lon="36.8338">
        <ele>1830.288343</ele>
        <time>2022-02-25T20:35:59.998Z</time>
      </trkpt>
      <trkpt lat="38.88834" lon="36.83183">
        <ele>1827.54042</ele>
        <time>2022-02-25T20:36:32.582Z</time>
      </trkpt>
      <trkpt lat="38.88823" lon="36.83082">
        <ele>1826.08187</ele>
        <time>2022-02-25T20:36:49.640Z</time>
      </trkpt>
      <trkpt lat="38.888" lon="36.82969">
        <ele>1824.682102</ele>
        <time>2022-02-25T20:37:09.297Z</time>
      </trkpt>
      <trkpt lat="38.88746" lon="36.82746">
        <ele>1823.748591</ele>
        <time>2022-02-25T20:37:50.138Z</time>
      </trkpt>
      <trkpt lat="38.88694" lon="36.82525">
        <ele>1826.015274</ele>
        <time>2022-02-25T20:38:59.986Z</time>
      </trkpt>
      <trkpt lat="38.88635" lon="36.82291">
        <ele>1825.614853</ele>
        <time>2022-02-25T20:40:00.116Z</time>
      </trkpt>
      <trkpt lat="38.88617" lon="36.8222">
        <ele>1823.940198</ele>
        <time>2022-02-25T20:40:10.302Z</time>
      </trkpt>
      <trkpt lat="38.88605" lon="36.82176">
        <ele>1822.910186</ele>
        <time>2022-02-25T20:40:16.398Z</time>
      </trkpt>
      <trkpt lat="38.88442" lon="36.81499">
        <ele>1808.212815</ele>
        <time>2022-02-25T20:42:08.379Z</time>
      </trkpt>
      <trkpt lat="38.88423" lon="36.81424">
        <ele>1807.157553</ele>
        <time>2022-02-25T20:42:22.238Z</time>
      </trkpt>
      <trkpt lat="38.88362" lon="36.8118">
        <ele>1803.264485</ele>
        <time>2022-02-25T20:43:05.292Z</time>
      </trkpt>
      <trkpt lat="38.88125" lon="36.80231">
        <ele>1786.030075</ele>
        <time>2022-02-25T20:45:45.132Z</time>
      </trkpt>
      <trkpt lat="38.88116" lon="36.80192">
        <ele>1785.393953</ele>
        <time>2022-02-25T20:45:51.956Z</time>
      </trkpt>
      <trkpt lat="38.88067" lon="36.79996">
        <ele>1784.130219</ele>
        <time>2022-02-25T20:46:29.980Z</time>
      </trkpt>
      <trkpt lat="38.878" lon="36.78896">
        <ele>1784.547877</ele>
        <time>2022-02-25T20:50:33.931Z</time>
      </trkpt>
      <trkpt lat="38.87716" lon="36.78557">
        <ele>1783.511303</ele>
        <time>2022-02-25T20:51:40.917Z</time>
      </trkpt>
      <trkpt lat="38.87709" lon="36.78528">
        <ele>1783.53543</ele>
        <time>2022-02-25T20:51:46.820Z</time>
      </trkpt>
      <trkpt lat="38.86922" lon="36.75304">
        <ele>1804.911328</ele>
        <time>2022-02-25T21:05:11.884Z</time>
      </trkpt>
      <trkpt lat="38.86862" lon="36.75057">
        <ele>1808.328528</ele>
        <time>2022-02-25T21:06:30.319Z</time>
      </trkpt>
      <trkpt lat="38.86781" lon="36.74724">
        <ele>1808.469209</ele>
        <time>2022-02-25T21:07:36.832Z</time>
      </trkpt>
      <trkpt lat="38.86306" lon="36.72783">
        <ele>1818.153604</ele>
        <time>2022-02-25T21:15:33.235Z</time>
      </trkpt>
      <trkpt lat="38.86272" lon="36.72632">
        <ele>1816.778005</ele>
        <time>2022-02-25T21:16:00.161Z</time>
      </trkpt>
      <trkpt lat="38.86203" lon="36.72374">
        <ele>1813.141498</ele>
        <time>2022-02-25T21:16:42.328Z</time>
      </trkpt>
      <trkpt lat="38.85969" lon="36.71416">
        <ele>1811.128163</ele>
        <time>2022-02-25T21:20:12.002Z</time>
      </trkpt>
      <trkpt lat="38.85921" lon="36.71194">
        <ele>1810.089596</ele>
        <time>2022-02-25T21:20:56.306Z</time>
      </trkpt>
      <trkpt lat="38.85912" lon="36.71145">
        <ele>1809.810528</ele>
        <time>2022-02-25T21:21:05.127Z</time>
      </trkpt>
      <trkpt lat="38.85911" lon="36.71138">
        <ele>1809.705961</ele>
        <time>2022-02-25T21:21:06.374Z</time>
      </trkpt>
      <trkpt lat="38.85904" lon="36.7109">
        <ele>1808.793488</ele>
        <time>2022-02-25T21:21:14.656Z</time>
      </trkpt>
      <trkpt lat="38.85888" lon="36.70943">
        <ele>1805.997635</ele>
        <time>2022-02-25T21:21:38.536Z</time>
      </trkpt>
      <trkpt lat="38.85878" lon="36.70756">
        <ele>1800.333848</ele>
        <time>2022-02-25T21:22:05.894Z</time>
      </trkpt>
      <trkpt lat="38.85878" lon="36.70656">
        <ele>1797.144283</ele>
        <time>2022-02-25T21:22:20.174Z</time>
      </trkpt>
      <trkpt lat="38.85878" lon="36.70609">
        <ele>1795.70505</ele>
        <time>2022-02-25T21:22:26.814Z</time>
      </trkpt>
      <trkpt lat="38.85899" lon="36.70311">
        <ele>1788.051001</ele>
        <time>2022-02-25T21:23:11.384Z</time>
      </trkpt>
      <trkpt lat="38.86198" lon="36.66948">
        <ele>1768.140218</ele>
        <time>2022-02-25T21:33:39.817Z</time>
      </trkpt>
      <trkpt lat="38.86224" lon="36.66656">
        <ele>1772.823147</ele>
        <time>2022-02-25T21:35:06.852Z</time>
      </trkpt>
      <trkpt lat="38.86226" lon="36.66636">
        <ele>1773.27035</ele>
        <time>2022-02-25T21:35:14.409Z</time>
      </trkpt>
      <trkpt lat="38.86241" lon="36.6647">
        <ele>1776.660237</ele>
        <time>2022-02-25T21:36:09.264Z</time>
      </trkpt>
      <trkpt lat="38.86253" lon="36.6634">
        <ele>1779.057601</ele>
        <time>2022-02-25T21:36:47.058Z</time>
      </trkpt>
      <trkpt lat="38.8631" lon="36.65696">
        <ele>1783.053862</ele>
        <time>2022-02-25T21:39:22.320Z</time>
      </trkpt>
      <trkpt lat="38.86316" lon="36.65585">
        <ele>1782.697979</ele>
        <time>2022-02-25T21:39:43.084Z</time>
      </trkpt>
      <trkpt lat="38.8632" lon="36.65391">
        <ele>1780.608624</ele>
        <time>2022-02-25T21:40:15.931Z</time>
      </trkpt>
      <trkpt lat="38.86305" lon="36.65151">
        <ele>1777.868965</ele>
        <time>2022-02-25T21:40:56.554Z</time>
      </trkpt>
      <trkpt lat="38.86275" lon="36.6494">
        <ele>1777.097924</ele>
        <time>2022-02-25T21:41:37.886Z</time>
      </trkpt>
      <trkpt lat="38.86168" lon="36.64411">
        <ele>1781.287293</ele>
        <time>2022-02-25T21:43:55.665Z</time>
      </trkpt>
      <trkpt lat="38.86103" lon="36.64078">
        <ele>1781.687309</ele>
        <time>2022-02-25T21:45:09.659Z</time>
      </trkpt>
      <trkpt lat="38.85982" lon="36.63471">
        <ele>1773.767073</ele>
        <time>2022-02-25T21:46:54.674Z</time>
      </trkpt>
      <trkpt lat="38.85851" lon="36.62806">
        <ele>1764.802858</ele>
        <time>2022-02-25T21:48:51.018Z</time>
      </trkpt>
      <trkpt lat="38.85806" lon="36.62611">
        <ele>1761.673816</ele>
        <time>2022-02-25T21:49:23.751Z</time>
      </trkpt>
      <trkpt lat="38.85742" lon="36.62374">
        <ele>1758.18106</ele>
        <time>2022-02-25T21:50:05.538Z</time>
      </trkpt>
      <trkpt lat="38.85642" lon="36.62064">
        <ele>1755.208663</ele>
        <time>2022-02-25T21:51:05.522Z</time>
      </trkpt>
      <trkpt lat="38.85574" lon="36.61888">
        <ele>1754.358558</ele>
        <time>2022-02-25T21:51:43.040Z</time>
      </trkpt>
      <trkpt lat="38.85424" lon="36.61545">
        <ele>1753.490406</ele>
        <time>2022-02-25T21:53:02.337Z</time>
      </trkpt>
      <trkpt lat="38.84906" lon="36.60401">
        <ele>1746.779097</ele>
        <time>2022-02-25T21:57:11.921Z</time>
      </trkpt>
      <trkpt lat="38.84841" lon="36.60241">
        <ele>1744.769474</ele>
        <time>2022-02-25T21:57:42.348Z</time>
      </trkpt>
      <trkpt lat="38.84662" lon="36.59846">
        <ele>1738.454897</ele>
        <time>2022-02-25T21:58:58.394Z</time>
      </trkpt>
      <trkpt lat="38.84603" lon="36.59715">
        <ele>1737.00037</ele>
        <time>2022-02-25T21:59:25.256Z</time>
      </trkpt>
      <trkpt lat="38.84417" lon="36.59295">
        <ele>1732.87923</ele>
        <time>2022-02-25T22:00:51.886Z</time>
      </trkpt>
      <trkpt lat="38.84357" lon="36.59182">
        <ele>1731.840724</ele>
        <time>2022-02-25T22:01:16.127Z</time>
      </trkpt>
      <trkpt lat="38.84291" lon="36.59073">
        <ele>1730.859754</ele>
        <time>2022-02-25T22:01:41.456Z</time>
      </trkpt>
      <trkpt lat="38.84212" lon="36.58976">
        <ele>1729.695772</ele>
        <time>2022-02-25T22:02:07.918Z</time>
      </trkpt>
      <trkpt lat="38.84146" lon="36.58907">
        <ele>1728.626591</ele>
        <time>2022-02-25T22:02:27.327Z</time>
      </trkpt>
      <trkpt lat="38.84031" lon="36.58812">
        <ele>1724.141685</ele>
        <time>2022-02-25T22:02:54.556Z</time>
      </trkpt>
      <trkpt lat="38.839" lon="36.58733">
        <ele>1715.522415</ele>
        <time>2022-02-25T22:03:20.258Z</time>
      </trkpt>
      <trkpt lat="38.83767" lon="36.58642">
        <ele>1703.629864</ele>
        <time>2022-02-25T22:03:45.216Z</time>
      </trkpt>
      <trkpt lat="38.83733" lon="36.58613">
        <ele>1700.086982</ele>
        <time>2022-02-25T22:03:51.867Z</time>
      </trkpt>
      <trkpt lat="38.83731" lon="36.58611">
        <ele>1699.782832</ele>
        <time>2022-02-25T22:03:52.397Z</time>
      </trkpt>
      <trkpt lat="38.8369" lon="36.58567">
        <ele>1695.137117</ele>
        <time>2022-02-25T22:04:01.240Z</time>
      </trkpt>
      <trkpt lat="38.83631" lon="36.5847">
        <ele>1688.967751</ele>
        <time>2022-02-25T22:04:17.521Z</time>
      </trkpt>
      <trkpt lat="38.83578" lon="36.58341">
        <ele>1682.440869</ele>
        <time>2022-02-25T22:04:38.313Z</time>
      </trkpt>
      <trkpt lat="38.83554" lon="36.58245">
        <ele>1679.317662</ele>
        <time>2022-02-25T22:04:52.959Z</time>
      </trkpt>
      <trkpt lat="38.83548" lon="36.58206">
        <ele>1678.078971</ele>
        <time>2022-02-25T22:04:58.891Z</time>
      </trkpt>
      <trkpt lat="38.83539" lon="36.58152">
        <ele>1676.364927</ele>
        <time>2022-02-25T22:05:07.238Z</time>
      </trkpt>
      <trkpt lat="38.83542" lon="36.58005">
        <ele>1673.479268</ele>
        <time>2022-02-25T22:05:29.998Z</time>
      </trkpt>
      <trkpt lat="38.83627" lon="36.57477">
        <ele>1665.941329</ele>
        <time>2022-02-25T22:07:01.039Z</time>
      </trkpt>
      <trkpt lat="38.83637" lon="36.57384">
        <ele>1664.89768</ele>
        <time>2022-02-25T22:07:17.233Z</time>
      </trkpt>
      <trkpt lat="38.83648" lon="36.57104">
        <ele>1661.667657</ele>
        <time>2022-02-25T22:08:05.942Z</time>
      </trkpt>
      <trkpt lat="38.83644" lon="36.57006">
        <ele>1660.475531</ele>
        <time>2022-02-25T22:08:22.424Z</time>
      </trkpt>
      <trkpt lat="38.83632" lon="36.5686">
        <ele>1658.322813</ele>
        <time>2022-02-25T22:08:46.709Z</time>
      </trkpt>
      <trkpt lat="38.83626" lon="36.56812">
        <ele>1657.613556</ele>
        <time>2022-02-25T22:08:54.696Z</time>
      </trkpt>
      <trkpt lat="38.83604" lon="36.56675">
        <ele>1655.737864</ele>
        <time>2022-02-25T22:09:17.886Z</time>
      </trkpt>
      <trkpt lat="38.83571" lon="36.56525">
        <ele>1653.764408</ele>
        <time>2022-02-25T22:09:44.624Z</time>
      </trkpt>
      <trkpt lat="38.83499" lon="36.56288">
        <ele>1651.075746</ele>
        <time>2022-02-25T22:10:28.776Z</time>
      </trkpt>
      <trkpt lat="38.83243" lon="36.55666">
        <ele>1644.475721</ele>
        <time>2022-02-25T22:12:33.062Z</time>
      </trkpt>
      <trkpt lat="38.83205" lon="36.55574">
        <ele>1643.488323</ele>
        <time>2022-02-25T22:12:51.110Z</time>
      </trkpt>
      <trkpt lat="38.83209" lon="36.5557">
        <ele>1643.41944</ele>
        <time>2022-02-25T22:12:52.308Z</time>
      </trkpt>
      <trkpt lat="38.83214" lon="36.55556">
        <ele>1643.283537</ele>
        <time>2022-02-25T22:12:54.773Z</time>
      </trkpt>
      <trkpt lat="38.83206" lon="36.55526">
        <ele>1642.977627</ele>
        <time>2022-02-25T22:13:00.481Z</time>
      </trkpt>
      <trkpt lat="38.83203" lon="36.55501">
        <ele>1642.926379</ele>
        <time>2022-02-25T22:13:05.021Z</time>
      </trkpt>
      <trkpt lat="38.83166" lon="36.55382">
        <ele>1643.083059</ele>
        <time>2022-02-25T22:13:29.876Z</time>
      </trkpt>
      <trkpt lat="38.831" lon="36.55138">
        <ele>1645.264725</ele>
        <time>2022-02-25T22:14:37.343Z</time>
      </trkpt>
      <trkpt lat="38.83073" lon="36.55054">
        <ele>1646.168854</ele>
        <time>2022-02-25T22:15:03.810Z</time>
      </trkpt>
      <trkpt lat="38.83033" lon="36.54978">
        <ele>1646.733438</ele>
        <time>2022-02-25T22:15:26.124Z</time>
      </trkpt>
      <trkpt lat="38.82991" lon="36.54933">
        <ele>1647.16997</ele>
        <time>2022-02-25T22:15:41.676Z</time>
      </trkpt>
      <trkpt lat="38.82971" lon="36.54917">
        <ele>1647.35888</ele>
        <time>2022-02-25T22:15:47.940Z</time>
      </trkpt>
      <trkpt lat="38.82937" lon="36.5489">
        <ele>1647.535248</ele>
        <time>2022-02-25T22:15:57.903Z</time>
      </trkpt>
      <trkpt lat="38.82879" lon="36.5486">
        <ele>1647.793224</ele>
        <time>2022-02-25T22:16:14.055Z</time>
      </trkpt>
      <trkpt lat="38.82819" lon="36.5484">
        <ele>1648.04601</ele>
        <time>2022-02-25T22:16:31.282Z</time>
      </trkpt>
      <trkpt lat="38.82758" lon="36.54836">
        <ele>1649.641018</ele>
        <time>2022-02-25T22:16:53.698Z</time>
      </trkpt>
      <trkpt lat="38.82682" lon="36.54849">
        <ele>1652.426466</ele>
        <time>2022-02-25T22:17:27.382Z</time>
      </trkpt>
      <trkpt lat="38.82567" lon="36.54883">
        <ele>1657.848146</ele>
        <time>2022-02-25T22:18:28.939Z</time>
      </trkpt>
      <trkpt lat="38.82526" lon="36.54883">
        <ele>1660.081033</ele>
        <time>2022-02-25T22:18:50.901Z</time>
      </trkpt>
      <trkpt lat="38.82131" lon="36.54938">
        <ele>1682.33039</ele>
        <time>2022-02-25T22:22:25.359Z</time>
      </trkpt>
      <trkpt lat="38.81962" lon="36.54954">
        <ele>1691.201209</ele>
        <time>2022-02-25T22:23:53.051Z</time>
      </trkpt>
      <trkpt lat="38.81901" lon="36.54955">
        <ele>1694.339053</ele>
        <time>2022-02-25T22:24:24.341Z</time>
      </trkpt>
      <trkpt lat="38.81694" lon="36.54935">
        <ele>1704.341451</ele>
        <time>2022-02-25T22:26:07.226Z</time>
      </trkpt>
      <trkpt lat="38.81548" lon="36.54904">
        <ele>1711.333444</ele>
        <time>2022-02-25T22:27:19.758Z</time>
      </trkpt>
      <trkpt lat="38.81475" lon="36.5488">
        <ele>1715.359061</ele>
        <time>2022-02-25T22:27:58.765Z</time>
      </trkpt>
      <trkpt lat="38.81327" lon="36.54819">
        <ele>1723.296895</ele>
        <time>2022-02-25T22:29:21.755Z</time>
      </trkpt>
      <trkpt lat="38.81175" lon="36.54737">
        <ele>1730.201977</ele>
        <time>2022-02-25T22:30:41.642Z</time>
      </trkpt>
      <trkpt lat="38.81075" lon="36.54675">
        <ele>1732.687814</ele>
        <time>2022-02-25T22:31:22.710Z</time>
      </trkpt>
      <trkpt lat="38.79983" lon="36.53943">
        <ele>1730.856577</ele>
        <time>2022-02-25T22:36:41.381Z</time>
      </trkpt>
      <trkpt lat="38.79874" lon="36.53868">
        <ele>1729.438737</ele>
        <time>2022-02-25T22:37:08.903Z</time>
      </trkpt>
      <trkpt lat="38.79692" lon="36.53748">
        <ele>1726.794111</ele>
        <time>2022-02-25T22:37:53.647Z</time>
      </trkpt>
      <trkpt lat="38.79264" lon="36.53462">
        <ele>1723.615652</ele>
        <time>2022-02-25T22:39:49.827Z</time>
      </trkpt>
      <trkpt lat="38.79171" lon="36.53394">
        <ele>1724.645258</ele>
        <time>2022-02-25T22:40:24.751Z</time>
      </trkpt>
      <trkpt lat="38.79079" lon="36.53312">
        <ele>1726.003362</ele>
        <time>2022-02-25T22:41:05.362Z</time>
      </trkpt>
      <trkpt lat="38.79007" lon="36.53236">
        <ele>1727.251626</ele>
        <time>2022-02-25T22:41:36.711Z</time>
      </trkpt>
      <trkpt lat="38.78915" lon="36.53114">
        <ele>1726.254754</ele>
        <time>2022-02-25T22:42:09.742Z</time>
      </trkpt>
      <trkpt lat="38.78876" lon="36.53056">
        <ele>1725.647621</ele>
        <time>2022-02-25T22:42:22.109Z</time>
      </trkpt>
      <trkpt lat="38.78844" lon="36.53002">
        <ele>1724.256422</ele>
        <time>2022-02-25T22:42:32.406Z</time>
      </trkpt>
      <trkpt lat="38.78773" lon="36.5286">
        <ele>1720.679312</ele>
        <time>2022-02-25T22:42:58.389Z</time>
      </trkpt>
      <trkpt lat="38.78731" lon="36.52754">
        <ele>1720.422697</ele>
        <time>2022-02-25T22:43:20.159Z</time>
      </trkpt>
      <trkpt lat="38.78684" lon="36.52613">
        <ele>1720.334253</ele>
        <time>2022-02-25T22:43:57.408Z</time>
      </trkpt>
      <trkpt lat="38.78653" lon="36.52478">
        <ele>1720.808465</ele>
        <time>2022-02-25T22:44:31.667Z</time>
      </trkpt>
      <trkpt lat="38.78626" lon="36.52272">
        <ele>1718.728779</ele>
        <time>2022-02-25T22:45:09.098Z</time>
      </trkpt>
      <trkpt lat="38.7862" lon="36.52167">
        <ele>1716.533278</ele>
        <time>2022-02-25T22:45:25.156Z</time>
      </trkpt>
      <trkpt lat="38.78625" lon="36.5198">
        <ele>1710.336237</ele>
        <time>2022-02-25T22:45:51.940Z</time>
      </trkpt>
      <trkpt lat="38.78641" lon="36.51838">
        <ele>1706.059916</ele>
        <time>2022-02-25T22:46:12.644Z</time>
      </trkpt>
      <trkpt lat="38.78669" lon="36.51693">
        <ele>1702.264557</ele>
        <time>2022-02-25T22:46:35.755Z</time>
      </trkpt>
      <trkpt lat="38.78717" lon="36.51535">
        <ele>1699.186758</ele>
        <time>2022-02-25T22:47:03.623Z</time>
      </trkpt>
      <trkpt lat="38.79345" lon="36.498">
        <ele>1661.193666</ele>
        <time>2022-02-25T22:52:07.548Z</time>
      </trkpt>
      <trkpt lat="38.79387" lon="36.4965">
        <ele>1656.018192</ele>
        <time>2022-02-25T22:52:30.402Z</time>
      </trkpt>
      <trkpt lat="38.794" lon="36.49583">
        <ele>1652.572597</ele>
        <time>2022-02-25T22:52:39.955Z</time>
      </trkpt>
      <trkpt lat="38.79415" lon="36.49488">
        <ele>1647.491387</ele>
        <time>2022-02-25T22:52:53.003Z</time>
      </trkpt>
      <trkpt lat="38.79423" lon="36.49365">
        <ele>1641.220147</ele>
        <time>2022-02-25T22:53:09.216Z</time>
      </trkpt>
      <trkpt lat="38.79411" lon="36.49184">
        <ele>1632.323701</ele>
        <time>2022-02-25T22:53:33.821Z</time>
      </trkpt>
      <trkpt lat="38.79361" lon="36.48868">
        <ele>1623.489545</ele>
        <time>2022-02-25T22:54:23.153Z</time>
      </trkpt>
      <trkpt lat="38.79305" lon="36.48573">
        <ele>1614.271737</ele>
        <time>2022-02-25T22:55:08.811Z</time>
      </trkpt>
      <trkpt lat="38.79199" lon="36.47948">
        <ele>1582.691829</ele>
        <time>2022-02-25T22:56:35.426Z</time>
      </trkpt>
      <trkpt lat="38.79116" lon="36.47569">
        <ele>1561.320971</ele>
        <time>2022-02-25T22:57:27.862Z</time>
      </trkpt>
      <trkpt lat="38.7908" lon="36.47447">
        <ele>1555.068693</ele>
        <time>2022-02-25T22:57:45.538Z</time>
      </trkpt>
      <trkpt lat="38.79056" lon="36.47385">
        <ele>1552.057364</ele>
        <time>2022-02-25T22:57:55.260Z</time>
      </trkpt>
      <trkpt lat="38.79026" lon="36.47312">
        <ele>1550.094593</ele>
        <time>2022-02-25T22:58:07.358Z</time>
      </trkpt>
      <trkpt lat="38.79008" lon="36.4727">
        <ele>1548.937328</ele>
        <time>2022-02-25T22:58:14.888Z</time>
      </trkpt>
      <trkpt lat="38.78981" lon="36.47206">
        <ele>1547.215757</ele>
        <time>2022-02-25T22:58:26.719Z</time>
      </trkpt>
      <trkpt lat="38.78951" lon="36.47144">
        <ele>1546.710989</ele>
        <time>2022-02-25T22:58:39.922Z</time>
      </trkpt>
      <trkpt lat="38.78902" lon="36.4705">
        <ele>1546.428582</ele>
        <time>2022-02-25T22:59:02.609Z</time>
      </trkpt>
      <trkpt lat="38.78867" lon="36.46991">
        <ele>1546.492092</ele>
        <time>2022-02-25T22:59:18.924Z</time>
      </trkpt>
      <trkpt lat="38.78845" lon="36.46959">
        <ele>1547.089172</ele>
        <time>2022-02-25T22:59:29.252Z</time>
      </trkpt>
      <trkpt lat="38.78818" lon="36.4692">
        <ele>1547.81685</ele>
        <time>2022-02-25T22:59:42.601Z</time>
      </trkpt>
      <trkpt lat="38.78777" lon="36.46867">
        <ele>1548.859171</ele>
        <time>2022-02-25T23:00:03.726Z</time>
      </trkpt>
      <trkpt lat="38.78688" lon="36.46759">
        <ele>1552.306631</ele>
        <time>2022-02-25T23:00:56.285Z</time>
      </trkpt>
      <trkpt lat="38.78604" lon="36.4667">
        <ele>1555.658242</ele>
        <time>2022-02-25T23:01:43.522Z</time>
      </trkpt>
      <trkpt lat="38.785" lon="36.46588">
        <ele>1558.375617</ele>
        <time>2022-02-25T23:02:27.271Z</time>
      </trkpt>
      <trkpt lat="38.78431" lon="36.46539">
        <ele>1560.391859</ele>
        <time>2022-02-25T23:02:56.176Z</time>
      </trkpt>
      <trkpt lat="38.78375" lon="36.46502">
        <ele>1562.230362</ele>
        <time>2022-02-25T23:03:21.006Z</time>
      </trkpt>
      <trkpt lat="38.7831" lon="36.46459">
        <ele>1564.370698</ele>
        <time>2022-02-25T23:03:52.264Z</time>
      </trkpt>
      <trkpt lat="38.78183" lon="36.46391">
        <ele>1568.671173</ele>
        <time>2022-02-25T23:04:55.150Z</time>
      </trkpt>
      <trkpt lat="38.78134" lon="36.46372">
        <ele>1570.215452</ele>
        <time>2022-02-25T23:05:13.996Z</time>
      </trkpt>
      <trkpt lat="38.78103" lon="36.46361">
        <ele>1570.048115</ele>
        <time>2022-02-25T23:05:24.185Z</time>
      </trkpt>
      <trkpt lat="38.78077" lon="36.46352">
        <ele>1569.902975</ele>
        <time>2022-02-25T23:05:32.242Z</time>
      </trkpt>
      <trkpt lat="38.77859" lon="36.46296">
        <ele>1566.723458</ele>
        <time>2022-02-25T23:06:20.558Z</time>
      </trkpt>
      <trkpt lat="38.77574" lon="36.46236">
        <ele>1557.274937</ele>
        <time>2022-02-25T23:07:15.977Z</time>
      </trkpt>
      <trkpt lat="38.77409" lon="36.46201">
        <ele>1551.514703</ele>
        <time>2022-02-25T23:07:48.417Z</time>
      </trkpt>
      <trkpt lat="38.77255" lon="36.46168">
        <ele>1546.001987</ele>
        <time>2022-02-25T23:08:18.232Z</time>
      </trkpt>
      <trkpt lat="38.77104" lon="36.46137">
        <ele>1542.001511</ele>
        <time>2022-02-25T23:08:48.768Z</time>
      </trkpt>
      <trkpt lat="38.77085" lon="36.46132">
        <ele>1541.516225</ele>
        <time>2022-02-25T23:08:52.792Z</time>
      </trkpt>
      <trkpt lat="38.76887" lon="36.4609">
        <ele>1539.174145</ele>
        <time>2022-02-25T23:09:39.422Z</time>
      </trkpt>
      <trkpt lat="38.76308" lon="36.45971">
        <ele>1534.148552</ele>
        <time>2022-02-25T23:11:59.973Z</time>
      </trkpt>
      <trkpt lat="38.76077" lon="36.45915">
        <ele>1528.345879</ele>
        <time>2022-02-25T23:12:47.596Z</time>
      </trkpt>
      <trkpt lat="38.76044" lon="36.45906">
        <ele>1527.299072</ele>
        <time>2022-02-25T23:12:54.104Z</time>
      </trkpt>
      <trkpt lat="38.76006" lon="36.45891">
        <ele>1526.079544</ele>
        <time>2022-02-25T23:13:01.620Z</time>
      </trkpt>
      <trkpt lat="38.75951" lon="36.4587">
        <ele>1524.163533</ele>
        <time>2022-02-25T23:13:12.463Z</time>
      </trkpt>
      <trkpt lat="38.75865" lon="36.45829">
        <ele>1521.109761</ele>
        <time>2022-02-25T23:13:30.156Z</time>
      </trkpt>
      <trkpt lat="38.75783" lon="36.45786">
        <ele>1519.426689</ele>
        <time>2022-02-25T23:13:48.635Z</time>
      </trkpt>
      <trkpt lat="38.75747" lon="36.45764">
        <ele>1518.891673</ele>
        <time>2022-02-25T23:13:57.731Z</time>
      </trkpt>
      <trkpt lat="38.75696" lon="36.45734">
        <ele>1518.150812</ele>
        <time>2022-02-25T23:14:10.815Z</time>
      </trkpt>
      <trkpt lat="38.75586" lon="36.45663">
        <ele>1517.602739</ele>
        <time>2022-02-25T23:14:42.808Z</time>
      </trkpt>
      <trkpt lat="38.75526" lon="36.45618">
        <ele>1517.425479</ele>
        <time>2022-02-25T23:15:00.933Z</time>
      </trkpt>
      <trkpt lat="38.75415" lon="36.45527">
        <ele>1516.884122</ele>
        <time>2022-02-25T23:15:33.430Z</time>
      </trkpt>
      <trkpt lat="38.75338" lon="36.45447">
        <ele>1516.59293</ele>
        <time>2022-02-25T23:15:57.995Z</time>
      </trkpt>
      <trkpt lat="38.75206" lon="36.45294">
        <ele>1516.553071</ele>
        <time>2022-02-25T23:16:45.433Z</time>
      </trkpt>
      <trkpt lat="38.75096" lon="36.45139">
        <ele>1517.009408</ele>
        <time>2022-02-25T23:17:32.703Z</time>
      </trkpt>
      <trkpt lat="38.75048" lon="36.4506">
        <ele>1517.119729</ele>
        <time>2022-02-25T23:17:54.351Z</time>
      </trkpt>
      <trkpt lat="38.74925" lon="36.44821">
        <ele>1517.23049</ele>
        <time>2022-02-25T23:18:52.889Z</time>
      </trkpt>
      <trkpt lat="38.74276" lon="36.43444">
        <ele>1520.603941</ele>
        <time>2022-02-25T23:24:45.356Z</time>
      </trkpt>
      <trkpt lat="38.74245" lon="36.43377">
        <ele>1520.579329</ele>
        <time>2022-02-25T23:25:01.733Z</time>
      </trkpt>
      <trkpt lat="38.74202" lon="36.43285">
        <ele>1520.176938</ele>
        <time>2022-02-25T23:25:22.870Z</time>
      </trkpt>
      <trkpt lat="38.73979" lon="36.42802">
        <ele>1516.790504</ele>
        <time>2022-02-25T23:27:05.345Z</time>
      </trkpt>
      <trkpt lat="38.73926" lon="36.42689">
        <ele>1516.948604</ele>
        <time>2022-02-25T23:27:34.262Z</time>
      </trkpt>
      <trkpt lat="38.73899" lon="36.42631">
        <ele>1517.030188</ele>
        <time>2022-02-25T23:27:49.433Z</time>
      </trkpt>
      <trkpt lat="38.73874" lon="36.42578">
        <ele>1517.060698</ele>
        <time>2022-02-25T23:28:02.750Z</time>
      </trkpt>
      <trkpt lat="38.73839" lon="36.42505">
        <ele>1517.060875</ele>
        <time>2022-02-25T23:28:21.078Z</time>
      </trkpt>
      <trkpt lat="38.73828" lon="36.42481">
        <ele>1517.060932</ele>
        <time>2022-02-25T23:28:26.790Z</time>
      </trkpt>
      <trkpt lat="38.73779" lon="36.4238">
        <ele>1516.997451</ele>
        <time>2022-02-25T23:28:50.603Z</time>
      </trkpt>
      <trkpt lat="38.73744" lon="36.42303">
        <ele>1516.846854</ele>
        <time>2022-02-25T23:29:08.219Z</time>
      </trkpt>
      <trkpt lat="38.73695" lon="36.42197">
        <ele>1516.622337</ele>
        <time>2022-02-25T23:29:33.184Z</time>
      </trkpt>
      <trkpt lat="38.73559" lon="36.41909">
        <ele>1516.031933</ele>
        <time>2022-02-25T23:30:38.957Z</time>
      </trkpt>
      <trkpt lat="38.73444" lon="36.41666">
        <ele>1516.56736</ele>
        <time>2022-02-25T23:31:42.322Z</time>
      </trkpt>
      <trkpt lat="38.73388" lon="36.41547">
        <ele>1516.962107</ele>
        <time>2022-02-25T23:32:14.124Z</time>
      </trkpt>
      <trkpt lat="38.73351" lon="36.41469">
        <ele>1517.200869</ele>
        <time>2022-02-25T23:32:34.204Z</time>
      </trkpt>
      <trkpt lat="38.73344" lon="36.41455">
        <ele>1517.244162</ele>
        <time>2022-02-25T23:32:37.843Z</time>
      </trkpt>
      <trkpt lat="38.73329" lon="36.4142">
        <ele>1517.332996</ele>
        <time>2022-02-25T23:32:46.360Z</time>
      </trkpt>
      <trkpt lat="38.73315" lon="36.41388">
        <ele>1517.312393</ele>
        <time>2022-02-25T23:32:53.729Z</time>
      </trkpt>
      <trkpt lat="38.73281" lon="36.41312">
        <ele>1517.262242</ele>
        <time>2022-02-25T23:33:11.658Z</time>
      </trkpt>
      <trkpt lat="38.73246" lon="36.41244">
        <ele>1517.215593</ele>
        <time>2022-02-25T23:33:28.232Z</time>
      </trkpt>
      <trkpt lat="38.73205" lon="36.41159">
        <ele>1517.499541</ele>
        <time>2022-02-25T23:33:48.621Z</time>
      </trkpt>
      <trkpt lat="38.73111" lon="36.40937">
        <ele>1518.51876</ele>
        <time>2022-02-25T23:34:48.641Z</time>
      </trkpt>
      <trkpt lat="38.73016" lon="36.40646">
        <ele>1518.886068</ele>
        <time>2022-02-25T23:35:59.251Z</time>
      </trkpt>
      <trkpt lat="38.72999" lon="36.40595">
        <ele>1518.636116</ele>
        <time>2022-02-25T23:36:08.580Z</time>
      </trkpt>
      <trkpt lat="38.72984" lon="36.40538">
        <ele>1517.609248</ele>
        <time>2022-02-25T23:36:18.449Z</time>
      </trkpt>
      <trkpt lat="38.72945" lon="36.40404">
        <ele>1515.197821</ele>
        <time>2022-02-25T23:36:40.826Z</time>
      </trkpt>
      <trkpt lat="38.72882" lon="36.40206">
        <ele>1513.074158</ele>
        <time>2022-02-25T23:37:17.610Z</time>
      </trkpt>
      <trkpt lat="38.72853" lon="36.40128">
        <ele>1512.798131</ele>
        <time>2022-02-25T23:37:36.630Z</time>
      </trkpt>
      <trkpt lat="38.72845" lon="36.40109">
        <ele>1512.808689</ele>
        <time>2022-02-25T23:37:41.398Z</time>
      </trkpt>
      <trkpt lat="38.72835" lon="36.40126">
        <ele>1512.818853</ele>
        <time>2022-02-25T23:37:45.978Z</time>
      </trkpt>
      <trkpt lat="38.72812" lon="36.40173">
        <ele>1512.846139</ele>
        <time>2022-02-25T23:37:57.856Z</time>
      </trkpt>
      <trkpt lat="38.7279" lon="36.4022">
        <ele>1512.873062</ele>
        <time>2022-02-25T23:38:09.622Z</time>
      </trkpt>
      <trkpt lat="38.72778" lon="36.4022">
        <ele>1512.880134</ele>
        <time>2022-02-25T23:38:12.620Z</time>
      </trkpt>
      <trkpt lat="38.72772" lon="36.40212">
        <ele>1512.882501</ele>
        <time>2022-02-25T23:38:15.195Z</time>
      </trkpt>
      <trkpt lat="38.72746" lon="36.4018">
        <ele>1512.856189</ele>
        <time>2022-02-25T23:38:25.069Z</time>
      </trkpt>
      <trkpt lat="38.7273" lon="36.40152">
        <ele>1512.837024</ele>
        <time>2022-02-25T23:38:31.867Z</time>
      </trkpt>
      <trkpt lat="38.72706" lon="36.40124">
        <ele>1512.813373</ele>
        <time>2022-02-25T23:38:40.068Z</time>
      </trkpt>
      <trkpt lat="38.72605" lon="36.40008">
        <ele>1512.781593</ele>
        <time>2022-02-25T23:39:15.695Z</time>
      </trkpt>
      <trkpt lat="38.72603" lon="36.40006">
        <ele>1512.783168</ele>
        <time>2022-02-25T23:39:16.550Z</time>
      </trkpt>
      <trkpt lat="38.72583" lon="36.39985">
        <ele>1512.796399</ele>
        <time>2022-02-25T23:39:23.815Z</time>
      </trkpt>
      <trkpt lat="38.72556" lon="36.39955">
        <ele>1512.814799</ele>
        <time>2022-02-25T23:39:33.528Z</time>
      </trkpt>
      <trkpt lat="38.72573" lon="36.39904">
        <ele>1512.836764</ele>
        <time>2022-02-25T23:39:45.519Z</time>
      </trkpt>
      <trkpt lat="38.7258" lon="36.39853">
        <ele>1512.792395</ele>
        <time>2022-02-25T23:39:57.248Z</time>
      </trkpt>
      <trkpt lat="38.72573" lon="36.39781">
        <ele>1512.651037</ele>
        <time>2022-02-25T23:40:12.898Z</time>
      </trkpt>
      <trkpt lat="38.72537" lon="36.39729">
        <ele>1512.516408</ele>
        <time>2022-02-25T23:40:26.445Z</time>
      </trkpt>
      <trkpt lat="38.72455" lon="36.39639">
        <ele>1512.301049</ele>
        <time>2022-02-25T23:40:55.142Z</time>
      </trkpt>
      <trkpt lat="38.72416" lon="36.39584">
        <ele>1512.20717</ele>
        <time>2022-02-25T23:41:11.404Z</time>
      </trkpt>
      <trkpt lat="38.72386" lon="36.39499">
        <ele>1512.065154</ele>
        <time>2022-02-25T23:41:31.305Z</time>
      </trkpt>
      <trkpt lat="38.72373" lon="36.39498">
        <ele>1512.019469</ele>
        <time>2022-02-25T23:41:34.477Z</time>
      </trkpt>
      <trkpt lat="38.72363" lon="36.39383">
        <ele>1511.676958</ele>
        <time>2022-02-25T23:41:58.971Z</time>
      </trkpt>
      <trkpt lat="38.7237" lon="36.39381">
        <ele>1511.652167</ele>
        <time>2022-02-25T23:42:00.675Z</time>
      </trkpt>
      <trkpt lat="38.72356" lon="36.39307">
        <ele>1511.426103</ele>
        <time>2022-02-25T23:42:15.569Z</time>
      </trkpt>
      <trkpt lat="38.72335" lon="36.39217">
        <ele>1510.909718</ele>
        <time>2022-02-25T23:42:33.518Z</time>
      </trkpt>
      <trkpt lat="38.72322" lon="36.39139">
        <ele>1510.472155</ele>
        <time>2022-02-25T23:42:49.363Z</time>
      </trkpt>
      <trkpt lat="38.72314" lon="36.39053">
        <ele>1510.018217</ele>
        <time>2022-02-25T23:43:06.297Z</time>
      </trkpt>
      <trkpt lat="38.72323" lon="36.39037">
        <ele>1509.921328</ele>
        <time>2022-02-25T23:43:10.197Z</time>
      </trkpt>
      <trkpt lat="38.7233" lon="36.39023">
        <ele>1509.844111</ele>
        <time>2022-02-25T23:43:13.150Z</time>
      </trkpt>
      <trkpt lat="38.7233" lon="36.38992">
        <ele>1509.694126</ele>
        <time>2022-02-25T23:43:18.968Z</time>
      </trkpt>
      <trkpt lat="38.72275" lon="36.38866">
        <ele>1508.96118</ele>
        <time>2022-02-25T23:43:48.165Z</time>
      </trkpt>
      <trkpt lat="38.72254" lon="36.38807">
        <ele>1508.408627</ele>
        <time>2022-02-25T23:44:00.409Z</time>
      </trkpt>
      <trkpt lat="38.7224" lon="36.38745">
        <ele>1507.854532</ele>
        <time>2022-02-25T23:44:12.293Z</time>
      </trkpt>
      <trkpt lat="38.72229" lon="36.38694">
        <ele>1507.396529</ele>
        <time>2022-02-25T23:44:22.034Z</time>
      </trkpt>
      <trkpt lat="38.72221" lon="36.38645">
        <ele>1506.960016</ele>
        <time>2022-02-25T23:44:31.070Z</time>
      </trkpt>
      <trkpt lat="38.7218" lon="36.38659">
        <ele>1506.447363</ele>
        <time>2022-02-25T23:44:41.020Z</time>
      </trkpt>
      <trkpt lat="38.72174" lon="36.38661">
        <ele>1506.373759</ele>
        <time>2022-02-25T23:44:42.477Z</time>
      </trkpt>
      <trkpt lat="38.72126" lon="36.38677">
        <ele>1505.763592</ele>
        <time>2022-02-25T23:44:54.298Z</time>
      </trkpt>
      <trkpt lat="38.72119" lon="36.38669">
        <ele>1505.649717</ele>
        <time>2022-02-25T23:44:57.054Z</time>
      </trkpt>
      <trkpt lat="38.7208" lon="36.38626">
        <ele>1505.026355</ele>
        <time>2022-02-25T23:45:12.928Z</time>
      </trkpt>
      <trkpt lat="38.71952" lon="36.38512">
        <ele>1503.984653</ele>
        <time>2022-02-25T23:46:03.040Z</time>
      </trkpt>
      <trkpt lat="38.71948" lon="36.38518">
        <ele>1503.945415</ele>
        <time>2022-02-25T23:46:04.764Z</time>
      </trkpt>
      <trkpt lat="38.7186" lon="36.38442">
        <ele>1504.109965</ele>
        <time>2022-02-25T23:46:33.146Z</time>
      </trkpt>
      <trkpt lat="38.71711" lon="36.38311">
        <ele>1505.755311</ele>
        <time>2022-02-25T23:47:28.528Z</time>
      </trkpt>
      <trkpt lat="38.71552" lon="36.38163">
        <ele>1509.590566</ele>
        <time>2022-02-25T23:48:40.644Z</time>
      </trkpt>
      <trkpt lat="38.71534" lon="36.38147">
        <ele>1510.11679</ele>
        <time>2022-02-25T23:48:49.510Z</time>
      </trkpt>
      <trkpt lat="38.71401" lon="36.38039">
        <ele>1513.806708</ele>
        <time>2022-02-25T23:49:52.191Z</time>
      </trkpt>
      <trkpt lat="38.71124" lon="36.37764">
        <ele>1519.489867</ele>
        <time>2022-02-25T23:51:56.806Z</time>
      </trkpt>
      <trkpt lat="38.71082" lon="36.37729">
        <ele>1519.712457</ele>
        <time>2022-02-25T23:52:08.894Z</time>
      </trkpt>
      <trkpt lat="38.71019" lon="36.37686">
        <ele>1519.808796</ele>
        <time>2022-02-25T23:52:25.419Z</time>
      </trkpt>
      <trkpt lat="38.70906" lon="36.37627">
        <ele>1519.366848</ele>
        <time>2022-02-25T23:52:54.036Z</time>
      </trkpt>
      <trkpt lat="38.70495" lon="36.37438">
        <ele>1524.234933</ele>
        <time>2022-02-25T23:55:20.440Z</time>
      </trkpt>
      <trkpt lat="38.70432" lon="36.37405">
        <ele>1524.447016</ele>
        <time>2022-02-25T23:55:39.839Z</time>
      </trkpt>
      <trkpt lat="38.70358" lon="36.37355">
        <ele>1524.413437</ele>
        <time>2022-02-25T23:56:00.381Z</time>
      </trkpt>
      <trkpt lat="38.70307" lon="36.37313">
        <ele>1523.609434</ele>
        <time>2022-02-25T23:56:14.126Z</time>
      </trkpt>
      <trkpt lat="38.70258" lon="36.37266">
        <ele>1522.809145</ele>
        <time>2022-02-25T23:56:27.385Z</time>
      </trkpt>
      <trkpt lat="38.70216" lon="36.37215">
        <ele>1522.136787</ele>
        <time>2022-02-25T23:56:40.092Z</time>
      </trkpt>
      <trkpt lat="38.70135" lon="36.37093">
        <ele>1521.154158</ele>
        <time>2022-02-25T23:57:08.026Z</time>
      </trkpt>
      <trkpt lat="38.70069" lon="36.36943">
        <ele>1522.697649</ele>
        <time>2022-02-25T23:57:49.688Z</time>
      </trkpt>
      <trkpt lat="38.70008" lon="36.36787">
        <ele>1526.178173</ele>
        <time>2022-02-25T23:58:47.192Z</time>
      </trkpt>
      <trkpt lat="38.69953" lon="36.36652">
        <ele>1530.453929</ele>
        <time>2022-02-25T23:59:41.190Z</time>
      </trkpt>
      <trkpt lat="38.6991" lon="36.3657">
        <ele>1532.9605</ele>
        <time>2022-02-26T00:00:13.686Z</time>
      </trkpt>
      <trkpt lat="38.69864" lon="36.36485">
        <ele>1535.537471</ele>
        <time>2022-02-26T00:00:47.633Z</time>
      </trkpt>
      <trkpt lat="38.69783" lon="36.3637">
        <ele>1538.469644</ele>
        <time>2022-02-26T00:01:36.699Z</time>
      </trkpt>
      <trkpt lat="38.69341" lon="36.3581">
        <ele>1547.944109</ele>
        <time>2022-02-26T00:05:05.391Z</time>
      </trkpt>
      <trkpt lat="38.6921" lon="36.35646">
        <ele>1549.87663</ele>
        <time>2022-02-26T00:06:01.721Z</time>
      </trkpt>
      <trkpt lat="38.69203" lon="36.35638">
        <ele>1550.051282</ele>
        <time>2022-02-26T00:06:04.987Z</time>
      </trkpt>
      <trkpt lat="38.69081" lon="36.35485">
        <ele>1553.563815</ele>
        <time>2022-02-26T00:07:07.197Z</time>
      </trkpt>
      <trkpt lat="38.68597" lon="36.34866">
        <ele>1575.509382</ele>
        <time>2022-02-26T00:12:05.625Z</time>
      </trkpt>
      <trkpt lat="38.68504" lon="36.34744">
        <ele>1573.687311</ele>
        <time>2022-02-26T00:12:34.395Z</time>
      </trkpt>
      <trkpt lat="38.68426" lon="36.34648">
        <ele>1570.36456</ele>
        <time>2022-02-26T00:12:54.339Z</time>
      </trkpt>
      <trkpt lat="38.68342" lon="36.34542">
        <ele>1565.48949</ele>
        <time>2022-02-26T00:13:16.219Z</time>
      </trkpt>
      <trkpt lat="38.68299" lon="36.34488">
        <ele>1563.735333</ele>
        <time>2022-02-26T00:13:27.968Z</time>
      </trkpt>
      <trkpt lat="38.68258" lon="36.34435">
        <ele>1563.232383</ele>
        <time>2022-02-26T00:13:40.081Z</time>
      </trkpt>
      <trkpt lat="38.68122" lon="36.34261">
        <ele>1565.514501</ele>
        <time>2022-02-26T00:14:37.220Z</time>
      </trkpt>
      <trkpt lat="38.6793" lon="36.34013">
        <ele>1580.367754</ele>
        <time>2022-02-26T00:17:12.575Z</time>
      </trkpt>
      <trkpt lat="38.67869" lon="36.33936">
        <ele>1585.776696</ele>
        <time>2022-02-26T00:18:06.589Z</time>
      </trkpt>
      <trkpt lat="38.67681" lon="36.3369">
        <ele>1600.394862</ele>
        <time>2022-02-26T00:20:27.635Z</time>
      </trkpt>
      <trkpt lat="38.67639" lon="36.33625">
        <ele>1601.289655</ele>
        <time>2022-02-26T00:20:53.090Z</time>
      </trkpt>
      <trkpt lat="38.67588" lon="36.33524">
        <ele>1602.519623</ele>
        <time>2022-02-26T00:21:21.248Z</time>
      </trkpt>
      <trkpt lat="38.67544" lon="36.33409">
        <ele>1601.14348</ele>
        <time>2022-02-26T00:21:43.534Z</time>
      </trkpt>
      <trkpt lat="38.6752" lon="36.33323">
        <ele>1599.671918</ele>
        <time>2022-02-26T00:21:58.022Z</time>
      </trkpt>
      <trkpt lat="38.67461" lon="36.33084">
        <ele>1593.787509</ele>
        <time>2022-02-26T00:22:35.963Z</time>
      </trkpt>
      <trkpt lat="38.67371" lon="36.32705">
        <ele>1584.700721</ele>
        <time>2022-02-26T00:23:37.391Z</time>
      </trkpt>
      <trkpt lat="38.67211" lon="36.32044">
        <ele>1570.491927</ele>
        <time>2022-02-26T00:25:25.961Z</time>
      </trkpt>
      <trkpt lat="38.67172" lon="36.31881">
        <ele>1568.702977</ele>
        <time>2022-02-26T00:25:55.372Z</time>
      </trkpt>
      <trkpt lat="38.67128" lon="36.31698">
        <ele>1568.028955</ele>
        <time>2022-02-26T00:26:36.717Z</time>
      </trkpt>
      <trkpt lat="38.67095" lon="36.31589">
        <ele>1567.714232</ele>
        <time>2022-02-26T00:27:00.733Z</time>
      </trkpt>
      <trkpt lat="38.67086" lon="36.31566">
        <ele>1567.644945</ele>
        <time>2022-02-26T00:27:05.993Z</time>
      </trkpt>
      <trkpt lat="38.67075" lon="36.31536">
        <ele>1567.555518</ele>
        <time>2022-02-26T00:27:11.842Z</time>
      </trkpt>
      <trkpt lat="38.67013" lon="36.31399">
        <ele>1565.346747</ele>
        <time>2022-02-26T00:27:38.292Z</time>
      </trkpt>
      <trkpt lat="38.66887" lon="36.31204">
        <ele>1561.751213</ele>
        <time>2022-02-26T00:28:19.284Z</time>
      </trkpt>
      <trkpt lat="38.6682" lon="36.31102">
        <ele>1560.801874</ele>
        <time>2022-02-26T00:28:44.236Z</time>
      </trkpt>
      <trkpt lat="38.66657" lon="36.30863">
        <ele>1560.737592</ele>
        <time>2022-02-26T00:29:50.686Z</time>
      </trkpt>
      <trkpt lat="38.66527" lon="36.30668">
        <ele>1561.593206</ele>
        <time>2022-02-26T00:30:50.396Z</time>
      </trkpt>
      <trkpt lat="38.66478" lon="36.30584">
        <ele>1561.860891</ele>
        <time>2022-02-26T00:31:12.649Z</time>
      </trkpt>
      <trkpt lat="38.66474" lon="36.30578">
        <ele>1561.874641</ele>
        <time>2022-02-26T00:31:13.744Z</time>
      </trkpt>
      <trkpt lat="38.66431" lon="36.30487">
        <ele>1562.072198</ele>
        <time>2022-02-26T00:31:35.601Z</time>
      </trkpt>
      <trkpt lat="38.66378" lon="36.30334">
        <ele>1563.653731</ele>
        <time>2022-02-26T00:32:18.218Z</time>
      </trkpt>
      <trkpt lat="38.66365" lon="36.30289">
        <ele>1564.252836</ele>
        <time>2022-02-26T00:32:32.120Z</time>
      </trkpt>
      <trkpt lat="38.6635" lon="36.30221">
        <ele>1565.121237</ele>
        <time>2022-02-26T00:32:53.003Z</time>
      </trkpt>
      <trkpt lat="38.66325" lon="36.30024">
        <ele>1567.420541</ele>
        <time>2022-02-26T00:33:46.974Z</time>
      </trkpt>
      <trkpt lat="38.66324" lon="36.29923">
        <ele>1567.535363</ele>
        <time>2022-02-26T00:34:08.500Z</time>
      </trkpt>
      <trkpt lat="38.66332" lon="36.29786">
        <ele>1567.258227</ele>
        <time>2022-02-26T00:34:35.687Z</time>
      </trkpt>
      <trkpt lat="38.66351" lon="36.29661">
        <ele>1564.268431</ele>
        <time>2022-02-26T00:34:57.441Z</time>
      </trkpt>
      <trkpt lat="38.66534" lon="36.28879">
        <ele>1541.724512</ele>
        <time>2022-02-26T00:36:58.476Z</time>
      </trkpt>
      <trkpt lat="38.66584" lon="36.28701">
        <ele>1534.985627</ele>
        <time>2022-02-26T00:37:25.730Z</time>
      </trkpt>
      <trkpt lat="38.66603" lon="36.28695">
        <ele>1534.091913</ele>
        <time>2022-02-26T00:37:29.479Z</time>
      </trkpt>
      <trkpt lat="38.66621" lon="36.28683">
        <ele>1532.996691</ele>
        <time>2022-02-26T00:37:33.310Z</time>
      </trkpt>
      <trkpt lat="38.66639" lon="36.2866">
        <ele>1531.507913</ele>
        <time>2022-02-26T00:37:38.178Z</time>
      </trkpt>
      <trkpt lat="38.66765" lon="36.2844">
        <ele>1518.023167</ele>
        <time>2022-02-26T00:38:17.438Z</time>
      </trkpt>
      <trkpt lat="38.66772" lon="36.28404">
        <ele>1515.924305</ele>
        <time>2022-02-26T00:38:22.601Z</time>
      </trkpt>
      <trkpt lat="38.6677" lon="36.2833">
        <ele>1511.713617</ele>
        <time>2022-02-26T00:38:32.793Z</time>
      </trkpt>
      <trkpt lat="38.6673" lon="36.28247">
        <ele>1504.28103</ele>
        <time>2022-02-26T00:38:45.954Z</time>
      </trkpt>
      <trkpt lat="38.66728" lon="36.28231">
        <ele>1502.933213</ele>
        <time>2022-02-26T00:38:48.092Z</time>
      </trkpt>
      <trkpt lat="38.66743" lon="36.28206">
        <ele>1500.274404</ele>
        <time>2022-02-26T00:38:52.295Z</time>
      </trkpt>
      <trkpt lat="38.66769" lon="36.2807">
        <ele>1489.013694</ele>
        <time>2022-02-26T00:39:10.494Z</time>
      </trkpt>
      <trkpt lat="38.66783" lon="36.2805">
        <ele>1487.090583</ele>
        <time>2022-02-26T00:39:14.124Z</time>
      </trkpt>
      <trkpt lat="38.66841" lon="36.28022">
        <ele>1481.675254</ele>
        <time>2022-02-26T00:39:24.494Z</time>
      </trkpt>
      <trkpt lat="38.66852" lon="36.28011">
        <ele>1480.457097</ele>
        <time>2022-02-26T00:39:26.958Z</time>
      </trkpt>
      <trkpt lat="38.66868" lon="36.27959">
        <ele>1476.628147</ele>
        <time>2022-02-26T00:39:34.714Z</time>
      </trkpt>
      <trkpt lat="38.66875" lon="36.27956">
        <ele>1475.9811</ele>
        <time>2022-02-26T00:39:35.929Z</time>
      </trkpt>
      <trkpt lat="38.66779" lon="36.27572">
        <ele>1471.453833</ele>
        <time>2022-02-26T00:40:55.634Z</time>
      </trkpt>
      <trkpt lat="38.66769" lon="36.27519">
        <ele>1471.095372</ele>
        <time>2022-02-26T00:41:06.489Z</time>
      </trkpt>
      <trkpt lat="38.6677" lon="36.27474">
        <ele>1470.488887</ele>
        <time>2022-02-26T00:41:14.543Z</time>
      </trkpt>
      <trkpt lat="38.66779" lon="36.27405">
        <ele>1469.245824</ele>
        <time>2022-02-26T00:41:26.337Z</time>
      </trkpt>
      <trkpt lat="38.66821" lon="36.27258">
        <ele>1466.494403</ele>
        <time>2022-02-26T00:41:51.935Z</time>
      </trkpt>
      <trkpt lat="38.66987" lon="36.26802">
        <ele>1458.37745</ele>
        <time>2022-02-26T00:43:19.867Z</time>
      </trkpt>
      <trkpt lat="38.67015" lon="36.26723">
        <ele>1456.507876</ele>
        <time>2022-02-26T00:43:33.786Z</time>
      </trkpt>
      <trkpt lat="38.67016" lon="36.26709">
        <ele>1456.200207</ele>
        <time>2022-02-26T00:43:36.128Z</time>
      </trkpt>
      <trkpt lat="38.67015" lon="36.26677">
        <ele>1455.494828</ele>
        <time>2022-02-26T00:43:41.314Z</time>
      </trkpt>
      <trkpt lat="38.67037" lon="36.26617">
        <ele>1453.991852</ele>
        <time>2022-02-26T00:43:51.368Z</time>
      </trkpt>
      <trkpt lat="38.67081" lon="36.26495">
        <ele>1450.795503</ele>
        <time>2022-02-26T00:44:11.486Z</time>
      </trkpt>
      <trkpt lat="38.671" lon="36.26431">
        <ele>1449.248104</ele>
        <time>2022-02-26T00:44:22.512Z</time>
      </trkpt>
      <trkpt lat="38.67118" lon="36.26346">
        <ele>1448.258127</ele>
        <time>2022-02-26T00:44:37.319Z</time>
      </trkpt>
      <trkpt lat="38.67127" lon="36.26283">
        <ele>1447.539639</ele>
        <time>2022-02-26T00:44:48.431Z</time>
      </trkpt>
      <trkpt lat="38.67132" lon="36.2622">
        <ele>1446.835403</ele>
        <time>2022-02-26T00:44:59.797Z</time>
      </trkpt>
      <trkpt lat="38.67135" lon="36.26139">
        <ele>1446.787159</ele>
        <time>2022-02-26T00:45:15.938Z</time>
      </trkpt>
      <trkpt lat="38.67131" lon="36.26089">
        <ele>1446.813346</ele>
        <time>2022-02-26T00:45:26.874Z</time>
      </trkpt>
      <trkpt lat="38.67107" lon="36.25773">
        <ele>1447.393042</ele>
        <time>2022-02-26T00:46:38.330Z</time>
      </trkpt>
      <trkpt lat="38.67127" lon="36.25706">
        <ele>1447.378497</ele>
        <time>2022-02-26T00:46:57.362Z</time>
      </trkpt>
      <trkpt lat="38.67125" lon="36.25683">
        <ele>1447.351566</ele>
        <time>2022-02-26T00:47:03.521Z</time>
      </trkpt>
      <trkpt lat="38.67124" lon="36.25664">
        <ele>1447.329844</ele>
        <time>2022-02-26T00:47:08.361Z</time>
      </trkpt>
      <trkpt lat="38.67123" lon="36.25644">
        <ele>1447.30587</ele>
        <time>2022-02-26T00:47:13.646Z</time>
      </trkpt>
      <trkpt lat="38.67092" lon="36.25577">
        <ele>1447.214324</ele>
        <time>2022-02-26T00:47:34.283Z</time>
      </trkpt>
      <trkpt lat="38.67072" lon="36.253">
        <ele>1447.421373</ele>
        <time>2022-02-26T00:48:33.099Z</time>
      </trkpt>
      <trkpt lat="38.66965" lon="36.23906">
        <ele>1453.201902</ele>
        <time>2022-02-26T00:53:53.676Z</time>
      </trkpt>
      <trkpt lat="38.6695" lon="36.23673">
        <ele>1453.763117</ele>
        <time>2022-02-26T00:54:44.398Z</time>
      </trkpt>
      <trkpt lat="38.66928" lon="36.23411">
        <ele>1454.197024</ele>
        <time>2022-02-26T00:55:43.470Z</time>
      </trkpt>
      <trkpt lat="38.66899" lon="36.23082">
        <ele>1452.662998</ele>
        <time>2022-02-26T00:56:46.494Z</time>
      </trkpt>
      <trkpt lat="38.6688" lon="36.22967">
        <ele>1451.36624</ele>
        <time>2022-02-26T00:57:06.579Z</time>
      </trkpt>
      <trkpt lat="38.66822" lon="36.2268">
        <ele>1447.088934</ele>
        <time>2022-02-26T00:57:54.724Z</time>
      </trkpt>
      <trkpt lat="38.66813" lon="36.22635">
        <ele>1446.485895</ele>
        <time>2022-02-26T00:58:02.719Z</time>
      </trkpt>
      <trkpt lat="38.66732" lon="36.22236">
        <ele>1443.676154</ele>
        <time>2022-02-26T00:59:19.395Z</time>
      </trkpt>
      <trkpt lat="38.66654" lon="36.2185">
        <ele>1441.736155</ele>
        <time>2022-02-26T01:00:35.541Z</time>
      </trkpt>
      <trkpt lat="38.66286" lon="36.20096">
        <ele>1431.823107</ele>
        <time>2022-02-26T01:06:15.259Z</time>
      </trkpt>
      <trkpt lat="38.66178" lon="36.19578">
        <ele>1430.640104</ele>
        <time>2022-02-26T01:08:01.453Z</time>
      </trkpt>
      <trkpt lat="38.66153" lon="36.19433">
        <ele>1430.706202</ele>
        <time>2022-02-26T01:08:33.426Z</time>
      </trkpt>
      <trkpt lat="38.66092" lon="36.19163">
        <ele>1431.309009</ele>
        <time>2022-02-26T01:09:37.564Z</time>
      </trkpt>
      <trkpt lat="38.65854" lon="36.18012">
        <ele>1428.389902</ele>
        <time>2022-02-26T01:13:32.085Z</time>
      </trkpt>
      <trkpt lat="38.65843" lon="36.1796">
        <ele>1428.148633</ele>
        <time>2022-02-26T01:13:41.764Z</time>
      </trkpt>
      <trkpt lat="38.65775" lon="36.17627">
        <ele>1426.649188</ele>
        <time>2022-02-26T01:14:46.151Z</time>
      </trkpt>
      <trkpt lat="38.65677" lon="36.17158">
        <ele>1427.8317</ele>
        <time>2022-02-26T01:16:32.421Z</time>
      </trkpt>
      <trkpt lat="38.65644" lon="36.16984">
        <ele>1429.513048</ele>
        <time>2022-02-26T01:17:19.884Z</time>
      </trkpt>
      <trkpt lat="38.65641" lon="36.16954">
        <ele>1429.916628</ele>
        <time>2022-02-26T01:17:28.252Z</time>
      </trkpt>
      <trkpt lat="38.65636" lon="36.1692">
        <ele>1430.384735</ele>
        <time>2022-02-26T01:17:37.943Z</time>
      </trkpt>
      <trkpt lat="38.65632" lon="36.168">
        <ele>1432.011597</ele>
        <time>2022-02-26T01:18:11.176Z</time>
      </trkpt>
      <trkpt lat="38.65634" lon="36.16705">
        <ele>1433.209183</ele>
        <time>2022-02-26T01:18:36.463Z</time>
      </trkpt>
      <trkpt lat="38.6566" lon="36.16545">
        <ele>1435.278971</ele>
        <time>2022-02-26T01:19:19.368Z</time>
      </trkpt>
      <trkpt lat="38.65683" lon="36.16452">
        <ele>1437.334839</ele>
        <time>2022-02-26T01:19:47.373Z</time>
      </trkpt>
      <trkpt lat="38.65713" lon="36.16373">
        <ele>1439.191762</ele>
        <time>2022-02-26T01:20:14.938Z</time>
      </trkpt>
      <trkpt lat="38.65787" lon="36.16233">
        <ele>1444.552653</ele>
        <time>2022-02-26T01:21:16.364Z</time>
      </trkpt>
      <trkpt lat="38.6582" lon="36.16177">
        <ele>1447.023595</ele>
        <time>2022-02-26T01:21:43.978Z</time>
      </trkpt>
      <trkpt lat="38.66065" lon="36.15799">
        <ele>1467.200762</ele>
        <time>2022-02-26T01:25:03.239Z</time>
      </trkpt>
      <trkpt lat="38.66089" lon="36.1576">
        <ele>1469.783461</ele>
        <time>2022-02-26T01:25:25.633Z</time>
      </trkpt>
      <trkpt lat="38.66204" lon="36.15566">
        <ele>1482.128688</ele>
        <time>2022-02-26T01:27:20.000Z</time>
      </trkpt>
      <trkpt lat="38.66241" lon="36.15501">
        <ele>1485.867529</ele>
        <time>2022-02-26T01:27:55.335Z</time>
      </trkpt>
      <trkpt lat="38.6629" lon="36.15387">
        <ele>1491.343726</ele>
        <time>2022-02-26T01:28:48.349Z</time>
      </trkpt>
      <trkpt lat="38.66339" lon="36.15218">
        <ele>1497.043101</ele>
        <time>2022-02-26T01:29:52.401Z</time>
      </trkpt>
      <trkpt lat="38.66343" lon="36.15194">
        <ele>1497.4924</ele>
        <time>2022-02-26T01:30:00.229Z</time>
      </trkpt>
      <trkpt lat="38.66358" lon="36.15096">
        <ele>1498.82909</ele>
        <time>2022-02-26T01:30:29.128Z</time>
      </trkpt>
      <trkpt lat="38.66362" lon="36.14987">
        <ele>1500.278181</ele>
        <time>2022-02-26T01:30:56.260Z</time>
      </trkpt>
      <trkpt lat="38.66362" lon="36.14905">
        <ele>1500.084509</ele>
        <time>2022-02-26T01:31:13.185Z</time>
      </trkpt>
      <trkpt lat="38.66347" lon="36.14562">
        <ele>1498.539583</ele>
        <time>2022-02-26T01:32:17.233Z</time>
      </trkpt>
      <trkpt lat="38.66343" lon="36.1446">
        <ele>1498.021261</ele>
        <time>2022-02-26T01:32:36.267Z</time>
      </trkpt>
      <trkpt lat="38.66333" lon="36.14221">
        <ele>1496.626551</ele>
        <time>2022-02-26T01:33:22.098Z</time>
      </trkpt>
      <trkpt lat="38.66294" lon="36.13183">
        <ele>1488.151773</ele>
        <time>2022-02-26T01:36:28.143Z</time>
      </trkpt>
      <trkpt lat="38.66264" lon="36.12346">
        <ele>1482.37506</ele>
        <time>2022-02-26T01:39:00.637Z</time>
      </trkpt>
      <trkpt lat="38.66259" lon="36.12162">
        <ele>1481.652438</ele>
        <time>2022-02-26T01:39:38.634Z</time>
      </trkpt>
      <trkpt lat="38.66259" lon="36.12156">
        <ele>1481.628761</ele>
        <time>2022-02-26T01:39:39.826Z</time>
      </trkpt>
      <trkpt lat="38.66244" lon="36.1215">
        <ele>1481.545427</ele>
        <time>2022-02-26T01:39:43.834Z</time>
      </trkpt>
      <trkpt lat="38.65924" lon="36.12006">
        <ele>1479.180113</ele>
        <time>2022-02-26T01:41:04.414Z</time>
      </trkpt>
      <trkpt lat="38.65888" lon="36.11989">
        <ele>1478.868131</ele>
        <time>2022-02-26T01:41:13.558Z</time>
      </trkpt>
      <trkpt lat="38.65731" lon="36.11915">
        <ele>1477.266051</ele>
        <time>2022-02-26T01:41:52.987Z</time>
      </trkpt>
      <trkpt lat="38.65746" lon="36.11851">
        <ele>1476.663617</ele>
        <time>2022-02-26T01:42:05.238Z</time>
      </trkpt>
      <trkpt lat="38.65755" lon="36.11792">
        <ele>1476.121115</ele>
        <time>2022-02-26T01:42:16.064Z</time>
      </trkpt>
      <trkpt lat="38.65755" lon="36.11745">
        <ele>1475.671198</ele>
        <time>2022-02-26T01:42:24.724Z</time>
      </trkpt>
      <trkpt lat="38.65764" lon="36.11727">
        <ele>1475.465561</ele>
        <time>2022-02-26T01:42:28.697Z</time>
      </trkpt>
      <trkpt lat="38.65772" lon="36.11706">
        <ele>1475.241204</ele>
        <time>2022-02-26T01:42:32.993Z</time>
      </trkpt>
      <trkpt lat="38.65742" lon="36.11714">
        <ele>1474.863322</ele>
        <time>2022-02-26T01:42:40.211Z</time>
      </trkpt>
      <trkpt lat="38.6572" lon="36.11712">
        <ele>1474.590055</ele>
        <time>2022-02-26T01:42:45.436Z</time>
      </trkpt>
      <trkpt lat="38.65685" lon="36.1173">
        <ele>1474.130156</ele>
        <time>2022-02-26T01:42:54.286Z</time>
      </trkpt>
      <trkpt lat="38.65637" lon="36.11752">
        <ele>1473.531237</ele>
        <time>2022-02-26T01:43:06.616Z</time>
      </trkpt>
      <trkpt lat="38.65633" lon="36.11706">
        <ele>1473.145671</ele>
        <time>2022-02-26T01:43:15.311Z</time>
      </trkpt>
      <trkpt lat="38.65631" lon="36.11655">
        <ele>1472.720827</ele>
        <time>2022-02-26T01:43:25.182Z</time>
      </trkpt>
      <trkpt lat="38.65602" lon="36.11587">
        <ele>1472.075292</ele>
        <time>2022-02-26T01:43:39.748Z</time>
      </trkpt>
      <trkpt lat="38.65592" lon="36.11549">
        <ele>1471.614883</ele>
        <time>2022-02-26T01:43:47.234Z</time>
      </trkpt>
      <trkpt lat="38.65587" lon="36.1154">
        <ele>1471.451609</ele>
        <time>2022-02-26T01:43:49.133Z</time>
      </trkpt>
      <trkpt lat="38.65577" lon="36.11523">
        <ele>1471.126222</ele>
        <time>2022-02-26T01:43:52.950Z</time>
      </trkpt>
      <trkpt lat="38.65564" lon="36.115">
        <ele>1470.699925</ele>
        <time>2022-02-26T01:43:58.017Z</time>
      </trkpt>
      <trkpt lat="38.65549" lon="36.11479">
        <ele>1470.275156</ele>
        <time>2022-02-26T01:44:03.037Z</time>
      </trkpt>
      <trkpt lat="38.65524" lon="36.11463">
        <ele>1469.726345</ele>
        <time>2022-02-26T01:44:09.285Z</time>
      </trkpt>
      <trkpt lat="38.6542" lon="36.11405">
        <ele>1466.860926</ele>
        <time>2022-02-26T01:44:33.555Z</time>
      </trkpt>
      <trkpt lat="38.65373" lon="36.11394">
        <ele>1465.236162</ele>
        <time>2022-02-26T01:44:43.270Z</time>
      </trkpt>
      <trkpt lat="38.65229" lon="36.11284">
        <ele>1459.33479</ele>
        <time>2022-02-26T01:45:16.368Z</time>
      </trkpt>
      <trkpt lat="38.65164" lon="36.11261">
        <ele>1456.863036</ele>
        <time>2022-02-26T01:45:29.849Z</time>
      </trkpt>
      <trkpt lat="38.65127" lon="36.11238">
        <ele>1455.536631</ele>
        <time>2022-02-26T01:45:38.449Z</time>
      </trkpt>
      <trkpt lat="38.65115" lon="36.11235">
        <ele>1455.345885</ele>
        <time>2022-02-26T01:45:40.864Z</time>
      </trkpt>
      <trkpt lat="38.65113" lon="36.11197">
        <ele>1454.883677</ele>
        <time>2022-02-26T01:45:52.484Z</time>
      </trkpt>
      <trkpt lat="38.65112" lon="36.11135">
        <ele>1454.152474</ele>
        <time>2022-02-26T01:46:10.841Z</time>
      </trkpt>
      <trkpt lat="38.65093" lon="36.11022">
        <ele>1452.917881</ele>
        <time>2022-02-26T01:46:48.787Z</time>
      </trkpt>
      <trkpt lat="38.65082" lon="36.10992">
        <ele>1452.905201</ele>
        <time>2022-02-26T01:47:00.771Z</time>
      </trkpt>
      <trkpt lat="38.65049" lon="36.10936">
        <ele>1452.878998</ele>
        <time>2022-02-26T01:47:24.883Z</time>
      </trkpt>
      <trkpt lat="38.65037" lon="36.10904">
        <ele>1452.865432</ele>
        <time>2022-02-26T01:47:37.147Z</time>
      </trkpt>
      <trkpt lat="38.64978" lon="36.10686">
        <ele>1453.199344</ele>
        <time>2022-02-26T01:48:57.953Z</time>
      </trkpt>
      <trkpt lat="38.6497" lon="36.10652">
        <ele>1453.28292</ele>
        <time>2022-02-26T01:49:10.747Z</time>
      </trkpt>
      <trkpt lat="38.64965" lon="36.10593">
        <ele>1453.51522</ele>
        <time>2022-02-26T01:49:33.304Z</time>
      </trkpt>
      <trkpt lat="38.64964" lon="36.10535">
        <ele>1453.990973</ele>
        <time>2022-02-26T01:49:55.892Z</time>
      </trkpt>
      <trkpt lat="38.64978" lon="36.10446">
        <ele>1454.719903</ele>
        <time>2022-02-26T01:50:31.302Z</time>
      </trkpt>
      <trkpt lat="38.64989" lon="36.10419">
        <ele>1454.972962</ele>
        <time>2022-02-26T01:50:43.614Z</time>
      </trkpt>
      <trkpt lat="38.65063" lon="36.10325">
        <ele>1455.767578</ele>
        <time>2022-02-26T01:51:34.067Z</time>
      </trkpt>
      <trkpt lat="38.6514" lon="36.10201">
        <ele>1456.496663</ele>
        <time>2022-02-26T01:52:32.082Z</time>
      </trkpt>
      <trkpt lat="38.65187" lon="36.10152">
        <ele>1456.631142</ele>
        <time>2022-02-26T01:53:00.000Z</time>
      </trkpt>
      <trkpt lat="38.65306" lon="36.09963">
        <ele>1456.504437</ele>
        <time>2022-02-26T01:54:25.138Z</time>
      </trkpt>
      <trkpt lat="38.65404" lon="36.09768">
        <ele>1455.374854</ele>
        <time>2022-02-26T01:55:39.660Z</time>
      </trkpt>
      <trkpt lat="38.655" lon="36.09521">
        <ele>1453.44337</ele>
        <time>2022-02-26T01:57:07.736Z</time>
      </trkpt>
      <trkpt lat="38.65517" lon="36.09417">
        <ele>1452.558294</ele>
        <time>2022-02-26T01:57:41.381Z</time>
      </trkpt>
      <trkpt lat="38.65525" lon="36.09311">
        <ele>1451.466539</ele>
        <time>2022-02-26T01:58:14.502Z</time>
      </trkpt>
      <trkpt lat="38.65525" lon="36.09142">
        <ele>1450.035818</ele>
        <time>2022-02-26T01:59:05.773Z</time>
      </trkpt>
      <trkpt lat="38.65514" lon="36.09081">
        <ele>1449.617599</ele>
        <time>2022-02-26T01:59:25.323Z</time>
      </trkpt>
      <trkpt lat="38.65497" lon="36.09008">
        <ele>1449.100064</ele>
        <time>2022-02-26T01:59:50.767Z</time>
      </trkpt>
      <trkpt lat="38.65514" lon="36.09081">
        <ele>1449.572359</ele>
        <time>2022-02-26T02:00:18.485Z</time>
      </trkpt>
      <trkpt lat="38.65525" lon="36.09142">
        <ele>1450.030753</ele>
        <time>2022-02-26T02:00:42.329Z</time>
      </trkpt>
      <trkpt lat="38.65525" lon="36.09311">
        <ele>1451.467803</ele>
        <time>2022-02-26T02:01:51.025Z</time>
      </trkpt>
      <trkpt lat="38.65517" lon="36.09417">
        <ele>1452.540914</ele>
        <time>2022-02-26T02:02:33.540Z</time>
      </trkpt>
      <trkpt lat="38.655" lon="36.09521">
        <ele>1453.452075</ele>
        <time>2022-02-26T02:03:14.291Z</time>
      </trkpt>
      <trkpt lat="38.65404" lon="36.09768">
        <ele>1455.373823</ele>
        <time>2022-02-26T02:04:59.070Z</time>
      </trkpt>
      <trkpt lat="38.65306" lon="36.09963">
        <ele>1456.509121</ele>
        <time>2022-02-26T02:06:26.928Z</time>
      </trkpt>
      <trkpt lat="38.65187" lon="36.10152">
        <ele>1456.627144</ele>
        <time>2022-02-26T02:07:50.807Z</time>
      </trkpt>
      <trkpt lat="38.6514" lon="36.10201">
        <ele>1456.477805</ele>
        <time>2022-02-26T02:08:16.481Z</time>
      </trkpt>
      <trkpt lat="38.65063" lon="36.10325">
        <ele>1455.76208</ele>
        <time>2022-02-26T02:09:08.576Z</time>
      </trkpt>
      <trkpt lat="38.64989" lon="36.10419">
        <ele>1454.978439</ele>
        <time>2022-02-26T02:09:51.505Z</time>
      </trkpt>
      <trkpt lat="38.64978" lon="36.10446">
        <ele>1454.719437</ele>
        <time>2022-02-26T02:10:01.181Z</time>
      </trkpt>
      <trkpt lat="38.64964" lon="36.10535">
        <ele>1453.973389</ele>
        <time>2022-02-26T02:10:29.191Z</time>
      </trkpt>
      <trkpt lat="38.64965" lon="36.10593">
        <ele>1453.486464</ele>
        <time>2022-02-26T02:10:47.771Z</time>
      </trkpt>
      <trkpt lat="38.6497" lon="36.10652">
        <ele>1453.063224</ele>
        <time>2022-02-26T02:11:06.556Z</time>
      </trkpt>
      <trkpt lat="38.64958" lon="36.10622">
        <ele>1452.858006</ele>
        <time>2022-02-26T02:11:17.599Z</time>
      </trkpt>
      <trkpt lat="38.64915" lon="36.10511">
        <ele>1452.115897</ele>
        <time>2022-02-26T02:11:57.409Z</time>
      </trkpt>
      <trkpt lat="38.64893" lon="36.10408">
        <ele>1451.507068</ele>
        <time>2022-02-26T02:12:32.796Z</time>
      </trkpt>
      <trkpt lat="38.64741" lon="36.10139">
        <ele>1449.430794</ele>
        <time>2022-02-26T02:14:19.814Z</time>
      </trkpt>
      <trkpt lat="38.64693" lon="36.10061">
        <ele>1448.380201</ele>
        <time>2022-02-26T02:14:50.952Z</time>
      </trkpt>
      <trkpt lat="38.64639" lon="36.09996">
        <ele>1446.740604</ele>
        <time>2022-02-26T02:15:19.612Z</time>
      </trkpt>
      <trkpt lat="38.64572" lon="36.09945">
        <ele>1445.034635</ele>
        <time>2022-02-26T02:15:47.661Z</time>
      </trkpt>
      <trkpt lat="38.64537" lon="36.09912">
        <ele>1443.340875</ele>
        <time>2022-02-26T02:16:02.558Z</time>
      </trkpt>
      <trkpt lat="38.64507" lon="36.09873">
        <ele>1441.64357</ele>
        <time>2022-02-26T02:16:17.196Z</time>
      </trkpt>
      <trkpt lat="38.64464" lon="36.09784">
        <ele>1438.411804</ele>
        <time>2022-02-26T02:16:44.717Z</time>
      </trkpt>
      <trkpt lat="38.64415" lon="36.09704">
        <ele>1435.81571</ele>
        <time>2022-02-26T02:17:11.940Z</time>
      </trkpt>
      <trkpt lat="38.64402" lon="36.09675">
        <ele>1434.998655</ele>
        <time>2022-02-26T02:17:21.114Z</time>
      </trkpt>
      <trkpt lat="38.64394" lon="36.09643">
        <ele>1434.183844</ele>
        <time>2022-02-26T02:17:30.460Z</time>
      </trkpt>
      <trkpt lat="38.64349" lon="36.09543">
        <ele>1431.956625</ele>
        <time>2022-02-26T02:18:04.272Z</time>
      </trkpt>
      <trkpt lat="38.64342" lon="36.09507">
        <ele>1431.629874</ele>
        <time>2022-02-26T02:18:15.638Z</time>
      </trkpt>
      <trkpt lat="38.64335" lon="36.09231">
        <ele>1429.18697</ele>
        <time>2022-02-26T02:19:44.927Z</time>
      </trkpt>
      <trkpt lat="38.64315" lon="36.09118">
        <ele>1428.152673</ele>
        <time>2022-02-26T02:20:20.427Z</time>
      </trkpt>
      <trkpt lat="38.64307" lon="36.0907">
        <ele>1427.606049</ele>
        <time>2022-02-26T02:20:35.157Z</time>
      </trkpt>
      <trkpt lat="38.64305" lon="36.09059">
        <ele>1427.479735</ele>
        <time>2022-02-26T02:20:38.453Z</time>
      </trkpt>
      <trkpt lat="38.64299" lon="36.09021">
        <ele>1427.043744</ele>
        <time>2022-02-26T02:20:50.243Z</time>
      </trkpt>
      <trkpt lat="38.64294" lon="36.08989">
        <ele>1426.673939</ele>
        <time>2022-02-26T02:21:00.244Z</time>
      </trkpt>
      <trkpt lat="38.6427" lon="36.088">
        <ele>1424.964053</ele>
        <time>2022-02-26T02:21:59.933Z</time>
      </trkpt>
      <trkpt lat="38.64246" lon="36.08678">
        <ele>1424.111448</ele>
        <time>2022-02-26T02:22:40.785Z</time>
      </trkpt>
      <trkpt lat="38.64228" lon="36.0862">
        <ele>1423.800626</ele>
        <time>2022-02-26T02:23:01.184Z</time>
      </trkpt>
      <trkpt lat="38.64138" lon="36.08398">
        <ele>1422.938339</ele>
        <time>2022-02-26T02:24:22.934Z</time>
      </trkpt>
      <trkpt lat="38.64127" lon="36.08367">
        <ele>1422.921632</ele>
        <time>2022-02-26T02:24:34.574Z</time>
      </trkpt>
      <trkpt lat="38.64121" lon="36.08349">
        <ele>1422.911902</ele>
        <time>2022-02-26T02:24:41.486Z</time>
      </trkpt>
      <trkpt lat="38.64071" lon="36.08167">
        <ele>1423.330897</ele>
        <time>2022-02-26T02:25:51.667Z</time>
      </trkpt>
      <trkpt lat="38.64005" lon="36.08029">
        <ele>1424.088323</ele>
        <time>2022-02-26T02:26:52.708Z</time>
      </trkpt>
      <trkpt lat="38.63953" lon="36.07958">
        <ele>1424.396703</ele>
        <time>2022-02-26T02:27:27.999Z</time>
      </trkpt>
      <trkpt lat="38.63873" lon="36.07869">
        <ele>1424.79784</ele>
        <time>2022-02-26T02:28:16.219Z</time>
      </trkpt>
      <trkpt lat="38.63844" lon="36.07846">
        <ele>1424.888782</ele>
        <time>2022-02-26T02:28:32.114Z</time>
      </trkpt>
      <trkpt lat="38.63807" lon="36.07827">
        <ele>1424.989937</ele>
        <time>2022-02-26T02:28:49.864Z</time>
      </trkpt>
      <trkpt lat="38.63763" lon="36.07804">
        <ele>1425.114034</ele>
        <time>2022-02-26T02:29:11.787Z</time>
      </trkpt>
      <trkpt lat="38.63669" lon="36.07771">
        <ele>1425.370604</ele>
        <time>2022-02-26T02:29:56.875Z</time>
      </trkpt>
      <trkpt lat="38.63589" lon="36.07721">
        <ele>1425.611984</ele>
        <time>2022-02-26T02:30:38.304Z</time>
      </trkpt>
      <trkpt lat="38.63568" lon="36.07706">
        <ele>1425.676376</ele>
        <time>2022-02-26T02:30:49.116Z</time>
      </trkpt>
      <trkpt lat="38.63515" lon="36.0764">
        <ele>1425.376468</ele>
        <time>2022-02-26T02:31:20.748Z</time>
      </trkpt>
      <trkpt lat="38.63437" lon="36.07577">
        <ele>1424.945848</ele>
        <time>2022-02-26T02:31:59.440Z</time>
      </trkpt>
      <trkpt lat="38.6341" lon="36.0755">
        <ele>1424.761149</ele>
        <time>2022-02-26T02:32:13.880Z</time>
      </trkpt>
      <trkpt lat="38.63397" lon="36.07534">
        <ele>1424.650326</ele>
        <time>2022-02-26T02:32:21.168Z</time>
      </trkpt>
      <trkpt lat="38.63364" lon="36.07493">
        <ele>1424.364868</ele>
        <time>2022-02-26T02:32:40.440Z</time>
      </trkpt>
      <trkpt lat="38.63254" lon="36.07343">
        <ele>1423.482591</ele>
        <time>2022-02-26T02:33:47.933Z</time>
      </trkpt>
      <trkpt lat="38.63209" lon="36.07199">
        <ele>1422.968052</ele>
        <time>2022-02-26T02:34:39.539Z</time>
      </trkpt>
      <trkpt lat="38.63184" lon="36.07132">
        <ele>1423.034729</ele>
        <time>2022-02-26T02:35:05.120Z</time>
      </trkpt>
      <trkpt lat="38.63144" lon="36.071">
        <ele>1423.089718</ele>
        <time>2022-02-26T02:35:26.899Z</time>
      </trkpt>
      <trkpt lat="38.63123" lon="36.07071">
        <ele>1423.124948</ele>
        <time>2022-02-26T02:35:41.181Z</time>
      </trkpt>
      <trkpt lat="38.63097" lon="36.07018">
        <ele>1423.092949</ele>
        <time>2022-02-26T02:36:04.470Z</time>
      </trkpt>
      <trkpt lat="38.63081" lon="36.06971">
        <ele>1422.504237</ele>
        <time>2022-02-26T02:36:22.025Z</time>
      </trkpt>
      <trkpt lat="38.6307" lon="36.06944">
        <ele>1422.155673</ele>
        <time>2022-02-26T02:36:31.377Z</time>
      </trkpt>
      <trkpt lat="38.63055" lon="36.0692">
        <ele>1421.807578</ele>
        <time>2022-02-26T02:36:40.380Z</time>
      </trkpt>
      <trkpt lat="38.63035" lon="36.06898">
        <ele>1421.421629</ele>
        <time>2022-02-26T02:36:50.694Z</time>
      </trkpt>
      <trkpt lat="38.63031" lon="36.06894">
        <ele>1421.342963</ele>
        <time>2022-02-26T02:36:52.592Z</time>
      </trkpt>
      <trkpt lat="38.63021" lon="36.06867">
        <ele>1421.003475</ele>
        <time>2022-02-26T02:37:01.466Z</time>
      </trkpt>
      <trkpt lat="38.6302" lon="36.06858">
        <ele>1420.898143</ele>
        <time>2022-02-26T02:37:04.166Z</time>
      </trkpt>
      <trkpt lat="38.6302" lon="36.06802">
        <ele>1420.050852</ele>
        <time>2022-02-26T02:37:19.951Z</time>
      </trkpt>
      <trkpt lat="38.63035" lon="36.06783">
        <ele>1419.535975</ele>
        <time>2022-02-26T02:37:27.526Z</time>
      </trkpt>
      <trkpt lat="38.63044" lon="36.06765">
        <ele>1419.111722</ele>
        <time>2022-02-26T02:37:33.482Z</time>
      </trkpt>
      <trkpt lat="38.63102" lon="36.06656">
        <ele>1416.536379</ele>
        <time>2022-02-26T02:38:10.394Z</time>
      </trkpt>
      <trkpt lat="38.63148" lon="36.06588">
        <ele>1415.901182</ele>
        <time>2022-02-26T02:38:38.557Z</time>
      </trkpt>
      <trkpt lat="38.6315" lon="36.06576">
        <ele>1415.87074</ele>
        <time>2022-02-26T02:38:42.751Z</time>
      </trkpt>
      <trkpt lat="38.6315" lon="36.06557">
        <ele>1415.82673</ele>
        <time>2022-02-26T02:38:48.930Z</time>
      </trkpt>
      <trkpt lat="38.63146" lon="36.06547">
        <ele>1415.799667</ele>
        <time>2022-02-26T02:38:52.989Z</time>
      </trkpt>
      <trkpt lat="38.6309" lon="36.06464">
        <ele>1415.535457</ele>
        <time>2022-02-26T02:39:31.716Z</time>
      </trkpt>
      <trkpt lat="38.63017" lon="36.06408">
        <ele>1416.376568</ele>
        <time>2022-02-26T02:40:13.949Z</time>
      </trkpt>
      <trkpt lat="38.63003" lon="36.0638">
        <ele>1416.68634</ele>
        <time>2022-02-26T02:40:27.525Z</time>
      </trkpt>
      <trkpt lat="38.63002" lon="36.0636">
        <ele>1416.865602</ele>
        <time>2022-02-26T02:40:35.592Z</time>
      </trkpt>
      <trkpt lat="38.6301" lon="36.06337">
        <ele>1417.098934</ele>
        <time>2022-02-26T02:40:45.460Z</time>
      </trkpt>
      <trkpt lat="38.63017" lon="36.06325">
        <ele>1417.237363</ele>
        <time>2022-02-26T02:40:49.642Z</time>
      </trkpt>
      <trkpt lat="38.63023" lon="36.0629">
        <ele>1417.562042</ele>
        <time>2022-02-26T02:40:58.409Z</time>
      </trkpt>
      <trkpt lat="38.6302" lon="36.06263">
        <ele>1417.982993</ele>
        <time>2022-02-26T02:41:06.126Z</time>
      </trkpt>
      <trkpt lat="38.63008" lon="36.06215">
        <ele>1418.821052</ele>
        <time>2022-02-26T02:41:20.265Z</time>
      </trkpt>
      <trkpt lat="38.63058" lon="36.06208">
        <ele>1419.900687</ele>
        <time>2022-02-26T02:41:39.022Z</time>
      </trkpt>
      <trkpt lat="38.63091" lon="36.06212">
        <ele>1420.601814</ele>
        <time>2022-02-26T02:41:51.553Z</time>
      </trkpt>
      <trkpt lat="38.6309" lon="36.06175">
        <ele>1421.216817</ele>
        <time>2022-02-26T02:42:03.691Z</time>
      </trkpt>
      <trkpt lat="38.63077" lon="36.06132">
        <ele>1422.39093</ele>
        <time>2022-02-26T02:42:19.012Z</time>
      </trkpt>
      <trkpt lat="38.63122" lon="36.06101">
        <ele>1424.325774</ele>
        <time>2022-02-26T02:42:42.202Z</time>
      </trkpt>
      <trkpt lat="38.63146" lon="36.06067">
        <ele>1425.678006</ele>
        <time>2022-02-26T02:42:59.493Z</time>
      </trkpt>
      <trkpt lat="38.63185" lon="36.06018">
        <ele>1427.705502</ele>
        <time>2022-02-26T02:43:26.077Z</time>
      </trkpt>
      <trkpt lat="38.63209" lon="36.05988">
        <ele>1428.734658</ele>
        <time>2022-02-26T02:43:41.991Z</time>
      </trkpt>
      <trkpt lat="38.63287" lon="36.05858">
        <ele>1432.066161</ele>
        <time>2022-02-26T02:44:36.391Z</time>
      </trkpt>
      <trkpt lat="38.63341" lon="36.05785">
        <ele>1432.612732</ele>
        <time>2022-02-26T02:44:59.182Z</time>
      </trkpt>
      <trkpt lat="38.63362" lon="36.05738">
        <ele>1432.382899</ele>
        <time>2022-02-26T02:45:09.858Z</time>
      </trkpt>
      <trkpt lat="38.63365" lon="36.0572">
        <ele>1432.301452</ele>
        <time>2022-02-26T02:45:13.405Z</time>
      </trkpt>
      <trkpt lat="38.63411" lon="36.05704">
        <ele>1432.039253</ele>
        <time>2022-02-26T02:45:24.232Z</time>
      </trkpt>
      <trkpt lat="38.63855" lon="36.05549">
        <ele>1425.228127</ele>
        <time>2022-02-26T02:47:04.602Z</time>
      </trkpt>
      <trkpt lat="38.63872" lon="36.05542">
        <ele>1425.023356</ele>
        <time>2022-02-26T02:47:08.508Z</time>
      </trkpt>
      <trkpt lat="38.63922" lon="36.05524">
        <ele>1424.404492</ele>
        <time>2022-02-26T02:47:20.684Z</time>
      </trkpt>
      <trkpt lat="38.64424" lon="36.05349">
        <ele>1421.163122</ele>
        <time>2022-02-26T02:49:25.636Z</time>
      </trkpt>
      <trkpt lat="38.6451" lon="36.05302">
        <ele>1421.391008</ele>
        <time>2022-02-26T02:49:53.316Z</time>
      </trkpt>
      <trkpt lat="38.6452" lon="36.05294">
        <ele>1421.507682</ele>
        <time>2022-02-26T02:49:57.029Z</time>
      </trkpt>
      <trkpt lat="38.64536" lon="36.05281">
        <ele>1421.682278</ele>
        <time>2022-02-26T02:50:02.846Z</time>
      </trkpt>
      <trkpt lat="38.64581" lon="36.05222">
        <ele>1422.311633</ele>
        <time>2022-02-26T02:50:23.875Z</time>
      </trkpt>
      <trkpt lat="38.64695" lon="36.05022">
        <ele>1424.408184</ele>
        <time>2022-02-26T02:51:26.430Z</time>
      </trkpt>
      <trkpt lat="38.65088" lon="36.04292">
        <ele>1431.116377</ele>
        <time>2022-02-26T02:55:01.662Z</time>
      </trkpt>
      <trkpt lat="38.65182" lon="36.04126">
        <ele>1433.15821</ele>
        <time>2022-02-26T02:55:55.690Z</time>
      </trkpt>
      <trkpt lat="38.65266" lon="36.03983">
        <ele>1434.824897</ele>
        <time>2022-02-26T02:56:41.948Z</time>
      </trkpt>
      <trkpt lat="38.65349" lon="36.03855">
        <ele>1435.93945</ele>
        <time>2022-02-26T02:57:21.495Z</time>
      </trkpt>
      <trkpt lat="38.65417" lon="36.03776">
        <ele>1436.038117</ele>
        <time>2022-02-26T02:57:47.076Z</time>
      </trkpt>
      <trkpt lat="38.65735" lon="36.03451">
        <ele>1435.455472</ele>
        <time>2022-02-26T02:59:31.360Z</time>
      </trkpt>
      <trkpt lat="38.65749" lon="36.03436">
        <ele>1435.421684</ele>
        <time>2022-02-26T02:59:36.565Z</time>
      </trkpt>
      <trkpt lat="38.65702" lon="36.03123">
        <ele>1434.910129</ele>
        <time>2022-02-26T03:00:42.223Z</time>
      </trkpt>
      <trkpt lat="38.65618" lon="36.02572">
        <ele>1432.218563</ele>
        <time>2022-02-26T03:02:28.084Z</time>
      </trkpt>
      <trkpt lat="38.65539" lon="36.02055">
        <ele>1428.815831</ele>
        <time>2022-02-26T03:04:04.575Z</time>
      </trkpt>
      <trkpt lat="38.65503" lon="36.01823">
        <ele>1428.223114</ele>
        <time>2022-02-26T03:04:50.532Z</time>
      </trkpt>
      <trkpt lat="38.65483" lon="36.01693">
        <ele>1429.193</ele>
        <time>2022-02-26T03:05:20.737Z</time>
      </trkpt>
      <trkpt lat="38.65356" lon="36.00832">
        <ele>1441.121195</ele>
        <time>2022-02-26T03:09:27.725Z</time>
      </trkpt>
      <trkpt lat="38.65312" lon="36.00529">
        <ele>1441.905447</ele>
        <time>2022-02-26T03:10:34.708Z</time>
      </trkpt>
      <trkpt lat="38.65251" lon="36.00114">
        <ele>1438.558263</ele>
        <time>2022-02-26T03:11:49.728Z</time>
      </trkpt>
      <trkpt lat="38.65239" lon="36.00033">
        <ele>1437.792981</ele>
        <time>2022-02-26T03:12:04.033Z</time>
      </trkpt>
      <trkpt lat="38.65205" lon="35.99801">
        <ele>1436.057554</ele>
        <time>2022-02-26T03:12:46.804Z</time>
      </trkpt>
      <trkpt lat="38.65178" lon="35.99624">
        <ele>1435.796183</ele>
        <time>2022-02-26T03:13:22.730Z</time>
      </trkpt>
      <trkpt lat="38.65158" lon="35.99448">
        <ele>1436.237098</ele>
        <time>2022-02-26T03:14:02.746Z</time>
      </trkpt>
      <trkpt lat="38.65153" lon="35.99416">
        <ele>1436.367843</ele>
        <time>2022-02-26T03:14:10.297Z</time>
      </trkpt>
      <trkpt lat="38.65129" lon="35.9929">
        <ele>1436.781651</ele>
        <time>2022-02-26T03:14:40.949Z</time>
      </trkpt>
      <trkpt lat="38.64773" lon="35.96885">
        <ele>1441.817675</ele>
        <time>2022-02-26T03:23:34.272Z</time>
      </trkpt>
      <trkpt lat="38.64761" lon="35.96771">
        <ele>1441.769491</ele>
        <time>2022-02-26T03:23:58.467Z</time>
      </trkpt>
      <trkpt lat="38.64756" lon="35.96742">
        <ele>1441.738851</ele>
        <time>2022-02-26T03:24:04.221Z</time>
      </trkpt>
      <trkpt lat="38.64739" lon="35.96659">
        <ele>1441.649895</ele>
        <time>2022-02-26T03:24:21.479Z</time>
      </trkpt>
      <trkpt lat="38.64627" lon="35.95913">
        <ele>1440.192125</ele>
        <time>2022-02-26T03:26:52.497Z</time>
      </trkpt>
      <trkpt lat="38.64566" lon="35.95496">
        <ele>1440.864744</ele>
        <time>2022-02-26T03:28:25.498Z</time>
      </trkpt>
      <trkpt lat="38.64521" lon="35.95198">
        <ele>1441.072953</ele>
        <time>2022-02-26T03:29:29.872Z</time>
      </trkpt>
      <trkpt lat="38.64408" lon="35.94426">
        <ele>1440.571158</ele>
        <time>2022-02-26T03:32:11.011Z</time>
      </trkpt>
      <trkpt lat="38.64393" lon="35.94287">
        <ele>1440.54312</ele>
        <time>2022-02-26T03:32:39.341Z</time>
      </trkpt>
      <trkpt lat="38.64332" lon="35.93534">
        <ele>1440.946474</ele>
        <time>2022-02-26T03:35:18.951Z</time>
      </trkpt>
      <trkpt lat="38.64315" lon="35.93319">
        <ele>1441.582975</ele>
        <time>2022-02-26T03:36:07.570Z</time>
      </trkpt>
      <trkpt lat="38.64295" lon="35.93063">
        <ele>1442.405657</ele>
        <time>2022-02-26T03:37:06.812Z</time>
      </trkpt>
      <trkpt lat="38.64247" lon="35.9243">
        <ele>1442.338935</ele>
        <time>2022-02-26T03:39:16.265Z</time>
      </trkpt>
      <trkpt lat="38.64196" lon="35.91898">
        <ele>1443.413631</ele>
        <time>2022-02-26T03:41:15.699Z</time>
      </trkpt>
      <trkpt lat="38.64154" lon="35.91366">
        <ele>1443.074828</ele>
        <time>2022-02-26T03:43:04.129Z</time>
      </trkpt>
      <trkpt lat="38.64097" lon="35.90647">
        <ele>1443.652545</ele>
        <time>2022-02-26T03:45:37.054Z</time>
      </trkpt>
      <trkpt lat="38.64088" lon="35.90541">
        <ele>1443.978591</ele>
        <time>2022-02-26T03:46:00.759Z</time>
      </trkpt>
      <trkpt lat="38.64077" lon="35.90326">
        <ele>1445.026447</ele>
        <time>2022-02-26T03:46:51.484Z</time>
      </trkpt>
      <trkpt lat="38.64056" lon="35.90144">
        <ele>1445.996743</ele>
        <time>2022-02-26T03:47:35.453Z</time>
      </trkpt>
      <trkpt lat="38.64029" lon="35.89808">
        <ele>1447.540957</ele>
        <time>2022-02-26T03:48:52.284Z</time>
      </trkpt>
      <trkpt lat="38.64024" lon="35.89746">
        <ele>1447.866248</ele>
        <time>2022-02-26T03:49:06.960Z</time>
      </trkpt>
      <trkpt lat="38.64012" lon="35.89594">
        <ele>1448.723711</ele>
        <time>2022-02-26T03:49:43.308Z</time>
      </trkpt>
      <trkpt lat="38.63958" lon="35.88919">
        <ele>1451.870981</ele>
        <time>2022-02-26T03:52:18.604Z</time>
      </trkpt>
      <trkpt lat="38.63933" lon="35.88598">
        <ele>1454.246255</ele>
        <time>2022-02-26T03:53:38.644Z</time>
      </trkpt>
      <trkpt lat="38.63917" lon="35.88404">
        <ele>1455.609228</ele>
        <time>2022-02-26T03:54:26.034Z</time>
      </trkpt>
      <trkpt lat="38.63897" lon="35.88155">
        <ele>1456.828572</ele>
        <time>2022-02-26T03:55:23.527Z</time>
      </trkpt>
      <trkpt lat="38.63874" lon="35.87864">
        <ele>1458.192602</ele>
        <time>2022-02-26T03:56:31.385Z</time>
      </trkpt>
      <trkpt lat="38.63865" lon="35.87751">
        <ele>1458.646556</ele>
        <time>2022-02-26T03:56:56.944Z</time>
      </trkpt>
      <trkpt lat="38.63861" lon="35.877">
        <ele>1458.914143</ele>
        <time>2022-02-26T03:57:08.045Z</time>
      </trkpt>
      <trkpt lat="38.63845" lon="35.87496">
        <ele>1460.249425</ele>
        <time>2022-02-26T03:57:56.126Z</time>
      </trkpt>
      <trkpt lat="38.63787" lon="35.86775">
        <ele>1471.820022</ele>
        <time>2022-02-26T04:01:26.253Z</time>
      </trkpt>
      <trkpt lat="38.63711" lon="35.85831">
        <ele>1480.744289</ele>
        <time>2022-02-26T04:05:25.205Z</time>
      </trkpt>
      <trkpt lat="38.63684" lon="35.85687">
        <ele>1482.176142</ele>
        <time>2022-02-26T04:06:02.790Z</time>
      </trkpt>
      <trkpt lat="38.63623" lon="35.85465">
        <ele>1485.038109</ele>
        <time>2022-02-26T04:07:04.604Z</time>
      </trkpt>
      <trkpt lat="38.63601" lon="35.85361">
        <ele>1486.936263</ele>
        <time>2022-02-26T04:07:36.587Z</time>
      </trkpt>
      <trkpt lat="38.63573" lon="35.85293">
        <ele>1488.340737</ele>
        <time>2022-02-26T04:08:00.197Z</time>
      </trkpt>
      <trkpt lat="38.63561" lon="35.85256">
        <ele>1489.067695</ele>
        <time>2022-02-26T04:08:12.592Z</time>
      </trkpt>
      <trkpt lat="38.62749" lon="35.82519">
        <ele>1537.078475</ele>
        <time>2022-02-26T04:22:16.022Z</time>
      </trkpt>
      <trkpt lat="38.62709" lon="35.82356">
        <ele>1538.135503</ele>
        <time>2022-02-26T04:22:55.930Z</time>
      </trkpt>
      <trkpt lat="38.627" lon="35.82329">
        <ele>1538.145461</ele>
        <time>2022-02-26T04:23:02.144Z</time>
      </trkpt>
      <trkpt lat="38.62699" lon="35.82325">
        <ele>1538.146965</ele>
        <time>2022-02-26T04:23:02.900Z</time>
      </trkpt>
      <trkpt lat="38.62687" lon="35.82318">
        <ele>1538.152731</ele>
        <time>2022-02-26T04:23:06.348Z</time>
      </trkpt>
      <trkpt lat="38.62683" lon="35.82319">
        <ele>1538.154256</ele>
        <time>2022-02-26T04:23:07.108Z</time>
      </trkpt>
      <trkpt lat="38.6268" lon="35.82321">
        <ele>1538.155735</ele>
        <time>2022-02-26T04:23:07.982Z</time>
      </trkpt>
      <trkpt lat="38.62675" lon="35.82337">
        <ele>1538.161487</ele>
        <time>2022-02-26T04:23:11.580Z</time>
      </trkpt>
      <trkpt lat="38.62676" lon="35.82341">
        <ele>1538.162988</ele>
        <time>2022-02-26T04:23:12.333Z</time>
      </trkpt>
      <trkpt lat="38.62683" lon="35.82366">
        <ele>1538.172246</ele>
        <time>2022-02-26T04:23:17.543Z</time>
      </trkpt>
      <trkpt lat="38.62737" lon="35.82525">
        <ele>1537.626774</ele>
        <time>2022-02-26T04:23:50.210Z</time>
      </trkpt>
      <trkpt lat="38.62963" lon="35.83288">
        <ele>1534.936186</ele>
        <time>2022-02-26T04:26:31.129Z</time>
      </trkpt>
      <trkpt lat="38.63092" lon="35.83723">
        <ele>1529.640272</ele>
        <time>2022-02-26T04:27:51.007Z</time>
      </trkpt>
      <trkpt lat="38.63302" lon="35.84427">
        <ele>1516.182426</ele>
        <time>2022-02-26T04:29:53.560Z</time>
      </trkpt>
      <trkpt lat="38.63409" lon="35.84787">
        <ele>1505.346501</ele>
        <time>2022-02-26T04:30:50.627Z</time>
      </trkpt>
      <trkpt lat="38.63547" lon="35.85268">
        <ele>1490.734297</ele>
        <time>2022-02-26T04:32:05.925Z</time>
      </trkpt>
      <trkpt lat="38.63571" lon="35.85357">
        <ele>1489.344709</ele>
        <time>2022-02-26T04:32:22.200Z</time>
      </trkpt>
      <trkpt lat="38.63577" lon="35.85372">
        <ele>1489.098268</ele>
        <time>2022-02-26T04:32:25.212Z</time>
      </trkpt>
      <trkpt lat="38.63578" lon="35.85376">
        <ele>1489.035773</ele>
        <time>2022-02-26T04:32:26.296Z</time>
      </trkpt>
      <trkpt lat="38.63594" lon="35.85382">
        <ele>1488.736441</ele>
        <time>2022-02-26T04:32:30.472Z</time>
      </trkpt>
      <trkpt lat="38.63602" lon="35.85365">
        <ele>1488.511735</ele>
        <time>2022-02-26T04:32:34.474Z</time>
      </trkpt>
      <trkpt lat="38.63601" lon="35.85361">
        <ele>1488.561215</ele>
        <time>2022-02-26T04:32:35.632Z</time>
      </trkpt>
      <trkpt lat="38.63573" lon="35.85293">
        <ele>1489.422016</ele>
        <time>2022-02-26T04:32:54.340Z</time>
      </trkpt>
      <trkpt lat="38.63561" lon="35.85256">
        <ele>1489.867568</ele>
        <time>2022-02-26T04:33:05.390Z</time>
      </trkpt>
      <trkpt lat="38.62749" lon="35.82519">
        <ele>1537.066058</ele>
        <time>2022-02-26T04:47:08.283Z</time>
      </trkpt>
      <trkpt lat="38.62709" lon="35.82356">
        <ele>1538.280858</ele>
        <time>2022-02-26T04:47:47.514Z</time>
      </trkpt>
      <trkpt lat="38.627" lon="35.82329">
        <ele>1538.228322</ele>
        <time>2022-02-26T04:47:53.606Z</time>
      </trkpt>
      <trkpt lat="38.6269" lon="35.82297">
        <ele>1538.1542</ele>
        <time>2022-02-26T04:48:00.390Z</time>
      </trkpt>
      <trkpt lat="38.62641" lon="35.82157">
        <ele>1537.830424</ele>
        <time>2022-02-26T04:48:29.844Z</time>
      </trkpt>
      <trkpt lat="38.62488" lon="35.81638">
        <ele>1536.497175</ele>
        <time>2022-02-26T04:50:20.714Z</time>
      </trkpt>
      <trkpt lat="38.62451" lon="35.81479">
        <ele>1535.786609</ele>
        <time>2022-02-26T04:50:51.724Z</time>
      </trkpt>
      <trkpt lat="38.62431" lon="35.81331">
        <ele>1535.284835</ele>
        <time>2022-02-26T04:51:20.621Z</time>
      </trkpt>
      <trkpt lat="38.62423" lon="35.81194">
        <ele>1534.989059</ele>
        <time>2022-02-26T04:51:48.709Z</time>
      </trkpt>
      <trkpt lat="38.62429" lon="35.81026">
        <ele>1534.759005</ele>
        <time>2022-02-26T04:52:23.578Z</time>
      </trkpt>
      <trkpt lat="38.62443" lon="35.809">
        <ele>1534.197077</ele>
        <time>2022-02-26T04:52:47.590Z</time>
      </trkpt>
      <trkpt lat="38.62477" lon="35.80688">
        <ele>1533.659756</ele>
        <time>2022-02-26T04:53:28.088Z</time>
      </trkpt>
      <trkpt lat="38.62531" lon="35.80365">
        <ele>1534.787491</ele>
        <time>2022-02-26T04:54:43.441Z</time>
      </trkpt>
      <trkpt lat="38.62646" lon="35.79658">
        <ele>1544.122915</ele>
        <time>2022-02-26T04:58:01.250Z</time>
      </trkpt>
      <trkpt lat="38.62695" lon="35.79364">
        <ele>1546.347802</ele>
        <time>2022-02-26T04:59:17.135Z</time>
      </trkpt>
      <trkpt lat="38.62854" lon="35.78395">
        <ele>1549.035318</ele>
        <time>2022-02-26T05:02:50.794Z</time>
      </trkpt>
      <trkpt lat="38.62956" lon="35.77774">
        <ele>1555.553196</ele>
        <time>2022-02-26T05:05:39.737Z</time>
      </trkpt>
      <trkpt lat="38.62989" lon="35.77611">
        <ele>1556.238327</ele>
        <time>2022-02-26T05:06:15.804Z</time>
      </trkpt>
      <trkpt lat="38.62996" lon="35.77581">
        <ele>1556.195089</ele>
        <time>2022-02-26T05:06:22.132Z</time>
      </trkpt>
      <trkpt lat="38.62996" lon="35.77574">
        <ele>1556.185657</ele>
        <time>2022-02-26T05:06:23.555Z</time>
      </trkpt>
      <trkpt lat="38.63" lon="35.77573">
        <ele>1556.177981</ele>
        <time>2022-02-26T05:06:24.571Z</time>
      </trkpt>
      <trkpt lat="38.63019" lon="35.7756">
        <ele>1556.139369</ele>
        <time>2022-02-26T05:06:30.393Z</time>
      </trkpt>
      <trkpt lat="38.63028" lon="35.77538">
        <ele>1556.106162</ele>
        <time>2022-02-26T05:06:35.388Z</time>
      </trkpt>
      <trkpt lat="38.63029" lon="35.77532">
        <ele>1556.09754</ele>
        <time>2022-02-26T05:06:36.527Z</time>
      </trkpt>
      <trkpt lat="38.63027" lon="35.77491">
        <ele>1556.03974</ele>
        <time>2022-02-26T05:06:45.370Z</time>
      </trkpt>
      <trkpt lat="38.63027" lon="35.7743">
        <ele>1555.991861</ele>
        <time>2022-02-26T05:06:57.920Z</time>
      </trkpt>
      <trkpt lat="38.63039" lon="35.77407">
        <ele>1555.999037</ele>
        <time>2022-02-26T05:07:03.725Z</time>
      </trkpt>
      <trkpt lat="38.63056" lon="35.774">
        <ele>1556.004986</ele>
        <time>2022-02-26T05:07:08.605Z</time>
      </trkpt>
      <trkpt lat="38.63077" lon="35.77405">
        <ele>1556.011937</ele>
        <time>2022-02-26T05:07:14.665Z</time>
      </trkpt>
      <trkpt lat="38.63101" lon="35.77402">
        <ele>1556.02006</ele>
        <time>2022-02-26T05:07:21.638Z</time>
      </trkpt>
      <trkpt lat="38.6324" lon="35.77309">
        <ele>1555.758083</ele>
        <time>2022-02-26T05:08:05.797Z</time>
      </trkpt>
      <trkpt lat="38.63307" lon="35.77252">
        <ele>1555.460907</ele>
        <time>2022-02-26T05:08:26.290Z</time>
      </trkpt>
      <trkpt lat="38.63321" lon="35.77247">
        <ele>1555.406736</ele>
        <time>2022-02-26T05:08:29.886Z</time>
      </trkpt>
      <trkpt lat="38.63337" lon="35.77228">
        <ele>1555.122393</ele>
        <time>2022-02-26T05:08:38.824Z</time>
      </trkpt>
      <trkpt lat="38.63357" lon="35.77208">
        <ele>1554.675547</ele>
        <time>2022-02-26T05:08:49.477Z</time>
      </trkpt>
      <trkpt lat="38.63376" lon="35.77193">
        <ele>1554.293424</ele>
        <time>2022-02-26T05:08:58.468Z</time>
      </trkpt>
      <trkpt lat="38.63421" lon="35.7718">
        <ele>1553.500416</ele>
        <time>2022-02-26T05:09:16.936Z</time>
      </trkpt>
      <trkpt lat="38.63452" lon="35.77175">
        <ele>1552.973587</ele>
        <time>2022-02-26T05:09:28.393Z</time>
      </trkpt>
      <trkpt lat="38.63494" lon="35.77183">
        <ele>1552.158019</ele>
        <time>2022-02-26T05:09:43.866Z</time>
      </trkpt>
      <trkpt lat="38.63527" lon="35.77167">
        <ele>1550.30221</ele>
        <time>2022-02-26T05:09:56.337Z</time>
      </trkpt>
      <trkpt lat="38.6356" lon="35.77147">
        <ele>1548.41941</ele>
        <time>2022-02-26T05:10:08.363Z</time>
      </trkpt>
      <trkpt lat="38.63562" lon="35.77138">
        <ele>1548.030993</ele>
        <time>2022-02-26T05:10:09.732Z</time>
      </trkpt>
      <trkpt lat="38.63589" lon="35.77107">
        <ele>1546.170726</ele>
        <time>2022-02-26T05:10:16.434Z</time>
      </trkpt>
      <trkpt lat="38.63598" lon="35.77097">
        <ele>1545.562524</ele>
        <time>2022-02-26T05:10:18.590Z</time>
      </trkpt>
      <trkpt lat="38.63614" lon="35.77077">
        <ele>1544.358223</ele>
        <time>2022-02-26T05:10:22.888Z</time>
      </trkpt>
      <trkpt lat="38.63627" lon="35.7706">
        <ele>1543.426572</ele>
        <time>2022-02-26T05:10:26.169Z</time>
      </trkpt>
      <trkpt lat="38.63661" lon="35.77015">
        <ele>1540.390231</ele>
        <time>2022-02-26T05:10:35.019Z</time>
      </trkpt>
      <trkpt lat="38.63706" lon="35.76963">
        <ele>1536.46925</ele>
        <time>2022-02-26T05:10:45.928Z</time>
      </trkpt>
      <trkpt lat="38.6379" lon="35.76885">
        <ele>1530.489173</ele>
        <time>2022-02-26T05:11:05.078Z</time>
      </trkpt>
      <trkpt lat="38.63809" lon="35.76844">
        <ele>1529.078101</ele>
        <time>2022-02-26T05:11:12.415Z</time>
      </trkpt>
      <trkpt lat="38.63816" lon="35.76811">
        <ele>1528.075887</ele>
        <time>2022-02-26T05:11:17.654Z</time>
      </trkpt>
      <trkpt lat="38.63819" lon="35.76761">
        <ele>1526.591357</ele>
        <time>2022-02-26T05:11:25.637Z</time>
      </trkpt>
      <trkpt lat="38.63812" lon="35.7672">
        <ele>1525.358932</ele>
        <time>2022-02-26T05:11:32.547Z</time>
      </trkpt>
      <trkpt lat="38.63826" lon="35.76678">
        <ele>1524.413712</ele>
        <time>2022-02-26T05:11:40.182Z</time>
      </trkpt>
      <trkpt lat="38.63832" lon="35.76644">
        <ele>1524.027053</ele>
        <time>2022-02-26T05:11:46.393Z</time>
      </trkpt>
      <trkpt lat="38.63841" lon="35.76631">
        <ele>1523.831021</ele>
        <time>2022-02-26T05:11:49.340Z</time>
      </trkpt>
      <trkpt lat="38.63837" lon="35.76609">
        <ele>1523.579754</ele>
        <time>2022-02-26T05:11:53.368Z</time>
      </trkpt>
      <trkpt lat="38.63839" lon="35.76586">
        <ele>1523.327986</ele>
        <time>2022-02-26T05:11:57.059Z</time>
      </trkpt>
      <trkpt lat="38.63839" lon="35.76579">
        <ele>1523.252939</ele>
        <time>2022-02-26T05:11:58.315Z</time>
      </trkpt>
      <trkpt lat="38.63838" lon="35.76555">
        <ele>1522.98471</ele>
        <time>2022-02-26T05:12:02.739Z</time>
      </trkpt>
      <trkpt lat="38.63848" lon="35.7652">
        <ele>1522.577817</ele>
        <time>2022-02-26T05:12:09.662Z</time>
      </trkpt>
      <trkpt lat="38.63863" lon="35.76461">
        <ele>1522.199335</ele>
        <time>2022-02-26T05:12:21.976Z</time>
      </trkpt>
      <trkpt lat="38.63874" lon="35.7643">
        <ele>1522.368359</ele>
        <time>2022-02-26T05:12:29.662Z</time>
      </trkpt>
      <trkpt lat="38.63882" lon="35.76409">
        <ele>1522.477276</ele>
        <time>2022-02-26T05:12:34.604Z</time>
      </trkpt>
      <trkpt lat="38.63938" lon="35.76386">
        <ele>1522.844944</ele>
        <time>2022-02-26T05:12:53.502Z</time>
      </trkpt>
      <trkpt lat="38.63955" lon="35.76318">
        <ele>1523.191317</ele>
        <time>2022-02-26T05:13:12.063Z</time>
      </trkpt>
      <trkpt lat="38.63995" lon="35.76304">
        <ele>1523.412914</ele>
        <time>2022-02-26T05:13:26.594Z</time>
      </trkpt>
      <trkpt lat="38.64032" lon="35.7628">
        <ele>1523.628847</ele>
        <time>2022-02-26T05:13:40.957Z</time>
      </trkpt>
      <trkpt lat="38.64031" lon="35.76248">
        <ele>1523.758597</ele>
        <time>2022-02-26T05:13:48.843Z</time>
      </trkpt>
      <trkpt lat="38.64028" lon="35.76198">
        <ele>1523.965623</ele>
        <time>2022-02-26T05:14:00.570Z</time>
      </trkpt>
      <trkpt lat="38.64028" lon="35.7608">
        <ele>1523.038402</ele>
        <time>2022-02-26T05:14:23.486Z</time>
      </trkpt>
      <trkpt lat="38.64055" lon="35.75967">
        <ele>1521.111588</ele>
        <time>2022-02-26T05:14:42.968Z</time>
      </trkpt>
      <trkpt lat="38.64083" lon="35.75897">
        <ele>1519.544986</ele>
        <time>2022-02-26T05:14:55.687Z</time>
      </trkpt>
      <trkpt lat="38.64097" lon="35.75864">
        <ele>1518.632154</ele>
        <time>2022-02-26T05:15:01.654Z</time>
      </trkpt>
      <trkpt lat="38.64127" lon="35.75801">
        <ele>1516.828899</ele>
        <time>2022-02-26T05:15:13.482Z</time>
      </trkpt>
      <trkpt lat="38.64131" lon="35.75746">
        <ele>1515.465239</ele>
        <time>2022-02-26T05:15:22.378Z</time>
      </trkpt>
      <trkpt lat="38.64123" lon="35.75691">
        <ele>1514.22386</ele>
        <time>2022-02-26T05:15:31.363Z</time>
      </trkpt>
      <trkpt lat="38.64082" lon="35.75551">
        <ele>1511.240659</ele>
        <time>2022-02-26T05:15:56.112Z</time>
      </trkpt>
      <trkpt lat="38.64061" lon="35.75506">
        <ele>1510.198342</ele>
        <time>2022-02-26T05:16:04.963Z</time>
      </trkpt>
      <trkpt lat="38.64064" lon="35.75488">
        <ele>1509.960333</ele>
        <time>2022-02-26T05:16:08.120Z</time>
      </trkpt>
      <trkpt lat="38.64095" lon="35.75442">
        <ele>1509.188528</ele>
        <time>2022-02-26T05:16:18.928Z</time>
      </trkpt>
      <trkpt lat="38.64104" lon="35.75418">
        <ele>1508.857707</ele>
        <time>2022-02-26T05:16:23.666Z</time>
      </trkpt>
      <trkpt lat="38.64104" lon="35.75405">
        <ele>1508.690468</ele>
        <time>2022-02-26T05:16:26.071Z</time>
      </trkpt>
      <trkpt lat="38.64079" lon="35.75331">
        <ele>1507.684585</ele>
        <time>2022-02-26T05:16:40.719Z</time>
      </trkpt>
      <trkpt lat="38.64082" lon="35.75258">
        <ele>1506.809739</ele>
        <time>2022-02-26T05:16:54.193Z</time>
      </trkpt>
      <trkpt lat="38.64084" lon="35.75237">
        <ele>1506.55828</ele>
        <time>2022-02-26T05:16:58.187Z</time>
      </trkpt>
      <trkpt lat="38.64097" lon="35.75077">
        <ele>1504.670501</ele>
        <time>2022-02-26T05:17:27.235Z</time>
      </trkpt>
      <trkpt lat="38.64107" lon="35.74925">
        <ele>1502.407663</ele>
        <time>2022-02-26T05:17:53.413Z</time>
      </trkpt>
      <trkpt lat="38.64132" lon="35.74779">
        <ele>1500.478073</ele>
        <time>2022-02-26T05:18:19.310Z</time>
      </trkpt>
      <trkpt lat="38.64173" lon="35.74623">
        <ele>1498.820921</ele>
        <time>2022-02-26T05:18:49.730Z</time>
      </trkpt>
      <trkpt lat="38.6427" lon="35.74341">
        <ele>1498.28724</ele>
        <time>2022-02-26T05:19:54.489Z</time>
      </trkpt>
      <trkpt lat="38.64301" lon="35.74204">
        <ele>1498.382152</ele>
        <time>2022-02-26T05:20:26.919Z</time>
      </trkpt>
      <trkpt lat="38.64326" lon="35.74139">
        <ele>1498.37811</ele>
        <time>2022-02-26T05:20:43.049Z</time>
      </trkpt>
      <trkpt lat="38.64363" lon="35.74086">
        <ele>1498.365404</ele>
        <time>2022-02-26T05:20:58.893Z</time>
      </trkpt>
      <trkpt lat="38.64522" lon="35.73927">
        <ele>1498.086848</ele>
        <time>2022-02-26T05:21:52.885Z</time>
      </trkpt>
      <trkpt lat="38.64576" lon="35.73846">
        <ele>1497.879881</ele>
        <time>2022-02-26T05:22:15.302Z</time>
      </trkpt>
      <trkpt lat="38.64656" lon="35.73764">
        <ele>1497.557449</ele>
        <time>2022-02-26T05:22:42.632Z</time>
      </trkpt>
      <trkpt lat="38.6474" lon="35.73715">
        <ele>1497.061408</ele>
        <time>2022-02-26T05:23:06.714Z</time>
      </trkpt>
      <trkpt lat="38.64938" lon="35.73637">
        <ele>1495.329679</ele>
        <time>2022-02-26T05:23:57.379Z</time>
      </trkpt>
      <trkpt lat="38.65175" lon="35.73496">
        <ele>1492.422744</ele>
        <time>2022-02-26T05:25:00.546Z</time>
      </trkpt>
      <trkpt lat="38.6531" lon="35.73437">
        <ele>1489.941763</ele>
        <time>2022-02-26T05:25:32.401Z</time>
      </trkpt>
      <trkpt lat="38.65427" lon="35.73374">
        <ele>1487.843152</ele>
        <time>2022-02-26T05:26:00.609Z</time>
      </trkpt>
      <trkpt lat="38.65465" lon="35.73349">
        <ele>1487.241339</ele>
        <time>2022-02-26T05:26:10.268Z</time>
      </trkpt>
      <trkpt lat="38.65606" lon="35.73222">
        <ele>1485.246405</ele>
        <time>2022-02-26T05:26:52.315Z</time>
      </trkpt>
      <trkpt lat="38.6571" lon="35.73138">
        <ele>1483.889334</ele>
        <time>2022-02-26T05:27:22.510Z</time>
      </trkpt>
      <trkpt lat="38.65906" lon="35.73004">
        <ele>1480.47921</ele>
        <time>2022-02-26T05:28:13.073Z</time>
      </trkpt>
      <trkpt lat="38.65951" lon="35.72972">
        <ele>1479.605481</ele>
        <time>2022-02-26T05:28:24.603Z</time>
      </trkpt>
      <trkpt lat="38.66013" lon="35.72937">
        <ele>1478.706836</ele>
        <time>2022-02-26T05:28:40.152Z</time>
      </trkpt>
      <trkpt lat="38.66054" lon="35.72906">
        <ele>1478.416477</ele>
        <time>2022-02-26T05:28:51.382Z</time>
      </trkpt>
      <trkpt lat="38.66213" lon="35.72702">
        <ele>1478.175814</ele>
        <time>2022-02-26T05:29:53.363Z</time>
      </trkpt>
      <trkpt lat="38.66288" lon="35.72618">
        <ele>1478.994885</ele>
        <time>2022-02-26T05:30:25.906Z</time>
      </trkpt>
      <trkpt lat="38.6631" lon="35.72586">
        <ele>1479.5403</ele>
        <time>2022-02-26T05:30:37.394Z</time>
      </trkpt>
      <trkpt lat="38.66383" lon="35.72444">
        <ele>1481.754496</ele>
        <time>2022-02-26T05:31:26.815Z</time>
      </trkpt>
      <trkpt lat="38.66427" lon="35.72387">
        <ele>1482.853644</ele>
        <time>2022-02-26T05:31:49.845Z</time>
      </trkpt>
      <trkpt lat="38.66474" lon="35.72343">
        <ele>1483.894548</ele>
        <time>2022-02-26T05:32:11.085Z</time>
      </trkpt>
      <trkpt lat="38.66477" lon="35.72341">
        <ele>1483.946616</ele>
        <time>2022-02-26T05:32:12.131Z</time>
      </trkpt>
      <trkpt lat="38.66538" lon="35.72302">
        <ele>1485.10874</ele>
        <time>2022-02-26T05:32:36.359Z</time>
      </trkpt>
      <trkpt lat="38.66594" lon="35.72277">
        <ele>1486.065782</ele>
        <time>2022-02-26T05:32:56.968Z</time>
      </trkpt>
      <trkpt lat="38.66644" lon="35.7226">
        <ele>1486.908524</ele>
        <time>2022-02-26T05:33:14.804Z</time>
      </trkpt>
      <trkpt lat="38.667" lon="35.72246">
        <ele>1488.019154</ele>
        <time>2022-02-26T05:33:35.629Z</time>
      </trkpt>
      <trkpt lat="38.66738" lon="35.72236">
        <ele>1488.968776</ele>
        <time>2022-02-26T05:33:50.871Z</time>
      </trkpt>
      <trkpt lat="38.66763" lon="35.72224">
        <ele>1489.625918</ele>
        <time>2022-02-26T05:34:01.589Z</time>
      </trkpt>
      <trkpt lat="38.6682" lon="35.72195">
        <ele>1491.126035</ele>
        <time>2022-02-26T05:34:26.634Z</time>
      </trkpt>
      <trkpt lat="38.66876" lon="35.72167">
        <ele>1492.529468</ele>
        <time>2022-02-26T05:34:51.352Z</time>
      </trkpt>
      <trkpt lat="38.6696" lon="35.72125">
        <ele>1494.53435</ele>
        <time>2022-02-26T05:35:27.820Z</time>
      </trkpt>
      <trkpt lat="38.67008" lon="35.72118">
        <ele>1495.62015</ele>
        <time>2022-02-26T05:35:46.097Z</time>
      </trkpt>
      <trkpt lat="38.67103" lon="35.72138">
        <ele>1495.982033</ele>
        <time>2022-02-26T05:36:15.279Z</time>
      </trkpt>
      <trkpt lat="38.67122" lon="35.72133">
        <ele>1496.003492</ele>
        <time>2022-02-26T05:36:21.502Z</time>
      </trkpt>
      <trkpt lat="38.6714" lon="35.72122">
        <ele>1496.024923</ele>
        <time>2022-02-26T05:36:26.259Z</time>
      </trkpt>
      <trkpt lat="38.67175" lon="35.72084">
        <ele>1496.075548</ele>
        <time>2022-02-26T05:36:38.571Z</time>
      </trkpt>
      <trkpt lat="38.67183" lon="35.72066">
        <ele>1495.981495</ele>
        <time>2022-02-26T05:36:42.419Z</time>
      </trkpt>
      <trkpt lat="38.67185" lon="35.72053">
        <ele>1495.767246</ele>
        <time>2022-02-26T05:36:44.617Z</time>
      </trkpt>
      <trkpt lat="38.67187" lon="35.72046">
        <ele>1495.659609</ele>
        <time>2022-02-26T05:36:46.074Z</time>
      </trkpt>
      <trkpt lat="38.67187" lon="35.72026">
        <ele>1495.338578</ele>
        <time>2022-02-26T05:36:49.991Z</time>
      </trkpt>
      <trkpt lat="38.67184" lon="35.71992">
        <ele>1494.794804</ele>
        <time>2022-02-26T05:36:55.953Z</time>
      </trkpt>
      <trkpt lat="38.67183" lon="35.71982">
        <ele>1494.632484</ele>
        <time>2022-02-26T05:36:57.788Z</time>
      </trkpt>
      <trkpt lat="38.67173" lon="35.71936">
        <ele>1493.878485</ele>
        <time>2022-02-26T05:37:05.829Z</time>
      </trkpt>
      <trkpt lat="38.6715" lon="35.71871">
        <ele>1492.761141</ele>
        <time>2022-02-26T05:37:17.560Z</time>
      </trkpt>
      <trkpt lat="38.67144" lon="35.71843">
        <ele>1492.187862</ele>
        <time>2022-02-26T05:37:22.437Z</time>
      </trkpt>
      <trkpt lat="38.67149" lon="35.71782">
        <ele>1490.404489</ele>
        <time>2022-02-26T05:37:32.550Z</time>
      </trkpt>
      <trkpt lat="38.67171" lon="35.71739">
        <ele>1488.912634</ele>
        <time>2022-02-26T05:37:40.621Z</time>
      </trkpt>
      <trkpt lat="38.67192" lon="35.71695">
        <ele>1487.445573</ele>
        <time>2022-02-26T05:37:48.299Z</time>
      </trkpt>
      <trkpt lat="38.67208" lon="35.71668">
        <ele>1486.473421</ele>
        <time>2022-02-26T05:37:53.380Z</time>
      </trkpt>
      <trkpt lat="38.6723" lon="35.71654">
        <ele>1485.560929</ele>
        <time>2022-02-26T05:37:58.354Z</time>
      </trkpt>
      <trkpt lat="38.67245" lon="35.71625">
        <ele>1484.651741</ele>
        <time>2022-02-26T05:38:03.601Z</time>
      </trkpt>
      <trkpt lat="38.67252" lon="35.71586">
        <ele>1483.598988</ele>
        <time>2022-02-26T05:38:09.722Z</time>
      </trkpt>
      <trkpt lat="38.67258" lon="35.71565">
        <ele>1482.991687</ele>
        <time>2022-02-26T05:38:13.291Z</time>
      </trkpt>
      <trkpt lat="38.6726" lon="35.71555">
        <ele>1482.737386</ele>
        <time>2022-02-26T05:38:14.798Z</time>
      </trkpt>
      <trkpt lat="38.67274" lon="35.71539">
        <ele>1482.101552</ele>
        <time>2022-02-26T05:38:18.704Z</time>
      </trkpt>
      <trkpt lat="38.67316" lon="35.71516">
        <ele>1480.545166</ele>
        <time>2022-02-26T05:38:28.154Z</time>
      </trkpt>
      <trkpt lat="38.67336" lon="35.7149">
        <ele>1479.666298</ele>
        <time>2022-02-26T05:38:34.172Z</time>
      </trkpt>
      <trkpt lat="38.67347" lon="35.71476">
        <ele>1479.548415</ele>
        <time>2022-02-26T05:38:37.419Z</time>
      </trkpt>
      <trkpt lat="38.67386" lon="35.71427">
        <ele>1479.138137</ele>
        <time>2022-02-26T05:38:49.925Z</time>
      </trkpt>
      <trkpt lat="38.67456" lon="35.71342">
        <ele>1478.409272</ele>
        <time>2022-02-26T05:39:15.030Z</time>
      </trkpt>
      <trkpt lat="38.6746" lon="35.71337">
        <ele>1478.366629</ele>
        <time>2022-02-26T05:39:16.633Z</time>
      </trkpt>
      <trkpt lat="38.67615" lon="35.7114">
        <ele>1482.777085</ele>
        <time>2022-02-26T05:40:32.202Z</time>
      </trkpt>
      <trkpt lat="38.67725" lon="35.70979">
        <ele>1489.878071</ele>
        <time>2022-02-26T05:41:59.954Z</time>
      </trkpt>
      <trkpt lat="38.67785" lon="35.70905">
        <ele>1492.439954</ele>
        <time>2022-02-26T05:42:40.011Z</time>
      </trkpt>
      <trkpt lat="38.67809" lon="35.70875">
        <ele>1493.480168</ele>
        <time>2022-02-26T05:42:53.745Z</time>
      </trkpt>
      <trkpt lat="38.67996" lon="35.7065">
        <ele>1493.243415</ele>
        <time>2022-02-26T05:43:56.694Z</time>
      </trkpt>
      <trkpt lat="38.68075" lon="35.70535">
        <ele>1490.901291</ele>
        <time>2022-02-26T05:44:21.491Z</time>
      </trkpt>
      <trkpt lat="38.68104" lon="35.70481">
        <ele>1489.607891</ele>
        <time>2022-02-26T05:44:31.761Z</time>
      </trkpt>
      <trkpt lat="38.68153" lon="35.70336">
        <ele>1485.826857</ele>
        <time>2022-02-26T05:44:55.953Z</time>
      </trkpt>
      <trkpt lat="38.68171" lon="35.70259">
        <ele>1483.6462</ele>
        <time>2022-02-26T05:45:08.148Z</time>
      </trkpt>
      <trkpt lat="38.68181" lon="35.70199">
        <ele>1481.750078</ele>
        <time>2022-02-26T05:45:17.552Z</time>
      </trkpt>
      <trkpt lat="38.68181" lon="35.70059">
        <ele>1477.37193</ele>
        <time>2022-02-26T05:45:37.794Z</time>
      </trkpt>
      <trkpt lat="38.68179" lon="35.70008">
        <ele>1475.152686</ele>
        <time>2022-02-26T05:45:45.172Z</time>
      </trkpt>
      <trkpt lat="38.68178" lon="35.69974">
        <ele>1473.691799</ele>
        <time>2022-02-26T05:45:49.961Z</time>
      </trkpt>
      <trkpt lat="38.68173" lon="35.6984">
        <ele>1467.94125</ele>
        <time>2022-02-26T05:46:08.391Z</time>
      </trkpt>
      <trkpt lat="38.68172" lon="35.69766">
        <ele>1464.104232</ele>
        <time>2022-02-26T05:46:18.393Z</time>
      </trkpt>
      <trkpt lat="38.68162" lon="35.69669">
        <ele>1458.994012</ele>
        <time>2022-02-26T05:46:31.667Z</time>
      </trkpt>
      <trkpt lat="38.68148" lon="35.69589">
        <ele>1454.602125</ele>
        <time>2022-02-26T05:46:42.658Z</time>
      </trkpt>
      <trkpt lat="38.68127" lon="35.69511">
        <ele>1449.874495</ele>
        <time>2022-02-26T05:46:53.600Z</time>
      </trkpt>
      <trkpt lat="38.68099" lon="35.69423">
        <ele>1444.472092</ele>
        <time>2022-02-26T05:47:06.189Z</time>
      </trkpt>
      <trkpt lat="38.68085" lon="35.69389">
        <ele>1442.342832</ele>
        <time>2022-02-26T05:47:11.245Z</time>
      </trkpt>
      <trkpt lat="38.68077" lon="35.69351">
        <ele>1440.369595</ele>
        <time>2022-02-26T05:47:16.503Z</time>
      </trkpt>
      <trkpt lat="38.68078" lon="35.69313">
        <ele>1438.479671</ele>
        <time>2022-02-26T05:47:21.639Z</time>
      </trkpt>
      <trkpt lat="38.68087" lon="35.69283">
        <ele>1436.860346</ele>
        <time>2022-02-26T05:47:26.159Z</time>
      </trkpt>
      <trkpt lat="38.68103" lon="35.69258">
        <ele>1435.26959</ele>
        <time>2022-02-26T05:47:30.439Z</time>
      </trkpt>
      <trkpt lat="38.68117" lon="35.69233">
        <ele>1433.729042</ele>
        <time>2022-02-26T05:47:34.516Z</time>
      </trkpt>
      <trkpt lat="38.68211" lon="35.6923">
        <ele>1429.658017</ele>
        <time>2022-02-26T05:47:52.525Z</time>
      </trkpt>
      <trkpt lat="38.6822" lon="35.69213">
        <ele>1429.186107</ele>
        <time>2022-02-26T05:47:55.522Z</time>
      </trkpt>
      <trkpt lat="38.68227" lon="35.69152">
        <ele>1427.760348</ele>
        <time>2022-02-26T05:48:06.126Z</time>
      </trkpt>
      <trkpt lat="38.68234" lon="35.69128">
        <ele>1427.187417</ele>
        <time>2022-02-26T05:48:10.493Z</time>
      </trkpt>
      <trkpt lat="38.68258" lon="35.6908">
        <ele>1426.097698</ele>
        <time>2022-02-26T05:48:21.822Z</time>
      </trkpt>
      <trkpt lat="38.68289" lon="35.69047">
        <ele>1426.474058</ele>
        <time>2022-02-26T05:48:32.339Z</time>
      </trkpt>
      <trkpt lat="38.68316" lon="35.69016">
        <ele>1426.806899</ele>
        <time>2022-02-26T05:48:44.122Z</time>
      </trkpt>
      <trkpt lat="38.68339" lon="35.69006">
        <ele>1427.03199</ele>
        <time>2022-02-26T05:48:52.434Z</time>
      </trkpt>
      <trkpt lat="38.68396" lon="35.6895">
        <ele>1427.697627</ele>
        <time>2022-02-26T05:49:19.824Z</time>
      </trkpt>
      <trkpt lat="38.68415" lon="35.68932">
        <ele>1428.083201</ele>
        <time>2022-02-26T05:49:27.633Z</time>
      </trkpt>
      <trkpt lat="38.68424" lon="35.6892">
        <ele>1428.315819</ele>
        <time>2022-02-26T05:49:32.647Z</time>
      </trkpt>
      <trkpt lat="38.68446" lon="35.68906">
        <ele>1428.728191</ele>
        <time>2022-02-26T05:49:40.163Z</time>
      </trkpt>
      <trkpt lat="38.68545" lon="35.6883">
        <ele>1430.697312</ele>
        <time>2022-02-26T05:50:21.212Z</time>
      </trkpt>
      <trkpt lat="38.68572" lon="35.68829">
        <ele>1431.627234</ele>
        <time>2022-02-26T05:50:31.328Z</time>
      </trkpt>
      <trkpt lat="38.6861" lon="35.6882">
        <ele>1433.066945</ele>
        <time>2022-02-26T05:50:47.002Z</time>
      </trkpt>
      <trkpt lat="38.68614" lon="35.68807">
        <ele>1433.448182</ele>
        <time>2022-02-26T05:50:53.050Z</time>
      </trkpt>
      <trkpt lat="38.68643" lon="35.68766">
        <ele>1435.064908</ele>
        <time>2022-02-26T05:51:12.220Z</time>
      </trkpt>
      <trkpt lat="38.68699" lon="35.68723">
        <ele>1437.486657</ele>
        <time>2022-02-26T05:51:45.778Z</time>
      </trkpt>
      <trkpt lat="38.68779" lon="35.68673">
        <ele>1441.467601</ele>
        <time>2022-02-26T05:52:34.343Z</time>
      </trkpt>
      <trkpt lat="38.68788" lon="35.68646">
        <ele>1442.504221</ele>
        <time>2022-02-26T05:52:45.127Z</time>
      </trkpt>
      <trkpt lat="38.68798" lon="35.68636">
        <ele>1443.083543</ele>
        <time>2022-02-26T05:52:52.249Z</time>
      </trkpt>
      <trkpt lat="38.68826" lon="35.6857">
        <ele>1445.574216</ele>
        <time>2022-02-26T05:53:17.802Z</time>
      </trkpt>
      <trkpt lat="38.68848" lon="35.68549">
        <ele>1445.863827</ele>
        <time>2022-02-26T05:53:29.062Z</time>
      </trkpt>
      <trkpt lat="38.68865" lon="35.68531">
        <ele>1446.097862</ele>
        <time>2022-02-26T05:53:37.819Z</time>
      </trkpt>
      <trkpt lat="38.68877" lon="35.68508">
        <ele>1446.331055</ele>
        <time>2022-02-26T05:53:44.894Z</time>
      </trkpt>
      <trkpt lat="38.6888" lon="35.68495">
        <ele>1446.43977</ele>
        <time>2022-02-26T05:53:48.961Z</time>
      </trkpt>
      <trkpt lat="38.68884" lon="35.68473">
        <ele>1446.627665</ele>
        <time>2022-02-26T05:53:54.698Z</time>
      </trkpt>
      <trkpt lat="38.68893" lon="35.6844">
        <ele>1446.924579</ele>
        <time>2022-02-26T05:54:02.563Z</time>
      </trkpt>
      <trkpt lat="38.68933" lon="35.68379">
        <ele>1447.312543</ele>
        <time>2022-02-26T05:54:18.300Z</time>
      </trkpt>
      <trkpt lat="38.69038" lon="35.68226">
        <ele>1445.694926</ele>
        <time>2022-02-26T05:54:56.108Z</time>
      </trkpt>
      <trkpt lat="38.69067" lon="35.68183">
        <ele>1445.244252</ele>
        <time>2022-02-26T05:55:07.076Z</time>
      </trkpt>
      <trkpt lat="38.69091" lon="35.68147">
        <ele>1444.871479</ele>
        <time>2022-02-26T05:55:16.216Z</time>
      </trkpt>
      <trkpt lat="38.69155" lon="35.68051">
        <ele>1443.874719</ele>
        <time>2022-02-26T05:55:40.380Z</time>
      </trkpt>
      <trkpt lat="38.69232" lon="35.6797">
        <ele>1442.351022</ele>
        <time>2022-02-26T05:56:03.314Z</time>
      </trkpt>
      <trkpt lat="38.693" lon="35.67903">
        <ele>1440.993907</ele>
        <time>2022-02-26T05:56:36.158Z</time>
      </trkpt>
      <trkpt lat="38.69361" lon="35.67826">
        <ele>1439.749059</ele>
        <time>2022-02-26T05:57:08.860Z</time>
      </trkpt>
      <trkpt lat="38.69403" lon="35.67753">
        <ele>1438.72684</ele>
        <time>2022-02-26T05:57:36.507Z</time>
      </trkpt>
      <trkpt lat="38.69516" lon="35.67466">
        <ele>1437.239932</ele>
        <time>2022-02-26T05:59:22.059Z</time>
      </trkpt>
      <trkpt lat="38.6955" lon="35.67375">
        <ele>1437.151068</ele>
        <time>2022-02-26T05:59:57.597Z</time>
      </trkpt>
      <trkpt lat="38.69586" lon="35.67351">
        <ele>1437.10564</ele>
        <time>2022-02-26T06:00:15.639Z</time>
      </trkpt>
      <trkpt lat="38.69618" lon="35.6732">
        <ele>1437.027334</ele>
        <time>2022-02-26T06:00:33.587Z</time>
      </trkpt>
      <trkpt lat="38.69648" lon="35.67313">
        <ele>1436.954811</ele>
        <time>2022-02-26T06:00:46.623Z</time>
      </trkpt>
      <trkpt lat="38.69692" lon="35.67301">
        <ele>1436.843855</ele>
        <time>2022-02-26T06:01:06.708Z</time>
      </trkpt>
      <trkpt lat="38.69733" lon="35.6725">
        <ele>1436.705733</ele>
        <time>2022-02-26T06:01:31.022Z</time>
      </trkpt>
      <trkpt lat="38.69751" lon="35.67236">
        <ele>1436.653822</ele>
        <time>2022-02-26T06:01:39.928Z</time>
      </trkpt>
      <trkpt lat="38.69799" lon="35.67224">
        <ele>1436.462646</ele>
        <time>2022-02-26T06:02:00.326Z</time>
      </trkpt>
      <trkpt lat="38.69853" lon="35.67188">
        <ele>1436.221714</ele>
        <time>2022-02-26T06:02:26.183Z</time>
      </trkpt>
      <trkpt lat="38.69856" lon="35.67188">
        <ele>1436.209397</ele>
        <time>2022-02-26T06:02:27.390Z</time>
      </trkpt>
      <trkpt lat="38.69866" lon="35.67188">
        <ele>1436.168824</ele>
        <time>2022-02-26T06:02:32.082Z</time>
      </trkpt>
      <trkpt lat="38.69904" lon="35.67184">
        <ele>1436.018145</ele>
        <time>2022-02-26T06:02:48.445Z</time>
      </trkpt>
      <trkpt lat="38.69982" lon="35.67198">
        <ele>1435.593307</ele>
        <time>2022-02-26T06:03:22.360Z</time>
      </trkpt>
      <trkpt lat="38.70082" lon="35.67184">
        <ele>1434.991217</ele>
        <time>2022-02-26T06:04:04.881Z</time>
      </trkpt>
      <trkpt lat="38.70117" lon="35.67174">
        <ele>1434.723932</ele>
        <time>2022-02-26T06:04:19.056Z</time>
      </trkpt>
      <trkpt lat="38.70245" lon="35.671">
        <ele>1433.317234</ele>
        <time>2022-02-26T06:05:14.684Z</time>
      </trkpt>
      <trkpt lat="38.7032" lon="35.67093">
        <ele>1433.250936</ele>
        <time>2022-02-26T06:05:47.387Z</time>
      </trkpt>
      <trkpt lat="38.7033" lon="35.67092">
        <ele>1433.286251</ele>
        <time>2022-02-26T06:05:51.329Z</time>
      </trkpt>
      <trkpt lat="38.70353" lon="35.6709">
        <ele>1433.373323</ele>
        <time>2022-02-26T06:06:02.475Z</time>
      </trkpt>
      <trkpt lat="38.70362" lon="35.67091">
        <ele>1433.406142</ele>
        <time>2022-02-26T06:06:06.244Z</time>
      </trkpt>
      <trkpt lat="38.70386" lon="35.6708">
        <ele>1433.502206</ele>
        <time>2022-02-26T06:06:18.767Z</time>
      </trkpt>
      <trkpt lat="38.70403" lon="35.67068">
        <ele>1433.571823</ele>
        <time>2022-02-26T06:06:27.350Z</time>
      </trkpt>
      <trkpt lat="38.70409" lon="35.67063">
        <ele>1433.598512</ele>
        <time>2022-02-26T06:06:31.395Z</time>
      </trkpt>
      <trkpt lat="38.70518" lon="35.66971">
        <ele>1434.666338</ele>
        <time>2022-02-26T06:07:36.737Z</time>
      </trkpt>
      <trkpt lat="38.70598" lon="35.6689">
        <ele>1435.581709</ele>
        <time>2022-02-26T06:08:26.611Z</time>
      </trkpt>
      <trkpt lat="38.70623" lon="35.66871">
        <ele>1435.710403</ele>
        <time>2022-02-26T06:08:40.423Z</time>
      </trkpt>
      <trkpt lat="38.70669" lon="35.66852">
        <ele>1435.92355</ele>
        <time>2022-02-26T06:09:03.157Z</time>
      </trkpt>
      <trkpt lat="38.70682" lon="35.66842">
        <ele>1435.991419</ele>
        <time>2022-02-26T06:09:10.366Z</time>
      </trkpt>
      <trkpt lat="38.70708" lon="35.66808">
        <ele>1436.156025</ele>
        <time>2022-02-26T06:09:27.505Z</time>
      </trkpt>
      <trkpt lat="38.7073" lon="35.66793">
        <ele>1436.263753</ele>
        <time>2022-02-26T06:09:38.528Z</time>
      </trkpt>
      <trkpt lat="38.70749" lon="35.6677">
        <ele>1436.19319</ele>
        <time>2022-02-26T06:09:50.391Z</time>
      </trkpt>
      <trkpt lat="38.70773" lon="35.66707">
        <ele>1435.870208</ele>
        <time>2022-02-26T06:10:14.074Z</time>
      </trkpt>
      <trkpt lat="38.70784" lon="35.66682">
        <ele>1435.742936</ele>
        <time>2022-02-26T06:10:23.369Z</time>
      </trkpt>
      <trkpt lat="38.70789" lon="35.66671">
        <ele>1435.68262</ele>
        <time>2022-02-26T06:10:27.504Z</time>
      </trkpt>
      <trkpt lat="38.70855" lon="35.66544">
        <ele>1434.555585</ele>
        <time>2022-02-26T06:11:15.338Z</time>
      </trkpt>
      <trkpt lat="38.70927" lon="35.66312">
        <ele>1431.469138</ele>
        <time>2022-02-26T06:12:30.377Z</time>
      </trkpt>
      <trkpt lat="38.70946" lon="35.66275">
        <ele>1430.898906</ele>
        <time>2022-02-26T06:12:43.767Z</time>
      </trkpt>
      <trkpt lat="38.71025" lon="35.6617">
        <ele>1429.089732</ele>
        <time>2022-02-26T06:13:27.679Z</time>
      </trkpt>
      <trkpt lat="38.71142" lon="35.66057">
        <ele>1426.976448</ele>
        <time>2022-02-26T06:14:25.131Z</time>
      </trkpt>
      <trkpt lat="38.71202" lon="35.66013">
        <ele>1426.330711</ele>
        <time>2022-02-26T06:14:52.816Z</time>
      </trkpt>
      <trkpt lat="38.71261" lon="35.6596">
        <ele>1425.691523</ele>
        <time>2022-02-26T06:15:22.364Z</time>
      </trkpt>
      <trkpt lat="38.71332" lon="35.65915">
        <ele>1425.100434</ele>
        <time>2022-02-26T06:15:55.767Z</time>
      </trkpt>
      <trkpt lat="38.71484" lon="35.65856">
        <ele>1424.106306</ele>
        <time>2022-02-26T06:17:03.104Z</time>
      </trkpt>
      <trkpt lat="38.71576" lon="35.65802">
        <ele>1422.73326</ele>
        <time>2022-02-26T06:17:44.442Z</time>
      </trkpt>
      <trkpt lat="38.71598" lon="35.65783">
        <ele>1422.380414</ele>
        <time>2022-02-26T06:17:54.488Z</time>
      </trkpt>
      <trkpt lat="38.71586" lon="35.65757">
        <ele>1422.063784</ele>
        <time>2022-02-26T06:17:59.375Z</time>
      </trkpt>
      <trkpt lat="38.71555" lon="35.65703">
        <ele>1420.480746</ele>
        <time>2022-02-26T06:18:10.170Z</time>
      </trkpt>
      <trkpt lat="38.71518" lon="35.6565">
        <ele>1418.448743</ele>
        <time>2022-02-26T06:18:20.867Z</time>
      </trkpt>
      <trkpt lat="38.71465" lon="35.65577">
        <ele>1415.585843</ele>
        <time>2022-02-26T06:18:35.322Z</time>
      </trkpt>
      <trkpt lat="38.71446" lon="35.65538">
        <ele>1413.909584</ele>
        <time>2022-02-26T06:18:41.723Z</time>
      </trkpt>
      <trkpt lat="38.71423" lon="35.65453">
        <ele>1410.330278</ele>
        <time>2022-02-26T06:18:54.251Z</time>
      </trkpt>
      <trkpt lat="38.71416" lon="35.65409">
        <ele>1408.54471</ele>
        <time>2022-02-26T06:19:00.516Z</time>
      </trkpt>
      <trkpt lat="38.7141" lon="35.65254">
        <ele>1403.402884</ele>
        <time>2022-02-26T06:19:22.621Z</time>
      </trkpt>
      <trkpt lat="38.71424" lon="35.64869">
        <ele>1394.255959</ele>
        <time>2022-02-26T06:20:22.623Z</time>
      </trkpt>
      <trkpt lat="38.71422" lon="35.64799">
        <ele>1393.198589</ele>
        <time>2022-02-26T06:20:34.159Z</time>
      </trkpt>
      <trkpt lat="38.71404" lon="35.64662">
        <ele>1391.100648</ele>
        <time>2022-02-26T06:20:57.626Z</time>
      </trkpt>
      <trkpt lat="38.71394" lon="35.6461">
        <ele>1390.563167</ele>
        <time>2022-02-26T06:21:07.039Z</time>
      </trkpt>
      <trkpt lat="38.71392" lon="35.64599">
        <ele>1390.46441</ele>
        <time>2022-02-26T06:21:08.862Z</time>
      </trkpt>
      <trkpt lat="38.71381" lon="35.64526">
        <ele>1389.760901</ele>
        <time>2022-02-26T06:21:21.988Z</time>
      </trkpt>
      <trkpt lat="38.71385" lon="35.64482">
        <ele>1389.337017</ele>
        <time>2022-02-26T06:21:29.940Z</time>
      </trkpt>
      <trkpt lat="38.71394" lon="35.64459">
        <ele>1389.096544</ele>
        <time>2022-02-26T06:21:34.442Z</time>
      </trkpt>
      <trkpt lat="38.71485" lon="35.64348">
        <ele>1387.911719</ele>
        <time>2022-02-26T06:22:04.165Z</time>
      </trkpt>
      <trkpt lat="38.71564" lon="35.64237">
        <ele>1386.799877</ele>
        <time>2022-02-26T06:22:31.772Z</time>
      </trkpt>
      <trkpt lat="38.7174" lon="35.63963">
        <ele>1383.49157</ele>
        <time>2022-02-26T06:23:35.000Z</time>
      </trkpt>
      <trkpt lat="38.71781" lon="35.63878">
        <ele>1382.084367</ele>
        <time>2022-02-26T06:23:51.605Z</time>
      </trkpt>
      <trkpt lat="38.71792" lon="35.63833">
        <ele>1381.255545</ele>
        <time>2022-02-26T06:23:59.169Z</time>
      </trkpt>
      <trkpt lat="38.71804" lon="35.63604">
        <ele>1377.171966</ele>
        <time>2022-02-26T06:24:35.612Z</time>
      </trkpt>
      <trkpt lat="38.71791" lon="35.63345">
        <ele>1373.951763</ele>
        <time>2022-02-26T06:25:17.997Z</time>
      </trkpt>
      <trkpt lat="38.71786" lon="35.63309">
        <ele>1373.71647</ele>
        <time>2022-02-26T06:25:25.013Z</time>
      </trkpt>
      <trkpt lat="38.71775" lon="35.6327">
        <ele>1373.445244</ele>
        <time>2022-02-26T06:25:34.336Z</time>
      </trkpt>
      <trkpt lat="38.71761" lon="35.63223">
        <ele>1373.825735</ele>
        <time>2022-02-26T06:25:47.038Z</time>
      </trkpt>
      <trkpt lat="38.7175" lon="35.63179">
        <ele>1374.959621</ele>
        <time>2022-02-26T06:26:00.150Z</time>
      </trkpt>
      <trkpt lat="38.71695" lon="35.6276">
        <ele>1385.790537</ele>
        <time>2022-02-26T06:28:32.911Z</time>
      </trkpt>
      <trkpt lat="38.71725" lon="35.62394">
        <ele>1385.235394</ele>
        <time>2022-02-26T06:29:44.244Z</time>
      </trkpt>
      <trkpt lat="38.71746" lon="35.62265">
        <ele>1383.738283</ele>
        <time>2022-02-26T06:30:05.295Z</time>
      </trkpt>
      <trkpt lat="38.71775" lon="35.62157">
        <ele>1382.083389</ele>
        <time>2022-02-26T06:30:24.267Z</time>
      </trkpt>
      <trkpt lat="38.71788" lon="35.62105">
        <ele>1381.333921</ele>
        <time>2022-02-26T06:30:33.870Z</time>
      </trkpt>
      <trkpt lat="38.71792" lon="35.62053">
        <ele>1380.824294</ele>
        <time>2022-02-26T06:30:43.211Z</time>
      </trkpt>
      <trkpt lat="38.71789" lon="35.61952">
        <ele>1379.824749</ele>
        <time>2022-02-26T06:31:01.590Z</time>
      </trkpt>
      <trkpt lat="38.71784" lon="35.619">
        <ele>1379.311365</ele>
        <time>2022-02-26T06:31:10.835Z</time>
      </trkpt>
      <trkpt lat="38.7179" lon="35.618">
        <ele>1377.266479</ele>
        <time>2022-02-26T06:31:27.326Z</time>
      </trkpt>
      <trkpt lat="38.71783" lon="35.61752">
        <ele>1376.18852</ele>
        <time>2022-02-26T06:31:34.807Z</time>
      </trkpt>
      <trkpt lat="38.71746" lon="35.61603">
        <ele>1372.564645</ele>
        <time>2022-02-26T06:31:58.016Z</time>
      </trkpt>
      <trkpt lat="38.71743" lon="35.61565">
        <ele>1371.586626</ele>
        <time>2022-02-26T06:32:03.784Z</time>
      </trkpt>
      <trkpt lat="38.71754" lon="35.61431">
        <ele>1368.226385</ele>
        <time>2022-02-26T06:32:24.376Z</time>
      </trkpt>
      <trkpt lat="38.71754" lon="35.61357">
        <ele>1367.668575</ele>
        <time>2022-02-26T06:32:36.691Z</time>
      </trkpt>
      <trkpt lat="38.71749" lon="35.61321">
        <ele>1367.396679</ele>
        <time>2022-02-26T06:32:43.092Z</time>
      </trkpt>
      <trkpt lat="38.71739" lon="35.61286">
        <ele>1367.109005</ele>
        <time>2022-02-26T06:32:50.439Z</time>
      </trkpt>
      <trkpt lat="38.71701" lon="35.61169">
        <ele>1366.692227</ele>
        <time>2022-02-26T06:33:17.513Z</time>
      </trkpt>
      <trkpt lat="38.717" lon="35.61129">
        <ele>1366.857861</ele>
        <time>2022-02-26T06:33:27.193Z</time>
      </trkpt>
      <trkpt lat="38.71716" lon="35.61067">
        <ele>1367.122744</ele>
        <time>2022-02-26T06:33:42.939Z</time>
      </trkpt>
      <trkpt lat="38.71792" lon="35.60912">
        <ele>1367.021033</ele>
        <time>2022-02-26T06:34:23.651Z</time>
      </trkpt>
      <trkpt lat="38.71832" lon="35.60803">
        <ele>1366.524717</ele>
        <time>2022-02-26T06:34:45.485Z</time>
      </trkpt>
      <trkpt lat="38.71845" lon="35.60753">
        <ele>1365.516105</ele>
        <time>2022-02-26T06:34:54.167Z</time>
      </trkpt>
      <trkpt lat="38.71874" lon="35.60634">
        <ele>1362.836863</ele>
        <time>2022-02-26T06:35:13.748Z</time>
      </trkpt>
      <trkpt lat="38.71912" lon="35.60464">
        <ele>1358.020683</ele>
        <time>2022-02-26T06:35:39.913Z</time>
      </trkpt>
      <trkpt lat="38.71943" lon="35.60362">
        <ele>1354.740404</ele>
        <time>2022-02-26T06:35:55.889Z</time>
      </trkpt>
      <trkpt lat="38.71972" lon="35.60302">
        <ele>1352.853921</ele>
        <time>2022-02-26T06:36:06.485Z</time>
      </trkpt>
      <trkpt lat="38.71985" lon="35.60273">
        <ele>1351.98935</ele>
        <time>2022-02-26T06:36:11.496Z</time>
      </trkpt>
      <trkpt lat="38.71997" lon="35.6026">
        <ele>1351.464155</ele>
        <time>2022-02-26T06:36:14.523Z</time>
      </trkpt>
      <trkpt lat="38.72012" lon="35.60241">
        <ele>1350.771166</ele>
        <time>2022-02-26T06:36:18.578Z</time>
      </trkpt>
      <trkpt lat="38.72052" lon="35.60192">
        <ele>1348.896827</ele>
        <time>2022-02-26T06:36:29.484Z</time>
      </trkpt>
      <trkpt lat="38.72121" lon="35.6013">
        <ele>1346.81024</ele>
        <time>2022-02-26T06:36:46.782Z</time>
      </trkpt>
      <trkpt lat="38.72137" lon="35.60119">
        <ele>1346.368337</ele>
        <time>2022-02-26T06:36:50.584Z</time>
      </trkpt>
      <trkpt lat="38.72168" lon="35.60076">
        <ele>1345.281562</ele>
        <time>2022-02-26T06:37:00.668Z</time>
      </trkpt>
      <trkpt lat="38.72189" lon="35.60038">
        <ele>1344.414365</ele>
        <time>2022-02-26T06:37:08.453Z</time>
      </trkpt>
      <trkpt lat="38.72205" lon="35.59984">
        <ele>1343.166469</ele>
        <time>2022-02-26T06:37:18.076Z</time>
      </trkpt>
      <trkpt lat="38.72215" lon="35.59936">
        <ele>1342.063756</ele>
        <time>2022-02-26T06:37:26.430Z</time>
      </trkpt>
      <trkpt lat="38.72224" lon="35.59898">
        <ele>1341.170025</ele>
        <time>2022-02-26T06:37:33.292Z</time>
      </trkpt>
      <trkpt lat="38.72233" lon="35.5986">
        <ele>1340.308398</ele>
        <time>2022-02-26T06:37:39.719Z</time>
      </trkpt>
      <trkpt lat="38.72242" lon="35.59827">
        <ele>1339.526886</ele>
        <time>2022-02-26T06:37:45.291Z</time>
      </trkpt>
      <trkpt lat="38.72257" lon="35.59798">
        <ele>1338.423476</ele>
        <time>2022-02-26T06:37:50.657Z</time>
      </trkpt>
      <trkpt lat="38.72289" lon="35.59759">
        <ele>1336.316484</ele>
        <time>2022-02-26T06:37:59.022Z</time>
      </trkpt>
      <trkpt lat="38.7231" lon="35.59727">
        <ele>1334.748964</ele>
        <time>2022-02-26T06:38:05.294Z</time>
      </trkpt>
      <trkpt lat="38.72325" lon="35.59705">
        <ele>1333.659522</ele>
        <time>2022-02-26T06:38:09.552Z</time>
      </trkpt>
      <trkpt lat="38.72334" lon="35.59691">
        <ele>1332.989333</ele>
        <time>2022-02-26T06:38:12.218Z</time>
      </trkpt>
      <trkpt lat="38.72359" lon="35.5965">
        <ele>1331.002493</ele>
        <time>2022-02-26T06:38:20.091Z</time>
      </trkpt>
      <trkpt lat="38.72397" lon="35.59599">
        <ele>1328.060798</ele>
        <time>2022-02-26T06:38:30.279Z</time>
      </trkpt>
      <trkpt lat="38.72411" lon="35.59586">
        <ele>1327.11908</ele>
        <time>2022-02-26T06:38:33.509Z</time>
      </trkpt>
      <trkpt lat="38.72428" lon="35.5958">
        <ele>1326.175332</ele>
        <time>2022-02-26T06:38:36.650Z</time>
      </trkpt>
      <trkpt lat="38.7243" lon="35.59579">
        <ele>1326.046737</ele>
        <time>2022-02-26T06:38:37.032Z</time>
      </trkpt>
      <trkpt lat="38.72474" lon="35.59572">
        <ele>1323.613627</ele>
        <time>2022-02-26T06:38:45.024Z</time>
      </trkpt>
      <trkpt lat="38.72498" lon="35.59566">
        <ele>1322.278223</ele>
        <time>2022-02-26T06:38:49.507Z</time>
      </trkpt>
      <trkpt lat="38.72515" lon="35.59571">
        <ele>1321.345108</ele>
        <time>2022-02-26T06:38:52.864Z</time>
      </trkpt>
      <trkpt lat="38.7254" lon="35.59579">
        <ele>1319.992568</ele>
        <time>2022-02-26T06:38:57.639Z</time>
      </trkpt>
      <trkpt lat="38.72575" lon="35.59586">
        <ele>1318.152571</ele>
        <time>2022-02-26T06:39:04.375Z</time>
      </trkpt>
      <trkpt lat="38.72611" lon="35.59582">
        <ele>1316.285798</ele>
        <time>2022-02-26T06:39:11.304Z</time>
      </trkpt>
      <trkpt lat="38.72646" lon="35.5957">
        <ele>1314.410157</ele>
        <time>2022-02-26T06:39:18.129Z</time>
      </trkpt>
      <trkpt lat="38.72679" lon="35.5956">
        <ele>1312.671553</ele>
        <time>2022-02-26T06:39:24.406Z</time>
      </trkpt>
      <trkpt lat="38.72734" lon="35.59571">
        <ele>1310.027005</ele>
        <time>2022-02-26T06:39:35.025Z</time>
      </trkpt>
      <trkpt lat="38.72752" lon="35.59569">
        <ele>1309.268025</ele>
        <time>2022-02-26T06:39:38.267Z</time>
      </trkpt>
      <trkpt lat="38.72795" lon="35.59564">
        <ele>1307.36652</ele>
        <time>2022-02-26T06:39:46.485Z</time>
      </trkpt>
      <trkpt lat="38.72812" lon="35.59564">
        <ele>1306.648617</ele>
        <time>2022-02-26T06:39:49.547Z</time>
      </trkpt>
      <trkpt lat="38.72852" lon="35.59572">
        <ele>1304.896733</ele>
        <time>2022-02-26T06:39:57.646Z</time>
      </trkpt>
      <trkpt lat="38.7291" lon="35.59595">
        <ele>1303.242844</ele>
        <time>2022-02-26T06:40:11.161Z</time>
      </trkpt>
      <trkpt lat="38.72948" lon="35.59606">
        <ele>1302.797073</ele>
        <time>2022-02-26T06:40:20.436Z</time>
      </trkpt>
      <trkpt lat="38.72951" lon="35.59601">
        <ele>1302.746465</ele>
        <time>2022-02-26T06:40:21.402Z</time>
      </trkpt>
      <trkpt lat="38.7296" lon="35.59611">
        <ele>1302.612943</ele>
        <time>2022-02-26T06:40:26.243Z</time>
      </trkpt>
      <trkpt lat="38.7297" lon="35.59638">
        <ele>1302.347955</ele>
        <time>2022-02-26T06:40:31.147Z</time>
      </trkpt>
      <trkpt lat="38.72971" lon="35.59653">
        <ele>1302.214198</ele>
        <time>2022-02-26T06:40:36.212Z</time>
      </trkpt>
      <trkpt lat="38.72998" lon="35.59636">
        <ele>1301.869619</ele>
        <time>2022-02-26T06:40:43.058Z</time>
      </trkpt>
      <trkpt lat="38.73058" lon="35.59603">
        <ele>1300.726883</ele>
        <time>2022-02-26T06:40:59.186Z</time>
      </trkpt>
      <trkpt lat="38.73074" lon="35.59601">
        <ele>1300.373399</ele>
        <time>2022-02-26T06:41:05.708Z</time>
      </trkpt>
      <trkpt lat="38.73083" lon="35.59596">
        <ele>1300.155151</ele>
        <time>2022-02-26T06:41:07.910Z</time>
      </trkpt>
      <trkpt lat="38.73088" lon="35.59593">
        <ele>1300.01986</ele>
        <time>2022-02-26T06:41:09.066Z</time>
      </trkpt>
      <trkpt lat="38.731" lon="35.59579">
        <ele>1299.665305</ele>
        <time>2022-02-26T06:41:14.544Z</time>
      </trkpt>
      <trkpt lat="38.73107" lon="35.59561">
        <ele>1299.31276</ele>
        <time>2022-02-26T06:41:17.929Z</time>
      </trkpt>
      <trkpt lat="38.73125" lon="35.59559">
        <ele>1298.915966</ele>
        <time>2022-02-26T06:41:21.846Z</time>
      </trkpt>
      <trkpt lat="38.73151" lon="35.59563">
        <ele>1298.326353</ele>
        <time>2022-02-26T06:41:26.830Z</time>
      </trkpt>
      <trkpt lat="38.7323" lon="35.59567">
        <ele>1294.796398</ele>
        <time>2022-02-26T06:41:41.660Z</time>
      </trkpt>
      <trkpt lat="38.73253" lon="35.59576">
        <ele>1293.25319</ele>
        <time>2022-02-26T06:41:46.253Z</time>
      </trkpt>
      <trkpt lat="38.73264" lon="35.59585">
        <ele>1292.409167</ele>
        <time>2022-02-26T06:41:48.627Z</time>
      </trkpt>
      <trkpt lat="38.73267" lon="35.59589">
        <ele>1292.176313</ele>
        <time>2022-02-26T06:41:49.345Z</time>
      </trkpt>
      <trkpt lat="38.73298" lon="35.59591">
        <ele>1290.181501</ele>
        <time>2022-02-26T06:41:54.988Z</time>
      </trkpt>
      <trkpt lat="38.7333" lon="35.59596">
        <ele>1288.180765</ele>
        <time>2022-02-26T06:42:00.801Z</time>
      </trkpt>
      <trkpt lat="38.73365" lon="35.59607">
        <ele>1285.827946</ele>
        <time>2022-02-26T06:42:07.333Z</time>
      </trkpt>
      <trkpt lat="38.73368" lon="35.59608">
        <ele>1285.656649</ele>
        <time>2022-02-26T06:42:07.712Z</time>
      </trkpt>
      <trkpt lat="38.73377" lon="35.59636">
        <ele>1283.900598</ele>
        <time>2022-02-26T06:42:12.288Z</time>
      </trkpt>
      <trkpt lat="38.73407" lon="35.59646">
        <ele>1281.69893</ele>
        <time>2022-02-26T06:42:17.869Z</time>
      </trkpt>
      <trkpt lat="38.73429" lon="35.59667">
        <ele>1279.726523</ele>
        <time>2022-02-26T06:42:22.614Z</time>
      </trkpt>
      <trkpt lat="38.73433" lon="35.59658">
        <ele>1279.166007</ele>
        <time>2022-02-26T06:42:24.300Z</time>
      </trkpt>
      <trkpt lat="38.73433" lon="35.59639">
        <ele>1278.072072</ele>
        <time>2022-02-26T06:42:26.989Z</time>
      </trkpt>
      <trkpt lat="38.73412" lon="35.59591">
        <ele>1274.988058</ele>
        <time>2022-02-26T06:42:34.516Z</time>
      </trkpt>
      <trkpt lat="38.73389" lon="35.59562">
        <ele>1272.53556</ele>
        <time>2022-02-26T06:42:40.471Z</time>
      </trkpt>
      <trkpt lat="38.73377" lon="35.59547">
        <ele>1271.084395</ele>
        <time>2022-02-26T06:42:43.737Z</time>
      </trkpt>
      <trkpt lat="38.73364" lon="35.5953">
        <ele>1269.402001</ele>
        <time>2022-02-26T06:42:47.048Z</time>
      </trkpt>
      <trkpt lat="38.73335" lon="35.59504">
        <ele>1266.265035</ele>
        <time>2022-02-26T06:42:53.447Z</time>
      </trkpt>
      <trkpt lat="38.73305" lon="35.59488">
        <ele>1263.424471</ele>
        <time>2022-02-26T06:42:59.100Z</time>
      </trkpt>
      <trkpt lat="38.73284" lon="35.59482">
        <ele>1261.530025</ele>
        <time>2022-02-26T06:43:02.785Z</time>
      </trkpt>
      <trkpt lat="38.7334" lon="35.59482">
        <ele>1256.229958</ele>
        <time>2022-02-26T06:43:12.103Z</time>
      </trkpt>
      <trkpt lat="38.73411" lon="35.59473">
        <ele>1246.706509</ele>
        <time>2022-02-26T06:43:23.866Z</time>
      </trkpt>
      <trkpt lat="38.73396" lon="35.59464">
        <ele>1244.524194</ele>
        <time>2022-02-26T06:43:26.530Z</time>
      </trkpt>
      <trkpt lat="38.73371" lon="35.59436">
        <ele>1240.06915</ele>
        <time>2022-02-26T06:43:31.971Z</time>
      </trkpt>
      <trkpt lat="38.73343" lon="35.59407">
        <ele>1235.30078</ele>
        <time>2022-02-26T06:43:37.816Z</time>
      </trkpt>
      <trkpt lat="38.73338" lon="35.59403">
        <ele>1234.412525</ele>
        <time>2022-02-26T06:43:38.908Z</time>
      </trkpt>
      <trkpt lat="38.73311" lon="35.59382">
        <ele>1231.301865</ele>
        <time>2022-02-26T06:43:44.023Z</time>
      </trkpt>
      <trkpt lat="38.73291" lon="35.59361">
        <ele>1228.959165</ele>
        <time>2022-02-26T06:43:48.560Z</time>
      </trkpt>
      <trkpt lat="38.73271" lon="35.59322">
        <ele>1225.722143</ele>
        <time>2022-02-26T06:43:54.840Z</time>
      </trkpt>
      <trkpt lat="38.73267" lon="35.5931">
        <ele>1224.836471</ele>
        <time>2022-02-26T06:43:56.485Z</time>
      </trkpt>
      <trkpt lat="38.7327" lon="35.59293">
        <ele>1223.62265</ele>
        <time>2022-02-26T06:43:58.962Z</time>
      </trkpt>
      <trkpt lat="38.7327" lon="35.59277">
        <ele>1222.507815</ele>
        <time>2022-02-26T06:44:01.296Z</time>
      </trkpt>
      <trkpt lat="38.73262" lon="35.59263">
        <ele>1221.342223</ele>
        <time>2022-02-26T06:44:03.526Z</time>
      </trkpt>
      <trkpt lat="38.73155" lon="35.59202">
        <ele>1213.552765</ele>
        <time>2022-02-26T06:44:25.362Z</time>
      </trkpt>
      <trkpt lat="38.73125" lon="35.59185">
        <ele>1211.874907</ele>
        <time>2022-02-26T06:44:31.819Z</time>
      </trkpt>
      <trkpt lat="38.73125" lon="35.59112">
        <ele>1208.901633</ele>
        <time>2022-02-26T06:44:42.751Z</time>
      </trkpt>
      <trkpt lat="38.73127" lon="35.58949">
        <ele>1203.289024</ele>
        <time>2022-02-26T06:45:06.732Z</time>
      </trkpt>
      <trkpt lat="38.73128" lon="35.58891">
        <ele>1201.352994</ele>
        <time>2022-02-26T06:45:15.909Z</time>
      </trkpt>
      <trkpt lat="38.73078" lon="35.58889">
        <ele>1199.853915</ele>
        <time>2022-02-26T06:45:26.487Z</time>
      </trkpt>
      <trkpt lat="38.72975" lon="35.58885">
        <ele>1198.095891</ele>
        <time>2022-02-26T06:45:50.401Z</time>
      </trkpt>
      <trkpt lat="38.72975" lon="35.58833">
        <ele>1197.401825</ele>
        <time>2022-02-26T06:46:00.686Z</time>
      </trkpt>
      <trkpt lat="38.72815" lon="35.5883">
        <ele>1194.6049</ele>
        <time>2022-02-26T06:46:37.198Z</time>
      </trkpt>
      <trkpt lat="38.72815" lon="35.58813">
        <ele>1194.373623</ele>
        <time>2022-02-26T06:46:40.111Z</time>
      </trkpt>
      <trkpt lat="38.72814" lon="35.58777">
        <ele>1193.770293</ele>
        <time>2022-02-26T06:46:45.904Z</time>
      </trkpt>
      <trkpt lat="38.72814" lon="35.5872">
        <ele>1192.475862</ele>
        <time>2022-02-26T06:46:55.352Z</time>
      </trkpt>
      <trkpt lat="38.72813" lon="35.58666">
        <ele>1191.271619</ele>
        <time>2022-02-26T06:47:04.028Z</time>
      </trkpt>
      <trkpt lat="38.72808" lon="35.58624">
        <ele>1190.308169</ele>
        <time>2022-02-26T06:47:10.896Z</time>
      </trkpt>
      <trkpt lat="38.72806" lon="35.58606">
        <ele>1189.891491</ele>
        <time>2022-02-26T06:47:13.904Z</time>
      </trkpt>
      <trkpt lat="38.72812" lon="35.58596">
        <ele>1189.615908</ele>
        <time>2022-02-26T06:47:15.691Z</time>
      </trkpt>
      <trkpt lat="38.72877" lon="35.58488">
        <ele>1187.153379</ele>
        <time>2022-02-26T06:47:36.777Z</time>
      </trkpt>
      <trkpt lat="38.72953" lon="35.58373">
        <ele>1184.858853</ele>
        <time>2022-02-26T06:48:02.585Z</time>
      </trkpt>
      <trkpt lat="38.72972" lon="35.58345">
        <ele>1184.549607</ele>
        <time>2022-02-26T06:48:09.488Z</time>
      </trkpt>
      <trkpt lat="38.72976" lon="35.58341">
        <ele>1184.501475</ele>
        <time>2022-02-26T06:48:10.692Z</time>
      </trkpt>
      <trkpt lat="38.72981" lon="35.58328">
        <ele>1184.37781</ele>
        <time>2022-02-26T06:48:13.434Z</time>
      </trkpt>
      <trkpt lat="38.72981" lon="35.58324">
        <ele>1184.345899</ele>
        <time>2022-02-26T06:48:14.255Z</time>
      </trkpt>
      <trkpt lat="38.73036" lon="35.58231">
        <ele>1183.389056</ele>
        <time>2022-02-26T06:48:36.266Z</time>
      </trkpt>
      <trkpt lat="38.73163" lon="35.58014">
        <ele>1179.005981</ele>
        <time>2022-02-26T06:49:21.491Z</time>
      </trkpt>
      <trkpt lat="38.7318" lon="35.5803">
        <ele>1177.92758</ele>
        <time>2022-02-26T06:49:25.653Z</time>
      </trkpt>
      <trkpt lat="38.73265" lon="35.57889">
        <ele>1170.870785</ele>
        <time>2022-02-26T06:49:51.487Z</time>
      </trkpt>
      <trkpt lat="38.73346" lon="35.57747">
        <ele>1163.461607</ele>
        <time>2022-02-26T06:50:16.563Z</time>
      </trkpt>
      <trkpt lat="38.73388" lon="35.5767">
        <ele>1159.92244</ele>
        <time>2022-02-26T06:50:31.141Z</time>
      </trkpt>
      <trkpt lat="38.73408" lon="35.57647">
        <ele>1159.084997</ele>
        <time>2022-02-26T06:50:36.586Z</time>
      </trkpt>
      <trkpt lat="38.73434" lon="35.57603">
        <ele>1157.751786</ele>
        <time>2022-02-26T06:50:45.430Z</time>
      </trkpt>
      <trkpt lat="38.73425" lon="35.57576">
        <ele>1157.045539</ele>
        <time>2022-02-26T06:50:50.129Z</time>
      </trkpt>
      <trkpt lat="38.73429" lon="35.57573">
        <ele>1156.908508</ele>
        <time>2022-02-26T06:50:51.028Z</time>
      </trkpt>
      <trkpt lat="38.73432" lon="35.57564">
        <ele>1156.655586</ele>
        <time>2022-02-26T06:50:52.714Z</time>
      </trkpt>
      <trkpt lat="38.73432" lon="35.57558">
        <ele>1156.527539</ele>
        <time>2022-02-26T06:50:53.551Z</time>
      </trkpt>
      <trkpt lat="38.73431" lon="35.57553">
        <ele>1156.399231</ele>
        <time>2022-02-26T06:50:54.393Z</time>
      </trkpt>
      <trkpt lat="38.73421" lon="35.57545">
        <ele>1156.027725</ele>
        <time>2022-02-26T06:50:56.806Z</time>
      </trkpt>
      <trkpt lat="38.73416" lon="35.57545">
        <ele>1155.897591</ele>
        <time>2022-02-26T06:50:57.664Z</time>
      </trkpt>
      <trkpt lat="38.73386" lon="35.57417">
        <ele>1152.717526</ele>
        <time>2022-02-26T06:51:20.318Z</time>
      </trkpt>
      <trkpt lat="38.73394" lon="35.57416">
        <ele>1152.47482</ele>
        <time>2022-02-26T06:51:21.937Z</time>
      </trkpt>
      <trkpt lat="38.73402" lon="35.57415">
        <ele>1152.230302</ele>
        <time>2022-02-26T06:51:23.527Z</time>
      </trkpt>
      <trkpt lat="38.7342" lon="35.57414">
        <ele>1151.692644</ele>
        <time>2022-02-26T06:51:27.015Z</time>
      </trkpt>
      <trkpt lat="38.73422" lon="35.57375">
        <ele>1150.758867</ele>
        <time>2022-02-26T06:51:33.227Z</time>
      </trkpt>
      <trkpt lat="38.73424" lon="35.57304">
        <ele>1148.807193</ele>
        <time>2022-02-26T06:51:44.009Z</time>
      </trkpt>
      <trkpt lat="38.73424" lon="35.57279">
        <ele>1147.822485</ele>
        <time>2022-02-26T06:51:47.787Z</time>
      </trkpt>
      <trkpt lat="38.73423" lon="35.57231">
        <ele>1145.899625</ele>
        <time>2022-02-26T06:51:55.116Z</time>
      </trkpt>
      <trkpt lat="38.73427" lon="35.57152">
        <ele>1142.780063</ele>
        <time>2022-02-26T06:52:06.872Z</time>
      </trkpt>
      <trkpt lat="38.73427" lon="35.57115">
        <ele>1141.336468</ele>
        <time>2022-02-26T06:52:12.163Z</time>
      </trkpt>
      <trkpt lat="38.7342" lon="35.5697">
        <ele>1133.6707</ele>
        <time>2022-02-26T06:52:32.758Z</time>
      </trkpt>
      <trkpt lat="38.73415" lon="35.56921">
        <ele>1130.949779</ele>
        <time>2022-02-26T06:52:39.599Z</time>
      </trkpt>
      <trkpt lat="38.73408" lon="35.56915">
        <ele>1130.323069</ele>
        <time>2022-02-26T06:52:41.187Z</time>
      </trkpt>
      <trkpt lat="38.73401" lon="35.5691">
        <ele>1129.738903</ele>
        <time>2022-02-26T06:52:42.734Z</time>
      </trkpt>
      <trkpt lat="38.73396" lon="35.56908">
        <ele>1129.39338</ele>
        <time>2022-02-26T06:52:43.608Z</time>
      </trkpt>
      <trkpt lat="38.73393" lon="35.56906">
        <ele>1129.156469</ele>
        <time>2022-02-26T06:52:44.148Z</time>
      </trkpt>
      <trkpt lat="38.73382" lon="35.56904">
        <ele>1128.369446</ele>
        <time>2022-02-26T06:52:46.132Z</time>
      </trkpt>
      <trkpt lat="38.73382" lon="35.56896">
        <ele>1127.921007</ele>
        <time>2022-02-26T06:52:47.250Z</time>
      </trkpt>
      <trkpt lat="38.73434" lon="35.56829">
        <ele>1122.482166</ele>
        <time>2022-02-26T06:53:00.258Z</time>
      </trkpt>
      <trkpt lat="38.73447" lon="35.56803">
        <ele>1120.720662</ele>
        <time>2022-02-26T06:53:04.382Z</time>
      </trkpt>
      <trkpt lat="38.73448" lon="35.56794">
        <ele>1120.178037</ele>
        <time>2022-02-26T06:53:05.652Z</time>
      </trkpt>
      <trkpt lat="38.73457" lon="35.56754">
        <ele>1117.791852</ele>
        <time>2022-02-26T06:53:11.419Z</time>
      </trkpt>
      <trkpt lat="38.73485" lon="35.56709">
        <ele>1114.475694</ele>
        <time>2022-02-26T06:53:19.772Z</time>
      </trkpt>
      <trkpt lat="38.73487" lon="35.56695">
        <ele>1114.006503</ele>
        <time>2022-02-26T06:53:21.888Z</time>
      </trkpt>
      <trkpt lat="38.7349" lon="35.56689">
        <ele>1113.795628</ele>
        <time>2022-02-26T06:53:22.792Z</time>
      </trkpt>
      <trkpt lat="38.73492" lon="35.56683">
        <ele>1113.58612</ele>
        <time>2022-02-26T06:53:23.805Z</time>
      </trkpt>
      <trkpt lat="38.73581" lon="35.56609">
        <ele>1109.41724</ele>
        <time>2022-02-26T06:53:44.519Z</time>
      </trkpt>
      <trkpt lat="38.73705" lon="35.56536">
        <ele>1105.397089</ele>
        <time>2022-02-26T06:54:14.320Z</time>
      </trkpt>
      <trkpt lat="38.73719" lon="35.56521">
        <ele>1104.994924</ele>
        <time>2022-02-26T06:54:18.284Z</time>
      </trkpt>
      <trkpt lat="38.73732" lon="35.56507">
        <ele>1104.594042</ele>
        <time>2022-02-26T06:54:22.127Z</time>
      </trkpt>
      <trkpt lat="38.73755" lon="35.56476">
        <ele>1103.828214</ele>
        <time>2022-02-26T06:54:29.523Z</time>
      </trkpt>
      <trkpt lat="38.73781" lon="35.56446">
        <ele>1103.025511</ele>
        <time>2022-02-26T06:54:36.927Z</time>
      </trkpt>
      <trkpt lat="38.73828" lon="35.5638">
        <ele>1101.423042</ele>
        <time>2022-02-26T06:54:51.270Z</time>
      </trkpt>
      <trkpt lat="38.73836" lon="35.56365">
        <ele>1101.08591</ele>
        <time>2022-02-26T06:54:54.362Z</time>
      </trkpt>
      <trkpt lat="38.73847" lon="35.56344">
        <ele>1100.629836</ele>
        <time>2022-02-26T06:54:58.550Z</time>
      </trkpt>
      <trkpt lat="38.73862" lon="35.56327">
        <ele>1100.159337</ele>
        <time>2022-02-26T06:55:03.103Z</time>
      </trkpt>
      <trkpt lat="38.73856" lon="35.563">
        <ele>1099.667547</ele>
        <time>2022-02-26T06:55:07.667Z</time>
      </trkpt>
      <trkpt lat="38.73868" lon="35.56268">
        <ele>1099.022005</ele>
        <time>2022-02-26T06:55:14.117Z</time>
      </trkpt>
      <trkpt lat="38.73885" lon="35.56228">
        <ele>1098.611559</ele>
        <time>2022-02-26T06:55:22.426Z</time>
      </trkpt>
      <trkpt lat="38.73903" lon="35.562">
        <ele>1098.293864</ele>
        <time>2022-02-26T06:55:29.229Z</time>
      </trkpt>
      <trkpt lat="38.73924" lon="35.5618">
        <ele>1098.007919</ele>
        <time>2022-02-26T06:55:35.218Z</time>
      </trkpt>
      <trkpt lat="38.74003" lon="35.56075">
        <ele>1096.733312</ele>
        <time>2022-02-26T06:56:03.320Z</time>
      </trkpt>
      <trkpt lat="38.7401" lon="35.56063">
        <ele>1096.591967</ele>
        <time>2022-02-26T06:56:06.736Z</time>
      </trkpt>
      <trkpt lat="38.74017" lon="35.5605">
        <ele>1096.451189</ele>
        <time>2022-02-26T06:56:09.683Z</time>
      </trkpt>
      <trkpt lat="38.74062" lon="35.55959">
        <ele>1095.48011</ele>
        <time>2022-02-26T06:56:29.805Z</time>
      </trkpt>
      <trkpt lat="38.74073" lon="35.55923">
        <ele>1095.126219</ele>
        <time>2022-02-26T06:56:36.801Z</time>
      </trkpt>
      <trkpt lat="38.74087" lon="35.55783">
        <ele>1093.266695</ele>
        <time>2022-02-26T06:57:01.437Z</time>
      </trkpt>
      <trkpt lat="38.74083" lon="35.55692">
        <ele>1091.990511</ele>
        <time>2022-02-26T06:57:17.251Z</time>
      </trkpt>
      <trkpt lat="38.74091" lon="35.55662">
        <ele>1091.568488</ele>
        <time>2022-02-26T06:57:22.845Z</time>
      </trkpt>
      <trkpt lat="38.74104" lon="35.55644">
        <ele>1091.295184</ele>
        <time>2022-02-26T06:57:27.188Z</time>
      </trkpt>
      <trkpt lat="38.74109" lon="35.5564">
        <ele>1091.204523</ele>
        <time>2022-02-26T06:57:28.563Z</time>
      </trkpt>
      <trkpt lat="38.74105" lon="35.55639">
        <ele>1091.148708</ele>
        <time>2022-02-26T06:57:29.423Z</time>
      </trkpt>
      <trkpt lat="38.74101" lon="35.55638">
        <ele>1091.091223</ele>
        <time>2022-02-26T06:57:30.347Z</time>
      </trkpt>
      <trkpt lat="38.74092" lon="35.55631">
        <ele>1090.93977</ele>
        <time>2022-02-26T06:57:32.734Z</time>
      </trkpt>
      <trkpt lat="38.7411" lon="35.55592">
        <ele>1090.424155</ele>
        <time>2022-02-26T06:57:40.923Z</time>
      </trkpt>
      <trkpt lat="38.74115" lon="35.55559">
        <ele>1090.044498</ele>
        <time>2022-02-26T06:57:46.920Z</time>
      </trkpt>
      <trkpt lat="38.74109" lon="35.55526">
        <ele>1089.654386</ele>
        <time>2022-02-26T06:57:53.252Z</time>
      </trkpt>
      <trkpt lat="38.74093" lon="35.55493">
        <ele>1089.216997</ele>
        <time>2022-02-26T06:58:00.292Z</time>
      </trkpt>
      <trkpt lat="38.74092" lon="35.55479">
        <ele>1089.055759</ele>
        <time>2022-02-26T06:58:03.009Z</time>
      </trkpt>
      <trkpt lat="38.74094" lon="35.55443">
        <ele>1088.780614</ele>
        <time>2022-02-26T06:58:09.623Z</time>
      </trkpt>
      <trkpt lat="38.74106" lon="35.55389">
        <ele>1088.352544</ele>
        <time>2022-02-26T06:58:20.413Z</time>
      </trkpt>
      <trkpt lat="38.74111" lon="35.55368">
        <ele>1088.181274</ele>
        <time>2022-02-26T06:58:24.373Z</time>
      </trkpt>
      <trkpt lat="38.74102" lon="35.55347">
        <ele>1087.998449</ele>
        <time>2022-02-26T06:58:29.445Z</time>
      </trkpt>
      <trkpt lat="38.74108" lon="35.55337">
        <ele>1087.895572</ele>
        <time>2022-02-26T06:58:31.811Z</time>
      </trkpt>
      <trkpt lat="38.74137" lon="35.55287">
        <ele>1087.419891</ele>
        <time>2022-02-26T06:58:43.482Z</time>
      </trkpt>
      <trkpt lat="38.7416" lon="35.55243">
        <ele>1087.031669</ele>
        <time>2022-02-26T06:58:53.888Z</time>
      </trkpt>
      <trkpt lat="38.74178" lon="35.55178">
        <ele>1086.536293</ele>
        <time>2022-02-26T06:59:07.649Z</time>
      </trkpt>
      <trkpt lat="38.74181" lon="35.5517">
        <ele>1086.470885</ele>
        <time>2022-02-26T06:59:09.255Z</time>
      </trkpt>
      <trkpt lat="38.74183" lon="35.55135">
        <ele>1086.223933</ele>
        <time>2022-02-26T06:59:15.913Z</time>
      </trkpt>
      <trkpt lat="38.74201" lon="35.55048">
        <ele>1085.543109</ele>
        <time>2022-02-26T06:59:32.591Z</time>
      </trkpt>
      <trkpt lat="38.74211" lon="35.55011">
        <ele>1085.080456</ele>
        <time>2022-02-26T06:59:39.936Z</time>
      </trkpt>
      <trkpt lat="38.7423" lon="35.54946">
        <ele>1084.28541</ele>
        <time>2022-02-26T06:59:52.600Z</time>
      </trkpt>
      <trkpt lat="38.74258" lon="35.54857">
        <ele>1083.180546</ele>
        <time>2022-02-26T07:00:09.952Z</time>
      </trkpt>
      <trkpt lat="38.7427" lon="35.54822">
        <ele>1082.797285</ele>
        <time>2022-02-26T07:00:16.297Z</time>
      </trkpt>
      <trkpt lat="38.74304" lon="35.54756">
        <ele>1082.09851</ele>
        <time>2022-02-26T07:00:29.664Z</time>
      </trkpt>
      <trkpt lat="38.74334" lon="35.54697">
        <ele>1081.479584</ele>
        <time>2022-02-26T07:00:42.368Z</time>
      </trkpt>
      <trkpt lat="38.74375" lon="35.54625">
        <ele>1081.095103</ele>
        <time>2022-02-26T07:01:03.568Z</time>
      </trkpt>
      <trkpt lat="38.74367" lon="35.54612">
        <ele>1081.187765</ele>
        <time>2022-02-26T07:01:09.041Z</time>
      </trkpt>
      <trkpt lat="38.74321" lon="35.54559">
        <ele>1081.615543</ele>
        <time>2022-02-26T07:01:27.842Z</time>
      </trkpt>
      <trkpt lat="38.74301" lon="35.54541">
        <ele>1081.782447</ele>
        <time>2022-02-26T07:01:36.135Z</time>
      </trkpt>
      <trkpt lat="38.74297" lon="35.54538">
        <ele>1081.816745</ele>
        <time>2022-02-26T07:01:37.382Z</time>
      </trkpt>
      <trkpt lat="38.74249" lon="35.54495">
        <ele>1082.119294</ele>
        <time>2022-02-26T07:01:57.688Z</time>
      </trkpt>
      <trkpt lat="38.74224" lon="35.54474">
        <ele>1081.712013</ele>
        <time>2022-02-26T07:02:05.657Z</time>
      </trkpt>
      <trkpt lat="38.74161" lon="35.54419">
        <ele>1080.670838</ele>
        <time>2022-02-26T07:02:23.309Z</time>
      </trkpt>
      <trkpt lat="38.7414" lon="35.54302">
        <ele>1079.300781</ele>
        <time>2022-02-26T07:02:43.125Z</time>
      </trkpt>
      <trkpt lat="38.74149" lon="35.54298">
        <ele>1079.135511</ele>
        <time>2022-02-26T07:02:45.125Z</time>
      </trkpt>
      <trkpt lat="38.74178" lon="35.54271">
        <ele>1078.52238</ele>
        <time>2022-02-26T07:02:52.730Z</time>
      </trkpt>
      <trkpt lat="38.74191" lon="35.54251">
        <ele>1078.165816</ele>
        <time>2022-02-26T07:02:57.228Z</time>
      </trkpt>
      <trkpt lat="38.74194" lon="35.54245">
        <ele>1078.085896</ele>
        <time>2022-02-26T07:02:58.188Z</time>
      </trkpt>
      <trkpt lat="38.74196" lon="35.5424">
        <ele>1078.005226</ele>
        <time>2022-02-26T07:02:59.140Z</time>
      </trkpt>
      <trkpt lat="38.74213" lon="35.54207">
        <ele>1077.479182</ele>
        <time>2022-02-26T07:03:05.888Z</time>
      </trkpt>
      <trkpt lat="38.74226" lon="35.54197">
        <ele>1077.218695</ele>
        <time>2022-02-26T07:03:09.179Z</time>
      </trkpt>
      <trkpt lat="38.7423" lon="35.54196">
        <ele>1077.149948</ele>
        <time>2022-02-26T07:03:10.273Z</time>
      </trkpt>
      <trkpt lat="38.74235" lon="35.54195">
        <ele>1077.057148</ele>
        <time>2022-02-26T07:03:11.718Z</time>
      </trkpt>
      <trkpt lat="38.74241" lon="35.54194">
        <ele>1076.963818</ele>
        <time>2022-02-26T07:03:12.832Z</time>
      </trkpt>
      <trkpt lat="38.74246" lon="35.54191">
        <ele>1076.869753</ele>
        <time>2022-02-26T07:03:13.990Z</time>
      </trkpt>
      <trkpt lat="38.74248" lon="35.54189">
        <ele>1076.811303</ele>
        <time>2022-02-26T07:03:14.764Z</time>
      </trkpt>
      <trkpt lat="38.74256" lon="35.5418">
        <ele>1076.644191</ele>
        <time>2022-02-26T07:03:17.031Z</time>
      </trkpt>
      <trkpt lat="38.74257" lon="35.54176">
        <ele>1076.626927</ele>
        <time>2022-02-26T07:03:18.112Z</time>
      </trkpt>
      <trkpt lat="38.7426" lon="35.5417">
        <ele>1076.598843</ele>
        <time>2022-02-26T07:03:19.821Z</time>
      </trkpt>
      <trkpt lat="38.74261" lon="35.54163">
        <ele>1076.570449</ele>
        <time>2022-02-26T07:03:21.247Z</time>
      </trkpt>
      <trkpt lat="38.74262" lon="35.54156">
        <ele>1076.542471</ele>
        <time>2022-02-26T07:03:22.485Z</time>
      </trkpt>
      <trkpt lat="38.74263" lon="35.54148">
        <ele>1076.508079</ele>
        <time>2022-02-26T07:03:24.091Z</time>
      </trkpt>
      <trkpt lat="38.74273" lon="35.54122">
        <ele>1076.394207</ele>
        <time>2022-02-26T07:03:30.167Z</time>
      </trkpt>
      <trkpt lat="38.74278" lon="35.54113">
        <ele>1076.349266</ele>
        <time>2022-02-26T07:03:32.111Z</time>
      </trkpt>
      <trkpt lat="38.74284" lon="35.541">
        <ele>1076.28836</ele>
        <time>2022-02-26T07:03:34.792Z</time>
      </trkpt>
      <trkpt lat="38.74301" lon="35.54072">
        <ele>1076.141282</ele>
        <time>2022-02-26T07:03:42.379Z</time>
      </trkpt>
      <trkpt lat="38.7432" lon="35.54053">
        <ele>1076.021149</ele>
        <time>2022-02-26T07:03:48.717Z</time>
      </trkpt>
      <trkpt lat="38.74327" lon="35.54048">
        <ele>1075.977295</ele>
        <time>2022-02-26T07:03:50.657Z</time>
      </trkpt>
      <trkpt lat="38.74324" lon="35.54028">
        <ele>1075.890769</ele>
        <time>2022-02-26T07:03:54.723Z</time>
      </trkpt>
      <trkpt lat="38.74322" lon="35.54001">
        <ele>1075.78236</ele>
        <time>2022-02-26T07:04:00.184Z</time>
      </trkpt>
      <trkpt lat="38.7432" lon="35.5396">
        <ele>1075.659978</ele>
        <time>2022-02-26T07:04:08.062Z</time>
      </trkpt>
      <trkpt lat="38.74322" lon="35.53959">
        <ele>1075.654865</ele>
        <time>2022-02-26T07:04:08.418Z</time>
      </trkpt>
      <trkpt lat="38.74323" lon="35.53953">
        <ele>1075.64045</ele>
        <time>2022-02-26T07:04:09.516Z</time>
      </trkpt>
      <trkpt lat="38.74313" lon="35.53901">
        <ele>1075.51544</ele>
        <time>2022-02-26T07:04:20.017Z</time>
      </trkpt>
      <trkpt lat="38.74298" lon="35.53823">
        <ele>1075.329763</ele>
        <time>2022-02-26T07:04:37.137Z</time>
      </trkpt>
      <trkpt lat="38.74293" lon="35.53801">
        <ele>1075.277053</ele>
        <time>2022-02-26T07:04:42.253Z</time>
      </trkpt>
      <trkpt lat="38.74283" lon="35.53661">
        <ele>1075.774444</ele>
        <time>2022-02-26T07:05:13.606Z</time>
      </trkpt>
      <trkpt lat="38.74282" lon="35.5366">
        <ele>1075.788833</ele>
        <time>2022-02-26T07:05:14.104Z</time>
      </trkpt>
      <trkpt lat="38.74321" lon="35.53635">
        <ele>1076.120998</ele>
        <time>2022-02-26T07:05:27.584Z</time>
      </trkpt>
      <trkpt lat="38.74318" lon="35.53626">
        <ele>1076.176791</ele>
        <time>2022-02-26T07:05:29.946Z</time>
      </trkpt>
      <trkpt lat="38.74316" lon="35.53613">
        <ele>1076.255732</ele>
        <time>2022-02-26T07:05:33.401Z</time>
      </trkpt>
      <trkpt lat="38.74315" lon="35.53604">
        <ele>1076.30873</ele>
        <time>2022-02-26T07:05:35.806Z</time>
      </trkpt>
      <trkpt lat="38.74314" lon="35.53592">
        <ele>1076.380905</ele>
        <time>2022-02-26T07:05:39.085Z</time>
      </trkpt>
      <trkpt lat="38.74311" lon="35.53571">
        <ele>1076.506069</ele>
        <time>2022-02-26T07:05:44.955Z</time>
      </trkpt>
      <trkpt lat="38.74309" lon="35.53556">
        <ele>1076.690625</ele>
        <time>2022-02-26T07:05:49.254Z</time>
      </trkpt>
      <trkpt lat="38.74308" lon="35.5355">
        <ele>1076.803185</ele>
        <time>2022-02-26T07:05:50.932Z</time>
      </trkpt>
      <trkpt lat="38.74305" lon="35.5353">
        <ele>1077.180795</ele>
        <time>2022-02-26T07:05:56.763Z</time>
      </trkpt>
      <trkpt lat="38.74293" lon="35.53479">
        <ele>1078.1659</ele>
        <time>2022-02-26T07:06:12.710Z</time>
      </trkpt>
      <trkpt lat="38.74267" lon="35.53381">
        <ele>1080.075191</ele>
        <time>2022-02-26T07:06:45.480Z</time>
      </trkpt>
      <trkpt lat="38.74307" lon="35.53358">
        <ele>1081.095404</ele>
        <time>2022-02-26T07:07:03.405Z</time>
      </trkpt>
      <trkpt lat="38.74285" lon="35.53278">
        <ele>1082.585086</ele>
        <time>2022-02-26T07:07:31.483Z</time>
      </trkpt>
      <trkpt lat="38.74326" lon="35.53248">
        <ele>1083.647631</ele>
        <time>2022-02-26T07:07:49.435Z</time>
      </trkpt>
      <trkpt lat="38.74299" lon="35.53153">
        <ele>1085.002104</ele>
        <time>2022-02-26T07:08:17.037Z</time>
      </trkpt>
      <trkpt lat="38.74274" lon="35.53143">
        <ele>1085.155625</ele>
        <time>2022-02-26T07:08:25.582Z</time>
      </trkpt>
      <trkpt lat="38.74362" lon="35.53042">
        <ele>1085.835593</ele>
        <time>2022-02-26T07:09:01.588Z</time>
      </trkpt>
      <trkpt lat="38.74439" lon="35.52958">
        <ele>1085.025106</ele>
        <time>2022-02-26T07:09:26.722Z</time>
      </trkpt>
      <trkpt lat="38.74416" lon="35.52894">
        <ele>1084.50198</ele>
        <time>2022-02-26T07:09:40.098Z</time>
      </trkpt>
      <trkpt lat="38.74429" lon="35.52877">
        <ele>1084.330375</ele>
        <time>2022-02-26T07:09:44.125Z</time>
      </trkpt>
      <trkpt lat="38.74447" lon="35.52854">
        <ele>1083.893671</ele>
        <time>2022-02-26T07:09:49.625Z</time>
      </trkpt>
      <trkpt lat="38.74465" lon="35.52832">
        <ele>1083.169007</ele>
        <time>2022-02-26T07:09:54.974Z</time>
      </trkpt>
      <trkpt lat="38.74467" lon="35.52835">
        <ele>1083.089268</ele>
        <time>2022-02-26T07:09:55.573Z</time>
      </trkpt>
      <trkpt lat="38.74477" lon="35.52838">
        <ele>1082.780723</ele>
        <time>2022-02-26T07:09:57.796Z</time>
      </trkpt>
      <trkpt lat="38.74483" lon="35.52826">
        <ele>1082.47176</ele>
        <time>2022-02-26T07:09:59.989Z</time>
      </trkpt>
      <trkpt lat="38.74482" lon="35.52823">
        <ele>1082.39133</ele>
        <time>2022-02-26T07:10:00.576Z</time>
      </trkpt>
      <trkpt lat="38.7449" lon="35.52819">
        <ele>1082.142791</ele>
        <time>2022-02-26T07:10:02.340Z</time>
      </trkpt>
      <trkpt lat="38.74437" lon="35.52642">
        <ele>1077.342254</ele>
        <time>2022-02-26T07:10:32.315Z</time>
      </trkpt>
      <trkpt lat="38.74421" lon="35.52589">
        <ele>1075.424478</ele>
        <time>2022-02-26T07:10:40.840Z</time>
      </trkpt>
      <trkpt lat="38.7439" lon="35.52492">
        <ele>1071.863353</ele>
        <time>2022-02-26T07:10:56.485Z</time>
      </trkpt>
      <trkpt lat="38.74353" lon="35.52371">
        <ele>1068.564372</ele>
        <time>2022-02-26T07:11:16.325Z</time>
      </trkpt>
      <trkpt lat="38.74329" lon="35.52291">
        <ele>1066.512242</ele>
        <time>2022-02-26T07:11:30.718Z</time>
      </trkpt>
      <trkpt lat="38.74303" lon="35.52205">
        <ele>1065.058131</ele>
        <time>2022-02-26T07:11:47.586Z</time>
      </trkpt>
      <trkpt lat="38.74289" lon="35.52178">
        <ele>1064.704769</ele>
        <time>2022-02-26T07:11:53.634Z</time>
      </trkpt>
      <trkpt lat="38.74255" lon="35.52066">
        <ele>1063.381294</ele>
        <time>2022-02-26T07:12:14.622Z</time>
      </trkpt>
      <trkpt lat="38.74241" lon="35.52019">
        <ele>1062.715284</ele>
        <time>2022-02-26T07:12:23.259Z</time>
      </trkpt>
      <trkpt lat="38.74225" lon="35.51966">
        <ele>1061.886442</ele>
        <time>2022-02-26T07:12:32.603Z</time>
      </trkpt>
      <trkpt lat="38.74224" lon="35.51961">
        <ele>1061.806626</ele>
        <time>2022-02-26T07:12:33.471Z</time>
      </trkpt>
      <trkpt lat="38.7421" lon="35.51918">
        <ele>1061.127183</ele>
        <time>2022-02-26T07:12:41.094Z</time>
      </trkpt>
      <trkpt lat="38.74207" lon="35.51916">
        <ele>1061.052856</ele>
        <time>2022-02-26T07:12:41.930Z</time>
      </trkpt>
      <trkpt lat="38.74191" lon="35.51915">
        <ele>1060.761548</ele>
        <time>2022-02-26T07:12:45.261Z</time>
      </trkpt>
      <trkpt lat="38.7418" lon="35.51928">
        <ele>1060.472557</ele>
        <time>2022-02-26T07:12:48.362Z</time>
      </trkpt>
      <trkpt lat="38.74179" lon="35.51933">
        <ele>1060.39815</ele>
        <time>2022-02-26T07:12:49.171Z</time>
      </trkpt>
      <trkpt lat="38.74177" lon="35.5194">
        <ele>1060.28081</ele>
        <time>2022-02-26T07:12:50.515Z</time>
      </trkpt>
      <trkpt lat="38.74166" lon="35.51961">
        <ele>1059.92637</ele>
        <time>2022-02-26T07:12:54.452Z</time>
      </trkpt>
      <trkpt lat="38.74148" lon="35.51977">
        <ele>1059.637743</ele>
        <time>2022-02-26T07:12:59.149Z</time>
      </trkpt>
      <trkpt lat="38.74139" lon="35.51981">
        <ele>1059.537999</ele>
        <time>2022-02-26T07:13:01.266Z</time>
      </trkpt>
      <trkpt lat="38.74103" lon="35.51996">
        <ele>1059.156528</ele>
        <time>2022-02-26T07:13:09.654Z</time>
      </trkpt>
      <trkpt lat="38.74034" lon="35.51772">
        <ele>1057.995974</ele>
        <time>2022-02-26T07:13:57.394Z</time>
      </trkpt>
      <trkpt lat="38.73975" lon="35.51581">
        <ele>1058.235674</ele>
        <time>2022-02-26T07:14:45.823Z</time>
      </trkpt>
      <trkpt lat="38.7397" lon="35.51563">
        <ele>1058.289998</ele>
        <time>2022-02-26T07:14:50.431Z</time>
      </trkpt>
      <trkpt lat="38.73944" lon="35.51476">
        <ele>1058.556476</ele>
        <time>2022-02-26T07:15:12.135Z</time>
      </trkpt>
      <trkpt lat="38.73936" lon="35.51448">
        <ele>1058.63942</ele>
        <time>2022-02-26T07:15:18.734Z</time>
      </trkpt>
      <trkpt lat="38.73929" lon="35.51422">
        <ele>1058.696244</ele>
        <time>2022-02-26T07:15:24.756Z</time>
      </trkpt>
      <trkpt lat="38.73919" lon="35.51387">
        <ele>1058.585266</ele>
        <time>2022-02-26T07:15:32.804Z</time>
      </trkpt>
      <trkpt lat="38.73906" lon="35.51345">
        <ele>1058.448011</ele>
        <time>2022-02-26T07:15:42.447Z</time>
      </trkpt>
      <trkpt lat="38.73858" lon="35.51186">
        <ele>1058.025698</ele>
        <time>2022-02-26T07:16:15.832Z</time>
      </trkpt>
      <trkpt lat="38.73856" lon="35.5118">
        <ele>1058.027969</ele>
        <time>2022-02-26T07:16:17.060Z</time>
      </trkpt>
      <trkpt lat="38.73826" lon="35.5108">
        <ele>1058.067942</ele>
        <time>2022-02-26T07:16:39.759Z</time>
      </trkpt>
      <trkpt lat="38.73818" lon="35.51055">
        <ele>1058.078048</ele>
        <time>2022-02-26T07:16:45.992Z</time>
      </trkpt>
      <trkpt lat="38.73791" lon="35.50964">
        <ele>1058.331767</ele>
        <time>2022-02-26T07:17:09.351Z</time>
      </trkpt>
      <trkpt lat="38.7378" lon="35.50928">
        <ele>1058.587998</ele>
        <time>2022-02-26T07:17:18.903Z</time>
      </trkpt>
      <trkpt lat="38.73762" lon="35.50869">
        <ele>1059.014622</ele>
        <time>2022-02-26T07:17:35.569Z</time>
      </trkpt>
      <trkpt lat="38.73689" lon="35.5063">
        <ele>1060.172127</ele>
        <time>2022-02-26T07:18:38.566Z</time>
      </trkpt>
      <trkpt lat="38.7366" lon="35.50535">
        <ele>1060.28401</ele>
        <time>2022-02-26T07:18:59.607Z</time>
      </trkpt>
      <trkpt lat="38.73637" lon="35.50445">
        <ele>1059.958998</ele>
        <time>2022-02-26T07:19:18.768Z</time>
      </trkpt>
      <trkpt lat="38.73633" lon="35.50433">
        <ele>1059.91573</ele>
        <time>2022-02-26T07:19:21.321Z</time>
      </trkpt>
      <trkpt lat="38.73614" lon="35.50376">
        <ele>1059.70701</ele>
        <time>2022-02-26T07:19:33.629Z</time>
      </trkpt>
      <trkpt lat="38.73531" lon="35.50126">
        <ele>1058.680069</ele>
        <time>2022-02-26T07:20:28.838Z</time>
      </trkpt>
      <trkpt lat="38.7347" lon="35.49943">
        <ele>1057.476425</ele>
        <time>2022-02-26T07:21:07.000Z</time>
      </trkpt>
      <trkpt lat="38.73439" lon="35.49848">
        <ele>1057.207198</ele>
        <time>2022-02-26T07:21:27.349Z</time>
      </trkpt>
      <trkpt lat="38.73308" lon="35.49455">
        <ele>1057.225847</ele>
        <time>2022-02-26T07:23:00.684Z</time>
      </trkpt>
      <trkpt lat="38.73297" lon="35.49423">
        <ele>1057.363821</ele>
        <time>2022-02-26T07:23:08.486Z</time>
      </trkpt>
      <trkpt lat="38.73286" lon="35.49384">
        <ele>1057.53384</ele>
        <time>2022-02-26T07:23:18.427Z</time>
      </trkpt>
      <trkpt lat="38.73279" lon="35.49361">
        <ele>1057.634031</ele>
        <time>2022-02-26T07:23:24.589Z</time>
      </trkpt>
      <trkpt lat="38.73232" lon="35.49203">
        <ele>1058.170662</ele>
        <time>2022-02-26T07:24:06.248Z</time>
      </trkpt>
      <trkpt lat="38.73207" lon="35.49119">
        <ele>1058.38236</ele>
        <time>2022-02-26T07:24:27.270Z</time>
      </trkpt>
      <trkpt lat="38.73107" lon="35.4879">
        <ele>1057.270596</ele>
        <time>2022-02-26T07:25:37.371Z</time>
      </trkpt>
      <trkpt lat="38.73095" lon="35.4876">
        <ele>1057.154884</ele>
        <time>2022-02-26T07:25:43.859Z</time>
      </trkpt>
      <trkpt lat="38.73096" lon="35.48759">
        <ele>1057.148069</ele>
        <time>2022-02-26T07:25:44.213Z</time>
      </trkpt>
      <trkpt lat="38.73098" lon="35.48756">
        <ele>1057.134831</ele>
        <time>2022-02-26T07:25:44.965Z</time>
      </trkpt>
      <trkpt lat="38.73099" lon="35.48752">
        <ele>1057.121626</ele>
        <time>2022-02-26T07:25:45.692Z</time>
      </trkpt>
      <trkpt lat="38.73099" lon="35.48749">
        <ele>1057.108344</ele>
        <time>2022-02-26T07:25:46.443Z</time>
      </trkpt>
      <trkpt lat="38.73093" lon="35.4874">
        <ele>1057.0695</ele>
        <time>2022-02-26T07:25:48.511Z</time>
      </trkpt>
      <trkpt lat="38.73091" lon="35.48739">
        <ele>1057.056386</ele>
        <time>2022-02-26T07:25:49.231Z</time>
      </trkpt>
      <trkpt lat="38.73088" lon="35.48739">
        <ele>1057.042947</ele>
        <time>2022-02-26T07:25:49.978Z</time>
      </trkpt>
      <trkpt lat="38.73085" lon="35.4874">
        <ele>1057.029727</ele>
        <time>2022-02-26T07:25:50.691Z</time>
      </trkpt>
      <trkpt lat="38.73082" lon="35.48742">
        <ele>1057.016664</ele>
        <time>2022-02-26T07:25:51.437Z</time>
      </trkpt>
      <trkpt lat="38.73081" lon="35.48745">
        <ele>1057.003164</ele>
        <time>2022-02-26T07:25:52.166Z</time>
      </trkpt>
      <trkpt lat="38.7308" lon="35.48749">
        <ele>1056.989752</ele>
        <time>2022-02-26T07:25:52.899Z</time>
      </trkpt>
      <trkpt lat="38.73029" lon="35.48842">
        <ele>1056.759773</ele>
        <time>2022-02-26T07:26:15.822Z</time>
      </trkpt>
      <trkpt lat="38.73014" lon="35.48824">
        <ele>1056.787697</ele>
        <time>2022-02-26T07:26:21.439Z</time>
      </trkpt>
      <trkpt lat="38.72999" lon="35.48783">
        <ele>1056.836104</ele>
        <time>2022-02-26T07:26:31.762Z</time>
      </trkpt>
      <trkpt lat="38.72978" lon="35.48726">
        <ele>1056.903562</ele>
        <time>2022-02-26T07:26:45.651Z</time>
      </trkpt>
      <trkpt lat="38.72973" lon="35.48711">
        <ele>1056.9212</ele>
        <time>2022-02-26T07:26:49.234Z</time>
      </trkpt>
      <trkpt lat="38.72947" lon="35.48637">
        <ele>1056.92571</ele>
        <time>2022-02-26T07:27:06.165Z</time>
      </trkpt>
      <trkpt lat="38.72913" lon="35.48539">
        <ele>1056.812968</ele>
        <time>2022-02-26T07:27:28.228Z</time>
      </trkpt>
      <trkpt lat="38.72887" lon="35.48466">
        <ele>1056.729663</ele>
        <time>2022-02-26T07:27:43.971Z</time>
      </trkpt>
      <trkpt lat="38.72862" lon="35.48392">
        <ele>1056.636837</ele>
        <time>2022-02-26T07:27:59.697Z</time>
      </trkpt>
      <trkpt lat="38.72857" lon="35.48379">
        <ele>1056.620962</ele>
        <time>2022-02-26T07:28:02.464Z</time>
      </trkpt>
      <trkpt lat="38.72829" lon="35.48298">
        <ele>1056.519297</ele>
        <time>2022-02-26T07:28:19.966Z</time>
      </trkpt>
      <trkpt lat="38.72756" lon="35.48334">
        <ele>1056.45962</ele>
        <time>2022-02-26T07:28:43.275Z</time>
      </trkpt>
      <trkpt lat="38.72703" lon="35.48358">
        <ele>1056.45962</ele>
        <time>2022-02-26T07:29:00.173Z</time>
      </trkpt>
      <trkpt lat="38.72616" lon="35.48398">
        <ele>1056.45962</ele>
        <time>2022-02-26T07:29:28.592Z</time>
      </trkpt>
      <trkpt lat="38.72551" lon="35.48428">
        <ele>1056.45962</ele>
        <time>2022-02-26T07:29:49.739Z</time>
      </trkpt>
      <trkpt lat="38.71573" lon="35.48437">
        <ele>1095.953276</ele>
        <time>2021-12-19T06:33:28.727Z</time>
      </trkpt>
      <trkpt lat="38.71611" lon="35.48327">
        <ele>1095.923002</ele>
        <time>2021-12-19T06:43:52.358Z</time>
      </trkpt>
      <trkpt lat="38.71574" lon="35.48011">
        <ele>1094.289988</ele>
        <time>2021-12-19T06:45:48.341Z</time>
      </trkpt>
      <trkpt lat="38.71552" lon="35.47742">
        <ele>1095.124207</ele>
        <time>2021-12-19T06:46:28.340Z</time>
      </trkpt>
      <trkpt lat="38.71489" lon="35.47463">
        <ele>1107.233978</ele>
        <time>2021-12-19T06:47:17.368Z</time>
      </trkpt>
      <trkpt lat="38.71392" lon="35.47209">
        <ele>1098.993773</ele>
        <time>2021-12-19T06:48:19.348Z</time>
      </trkpt>
      <trkpt lat="38.71408" lon="35.46933">
        <ele>1097.063663</ele>
        <time>2021-12-19T06:49:11.343Z</time>
      </trkpt>
      <trkpt lat="38.71581" lon="35.46734">
        <ele>1109.745112</ele>
        <time>2021-12-19T06:50:04.357Z</time>
      </trkpt>
      <trkpt lat="38.7177" lon="35.46533">
        <ele>1109.083676</ele>
        <time>2021-12-19T06:51:39.342Z</time>
      </trkpt>
      <trkpt lat="38.71956" lon="35.46349">
        <ele>1095.815933</ele>
        <time>2021-12-19T06:52:33.355Z</time>
      </trkpt>
      <trkpt lat="38.71978" lon="35.46133">
        <ele>1089.889569</ele>
        <time>2021-12-19T06:53:50.357Z</time>
      </trkpt>
      <trkpt lat="38.71964" lon="35.45861">
        <ele>1094.66445</ele>
        <time>2021-12-19T06:54:46.351Z</time>
      </trkpt>
      <trkpt lat="38.71964" lon="35.45542">
        <ele>1097.016984</ele>
        <time>2021-12-19T06:55:49.367Z</time>
      </trkpt>
      <trkpt lat="38.71966" lon="35.45264">
        <ele>1096.723717</ele>
        <time>2021-12-19T06:56:49.359Z</time>
      </trkpt>
      <trkpt lat="38.72169" lon="35.45146">
        <ele>1092.499377</ele>
        <time>2021-12-19T06:57:52.347Z</time>
      </trkpt>
      <trkpt lat="38.72382" lon="35.4511">
        <ele>1087.299924</ele>
        <time>2021-12-19T06:58:40.357Z</time>
      </trkpt>
      <trkpt lat="38.72505" lon="35.44898">
        <ele>1096.126648</ele>
        <time>2021-12-19T06:59:42.371Z</time>
      </trkpt>
      <trkpt lat="38.72602" lon="35.44669">
        <ele>1106.811629</ele>
        <time>2021-12-19T07:00:52.335Z</time>
      </trkpt>
      <trkpt lat="38.72731" lon="35.44421">
        <ele>1116.352652</ele>
        <time>2021-12-19T07:01:55.350Z</time>
      </trkpt>
      <trkpt lat="38.72914" lon="35.44255">
        <ele>1103.431225</ele>
        <time>2021-12-19T07:04:24.389Z</time>
      </trkpt>
      <trkpt lat="38.7301" lon="35.44024">
        <ele>1102.266843</ele>
        <time>2021-12-19T07:05:27.360Z</time>
      </trkpt>
      <trkpt lat="38.7313" lon="35.43768">
        <ele>1107.313183</ele>
        <time>2021-12-19T07:06:26.342Z</time>
      </trkpt>
      <trkpt lat="38.73228" lon="35.43542">
        <ele>1108.930663</ele>
        <time>2021-12-19T07:07:10.345Z</time>
      </trkpt>
      <trkpt lat="38.73319" lon="35.43255">
        <ele>1111.538576</ele>
        <time>2021-12-19T07:08:06.346Z</time>
      </trkpt>
      <trkpt lat="38.73324" lon="35.42962">
        <ele>1101.873862</ele>
        <time>2021-12-19T07:09:07.358Z</time>
      </trkpt>
      <trkpt lat="38.73291" lon="35.42698">
        <ele>1104.454402</ele>
        <time>2021-12-19T07:10:13.350Z</time>
      </trkpt>
      <trkpt lat="38.73356" lon="35.42442">
        <ele>1111.617308</ele>
        <time>2021-12-19T07:11:13.347Z</time>
      </trkpt>
      <trkpt lat="38.73458" lon="35.42194">
        <ele>1108.181503</ele>
        <time>2021-12-19T07:11:59.365Z</time>
      </trkpt>
      <trkpt lat="38.73559" lon="35.41956">
        <ele>1098.545634</ele>
        <time>2021-12-19T07:12:51.349Z</time>
      </trkpt>
      <trkpt lat="38.73662" lon="35.41706">
        <ele>1101.724388</ele>
        <time>2021-12-19T07:13:38.349Z</time>
      </trkpt>
      <trkpt lat="38.73763" lon="35.41478">
        <ele>1101.379348</ele>
        <time>2021-12-19T07:14:18.351Z</time>
      </trkpt>
      <trkpt lat="38.73879" lon="35.4124">
        <ele>1098.028092</ele>
        <time>2021-12-19T07:15:00.345Z</time>
      </trkpt>
      <trkpt lat="38.73996" lon="35.41015">
        <ele>1094.932605</ele>
        <time>2021-12-19T07:15:47.342Z</time>
      </trkpt>
      <trkpt lat="38.74026" lon="35.40751">
        <ele>1092.296135</ele>
        <time>2021-12-19T07:16:34.392Z</time>
      </trkpt>
      <trkpt lat="38.74057" lon="35.40462">
        <ele>1089.843656</ele>
        <time>2021-12-19T07:17:28.367Z</time>
      </trkpt>
      <trkpt lat="38.74183" lon="35.40226">
        <ele>1094.531145</ele>
        <time>2021-12-19T07:18:32.402Z</time>
      </trkpt>
      <trkpt lat="38.74257" lon="35.39987">
        <ele>1091.705902</ele>
        <time>2021-12-19T07:19:50.401Z</time>
      </trkpt>
      <trkpt lat="38.74321" lon="35.39698">
        <ele>1099.26292</ele>
        <time>2021-12-19T07:20:51.353Z</time>
      </trkpt>
      <trkpt lat="38.7439" lon="35.39424">
        <ele>1107.315809</ele>
        <time>2021-12-19T07:21:45.376Z</time>
      </trkpt>
      <trkpt lat="38.74462" lon="35.39162">
        <ele>1098.831722</ele>
        <time>2021-12-19T07:22:31.378Z</time>
      </trkpt>
      <trkpt lat="38.7432" lon="35.39031">
        <ele>1092.259745</ele>
        <time>2021-12-19T07:23:41.356Z</time>
      </trkpt>
      <trkpt lat="38.74129" lon="35.38921">
        <ele>1102.134946</ele>
        <time>2021-12-19T07:25:05.367Z</time>
      </trkpt>
      <trkpt lat="38.73948" lon="35.38859">
        <ele>1116.242566</ele>
        <time>2021-12-19T07:26:46.365Z</time>
      </trkpt>
      <trkpt lat="38.73882" lon="35.38582">
        <ele>1125.708423</ele>
        <time>2021-12-19T07:27:42.362Z</time>
      </trkpt>
      <trkpt lat="38.73818" lon="35.38325">
        <ele>1115.065234</ele>
        <time>2021-12-19T07:28:22.354Z</time>
      </trkpt>
      <trkpt lat="38.73752" lon="35.38036">
        <ele>1111.41666</ele>
        <time>2021-12-19T07:29:10.393Z</time>
      </trkpt>
      <trkpt lat="38.7382" lon="35.37711">
        <ele>1102.042392</ele>
        <time>2021-12-19T07:29:50.362Z</time>
      </trkpt>
      <trkpt lat="38.73904" lon="35.37383">
        <ele>1091.723493</ele>
        <time>2021-12-19T07:30:32.356Z</time>
      </trkpt>
      <trkpt lat="38.73996" lon="35.37153">
        <ele>1091.425247</ele>
        <time>2021-12-19T07:31:17.403Z</time>
      </trkpt>
      <trkpt lat="38.7403" lon="35.3693">
        <ele>1083.976623</ele>
        <time>2021-12-19T07:32:08.371Z</time>
      </trkpt>
      <trkpt lat="38.74" lon="35.36625">
        <ele>1076.187935</ele>
        <time>2021-12-19T07:32:48.347Z</time>
      </trkpt>
      <trkpt lat="38.73969" lon="35.36322">
        <ele>1074.289175</ele>
        <time>2021-12-19T07:33:39.370Z</time>
      </trkpt>
      <trkpt lat="38.73943" lon="35.36071">
        <ele>1073.42936</ele>
        <time>2021-12-19T07:34:21.359Z</time>
      </trkpt>
      <trkpt lat="38.73908" lon="35.35769">
        <ele>1065.689636</ele>
        <time>2021-12-19T07:42:12.389Z</time>
      </trkpt>
      <trkpt lat="38.73881" lon="35.35518">
        <ele>1055.123623</ele>
        <time>2021-12-19T07:43:16.352Z</time>
      </trkpt>
      <trkpt lat="38.73863" lon="35.35249">
        <ele>1058.664538</ele>
        <time>2021-12-19T07:44:20.353Z</time>
      </trkpt>
      <trkpt lat="38.73846" lon="35.34973">
        <ele>1063.785875</ele>
        <time>2021-12-19T07:45:20.336Z</time>
      </trkpt>
      <trkpt lat="38.74022" lon="35.34813">
        <ele>1071.781594</ele>
        <time>2021-12-19T07:46:19.399Z</time>
      </trkpt>
      <trkpt lat="38.74261" lon="35.34729">
        <ele>1067.375441</ele>
        <time>2021-12-19T07:47:22.365Z</time>
      </trkpt>
      <trkpt lat="38.74406" lon="35.34562">
        <ele>1059.506745</ele>
        <time>2021-12-19T07:48:22.363Z</time>
      </trkpt>
      <trkpt lat="38.7444" lon="35.3428">
        <ele>1058.458139</ele>
        <time>2021-12-19T07:49:25.367Z</time>
      </trkpt>
      <trkpt lat="38.74468" lon="35.34008">
        <ele>1060.587152</ele>
        <time>2021-12-19T07:50:25.361Z</time>
      </trkpt>
      <trkpt lat="38.74506" lon="35.33715">
        <ele>1063.808854</ele>
        <time>2021-12-19T07:51:28.374Z</time>
      </trkpt>
      <trkpt lat="38.74545" lon="35.33447">
        <ele>1057.863278</ele>
        <time>2021-12-19T07:52:28.368Z</time>
      </trkpt>
      <trkpt lat="38.74596" lon="35.33165">
        <ele>1054.033899</ele>
        <time>2021-12-19T07:53:31.355Z</time>
      </trkpt>
      <trkpt lat="38.74733" lon="35.33052">
        <ele>1060.326168</ele>
        <time>2021-12-19T07:54:31.367Z</time>
      </trkpt>
      <trkpt lat="38.74936" lon="35.33046">
        <ele>1059.10683</ele>
        <time>2021-12-19T07:55:34.362Z</time>
      </trkpt>
      <trkpt lat="38.75138" lon="35.33022">
        <ele>1057.945491</ele>
        <time>2021-12-19T07:56:34.375Z</time>
      </trkpt>
      <trkpt lat="38.75252" lon="35.32921">
        <ele>1056.044059</ele>
        <time>2021-12-19T07:57:54.374Z</time>
      </trkpt>
      <trkpt lat="38.75223" lon="35.3264">
        <ele>1051.377199</ele>
        <time>2021-12-19T07:58:54.346Z</time>
      </trkpt>
      <trkpt lat="38.75201" lon="35.32348">
        <ele>1048.868027</ele>
        <time>2021-12-19T07:59:57.366Z</time>
      </trkpt>
      <trkpt lat="38.75179" lon="35.32074">
        <ele>1050.042304</ele>
        <time>2021-12-19T08:00:57.354Z</time>
      </trkpt>
      <trkpt lat="38.75148" lon="35.31794">
        <ele>1049.238848</ele>
        <time>2021-12-19T08:02:12.411Z</time>
      </trkpt>
      <trkpt lat="38.75111" lon="35.31538">
        <ele>1053.224514</ele>
        <time>2021-12-19T08:03:32.367Z</time>
      </trkpt>
      <trkpt lat="38.75123" lon="35.31261">
        <ele>1062.543756</ele>
        <time>2021-12-19T08:05:01.356Z</time>
      </trkpt>
      <trkpt lat="38.7514" lon="35.31033">
        <ele>1069.062083</ele>
        <time>2021-12-19T08:05:54.372Z</time>
      </trkpt>
      <trkpt lat="38.74999" lon="35.30778">
        <ele>1072.458185</ele>
        <time>2021-12-19T08:06:50.371Z</time>
      </trkpt>
      <trkpt lat="38.74828" lon="35.30601">
        <ele>1074.193193</ele>
        <time>2021-12-19T08:07:39.372Z</time>
      </trkpt>
      <trkpt lat="38.74658" lon="35.30373">
        <ele>1077.106123</ele>
        <time>2021-12-19T08:08:42.353Z</time>
      </trkpt>
      <trkpt lat="38.74507" lon="35.30162">
        <ele>1072.296136</ele>
        <time>2021-12-19T08:09:42.380Z</time>
      </trkpt>
      <trkpt lat="38.74356" lon="35.29955">
        <ele>1070.476707</ele>
        <time>2021-12-19T08:10:45.373Z</time>
      </trkpt>
      <trkpt lat="38.74205" lon="35.29754">
        <ele>1067.785123</ele>
        <time>2021-12-19T08:11:45.369Z</time>
      </trkpt>
      <trkpt lat="38.74049" lon="35.29543">
        <ele>1071.402921</ele>
        <time>2021-12-19T08:12:48.365Z</time>
      </trkpt>
      <trkpt lat="38.73904" lon="35.29348">
        <ele>1070.532607</ele>
        <time>2021-12-19T08:13:48.407Z</time>
      </trkpt>
      <trkpt lat="38.73758" lon="35.29146">
        <ele>1076.89233</ele>
        <time>2021-12-19T08:14:52.387Z</time>
      </trkpt>
      <trkpt lat="38.73615" lon="35.2896">
        <ele>1080.433632</ele>
        <time>2021-12-19T08:15:54.412Z</time>
      </trkpt>
      <trkpt lat="38.73457" lon="35.28752">
        <ele>1078.194312</ele>
        <time>2021-12-19T08:16:57.412Z</time>
      </trkpt>
      <trkpt lat="38.73299" lon="35.28566">
        <ele>1070.516215</ele>
        <time>2021-12-19T08:17:44.392Z</time>
      </trkpt>
      <trkpt lat="38.73128" lon="35.28382">
        <ele>1064.769601</ele>
        <time>2021-12-19T08:18:30.374Z</time>
      </trkpt>
      <trkpt lat="38.72974" lon="35.28218">
        <ele>1066.314884</ele>
        <time>2021-12-19T08:19:11.389Z</time>
      </trkpt>
      <trkpt lat="38.72807" lon="35.28042">
        <ele>1067.266805</ele>
        <time>2021-12-19T08:19:57.355Z</time>
      </trkpt>
      <trkpt lat="38.72659" lon="35.27885">
        <ele>1068.011015</ele>
        <time>2021-12-19T08:20:37.373Z</time>
      </trkpt>
      <trkpt lat="38.7247" lon="35.27686">
        <ele>1068.349704</ele>
        <time>2021-12-19T08:21:33.374Z</time>
      </trkpt>
      <trkpt lat="38.72276" lon="35.27476">
        <ele>1069.274405</ele>
        <time>2021-12-19T08:22:33.386Z</time>
      </trkpt>
      <trkpt lat="38.72076" lon="35.27273">
        <ele>1069.131577</ele>
        <time>2021-12-19T08:23:32.392Z</time>
      </trkpt>
      <trkpt lat="38.71871" lon="35.27053">
        <ele>1065.334111</ele>
        <time>2021-12-19T08:24:35.382Z</time>
      </trkpt>
      <trkpt lat="38.71681" lon="35.26848">
        <ele>1066.202444</ele>
        <time>2021-12-19T08:25:34.372Z</time>
      </trkpt>
      <trkpt lat="38.715" lon="35.26669">
        <ele>1064.670716</ele>
        <time>2021-12-19T08:26:25.380Z</time>
      </trkpt>
      <trkpt lat="38.7132" lon="35.26487">
        <ele>1062.96942</ele>
        <time>2021-12-19T08:27:16.371Z</time>
      </trkpt>
      <trkpt lat="38.71107" lon="35.26271">
        <ele>1062.950532</ele>
        <time>2021-12-19T08:28:19.391Z</time>
      </trkpt>
      <trkpt lat="38.70924" lon="35.2609">
        <ele>1062.944053</ele>
        <time>2021-12-19T08:29:11.378Z</time>
      </trkpt>
      <trkpt lat="38.7073" lon="35.25904">
        <ele>1065.767167</ele>
        <time>2021-12-19T08:30:05.415Z</time>
      </trkpt>
      <trkpt lat="38.70535" lon="35.25712">
        <ele>1067.831308</ele>
        <time>2021-12-19T08:31:02.374Z</time>
      </trkpt>
      <trkpt lat="38.70333" lon="35.25513">
        <ele>1066.469122</ele>
        <time>2021-12-19T08:32:03.377Z</time>
      </trkpt>
      <trkpt lat="38.70158" lon="35.25343">
        <ele>1071.270031</ele>
        <time>2021-12-19T08:33:03.391Z</time>
      </trkpt>
      <trkpt lat="38.7006" lon="35.25178">
        <ele>1078.296765</ele>
        <time>2021-12-19T08:44:13.229Z</time>
      </trkpt>
      <trkpt lat="38.69903" lon="35.25092">
        <ele>1078.139944</ele>
        <time>2021-12-19T08:58:32.414Z</time>
      </trkpt>
      <trkpt lat="38.69734" lon="35.24906">
        <ele>1080.604066</ele>
        <time>2021-12-19T09:02:48.425Z</time>
      </trkpt>
      <trkpt lat="38.69536" lon="35.24724">
        <ele>1088.826363</ele>
        <time>2021-12-19T09:25:49.965Z</time>
      </trkpt>
      <trkpt lat="38.69359" lon="35.24556">
        <ele>1092.97721</ele>
        <time>2021-12-19T09:27:04.978Z</time>
      </trkpt>
      <trkpt lat="38.69189" lon="35.24392">
        <ele>1090.625859</ele>
        <time>2021-12-19T09:28:09.005Z</time>
      </trkpt>
      <trkpt lat="38.69011" lon="35.2422">
        <ele>1092.686755</ele>
        <time>2021-12-19T09:29:11.985Z</time>
      </trkpt>
      <trkpt lat="38.68829" lon="35.24063">
        <ele>1090.883122</ele>
        <time>2021-12-19T09:30:12.002Z</time>
      </trkpt>
      <trkpt lat="38.68637" lon="35.23899">
        <ele>1090.110249</ele>
        <time>2021-12-19T09:31:14.976Z</time>
      </trkpt>
      <trkpt lat="38.68462" lon="35.2375">
        <ele>1091.484578</ele>
        <time>2021-12-19T09:32:14.957Z</time>
      </trkpt>
      <trkpt lat="38.68268" lon="35.23589">
        <ele>1088.984887</ele>
        <time>2021-12-19T09:33:17.964Z</time>
      </trkpt>
      <trkpt lat="38.68147" lon="35.23368">
        <ele>1093.507871</ele>
        <time>2021-12-19T09:34:36.002Z</time>
      </trkpt>
      <trkpt lat="38.68096" lon="35.23105">
        <ele>1102.669636</ele>
        <time>2021-12-19T09:36:19.965Z</time>
      </trkpt>
      <trkpt lat="38.68095" lon="35.22851">
        <ele>1108.976572</ele>
        <time>2021-12-19T09:38:00.984Z</time>
      </trkpt>
      <trkpt lat="38.68095" lon="35.22581">
        <ele>1116.79284</ele>
        <time>2021-12-19T09:39:46.988Z</time>
      </trkpt>
      <trkpt lat="38.68096" lon="35.22327">
        <ele>1126.947753</ele>
        <time>2021-12-19T09:41:45.984Z</time>
      </trkpt>
      <trkpt lat="38.68098" lon="35.22059">
        <ele>1134.23514</ele>
        <time>2021-12-19T09:43:55.967Z</time>
      </trkpt>
      <trkpt lat="38.681" lon="35.21798">
        <ele>1136.535163</ele>
        <time>2021-12-19T09:48:43.973Z</time>
      </trkpt>
      <trkpt lat="38.68101" lon="35.21534">
        <ele>1139.940343</ele>
        <time>2021-12-19T09:50:07.975Z</time>
      </trkpt>
      <trkpt lat="38.68103" lon="35.21277">
        <ele>1146.492771</ele>
        <time>2021-12-19T09:51:37.983Z</time>
      </trkpt>
      <trkpt lat="38.68105" lon="35.21015">
        <ele>1154.382977</ele>
        <time>2021-12-19T09:53:26.009Z</time>
      </trkpt>
      <trkpt lat="38.68105" lon="35.20763">
        <ele>1163.980015</ele>
        <time>2021-12-19T09:55:20.977Z</time>
      </trkpt>
      <trkpt lat="38.68109" lon="35.20501">
        <ele>1175.2668</ele>
        <time>2021-12-19T09:57:29.980Z</time>
      </trkpt>
      <trkpt lat="38.68127" lon="35.20256">
        <ele>1188.809543</ele>
        <time>2021-12-19T09:59:32.978Z</time>
      </trkpt>
      <trkpt lat="38.68201" lon="35.20013">
        <ele>1202.838464</ele>
        <time>2021-12-19T10:01:47.983Z</time>
      </trkpt>
      <trkpt lat="38.68278" lon="35.19785">
        <ele>1212.579284</ele>
        <time>2021-12-19T10:03:53.006Z</time>
      </trkpt>
      <trkpt lat="38.68356" lon="35.19556">
        <ele>1220.411426</ele>
        <time>2021-12-19T10:05:52.967Z</time>
      </trkpt>
      <trkpt lat="38.68438" lon="35.1931">
        <ele>1230.357182</ele>
        <time>2021-12-19T10:07:57.976Z</time>
      </trkpt>
      <trkpt lat="38.68514" lon="35.19077">
        <ele>1236.622621</ele>
        <time>2021-12-19T10:09:49.984Z</time>
      </trkpt>
      <trkpt lat="38.686" lon="35.18813">
        <ele>1240.794148</ele>
        <time>2021-12-19T10:16:40.021Z</time>
      </trkpt>
      <trkpt lat="38.68696" lon="35.1859">
        <ele>1242.969237</ele>
        <time>2021-12-19T10:18:08.001Z</time>
      </trkpt>
      <trkpt lat="38.68828" lon="35.18377">
        <ele>1254.075325</ele>
        <time>2021-12-19T10:19:33.984Z</time>
      </trkpt>
      <trkpt lat="38.68957" lon="35.18181">
        <ele>1254.687864</ele>
        <time>2021-12-19T10:20:55.005Z</time>
      </trkpt>
      <trkpt lat="38.69092" lon="35.1797">
        <ele>1266.0137</ele>
        <time>2021-12-19T10:22:26.004Z</time>
      </trkpt>
      <trkpt lat="38.6922" lon="35.17775">
        <ele>1268.783983</ele>
        <time>2021-12-19T10:23:49.991Z</time>
      </trkpt>
      <trkpt lat="38.69356" lon="35.17563">
        <ele>1275.480822</ele>
        <time>2021-12-19T10:25:21.993Z</time>
      </trkpt>
      <trkpt lat="38.69484" lon="35.17358">
        <ele>1278.952929</ele>
        <time>2021-12-19T10:26:33.034Z</time>
      </trkpt>
      <trkpt lat="38.69578" lon="35.17099">
        <ele>1273.504825</ele>
        <time>2021-12-19T10:27:21.989Z</time>
      </trkpt>
      <trkpt lat="38.696" lon="35.16836">
        <ele>1268.977387</ele>
        <time>2021-12-19T10:28:02.013Z</time>
      </trkpt>
      <trkpt lat="38.69594" lon="35.16548">
        <ele>1268.65447</ele>
        <time>2021-12-19T10:28:49.978Z</time>
      </trkpt>
      <trkpt lat="38.6959" lon="35.1626">
        <ele>1265.699303</ele>
        <time>2021-12-19T10:29:42.001Z</time>
      </trkpt>
      <trkpt lat="38.69585" lon="35.15937">
        <ele>1265.613542</ele>
        <time>2021-12-19T10:30:41.995Z</time>
      </trkpt>
      <trkpt lat="38.69581" lon="35.15629">
        <ele>1265.91339</ele>
        <time>2021-12-19T10:31:38.018Z</time>
      </trkpt>
      <trkpt lat="38.69575" lon="35.15315">
        <ele>1262.75886</ele>
        <time>2021-12-19T10:32:34.995Z</time>
      </trkpt>
      <trkpt lat="38.69569" lon="35.15039">
        <ele>1259.85527</ele>
        <time>2021-12-19T10:33:24.004Z</time>
      </trkpt>
      <trkpt lat="38.69564" lon="35.14744">
        <ele>1261.171289</ele>
        <time>2021-12-19T10:34:15.004Z</time>
      </trkpt>
      <trkpt lat="38.6956" lon="35.14457">
        <ele>1261.338203</ele>
        <time>2021-12-19T10:35:09.003Z</time>
      </trkpt>
      <trkpt lat="38.69554" lon="35.14178">
        <ele>1264.528528</ele>
        <time>2021-12-19T10:36:15.995Z</time>
      </trkpt>
      <trkpt lat="38.6955" lon="35.13918">
        <ele>1266.867648</ele>
        <time>2021-12-19T10:37:19.980Z</time>
      </trkpt>
      <trkpt lat="38.69546" lon="35.13636">
        <ele>1264.668345</ele>
        <time>2021-12-19T10:38:23.999Z</time>
      </trkpt>
      <trkpt lat="38.6954" lon="35.13365">
        <ele>1265.530127</ele>
        <time>2021-12-19T10:39:24.028Z</time>
      </trkpt>
      <trkpt lat="38.69535" lon="35.13059">
        <ele>1262.966575</ele>
        <time>2021-12-19T10:40:27.030Z</time>
      </trkpt>
      <trkpt lat="38.69533" lon="35.12792">
        <ele>1264.197821</ele>
        <time>2021-12-19T10:41:29.990Z</time>
      </trkpt>
      <trkpt lat="38.69524" lon="35.12504">
        <ele>1267.38826</ele>
        <time>2021-12-19T10:42:49.977Z</time>
      </trkpt>
      <trkpt lat="38.69528" lon="35.12224">
        <ele>1268.659938</ele>
        <time>2021-12-19T10:44:08.997Z</time>
      </trkpt>
      <trkpt lat="38.69556" lon="35.11951">
        <ele>1271.009306</ele>
        <time>2021-12-19T10:45:14.997Z</time>
      </trkpt>
      <trkpt lat="38.6961" lon="35.11673">
        <ele>1270.584243</ele>
        <time>2021-12-19T10:46:14.995Z</time>
      </trkpt>
      <trkpt lat="38.69675" lon="35.11378">
        <ele>1270.595558</ele>
        <time>2021-12-19T10:47:18.016Z</time>
      </trkpt>
      <trkpt lat="38.69736" lon="35.11093">
        <ele>1269.584058</ele>
        <time>2021-12-19T10:48:18.003Z</time>
      </trkpt>
      <trkpt lat="38.69804" lon="35.1079">
        <ele>1264.339414</ele>
        <time>2021-12-19T10:49:20.995Z</time>
      </trkpt>
      <trkpt lat="38.69884" lon="35.10504">
        <ele>1256.255534</ele>
        <time>2021-12-19T10:50:21.001Z</time>
      </trkpt>
      <trkpt lat="38.70015" lon="35.10279">
        <ele>1258.781161</ele>
        <time>2021-12-19T10:51:24.009Z</time>
      </trkpt>
      <trkpt lat="38.70181" lon="35.10125">
        <ele>1265.017612</ele>
        <time>2021-12-19T10:52:23.999Z</time>
      </trkpt>
      <trkpt lat="38.70371" lon="35.09954">
        <ele>1267.456804</ele>
        <time>2021-12-19T10:53:25.008Z</time>
      </trkpt>
      <trkpt lat="38.70553" lon="35.09793">
        <ele>1265.934433</ele>
        <time>2021-12-19T10:54:07.038Z</time>
      </trkpt>
      <trkpt lat="38.70734" lon="35.09637">
        <ele>1261.213363</ele>
        <time>2021-12-19T10:54:47.016Z</time>
      </trkpt>
      <trkpt lat="38.70939" lon="35.09451">
        <ele>1240.968727</ele>
        <time>2021-12-19T10:55:29.003Z</time>
      </trkpt>
      <trkpt lat="38.71134" lon="35.09279">
        <ele>1218.43596</ele>
        <time>2021-12-19T10:56:09.001Z</time>
      </trkpt>
      <trkpt lat="38.71362" lon="35.09076">
        <ele>1203.242456</ele>
        <time>2021-12-19T10:56:51.010Z</time>
      </trkpt>
      <trkpt lat="38.71586" lon="35.08878">
        <ele>1191.116155</ele>
        <time>2021-12-19T10:57:31.010Z</time>
      </trkpt>
      <trkpt lat="38.71803" lon="35.08681">
        <ele>1181.836232</ele>
        <time>2021-12-19T10:58:13.011Z</time>
      </trkpt>
      <trkpt lat="38.72005" lon="35.08488">
        <ele>1166.34829</ele>
        <time>2021-12-19T10:58:53.010Z</time>
      </trkpt>
      <trkpt lat="38.72182" lon="35.08189">
        <ele>1145.703572</ele>
        <time>2021-12-19T10:59:35.003Z</time>
      </trkpt>
      <trkpt lat="38.723" lon="35.07951">
        <ele>1142.607939</ele>
        <time>2021-12-19T11:00:15.007Z</time>
      </trkpt>
      <trkpt lat="38.72414" lon="35.07723">
        <ele>1147.114196</ele>
        <time>2021-12-19T11:00:59.000Z</time>
      </trkpt>
      <trkpt lat="38.72522" lon="35.07507">
        <ele>1143.986828</ele>
        <time>2021-12-19T11:01:40.003Z</time>
      </trkpt>
      <trkpt lat="38.72635" lon="35.07276">
        <ele>1140.587502</ele>
        <time>2021-12-19T11:02:22.018Z</time>
      </trkpt>
      <trkpt lat="38.72752" lon="35.07038">
        <ele>1134.476066</ele>
        <time>2021-12-19T11:03:08.002Z</time>
      </trkpt>
      <trkpt lat="38.72873" lon="35.06796">
        <ele>1132.017793</ele>
        <time>2021-12-19T11:03:56.014Z</time>
      </trkpt>
      <trkpt lat="38.72993" lon="35.06556">
        <ele>1123.475712</ele>
        <time>2021-12-19T11:04:42.008Z</time>
      </trkpt>
      <trkpt lat="38.73112" lon="35.06314">
        <ele>1113.592758</ele>
        <time>2021-12-19T11:05:23.999Z</time>
      </trkpt>
      <trkpt lat="38.73245" lon="35.06044">
        <ele>1102.344593</ele>
        <time>2021-12-19T11:06:04.012Z</time>
      </trkpt>
      <trkpt lat="38.73388" lon="35.05755">
        <ele>1090.979607</ele>
        <time>2021-12-19T11:06:46.000Z</time>
      </trkpt>
      <trkpt lat="38.73526" lon="35.05475">
        <ele>1087.330459</ele>
        <time>2021-12-19T11:07:26.044Z</time>
      </trkpt>
      <trkpt lat="38.73644" lon="35.05239">
        <ele>1089.083655</ele>
        <time>2021-12-19T11:08:13.998Z</time>
      </trkpt>
      <trkpt lat="38.73762" lon="35.05017">
        <ele>1087.671739</ele>
        <time>2021-12-19T11:08:54.039Z</time>
      </trkpt>
      <trkpt lat="38.7386" lon="35.04759">
        <ele>1082.521103</ele>
        <time>2021-12-19T11:09:36.009Z</time>
      </trkpt>
      <trkpt lat="38.73862" lon="35.04361">
        <ele>1072.611436</ele>
        <time>2021-12-19T11:10:16.005Z</time>
      </trkpt>
      <trkpt lat="38.73855" lon="35.04035">
        <ele>1064.961233</ele>
        <time>2021-12-19T11:10:58.001Z</time>
      </trkpt>
      <trkpt lat="38.73896" lon="35.03779">
        <ele>1067.64864</ele>
        <time>2021-12-19T11:11:38.004Z</time>
      </trkpt>
      <trkpt lat="38.73945" lon="35.03508">
        <ele>1064.491185</ele>
        <time>2021-12-19T11:12:19.999Z</time>
      </trkpt>
      <trkpt lat="38.73993" lon="35.03255">
        <ele>1064.741723</ele>
        <time>2021-12-19T11:13:00.005Z</time>
      </trkpt>
      <trkpt lat="38.74021" lon="35.02973">
        <ele>1065.449899</ele>
        <time>2021-12-19T11:13:42.024Z</time>
      </trkpt>
      <trkpt lat="38.74041" lon="35.02714">
        <ele>1066.515268</ele>
        <time>2021-12-19T11:14:22.004Z</time>
      </trkpt>
      <trkpt lat="38.74064" lon="35.02443">
        <ele>1065.730004</ele>
        <time>2021-12-19T11:15:06.999Z</time>
      </trkpt>
      <trkpt lat="38.74089" lon="35.02197">
        <ele>1065.825917</ele>
        <time>2021-12-19T11:15:47.005Z</time>
      </trkpt>
      <trkpt lat="38.74115" lon="35.01942">
        <ele>1065.666039</ele>
        <time>2021-12-19T11:16:29.015Z</time>
      </trkpt>
      <trkpt lat="38.74137" lon="35.0169">
        <ele>1065.452113</ele>
        <time>2021-12-19T11:17:09.016Z</time>
      </trkpt>
      <trkpt lat="38.74164" lon="35.01377">
        <ele>1057.122191</ele>
        <time>2021-12-19T11:17:51.014Z</time>
      </trkpt>
      <trkpt lat="38.74195" lon="35.00971">
        <ele>1042.593482</ele>
        <time>2021-12-19T11:18:31.015Z</time>
      </trkpt>
      <trkpt lat="38.74223" lon="35.00666">
        <ele>1041.639549</ele>
        <time>2021-12-19T11:19:31.041Z</time>
      </trkpt>
      <trkpt lat="38.74211" lon="35.00407">
        <ele>1050.503156</ele>
        <time>2021-12-19T11:20:41.017Z</time>
      </trkpt>
      <trkpt lat="38.74103" lon="35.00123">
        <ele>1051.259563</ele>
        <time>2021-12-19T11:21:23.054Z</time>
      </trkpt>
      <trkpt lat="38.73947" lon="34.99799">
        <ele>1031.211776</ele>
        <time>2021-12-19T11:22:05.026Z</time>
      </trkpt>
      <trkpt lat="38.73879" lon="34.99503">
        <ele>1028.57241</ele>
        <time>2021-12-19T11:22:52.018Z</time>
      </trkpt>
      <trkpt lat="38.73861" lon="34.99232">
        <ele>1040.068188</ele>
        <time>2021-12-19T11:24:05.014Z</time>
      </trkpt>
      <trkpt lat="38.73819" lon="34.98978">
        <ele>1047.723806</ele>
        <time>2021-12-19T11:25:15.012Z</time>
      </trkpt>
      <trkpt lat="38.73752" lon="34.98686">
        <ele>1043.554711</ele>
        <time>2021-12-19T11:26:00.002Z</time>
      </trkpt>
      <trkpt lat="38.7367" lon="34.98354">
        <ele>1035.727608</ele>
        <time>2021-12-19T11:26:39.996Z</time>
      </trkpt>
      <trkpt lat="38.73579" lon="34.97996">
        <ele>1025.885009</ele>
        <time>2021-12-19T11:27:22.009Z</time>
      </trkpt>
      <trkpt lat="38.73513" lon="34.97701">
        <ele>1018.764782</ele>
        <time>2021-12-19T11:28:02.006Z</time>
      </trkpt>
      <trkpt lat="38.73424" lon="34.97447">
        <ele>1020.324899</ele>
        <time>2021-12-19T11:29:05.035Z</time>
      </trkpt>
      <trkpt lat="38.73326" lon="34.9723">
        <ele>1024.809081</ele>
        <time>2021-12-19T11:30:08.025Z</time>
      </trkpt>
      <trkpt lat="38.73213" lon="34.97003">
        <ele>1029.57705</ele>
        <time>2021-12-19T11:31:11.058Z</time>
      </trkpt>
      <trkpt lat="38.73093" lon="34.96753">
        <ele>1032.229408</ele>
        <time>2021-12-19T11:32:09.003Z</time>
      </trkpt>
      <trkpt lat="38.72968" lon="34.96492">
        <ele>1029.947654</ele>
        <time>2021-12-19T11:33:03.010Z</time>
      </trkpt>
      <trkpt lat="38.72857" lon="34.96262">
        <ele>1028.994855</ele>
        <time>2021-12-19T11:33:50.008Z</time>
      </trkpt>
      <trkpt lat="38.72741" lon="34.96017">
        <ele>1025.319666</ele>
        <time>2021-12-19T11:34:40.004Z</time>
      </trkpt>
      <trkpt lat="38.72631" lon="34.95776">
        <ele>1022.624013</ele>
        <time>2021-12-19T11:35:28.010Z</time>
      </trkpt>
      <trkpt lat="38.72516" lon="34.9554">
        <ele>1022.975951</ele>
        <time>2021-12-19T11:36:16.005Z</time>
      </trkpt>
      <trkpt lat="38.72397" lon="34.95288">
        <ele>1022.001258</ele>
        <time>2021-12-19T11:37:08.021Z</time>
      </trkpt>
      <trkpt lat="38.72271" lon="34.95024">
        <ele>1017.206739</ele>
        <time>2021-12-19T11:38:02.038Z</time>
      </trkpt>
      <trkpt lat="38.72143" lon="34.94761">
        <ele>1017.728636</ele>
        <time>2021-12-19T11:39:02.014Z</time>
      </trkpt>
      <trkpt lat="38.72023" lon="34.94511">
        <ele>1022.780102</ele>
        <time>2021-12-19T11:40:05.012Z</time>
      </trkpt>
      <trkpt lat="38.71908" lon="34.94279">
        <ele>1028.650747</ele>
        <time>2021-12-19T11:41:05.024Z</time>
      </trkpt>
      <trkpt lat="38.71786" lon="34.9403">
        <ele>1029.409284</ele>
        <time>2021-12-19T11:42:08.061Z</time>
      </trkpt>
      <trkpt lat="38.71673" lon="34.93788">
        <ele>1029.684144</ele>
        <time>2021-12-19T11:43:08.011Z</time>
      </trkpt>
      <trkpt lat="38.71559" lon="34.93547">
        <ele>1031.189904</ele>
        <time>2021-12-19T11:44:11.038Z</time>
      </trkpt>
      <trkpt lat="38.71442" lon="34.93305">
        <ele>1029.700506</ele>
        <time>2021-12-19T11:45:03.011Z</time>
      </trkpt>
      <trkpt lat="38.71363" lon="34.92983">
        <ele>1025.187999</ele>
        <time>2021-12-19T11:45:45.029Z</time>
      </trkpt>
      <trkpt lat="38.71297" lon="34.92656">
        <ele>1012.044572</ele>
        <time>2021-12-19T11:46:18.022Z</time>
      </trkpt>
      <trkpt lat="38.71264" lon="34.92402">
        <ele>1000.813089</ele>
        <time>2021-12-19T11:46:39.024Z</time>
      </trkpt>
      <trkpt lat="38.71241" lon="34.92022">
        <ele>989.047954</ele>
        <time>2021-12-19T11:47:18.047Z</time>
      </trkpt>
      <trkpt lat="38.71219" lon="34.91682">
        <ele>982.897654</ele>
        <time>2021-12-19T11:48:00.004Z</time>
      </trkpt>
      <trkpt lat="38.71223" lon="34.91459">
        <ele>988.050153</ele>
        <time>2021-12-19T12:12:04.023Z</time>
      </trkpt>
      <trkpt lat="38.71227" lon="34.91151">
        <ele>992.977238</ele>
        <time>2021-12-19T12:13:08.004Z</time>
      </trkpt>
      <trkpt lat="38.71236" lon="34.90887">
        <ele>995.867369</ele>
        <time>2021-12-19T12:14:08.011Z</time>
      </trkpt>
      <trkpt lat="38.71188" lon="34.90605">
        <ele>998.983775</ele>
        <time>2021-12-19T12:15:15.046Z</time>
      </trkpt>
      <trkpt lat="38.71143" lon="34.90346">
        <ele>1006.949126</ele>
        <time>2021-12-19T12:16:34.042Z</time>
      </trkpt>
      <trkpt lat="38.71112" lon="34.90102">
        <ele>1016.512256</ele>
        <time>2021-12-19T12:18:08.024Z</time>
      </trkpt>
      <trkpt lat="38.71078" lon="34.89845">
        <ele>1025.17745</ele>
        <time>2021-12-19T12:20:09.020Z</time>
      </trkpt>
      <trkpt lat="38.71048" lon="34.89595">
        <ele>1033.596046</ele>
        <time>2021-12-19T12:21:49.028Z</time>
      </trkpt>
      <trkpt lat="38.71012" lon="34.89317">
        <ele>1040.287561</ele>
        <time>2021-12-19T12:23:11.022Z</time>
      </trkpt>
      <trkpt lat="38.70961" lon="34.89057">
        <ele>1037.00922</ele>
        <time>2021-12-19T12:25:06.058Z</time>
      </trkpt>
      <trkpt lat="38.70892" lon="34.8879">
        <ele>1038.226443</ele>
        <time>2021-12-19T12:26:09.030Z</time>
      </trkpt>
      <trkpt lat="38.70827" lon="34.88532">
        <ele>1045.917995</ele>
        <time>2021-12-19T12:27:25.026Z</time>
      </trkpt>
      <trkpt lat="38.70807" lon="34.88255">
        <ele>1059.330447</ele>
        <time>2021-12-19T12:28:48.037Z</time>
      </trkpt>
      <trkpt lat="38.70806" lon="34.87982">
        <ele>1056.678071</ele>
        <time>2021-12-19T12:29:44.024Z</time>
      </trkpt>
      <trkpt lat="38.70784" lon="34.87641">
        <ele>1041.974842</ele>
        <time>2021-12-19T12:30:26.035Z</time>
      </trkpt>
      <trkpt lat="38.70618" lon="34.87325">
        <ele>1026.82836</ele>
        <time>2021-12-19T12:31:04.075Z</time>
      </trkpt>
      <trkpt lat="38.70451" lon="34.87121">
        <ele>1018.146212</ele>
        <time>2021-12-19T12:31:29.016Z</time>
      </trkpt>
      <trkpt lat="38.70256" lon="34.86883">
        <ele>1015.996868</ele>
        <time>2021-12-19T12:32:06.034Z</time>
      </trkpt>
      <trkpt lat="38.70101" lon="34.86695">
        <ele>1015.53861</ele>
        <time>2021-12-19T12:32:48.028Z</time>
      </trkpt>
      <trkpt lat="38.70039" lon="34.86431">
        <ele>1014.00174</ele>
        <time>2021-12-19T12:33:28.044Z</time>
      </trkpt>
      <trkpt lat="38.70103" lon="34.86094">
        <ele>1012.645193</ele>
        <time>2021-12-19T12:34:10.041Z</time>
      </trkpt>
      <trkpt lat="38.70247" lon="34.85804">
        <ele>1004.456598</ele>
        <time>2021-12-19T12:34:50.040Z</time>
      </trkpt>
      <trkpt lat="38.70446" lon="34.85588">
        <ele>998.123118</ele>
        <time>2021-12-19T12:35:33.002Z</time>
      </trkpt>
      <trkpt lat="38.70457" lon="34.85323">
        <ele>1001.099708</ele>
        <time>2021-12-19T12:37:10.029Z</time>
      </trkpt>
      <trkpt lat="38.70402" lon="34.85009">
        <ele>1002.552155</ele>
        <time>2021-12-19T12:37:52.045Z</time>
      </trkpt>
      <trkpt lat="38.70364" lon="34.84736">
        <ele>998.021246</ele>
        <time>2021-12-19T12:38:33.071Z</time>
      </trkpt>
      <trkpt lat="38.70363" lon="34.84468">
        <ele>999.673573</ele>
        <time>2021-12-19T12:39:15.028Z</time>
      </trkpt>
      <trkpt lat="38.7036" lon="34.84236">
        <ele>994.589231</ele>
        <time>2021-12-19T12:40:20.028Z</time>
      </trkpt>
      <trkpt lat="38.70135" lon="34.84233">
        <ele>993.051681</ele>
        <time>2021-12-19T12:41:25.066Z</time>
      </trkpt>
      <trkpt lat="38.69931" lon="34.8422">
        <ele>999.029542</ele>
        <time>2021-12-19T12:42:29.035Z</time>
      </trkpt>
      <trkpt lat="38.69717" lon="34.84202">
        <ele>1001.539372</ele>
        <time>2021-12-19T12:43:40.010Z</time>
      </trkpt>
      <trkpt lat="38.69516" lon="34.84191">
        <ele>1002.716354</ele>
        <time>2021-12-19T12:44:46.059Z</time>
      </trkpt>
      <trkpt lat="38.69299" lon="34.84171">
        <ele>1002.354704</ele>
        <time>2021-12-19T12:45:58.031Z</time>
      </trkpt>
      <trkpt lat="38.69092" lon="34.84151">
        <ele>1007.641716</ele>
        <time>2021-12-19T12:47:06.045Z</time>
      </trkpt>
      <trkpt lat="38.68874" lon="34.84114">
        <ele>1015.675048</ele>
        <time>2021-12-19T12:48:20.029Z</time>
      </trkpt>
      <trkpt lat="38.68667" lon="34.84073">
        <ele>1018.941019</ele>
        <time>2021-12-19T12:49:32.053Z</time>
      </trkpt>
      <trkpt lat="38.68443" lon="34.8403">
        <ele>1026.157163</ele>
        <time>2021-12-19T12:50:50.061Z</time>
      </trkpt>
      <trkpt lat="38.68236" lon="34.84005">
        <ele>1025.091991</ele>
        <time>2021-12-19T12:52:04.011Z</time>
      </trkpt>
      <trkpt lat="38.68019" lon="34.83955">
        <ele>1028.60383</ele>
        <time>2021-12-19T12:53:21.011Z</time>
      </trkpt>
      <trkpt lat="38.67809" lon="34.8391">
        <ele>1033.061972</ele>
        <time>2021-12-19T12:54:37.071Z</time>
      </trkpt>
      <trkpt lat="38.67585" lon="34.83914">
        <ele>1042.118232</ele>
        <time>2021-12-19T12:56:01.062Z</time>
      </trkpt>
      <trkpt lat="38.67381" lon="34.83922">
        <ele>1045.113964</ele>
        <time>2021-12-19T12:57:22.048Z</time>
      </trkpt>
      <trkpt lat="38.67182" lon="34.83835">
        <ele>1050.044493</ele>
        <time>2021-12-19T12:58:43.028Z</time>
      </trkpt>
      <trkpt lat="38.67003" lon="34.83686">
        <ele>1054.068569</ele>
        <time>2021-12-19T13:00:02.026Z</time>
      </trkpt>
      <trkpt lat="38.66844" lon="34.83536">
        <ele>1056.973887</ele>
        <time>2021-12-19T13:01:07.038Z</time>
      </trkpt>
      <trkpt lat="38.6666" lon="34.83385">
        <ele>1066.169499</ele>
        <time>2021-12-19T13:02:40.053Z</time>
      </trkpt>
      <trkpt lat="38.66483" lon="34.83274">
        <ele>1077.078968</ele>
        <time>2021-12-19T13:04:23.041Z</time>
      </trkpt>
      <trkpt lat="38.66272" lon="34.83261">
        <ele>1080.173322</ele>
        <time>2021-12-19T13:06:08.051Z</time>
      </trkpt>
      <trkpt lat="38.66077" lon="34.83332">
        <ele>1084.258795</ele>
        <time>2021-12-19T13:07:43.042Z</time>
      </trkpt>
      <trkpt lat="38.6587" lon="34.83406">
        <ele>1090.229415</ele>
        <time>2021-12-19T13:09:15.049Z</time>
      </trkpt>
      <trkpt lat="38.6569" lon="34.83517">
        <ele>1093.470376</ele>
        <time>2021-12-19T13:10:31.031Z</time>
      </trkpt>
      <trkpt lat="38.655" lon="34.83627">
        <ele>1095.152899</ele>
        <time>2021-12-19T13:11:37.044Z</time>
      </trkpt>
      <trkpt lat="38.65294" lon="34.83649">
        <ele>1100.684591</ele>
        <time>2021-12-19T13:12:46.037Z</time>
      </trkpt>
      <trkpt lat="38.6509" lon="34.83579">
        <ele>1109.940423</ele>
        <time>2021-12-19T13:14:15.056Z</time>
      </trkpt>
      <trkpt lat="38.64905" lon="34.8347">
        <ele>1115.591779</ele>
        <time>2021-12-19T13:15:44.044Z</time>
      </trkpt>
      <trkpt lat="38.64722" lon="34.83355">
        <ele>1122.968453</ele>
        <time>2021-12-19T13:17:11.048Z</time>
      </trkpt>
      <trkpt lat="38.64535" lon="34.8325">
        <ele>1127.680159</ele>
        <time>2021-12-19T13:18:36.042Z</time>
      </trkpt>
      <trkpt lat="38.64357" lon="34.83106">
        <ele>1138.596388</ele>
        <time>2021-12-19T13:20:05.045Z</time>
      </trkpt>
      <trkpt lat="38.64404" lon="34.82896">
        <ele>1142.635972</ele>
        <time>2021-12-19T13:21:37.044Z</time>
      </trkpt>
      <trkpt lat="38.64235" lon="34.82825">
        <ele>1144.892088</ele>
        <time>2021-12-19T13:23:11.059Z</time>
      </trkpt>
      <trkpt lat="38.6419" lon="34.82744">
        <ele>1144.892088</ele>
        <time>2021-12-19T13:34:39.478Z</time>
      </trkpt>
      <trkpt lat="38.64139" lon="34.8274">
        <ele>1140.641692</ele>
        <time>2021-12-29T08:43:46.599Z</time>
      </trkpt>
      <trkpt lat="38.64115" lon="34.82831">
        <ele>1140.713084</ele>
        <time>2021-12-29T08:55:13.739Z</time>
      </trkpt>
      <trkpt lat="38.64284" lon="34.82925">
        <ele>1141.538837</ele>
        <time>2021-12-29T08:56:20.762Z</time>
      </trkpt>
      <trkpt lat="38.64462" lon="34.82839">
        <ele>1145.859808</ele>
        <time>2021-12-29T08:57:49.755Z</time>
      </trkpt>
      <trkpt lat="38.64574" lon="34.82636">
        <ele>1152.107368</ele>
        <time>2021-12-29T08:59:38.764Z</time>
      </trkpt>
      <trkpt lat="38.64649" lon="34.82412">
        <ele>1172.553894</ele>
        <time>2021-12-29T09:02:09.759Z</time>
      </trkpt>
      <trkpt lat="38.64699" lon="34.82207">
        <ele>1194.959819</ele>
        <time>2021-12-29T09:05:06.756Z</time>
      </trkpt>
      <trkpt lat="38.6462" lon="34.8199">
        <ele>1202.812503</ele>
        <time>2021-12-29T09:07:50.761Z</time>
      </trkpt>
      <trkpt lat="38.64445" lon="34.81876">
        <ele>1211.526605</ele>
        <time>2021-12-29T09:10:58.764Z</time>
      </trkpt>
      <trkpt lat="38.64259" lon="34.81794">
        <ele>1222.181643</ele>
        <time>2021-12-29T09:12:52.763Z</time>
      </trkpt>
      <trkpt lat="38.64091" lon="34.8167">
        <ele>1232.803851</ele>
        <time>2021-12-29T09:14:50.779Z</time>
      </trkpt>
      <trkpt lat="38.63936" lon="34.81514">
        <ele>1244.96829</ele>
        <time>2021-12-29T09:16:57.762Z</time>
      </trkpt>
      <trkpt lat="38.63768" lon="34.81386">
        <ele>1258.636734</ele>
        <time>2021-12-29T09:19:07.806Z</time>
      </trkpt>
      <trkpt lat="38.63599" lon="34.81278">
        <ele>1273.736548</ele>
        <time>2021-12-29T09:21:41.771Z</time>
      </trkpt>
      <trkpt lat="38.63477" lon="34.81096">
        <ele>1281.938206</ele>
        <time>2021-12-29T09:24:00.767Z</time>
      </trkpt>
      <trkpt lat="38.6344" lon="34.80784">
        <ele>1279.584102</ele>
        <time>2021-12-29T09:25:03.756Z</time>
      </trkpt>
      <trkpt lat="38.63494" lon="34.80558">
        <ele>1287.1816</ele>
        <time>2021-12-29T09:26:44.755Z</time>
      </trkpt>
      <trkpt lat="38.6335" lon="34.8041">
        <ele>1294.367116</ele>
        <time>2021-12-29T09:28:40.768Z</time>
      </trkpt>
      <trkpt lat="38.63414" lon="34.80205">
        <ele>1303.801683</ele>
        <time>2021-12-29T09:44:47.504Z</time>
      </trkpt>
      <trkpt lat="38.63311" lon="34.80062">
        <ele>1316.689846</ele>
        <time>2021-12-29T09:46:47.487Z</time>
      </trkpt>
      <trkpt lat="38.63254" lon="34.79839">
        <ele>1332.940559</ele>
        <time>2021-12-29T09:49:24.467Z</time>
      </trkpt>
      <trkpt lat="38.63091" lon="34.79716">
        <ele>1345.477321</ele>
        <time>2021-12-29T09:51:43.453Z</time>
      </trkpt>
      <trkpt lat="38.62998" lon="34.79932">
        <ele>1356.049544</ele>
        <time>2021-12-29T09:53:10.464Z</time>
      </trkpt>
      <trkpt lat="38.62905" lon="34.80152">
        <ele>1362.958546</ele>
        <time>2021-12-29T09:54:43.472Z</time>
      </trkpt>
      <trkpt lat="38.62809" lon="34.80363">
        <ele>1373.2016</ele>
        <time>2021-12-29T09:56:37.469Z</time>
      </trkpt>
      <trkpt lat="38.62643" lon="34.80189">
        <ele>1362.024121</ele>
        <time>2021-12-29T09:57:24.515Z</time>
      </trkpt>
      <trkpt lat="38.6249" lon="34.80003">
        <ele>1359.337201</ele>
        <time>2021-12-29T09:58:06.479Z</time>
      </trkpt>
      <trkpt lat="38.62355" lon="34.7983">
        <ele>1358.96277</ele>
        <time>2021-12-29T09:59:04.474Z</time>
      </trkpt>
      <trkpt lat="38.62251" lon="34.796">
        <ele>1367.223178</ele>
        <time>2021-12-29T10:00:19.515Z</time>
      </trkpt>
      <trkpt lat="38.62137" lon="34.79383">
        <ele>1371.319472</ele>
        <time>2021-12-29T10:01:54.482Z</time>
      </trkpt>
      <trkpt lat="38.61928" lon="34.7915">
        <ele>1361.79497</ele>
        <time>2021-12-29T10:02:36.509Z</time>
      </trkpt>
      <trkpt lat="38.61758" lon="34.78928">
        <ele>1355.227052</ele>
        <time>2021-12-29T10:03:18.491Z</time>
      </trkpt>
      <trkpt lat="38.61544" lon="34.78713">
        <ele>1347.156214</ele>
        <time>2021-12-29T10:03:58.488Z</time>
      </trkpt>
      <trkpt lat="38.61346" lon="34.7852">
        <ele>1340.863951</ele>
        <time>2021-12-29T10:04:39.462Z</time>
      </trkpt>
      <trkpt lat="38.61151" lon="34.78421">
        <ele>1341.739411</ele>
        <time>2021-12-29T10:05:29.481Z</time>
      </trkpt>
      <trkpt lat="38.6096" lon="34.78314">
        <ele>1346.993001</ele>
        <time>2021-12-29T10:06:37.478Z</time>
      </trkpt>
      <trkpt lat="38.60776" lon="34.78217">
        <ele>1353.402391</ele>
        <time>2021-12-29T10:08:10.474Z</time>
      </trkpt>
      <trkpt lat="38.60592" lon="34.78115">
        <ele>1364.925109</ele>
        <time>2021-12-29T10:10:08.483Z</time>
      </trkpt>
      <trkpt lat="38.60425" lon="34.77995">
        <ele>1371.337873</ele>
        <time>2021-12-29T10:11:49.480Z</time>
      </trkpt>
      <trkpt lat="38.60237" lon="34.77905">
        <ele>1377.83318</ele>
        <time>2021-12-29T10:13:26.480Z</time>
      </trkpt>
      <trkpt lat="38.60047" lon="34.7782">
        <ele>1385.372854</ele>
        <time>2021-12-29T10:15:20.480Z</time>
      </trkpt>
      <trkpt lat="38.59867" lon="34.77726">
        <ele>1395.102592</ele>
        <time>2021-12-29T10:17:16.503Z</time>
      </trkpt>
      <trkpt lat="38.59691" lon="34.77624">
        <ele>1409.976237</ele>
        <time>2021-12-29T10:19:44.483Z</time>
      </trkpt>
      <trkpt lat="38.59515" lon="34.77531">
        <ele>1422.132123</ele>
        <time>2021-12-29T10:22:26.493Z</time>
      </trkpt>
      <trkpt lat="38.5928" lon="34.77508">
        <ele>1414.986672</ele>
        <time>2021-12-29T10:23:08.488Z</time>
      </trkpt>
      <trkpt lat="38.59062" lon="34.77411">
        <ele>1418.152958</ele>
        <time>2021-12-29T10:24:12.481Z</time>
      </trkpt>
      <trkpt lat="38.58877" lon="34.77326">
        <ele>1431.935281</ele>
        <time>2021-12-29T10:26:22.490Z</time>
      </trkpt>
      <trkpt lat="38.58698" lon="34.77243">
        <ele>1444.639838</ele>
        <time>2021-12-29T10:29:07.471Z</time>
      </trkpt>
      <trkpt lat="38.58505" lon="34.77185">
        <ele>1452.809376</ele>
        <time>2021-12-29T10:31:00.480Z</time>
      </trkpt>
      <trkpt lat="38.58321" lon="34.77137">
        <ele>1459.643548</ele>
        <time>2021-12-29T10:32:25.489Z</time>
      </trkpt>
      <trkpt lat="38.58133" lon="34.77063">
        <ele>1466.547073</ele>
        <time>2021-12-29T10:34:18.485Z</time>
      </trkpt>
      <trkpt lat="38.57959" lon="34.76944">
        <ele>1473.19614</ele>
        <time>2021-12-29T10:35:59.481Z</time>
      </trkpt>
      <trkpt lat="38.57754" lon="34.76852">
        <ele>1471.464974</ele>
        <time>2021-12-29T10:39:24.524Z</time>
      </trkpt>
      <trkpt lat="38.57483" lon="34.76836">
        <ele>1454.330351</ele>
        <time>2021-12-29T10:40:04.491Z</time>
      </trkpt>
      <trkpt lat="38.5717" lon="34.76835">
        <ele>1439.827283</ele>
        <time>2021-12-29T10:40:44.492Z</time>
      </trkpt>
      <trkpt lat="38.56869" lon="34.76745">
        <ele>1425.368307</ele>
        <time>2021-12-29T10:41:24.498Z</time>
      </trkpt>
      <trkpt lat="38.56648" lon="34.76591">
        <ele>1417.56645</ele>
        <time>2021-12-29T10:42:04.487Z</time>
      </trkpt>
      <trkpt lat="38.56407" lon="34.76459">
        <ele>1407.665068</ele>
        <time>2021-12-29T10:42:44.495Z</time>
      </trkpt>
      <trkpt lat="38.56175" lon="34.76374">
        <ele>1401.365071</ele>
        <time>2021-12-29T10:43:24.491Z</time>
      </trkpt>
      <trkpt lat="38.55923" lon="34.7628">
        <ele>1396.54568</ele>
        <time>2021-12-29T10:44:04.494Z</time>
      </trkpt>
      <trkpt lat="38.55723" lon="34.76261">
        <ele>1395.505679</ele>
        <time>2021-12-29T10:45:06.484Z</time>
      </trkpt>
      <trkpt lat="38.55503" lon="34.763">
        <ele>1392.188622</ele>
        <time>2021-12-29T10:45:59.530Z</time>
      </trkpt>
      <trkpt lat="38.55246" lon="34.76397">
        <ele>1383.112553</ele>
        <time>2021-12-29T10:46:39.516Z</time>
      </trkpt>
      <trkpt lat="38.55031" lon="34.7651">
        <ele>1377.864267</ele>
        <time>2021-12-29T10:47:22.496Z</time>
      </trkpt>
      <trkpt lat="38.54982" lon="34.76285">
        <ele>1379.716254</ele>
        <time>2021-12-29T10:48:12.504Z</time>
      </trkpt>
      <trkpt lat="38.54859" lon="34.76074">
        <ele>1385.891135</ele>
        <time>2021-12-29T10:49:35.488Z</time>
      </trkpt>
      <trkpt lat="38.54722" lon="34.75895">
        <ele>1390.520721</ele>
        <time>2021-12-29T10:51:20.507Z</time>
      </trkpt>
      <trkpt lat="38.54581" lon="34.75708">
        <ele>1393.51697</ele>
        <time>2021-12-29T10:52:52.495Z</time>
      </trkpt>
      <trkpt lat="38.54459" lon="34.7551">
        <ele>1400.196489</ele>
        <time>2021-12-29T10:54:22.496Z</time>
      </trkpt>
      <trkpt lat="38.54357" lon="34.75287">
        <ele>1405.372901</ele>
        <time>2021-12-29T10:55:55.503Z</time>
      </trkpt>
      <trkpt lat="38.54199" lon="34.7517">
        <ele>1402.026951</ele>
        <time>2021-12-29T10:56:53.498Z</time>
      </trkpt>
      <trkpt lat="38.53961" lon="34.75308">
        <ele>1396.942166</ele>
        <time>2021-12-29T10:57:33.520Z</time>
      </trkpt>
      <trkpt lat="38.53773" lon="34.75411">
        <ele>1397.855261</ele>
        <time>2021-12-29T10:58:36.541Z</time>
      </trkpt>
      <trkpt lat="38.53561" lon="34.75433">
        <ele>1398.15889</ele>
        <time>2021-12-29T11:00:03.531Z</time>
      </trkpt>
      <trkpt lat="38.53338" lon="34.75414">
        <ele>1396.874569</ele>
        <time>2021-12-29T11:00:57.514Z</time>
      </trkpt>
      <trkpt lat="38.53124" lon="34.75375">
        <ele>1399.865798</ele>
        <time>2021-12-29T11:01:57.505Z</time>
      </trkpt>
      <trkpt lat="38.52925" lon="34.75305">
        <ele>1407.888144</ele>
        <time>2021-12-29T11:03:34.500Z</time>
      </trkpt>
      <trkpt lat="38.52723" lon="34.75271">
        <ele>1408.905811</ele>
        <time>2021-12-29T11:05:05.506Z</time>
      </trkpt>
      <trkpt lat="38.52512" lon="34.75273">
        <ele>1406.16692</ele>
        <time>2021-12-29T11:05:50.527Z</time>
      </trkpt>
      <trkpt lat="38.52308" lon="34.75253">
        <ele>1407.527646</ele>
        <time>2021-12-29T11:06:52.514Z</time>
      </trkpt>
      <trkpt lat="38.52117" lon="34.752">
        <ele>1411.96111</ele>
        <time>2021-12-29T11:08:08.545Z</time>
      </trkpt>
      <trkpt lat="38.51919" lon="34.75128">
        <ele>1415.135088</ele>
        <time>2021-12-29T11:09:28.484Z</time>
      </trkpt>
      <trkpt lat="38.5172" lon="34.75052">
        <ele>1419.748299</ele>
        <time>2021-12-29T11:10:48.504Z</time>
      </trkpt>
      <trkpt lat="38.51519" lon="34.74995">
        <ele>1422.701186</ele>
        <time>2021-12-29T11:12:08.501Z</time>
      </trkpt>
      <trkpt lat="38.51314" lon="34.74982">
        <ele>1426.85217</ele>
        <time>2021-12-29T11:18:34.500Z</time>
      </trkpt>
      <trkpt lat="38.51098" lon="34.74991">
        <ele>1431.776611</ele>
        <time>2021-12-29T11:19:53.510Z</time>
      </trkpt>
      <trkpt lat="38.50887" lon="34.75006">
        <ele>1436.465047</ele>
        <time>2021-12-29T11:21:13.506Z</time>
      </trkpt>
      <trkpt lat="38.50685" lon="34.75115">
        <ele>1437.493689</ele>
        <time>2021-12-29T11:22:30.510Z</time>
      </trkpt>
      <trkpt lat="38.50495" lon="34.75236">
        <ele>1442.893224</ele>
        <time>2021-12-29T11:23:54.505Z</time>
      </trkpt>
      <trkpt lat="38.50304" lon="34.75264">
        <ele>1449.617769</ele>
        <time>2021-12-29T11:25:18.526Z</time>
      </trkpt>
      <trkpt lat="38.50087" lon="34.75316">
        <ele>1452.936159</ele>
        <time>2021-12-29T11:26:37.509Z</time>
      </trkpt>
      <trkpt lat="38.49898" lon="34.75354">
        <ele>1454.318279</ele>
        <time>2021-12-29T11:27:41.539Z</time>
      </trkpt>
      <trkpt lat="38.49683" lon="34.7541">
        <ele>1455.441941</ele>
        <time>2021-12-29T11:28:57.534Z</time>
      </trkpt>
      <trkpt lat="38.49478" lon="34.75394">
        <ele>1460.854982</ele>
        <time>2021-12-29T11:30:23.504Z</time>
      </trkpt>
      <trkpt lat="38.49285" lon="34.75351">
        <ele>1461.275333</ele>
        <time>2021-12-29T11:31:32.516Z</time>
      </trkpt>
      <trkpt lat="38.49096" lon="34.75307">
        <ele>1462.769842</ele>
        <time>2021-12-29T11:32:33.516Z</time>
      </trkpt>
      <trkpt lat="38.48877" lon="34.75306">
        <ele>1462.048415</ele>
        <time>2021-12-29T11:33:36.505Z</time>
      </trkpt>
      <trkpt lat="38.48657" lon="34.75306">
        <ele>1459.898708</ele>
        <time>2021-12-29T11:34:25.512Z</time>
      </trkpt>
      <trkpt lat="38.48434" lon="34.75281">
        <ele>1455.258687</ele>
        <time>2021-12-29T11:35:14.518Z</time>
      </trkpt>
      <trkpt lat="38.48206" lon="34.7531">
        <ele>1453.976043</ele>
        <time>2021-12-29T11:36:06.500Z</time>
      </trkpt>
      <trkpt lat="38.47998" lon="34.75328">
        <ele>1457.021936</ele>
        <time>2021-12-29T11:37:13.511Z</time>
      </trkpt>
      <trkpt lat="38.47801" lon="34.75298">
        <ele>1459.065326</ele>
        <time>2021-12-29T11:38:20.553Z</time>
      </trkpt>
      <trkpt lat="38.47603" lon="34.75253">
        <ele>1460.940039</ele>
        <time>2021-12-29T11:39:24.514Z</time>
      </trkpt>
      <trkpt lat="38.47402" lon="34.75218">
        <ele>1462.07833</ele>
        <time>2021-12-29T11:40:26.506Z</time>
      </trkpt>
      <trkpt lat="38.47188" lon="34.75218">
        <ele>1457.52309</ele>
        <time>2021-12-29T11:41:15.511Z</time>
      </trkpt>
      <trkpt lat="38.46973" lon="34.75202">
        <ele>1454.76225</ele>
        <time>2021-12-29T11:42:00.515Z</time>
      </trkpt>
      <trkpt lat="38.46774" lon="34.75162">
        <ele>1452.511909</ele>
        <time>2021-12-29T11:42:42.542Z</time>
      </trkpt>
      <trkpt lat="38.46551" lon="34.7513">
        <ele>1450.732945</ele>
        <time>2021-12-29T11:43:32.522Z</time>
      </trkpt>
      <trkpt lat="38.46358" lon="34.75107">
        <ele>1449.574934</ele>
        <time>2021-12-29T11:44:12.505Z</time>
      </trkpt>
      <trkpt lat="38.46126" lon="34.7505">
        <ele>1452.117269</ele>
        <time>2021-12-29T11:45:06.495Z</time>
      </trkpt>
      <trkpt lat="38.45916" lon="34.75036">
        <ele>1454.274211</ele>
        <time>2021-12-29T12:31:00.112Z</time>
      </trkpt>
      <trkpt lat="38.45684" lon="34.7503">
        <ele>1449.490058</ele>
        <time>2021-12-29T12:31:54.134Z</time>
      </trkpt>
      <trkpt lat="38.4546" lon="34.74983">
        <ele>1447.460442</ele>
        <time>2021-12-29T12:32:48.101Z</time>
      </trkpt>
      <trkpt lat="38.45249" lon="34.74861">
        <ele>1451.454451</ele>
        <time>2021-12-29T12:33:48.121Z</time>
      </trkpt>
      <trkpt lat="38.45031" lon="34.74768">
        <ele>1445.175987</ele>
        <time>2021-12-29T12:34:42.105Z</time>
      </trkpt>
      <trkpt lat="38.4482" lon="34.74678">
        <ele>1444.891911</ele>
        <time>2021-12-29T12:35:32.101Z</time>
      </trkpt>
      <trkpt lat="38.44591" lon="34.74575">
        <ele>1444.556762</ele>
        <time>2021-12-29T12:36:27.079Z</time>
      </trkpt>
      <trkpt lat="38.44362" lon="34.74477">
        <ele>1445.695921</ele>
        <time>2021-12-29T12:37:25.072Z</time>
      </trkpt>
      <trkpt lat="38.44169" lon="34.74397">
        <ele>1451.820893</ele>
        <time>2021-12-29T12:38:36.075Z</time>
      </trkpt>
      <trkpt lat="38.4396" lon="34.74314">
        <ele>1450.815913</ele>
        <time>2021-12-29T12:39:39.112Z</time>
      </trkpt>
      <trkpt lat="38.43681" lon="34.74209">
        <ele>1441.801484</ele>
        <time>2021-12-29T12:40:22.110Z</time>
      </trkpt>
      <trkpt lat="38.43482" lon="34.74133">
        <ele>1447.009281</ele>
        <time>2021-12-29T12:41:24.098Z</time>
      </trkpt>
      <trkpt lat="38.43284" lon="34.74059">
        <ele>1450.677126</ele>
        <time>2021-12-29T12:42:31.101Z</time>
      </trkpt>
      <trkpt lat="38.43088" lon="34.73986">
        <ele>1452.512821</ele>
        <time>2021-12-29T12:43:40.100Z</time>
      </trkpt>
      <trkpt lat="38.42893" lon="34.73897">
        <ele>1453.379712</ele>
        <time>2021-12-29T12:44:49.112Z</time>
      </trkpt>
      <trkpt lat="38.42687" lon="34.73834">
        <ele>1451.317938</ele>
        <time>2021-12-29T12:45:51.131Z</time>
      </trkpt>
      <trkpt lat="38.4247" lon="34.73775">
        <ele>1449.710468</ele>
        <time>2021-12-29T12:46:40.097Z</time>
      </trkpt>
      <trkpt lat="38.42264" lon="34.7372">
        <ele>1448.624182</ele>
        <time>2021-12-29T12:47:25.104Z</time>
      </trkpt>
      <trkpt lat="38.42037" lon="34.73659">
        <ele>1444.604604</ele>
        <time>2021-12-29T12:48:15.084Z</time>
      </trkpt>
      <trkpt lat="38.41751" lon="34.73595">
        <ele>1433.307677</ele>
        <time>2021-12-29T12:48:55.102Z</time>
      </trkpt>
      <trkpt lat="38.41449" lon="34.73613">
        <ele>1417.190528</ele>
        <time>2021-12-29T12:49:32.098Z</time>
      </trkpt>
      <trkpt lat="38.41207" lon="34.73641">
        <ele>1415.325527</ele>
        <time>2021-12-29T12:50:15.083Z</time>
      </trkpt>
      <trkpt lat="38.41006" lon="34.73663">
        <ele>1422.281817</ele>
        <time>2021-12-29T12:51:37.118Z</time>
      </trkpt>
      <trkpt lat="38.40819" lon="34.73682">
        <ele>1428.574744</ele>
        <time>2021-12-29T12:52:53.101Z</time>
      </trkpt>
      <trkpt lat="38.40604" lon="34.73708">
        <ele>1432.714729</ele>
        <time>2021-12-29T12:54:01.109Z</time>
      </trkpt>
      <trkpt lat="38.40392" lon="34.73731">
        <ele>1427.274886</ele>
        <time>2021-12-29T12:54:42.087Z</time>
      </trkpt>
      <trkpt lat="38.40172" lon="34.73757">
        <ele>1421.484378</ele>
        <time>2021-12-29T12:55:25.096Z</time>
      </trkpt>
      <trkpt lat="38.39948" lon="34.73765">
        <ele>1418.0478</ele>
        <time>2021-12-29T12:56:05.093Z</time>
      </trkpt>
      <trkpt lat="38.39735" lon="34.73755">
        <ele>1414.376283</ele>
        <time>2021-12-29T12:56:45.085Z</time>
      </trkpt>
      <trkpt lat="38.39515" lon="34.73717">
        <ele>1406.829716</ele>
        <time>2021-12-29T12:57:25.104Z</time>
      </trkpt>
      <trkpt lat="38.39281" lon="34.73686">
        <ele>1401.663842</ele>
        <time>2021-12-29T12:58:05.109Z</time>
      </trkpt>
      <trkpt lat="38.39037" lon="34.73649">
        <ele>1396.814822</ele>
        <time>2021-12-29T12:58:45.129Z</time>
      </trkpt>
      <trkpt lat="38.38812" lon="34.73612">
        <ele>1392.073469</ele>
        <time>2021-12-29T12:59:25.127Z</time>
      </trkpt>
      <trkpt lat="38.38588" lon="34.73573">
        <ele>1391.75139</ele>
        <time>2021-12-29T13:00:05.135Z</time>
      </trkpt>
      <trkpt lat="38.3837" lon="34.73537">
        <ele>1389.584389</ele>
        <time>2021-12-29T13:00:43.107Z</time>
      </trkpt>
      <trkpt lat="38.38161" lon="34.73506">
        <ele>1388.941039</ele>
        <time>2021-12-29T13:01:27.104Z</time>
      </trkpt>
      <trkpt lat="38.37938" lon="34.7346">
        <ele>1393.612479</ele>
        <time>2021-12-29T13:02:20.137Z</time>
      </trkpt>
      <trkpt lat="38.3772" lon="34.73345">
        <ele>1401.469428</ele>
        <time>2021-12-29T13:03:20.101Z</time>
      </trkpt>
      <trkpt lat="38.37551" lon="34.7343">
        <ele>1399.448831</ele>
        <time>2021-12-29T13:04:20.104Z</time>
      </trkpt>
      <trkpt lat="38.37609" lon="34.73475">
        <ele>1399.448831</ele>
        <time>2021-12-29T13:21:33.093Z</time>
      </trkpt>
      <trkpt lat="38.37549" lon="34.73477">
        <ele>1377.297427</ele>
        <time>2021-12-30T06:30:09.456Z</time>
      </trkpt>
      <trkpt lat="38.3752" lon="34.73436">
        <ele>1379.964961</ele>
        <time>2021-12-30T06:30:53.477Z</time>
      </trkpt>
      <trkpt lat="38.37295" lon="34.73362">
        <ele>1384.901504</ele>
        <time>2021-12-30T06:31:56.498Z</time>
      </trkpt>
      <trkpt lat="38.37086" lon="34.73262">
        <ele>1381.036356</ele>
        <time>2021-12-30T06:32:59.465Z</time>
      </trkpt>
      <trkpt lat="38.37022" lon="34.73508">
        <ele>1382.113501</ele>
        <time>2021-12-30T06:33:58.456Z</time>
      </trkpt>
      <trkpt lat="38.36778" lon="34.73572">
        <ele>1373.198456</ele>
        <time>2021-12-30T06:34:55.471Z</time>
      </trkpt>
      <trkpt lat="38.36526" lon="34.73645">
        <ele>1372.097084</ele>
        <time>2021-12-30T06:35:56.456Z</time>
      </trkpt>
      <trkpt lat="38.36318" lon="34.73706">
        <ele>1373.113159</ele>
        <time>2021-12-30T06:36:42.486Z</time>
      </trkpt>
      <trkpt lat="38.36082" lon="34.73775">
        <ele>1373.796291</ele>
        <time>2021-12-30T06:37:37.481Z</time>
      </trkpt>
      <trkpt lat="38.35868" lon="34.73841">
        <ele>1373.144516</ele>
        <time>2021-12-30T06:38:25.461Z</time>
      </trkpt>
      <trkpt lat="38.35657" lon="34.73916">
        <ele>1371.340853</ele>
        <time>2021-12-30T06:39:13.463Z</time>
      </trkpt>
      <trkpt lat="38.35451" lon="34.73957">
        <ele>1370.226352</ele>
        <time>2021-12-30T06:39:56.465Z</time>
      </trkpt>
      <trkpt lat="38.35256" lon="34.74011">
        <ele>1367.053128</ele>
        <time>2021-12-30T06:40:38.456Z</time>
      </trkpt>
      <trkpt lat="38.35054" lon="34.74073">
        <ele>1367.02358</ele>
        <time>2021-12-30T06:41:20.510Z</time>
      </trkpt>
      <trkpt lat="38.34851" lon="34.74135">
        <ele>1365.89142</ele>
        <time>2021-12-30T06:42:05.561Z</time>
      </trkpt>
      <trkpt lat="38.34654" lon="34.74198">
        <ele>1362.775418</ele>
        <time>2021-12-30T06:42:47.469Z</time>
      </trkpt>
      <trkpt lat="38.34448" lon="34.74262">
        <ele>1359.795576</ele>
        <time>2021-12-30T06:43:33.454Z</time>
      </trkpt>
      <trkpt lat="38.34248" lon="34.74325">
        <ele>1358.267839</ele>
        <time>2021-12-30T06:44:17.487Z</time>
      </trkpt>
      <trkpt lat="38.34028" lon="34.74395">
        <ele>1358.537847</ele>
        <time>2021-12-30T06:45:08.472Z</time>
      </trkpt>
      <trkpt lat="38.33801" lon="34.74463">
        <ele>1361.850906</ele>
        <time>2021-12-30T06:46:00.472Z</time>
      </trkpt>
      <trkpt lat="38.33602" lon="34.74522">
        <ele>1367.169285</ele>
        <time>2021-12-30T06:46:43.469Z</time>
      </trkpt>
      <trkpt lat="38.334" lon="34.74584">
        <ele>1365.116577</ele>
        <time>2021-12-30T06:47:28.485Z</time>
      </trkpt>
      <trkpt lat="38.33194" lon="34.74653">
        <ele>1359.823748</ele>
        <time>2021-12-30T06:48:13.465Z</time>
      </trkpt>
      <trkpt lat="38.3299" lon="34.74714">
        <ele>1360.076115</ele>
        <time>2021-12-30T06:48:57.473Z</time>
      </trkpt>
      <trkpt lat="38.32789" lon="34.74777">
        <ele>1358.380268</ele>
        <time>2021-12-30T06:49:39.460Z</time>
      </trkpt>
      <trkpt lat="38.32592" lon="34.7484">
        <ele>1356.265579</ele>
        <time>2021-12-30T06:50:22.479Z</time>
      </trkpt>
      <trkpt lat="38.3238" lon="34.74906">
        <ele>1355.343805</ele>
        <time>2021-12-30T06:51:09.474Z</time>
      </trkpt>
      <trkpt lat="38.32175" lon="34.74972">
        <ele>1354.87606</ele>
        <time>2021-12-30T06:51:55.466Z</time>
      </trkpt>
      <trkpt lat="38.31968" lon="34.75041">
        <ele>1354.51451</ele>
        <time>2021-12-30T06:52:41.485Z</time>
      </trkpt>
      <trkpt lat="38.31776" lon="34.75103">
        <ele>1354.122107</ele>
        <time>2021-12-30T06:53:23.477Z</time>
      </trkpt>
      <trkpt lat="38.31568" lon="34.75171">
        <ele>1353.245824</ele>
        <time>2021-12-30T06:54:10.446Z</time>
      </trkpt>
      <trkpt lat="38.31315" lon="34.75253">
        <ele>1355.776427</ele>
        <time>2021-12-30T06:55:13.473Z</time>
      </trkpt>
      <trkpt lat="38.3107" lon="34.75338">
        <ele>1357.242891</ele>
        <time>2021-12-30T06:56:16.499Z</time>
      </trkpt>
      <trkpt lat="38.3084" lon="34.75418">
        <ele>1358.35337</ele>
        <time>2021-12-30T06:57:19.506Z</time>
      </trkpt>
      <trkpt lat="38.30616" lon="34.75495">
        <ele>1359.206169</ele>
        <time>2021-12-30T06:58:22.470Z</time>
      </trkpt>
      <trkpt lat="38.30366" lon="34.75576">
        <ele>1359.1392</ele>
        <time>2021-12-30T06:59:25.471Z</time>
      </trkpt>
      <trkpt lat="38.30104" lon="34.75659">
        <ele>1358.277833</ele>
        <time>2021-12-30T07:00:28.483Z</time>
      </trkpt>
      <trkpt lat="38.2986" lon="34.75736">
        <ele>1356.396109</ele>
        <time>2021-12-30T07:01:27.465Z</time>
      </trkpt>
      <trkpt lat="38.29606" lon="34.75812">
        <ele>1351.524606</ele>
        <time>2021-12-30T07:02:27.465Z</time>
      </trkpt>
      <trkpt lat="38.29364" lon="34.75883">
        <ele>1349.854074</ele>
        <time>2021-12-30T07:03:23.451Z</time>
      </trkpt>
      <trkpt lat="38.29103" lon="34.75959">
        <ele>1347.60577</ele>
        <time>2021-12-30T07:04:26.507Z</time>
      </trkpt>
      <trkpt lat="38.28843" lon="34.76037">
        <ele>1347.493172</ele>
        <time>2021-12-30T07:05:29.471Z</time>
      </trkpt>
      <trkpt lat="38.28591" lon="34.76113">
        <ele>1346.44293</ele>
        <time>2021-12-30T07:06:32.470Z</time>
      </trkpt>
      <trkpt lat="38.28344" lon="34.7619">
        <ele>1345.974535</ele>
        <time>2021-12-30T07:07:35.483Z</time>
      </trkpt>
      <trkpt lat="38.2809" lon="34.76268">
        <ele>1346.260713</ele>
        <time>2021-12-30T07:08:38.465Z</time>
      </trkpt>
      <trkpt lat="38.27842" lon="34.76345">
        <ele>1348.374804</ele>
        <time>2021-12-30T07:09:44.491Z</time>
      </trkpt>
      <trkpt lat="38.27625" lon="34.76412">
        <ele>1347.663793</ele>
        <time>2021-12-30T07:10:47.465Z</time>
      </trkpt>
      <trkpt lat="38.2739" lon="34.76486">
        <ele>1348.132425</ele>
        <time>2021-12-30T07:11:50.470Z</time>
      </trkpt>
      <trkpt lat="38.27152" lon="34.76562">
        <ele>1347.095617</ele>
        <time>2021-12-30T07:12:53.471Z</time>
      </trkpt>
      <trkpt lat="38.26914" lon="34.76639">
        <ele>1348.197838</ele>
        <time>2021-12-30T07:13:56.488Z</time>
      </trkpt>
      <trkpt lat="38.26685" lon="34.7671">
        <ele>1349.575806</ele>
        <time>2021-12-30T07:14:59.495Z</time>
      </trkpt>
      <trkpt lat="38.26445" lon="34.76786">
        <ele>1351.307795</ele>
        <time>2021-12-30T07:16:02.455Z</time>
      </trkpt>
      <trkpt lat="38.26192" lon="34.76866">
        <ele>1347.900404</ele>
        <time>2021-12-30T07:17:02.472Z</time>
      </trkpt>
      <trkpt lat="38.2594" lon="34.76946">
        <ele>1347.478986</ele>
        <time>2021-12-30T07:18:03.481Z</time>
      </trkpt>
      <trkpt lat="38.25683" lon="34.77028">
        <ele>1348.694246</ele>
        <time>2021-12-30T07:19:06.472Z</time>
      </trkpt>
      <trkpt lat="38.25426" lon="34.77109">
        <ele>1346.54792</ele>
        <time>2021-12-30T07:20:09.520Z</time>
      </trkpt>
      <trkpt lat="38.25169" lon="34.77191">
        <ele>1345.377354</ele>
        <time>2021-12-30T07:21:12.478Z</time>
      </trkpt>
      <trkpt lat="38.24913" lon="34.77273">
        <ele>1345.363708</ele>
        <time>2021-12-30T07:22:14.456Z</time>
      </trkpt>
      <trkpt lat="38.24659" lon="34.77355">
        <ele>1346.297352</ele>
        <time>2021-12-30T07:23:17.484Z</time>
      </trkpt>
      <trkpt lat="38.24408" lon="34.77432">
        <ele>1344.901827</ele>
        <time>2021-12-30T07:24:19.472Z</time>
      </trkpt>
      <trkpt lat="38.24175" lon="34.7752">
        <ele>1345.686911</ele>
        <time>2021-12-30T07:25:22.473Z</time>
      </trkpt>
      <trkpt lat="38.23937" lon="34.77597">
        <ele>1347.256195</ele>
        <time>2021-12-30T07:26:26.479Z</time>
      </trkpt>
      <trkpt lat="38.23702" lon="34.77634">
        <ele>1343.420683</ele>
        <time>2021-12-30T07:27:22.461Z</time>
      </trkpt>
      <trkpt lat="38.2347" lon="34.77619">
        <ele>1342.060679</ele>
        <time>2021-12-30T07:28:14.473Z</time>
      </trkpt>
      <trkpt lat="38.23225" lon="34.77616">
        <ele>1340.467838</ele>
        <time>2021-12-30T07:29:16.474Z</time>
      </trkpt>
      <trkpt lat="38.22986" lon="34.77589">
        <ele>1341.659074</ele>
        <time>2021-12-30T07:30:18.472Z</time>
      </trkpt>
      <trkpt lat="38.22786" lon="34.77556">
        <ele>1343.699528</ele>
        <time>2021-12-30T07:31:37.483Z</time>
      </trkpt>
      <trkpt lat="38.22652" lon="34.77759">
        <ele>1341.008484</ele>
        <time>2021-12-30T07:32:41.480Z</time>
      </trkpt>
      <trkpt lat="38.2245" lon="34.77916">
        <ele>1338.810239</ele>
        <time>2021-12-30T07:33:44.537Z</time>
      </trkpt>
      <trkpt lat="38.2224" lon="34.78019">
        <ele>1342.194474</ele>
        <time>2021-12-30T07:34:47.466Z</time>
      </trkpt>
      <trkpt lat="38.22008" lon="34.78092">
        <ele>1342.471574</ele>
        <time>2021-12-30T07:35:50.491Z</time>
      </trkpt>
      <trkpt lat="38.21792" lon="34.78161">
        <ele>1343.586005</ele>
        <time>2021-12-30T07:36:54.469Z</time>
      </trkpt>
      <trkpt lat="38.21591" lon="34.78233">
        <ele>1345.685134</ele>
        <time>2021-12-30T07:38:03.474Z</time>
      </trkpt>
      <trkpt lat="38.21384" lon="34.78313">
        <ele>1348.44453</ele>
        <time>2021-12-30T07:39:14.497Z</time>
      </trkpt>
      <trkpt lat="38.21184" lon="34.78381">
        <ele>1350.268693</ele>
        <time>2021-12-30T07:40:20.509Z</time>
      </trkpt>
      <trkpt lat="38.21072" lon="34.78376">
        <ele>1350.19685</ele>
        <time>2021-12-30T07:54:44.493Z</time>
      </trkpt>
      <trkpt lat="38.20894" lon="34.78474">
        <ele>1348.264849</ele>
        <time>2021-12-30T07:55:57.470Z</time>
      </trkpt>
      <trkpt lat="38.20675" lon="34.78544">
        <ele>1349.248847</ele>
        <time>2021-12-30T07:57:00.484Z</time>
      </trkpt>
      <trkpt lat="38.20455" lon="34.78607">
        <ele>1351.522373</ele>
        <time>2021-12-30T07:58:03.493Z</time>
      </trkpt>
      <trkpt lat="38.20246" lon="34.78663">
        <ele>1352.653472</ele>
        <time>2021-12-30T07:59:07.490Z</time>
      </trkpt>
      <trkpt lat="38.20021" lon="34.78746">
        <ele>1346.852687</ele>
        <time>2021-12-30T08:00:10.483Z</time>
      </trkpt>
      <trkpt lat="38.19791" lon="34.78815">
        <ele>1350.580068</ele>
        <time>2021-12-30T08:01:13.473Z</time>
      </trkpt>
      <trkpt lat="38.19562" lon="34.78881">
        <ele>1350.366404</ele>
        <time>2021-12-30T08:02:16.506Z</time>
      </trkpt>
      <trkpt lat="38.19326" lon="34.78899">
        <ele>1350.91873</ele>
        <time>2021-12-30T08:03:19.491Z</time>
      </trkpt>
      <trkpt lat="38.19089" lon="34.78915">
        <ele>1352.85306</ele>
        <time>2021-12-30T08:04:22.484Z</time>
      </trkpt>
      <trkpt lat="38.18851" lon="34.78929">
        <ele>1352.171194</ele>
        <time>2021-12-30T08:05:25.494Z</time>
      </trkpt>
      <trkpt lat="38.18624" lon="34.78942">
        <ele>1355.194253</ele>
        <time>2021-12-30T08:06:28.505Z</time>
      </trkpt>
      <trkpt lat="38.18382" lon="34.78961">
        <ele>1354.213011</ele>
        <time>2021-12-30T08:07:31.481Z</time>
      </trkpt>
      <trkpt lat="38.18144" lon="34.78978">
        <ele>1354.814489</ele>
        <time>2021-12-30T08:08:34.511Z</time>
      </trkpt>
      <trkpt lat="38.179" lon="34.78994">
        <ele>1356.153486</ele>
        <time>2021-12-30T08:09:40.488Z</time>
      </trkpt>
      <trkpt lat="38.17677" lon="34.79009">
        <ele>1357.940667</ele>
        <time>2021-12-30T08:10:43.488Z</time>
      </trkpt>
      <trkpt lat="38.17462" lon="34.79023">
        <ele>1359.033528</ele>
        <time>2021-12-30T08:11:46.492Z</time>
      </trkpt>
      <trkpt lat="38.1723" lon="34.79046">
        <ele>1358.181161</ele>
        <time>2021-12-30T08:12:49.485Z</time>
      </trkpt>
      <trkpt lat="38.16998" lon="34.7907">
        <ele>1359.193436</ele>
        <time>2021-12-30T08:13:52.498Z</time>
      </trkpt>
      <trkpt lat="38.16772" lon="34.79094">
        <ele>1361.529657</ele>
        <time>2021-12-30T08:14:55.493Z</time>
      </trkpt>
      <trkpt lat="38.16533" lon="34.79118">
        <ele>1362.564706</ele>
        <time>2021-12-30T08:15:58.500Z</time>
      </trkpt>
      <trkpt lat="38.16314" lon="34.7914">
        <ele>1365.588343</ele>
        <time>2021-12-30T08:17:01.478Z</time>
      </trkpt>
      <trkpt lat="38.16095" lon="34.79142">
        <ele>1368.711584</ele>
        <time>2021-12-30T08:18:05.510Z</time>
      </trkpt>
      <trkpt lat="38.15861" lon="34.79145">
        <ele>1370.283769</ele>
        <time>2021-12-30T08:19:08.534Z</time>
      </trkpt>
      <trkpt lat="38.15624" lon="34.79146">
        <ele>1372.445854</ele>
        <time>2021-12-30T08:20:04.499Z</time>
      </trkpt>
      <trkpt lat="38.15419" lon="34.79147">
        <ele>1370.810207</ele>
        <time>2021-12-30T08:20:47.509Z</time>
      </trkpt>
      <trkpt lat="38.15207" lon="34.79146">
        <ele>1365.291543</ele>
        <time>2021-12-30T08:21:29.511Z</time>
      </trkpt>
      <trkpt lat="38.1495" lon="34.79151">
        <ele>1366.331301</ele>
        <time>2021-12-30T08:22:30.499Z</time>
      </trkpt>
      <trkpt lat="38.14697" lon="34.79152">
        <ele>1369.66105</ele>
        <time>2021-12-30T08:23:32.483Z</time>
      </trkpt>
      <trkpt lat="38.14441" lon="34.79158">
        <ele>1370.196411</ele>
        <time>2021-12-30T08:24:34.498Z</time>
      </trkpt>
      <trkpt lat="38.14214" lon="34.79177">
        <ele>1370.698829</ele>
        <time>2021-12-30T08:25:34.518Z</time>
      </trkpt>
      <trkpt lat="38.14009" lon="34.79206">
        <ele>1369.331582</ele>
        <time>2021-12-30T08:26:17.494Z</time>
      </trkpt>
      <trkpt lat="38.13777" lon="34.79172">
        <ele>1364.670291</ele>
        <time>2021-12-30T08:27:10.501Z</time>
      </trkpt>
      <trkpt lat="38.1356" lon="34.79094">
        <ele>1364.500706</ele>
        <time>2021-12-30T08:28:13.499Z</time>
      </trkpt>
      <trkpt lat="38.1332" lon="34.79006">
        <ele>1368.445625</ele>
        <time>2021-12-30T08:29:12.558Z</time>
      </trkpt>
      <trkpt lat="38.13068" lon="34.78949">
        <ele>1368.622401</ele>
        <time>2021-12-30T08:30:14.508Z</time>
      </trkpt>
      <trkpt lat="38.12811" lon="34.78902">
        <ele>1367.592707</ele>
        <time>2021-12-30T08:31:16.498Z</time>
      </trkpt>
      <trkpt lat="38.1259" lon="34.78875">
        <ele>1365.888943</ele>
        <time>2021-12-30T08:32:05.500Z</time>
      </trkpt>
      <trkpt lat="38.12337" lon="34.78833">
        <ele>1366.417016</ele>
        <time>2021-12-30T08:33:04.510Z</time>
      </trkpt>
      <trkpt lat="38.12092" lon="34.78794">
        <ele>1367.755996</ele>
        <time>2021-12-30T08:34:07.499Z</time>
      </trkpt>
      <trkpt lat="38.11857" lon="34.78743">
        <ele>1369.533436</ele>
        <time>2021-12-30T08:35:07.529Z</time>
      </trkpt>
      <trkpt lat="38.11645" lon="34.78687">
        <ele>1369.296502</ele>
        <time>2021-12-30T08:35:53.508Z</time>
      </trkpt>
      <trkpt lat="38.11434" lon="34.78634">
        <ele>1372.610879</ele>
        <time>2021-12-30T08:36:38.515Z</time>
      </trkpt>
      <trkpt lat="38.11213" lon="34.78577">
        <ele>1372.595755</ele>
        <time>2021-12-30T08:37:27.504Z</time>
      </trkpt>
      <trkpt lat="38.11013" lon="34.78529">
        <ele>1372.103282</ele>
        <time>2021-12-30T08:38:09.541Z</time>
      </trkpt>
      <trkpt lat="38.10789" lon="34.78474">
        <ele>1371.02018</ele>
        <time>2021-12-30T08:39:00.535Z</time>
      </trkpt>
      <trkpt lat="38.10577" lon="34.78432">
        <ele>1371.633567</ele>
        <time>2021-12-30T08:40:06.508Z</time>
      </trkpt>
      <trkpt lat="38.10362" lon="34.78393">
        <ele>1371.976736</ele>
        <time>2021-12-30T08:41:11.507Z</time>
      </trkpt>
      <trkpt lat="38.10125" lon="34.78352">
        <ele>1369.536128</ele>
        <time>2021-12-30T08:42:05.524Z</time>
      </trkpt>
      <trkpt lat="38.09863" lon="34.78303">
        <ele>1367.624823</ele>
        <time>2021-12-30T08:43:08.530Z</time>
      </trkpt>
      <trkpt lat="38.09614" lon="34.78256">
        <ele>1368.662026</ele>
        <time>2021-12-30T08:44:11.509Z</time>
      </trkpt>
      <trkpt lat="38.0936" lon="34.78213">
        <ele>1367.407472</ele>
        <time>2021-12-30T08:45:13.503Z</time>
      </trkpt>
      <trkpt lat="38.0911" lon="34.7819">
        <ele>1370.113001</ele>
        <time>2021-12-30T08:46:11.507Z</time>
      </trkpt>
      <trkpt lat="38.08877" lon="34.78279">
        <ele>1376.94875</ele>
        <time>2021-12-30T08:47:15.502Z</time>
      </trkpt>
      <trkpt lat="38.08663" lon="34.78371">
        <ele>1379.928738</ele>
        <time>2021-12-30T08:48:25.506Z</time>
      </trkpt>
      <trkpt lat="38.08429" lon="34.78474">
        <ele>1367.18879</ele>
        <time>2021-12-30T08:48:52.510Z</time>
      </trkpt>
      <trkpt lat="38.08189" lon="34.78579">
        <ele>1360.319639</ele>
        <time>2021-12-30T08:49:28.518Z</time>
      </trkpt>
      <trkpt lat="38.07977" lon="34.78669">
        <ele>1369.707644</ele>
        <time>2021-12-30T08:50:33.505Z</time>
      </trkpt>
      <trkpt lat="38.07739" lon="34.78773">
        <ele>1372.222121</ele>
        <time>2021-12-30T08:51:44.500Z</time>
      </trkpt>
      <trkpt lat="38.0752" lon="34.78847">
        <ele>1370.400749</ele>
        <time>2021-12-30T08:52:35.515Z</time>
      </trkpt>
      <trkpt lat="38.07295" lon="34.78911">
        <ele>1374.557034</ele>
        <time>2021-12-30T08:53:38.501Z</time>
      </trkpt>
      <trkpt lat="38.07081" lon="34.78781">
        <ele>1367.61761</ele>
        <time>2021-12-30T08:54:31.533Z</time>
      </trkpt>
      <trkpt lat="38.06913" lon="34.78514">
        <ele>1359.072088</ele>
        <time>2021-12-30T08:55:07.520Z</time>
      </trkpt>
      <trkpt lat="38.06775" lon="34.78282">
        <ele>1357.624866</ele>
        <time>2021-12-30T08:55:49.521Z</time>
      </trkpt>
      <trkpt lat="38.06637" lon="34.78041">
        <ele>1356.344972</ele>
        <time>2021-12-30T08:56:31.535Z</time>
      </trkpt>
      <trkpt lat="38.06509" lon="34.77822">
        <ele>1354.438228</ele>
        <time>2021-12-30T08:57:13.566Z</time>
      </trkpt>
      <trkpt lat="38.06356" lon="34.77604">
        <ele>1351.600233</ele>
        <time>2021-12-30T08:57:55.516Z</time>
      </trkpt>
      <trkpt lat="38.06184" lon="34.77395">
        <ele>1348.000691</ele>
        <time>2021-12-30T08:58:37.527Z</time>
      </trkpt>
      <trkpt lat="38.06005" lon="34.77204">
        <ele>1346.105219</ele>
        <time>2021-12-30T08:59:19.543Z</time>
      </trkpt>
      <trkpt lat="38.0583" lon="34.77021">
        <ele>1347.66106</ele>
        <time>2021-12-30T09:00:01.521Z</time>
      </trkpt>
      <trkpt lat="38.05658" lon="34.7684">
        <ele>1346.998321</ele>
        <time>2021-12-30T09:00:43.511Z</time>
      </trkpt>
      <trkpt lat="38.05483" lon="34.76655">
        <ele>1345.555674</ele>
        <time>2021-12-30T09:01:25.511Z</time>
      </trkpt>
      <trkpt lat="38.05311" lon="34.76474">
        <ele>1345.706979</ele>
        <time>2021-12-30T09:02:07.514Z</time>
      </trkpt>
      <trkpt lat="38.05141" lon="34.76312">
        <ele>1345.517234</ele>
        <time>2021-12-30T09:02:49.499Z</time>
      </trkpt>
      <trkpt lat="38.04956" lon="34.76195">
        <ele>1344.745747</ele>
        <time>2021-12-30T09:03:32.522Z</time>
      </trkpt>
      <trkpt lat="38.04757" lon="34.76091">
        <ele>1345.570652</ele>
        <time>2021-12-30T09:04:14.529Z</time>
      </trkpt>
      <trkpt lat="38.04562" lon="34.75956">
        <ele>1346.707563</ele>
        <time>2021-12-30T09:04:56.517Z</time>
      </trkpt>
      <trkpt lat="38.04392" lon="34.75777">
        <ele>1349.227445</ele>
        <time>2021-12-30T09:05:39.529Z</time>
      </trkpt>
      <trkpt lat="38.04257" lon="34.75572">
        <ele>1353.024381</ele>
        <time>2021-12-30T09:06:21.526Z</time>
      </trkpt>
      <trkpt lat="38.04119" lon="34.75372">
        <ele>1352.367105</ele>
        <time>2021-12-30T09:07:05.502Z</time>
      </trkpt>
      <trkpt lat="38.0396" lon="34.75167">
        <ele>1352.137561</ele>
        <time>2021-12-30T09:07:53.518Z</time>
      </trkpt>
      <trkpt lat="38.03776" lon="34.7498">
        <ele>1355.03614</ele>
        <time>2021-12-30T09:08:48.520Z</time>
      </trkpt>
      <trkpt lat="38.03594" lon="34.74834">
        <ele>1350.47592</ele>
        <time>2021-12-30T09:09:31.516Z</time>
      </trkpt>
      <trkpt lat="38.03396" lon="34.74701">
        <ele>1346.196909</ele>
        <time>2021-12-30T09:10:13.515Z</time>
      </trkpt>
      <trkpt lat="38.03193" lon="34.74592">
        <ele>1344.222339</ele>
        <time>2021-12-30T09:11:00.524Z</time>
      </trkpt>
      <trkpt lat="38.02978" lon="34.74523">
        <ele>1341.57909</ele>
        <time>2021-12-30T09:11:47.512Z</time>
      </trkpt>
      <trkpt lat="38.02739" lon="34.74463">
        <ele>1341.403797</ele>
        <time>2021-12-30T09:12:29.511Z</time>
      </trkpt>
      <trkpt lat="38.02502" lon="34.74414">
        <ele>1340.129716</ele>
        <time>2021-12-30T09:13:11.527Z</time>
      </trkpt>
      <trkpt lat="38.02282" lon="34.74364">
        <ele>1337.200453</ele>
        <time>2021-12-30T09:13:53.530Z</time>
      </trkpt>
      <trkpt lat="38.02062" lon="34.74317">
        <ele>1333.024704</ele>
        <time>2021-12-30T09:14:35.523Z</time>
      </trkpt>
      <trkpt lat="38.01831" lon="34.74244">
        <ele>1328.777897</ele>
        <time>2021-12-30T09:15:17.529Z</time>
      </trkpt>
      <trkpt lat="38.01599" lon="34.74155">
        <ele>1332.103744</ele>
        <time>2021-12-30T09:15:59.537Z</time>
      </trkpt>
      <trkpt lat="38.0134" lon="34.74022">
        <ele>1327.035516</ele>
        <time>2021-12-30T09:16:41.519Z</time>
      </trkpt>
      <trkpt lat="38.01034" lon="34.73829">
        <ele>1320.318143</ele>
        <time>2021-12-30T09:17:23.523Z</time>
      </trkpt>
      <trkpt lat="38.00798" lon="34.73673">
        <ele>1315.065444</ele>
        <time>2021-12-30T09:17:53.523Z</time>
      </trkpt>
      <trkpt lat="38.00535" lon="34.73493">
        <ele>1311.272828</ele>
        <time>2021-12-30T09:18:34.515Z</time>
      </trkpt>
      <trkpt lat="38.00341" lon="34.73378">
        <ele>1310.551813</ele>
        <time>2021-12-30T09:19:16.516Z</time>
      </trkpt>
      <trkpt lat="38.00143" lon="34.73269">
        <ele>1309.432552</ele>
        <time>2021-12-30T09:19:58.524Z</time>
      </trkpt>
      <trkpt lat="37.99934" lon="34.73152">
        <ele>1304.417492</ele>
        <time>2021-12-30T09:20:40.562Z</time>
      </trkpt>
      <trkpt lat="37.9971" lon="34.73034">
        <ele>1302.529248</ele>
        <time>2021-12-30T09:21:22.518Z</time>
      </trkpt>
      <trkpt lat="37.99415" lon="34.72874">
        <ele>1296.420979</ele>
        <time>2021-12-30T09:22:04.530Z</time>
      </trkpt>
      <trkpt lat="37.99162" lon="34.72734">
        <ele>1294.63023</ele>
        <time>2021-12-30T09:22:46.501Z</time>
      </trkpt>
      <trkpt lat="37.98957" lon="34.72595">
        <ele>1294.551943</ele>
        <time>2021-12-30T09:23:44.569Z</time>
      </trkpt>
      <trkpt lat="37.98866" lon="34.72321">
        <ele>1290.426187</ele>
        <time>2021-12-30T09:24:29.511Z</time>
      </trkpt>
      <trkpt lat="37.98764" lon="34.72073">
        <ele>1287.506993</ele>
        <time>2021-12-30T09:25:11.514Z</time>
      </trkpt>
      <trkpt lat="37.98641" lon="34.71798">
        <ele>1281.223231</ele>
        <time>2021-12-30T09:25:53.520Z</time>
      </trkpt>
      <trkpt lat="37.98491" lon="34.71523">
        <ele>1275.949328</ele>
        <time>2021-12-30T09:26:35.531Z</time>
      </trkpt>
      <trkpt lat="37.98594" lon="34.71306">
        <ele>1273.487526</ele>
        <time>2021-12-30T09:27:21.524Z</time>
      </trkpt>
      <trkpt lat="37.98727" lon="34.71128">
        <ele>1269.245591</ele>
        <time>2021-12-30T09:28:19.524Z</time>
      </trkpt>
      <trkpt lat="37.98717" lon="34.70872">
        <ele>1263.33466</ele>
        <time>2021-12-30T09:29:20.513Z</time>
      </trkpt>
      <trkpt lat="37.98561" lon="34.70626">
        <ele>1258.179131</ele>
        <time>2021-12-30T09:30:16.558Z</time>
      </trkpt>
      <trkpt lat="37.98418" lon="34.70394">
        <ele>1255.952473</ele>
        <time>2021-12-30T09:31:01.528Z</time>
      </trkpt>
      <trkpt lat="37.98256" lon="34.70206">
        <ele>1257.149641</ele>
        <time>2021-12-30T09:32:28.521Z</time>
      </trkpt>
      <trkpt lat="37.98097" lon="34.70004">
        <ele>1252.528283</ele>
        <time>2021-12-30T09:33:11.525Z</time>
      </trkpt>
      <trkpt lat="37.97987" lon="34.69751">
        <ele>1250.298334</ele>
        <time>2021-12-30T09:33:58.516Z</time>
      </trkpt>
      <trkpt lat="37.97863" lon="34.69535">
        <ele>1250.639392</ele>
        <time>2021-12-30T09:34:43.505Z</time>
      </trkpt>
      <trkpt lat="37.97838" lon="34.69244">
        <ele>1247.76901</ele>
        <time>2021-12-30T09:35:30.520Z</time>
      </trkpt>
      <trkpt lat="37.97732" lon="34.68978">
        <ele>1256.922821</ele>
        <time>2021-12-30T09:36:32.513Z</time>
      </trkpt>
      <trkpt lat="37.97663" lon="34.68736">
        <ele>1257.340613</ele>
        <time>2021-12-30T09:37:38.515Z</time>
      </trkpt>
      <trkpt lat="37.97464" lon="34.68566">
        <ele>1264.386207</ele>
        <time>2021-12-30T09:38:35.515Z</time>
      </trkpt>
      <trkpt lat="37.97266" lon="34.6839">
        <ele>1266.127688</ele>
        <time>2021-12-30T09:43:51.557Z</time>
      </trkpt>
      <trkpt lat="37.9719" lon="34.68329">
        <ele>1275.231932</ele>
        <time>2021-12-30T09:58:53.525Z</time>
      </trkpt>
      <trkpt lat="37.97062" lon="34.6817">
        <ele>1268.598666</ele>
        <time>2021-12-30T10:00:20.521Z</time>
      </trkpt>
      <trkpt lat="37.97101" lon="34.67935">
        <ele>1273.305309</ele>
        <time>2021-12-30T10:02:26.523Z</time>
      </trkpt>
      <trkpt lat="37.97136" lon="34.67812">
        <ele>1273.305309</ele>
        <time>2021-12-30T10:05:14.018Z</time>
      </trkpt>
      <trkpt lat="37.97144" lon="34.6782">
        <ele>1304.41894</ele>
        <time>2021-12-31T06:28:30.406Z</time>
      </trkpt>
      <trkpt lat="37.97022" lon="34.67795">
        <ele>1302.260893</ele>
        <time>2021-12-31T06:38:57.408Z</time>
      </trkpt>
      <trkpt lat="37.96836" lon="34.67824">
        <ele>1291.449125</ele>
        <time>2021-12-31T06:40:55.386Z</time>
      </trkpt>
      <trkpt lat="37.96614" lon="34.67724">
        <ele>1276.12168</ele>
        <time>2021-12-31T06:41:57.423Z</time>
      </trkpt>
      <trkpt lat="37.96398" lon="34.67621">
        <ele>1253.159509</ele>
        <time>2021-12-31T06:42:42.395Z</time>
      </trkpt>
      <trkpt lat="37.96205" lon="34.67656">
        <ele>1269.823147</ele>
        <time>2021-12-31T06:45:03.392Z</time>
      </trkpt>
      <trkpt lat="37.95991" lon="34.67795">
        <ele>1263.880778</ele>
        <time>2021-12-31T06:45:51.404Z</time>
      </trkpt>
      <trkpt lat="37.95996" lon="34.6798">
        <ele>1249.977353</ele>
        <time>2021-12-31T06:49:10.405Z</time>
      </trkpt>
      <trkpt lat="37.95731" lon="34.67977">
        <ele>1242.258108</ele>
        <time>2021-12-31T06:49:53.386Z</time>
      </trkpt>
      <trkpt lat="37.95507" lon="34.67983">
        <ele>1237.983565</ele>
        <time>2021-12-31T06:50:39.395Z</time>
      </trkpt>
      <trkpt lat="37.95305" lon="34.68042">
        <ele>1235.780422</ele>
        <time>2021-12-31T06:51:21.392Z</time>
      </trkpt>
      <trkpt lat="37.95106" lon="34.68105">
        <ele>1236.662013</ele>
        <time>2021-12-31T06:52:05.395Z</time>
      </trkpt>
      <trkpt lat="37.94866" lon="34.68122">
        <ele>1240.21992</ele>
        <time>2021-12-31T06:53:03.414Z</time>
      </trkpt>
      <trkpt lat="37.94619" lon="34.68016">
        <ele>1240.785222</ele>
        <time>2021-12-31T06:54:06.401Z</time>
      </trkpt>
      <trkpt lat="37.94379" lon="34.67914">
        <ele>1244.996866</ele>
        <time>2021-12-31T06:55:03.447Z</time>
      </trkpt>
      <trkpt lat="37.94143" lon="34.67793">
        <ele>1244.408425</ele>
        <time>2021-12-31T06:56:02.387Z</time>
      </trkpt>
      <trkpt lat="37.93918" lon="34.67659">
        <ele>1239.481432</ele>
        <time>2021-12-31T06:56:44.391Z</time>
      </trkpt>
      <trkpt lat="37.93707" lon="34.67528">
        <ele>1237.168103</ele>
        <time>2021-12-31T06:57:24.413Z</time>
      </trkpt>
      <trkpt lat="37.93515" lon="34.67418">
        <ele>1237.264128</ele>
        <time>2021-12-31T06:58:06.404Z</time>
      </trkpt>
      <trkpt lat="37.93321" lon="34.67299">
        <ele>1237.328947</ele>
        <time>2021-12-31T06:58:48.396Z</time>
      </trkpt>
      <trkpt lat="37.93131" lon="34.67208">
        <ele>1237.791838</ele>
        <time>2021-12-31T06:59:30.393Z</time>
      </trkpt>
      <trkpt lat="37.92926" lon="34.67093">
        <ele>1240.289478</ele>
        <time>2021-12-31T07:00:20.411Z</time>
      </trkpt>
      <trkpt lat="37.92737" lon="34.66989">
        <ele>1240.51124</ele>
        <time>2021-12-31T07:01:03.408Z</time>
      </trkpt>
      <trkpt lat="37.92533" lon="34.66875">
        <ele>1238.846403</ele>
        <time>2021-12-31T07:01:45.415Z</time>
      </trkpt>
      <trkpt lat="37.92331" lon="34.66763">
        <ele>1239.672039</ele>
        <time>2021-12-31T07:02:27.433Z</time>
      </trkpt>
      <trkpt lat="37.92099" lon="34.66635">
        <ele>1242.561805</ele>
        <time>2021-12-31T07:03:26.419Z</time>
      </trkpt>
      <trkpt lat="37.91888" lon="34.66524">
        <ele>1242.511083</ele>
        <time>2021-12-31T07:04:08.397Z</time>
      </trkpt>
      <trkpt lat="37.91677" lon="34.66436">
        <ele>1241.69934</ele>
        <time>2021-12-31T07:04:55.408Z</time>
      </trkpt>
      <trkpt lat="37.91452" lon="34.66329">
        <ele>1243.166894</ele>
        <time>2021-12-31T07:06:01.382Z</time>
      </trkpt>
      <trkpt lat="37.91254" lon="34.66171">
        <ele>1241.386838</ele>
        <time>2021-12-31T07:07:08.410Z</time>
      </trkpt>
      <trkpt lat="37.91075" lon="34.65984">
        <ele>1238.60367</ele>
        <time>2021-12-31T07:07:52.427Z</time>
      </trkpt>
      <trkpt lat="37.90906" lon="34.65752">
        <ele>1242.322505</ele>
        <time>2021-12-31T07:08:48.408Z</time>
      </trkpt>
      <trkpt lat="37.90753" lon="34.65565">
        <ele>1241.723732</ele>
        <time>2021-12-31T07:09:35.398Z</time>
      </trkpt>
      <trkpt lat="37.90568" lon="34.65413">
        <ele>1244.311908</ele>
        <time>2021-12-31T07:10:38.395Z</time>
      </trkpt>
      <trkpt lat="37.90359" lon="34.65322">
        <ele>1248.580771</ele>
        <time>2021-12-31T07:11:52.413Z</time>
      </trkpt>
      <trkpt lat="37.90132" lon="34.6517">
        <ele>1245.553532</ele>
        <time>2021-12-31T07:12:42.404Z</time>
      </trkpt>
      <trkpt lat="37.89934" lon="34.65063">
        <ele>1248.094919</ele>
        <time>2021-12-31T07:13:49.404Z</time>
      </trkpt>
      <trkpt lat="37.89732" lon="34.64936">
        <ele>1249.052223</ele>
        <time>2021-12-31T07:14:53.415Z</time>
      </trkpt>
      <trkpt lat="37.89532" lon="34.64817">
        <ele>1249.738187</ele>
        <time>2021-12-31T07:15:42.434Z</time>
      </trkpt>
      <trkpt lat="37.89297" lon="34.64661">
        <ele>1253.900635</ele>
        <time>2021-12-31T07:16:42.412Z</time>
      </trkpt>
      <trkpt lat="37.8907" lon="34.64508">
        <ele>1256.660117</ele>
        <time>2021-12-31T07:17:45.396Z</time>
      </trkpt>
      <trkpt lat="37.88834" lon="34.64348">
        <ele>1259.823527</ele>
        <time>2021-12-31T07:18:47.401Z</time>
      </trkpt>
      <trkpt lat="37.88623" lon="34.6419">
        <ele>1258.138142</ele>
        <time>2021-12-31T07:19:45.398Z</time>
      </trkpt>
      <trkpt lat="37.88435" lon="34.64059">
        <ele>1256.401292</ele>
        <time>2021-12-31T07:20:32.419Z</time>
      </trkpt>
      <trkpt lat="37.88259" lon="34.63938">
        <ele>1256.060588</ele>
        <time>2021-12-31T07:21:14.401Z</time>
      </trkpt>
      <trkpt lat="37.88073" lon="34.63809">
        <ele>1255.073631</ele>
        <time>2021-12-31T07:21:58.419Z</time>
      </trkpt>
      <trkpt lat="37.87872" lon="34.6367">
        <ele>1253.314803</ele>
        <time>2021-12-31T07:22:47.421Z</time>
      </trkpt>
      <trkpt lat="37.87682" lon="34.63582">
        <ele>1256.451462</ele>
        <time>2021-12-31T07:23:56.404Z</time>
      </trkpt>
      <trkpt lat="37.87487" lon="34.63464">
        <ele>1255.810875</ele>
        <time>2021-12-31T07:24:56.404Z</time>
      </trkpt>
      <trkpt lat="37.8728" lon="34.63349">
        <ele>1255.604538</ele>
        <time>2021-12-31T07:25:46.419Z</time>
      </trkpt>
      <trkpt lat="37.87029" lon="34.63209">
        <ele>1250.372323</ele>
        <time>2021-12-31T07:26:28.413Z</time>
      </trkpt>
      <trkpt lat="37.86757" lon="34.63048">
        <ele>1245.128733</ele>
        <time>2021-12-31T07:27:10.434Z</time>
      </trkpt>
      <trkpt lat="37.8648" lon="34.62857">
        <ele>1239.799781</ele>
        <time>2021-12-31T07:27:52.398Z</time>
      </trkpt>
      <trkpt lat="37.86261" lon="34.62702">
        <ele>1238.293498</ele>
        <time>2021-12-31T07:28:34.394Z</time>
      </trkpt>
      <trkpt lat="37.86056" lon="34.6256">
        <ele>1237.959314</ele>
        <time>2021-12-31T07:29:16.466Z</time>
      </trkpt>
      <trkpt lat="37.85862" lon="34.62423">
        <ele>1235.493786</ele>
        <time>2021-12-31T07:29:58.433Z</time>
      </trkpt>
      <trkpt lat="37.85664" lon="34.62287">
        <ele>1232.535387</ele>
        <time>2021-12-31T07:30:40.401Z</time>
      </trkpt>
      <trkpt lat="37.85444" lon="34.62131">
        <ele>1227.021249</ele>
        <time>2021-12-31T07:31:22.392Z</time>
      </trkpt>
      <trkpt lat="37.85214" lon="34.61963">
        <ele>1218.514111</ele>
        <time>2021-12-31T07:32:04.449Z</time>
      </trkpt>
      <trkpt lat="37.85027" lon="34.61727">
        <ele>1210.512634</ele>
        <time>2021-12-31T07:32:46.410Z</time>
      </trkpt>
      <trkpt lat="37.84924" lon="34.61351">
        <ele>1197.401534</ele>
        <time>2021-12-31T07:33:28.408Z</time>
      </trkpt>
      <trkpt lat="37.84794" lon="34.61045">
        <ele>1181.298591</ele>
        <time>2021-12-31T07:34:14.423Z</time>
      </trkpt>
      <trkpt lat="37.84633" lon="34.61055">
        <ele>1180.100688</ele>
        <time>2021-12-31T07:38:07.415Z</time>
      </trkpt>
      <trkpt lat="37.84443" lon="34.61171">
        <ele>1178.923432</ele>
        <time>2021-12-31T07:39:14.396Z</time>
      </trkpt>
      <trkpt lat="37.84297" lon="34.6109">
        <ele>1170.701758</ele>
        <time>2021-12-31T07:40:07.415Z</time>
      </trkpt>
      <trkpt lat="37.84197" lon="34.60882">
        <ele>1166.038107</ele>
        <time>2021-12-31T07:40:54.402Z</time>
      </trkpt>
      <trkpt lat="37.83977" lon="34.60839">
        <ele>1167.205932</ele>
        <time>2021-12-31T07:41:47.447Z</time>
      </trkpt>
      <trkpt lat="37.83827" lon="34.60647">
        <ele>1166.986096</ele>
        <time>2021-12-31T07:42:34.413Z</time>
      </trkpt>
      <trkpt lat="37.83695" lon="34.60392">
        <ele>1166.625661</ele>
        <time>2021-12-31T07:43:29.385Z</time>
      </trkpt>
      <trkpt lat="37.83647" lon="34.601">
        <ele>1166.728773</ele>
        <time>2021-12-31T07:44:24.396Z</time>
      </trkpt>
      <trkpt lat="37.83566" lon="34.5984">
        <ele>1168.49636</ele>
        <time>2021-12-31T07:45:15.410Z</time>
      </trkpt>
      <trkpt lat="37.83457" lon="34.59593">
        <ele>1163.681316</ele>
        <time>2021-12-31T07:45:59.407Z</time>
      </trkpt>
      <trkpt lat="37.83337" lon="34.59349">
        <ele>1158.216795</ele>
        <time>2021-12-31T07:46:45.389Z</time>
      </trkpt>
      <trkpt lat="37.8321" lon="34.59127">
        <ele>1158.43133</ele>
        <time>2021-12-31T07:47:29.412Z</time>
      </trkpt>
      <trkpt lat="37.83063" lon="34.58878">
        <ele>1154.450627</ele>
        <time>2021-12-31T07:48:26.404Z</time>
      </trkpt>
      <trkpt lat="37.82928" lon="34.58631">
        <ele>1151.901206</ele>
        <time>2021-12-31T07:49:18.408Z</time>
      </trkpt>
      <trkpt lat="37.82797" lon="34.5838">
        <ele>1150.165793</ele>
        <time>2021-12-31T07:50:13.395Z</time>
      </trkpt>
      <trkpt lat="37.82677" lon="34.58132">
        <ele>1148.192663</ele>
        <time>2021-12-31T07:51:12.392Z</time>
      </trkpt>
      <trkpt lat="37.82628" lon="34.57868">
        <ele>1143.970048</ele>
        <time>2021-12-31T07:52:03.405Z</time>
      </trkpt>
      <trkpt lat="37.82596" lon="34.57586">
        <ele>1137.41182</ele>
        <time>2021-12-31T07:52:59.407Z</time>
      </trkpt>
      <trkpt lat="37.82487" lon="34.57496">
        <ele>1137.793689</ele>
        <time>2021-12-31T07:54:09.403Z</time>
      </trkpt>
      <trkpt lat="37.82341" lon="34.57358">
        <ele>1143.19766</ele>
        <time>2021-12-31T08:01:05.428Z</time>
      </trkpt>
      <trkpt lat="37.82257" lon="34.57161">
        <ele>1143.300004</ele>
        <time>2021-12-31T08:03:36.411Z</time>
      </trkpt>
      <trkpt lat="37.82255" lon="34.56878">
        <ele>1136.762949</ele>
        <time>2021-12-31T08:04:40.409Z</time>
      </trkpt>
      <trkpt lat="37.82239" lon="34.56568">
        <ele>1128.574894</ele>
        <time>2021-12-31T08:05:28.427Z</time>
      </trkpt>
      <trkpt lat="37.82139" lon="34.5632">
        <ele>1120.622185</ele>
        <time>2021-12-31T08:06:17.419Z</time>
      </trkpt>
      <trkpt lat="37.82116" lon="34.56054">
        <ele>1117.698837</ele>
        <time>2021-12-31T08:07:01.398Z</time>
      </trkpt>
      <trkpt lat="37.82098" lon="34.55793">
        <ele>1116.620175</ele>
        <time>2021-12-31T08:07:44.421Z</time>
      </trkpt>
      <trkpt lat="37.82044" lon="34.55551">
        <ele>1116.92368</ele>
        <time>2021-12-31T08:08:26.417Z</time>
      </trkpt>
      <trkpt lat="37.8196" lon="34.55314">
        <ele>1116.591879</ele>
        <time>2021-12-31T08:09:11.421Z</time>
      </trkpt>
      <trkpt lat="37.81905" lon="34.5504">
        <ele>1115.415602</ele>
        <time>2021-12-31T08:10:00.425Z</time>
      </trkpt>
      <trkpt lat="37.8185" lon="34.5476">
        <ele>1116.282013</ele>
        <time>2021-12-31T08:11:02.424Z</time>
      </trkpt>
      <trkpt lat="37.81803" lon="34.54481">
        <ele>1109.723102</ele>
        <time>2021-12-31T08:11:52.421Z</time>
      </trkpt>
      <trkpt lat="37.8175" lon="34.54227">
        <ele>1110.422914</ele>
        <time>2021-12-31T08:12:37.433Z</time>
      </trkpt>
      <trkpt lat="37.81667" lon="34.54008">
        <ele>1109.332784</ele>
        <time>2021-12-31T08:13:18.424Z</time>
      </trkpt>
      <trkpt lat="37.81581" lon="34.53769">
        <ele>1108.559532</ele>
        <time>2021-12-31T08:14:00.421Z</time>
      </trkpt>
      <trkpt lat="37.81496" lon="34.53532">
        <ele>1107.095522</ele>
        <time>2021-12-31T08:14:42.418Z</time>
      </trkpt>
      <trkpt lat="37.81406" lon="34.53296">
        <ele>1104.75225</ele>
        <time>2021-12-31T08:15:24.440Z</time>
      </trkpt>
      <trkpt lat="37.81303" lon="34.53074">
        <ele>1103.439456</ele>
        <time>2021-12-31T08:16:06.424Z</time>
      </trkpt>
      <trkpt lat="37.81202" lon="34.52859">
        <ele>1101.997755</ele>
        <time>2021-12-31T08:16:48.419Z</time>
      </trkpt>
      <trkpt lat="37.81096" lon="34.52636">
        <ele>1101.262857</ele>
        <time>2021-12-31T08:17:30.423Z</time>
      </trkpt>
      <trkpt lat="37.80991" lon="34.5241">
        <ele>1101.922336</ele>
        <time>2021-12-31T08:18:12.417Z</time>
      </trkpt>
      <trkpt lat="37.80885" lon="34.52189">
        <ele>1101.229404</ele>
        <time>2021-12-31T08:18:54.415Z</time>
      </trkpt>
      <trkpt lat="37.80783" lon="34.51972">
        <ele>1100.021981</ele>
        <time>2021-12-31T08:19:36.417Z</time>
      </trkpt>
      <trkpt lat="37.80674" lon="34.51758">
        <ele>1098.751806</ele>
        <time>2021-12-31T08:20:19.411Z</time>
      </trkpt>
      <trkpt lat="37.80541" lon="34.5154">
        <ele>1096.519445</ele>
        <time>2021-12-31T08:21:08.422Z</time>
      </trkpt>
      <trkpt lat="37.80351" lon="34.51303">
        <ele>1095.296408</ele>
        <time>2021-12-31T08:22:09.432Z</time>
      </trkpt>
      <trkpt lat="37.80199" lon="34.51143">
        <ele>1091.723239</ele>
        <time>2021-12-31T08:22:51.421Z</time>
      </trkpt>
      <trkpt lat="37.80044" lon="34.50974">
        <ele>1089.312215</ele>
        <time>2021-12-31T08:23:33.477Z</time>
      </trkpt>
      <trkpt lat="37.79888" lon="34.50813">
        <ele>1088.535036</ele>
        <time>2021-12-31T08:24:15.429Z</time>
      </trkpt>
      <trkpt lat="37.79743" lon="34.50653">
        <ele>1088.242083</ele>
        <time>2021-12-31T08:24:55.440Z</time>
      </trkpt>
      <trkpt lat="37.796" lon="34.50469">
        <ele>1088.151427</ele>
        <time>2021-12-31T08:25:39.416Z</time>
      </trkpt>
      <trkpt lat="37.79464" lon="34.50293">
        <ele>1088.176584</ele>
        <time>2021-12-31T08:26:21.433Z</time>
      </trkpt>
      <trkpt lat="37.79318" lon="34.50109">
        <ele>1087.027283</ele>
        <time>2021-12-31T08:27:06.422Z</time>
      </trkpt>
      <trkpt lat="37.79183" lon="34.49923">
        <ele>1087.443394</ele>
        <time>2021-12-31T08:27:49.437Z</time>
      </trkpt>
      <trkpt lat="37.7906" lon="34.49723">
        <ele>1086.879549</ele>
        <time>2021-12-31T08:28:32.419Z</time>
      </trkpt>
      <trkpt lat="37.78932" lon="34.49505">
        <ele>1085.994585</ele>
        <time>2021-12-31T08:29:19.433Z</time>
      </trkpt>
      <trkpt lat="37.78826" lon="34.49288">
        <ele>1087.070732</ele>
        <time>2021-12-31T08:30:01.429Z</time>
      </trkpt>
      <trkpt lat="37.78733" lon="34.49064">
        <ele>1087.129419</ele>
        <time>2021-12-31T08:30:43.442Z</time>
      </trkpt>
      <trkpt lat="37.78613" lon="34.48864">
        <ele>1085.064204</ele>
        <time>2021-12-31T08:31:25.425Z</time>
      </trkpt>
      <trkpt lat="37.78484" lon="34.48668">
        <ele>1084.040111</ele>
        <time>2021-12-31T08:32:07.439Z</time>
      </trkpt>
      <trkpt lat="37.78383" lon="34.48446">
        <ele>1084.47439</ele>
        <time>2021-12-31T08:32:49.415Z</time>
      </trkpt>
      <trkpt lat="37.78215" lon="34.48326">
        <ele>1086.675165</ele>
        <time>2021-12-31T08:33:36.431Z</time>
      </trkpt>
      <trkpt lat="37.78003" lon="34.48396">
        <ele>1086.940929</ele>
        <time>2021-12-31T08:34:31.433Z</time>
      </trkpt>
      <trkpt lat="37.77924" lon="34.48124">
        <ele>1085.018531</ele>
        <time>2021-12-31T08:35:22.419Z</time>
      </trkpt>
      <trkpt lat="37.77829" lon="34.47866">
        <ele>1083.552245</ele>
        <time>2021-12-31T08:36:13.430Z</time>
      </trkpt>
      <trkpt lat="37.77685" lon="34.47676">
        <ele>1082.343303</ele>
        <time>2021-12-31T08:36:58.424Z</time>
      </trkpt>
      <trkpt lat="37.77545" lon="34.47492">
        <ele>1082.885797</ele>
        <time>2021-12-31T08:37:40.432Z</time>
      </trkpt>
      <trkpt lat="37.77388" lon="34.47285">
        <ele>1081.182449</ele>
        <time>2021-12-31T08:38:30.431Z</time>
      </trkpt>
      <trkpt lat="37.77209" lon="34.47049">
        <ele>1079.154003</ele>
        <time>2021-12-31T08:39:30.420Z</time>
      </trkpt>
      <trkpt lat="37.77024" lon="34.46805">
        <ele>1078.796941</ele>
        <time>2021-12-31T08:40:33.435Z</time>
      </trkpt>
      <trkpt lat="37.76843" lon="34.46565">
        <ele>1079.792358</ele>
        <time>2021-12-31T08:41:36.420Z</time>
      </trkpt>
      <trkpt lat="37.76666" lon="34.4633">
        <ele>1079.169836</ele>
        <time>2021-12-31T08:42:39.460Z</time>
      </trkpt>
      <trkpt lat="37.76479" lon="34.46083">
        <ele>1080.215742</ele>
        <time>2021-12-31T08:43:42.442Z</time>
      </trkpt>
      <trkpt lat="37.76295" lon="34.45841">
        <ele>1080.953684</ele>
        <time>2021-12-31T08:44:44.429Z</time>
      </trkpt>
      <trkpt lat="37.7611" lon="34.45597">
        <ele>1080.202795</ele>
        <time>2021-12-31T08:45:47.436Z</time>
      </trkpt>
      <trkpt lat="37.75926" lon="34.45356">
        <ele>1080.517783</ele>
        <time>2021-12-31T08:46:50.433Z</time>
      </trkpt>
      <trkpt lat="37.75759" lon="34.45134">
        <ele>1080.548706</ele>
        <time>2021-12-31T08:47:46.456Z</time>
      </trkpt>
      <trkpt lat="37.75573" lon="34.44888">
        <ele>1080.103083</ele>
        <time>2021-12-31T08:48:49.438Z</time>
      </trkpt>
      <trkpt lat="37.75395" lon="34.44656">
        <ele>1079.315629</ele>
        <time>2021-12-31T08:49:49.427Z</time>
      </trkpt>
      <trkpt lat="37.75211" lon="34.44413">
        <ele>1079.719137</ele>
        <time>2021-12-31T08:50:51.433Z</time>
      </trkpt>
      <trkpt lat="37.75046" lon="34.44195">
        <ele>1079.94543</ele>
        <time>2021-12-31T08:51:46.440Z</time>
      </trkpt>
      <trkpt lat="37.74861" lon="34.43955">
        <ele>1079.052557</ele>
        <time>2021-12-31T08:52:49.441Z</time>
      </trkpt>
      <trkpt lat="37.74676" lon="34.43712">
        <ele>1080.057427</ele>
        <time>2021-12-31T08:53:52.414Z</time>
      </trkpt>
      <trkpt lat="37.74493" lon="34.43466">
        <ele>1085.235241</ele>
        <time>2021-12-31T08:54:55.441Z</time>
      </trkpt>
      <trkpt lat="37.74309" lon="34.43224">
        <ele>1085.130476</ele>
        <time>2021-12-31T08:55:56.436Z</time>
      </trkpt>
      <trkpt lat="37.74127" lon="34.42985">
        <ele>1085.343287</ele>
        <time>2021-12-31T08:56:57.440Z</time>
      </trkpt>
      <trkpt lat="37.73862" lon="34.43022">
        <ele>1082.860503</ele>
        <time>2021-12-31T09:22:44.822Z</time>
      </trkpt>
      <trkpt lat="37.73658" lon="34.43098">
        <ele>1084.083877</ele>
        <time>2021-12-31T09:23:49.824Z</time>
      </trkpt>
      <trkpt lat="37.73453" lon="34.43166">
        <ele>1084.826048</ele>
        <time>2021-12-31T09:24:52.847Z</time>
      </trkpt>
      <trkpt lat="37.73228" lon="34.43211">
        <ele>1086.158289</ele>
        <time>2021-12-31T09:25:55.840Z</time>
      </trkpt>
      <trkpt lat="37.73003" lon="34.43268">
        <ele>1087.628667</ele>
        <time>2021-12-31T09:26:58.840Z</time>
      </trkpt>
      <trkpt lat="37.72786" lon="34.43355">
        <ele>1088.859902</ele>
        <time>2021-12-31T09:28:01.835Z</time>
      </trkpt>
      <trkpt lat="37.72615" lon="34.43497">
        <ele>1090.159804</ele>
        <time>2021-12-31T09:29:04.840Z</time>
      </trkpt>
      <trkpt lat="37.72415" lon="34.4357">
        <ele>1091.943055</ele>
        <time>2021-12-31T09:30:11.846Z</time>
      </trkpt>
      <trkpt lat="37.72226" lon="34.4371">
        <ele>1096.530884</ele>
        <time>2021-12-31T09:31:30.835Z</time>
      </trkpt>
      <trkpt lat="37.72087" lon="34.43902">
        <ele>1099.459604</ele>
        <time>2021-12-31T09:32:50.837Z</time>
      </trkpt>
      <trkpt lat="37.71899" lon="34.44039">
        <ele>1104.149449</ele>
        <time>2021-12-31T09:34:14.824Z</time>
      </trkpt>
      <trkpt lat="37.71684" lon="34.44024">
        <ele>1108.503472</ele>
        <time>2021-12-31T09:35:40.840Z</time>
      </trkpt>
      <trkpt lat="37.71457" lon="34.44042">
        <ele>1113.038852</ele>
        <time>2021-12-31T09:37:04.867Z</time>
      </trkpt>
      <trkpt lat="37.71244" lon="34.44107">
        <ele>1116.773284</ele>
        <time>2021-12-31T09:38:28.851Z</time>
      </trkpt>
      <trkpt lat="37.71032" lon="34.44168">
        <ele>1120.822328</ele>
        <time>2021-12-31T09:39:51.847Z</time>
      </trkpt>
      <trkpt lat="37.70811" lon="34.44204">
        <ele>1125.491276</ele>
        <time>2021-12-31T09:41:15.880Z</time>
      </trkpt>
      <trkpt lat="37.70588" lon="34.44217">
        <ele>1130.033698</ele>
        <time>2021-12-31T09:42:36.842Z</time>
      </trkpt>
      <trkpt lat="37.70366" lon="34.44237">
        <ele>1132.9117</ele>
        <time>2021-12-31T09:43:49.889Z</time>
      </trkpt>
      <trkpt lat="37.70157" lon="34.44284">
        <ele>1137.311723</ele>
        <time>2021-12-31T09:44:58.851Z</time>
      </trkpt>
      <trkpt lat="37.69942" lon="34.44383">
        <ele>1142.769288</ele>
        <time>2021-12-31T09:46:18.848Z</time>
      </trkpt>
      <trkpt lat="37.6974" lon="34.44462">
        <ele>1148.128564</ele>
        <time>2021-12-31T09:47:41.844Z</time>
      </trkpt>
      <trkpt lat="37.69537" lon="34.44556">
        <ele>1151.407519</ele>
        <time>2021-12-31T09:48:59.848Z</time>
      </trkpt>
      <trkpt lat="37.69346" lon="34.44653">
        <ele>1157.369997</ele>
        <time>2021-12-31T09:50:31.886Z</time>
      </trkpt>
      <trkpt lat="37.69154" lon="34.44751">
        <ele>1166.760589</ele>
        <time>2021-12-31T09:52:16.840Z</time>
      </trkpt>
      <trkpt lat="37.68963" lon="34.44845">
        <ele>1176.625251</ele>
        <time>2021-12-31T09:54:11.843Z</time>
      </trkpt>
      <trkpt lat="37.6877" lon="34.44912">
        <ele>1183.385421</ele>
        <time>2021-12-31T09:56:09.835Z</time>
      </trkpt>
      <trkpt lat="37.68553" lon="34.4492">
        <ele>1185.252892</ele>
        <time>2021-12-31T09:57:32.845Z</time>
      </trkpt>
      <trkpt lat="37.68337" lon="34.44925">
        <ele>1189.855904</ele>
        <time>2021-12-31T09:58:48.856Z</time>
      </trkpt>
      <trkpt lat="37.68136" lon="34.44992">
        <ele>1196.093665</ele>
        <time>2021-12-31T10:00:16.888Z</time>
      </trkpt>
      <trkpt lat="37.67967" lon="34.45155">
        <ele>1201.461365</ele>
        <time>2021-12-31T10:01:49.850Z</time>
      </trkpt>
      <trkpt lat="37.67778" lon="34.45279">
        <ele>1209.517838</ele>
        <time>2021-12-31T10:03:47.857Z</time>
      </trkpt>
      <trkpt lat="37.67583" lon="34.45385">
        <ele>1218.199608</ele>
        <time>2021-12-31T10:05:38.864Z</time>
      </trkpt>
      <trkpt lat="37.67389" lon="34.45483">
        <ele>1226.757888</ele>
        <time>2021-12-31T10:07:26.891Z</time>
      </trkpt>
      <trkpt lat="37.67194" lon="34.45587">
        <ele>1227.69474</ele>
        <time>2021-12-31T10:08:41.890Z</time>
      </trkpt>
      <trkpt lat="37.66994" lon="34.45695">
        <ele>1228.063437</ele>
        <time>2021-12-31T10:09:44.849Z</time>
      </trkpt>
      <trkpt lat="37.66789" lon="34.45772">
        <ele>1232.930956</ele>
        <time>2021-12-31T10:10:55.845Z</time>
      </trkpt>
      <trkpt lat="37.66578" lon="34.45816">
        <ele>1238.893285</ele>
        <time>2021-12-31T10:12:20.891Z</time>
      </trkpt>
      <trkpt lat="37.66364" lon="34.45836">
        <ele>1245.979302</ele>
        <time>2021-12-31T10:13:57.850Z</time>
      </trkpt>
      <trkpt lat="37.66151" lon="34.45826">
        <ele>1242.257083</ele>
        <time>2021-12-31T10:15:12.875Z</time>
      </trkpt>
      <trkpt lat="37.65918" lon="34.45816">
        <ele>1239.13111</ele>
        <time>2021-12-31T10:16:15.843Z</time>
      </trkpt>
      <trkpt lat="37.65756" lon="34.45734">
        <ele>1238.256403</ele>
        <time>2021-12-31T10:17:24.850Z</time>
      </trkpt>
      <trkpt lat="37.65696" lon="34.45416">
        <ele>1232.349747</ele>
        <time>2021-12-31T10:18:06.883Z</time>
      </trkpt>
      <trkpt lat="37.65564" lon="34.45147">
        <ele>1224.030226</ele>
        <time>2021-12-31T10:18:48.846Z</time>
      </trkpt>
      <trkpt lat="37.65344" lon="34.45065">
        <ele>1223.827609</ele>
        <time>2021-12-31T10:19:49.855Z</time>
      </trkpt>
      <trkpt lat="37.65133" lon="34.45123">
        <ele>1225.513808</ele>
        <time>2021-12-31T10:20:52.842Z</time>
      </trkpt>
      <trkpt lat="37.6492" lon="34.45212">
        <ele>1230.201151</ele>
        <time>2021-12-31T10:22:02.857Z</time>
      </trkpt>
      <trkpt lat="37.64734" lon="34.45334">
        <ele>1233.320912</ele>
        <time>2021-12-31T10:23:11.852Z</time>
      </trkpt>
      <trkpt lat="37.64538" lon="34.45422">
        <ele>1235.365877</ele>
        <time>2021-12-31T10:24:19.851Z</time>
      </trkpt>
      <trkpt lat="37.64345" lon="34.45542">
        <ele>1237.396822</ele>
        <time>2021-12-31T10:25:23.892Z</time>
      </trkpt>
      <trkpt lat="37.64169" lon="34.45673">
        <ele>1239.807131</ele>
        <time>2021-12-31T10:26:31.886Z</time>
      </trkpt>
      <trkpt lat="37.63987" lon="34.4581">
        <ele>1247.946276</ele>
        <time>2021-12-31T10:27:45.844Z</time>
      </trkpt>
      <trkpt lat="37.63799" lon="34.45932">
        <ele>1249.155423</ele>
        <time>2021-12-31T10:29:06.841Z</time>
      </trkpt>
      <trkpt lat="37.63621" lon="34.4606">
        <ele>1252.913229</ele>
        <time>2021-12-31T10:30:29.880Z</time>
      </trkpt>
      <trkpt lat="37.63438" lon="34.45938">
        <ele>1264.366671</ele>
        <time>2021-12-31T10:32:22.859Z</time>
      </trkpt>
      <trkpt lat="37.63249" lon="34.46042">
        <ele>1275.118107</ele>
        <time>2021-12-31T10:34:37.873Z</time>
      </trkpt>
      <trkpt lat="37.63042" lon="34.4609">
        <ele>1286.501055</ele>
        <time>2021-12-31T10:36:19.855Z</time>
      </trkpt>
      <trkpt lat="37.62836" lon="34.46076">
        <ele>1289.475547</ele>
        <time>2021-12-31T10:37:46.862Z</time>
      </trkpt>
      <trkpt lat="37.62631" lon="34.46051">
        <ele>1301.023206</ele>
        <time>2021-12-31T10:39:52.857Z</time>
      </trkpt>
      <trkpt lat="37.62431" lon="34.46008">
        <ele>1309.959559</ele>
        <time>2021-12-31T10:41:59.921Z</time>
      </trkpt>
      <trkpt lat="37.62263" lon="34.45859">
        <ele>1315.587015</ele>
        <time>2021-12-31T10:43:57.850Z</time>
      </trkpt>
      <trkpt lat="37.62029" lon="34.45765">
        <ele>1315.671268</ele>
        <time>2021-12-31T10:52:51.871Z</time>
      </trkpt>
      <trkpt lat="37.61834" lon="34.45705">
        <ele>1333.168016</ele>
        <time>2021-12-31T10:55:16.871Z</time>
      </trkpt>
      <trkpt lat="37.61638" lon="34.45658">
        <ele>1352.732017</ele>
        <time>2021-12-31T10:57:52.869Z</time>
      </trkpt>
      <trkpt lat="37.61436" lon="34.45644">
        <ele>1372.136594</ele>
        <time>2021-12-31T11:00:35.875Z</time>
      </trkpt>
      <trkpt lat="37.61239" lon="34.45584">
        <ele>1385.989889</ele>
        <time>2021-12-31T11:03:10.856Z</time>
      </trkpt>
      <trkpt lat="37.61044" lon="34.45639">
        <ele>1399.775057</ele>
        <time>2021-12-31T11:05:40.861Z</time>
      </trkpt>
      <trkpt lat="37.60867" lon="34.45516">
        <ele>1408.278926</ele>
        <time>2021-12-31T11:07:55.886Z</time>
      </trkpt>
      <trkpt lat="37.60691" lon="34.45394">
        <ele>1414.797144</ele>
        <time>2021-12-31T11:09:28.877Z</time>
      </trkpt>
      <trkpt lat="37.60494" lon="34.45358">
        <ele>1434.432598</ele>
        <time>2021-12-31T11:12:04.873Z</time>
      </trkpt>
      <trkpt lat="37.6031" lon="34.45449">
        <ele>1452.194783</ele>
        <time>2021-12-31T11:14:59.884Z</time>
      </trkpt>
      <trkpt lat="37.60183" lon="34.45639">
        <ele>1470.503781</ele>
        <time>2021-12-31T11:17:56.871Z</time>
      </trkpt>
      <trkpt lat="37.60087" lon="34.45844">
        <ele>1484.718915</ele>
        <time>2021-12-31T11:20:46.875Z</time>
      </trkpt>
      <trkpt lat="37.60007" lon="34.46085">
        <ele>1500.100723</ele>
        <time>2021-12-31T11:28:03.869Z</time>
      </trkpt>
      <trkpt lat="37.59914" lon="34.46313">
        <ele>1517.088827</ele>
        <time>2021-12-31T11:30:51.897Z</time>
      </trkpt>
      <trkpt lat="37.59794" lon="34.46503">
        <ele>1536.252765</ele>
        <time>2021-12-31T11:34:06.882Z</time>
      </trkpt>
      <trkpt lat="37.597" lon="34.46702">
        <ele>1555.690292</ele>
        <time>2021-12-31T11:36:44.872Z</time>
      </trkpt>
      <trkpt lat="37.59674" lon="34.46949">
        <ele>1573.217758</ele>
        <time>2021-12-31T11:39:38.861Z</time>
      </trkpt>
      <trkpt lat="37.59632" lon="34.47191">
        <ele>1590.822523</ele>
        <time>2021-12-31T11:42:43.924Z</time>
      </trkpt>
      <trkpt lat="37.59501" lon="34.4738">
        <ele>1597.880402</ele>
        <time>2021-12-31T11:45:14.863Z</time>
      </trkpt>
      <trkpt lat="37.5925" lon="34.4752">
        <ele>1592.865379</ele>
        <time>2021-12-31T11:46:03.871Z</time>
      </trkpt>
      <trkpt lat="37.59041" lon="34.47522">
        <ele>1600.20809</ele>
        <time>2021-12-31T11:47:44.867Z</time>
      </trkpt>
      <trkpt lat="37.58839" lon="34.47494">
        <ele>1611.06832</ele>
        <time>2021-12-31T11:49:29.882Z</time>
      </trkpt>
      <trkpt lat="37.58623" lon="34.47382">
        <ele>1606.267103</ele>
        <time>2021-12-31T11:50:29.924Z</time>
      </trkpt>
      <trkpt lat="37.58306" lon="34.47334">
        <ele>1581.995616</ele>
        <time>2021-12-31T11:51:10.876Z</time>
      </trkpt>
      <trkpt lat="37.58092" lon="34.47176">
        <ele>1569.025147</ele>
        <time>2021-12-31T11:53:29.866Z</time>
      </trkpt>
      <trkpt lat="37.5782" lon="34.47043">
        <ele>1547.486461</ele>
        <time>2021-12-31T11:54:11.879Z</time>
      </trkpt>
      <trkpt lat="37.57566" lon="34.46992">
        <ele>1534.177716</ele>
        <time>2021-12-31T11:54:53.891Z</time>
      </trkpt>
      <trkpt lat="37.57364" lon="34.47077">
        <ele>1529.797851</ele>
        <time>2021-12-31T11:55:33.880Z</time>
      </trkpt>
      <trkpt lat="37.5713" lon="34.47127">
        <ele>1524.269786</ele>
        <time>2021-12-31T11:56:17.902Z</time>
      </trkpt>
      <trkpt lat="37.56889" lon="34.47173">
        <ele>1524.01105</ele>
        <time>2021-12-31T11:57:14.874Z</time>
      </trkpt>
      <trkpt lat="37.56679" lon="34.4727">
        <ele>1525.171715</ele>
        <time>2021-12-31T11:58:53.882Z</time>
      </trkpt>
      <trkpt lat="37.56487" lon="34.47434">
        <ele>1525.570334</ele>
        <time>2021-12-31T12:00:02.882Z</time>
      </trkpt>
      <trkpt lat="37.56326" lon="34.47649">
        <ele>1532.639477</ele>
        <time>2021-12-31T12:01:11.882Z</time>
      </trkpt>
      <trkpt lat="37.56217" lon="34.47864">
        <ele>1539.516517</ele>
        <time>2021-12-31T12:03:53.913Z</time>
      </trkpt>
      <trkpt lat="37.56096" lon="34.48101">
        <ele>1532.484266</ele>
        <time>2021-12-31T12:04:42.893Z</time>
      </trkpt>
      <trkpt lat="37.55802" lon="34.48176">
        <ele>1507.044857</ele>
        <time>2021-12-31T12:05:24.869Z</time>
      </trkpt>
      <trkpt lat="37.55547" lon="34.48233">
        <ele>1494.235696</ele>
        <time>2021-12-31T12:06:06.942Z</time>
      </trkpt>
      <trkpt lat="37.55333" lon="34.48327">
        <ele>1486.882315</ele>
        <time>2021-12-31T12:06:51.890Z</time>
      </trkpt>
      <trkpt lat="37.55127" lon="34.48426">
        <ele>1479.825948</ele>
        <time>2021-12-31T12:07:44.878Z</time>
      </trkpt>
      <trkpt lat="37.54912" lon="34.48416">
        <ele>1479.398482</ele>
        <time>2021-12-31T12:08:45.889Z</time>
      </trkpt>
      <trkpt lat="37.54774" lon="34.48356">
        <ele>1475.254314</ele>
        <time>2021-12-31T12:09:45.911Z</time>
      </trkpt>
      <trkpt lat="37.54736" lon="34.48119">
        <ele>1475.674701</ele>
        <time>2021-12-31T12:11:08.889Z</time>
      </trkpt>
      <trkpt lat="37.54637" lon="34.48079">
        <ele>1475.674701</ele>
        <time>2021-12-31T12:13:41.703Z</time>
      </trkpt>
      <trkpt lat="37.54651" lon="34.48033">
        <ele>1463.44829</ele>
        <time>2022-01-01T08:22:49.479Z</time>
      </trkpt>
      <trkpt lat="37.54602" lon="34.48149">
        <ele>1464.537427</ele>
        <time>2022-01-01T08:27:05.333Z</time>
      </trkpt>
      <trkpt lat="37.54517" lon="34.4845">
        <ele>1463.49439</ele>
        <time>2022-01-01T08:28:07.279Z</time>
      </trkpt>
      <trkpt lat="37.54446" lon="34.48784">
        <ele>1453.835809</ele>
        <time>2022-01-01T08:28:51.293Z</time>
      </trkpt>
      <trkpt lat="37.54407" lon="34.49108">
        <ele>1449.314877</ele>
        <time>2022-01-01T08:29:35.291Z</time>
      </trkpt>
      <trkpt lat="37.5435" lon="34.49408">
        <ele>1446.335583</ele>
        <time>2022-01-01T08:30:21.298Z</time>
      </trkpt>
      <trkpt lat="37.54306" lon="34.49678">
        <ele>1444.623506</ele>
        <time>2022-01-01T08:31:05.291Z</time>
      </trkpt>
      <trkpt lat="37.54281" lon="34.4997">
        <ele>1443.473562</ele>
        <time>2022-01-01T08:31:50.307Z</time>
      </trkpt>
      <trkpt lat="37.54286" lon="34.50245">
        <ele>1441.494044</ele>
        <time>2022-01-01T08:32:36.290Z</time>
      </trkpt>
      <trkpt lat="37.5431" lon="34.50525">
        <ele>1439.894036</ele>
        <time>2022-01-01T08:33:20.288Z</time>
      </trkpt>
      <trkpt lat="37.54332" lon="34.50826">
        <ele>1435.522781</ele>
        <time>2022-01-01T08:34:04.329Z</time>
      </trkpt>
      <trkpt lat="37.5435" lon="34.51155">
        <ele>1425.142134</ele>
        <time>2022-01-01T08:34:32.286Z</time>
      </trkpt>
      <trkpt lat="37.54371" lon="34.51472">
        <ele>1413.745685</ele>
        <time>2022-01-01T08:34:55.273Z</time>
      </trkpt>
      <trkpt lat="37.54395" lon="34.51811">
        <ele>1406.912082</ele>
        <time>2022-01-01T08:35:35.310Z</time>
      </trkpt>
      <trkpt lat="37.54389" lon="34.52084">
        <ele>1408.959526</ele>
        <time>2022-01-01T08:36:21.285Z</time>
      </trkpt>
      <trkpt lat="37.54343" lon="34.52385">
        <ele>1409.954357</ele>
        <time>2022-01-01T08:37:16.283Z</time>
      </trkpt>
      <trkpt lat="37.54281" lon="34.5269">
        <ele>1409.525128</ele>
        <time>2022-01-01T08:38:15.298Z</time>
      </trkpt>
      <trkpt lat="37.54179" lon="34.5297">
        <ele>1404.177555</ele>
        <time>2022-01-01T08:38:59.278Z</time>
      </trkpt>
      <trkpt lat="37.5398" lon="34.53337">
        <ele>1395.210923</ele>
        <time>2022-01-01T08:39:43.275Z</time>
      </trkpt>
      <trkpt lat="37.53762" lon="34.53663">
        <ele>1388.854218</ele>
        <time>2022-01-01T08:40:26.278Z</time>
      </trkpt>
      <trkpt lat="37.5356" lon="34.5397">
        <ele>1379.409444</ele>
        <time>2022-01-01T08:41:02.293Z</time>
      </trkpt>
      <trkpt lat="37.53395" lon="34.54277">
        <ele>1372.11505</ele>
        <time>2022-01-01T08:41:38.298Z</time>
      </trkpt>
      <trkpt lat="37.53283" lon="34.54557">
        <ele>1368.841596</ele>
        <time>2022-01-01T08:42:22.287Z</time>
      </trkpt>
      <trkpt lat="37.53184" lon="34.54828">
        <ele>1366.477593</ele>
        <time>2022-01-01T08:43:06.292Z</time>
      </trkpt>
      <trkpt lat="37.53077" lon="34.55117">
        <ele>1361.3317</ele>
        <time>2022-01-01T08:43:50.280Z</time>
      </trkpt>
      <trkpt lat="37.52977" lon="34.55391">
        <ele>1357.636496</ele>
        <time>2022-01-01T08:44:34.286Z</time>
      </trkpt>
      <trkpt lat="37.52869" lon="34.5568">
        <ele>1353.17504</ele>
        <time>2022-01-01T08:45:20.295Z</time>
      </trkpt>
      <trkpt lat="37.52769" lon="34.55961">
        <ele>1350.8387</ele>
        <time>2022-01-01T08:46:12.288Z</time>
      </trkpt>
      <trkpt lat="37.52661" lon="34.56257">
        <ele>1350.30669</ele>
        <time>2022-01-01T08:47:18.293Z</time>
      </trkpt>
      <trkpt lat="37.52529" lon="34.56533">
        <ele>1348.247385</ele>
        <time>2022-01-01T08:48:25.284Z</time>
      </trkpt>
      <trkpt lat="37.52461" lon="34.56799">
        <ele>1340.09702</ele>
        <time>2022-01-01T09:20:22.099Z</time>
      </trkpt>
      <trkpt lat="37.52319" lon="34.57192">
        <ele>1326.825766</ele>
        <time>2022-01-01T09:21:06.110Z</time>
      </trkpt>
      <trkpt lat="37.52168" lon="34.57599">
        <ele>1311.823161</ele>
        <time>2022-01-01T09:21:48.108Z</time>
      </trkpt>
      <trkpt lat="37.52065" lon="34.57918">
        <ele>1303.165228</ele>
        <time>2022-01-01T09:22:18.109Z</time>
      </trkpt>
      <trkpt lat="37.52008" lon="34.58202">
        <ele>1297.477311</ele>
        <time>2022-01-01T09:22:43.075Z</time>
      </trkpt>
      <trkpt lat="37.51982" lon="34.58468">
        <ele>1291.233128</ele>
        <time>2022-01-01T09:23:05.111Z</time>
      </trkpt>
      <trkpt lat="37.51959" lon="34.58774">
        <ele>1284.712964</ele>
        <time>2022-01-01T09:23:31.142Z</time>
      </trkpt>
      <trkpt lat="37.51929" lon="34.59166">
        <ele>1280.69339</ele>
        <time>2022-01-01T09:24:14.102Z</time>
      </trkpt>
      <trkpt lat="37.51905" lon="34.59471">
        <ele>1280.095526</ele>
        <time>2022-01-01T09:25:05.084Z</time>
      </trkpt>
      <trkpt lat="37.51882" lon="34.59789">
        <ele>1282.12572</ele>
        <time>2022-01-01T09:26:11.083Z</time>
      </trkpt>
      <trkpt lat="37.51855" lon="34.60135">
        <ele>1282.364903</ele>
        <time>2022-01-01T09:27:19.069Z</time>
      </trkpt>
      <trkpt lat="37.51833" lon="34.60426">
        <ele>1280.589226</ele>
        <time>2022-01-01T09:28:08.094Z</time>
      </trkpt>
      <trkpt lat="37.51811" lon="34.6073">
        <ele>1273.776555</ele>
        <time>2022-01-01T09:28:52.077Z</time>
      </trkpt>
      <trkpt lat="37.51782" lon="34.61113">
        <ele>1267.327957</ele>
        <time>2022-01-01T09:29:36.063Z</time>
      </trkpt>
      <trkpt lat="37.51751" lon="34.61528">
        <ele>1260.755243</ele>
        <time>2022-01-01T09:30:20.065Z</time>
      </trkpt>
      <trkpt lat="37.51759" lon="34.61925">
        <ele>1255.49295</ele>
        <time>2022-01-01T09:31:04.068Z</time>
      </trkpt>
      <trkpt lat="37.51801" lon="34.62227">
        <ele>1255.053414</ele>
        <time>2022-01-01T09:31:54.100Z</time>
      </trkpt>
      <trkpt lat="37.51881" lon="34.62532">
        <ele>1252.118457</ele>
        <time>2022-01-01T09:32:49.109Z</time>
      </trkpt>
      <trkpt lat="37.51998" lon="34.62881">
        <ele>1244.682689</ele>
        <time>2022-01-01T09:33:33.131Z</time>
      </trkpt>
      <trkpt lat="37.52097" lon="34.63181">
        <ele>1237.937443</ele>
        <time>2022-01-01T09:34:02.079Z</time>
      </trkpt>
      <trkpt lat="37.52169" lon="34.63503">
        <ele>1229.442341</ele>
        <time>2022-01-01T09:34:31.098Z</time>
      </trkpt>
      <trkpt lat="37.5221" lon="34.63842">
        <ele>1228.839693</ele>
        <time>2022-01-01T09:35:25.112Z</time>
      </trkpt>
      <trkpt lat="37.52251" lon="34.64157">
        <ele>1229.514231</ele>
        <time>2022-01-01T09:36:22.088Z</time>
      </trkpt>
      <trkpt lat="37.52285" lon="34.64441">
        <ele>1230.192568</ele>
        <time>2022-01-01T09:37:12.100Z</time>
      </trkpt>
      <trkpt lat="37.52319" lon="34.64733">
        <ele>1226.120394</ele>
        <time>2022-01-01T09:37:58.104Z</time>
      </trkpt>
      <trkpt lat="37.52373" lon="34.65076">
        <ele>1216.358751</ele>
        <time>2022-01-01T09:38:42.108Z</time>
      </trkpt>
      <trkpt lat="37.52463" lon="34.65468">
        <ele>1209.744182</ele>
        <time>2022-01-01T09:39:26.115Z</time>
      </trkpt>
      <trkpt lat="37.5256" lon="34.65873">
        <ele>1200.20844</ele>
        <time>2022-01-01T09:40:10.101Z</time>
      </trkpt>
      <trkpt lat="37.52549" lon="34.66151">
        <ele>1198.546638</ele>
        <time>2022-01-01T09:41:01.100Z</time>
      </trkpt>
      <trkpt lat="37.52505" lon="34.66393">
        <ele>1196.64821</ele>
        <time>2022-01-01T09:42:03.104Z</time>
      </trkpt>
      <trkpt lat="37.52537" lon="34.66692">
        <ele>1191.772912</ele>
        <time>2022-01-01T09:42:57.126Z</time>
      </trkpt>
      <trkpt lat="37.52479" lon="34.66967">
        <ele>1190.869173</ele>
        <time>2022-01-01T09:44:09.085Z</time>
      </trkpt>
      <trkpt lat="37.52383" lon="34.67219">
        <ele>1202.399289</ele>
        <time>2022-01-01T09:45:44.130Z</time>
      </trkpt>
      <trkpt lat="37.52465" lon="34.67434">
        <ele>1198.681027</ele>
        <time>2022-01-01T09:46:54.091Z</time>
      </trkpt>
      <trkpt lat="37.52368" lon="34.67616">
        <ele>1204.391598</ele>
        <time>2022-01-01T09:48:56.107Z</time>
      </trkpt>
      <trkpt lat="37.52341" lon="34.67892">
        <ele>1204.961385</ele>
        <time>2022-01-01T09:50:20.092Z</time>
      </trkpt>
      <trkpt lat="37.52331" lon="34.68165">
        <ele>1193.402595</ele>
        <time>2022-01-01T09:51:12.123Z</time>
      </trkpt>
      <trkpt lat="37.52393" lon="34.68452">
        <ele>1173.763703</ele>
        <time>2022-01-01T09:51:59.105Z</time>
      </trkpt>
      <trkpt lat="37.52428" lon="34.68775">
        <ele>1163.513713</ele>
        <time>2022-01-01T09:52:51.102Z</time>
      </trkpt>
      <trkpt lat="37.52324" lon="34.69032">
        <ele>1164.892126</ele>
        <time>2022-01-01T09:53:52.110Z</time>
      </trkpt>
      <trkpt lat="37.52309" lon="34.69322">
        <ele>1160.745905</ele>
        <time>2022-01-01T09:55:02.095Z</time>
      </trkpt>
      <trkpt lat="37.52268" lon="34.69624">
        <ele>1150.474557</ele>
        <time>2022-01-01T09:56:02.094Z</time>
      </trkpt>
      <trkpt lat="37.5224" lon="34.69903">
        <ele>1146.461231</ele>
        <time>2022-01-01T09:57:03.086Z</time>
      </trkpt>
      <trkpt lat="37.52279" lon="34.70201">
        <ele>1139.657194</ele>
        <time>2022-01-01T09:58:07.128Z</time>
      </trkpt>
      <trkpt lat="37.52318" lon="34.70447">
        <ele>1143.776253</ele>
        <time>2022-01-01T09:59:48.092Z</time>
      </trkpt>
      <trkpt lat="37.52296" lon="34.70752">
        <ele>1142.961712</ele>
        <time>2022-01-01T10:00:38.091Z</time>
      </trkpt>
      <trkpt lat="37.52381" lon="34.71109">
        <ele>1134.41896</ele>
        <time>2022-01-01T10:01:22.109Z</time>
      </trkpt>
      <trkpt lat="37.52449" lon="34.71499">
        <ele>1124.34868</ele>
        <time>2022-01-01T10:02:06.089Z</time>
      </trkpt>
      <trkpt lat="37.52486" lon="34.71893">
        <ele>1115.699432</ele>
        <time>2022-01-01T10:02:50.091Z</time>
      </trkpt>
      <trkpt lat="37.52414" lon="34.72185">
        <ele>1106.582044</ele>
        <time>2022-01-01T10:03:34.097Z</time>
      </trkpt>
      <trkpt lat="37.52281" lon="34.72401">
        <ele>1107.628885</ele>
        <time>2022-01-01T10:04:18.108Z</time>
      </trkpt>
      <trkpt lat="37.52169" lon="34.72733">
        <ele>1100.657765</ele>
        <time>2022-01-01T10:05:02.105Z</time>
      </trkpt>
      <trkpt lat="37.52284" lon="34.73176">
        <ele>1080.663215</ele>
        <time>2022-01-01T10:05:47.095Z</time>
      </trkpt>
      <trkpt lat="37.52401" lon="34.73586">
        <ele>1058.408115</ele>
        <time>2022-01-01T10:06:31.105Z</time>
      </trkpt>
      <trkpt lat="37.52196" lon="34.73918">
        <ele>1046.27685</ele>
        <time>2022-01-01T10:07:15.095Z</time>
      </trkpt>
      <trkpt lat="37.5186" lon="34.74034">
        <ele>1035.802736</ele>
        <time>2022-01-01T10:07:59.125Z</time>
      </trkpt>
      <trkpt lat="37.51595" lon="34.74256">
        <ele>1024.916179</ele>
        <time>2022-01-01T10:08:42.091Z</time>
      </trkpt>
      <trkpt lat="37.51375" lon="34.74576">
        <ele>1012.122193</ele>
        <time>2022-01-01T10:09:25.099Z</time>
      </trkpt>
      <trkpt lat="37.51296" lon="34.74903">
        <ele>1001.478699</ele>
        <time>2022-01-01T10:09:56.084Z</time>
      </trkpt>
      <trkpt lat="37.51213" lon="34.75261">
        <ele>988.830151</ele>
        <time>2022-01-01T10:10:42.092Z</time>
      </trkpt>
      <trkpt lat="37.51152" lon="34.75611">
        <ele>982.119571</ele>
        <time>2022-01-01T10:11:26.110Z</time>
      </trkpt>
      <trkpt lat="37.51123" lon="34.76043">
        <ele>976.152739</ele>
        <time>2022-01-01T10:12:10.134Z</time>
      </trkpt>
      <trkpt lat="37.51101" lon="34.76396">
        <ele>970.543054</ele>
        <time>2022-01-01T10:12:57.123Z</time>
      </trkpt>
      <trkpt lat="37.51086" lon="34.76692">
        <ele>970.2411</ele>
        <time>2022-01-01T10:13:49.094Z</time>
      </trkpt>
      <trkpt lat="37.5107" lon="34.77008">
        <ele>968.490113</ele>
        <time>2022-01-01T10:14:35.087Z</time>
      </trkpt>
      <trkpt lat="37.51045" lon="34.7739">
        <ele>959.187859</ele>
        <time>2022-01-01T10:15:19.106Z</time>
      </trkpt>
      <trkpt lat="37.50981" lon="34.77678">
        <ele>957.201757</ele>
        <time>2022-01-01T10:16:05.092Z</time>
      </trkpt>
      <trkpt lat="37.50882" lon="34.77929">
        <ele>957.456672</ele>
        <time>2022-01-01T10:16:51.108Z</time>
      </trkpt>
      <trkpt lat="37.50782" lon="34.78176">
        <ele>955.961386</ele>
        <time>2022-01-01T10:17:36.099Z</time>
      </trkpt>
      <trkpt lat="37.50686" lon="34.78448">
        <ele>949.546639</ele>
        <time>2022-01-01T10:18:20.093Z</time>
      </trkpt>
      <trkpt lat="37.50696" lon="34.78843">
        <ele>946.062533</ele>
        <time>2022-01-01T10:19:04.082Z</time>
      </trkpt>
      <trkpt lat="37.5073" lon="34.79203">
        <ele>945.95146</ele>
        <time>2022-01-01T10:19:48.107Z</time>
      </trkpt>
      <trkpt lat="37.50704" lon="34.79489">
        <ele>943.244641</ele>
        <time>2022-01-01T10:20:32.086Z</time>
      </trkpt>
      <trkpt lat="37.50621" lon="34.79798">
        <ele>935.180514</ele>
        <time>2022-01-01T10:21:18.149Z</time>
      </trkpt>
      <trkpt lat="37.50541" lon="34.80123">
        <ele>932.165491</ele>
        <time>2022-01-01T10:22:02.102Z</time>
      </trkpt>
      <trkpt lat="37.50452" lon="34.80454">
        <ele>925.6292</ele>
        <time>2022-01-01T10:22:46.118Z</time>
      </trkpt>
      <trkpt lat="37.50385" lon="34.80769">
        <ele>919.494155</ele>
        <time>2022-01-01T10:23:30.094Z</time>
      </trkpt>
      <trkpt lat="37.50399" lon="34.81067">
        <ele>920.560293</ele>
        <time>2022-01-01T10:24:14.087Z</time>
      </trkpt>
      <trkpt lat="37.50401" lon="34.81357">
        <ele>915.725813</ele>
        <time>2022-01-01T10:24:58.089Z</time>
      </trkpt>
      <trkpt lat="37.50304" lon="34.81617">
        <ele>905.998334</ele>
        <time>2022-01-01T10:25:42.112Z</time>
      </trkpt>
      <trkpt lat="37.50175" lon="34.81867">
        <ele>909.67213</ele>
        <time>2022-01-01T10:26:30.098Z</time>
      </trkpt>
      <trkpt lat="37.50056" lon="34.82113">
        <ele>906.689602</ele>
        <time>2022-01-01T10:27:17.108Z</time>
      </trkpt>
      <trkpt lat="37.49939" lon="34.82354">
        <ele>899.940893</ele>
        <time>2022-01-01T10:28:01.139Z</time>
      </trkpt>
      <trkpt lat="37.49801" lon="34.82629">
        <ele>892.877758</ele>
        <time>2022-01-01T10:28:45.102Z</time>
      </trkpt>
      <trkpt lat="37.4963" lon="34.82841">
        <ele>893.557713</ele>
        <time>2022-01-01T10:29:29.083Z</time>
      </trkpt>
      <trkpt lat="37.49441" lon="34.82996">
        <ele>896.2326</ele>
        <time>2022-01-01T10:30:15.099Z</time>
      </trkpt>
      <trkpt lat="37.49342" lon="34.83248">
        <ele>890.730012</ele>
        <time>2022-01-01T10:31:00.087Z</time>
      </trkpt>
      <trkpt lat="37.49322" lon="34.83561">
        <ele>889.930655</ele>
        <time>2022-01-01T10:31:46.139Z</time>
      </trkpt>
      <trkpt lat="37.49213" lon="34.83831">
        <ele>883.953314</ele>
        <time>2022-01-01T10:32:30.100Z</time>
      </trkpt>
      <trkpt lat="37.49085" lon="34.84083">
        <ele>878.201352</ele>
        <time>2022-01-01T10:33:14.090Z</time>
      </trkpt>
      <trkpt lat="37.48956" lon="34.84318">
        <ele>878.416415</ele>
        <time>2022-01-01T10:33:59.148Z</time>
      </trkpt>
      <trkpt lat="37.4879" lon="34.84518">
        <ele>874.761383</ele>
        <time>2022-01-01T10:34:43.089Z</time>
      </trkpt>
      <trkpt lat="37.48586" lon="34.84667">
        <ele>874.165271</ele>
        <time>2022-01-01T10:35:27.110Z</time>
      </trkpt>
      <trkpt lat="37.48406" lon="34.84857">
        <ele>871.554564</ele>
        <time>2022-01-01T10:36:11.095Z</time>
      </trkpt>
      <trkpt lat="37.48251" lon="34.85065">
        <ele>870.293696</ele>
        <time>2022-01-01T10:36:58.106Z</time>
      </trkpt>
      <trkpt lat="37.48095" lon="34.85263">
        <ele>864.533967</ele>
        <time>2022-01-01T10:37:42.086Z</time>
      </trkpt>
      <trkpt lat="37.47932" lon="34.85471">
        <ele>857.784301</ele>
        <time>2022-01-01T10:38:26.101Z</time>
      </trkpt>
      <trkpt lat="37.4776" lon="34.85652">
        <ele>864.298158</ele>
        <time>2022-01-01T10:39:10.102Z</time>
      </trkpt>
      <trkpt lat="37.47623" lon="34.85883">
        <ele>863.793096</ele>
        <time>2022-01-01T10:39:56.126Z</time>
      </trkpt>
      <trkpt lat="37.47427" lon="34.86045">
        <ele>860.352067</ele>
        <time>2022-01-01T10:40:40.105Z</time>
      </trkpt>
      <trkpt lat="37.47191" lon="34.86213">
        <ele>857.082423</ele>
        <time>2022-01-01T10:41:24.085Z</time>
      </trkpt>
      <trkpt lat="37.4697" lon="34.86354">
        <ele>854.496127</ele>
        <time>2022-01-01T10:42:34.117Z</time>
      </trkpt>
      <trkpt lat="37.46777" lon="34.86513">
        <ele>852.53105</ele>
        <time>2022-01-01T10:43:23.138Z</time>
      </trkpt>
      <trkpt lat="37.46632" lon="34.86712">
        <ele>852.64657</ele>
        <time>2022-01-01T10:44:07.089Z</time>
      </trkpt>
      <trkpt lat="37.46506" lon="34.8696">
        <ele>851.948498</ele>
        <time>2022-01-01T10:44:57.107Z</time>
      </trkpt>
      <trkpt lat="37.4639" lon="34.87181">
        <ele>849.897934</ele>
        <time>2022-01-01T10:45:41.109Z</time>
      </trkpt>
      <trkpt lat="37.46273" lon="34.87407">
        <ele>846.234479</ele>
        <time>2022-01-01T10:46:25.095Z</time>
      </trkpt>
      <trkpt lat="37.46084" lon="34.8756">
        <ele>840.596917</ele>
        <time>2022-01-01T10:47:09.111Z</time>
      </trkpt>
      <trkpt lat="37.45825" lon="34.87658">
        <ele>841.400177</ele>
        <time>2022-01-01T10:47:55.114Z</time>
      </trkpt>
      <trkpt lat="37.45589" lon="34.87672">
        <ele>835.665199</ele>
        <time>2022-01-01T10:48:41.105Z</time>
      </trkpt>
      <trkpt lat="37.45365" lon="34.87629">
        <ele>829.850137</ele>
        <time>2022-01-01T10:49:28.098Z</time>
      </trkpt>
      <trkpt lat="37.45132" lon="34.87585">
        <ele>830.013628</ele>
        <time>2022-01-01T10:50:12.091Z</time>
      </trkpt>
      <trkpt lat="37.44885" lon="34.8753">
        <ele>828.083519</ele>
        <time>2022-01-01T10:50:56.106Z</time>
      </trkpt>
      <trkpt lat="37.4466" lon="34.87469">
        <ele>827.198925</ele>
        <time>2022-01-01T10:51:40.140Z</time>
      </trkpt>
      <trkpt lat="37.44435" lon="34.87424">
        <ele>825.336927</ele>
        <time>2022-01-01T10:52:24.114Z</time>
      </trkpt>
      <trkpt lat="37.44187" lon="34.87441">
        <ele>823.309072</ele>
        <time>2022-01-01T10:53:48.095Z</time>
      </trkpt>
      <trkpt lat="37.43973" lon="34.87522">
        <ele>823.331956</ele>
        <time>2022-01-01T10:54:35.115Z</time>
      </trkpt>
      <trkpt lat="37.43754" lon="34.87628">
        <ele>818.742475</ele>
        <time>2022-01-01T10:55:24.094Z</time>
      </trkpt>
      <trkpt lat="37.43528" lon="34.87672">
        <ele>820.468787</ele>
        <time>2022-01-01T10:56:21.108Z</time>
      </trkpt>
      <trkpt lat="37.43434" lon="34.87638">
        <ele>820.468787</ele>
        <time>2022-01-01T10:57:59.767Z</time>
      </trkpt>
      <trkpt lat="37.4344" lon="34.87627">
        <ele>843.086358</ele>
        <time>2022-01-03T05:59:56.233Z</time>
      </trkpt>
      <trkpt lat="37.43312" lon="34.87573">
        <ele>838.539041</ele>
        <time>2022-01-03T06:03:40.841Z</time>
      </trkpt>
      <trkpt lat="37.43136" lon="34.87491">
        <ele>823.625392</ele>
        <time>2022-01-03T06:04:58.851Z</time>
      </trkpt>
      <trkpt lat="37.4289" lon="34.87464">
        <ele>828.454896</ele>
        <time>2022-01-03T06:06:09.832Z</time>
      </trkpt>
      <trkpt lat="37.42665" lon="34.87429">
        <ele>828.211949</ele>
        <time>2022-01-03T06:07:17.867Z</time>
      </trkpt>
      <trkpt lat="37.42483" lon="34.873">
        <ele>823.501365</ele>
        <time>2022-01-03T06:08:23.851Z</time>
      </trkpt>
      <trkpt lat="37.4225" lon="34.87212">
        <ele>831.30035</ele>
        <time>2022-01-03T06:09:22.846Z</time>
      </trkpt>
      <trkpt lat="37.42017" lon="34.87206">
        <ele>835.753535</ele>
        <time>2022-01-03T06:10:23.830Z</time>
      </trkpt>
      <trkpt lat="37.41838" lon="34.87362">
        <ele>824.224829</ele>
        <time>2022-01-03T06:11:13.845Z</time>
      </trkpt>
      <trkpt lat="37.41667" lon="34.87562">
        <ele>821.202371</ele>
        <time>2022-01-03T06:12:29.841Z</time>
      </trkpt>
      <trkpt lat="37.4139" lon="34.8761">
        <ele>813.922168</ele>
        <time>2022-01-03T06:13:20.847Z</time>
      </trkpt>
      <trkpt lat="37.41192" lon="34.87704">
        <ele>820.444525</ele>
        <time>2022-01-03T06:14:44.835Z</time>
      </trkpt>
      <trkpt lat="37.40994" lon="34.87824">
        <ele>827.410656</ele>
        <time>2022-01-03T06:16:35.858Z</time>
      </trkpt>
      <trkpt lat="37.40787" lon="34.87922">
        <ele>833.255148</ele>
        <time>2022-01-03T06:17:55.844Z</time>
      </trkpt>
      <trkpt lat="37.40604" lon="34.87871">
        <ele>836.70666</ele>
        <time>2022-01-03T06:19:26.841Z</time>
      </trkpt>
      <trkpt lat="37.40484" lon="34.87641">
        <ele>843.409688</ele>
        <time>2022-01-03T06:21:10.864Z</time>
      </trkpt>
      <trkpt lat="37.40446" lon="34.87377">
        <ele>849.222003</ele>
        <time>2022-01-03T06:22:43.858Z</time>
      </trkpt>
      <trkpt lat="37.40382" lon="34.87116">
        <ele>847.245116</ele>
        <time>2022-01-03T06:23:53.900Z</time>
      </trkpt>
      <trkpt lat="37.40421" lon="34.8683">
        <ele>852.228971</ele>
        <time>2022-01-03T06:25:04.863Z</time>
      </trkpt>
      <trkpt lat="37.4043" lon="34.86558">
        <ele>853.854326</ele>
        <time>2022-01-03T06:26:35.854Z</time>
      </trkpt>
      <trkpt lat="37.40315" lon="34.8632">
        <ele>852.100635</ele>
        <time>2022-01-03T06:27:55.863Z</time>
      </trkpt>
      <trkpt lat="37.40163" lon="34.86108">
        <ele>855.587339</ele>
        <time>2022-01-03T06:29:13.863Z</time>
      </trkpt>
      <trkpt lat="37.39993" lon="34.85926">
        <ele>863.597364</ele>
        <time>2022-01-03T06:30:57.851Z</time>
      </trkpt>
      <trkpt lat="37.39783" lon="34.85897">
        <ele>867.754506</ele>
        <time>2022-01-03T06:32:25.871Z</time>
      </trkpt>
      <trkpt lat="37.39606" lon="34.85729">
        <ele>873.406645</ele>
        <time>2022-01-03T06:33:57.861Z</time>
      </trkpt>
      <trkpt lat="37.39512" lon="34.85469">
        <ele>876.624813</ele>
        <time>2022-01-03T06:35:26.843Z</time>
      </trkpt>
      <trkpt lat="37.39458" lon="34.85217">
        <ele>884.560992</ele>
        <time>2022-01-03T06:37:02.859Z</time>
      </trkpt>
      <trkpt lat="37.39253" lon="34.85079">
        <ele>885.032171</ele>
        <time>2022-01-03T06:38:34.839Z</time>
      </trkpt>
      <trkpt lat="37.3904" lon="34.85031">
        <ele>895.119874</ele>
        <time>2022-01-03T06:40:34.854Z</time>
      </trkpt>
      <trkpt lat="37.38832" lon="34.85043">
        <ele>899.506759</ele>
        <time>2022-01-03T06:42:19.851Z</time>
      </trkpt>
      <trkpt lat="37.38644" lon="34.84902">
        <ele>911.129388</ele>
        <time>2022-01-03T06:44:09.851Z</time>
      </trkpt>
      <trkpt lat="37.3847" lon="34.84734">
        <ele>923.508518</ele>
        <time>2022-01-03T06:46:22.851Z</time>
      </trkpt>
      <trkpt lat="37.38299" lon="34.84592">
        <ele>933.080329</ele>
        <time>2022-01-03T06:48:04.862Z</time>
      </trkpt>
      <trkpt lat="37.38105" lon="34.84419">
        <ele>934.842788</ele>
        <time>2022-01-03T06:49:31.876Z</time>
      </trkpt>
      <trkpt lat="37.37873" lon="34.84289">
        <ele>930.040663</ele>
        <time>2022-01-03T06:50:40.865Z</time>
      </trkpt>
      <trkpt lat="37.37672" lon="34.84193">
        <ele>941.974918</ele>
        <time>2022-01-03T06:52:24.859Z</time>
      </trkpt>
      <trkpt lat="37.37572" lon="34.83964">
        <ele>955.601625</ele>
        <time>2022-01-03T06:54:22.867Z</time>
      </trkpt>
      <trkpt lat="37.37454" lon="34.83729">
        <ele>959.724238</ele>
        <time>2022-01-03T06:56:19.875Z</time>
      </trkpt>
      <trkpt lat="37.37287" lon="34.8356">
        <ele>968.014519</ele>
        <time>2022-01-03T06:57:59.859Z</time>
      </trkpt>
      <trkpt lat="37.37155" lon="34.83344">
        <ele>981.295193</ele>
        <time>2022-01-03T06:59:55.843Z</time>
      </trkpt>
      <trkpt lat="37.36992" lon="34.83205">
        <ele>993.494555</ele>
        <time>2022-01-03T07:01:48.856Z</time>
      </trkpt>
      <trkpt lat="37.36891" lon="34.82993">
        <ele>999.873659</ele>
        <time>2022-01-03T07:03:44.887Z</time>
      </trkpt>
      <trkpt lat="37.36813" lon="34.82747">
        <ele>1008.830901</ele>
        <time>2022-01-03T07:05:52.862Z</time>
      </trkpt>
      <trkpt lat="37.36637" lon="34.8261">
        <ele>1016.510543</ele>
        <time>2022-01-03T07:15:57.854Z</time>
      </trkpt>
      <trkpt lat="37.3647" lon="34.825">
        <ele>1043.279674</ele>
        <time>2022-01-03T07:18:29.863Z</time>
      </trkpt>
      <trkpt lat="37.363" lon="34.8236">
        <ele>1061.069519</ele>
        <time>2022-01-03T07:21:03.863Z</time>
      </trkpt>
      <trkpt lat="37.36195" lon="34.82409">
        <ele>1073.206192</ele>
        <time>2022-01-03T07:23:47.860Z</time>
      </trkpt>
      <trkpt lat="37.36006" lon="34.82468">
        <ele>1085.427052</ele>
        <time>2022-01-03T07:26:19.877Z</time>
      </trkpt>
      <trkpt lat="37.35802" lon="34.82447">
        <ele>1096.078504</ele>
        <time>2022-01-03T07:28:53.870Z</time>
      </trkpt>
      <trkpt lat="37.35597" lon="34.82397">
        <ele>1106.76043</ele>
        <time>2022-01-03T07:31:11.877Z</time>
      </trkpt>
      <trkpt lat="37.35413" lon="34.82296">
        <ele>1117.287848</ele>
        <time>2022-01-03T07:33:20.866Z</time>
      </trkpt>
      <trkpt lat="37.3528" lon="34.82083">
        <ele>1137.317227</ele>
        <time>2022-01-03T07:35:32.863Z</time>
      </trkpt>
      <trkpt lat="37.35139" lon="34.81891">
        <ele>1146.196662</ele>
        <time>2022-01-03T07:38:04.862Z</time>
      </trkpt>
      <trkpt lat="37.3498" lon="34.81731">
        <ele>1165.296228</ele>
        <time>2022-01-03T07:40:44.870Z</time>
      </trkpt>
      <trkpt lat="37.34859" lon="34.81527">
        <ele>1190.89652</ele>
        <time>2022-01-03T07:43:48.880Z</time>
      </trkpt>
      <trkpt lat="37.3478" lon="34.8133">
        <ele>1205.245795</ele>
        <time>2022-01-03T07:46:42.884Z</time>
      </trkpt>
      <trkpt lat="37.34678" lon="34.81153">
        <ele>1227.779203</ele>
        <time>2022-01-03T07:49:55.900Z</time>
      </trkpt>
      <trkpt lat="37.34492" lon="34.81052">
        <ele>1240.859481</ele>
        <time>2022-01-03T07:52:46.877Z</time>
      </trkpt>
      <trkpt lat="37.34399" lon="34.80843">
        <ele>1261.477274</ele>
        <time>2022-01-03T07:55:30.896Z</time>
      </trkpt>
      <trkpt lat="37.34321" lon="34.80612">
        <ele>1270.46663</ele>
        <time>2022-01-03T07:57:58.874Z</time>
      </trkpt>
      <trkpt lat="37.3415" lon="34.80453">
        <ele>1282.500013</ele>
        <time>2022-01-03T08:00:03.879Z</time>
      </trkpt>
      <trkpt lat="37.33958" lon="34.80351">
        <ele>1289.545663</ele>
        <time>2022-01-03T08:01:49.872Z</time>
      </trkpt>
      <trkpt lat="37.33788" lon="34.80187">
        <ele>1301.073751</ele>
        <time>2022-01-03T08:03:48.871Z</time>
      </trkpt>
      <trkpt lat="37.33597" lon="34.80052">
        <ele>1309.168456</ele>
        <time>2022-01-03T08:05:30.895Z</time>
      </trkpt>
      <trkpt lat="37.33413" lon="34.79935">
        <ele>1318.100648</ele>
        <time>2022-01-03T08:07:09.885Z</time>
      </trkpt>
      <trkpt lat="37.33328" lon="34.79711">
        <ele>1319.96452</ele>
        <time>2022-01-03T08:09:12.914Z</time>
      </trkpt>
      <trkpt lat="37.33203" lon="34.79499">
        <ele>1321.333074</ele>
        <time>2022-01-03T08:11:26.879Z</time>
      </trkpt>
      <trkpt lat="37.33025" lon="34.79398">
        <ele>1329.323449</ele>
        <time>2022-01-03T08:26:19.872Z</time>
      </trkpt>
      <trkpt lat="37.32823" lon="34.79286">
        <ele>1328.009496</ele>
        <time>2022-01-03T08:27:55.896Z</time>
      </trkpt>
      <trkpt lat="37.32696" lon="34.7903">
        <ele>1319.551372</ele>
        <time>2022-01-03T08:34:10.901Z</time>
      </trkpt>
      <trkpt lat="37.32628" lon="34.78782">
        <ele>1327.772133</ele>
        <time>2022-01-03T08:35:52.870Z</time>
      </trkpt>
      <trkpt lat="37.32491" lon="34.78577">
        <ele>1341.732973</ele>
        <time>2022-01-03T08:38:03.892Z</time>
      </trkpt>
      <trkpt lat="37.3232" lon="34.78395">
        <ele>1345.037093</ele>
        <time>2022-01-03T08:39:29.890Z</time>
      </trkpt>
      <trkpt lat="37.3218" lon="34.78169">
        <ele>1339.714489</ele>
        <time>2022-01-03T08:40:31.871Z</time>
      </trkpt>
      <trkpt lat="37.32052" lon="34.77866">
        <ele>1332.558774</ele>
        <time>2022-01-03T08:41:25.895Z</time>
      </trkpt>
      <trkpt lat="37.31894" lon="34.77541">
        <ele>1319.595992</ele>
        <time>2022-01-03T08:42:02.892Z</time>
      </trkpt>
      <trkpt lat="37.31742" lon="34.77352">
        <ele>1306.191348</ele>
        <time>2022-01-03T08:42:25.904Z</time>
      </trkpt>
      <trkpt lat="37.31573" lon="34.7715">
        <ele>1292.110213</ele>
        <time>2022-01-03T08:42:48.920Z</time>
      </trkpt>
      <trkpt lat="37.31306" lon="34.77">
        <ele>1284.345826</ele>
        <time>2022-01-03T08:43:26.886Z</time>
      </trkpt>
      <trkpt lat="37.3114" lon="34.76719">
        <ele>1281.234561</ele>
        <time>2022-01-03T08:44:08.889Z</time>
      </trkpt>
      <trkpt lat="37.31112" lon="34.76442">
        <ele>1288.093984</ele>
        <time>2022-01-03T08:45:31.894Z</time>
      </trkpt>
      <trkpt lat="37.30932" lon="34.76288">
        <ele>1295.242849</ele>
        <time>2022-01-03T08:47:22.889Z</time>
      </trkpt>
      <trkpt lat="37.30771" lon="34.76122">
        <ele>1308.771038</ele>
        <time>2022-01-03T08:49:16.890Z</time>
      </trkpt>
      <trkpt lat="37.30562" lon="34.76062">
        <ele>1322.365524</ele>
        <time>2022-01-03T08:51:59.905Z</time>
      </trkpt>
      <trkpt lat="37.30384" lon="34.75923">
        <ele>1335.345439</ele>
        <time>2022-01-03T08:54:46.894Z</time>
      </trkpt>
      <trkpt lat="37.30224" lon="34.7575">
        <ele>1339.34241</ele>
        <time>2022-01-03T08:56:24.897Z</time>
      </trkpt>
      <trkpt lat="37.30127" lon="34.7549">
        <ele>1338.650001</ele>
        <time>2022-01-03T08:57:30.895Z</time>
      </trkpt>
      <trkpt lat="37.29961" lon="34.75269">
        <ele>1337.314245</ele>
        <time>2022-01-03T08:58:36.891Z</time>
      </trkpt>
      <trkpt lat="37.29883" lon="34.75014">
        <ele>1343.906131</ele>
        <time>2022-01-03T08:59:42.892Z</time>
      </trkpt>
      <trkpt lat="37.29697" lon="34.74846">
        <ele>1349.568659</ele>
        <time>2022-01-03T09:01:01.928Z</time>
      </trkpt>
      <trkpt lat="37.29552" lon="34.7463">
        <ele>1353.75039</ele>
        <time>2022-01-03T09:02:22.896Z</time>
      </trkpt>
      <trkpt lat="37.29471" lon="34.74386">
        <ele>1352.280584</ele>
        <time>2022-01-03T09:03:34.881Z</time>
      </trkpt>
      <trkpt lat="37.29283" lon="34.74242">
        <ele>1354.70506</ele>
        <time>2022-01-03T09:04:43.899Z</time>
      </trkpt>
      <trkpt lat="37.29093" lon="34.74107">
        <ele>1365.776705</ele>
        <time>2022-01-03T09:06:49.940Z</time>
      </trkpt>
      <trkpt lat="37.28989" lon="34.73895">
        <ele>1378.085435</ele>
        <time>2022-01-03T09:08:57.938Z</time>
      </trkpt>
      <trkpt lat="37.28856" lon="34.73709">
        <ele>1388.530287</ele>
        <time>2022-01-03T09:11:08.887Z</time>
      </trkpt>
      <trkpt lat="37.28643" lon="34.73699">
        <ele>1396.27015</ele>
        <time>2022-01-03T09:13:00.892Z</time>
      </trkpt>
      <trkpt lat="37.28516" lon="34.73898">
        <ele>1398.183207</ele>
        <time>2022-01-03T09:14:01.897Z</time>
      </trkpt>
      <trkpt lat="37.28497" lon="34.74214">
        <ele>1374.797282</ele>
        <time>2022-01-03T09:14:45.891Z</time>
      </trkpt>
      <trkpt lat="37.2852" lon="34.74569">
        <ele>1353.328091</ele>
        <time>2022-01-03T09:15:29.894Z</time>
      </trkpt>
      <trkpt lat="37.2856" lon="34.74956">
        <ele>1330.435804</ele>
        <time>2022-01-03T09:16:11.937Z</time>
      </trkpt>
      <trkpt lat="37.28649" lon="34.75353">
        <ele>1304.618514</ele>
        <time>2022-01-03T09:16:54.891Z</time>
      </trkpt>
      <trkpt lat="37.2857" lon="34.75603">
        <ele>1288.310148</ele>
        <time>2022-01-03T09:17:38.897Z</time>
      </trkpt>
      <trkpt lat="37.28278" lon="34.75725">
        <ele>1271.394665</ele>
        <time>2022-01-03T09:18:16.884Z</time>
      </trkpt>
      <trkpt lat="37.2806" lon="34.75788">
        <ele>1254.589017</ele>
        <time>2022-01-03T09:18:39.904Z</time>
      </trkpt>
      <trkpt lat="37.27866" lon="34.76006">
        <ele>1229.461571</ele>
        <time>2022-01-03T09:19:11.895Z</time>
      </trkpt>
      <trkpt lat="37.27569" lon="34.75897">
        <ele>1204.346626</ele>
        <time>2022-01-03T09:19:52.937Z</time>
      </trkpt>
      <trkpt lat="37.27353" lon="34.75889">
        <ele>1188.459203</ele>
        <time>2022-01-03T09:20:14.889Z</time>
      </trkpt>
      <trkpt lat="37.27078" lon="34.75923">
        <ele>1174.579055</ele>
        <time>2022-01-03T09:20:45.900Z</time>
      </trkpt>
      <trkpt lat="37.26873" lon="34.76011">
        <ele>1164.554241</ele>
        <time>2022-01-03T09:21:06.905Z</time>
      </trkpt>
      <trkpt lat="37.26617" lon="34.76059">
        <ele>1148.095026</ele>
        <time>2022-01-03T09:21:28.910Z</time>
      </trkpt>
      <trkpt lat="37.26375" lon="34.76114">
        <ele>1135.449724</ele>
        <time>2022-01-03T09:21:53.887Z</time>
      </trkpt>
      <trkpt lat="37.26146" lon="34.76153">
        <ele>1122.552533</ele>
        <time>2022-01-03T09:22:15.901Z</time>
      </trkpt>
      <trkpt lat="37.25943" lon="34.76359">
        <ele>1109.552215</ele>
        <time>2022-01-03T09:22:48.900Z</time>
      </trkpt>
      <trkpt lat="37.25692" lon="34.76297">
        <ele>1103.998068</ele>
        <time>2022-01-03T09:23:32.895Z</time>
      </trkpt>
      <trkpt lat="37.25578" lon="34.76562">
        <ele>1096.648751</ele>
        <time>2022-01-03T09:24:01.905Z</time>
      </trkpt>
      <trkpt lat="37.25317" lon="34.76835">
        <ele>1078.82148</ele>
        <time>2022-01-03T09:24:45.900Z</time>
      </trkpt>
      <trkpt lat="37.25312" lon="34.77202">
        <ele>1060.164044</ele>
        <time>2022-01-03T09:25:20.911Z</time>
      </trkpt>
      <trkpt lat="37.25295" lon="34.77415">
        <ele>1055.657517</ele>
        <time>2022-01-03T09:26:01.912Z</time>
      </trkpt>
      <trkpt lat="37.25078" lon="34.77432">
        <ele>1068.967947</ele>
        <time>2022-01-03T09:27:48.907Z</time>
      </trkpt>
      <trkpt lat="37.2487" lon="34.77432">
        <ele>1072.454322</ele>
        <time>2022-01-03T09:29:16.933Z</time>
      </trkpt>
      <trkpt lat="37.24798" lon="34.77756">
        <ele>1064.229945</ele>
        <time>2022-01-03T09:30:01.899Z</time>
      </trkpt>
      <trkpt lat="37.24565" lon="34.77823">
        <ele>1055.624139</ele>
        <time>2022-01-03T09:30:45.920Z</time>
      </trkpt>
      <trkpt lat="37.24356" lon="34.78031">
        <ele>1047.844766</ele>
        <time>2022-01-03T09:31:21.917Z</time>
      </trkpt>
      <trkpt lat="37.24184" lon="34.78233">
        <ele>1045.390825</ele>
        <time>2022-01-03T09:32:06.907Z</time>
      </trkpt>
      <trkpt lat="37.24009" lon="34.78321">
        <ele>1052.299463</ele>
        <time>2022-01-03T09:33:27.906Z</time>
      </trkpt>
      <trkpt lat="37.23807" lon="34.78279">
        <ele>1066.58941</ele>
        <time>2022-01-03T09:35:40.909Z</time>
      </trkpt>
      <trkpt lat="37.23581" lon="34.78281">
        <ele>1070.020505</ele>
        <time>2022-01-03T09:37:32.912Z</time>
      </trkpt>
      <trkpt lat="37.2336" lon="34.78431">
        <ele>1067.00125</ele>
        <time>2022-01-03T09:38:18.920Z</time>
      </trkpt>
      <trkpt lat="37.23198" lon="34.7852">
        <ele>1048.067899</ele>
        <time>2022-01-03T09:38:56.919Z</time>
      </trkpt>
      <trkpt lat="37.23067" lon="34.78717">
        <ele>1023.921781</ele>
        <time>2022-01-03T09:39:27.915Z</time>
      </trkpt>
      <trkpt lat="37.22911" lon="34.7901">
        <ele>1000.907469</ele>
        <time>2022-01-03T09:40:00.909Z</time>
      </trkpt>
      <trkpt lat="37.22723" lon="34.78906">
        <ele>990.142688</ele>
        <time>2022-01-03T09:40:53.895Z</time>
      </trkpt>
      <trkpt lat="37.22504" lon="34.7898">
        <ele>989.910605</ele>
        <time>2022-01-03T09:41:52.885Z</time>
      </trkpt>
      <trkpt lat="37.22287" lon="34.79176">
        <ele>970.141171</ele>
        <time>2022-01-03T09:42:21.899Z</time>
      </trkpt>
      <trkpt lat="37.22132" lon="34.79392">
        <ele>964.14117</ele>
        <time>2022-01-03T09:43:20.942Z</time>
      </trkpt>
      <trkpt lat="37.21953" lon="34.79536">
        <ele>983.222841</ele>
        <time>2022-01-03T09:45:38.899Z</time>
      </trkpt>
      <trkpt lat="37.21765" lon="34.79713">
        <ele>984.045365</ele>
        <time>2022-01-03T09:47:06.939Z</time>
      </trkpt>
      <trkpt lat="37.21471" lon="34.79721">
        <ele>970.487703</ele>
        <time>2022-01-03T09:47:43.917Z</time>
      </trkpt>
      <trkpt lat="37.21228" lon="34.79762">
        <ele>948.179528</ele>
        <time>2022-01-03T09:48:07.925Z</time>
      </trkpt>
      <trkpt lat="37.20994" lon="34.7978">
        <ele>926.570953</ele>
        <time>2022-01-03T09:48:29.917Z</time>
      </trkpt>
      <trkpt lat="37.20789" lon="34.79688">
        <ele>909.316951</ele>
        <time>2022-01-03T09:48:50.903Z</time>
      </trkpt>
      <trkpt lat="37.20629" lon="34.79802">
        <ele>893.108468</ele>
        <time>2022-01-03T09:49:14.900Z</time>
      </trkpt>
      <trkpt lat="37.20657" lon="34.80163">
        <ele>872.277998</ele>
        <time>2022-01-03T09:49:47.918Z</time>
      </trkpt>
      <trkpt lat="37.20687" lon="34.80415">
        <ele>857.223336</ele>
        <time>2022-01-03T09:50:08.911Z</time>
      </trkpt>
      <trkpt lat="37.20676" lon="34.8071">
        <ele>841.021318</ele>
        <time>2022-01-03T09:50:33.923Z</time>
      </trkpt>
      <trkpt lat="37.20505" lon="34.80962">
        <ele>828.485444</ele>
        <time>2022-01-03T09:51:02.903Z</time>
      </trkpt>
      <trkpt lat="37.20296" lon="34.81165">
        <ele>805.531794</ele>
        <time>2022-01-03T09:51:36.911Z</time>
      </trkpt>
      <trkpt lat="37.20046" lon="34.81104">
        <ele>781.95607</ele>
        <time>2022-01-03T09:52:06.912Z</time>
      </trkpt>
      <trkpt lat="37.19736" lon="34.80972">
        <ele>753.180952</ele>
        <time>2022-01-03T09:52:48.894Z</time>
      </trkpt>
      <trkpt lat="37.19615" lon="34.8071">
        <ele>739.884624</ele>
        <time>2022-01-03T09:53:19.915Z</time>
      </trkpt>
      <trkpt lat="37.19445" lon="34.80752">
        <ele>724.924187</ele>
        <time>2022-01-03T09:53:49.896Z</time>
      </trkpt>
      <trkpt lat="37.196" lon="34.81097">
        <ele>703.272584</ele>
        <time>2022-01-03T09:54:30.920Z</time>
      </trkpt>
      <trkpt lat="37.19447" lon="34.81076">
        <ele>709.748904</ele>
        <time>2022-01-03T09:55:52.899Z</time>
      </trkpt>
      <trkpt lat="37.19265" lon="34.80937">
        <ele>732.082646</ele>
        <time>2022-01-03T09:58:15.916Z</time>
      </trkpt>
      <trkpt lat="37.19036" lon="34.8089">
        <ele>742.894319</ele>
        <time>2022-01-03T09:59:56.912Z</time>
      </trkpt>
      <trkpt lat="37.18749" lon="34.8096">
        <ele>721.457677</ele>
        <time>2022-01-03T10:00:38.910Z</time>
      </trkpt>
      <trkpt lat="37.18555" lon="34.81146">
        <ele>712.609157</ele>
        <time>2022-01-03T10:01:22.919Z</time>
      </trkpt>
      <trkpt lat="37.18432" lon="34.81393">
        <ele>700.54274</ele>
        <time>2022-01-03T10:02:13.909Z</time>
      </trkpt>
      <trkpt lat="37.18285" lon="34.81507">
        <ele>695.044277</ele>
        <time>2022-01-03T10:20:40.900Z</time>
      </trkpt>
      <trkpt lat="37.18014" lon="34.81611">
        <ele>688.787252</ele>
        <time>2022-01-03T10:21:31.927Z</time>
      </trkpt>
      <trkpt lat="37.17694" lon="34.81534">
        <ele>664.574701</ele>
        <time>2022-01-03T10:22:12.912Z</time>
      </trkpt>
      <trkpt lat="37.17408" lon="34.81525">
        <ele>647.692325</ele>
        <time>2022-01-03T10:22:46.917Z</time>
      </trkpt>
      <trkpt lat="37.17076" lon="34.814">
        <ele>623.986384</ele>
        <time>2022-01-03T10:23:30.912Z</time>
      </trkpt>
      <trkpt lat="37.16848" lon="34.81306">
        <ele>606.413937</ele>
        <time>2022-01-03T10:24:14.902Z</time>
      </trkpt>
      <trkpt lat="37.16592" lon="34.81259">
        <ele>604.591551</ele>
        <time>2022-01-03T10:24:56.906Z</time>
      </trkpt>
      <trkpt lat="37.16362" lon="34.81233">
        <ele>621.777211</ele>
        <time>2022-01-03T10:26:04.898Z</time>
      </trkpt>
      <trkpt lat="37.16135" lon="34.81272">
        <ele>623.203398</ele>
        <time>2022-01-03T10:26:58.928Z</time>
      </trkpt>
      <trkpt lat="37.15876" lon="34.81296">
        <ele>625.894688</ele>
        <time>2022-01-03T10:28:01.911Z</time>
      </trkpt>
      <trkpt lat="37.15633" lon="34.8129">
        <ele>639.894989</ele>
        <time>2022-01-03T10:29:08.914Z</time>
      </trkpt>
      <trkpt lat="37.1542" lon="34.81364">
        <ele>647.595292</ele>
        <time>2022-01-03T10:31:06.954Z</time>
      </trkpt>
      <trkpt lat="37.15204" lon="34.81427">
        <ele>643.659761</ele>
        <time>2022-01-03T10:32:12.897Z</time>
      </trkpt>
      <trkpt lat="37.15017" lon="34.8159">
        <ele>638.33054</ele>
        <time>2022-01-03T10:33:03.933Z</time>
      </trkpt>
      <trkpt lat="37.14805" lon="34.81682">
        <ele>646.463778</ele>
        <time>2022-01-03T10:34:40.905Z</time>
      </trkpt>
      <trkpt lat="37.14645" lon="34.81845">
        <ele>649.962156</ele>
        <time>2022-01-03T10:36:18.912Z</time>
      </trkpt>
      <trkpt lat="37.14557" lon="34.82144">
        <ele>638.669966</ele>
        <time>2022-01-03T10:37:02.917Z</time>
      </trkpt>
      <trkpt lat="37.14467" lon="34.8251">
        <ele>622.047449</ele>
        <time>2022-01-03T10:37:46.903Z</time>
      </trkpt>
      <trkpt lat="37.14519" lon="34.82811">
        <ele>606.648356</ele>
        <time>2022-01-03T10:38:13.899Z</time>
      </trkpt>
      <trkpt lat="37.1457" lon="34.8319">
        <ele>594.538842</ele>
        <time>2022-01-03T10:38:49.934Z</time>
      </trkpt>
      <trkpt lat="37.14476" lon="34.83579">
        <ele>592.098258</ele>
        <time>2022-01-03T10:39:33.931Z</time>
      </trkpt>
      <trkpt lat="37.14273" lon="34.83757">
        <ele>587.187771</ele>
        <time>2022-01-03T10:40:15.913Z</time>
      </trkpt>
      <trkpt lat="37.14039" lon="34.83978">
        <ele>572.702836</ele>
        <time>2022-01-03T10:40:51.915Z</time>
      </trkpt>
      <trkpt lat="37.13853" lon="34.84141">
        <ele>569.9816</ele>
        <time>2022-01-03T10:41:50.915Z</time>
      </trkpt>
      <trkpt lat="37.1369" lon="34.84364">
        <ele>570.0117</ele>
        <time>2022-01-03T10:42:40.917Z</time>
      </trkpt>
      <trkpt lat="37.13502" lon="34.84577">
        <ele>569.824333</ele>
        <time>2022-01-03T10:43:42.910Z</time>
      </trkpt>
      <trkpt lat="37.13472" lon="34.84875">
        <ele>561.291254</ele>
        <time>2022-01-03T10:44:31.909Z</time>
      </trkpt>
      <trkpt lat="37.13488" lon="34.85289">
        <ele>539.059101</ele>
        <time>2022-01-03T10:45:15.912Z</time>
      </trkpt>
      <trkpt lat="37.13364" lon="34.85691">
        <ele>517.80324</ele>
        <time>2022-01-03T10:45:59.932Z</time>
      </trkpt>
      <trkpt lat="37.13235" lon="34.86047">
        <ele>497.705308</ele>
        <time>2022-01-03T10:46:36.908Z</time>
      </trkpt>
      <trkpt lat="37.13158" lon="34.86426">
        <ele>480.752417</ele>
        <time>2022-01-03T10:47:16.916Z</time>
      </trkpt>
      <trkpt lat="37.1307" lon="34.86767">
        <ele>462.240101</ele>
        <time>2022-01-03T10:48:00.916Z</time>
      </trkpt>
      <trkpt lat="37.12841" lon="34.87042">
        <ele>439.726791</ele>
        <time>2022-01-03T10:48:42.918Z</time>
      </trkpt>
      <trkpt lat="37.12653" lon="34.87333">
        <ele>420.408842</ele>
        <time>2022-01-03T10:49:17.919Z</time>
      </trkpt>
      <trkpt lat="37.12548" lon="34.87702">
        <ele>398.535882</ele>
        <time>2022-01-03T10:49:54.924Z</time>
      </trkpt>
      <trkpt lat="37.12384" lon="34.87958">
        <ele>389.324014</ele>
        <time>2022-01-03T10:50:23.937Z</time>
      </trkpt>
      <trkpt lat="37.1226" lon="34.88268">
        <ele>382.793484</ele>
        <time>2022-01-03T10:50:57.903Z</time>
      </trkpt>
      <trkpt lat="37.12144" lon="34.88522">
        <ele>383.303787</ele>
        <time>2022-01-03T10:51:44.911Z</time>
      </trkpt>
      <trkpt lat="37.11992" lon="34.887">
        <ele>382.306199</ele>
        <time>2022-01-03T10:52:26.911Z</time>
      </trkpt>
      <trkpt lat="37.11793" lon="34.88879">
        <ele>374.554277</ele>
        <time>2022-01-03T10:53:11.902Z</time>
      </trkpt>
      <trkpt lat="37.11567" lon="34.89079">
        <ele>367.109792</ele>
        <time>2022-01-03T10:53:59.912Z</time>
      </trkpt>
      <trkpt lat="37.11303" lon="34.89315">
        <ele>350.83419</ele>
        <time>2022-01-03T10:54:40.919Z</time>
      </trkpt>
      <trkpt lat="37.11048" lon="34.89541">
        <ele>339.913846</ele>
        <time>2022-01-03T10:55:24.904Z</time>
      </trkpt>
      <trkpt lat="37.10765" lon="34.89718">
        <ele>328.997388</ele>
        <time>2022-01-03T10:56:08.916Z</time>
      </trkpt>
      <trkpt lat="37.1048" lon="34.89867">
        <ele>312.661304</ele>
        <time>2022-01-03T10:56:47.933Z</time>
      </trkpt>
      <trkpt lat="37.10313" lon="34.90026">
        <ele>302.650143</ele>
        <time>2022-01-03T10:57:09.919Z</time>
      </trkpt>
      <trkpt lat="37.10076" lon="34.90305">
        <ele>295.798271</ele>
        <time>2022-01-03T10:57:53.929Z</time>
      </trkpt>
      <trkpt lat="37.0988" lon="34.90532">
        <ele>293.879276</ele>
        <time>2022-01-03T10:58:37.914Z</time>
      </trkpt>
      <trkpt lat="37.09703" lon="34.90745">
        <ele>293.528929</ele>
        <time>2022-01-03T10:59:29.949Z</time>
      </trkpt>
      <trkpt lat="37.09515" lon="34.90989">
        <ele>287.916363</ele>
        <time>2022-01-03T11:00:13.927Z</time>
      </trkpt>
      <trkpt lat="37.09357" lon="34.91221">
        <ele>284.30224</ele>
        <time>2022-01-03T11:00:56.920Z</time>
      </trkpt>
      <trkpt lat="37.09214" lon="34.91443">
        <ele>286.360965</ele>
        <time>2022-01-03T11:01:52.926Z</time>
      </trkpt>
      <trkpt lat="37.09065" lon="34.91682">
        <ele>288.742729</ele>
        <time>2022-01-03T11:03:00.913Z</time>
      </trkpt>
      <trkpt lat="37.08913" lon="34.91924">
        <ele>284.091361</ele>
        <time>2022-01-03T11:03:51.966Z</time>
      </trkpt>
      <trkpt lat="37.08696" lon="34.92213">
        <ele>265.690982</ele>
        <time>2022-01-03T11:04:37.956Z</time>
      </trkpt>
      <trkpt lat="37.0845" lon="34.9235">
        <ele>267.486926</ele>
        <time>2022-01-03T11:05:43.920Z</time>
      </trkpt>
      <trkpt lat="37.0825" lon="34.92472">
        <ele>274.541275</ele>
        <time>2022-01-03T11:07:00.915Z</time>
      </trkpt>
      <trkpt lat="37.08053" lon="34.92612">
        <ele>283.089712</ele>
        <time>2022-01-03T11:08:42.915Z</time>
      </trkpt>
      <trkpt lat="37.07855" lon="34.92722">
        <ele>292.917841</ele>
        <time>2022-01-03T11:10:56.925Z</time>
      </trkpt>
      <trkpt lat="37.07634" lon="34.92719">
        <ele>292.99666</ele>
        <time>2022-01-03T11:12:19.948Z</time>
      </trkpt>
      <trkpt lat="37.07377" lon="34.92541">
        <ele>286.625822</ele>
        <time>2022-01-03T11:13:04.910Z</time>
      </trkpt>
      <trkpt lat="37.07115" lon="34.92418">
        <ele>274.424415</ele>
        <time>2022-01-03T11:13:35.917Z</time>
      </trkpt>
      <trkpt lat="37.06887" lon="34.92355">
        <ele>256.935044</ele>
        <time>2022-01-03T11:13:57.935Z</time>
      </trkpt>
      <trkpt lat="37.06593" lon="34.92344">
        <ele>250.792034</ele>
        <time>2022-01-03T11:14:39.925Z</time>
      </trkpt>
      <trkpt lat="37.06304" lon="34.92459">
        <ele>239.685207</ele>
        <time>2022-01-03T11:15:21.900Z</time>
      </trkpt>
      <trkpt lat="37.06072" lon="34.92369">
        <ele>233.43433</ele>
        <time>2022-01-03T11:16:17.913Z</time>
      </trkpt>
      <trkpt lat="37.05825" lon="34.92245">
        <ele>228.58764</ele>
        <time>2022-01-03T11:17:01.919Z</time>
      </trkpt>
      <trkpt lat="37.05601" lon="34.92086">
        <ele>224.946821</ele>
        <time>2022-01-03T11:17:48.925Z</time>
      </trkpt>
      <trkpt lat="37.0539" lon="34.9194">
        <ele>226.990975</ele>
        <time>2022-01-03T11:18:51.913Z</time>
      </trkpt>
      <trkpt lat="37.05184" lon="34.91882">
        <ele>239.038479</ele>
        <time>2022-01-03T11:20:44.904Z</time>
      </trkpt>
      <trkpt lat="37.04967" lon="34.9196">
        <ele>244.427969</ele>
        <time>2022-01-03T11:22:13.925Z</time>
      </trkpt>
      <trkpt lat="37.04736" lon="34.92079">
        <ele>236.12631</ele>
        <time>2022-01-03T11:22:41.932Z</time>
      </trkpt>
      <trkpt lat="37.0447" lon="34.92217">
        <ele>224.38584</ele>
        <time>2022-01-03T11:23:12.924Z</time>
      </trkpt>
      <trkpt lat="37.04187" lon="34.9241">
        <ele>212.036421</ele>
        <time>2022-01-03T11:23:52.919Z</time>
      </trkpt>
      <trkpt lat="37.04017" lon="34.92591">
        <ele>202.801805</ele>
        <time>2022-01-03T11:24:13.924Z</time>
      </trkpt>
      <trkpt lat="37.03868" lon="34.92786">
        <ele>193.857939</ele>
        <time>2022-01-03T11:24:35.927Z</time>
      </trkpt>
      <trkpt lat="37.03708" lon="34.93007">
        <ele>179.086875</ele>
        <time>2022-01-03T11:24:57.921Z</time>
      </trkpt>
      <trkpt lat="37.03528" lon="34.93245">
        <ele>165.149892</ele>
        <time>2022-01-03T11:25:18.919Z</time>
      </trkpt>
      <trkpt lat="37.03335" lon="34.93398">
        <ele>170.206325</ele>
        <time>2022-01-03T11:26:32.916Z</time>
      </trkpt>
      <trkpt lat="37.03123" lon="34.93385">
        <ele>179.031193</ele>
        <time>2022-01-03T11:28:03.972Z</time>
      </trkpt>
      <trkpt lat="37.02899" lon="34.93323">
        <ele>177.871116</ele>
        <time>2022-01-03T11:29:13.925Z</time>
      </trkpt>
      <trkpt lat="37.02602" lon="34.93371">
        <ele>169.624956</ele>
        <time>2022-01-03T11:29:58.910Z</time>
      </trkpt>
      <trkpt lat="37.0236" lon="34.93539">
        <ele>158.511417</ele>
        <time>2022-01-03T11:30:29.937Z</time>
      </trkpt>
      <trkpt lat="37.02126" lon="34.93719">
        <ele>145.241168</ele>
        <time>2022-01-03T11:31:01.945Z</time>
      </trkpt>
      <trkpt lat="37.01886" lon="34.93867">
        <ele>140.839554</ele>
        <time>2022-01-03T11:31:45.925Z</time>
      </trkpt>
      <trkpt lat="37.01656" lon="34.93881">
        <ele>139.960326</ele>
        <time>2022-01-03T11:32:27.938Z</time>
      </trkpt>
      <trkpt lat="37.0141" lon="34.93871">
        <ele>133.890899</ele>
        <time>2022-01-03T11:33:11.930Z</time>
      </trkpt>
      <trkpt lat="37.0112" lon="34.93951">
        <ele>118.253087</ele>
        <time>2022-01-03T11:33:56.930Z</time>
      </trkpt>
      <trkpt lat="37.00915" lon="34.94056">
        <ele>108.001655</ele>
        <time>2022-01-03T11:34:17.948Z</time>
      </trkpt>
      <trkpt lat="37.00678" lon="34.94192">
        <ele>108.772765</ele>
        <time>2022-01-03T11:34:57.928Z</time>
      </trkpt>
      <trkpt lat="37.00471" lon="34.943">
        <ele>109.980382</ele>
        <time>2022-01-03T11:35:42.934Z</time>
      </trkpt>
      <trkpt lat="37.00191" lon="34.94448">
        <ele>101.003291</ele>
        <time>2022-01-03T11:36:21.947Z</time>
      </trkpt>
      <trkpt lat="36.99893" lon="34.94571">
        <ele>91.456644</ele>
        <time>2022-01-03T11:36:58.914Z</time>
      </trkpt>
      <trkpt lat="36.9966" lon="34.94603">
        <ele>80.219338</ele>
        <time>2022-01-03T11:37:44.936Z</time>
      </trkpt>
      <trkpt lat="36.99419" lon="34.94636">
        <ele>82.340516</ele>
        <time>2022-01-03T11:38:54.911Z</time>
      </trkpt>
      <trkpt lat="36.99196" lon="34.94736">
        <ele>88.266678</ele>
        <time>2022-01-03T11:39:52.917Z</time>
      </trkpt>
      <trkpt lat="36.99003" lon="34.94908">
        <ele>88.942514</ele>
        <time>2022-01-03T11:40:36.963Z</time>
      </trkpt>
      <trkpt lat="36.98826" lon="34.9511">
        <ele>78.891688</ele>
        <time>2022-01-03T11:41:18.938Z</time>
      </trkpt>
      <trkpt lat="36.98631" lon="34.95319">
        <ele>72.49978</ele>
        <time>2022-01-03T11:42:02.931Z</time>
      </trkpt>
      <trkpt lat="36.98401" lon="34.95431">
        <ele>75.464569</ele>
        <time>2022-01-03T11:42:46.929Z</time>
      </trkpt>
      <trkpt lat="36.9818" lon="34.95428">
        <ele>81.218602</ele>
        <time>2022-01-03T11:43:28.929Z</time>
      </trkpt>
      <trkpt lat="36.97962" lon="34.95326">
        <ele>81.608127</ele>
        <time>2022-01-03T11:44:13.952Z</time>
      </trkpt>
      <trkpt lat="36.97745" lon="34.95205">
        <ele>76.916903</ele>
        <time>2022-01-03T11:44:57.922Z</time>
      </trkpt>
      <trkpt lat="36.97529" lon="34.95078">
        <ele>74.85464</ele>
        <time>2022-01-03T11:45:39.935Z</time>
      </trkpt>
      <trkpt lat="36.97304" lon="34.94951">
        <ele>66.549523</ele>
        <time>2022-01-03T11:46:27.935Z</time>
      </trkpt>
      <trkpt lat="36.97087" lon="34.94855">
        <ele>58.279998</ele>
        <time>2022-01-03T11:47:12.928Z</time>
      </trkpt>
      <trkpt lat="36.96867" lon="34.94761">
        <ele>58.862305</ele>
        <time>2022-01-03T11:47:56.929Z</time>
      </trkpt>
      <trkpt lat="36.96661" lon="34.94633">
        <ele>63.77386</ele>
        <time>2022-01-03T11:48:40.929Z</time>
      </trkpt>
      <trkpt lat="36.96434" lon="34.94468">
        <ele>64.706306</ele>
        <time>2022-01-03T11:49:24.965Z</time>
      </trkpt>
      <trkpt lat="36.9624" lon="34.94313">
        <ele>66.088361</ele>
        <time>2022-01-03T11:50:06.913Z</time>
      </trkpt>
      <trkpt lat="36.9605" lon="34.94166">
        <ele>69.980819</ele>
        <time>2022-01-03T11:50:50.955Z</time>
      </trkpt>
      <trkpt lat="36.95852" lon="34.94025">
        <ele>63.719146</ele>
        <time>2022-01-03T11:51:34.922Z</time>
      </trkpt>
      <trkpt lat="36.95656" lon="34.93878">
        <ele>57.030264</ele>
        <time>2022-01-03T11:52:16.939Z</time>
      </trkpt>
      <trkpt lat="36.95462" lon="34.9373">
        <ele>51.43481</ele>
        <time>2022-01-03T11:53:02.937Z</time>
      </trkpt>
      <trkpt lat="36.95267" lon="34.93582">
        <ele>54.20631</ele>
        <time>2022-01-03T11:53:47.933Z</time>
      </trkpt>
      <trkpt lat="36.95085" lon="34.93445">
        <ele>54.942529</ele>
        <time>2022-01-03T11:54:29.933Z</time>
      </trkpt>
      <trkpt lat="36.94894" lon="34.93296">
        <ele>54.88866</ele>
        <time>2022-01-03T11:55:13.926Z</time>
      </trkpt>
      <trkpt lat="36.94703" lon="34.93159">
        <ele>61.636571</ele>
        <time>2022-01-03T11:55:57.943Z</time>
      </trkpt>
      <trkpt lat="36.94522" lon="34.9302">
        <ele>66.909876</ele>
        <time>2022-01-03T11:56:39.942Z</time>
      </trkpt>
      <trkpt lat="36.94329" lon="34.92877">
        <ele>65.886403</ele>
        <time>2022-01-03T11:57:25.934Z</time>
      </trkpt>
      <trkpt lat="36.94135" lon="34.92735">
        <ele>69.761616</ele>
        <time>2022-01-03T11:58:48.939Z</time>
      </trkpt>
      <trkpt lat="36.93918" lon="34.92575">
        <ele>74.638423</ele>
        <time>2022-01-03T11:59:39.933Z</time>
      </trkpt>
      <trkpt lat="36.9372" lon="34.92365">
        <ele>69.920171</ele>
        <time>2022-01-03T12:00:25.940Z</time>
      </trkpt>
      <trkpt lat="36.93535" lon="34.92169">
        <ele>63.556402</ele>
        <time>2022-01-03T12:01:17.929Z</time>
      </trkpt>
      <trkpt lat="36.93479" lon="34.91894">
        <ele>65.231885</ele>
        <time>2022-01-03T12:02:11.931Z</time>
      </trkpt>
      <trkpt lat="36.93441" lon="34.91619">
        <ele>57.842398</ele>
        <time>2022-01-03T12:02:58.946Z</time>
      </trkpt>
      <trkpt lat="36.93215" lon="34.91615">
        <ele>50.439429</ele>
        <time>2022-01-03T12:03:59.940Z</time>
      </trkpt>
      <trkpt lat="36.93145" lon="34.91379">
        <ele>46.788584</ele>
        <time>2022-01-03T12:04:45.932Z</time>
      </trkpt>
      <trkpt lat="36.93109" lon="34.91114">
        <ele>45.603467</ele>
        <time>2022-01-03T12:05:29.934Z</time>
      </trkpt>
      <trkpt lat="36.93205" lon="34.9083">
        <ele>49.176834</ele>
        <time>2022-01-03T12:06:28.922Z</time>
      </trkpt>
      <trkpt lat="36.93304" lon="34.90567">
        <ele>46.966957</ele>
        <time>2022-01-03T12:07:27.924Z</time>
      </trkpt>
      <trkpt lat="36.93391" lon="34.90287">
        <ele>46.782334</ele>
        <time>2022-01-03T12:08:21.950Z</time>
      </trkpt>
      <trkpt lat="36.93402" lon="34.9001">
        <ele>52.176377</ele>
        <time>2022-01-03T12:09:27.958Z</time>
      </trkpt>
      <trkpt lat="36.93311" lon="34.89872">
        <ele>54.1274</ele>
        <time>2022-01-03T12:17:22.937Z</time>
      </trkpt>
      <trkpt lat="36.93127" lon="34.89887">
        <ele>65.792172</ele>
        <time>2022-01-03T12:20:54.973Z</time>
      </trkpt>
      <trkpt lat="36.929" lon="34.89838">
        <ele>66.569885</ele>
        <time>2022-01-03T12:22:13.928Z</time>
      </trkpt>
      <trkpt lat="36.92685" lon="34.89812">
        <ele>65.691415</ele>
        <time>2022-01-03T12:23:15.931Z</time>
      </trkpt>
      <trkpt lat="36.92435" lon="34.89841">
        <ele>60.429158</ele>
        <time>2022-01-03T12:24:13.928Z</time>
      </trkpt>
      <trkpt lat="36.92221" lon="34.89994">
        <ele>58.68343</ele>
        <time>2022-01-03T12:25:12.937Z</time>
      </trkpt>
      <trkpt lat="36.92007" lon="34.90067">
        <ele>57.988367</ele>
        <time>2022-01-03T12:26:01.915Z</time>
      </trkpt>
      <trkpt lat="36.9196" lon="34.90024">
        <ele>57.988367</ele>
        <time>2022-01-03T12:29:19.810Z</time>
      </trkpt>
      <trkpt lat="36.91965" lon="34.90008">
        <ele>55.302508</ele>
        <time>2022-01-04T07:52:00.299Z</time>
      </trkpt>
      <trkpt lat="36.9189" lon="34.89969">
        <ele>57.145645</ele>
        <time>2022-01-04T07:52:46.303Z</time>
      </trkpt>
      <trkpt lat="36.91901" lon="34.89777">
        <ele>65.862036</ele>
        <time>2022-01-04T07:54:11.290Z</time>
      </trkpt>
      <trkpt lat="36.91842" lon="34.89519">
        <ele>59.058614</ele>
        <time>2022-01-04T07:55:48.313Z</time>
      </trkpt>
      <trkpt lat="36.91724" lon="34.89329">
        <ele>61.065699</ele>
        <time>2022-01-04T07:57:40.288Z</time>
      </trkpt>
      <trkpt lat="36.918" lon="34.89102">
        <ele>60.62752</ele>
        <time>2022-01-04T08:02:50.284Z</time>
      </trkpt>
      <trkpt lat="36.91894" lon="34.88826">
        <ele>62.066396</ele>
        <time>2022-01-04T08:04:13.299Z</time>
      </trkpt>
      <trkpt lat="36.91807" lon="34.88616">
        <ele>68.624442</ele>
        <time>2022-01-04T08:05:51.292Z</time>
      </trkpt>
      <trkpt lat="36.91746" lon="34.88634">
        <ele>60.529783</ele>
        <time>2022-01-04T08:07:16.302Z</time>
      </trkpt>
      <trkpt lat="36.91806" lon="34.88489">
        <ele>65.005927</ele>
        <time>2022-01-04T08:09:21.310Z</time>
      </trkpt>
      <trkpt lat="36.91962" lon="34.8819">
        <ele>63.726074</ele>
        <time>2022-01-04T08:10:55.334Z</time>
      </trkpt>
      <trkpt lat="36.92032" lon="34.87929">
        <ele>72.803084</ele>
        <time>2022-01-04T08:11:57.289Z</time>
      </trkpt>
      <trkpt lat="36.92155" lon="34.87666">
        <ele>69.653598</ele>
        <time>2022-01-04T08:13:06.285Z</time>
      </trkpt>
      <trkpt lat="36.92079" lon="34.87404">
        <ele>55.797512</ele>
        <time>2022-01-04T08:14:24.312Z</time>
      </trkpt>
      <trkpt lat="36.91982" lon="34.87096">
        <ele>58.472367</ele>
        <time>2022-01-04T08:15:26.313Z</time>
      </trkpt>
      <trkpt lat="36.91889" lon="34.86789">
        <ele>60.485418</ele>
        <time>2022-01-04T08:17:53.307Z</time>
      </trkpt>
      <trkpt lat="36.91788" lon="34.86485">
        <ele>56.189287</ele>
        <time>2022-01-04T08:19:00.307Z</time>
      </trkpt>
      <trkpt lat="36.91626" lon="34.86234">
        <ele>54.566281</ele>
        <time>2022-01-04T08:20:05.298Z</time>
      </trkpt>
      <trkpt lat="36.91388" lon="34.86096">
        <ele>55.304569</ele>
        <time>2022-01-04T08:21:11.315Z</time>
      </trkpt>
      <trkpt lat="36.91188" lon="34.86001">
        <ele>54.850153</ele>
        <time>2022-01-04T08:22:24.325Z</time>
      </trkpt>
      <trkpt lat="36.9102" lon="34.85764">
        <ele>50.874563</ele>
        <time>2022-01-04T08:23:33.302Z</time>
      </trkpt>
      <trkpt lat="36.909" lon="34.85502">
        <ele>50.792951</ele>
        <time>2022-01-04T08:28:12.306Z</time>
      </trkpt>
      <trkpt lat="36.90778" lon="34.8524">
        <ele>48.890348</ele>
        <time>2022-01-04T08:35:24.336Z</time>
      </trkpt>
      <trkpt lat="36.90648" lon="34.84961">
        <ele>51.565499</ele>
        <time>2022-01-04T08:36:33.300Z</time>
      </trkpt>
      <trkpt lat="36.90452" lon="34.84777">
        <ele>52.678461</ele>
        <time>2022-01-04T08:37:39.309Z</time>
      </trkpt>
      <trkpt lat="36.90231" lon="34.84634">
        <ele>52.529349</ele>
        <time>2022-01-04T08:38:45.347Z</time>
      </trkpt>
      <trkpt lat="36.90037" lon="34.84442">
        <ele>52.755292</ele>
        <time>2022-01-04T08:39:50.313Z</time>
      </trkpt>
      <trkpt lat="36.89886" lon="34.84173">
        <ele>50.677031</ele>
        <time>2022-01-04T08:40:51.316Z</time>
      </trkpt>
      <trkpt lat="36.89827" lon="34.83884">
        <ele>49.972553</ele>
        <time>2022-01-04T08:42:00.304Z</time>
      </trkpt>
      <trkpt lat="36.89787" lon="34.83582">
        <ele>46.699079</ele>
        <time>2022-01-04T08:43:07.299Z</time>
      </trkpt>
      <trkpt lat="36.89543" lon="34.83658">
        <ele>50.178958</ele>
        <time>2022-01-04T08:44:05.303Z</time>
      </trkpt>
      <trkpt lat="36.89302" lon="34.83698">
        <ele>52.481494</ele>
        <time>2022-01-04T08:45:27.345Z</time>
      </trkpt>
      <trkpt lat="36.89041" lon="34.83777">
        <ele>44.084186</ele>
        <time>2022-01-04T08:46:28.302Z</time>
      </trkpt>
      <trkpt lat="36.88892" lon="34.83597">
        <ele>46.243234</ele>
        <time>2022-01-04T08:47:34.304Z</time>
      </trkpt>
      <trkpt lat="36.8877" lon="34.83302">
        <ele>46.385817</ele>
        <time>2022-01-04T08:48:43.297Z</time>
      </trkpt>
      <trkpt lat="36.88658" lon="34.83027">
        <ele>47.391278</ele>
        <time>2022-01-04T08:49:49.301Z</time>
      </trkpt>
      <trkpt lat="36.88547" lon="34.8276">
        <ele>52.137567</ele>
        <time>2022-01-04T08:50:55.307Z</time>
      </trkpt>
      <trkpt lat="36.88432" lon="34.82483">
        <ele>54.1004</ele>
        <time>2022-01-04T08:52:07.328Z</time>
      </trkpt>
      <trkpt lat="36.88316" lon="34.82205">
        <ele>54.196437</ele>
        <time>2022-01-04T08:53:13.310Z</time>
      </trkpt>
      <trkpt lat="36.88204" lon="34.81902">
        <ele>58.135289</ele>
        <time>2022-01-04T08:55:15.340Z</time>
      </trkpt>
      <trkpt lat="36.88077" lon="34.81663">
        <ele>50.767023</ele>
        <time>2022-01-04T08:56:05.302Z</time>
      </trkpt>
      <trkpt lat="36.8796" lon="34.81409">
        <ele>48.46887</ele>
        <time>2022-01-04T08:56:51.307Z</time>
      </trkpt>
      <trkpt lat="36.8785" lon="34.81171">
        <ele>48.302959</ele>
        <time>2022-01-04T08:57:35.304Z</time>
      </trkpt>
      <trkpt lat="36.87743" lon="34.80936">
        <ele>48.333366</ele>
        <time>2022-01-04T08:58:19.297Z</time>
      </trkpt>
      <trkpt lat="36.87627" lon="34.80686">
        <ele>48.231328</ele>
        <time>2022-01-04T08:59:05.306Z</time>
      </trkpt>
      <trkpt lat="36.8752" lon="34.80455">
        <ele>48.801013</ele>
        <time>2022-01-04T08:59:49.309Z</time>
      </trkpt>
      <trkpt lat="36.87413" lon="34.80225">
        <ele>48.960651</ele>
        <time>2022-01-04T09:00:33.304Z</time>
      </trkpt>
      <trkpt lat="36.87306" lon="34.7993">
        <ele>50.102231</ele>
        <time>2022-01-04T09:01:35.328Z</time>
      </trkpt>
      <trkpt lat="36.87202" lon="34.79622">
        <ele>52.361714</ele>
        <time>2022-01-04T09:02:41.305Z</time>
      </trkpt>
      <trkpt lat="36.87097" lon="34.79315">
        <ele>54.894296</ele>
        <time>2022-01-04T09:03:46.333Z</time>
      </trkpt>
      <trkpt lat="36.86913" lon="34.79322">
        <ele>54.492213</ele>
        <time>2022-01-04T09:04:45.312Z</time>
      </trkpt>
      <trkpt lat="36.8672" lon="34.79503">
        <ele>49.857975</ele>
        <time>2022-01-04T09:05:35.300Z</time>
      </trkpt>
      <trkpt lat="36.86682" lon="34.79227">
        <ele>46.512576</ele>
        <time>2022-01-04T09:06:46.316Z</time>
      </trkpt>
      <trkpt lat="36.86644" lon="34.78931">
        <ele>45.423765</ele>
        <time>2022-01-04T09:07:53.335Z</time>
      </trkpt>
      <trkpt lat="36.86577" lon="34.78642">
        <ele>45.554602</ele>
        <time>2022-01-04T09:09:02.323Z</time>
      </trkpt>
      <trkpt lat="36.86497" lon="34.78362">
        <ele>44.657835</ele>
        <time>2022-01-04T09:10:11.315Z</time>
      </trkpt>
      <trkpt lat="36.86242" lon="34.78381">
        <ele>41.344983</ele>
        <time>2022-01-04T09:11:19.310Z</time>
      </trkpt>
      <trkpt lat="36.85998" lon="34.78378">
        <ele>37.503783</ele>
        <time>2022-01-04T09:12:31.314Z</time>
      </trkpt>
      <trkpt lat="36.85758" lon="34.7833">
        <ele>35.382377</ele>
        <time>2022-01-04T09:13:44.322Z</time>
      </trkpt>
      <trkpt lat="36.85521" lon="34.78313">
        <ele>34.040755</ele>
        <time>2022-01-04T09:14:54.300Z</time>
      </trkpt>
      <trkpt lat="36.8527" lon="34.78288">
        <ele>31.509868</ele>
        <time>2022-01-04T09:16:00.306Z</time>
      </trkpt>
      <trkpt lat="36.85018" lon="34.78331">
        <ele>32.433829</ele>
        <time>2022-01-04T09:17:09.303Z</time>
      </trkpt>
      <trkpt lat="36.84806" lon="34.78218">
        <ele>30.312744</ele>
        <time>2022-01-04T09:18:15.301Z</time>
      </trkpt>
      <trkpt lat="36.84597" lon="34.78074">
        <ele>27.313938</ele>
        <time>2022-01-04T09:19:10.317Z</time>
      </trkpt>
      <trkpt lat="36.84404" lon="34.77871">
        <ele>26.947668</ele>
        <time>2022-01-04T09:20:18.311Z</time>
      </trkpt>
      <trkpt lat="36.84231" lon="34.77613">
        <ele>26.024324</ele>
        <time>2022-01-04T09:21:27.321Z</time>
      </trkpt>
      <trkpt lat="36.84105" lon="34.77359">
        <ele>27.445866</ele>
        <time>2022-01-04T09:22:33.339Z</time>
      </trkpt>
      <trkpt lat="36.83945" lon="34.77123">
        <ele>27.634528</ele>
        <time>2022-01-04T09:23:43.307Z</time>
      </trkpt>
      <trkpt lat="36.84073" lon="34.76886">
        <ele>27.789129</ele>
        <time>2022-01-04T09:24:54.308Z</time>
      </trkpt>
      <trkpt lat="36.84111" lon="34.76621">
        <ele>31.522453</ele>
        <time>2022-01-04T09:26:02.337Z</time>
      </trkpt>
      <trkpt lat="36.84109" lon="34.76336">
        <ele>33.232225</ele>
        <time>2022-01-04T09:27:16.308Z</time>
      </trkpt>
      <trkpt lat="36.84107" lon="34.76052">
        <ele>35.27601</ele>
        <time>2022-01-04T09:28:33.342Z</time>
      </trkpt>
      <trkpt lat="36.84116" lon="34.7575">
        <ele>34.816964</ele>
        <time>2022-01-04T09:29:49.305Z</time>
      </trkpt>
      <trkpt lat="36.84116" lon="34.7547">
        <ele>35.462104</ele>
        <time>2022-01-04T09:30:58.309Z</time>
      </trkpt>
      <trkpt lat="36.84115" lon="34.75192">
        <ele>36.607011</ele>
        <time>2022-01-04T09:32:11.324Z</time>
      </trkpt>
      <trkpt lat="36.84117" lon="34.74898">
        <ele>37.780003</ele>
        <time>2022-01-04T09:33:34.304Z</time>
      </trkpt>
      <trkpt lat="36.84127" lon="34.74616">
        <ele>38.914539</ele>
        <time>2022-01-04T09:34:47.343Z</time>
      </trkpt>
      <trkpt lat="36.84265" lon="34.74403">
        <ele>38.60295</ele>
        <time>2022-01-04T09:36:01.330Z</time>
      </trkpt>
      <trkpt lat="36.84318" lon="34.74105">
        <ele>41.936341</ele>
        <time>2022-01-04T09:37:19.295Z</time>
      </trkpt>
      <trkpt lat="36.84412" lon="34.73856">
        <ele>41.973713</ele>
        <time>2022-01-04T09:38:35.351Z</time>
      </trkpt>
      <trkpt lat="36.84613" lon="34.73722">
        <ele>41.514226</ele>
        <time>2022-01-04T09:39:50.301Z</time>
      </trkpt>
      <trkpt lat="36.84661" lon="34.73533">
        <ele>44.78261</ele>
        <time>2022-01-04T09:41:15.338Z</time>
      </trkpt>
      <trkpt lat="36.84554" lon="34.73272">
        <ele>49.993764</ele>
        <time>2022-01-04T09:42:31.348Z</time>
      </trkpt>
      <trkpt lat="36.84447" lon="34.73031">
        <ele>48.700445</ele>
        <time>2022-01-04T09:43:40.305Z</time>
      </trkpt>
      <trkpt lat="36.84618" lon="34.72854">
        <ele>55.778787</ele>
        <time>2022-01-04T09:44:50.299Z</time>
      </trkpt>
      <trkpt lat="36.84798" lon="34.72649">
        <ele>55.12179</ele>
        <time>2022-01-04T09:46:31.309Z</time>
      </trkpt>
      <trkpt lat="36.8493" lon="34.72503">
        <ele>57.605945</ele>
        <time>2022-01-04T09:47:43.311Z</time>
      </trkpt>
      <trkpt lat="36.85152" lon="34.72444">
        <ele>58.262258</ele>
        <time>2022-01-04T09:49:29.325Z</time>
      </trkpt>
      <trkpt lat="36.85074" lon="34.72415">
        <ele>51.595627</ele>
        <time>2022-01-04T09:50:33.304Z</time>
      </trkpt>
      <trkpt lat="36.84981" lon="34.72114">
        <ele>50.928468</ele>
        <time>2022-01-04T09:51:42.337Z</time>
      </trkpt>
      <trkpt lat="36.84892" lon="34.71798">
        <ele>51.068474</ele>
        <time>2022-01-04T09:52:46.316Z</time>
      </trkpt>
      <trkpt lat="36.84807" lon="34.71514">
        <ele>51.680614</ele>
        <time>2022-01-04T09:53:40.343Z</time>
      </trkpt>
      <trkpt lat="36.84732" lon="34.7121">
        <ele>53.17659</ele>
        <time>2022-01-04T09:54:52.302Z</time>
      </trkpt>
      <trkpt lat="36.84642" lon="34.70951">
        <ele>54.07691</ele>
        <time>2022-01-04T10:06:55.322Z</time>
      </trkpt>
      <trkpt lat="36.84556" lon="34.70675">
        <ele>57.12874</ele>
        <time>2022-01-04T10:08:24.299Z</time>
      </trkpt>
      <trkpt lat="36.84484" lon="34.70406">
        <ele>56.415967</ele>
        <time>2022-01-04T10:09:33.311Z</time>
      </trkpt>
      <trkpt lat="36.84382" lon="34.70114">
        <ele>46.20741</ele>
        <time>2022-01-04T10:10:54.330Z</time>
      </trkpt>
      <trkpt lat="36.8428" lon="34.69856">
        <ele>34.378488</ele>
        <time>2022-01-04T10:12:30.306Z</time>
      </trkpt>
      <trkpt lat="36.84166" lon="34.69571">
        <ele>33.760013</ele>
        <time>2022-01-04T10:13:36.316Z</time>
      </trkpt>
      <trkpt lat="36.84043" lon="34.69269">
        <ele>38.566184</ele>
        <time>2022-01-04T10:14:45.308Z</time>
      </trkpt>
      <trkpt lat="36.83894" lon="34.69003">
        <ele>36.755659</ele>
        <time>2022-01-04T10:15:51.316Z</time>
      </trkpt>
      <trkpt lat="36.83761" lon="34.6877">
        <ele>42.015279</ele>
        <time>2022-01-04T10:17:00.323Z</time>
      </trkpt>
      <trkpt lat="36.83629" lon="34.68527">
        <ele>48.989403</ele>
        <time>2022-01-04T10:18:16.311Z</time>
      </trkpt>
      <trkpt lat="36.83484" lon="34.68279">
        <ele>46.279096</ele>
        <time>2022-01-04T10:19:27.314Z</time>
      </trkpt>
      <trkpt lat="36.83351" lon="34.68036">
        <ele>48.259072</ele>
        <time>2022-01-04T10:20:34.303Z</time>
      </trkpt>
      <trkpt lat="36.83226" lon="34.67785">
        <ele>38.859088</ele>
        <time>2022-01-04T10:21:28.327Z</time>
      </trkpt>
      <trkpt lat="36.83153" lon="34.67472">
        <ele>44.180311</ele>
        <time>2022-01-04T10:22:44.303Z</time>
      </trkpt>
      <trkpt lat="36.83276" lon="34.67264">
        <ele>50.989252</ele>
        <time>2022-01-04T10:23:54.309Z</time>
      </trkpt>
      <trkpt lat="36.83138" lon="34.67093">
        <ele>53.179975</ele>
        <time>2022-01-04T10:24:43.314Z</time>
      </trkpt>
      <trkpt lat="36.82883" lon="34.67019">
        <ele>51.62166</ele>
        <time>2022-01-04T10:25:38.306Z</time>
      </trkpt>
      <trkpt lat="36.82638" lon="34.66978">
        <ele>44.275859</ele>
        <time>2022-01-04T10:26:36.331Z</time>
      </trkpt>
      <trkpt lat="36.82564" lon="34.66742">
        <ele>42.334075</ele>
        <time>2022-01-04T10:27:31.325Z</time>
      </trkpt>
      <trkpt lat="36.82487" lon="34.66466">
        <ele>45.424757</ele>
        <time>2022-01-04T10:28:27.327Z</time>
      </trkpt>
      <trkpt lat="36.82436" lon="34.66159">
        <ele>38.174092</ele>
        <time>2022-01-04T10:29:23.329Z</time>
      </trkpt>
      <trkpt lat="36.82308" lon="34.66041">
        <ele>37.342343</ele>
        <time>2022-01-04T10:30:17.315Z</time>
      </trkpt>
      <trkpt lat="36.82133" lon="34.66032">
        <ele>38.150086</ele>
        <time>2022-01-04T10:31:08.311Z</time>
      </trkpt>
      <trkpt lat="36.81995" lon="34.65801">
        <ele>41.270222</ele>
        <time>2022-01-04T10:31:55.329Z</time>
      </trkpt>
      <trkpt lat="36.81792" lon="34.65672">
        <ele>35.391493</ele>
        <time>2022-01-04T10:32:41.314Z</time>
      </trkpt>
      <trkpt lat="36.81629" lon="34.65421">
        <ele>31.959157</ele>
        <time>2022-01-04T10:33:26.309Z</time>
      </trkpt>
      <trkpt lat="36.81476" lon="34.65179">
        <ele>30.675015</ele>
        <time>2022-01-04T10:34:16.323Z</time>
      </trkpt>
      <trkpt lat="36.81329" lon="34.64939">
        <ele>33.916291</ele>
        <time>2022-01-04T10:35:09.310Z</time>
      </trkpt>
      <trkpt lat="36.81194" lon="34.64721">
        <ele>36.627521</ele>
        <time>2022-01-04T10:36:16.305Z</time>
      </trkpt>
      <trkpt lat="36.81077" lon="34.64489">
        <ele>36.218483</ele>
        <time>2022-01-04T10:37:01.313Z</time>
      </trkpt>
      <trkpt lat="36.81027" lon="34.64204">
        <ele>43.459356</ele>
        <time>2022-01-04T10:37:54.312Z</time>
      </trkpt>
      <trkpt lat="36.80882" lon="34.63997">
        <ele>41.988253</ele>
        <time>2022-01-04T10:38:40.304Z</time>
      </trkpt>
      <trkpt lat="36.80732" lon="34.6379">
        <ele>39.616835</ele>
        <time>2022-01-04T10:39:27.312Z</time>
      </trkpt>
      <trkpt lat="36.80594" lon="34.63558">
        <ele>38.919527</ele>
        <time>2022-01-04T10:40:16.315Z</time>
      </trkpt>
      <trkpt lat="36.80468" lon="34.63305">
        <ele>42.842331</ele>
        <time>2022-01-04T10:41:02.303Z</time>
      </trkpt>
      <trkpt lat="36.80334" lon="34.63044">
        <ele>54.056621</ele>
        <time>2022-01-04T10:42:55.307Z</time>
      </trkpt>
      <trkpt lat="36.80172" lon="34.62868">
        <ele>52.076434</ele>
        <time>2022-01-04T10:44:27.307Z</time>
      </trkpt>
      <trkpt lat="36.79957" lon="34.62872">
        <ele>59.972871</ele>
        <time>2022-01-04T10:45:51.311Z</time>
      </trkpt>
      <trkpt lat="36.79812" lon="34.62627">
        <ele>73.906555</ele>
        <time>2022-01-04T10:47:03.316Z</time>
      </trkpt>
      <trkpt lat="36.79638" lon="34.62401">
        <ele>63.670977</ele>
        <time>2022-01-04T10:48:07.300Z</time>
      </trkpt>
      <trkpt lat="36.7952" lon="34.62122">
        <ele>70.384885</ele>
        <time>2022-01-04T10:49:11.300Z</time>
      </trkpt>
      <trkpt lat="36.79441" lon="34.61805">
        <ele>65.309814</ele>
        <time>2022-01-04T10:51:09.323Z</time>
      </trkpt>
      <trkpt lat="36.79395" lon="34.61519">
        <ele>56.803084</ele>
        <time>2022-01-04T10:52:14.304Z</time>
      </trkpt>
      <trkpt lat="36.79368" lon="34.61224">
        <ele>51.964904</ele>
        <time>2022-01-04T10:54:24.310Z</time>
      </trkpt>
      <trkpt lat="36.79402" lon="34.60919">
        <ele>51.266356</ele>
        <time>2022-01-04T10:55:31.309Z</time>
      </trkpt>
      <trkpt lat="36.79274" lon="34.6067">
        <ele>53.635631</ele>
        <time>2022-01-04T10:56:49.317Z</time>
      </trkpt>
      <trkpt lat="36.79148" lon="34.60404">
        <ele>55.45391</ele>
        <time>2022-01-04T10:57:46.332Z</time>
      </trkpt>
      <trkpt lat="36.79033" lon="34.60148">
        <ele>55.63786</ele>
        <time>2022-01-04T10:58:54.316Z</time>
      </trkpt>
      <trkpt lat="36.78894" lon="34.59927">
        <ele>57.132179</ele>
        <time>2022-01-04T10:59:42.324Z</time>
      </trkpt>
      <trkpt lat="36.78756" lon="34.59674">
        <ele>57.551727</ele>
        <time>2022-01-04T11:00:41.305Z</time>
      </trkpt>
      <trkpt lat="36.78651" lon="34.59413">
        <ele>53.616107</ele>
        <time>2022-01-04T11:01:37.305Z</time>
      </trkpt>
      <trkpt lat="36.78552" lon="34.59136">
        <ele>52.956915</ele>
        <time>2022-01-04T11:02:30.312Z</time>
      </trkpt>
      <trkpt lat="36.78448" lon="34.58876">
        <ele>41.736521</ele>
        <time>2022-01-04T11:03:32.319Z</time>
      </trkpt>
      <trkpt lat="36.7828" lon="34.58684">
        <ele>44.280665</ele>
        <time>2022-01-04T11:04:35.307Z</time>
      </trkpt>
      <trkpt lat="36.78108" lon="34.58598">
        <ele>58.016352</ele>
        <time>2022-01-04T11:06:00.306Z</time>
      </trkpt>
      <trkpt lat="36.78022" lon="34.58312">
        <ele>54.119535</ele>
        <time>2022-01-04T11:07:06.311Z</time>
      </trkpt>
      <trkpt lat="36.7802" lon="34.58168">
        <ele>54.119535</ele>
        <time>2022-01-04T11:08:57.154Z</time>
      </trkpt>
      <trkpt lat="36.81297" lon="34.63037">
        <ele>17.833674</ele>
        <time>2022-02-24T07:55:47.103Z</time>
      </trkpt>
      <trkpt lat="36.81248" lon="34.62941">
        <ele>17.836762</ele>
        <time>2022-02-24T07:56:10.316Z</time>
      </trkpt>
      <trkpt lat="36.81244" lon="34.62934">
        <ele>17.853646</ele>
        <time>2022-02-24T07:56:12.056Z</time>
      </trkpt>
      <trkpt lat="36.81244" lon="34.62917">
        <ele>17.88635</ele>
        <time>2022-02-24T07:56:15.683Z</time>
      </trkpt>
      <trkpt lat="36.812" lon="34.62909">
        <ele>17.993558</ele>
        <time>2022-02-24T07:56:26.558Z</time>
      </trkpt>
      <trkpt lat="36.81175" lon="34.62891">
        <ele>18.064586</ele>
        <time>2022-02-24T07:56:34.350Z</time>
      </trkpt>
      <trkpt lat="36.81158" lon="34.62879">
        <ele>18.111262</ele>
        <time>2022-02-24T07:56:39.604Z</time>
      </trkpt>
      <trkpt lat="36.81155" lon="34.62875">
        <ele>18.122486</ele>
        <time>2022-02-24T07:56:40.911Z</time>
      </trkpt>
      <trkpt lat="36.81142" lon="34.62873">
        <ele>18.154552</ele>
        <time>2022-02-24T07:56:45.101Z</time>
      </trkpt>
      <trkpt lat="36.81138" lon="34.62876">
        <ele>18.16549</ele>
        <time>2022-02-24T07:56:46.374Z</time>
      </trkpt>
      <trkpt lat="36.81135" lon="34.6288">
        <ele>18.176611</ele>
        <time>2022-02-24T07:56:47.691Z</time>
      </trkpt>
      <trkpt lat="36.81087" lon="34.62883">
        <ele>18.439763</ele>
        <time>2022-02-24T07:57:03.753Z</time>
      </trkpt>
      <trkpt lat="36.81056" lon="34.62889">
        <ele>19.006958</ele>
        <time>2022-02-24T07:57:14.125Z</time>
      </trkpt>
      <trkpt lat="36.81048" lon="34.62892">
        <ele>19.167511</ele>
        <time>2022-02-24T07:57:17.228Z</time>
      </trkpt>
      <trkpt lat="36.81039" lon="34.62897">
        <ele>19.350018</ele>
        <time>2022-02-24T07:57:20.782Z</time>
      </trkpt>
      <trkpt lat="36.81032" lon="34.629">
        <ele>19.492733</ele>
        <time>2022-02-24T07:57:23.364Z</time>
      </trkpt>
      <trkpt lat="36.80995" lon="34.6289">
        <ele>20.192808</ele>
        <time>2022-02-24T07:57:37.217Z</time>
      </trkpt>
      <trkpt lat="36.80973" lon="34.62885">
        <ele>20.606128</ele>
        <time>2022-02-24T07:57:46.058Z</time>
      </trkpt>
      <trkpt lat="36.8094" lon="34.62878">
        <ele>21.219353</ele>
        <time>2022-02-24T07:57:59.663Z</time>
      </trkpt>
      <trkpt lat="36.80927" lon="34.62847">
        <ele>21.667111</ele>
        <time>2022-02-24T07:58:11.007Z</time>
      </trkpt>
      <trkpt lat="36.80904" lon="34.62796">
        <ele>22.087275</ele>
        <time>2022-02-24T07:58:28.408Z</time>
      </trkpt>
      <trkpt lat="36.80863" lon="34.62706">
        <ele>22.828946</ele>
        <time>2022-02-24T07:58:54.100Z</time>
      </trkpt>
      <trkpt lat="36.80821" lon="34.62613">
        <ele>22.921469</ele>
        <time>2022-02-24T07:59:16.974Z</time>
      </trkpt>
      <trkpt lat="36.80799" lon="34.62546">
        <ele>22.540777</ele>
        <time>2022-02-24T07:59:31.036Z</time>
      </trkpt>
      <trkpt lat="36.80781" lon="34.62498">
        <ele>22.261296</ele>
        <time>2022-02-24T07:59:40.760Z</time>
      </trkpt>
      <trkpt lat="36.80761" lon="34.62442">
        <ele>22.013511</ele>
        <time>2022-02-24T07:59:53.211Z</time>
      </trkpt>
      <trkpt lat="36.80749" lon="34.62407">
        <ele>22.001994</ele>
        <time>2022-02-24T08:00:02.200Z</time>
      </trkpt>
      <trkpt lat="36.80732" lon="34.62357">
        <ele>21.985621</ele>
        <time>2022-02-24T08:00:14.307Z</time>
      </trkpt>
      <trkpt lat="36.80713" lon="34.62307">
        <ele>21.969149</ele>
        <time>2022-02-24T08:00:26.405Z</time>
      </trkpt>
      <trkpt lat="36.8069" lon="34.62241">
        <ele>21.97094</ele>
        <time>2022-02-24T08:00:42.944Z</time>
      </trkpt>
      <trkpt lat="36.80658" lon="34.62148">
        <ele>22.147904</ele>
        <time>2022-02-24T08:01:07.336Z</time>
      </trkpt>
      <trkpt lat="36.80624" lon="34.6211">
        <ele>22.249525</ele>
        <time>2022-02-24T08:01:21.149Z</time>
      </trkpt>
      <trkpt lat="36.80606" lon="34.62094">
        <ele>22.295994</ele>
        <time>2022-02-24T08:01:27.023Z</time>
      </trkpt>
      <trkpt lat="36.80567" lon="34.6206">
        <ele>22.243489</ele>
        <time>2022-02-24T08:01:39.630Z</time>
      </trkpt>
      <trkpt lat="36.80609" lon="34.61982">
        <ele>21.942293</ele>
        <time>2022-02-24T08:01:59.466Z</time>
      </trkpt>
      <trkpt lat="36.80627" lon="34.61947">
        <ele>21.809167</ele>
        <time>2022-02-24T08:02:08.202Z</time>
      </trkpt>
      <trkpt lat="36.80575" lon="34.61907">
        <ele>21.495833</ele>
        <time>2022-02-24T08:02:23.651Z</time>
      </trkpt>
      <trkpt lat="36.80569" lon="34.61919">
        <ele>21.397789</ele>
        <time>2022-02-24T08:02:26.464Z</time>
      </trkpt>
      <trkpt lat="36.80483" lon="34.61845">
        <ele>20.501879</ele>
        <time>2022-02-24T08:02:51.675Z</time>
      </trkpt>
      <trkpt lat="36.80399" lon="34.61778">
        <ele>19.832641</ele>
        <time>2022-02-24T08:03:16.600Z</time>
      </trkpt>
      <trkpt lat="36.80337" lon="34.6173">
        <ele>19.48105</ele>
        <time>2022-02-24T08:03:35.320Z</time>
      </trkpt>
      <trkpt lat="36.80362" lon="34.61664">
        <ele>19.215867</ele>
        <time>2022-02-24T08:03:50.696Z</time>
      </trkpt>
      <trkpt lat="36.80272" lon="34.61633">
        <ele>19.451627</ele>
        <time>2022-02-24T08:04:16.348Z</time>
      </trkpt>
      <trkpt lat="36.80236" lon="34.61617">
        <ele>19.548095</ele>
        <time>2022-02-24T08:04:27.622Z</time>
      </trkpt>
      <trkpt lat="36.80269" lon="34.61547">
        <ele>19.801652</ele>
        <time>2022-02-24T08:04:46.652Z</time>
      </trkpt>
      <trkpt lat="36.80277" lon="34.61538">
        <ele>19.875137</ele>
        <time>2022-02-24T08:04:49.797Z</time>
      </trkpt>
      <trkpt lat="36.80285" lon="34.6153">
        <ele>19.948092</ele>
        <time>2022-02-24T08:04:53.027Z</time>
      </trkpt>
      <trkpt lat="36.80296" lon="34.61517">
        <ele>20.046249</ele>
        <time>2022-02-24T08:04:57.387Z</time>
      </trkpt>
      <trkpt lat="36.80309" lon="34.61496">
        <ele>20.195005</ele>
        <time>2022-02-24T08:05:04.159Z</time>
      </trkpt>
      <trkpt lat="36.80265" lon="34.61449">
        <ele>20.590445</ele>
        <time>2022-02-24T08:05:22.965Z</time>
      </trkpt>
      <trkpt lat="36.80236" lon="34.61415">
        <ele>20.865304</ele>
        <time>2022-02-24T08:05:35.354Z</time>
      </trkpt>
      <trkpt lat="36.80206" lon="34.61385">
        <ele>20.742318</ele>
        <time>2022-02-24T08:05:46.200Z</time>
      </trkpt>
      <trkpt lat="36.80161" lon="34.61342">
        <ele>20.464854</ele>
        <time>2022-02-24T08:06:00.937Z</time>
      </trkpt>
      <trkpt lat="36.80129" lon="34.61308">
        <ele>20.262417</ele>
        <time>2022-02-24T08:06:11.178Z</time>
      </trkpt>
      <trkpt lat="36.80101" lon="34.61272">
        <ele>20.068722</ele>
        <time>2022-02-24T08:06:20.861Z</time>
      </trkpt>
      <trkpt lat="36.80073" lon="34.61237">
        <ele>19.701316</ele>
        <time>2022-02-24T08:06:30.575Z</time>
      </trkpt>
      <trkpt lat="36.80051" lon="34.61215">
        <ele>19.411335</ele>
        <time>2022-02-24T08:06:37.469Z</time>
      </trkpt>
      <trkpt lat="36.8004" lon="34.61209">
        <ele>19.289755</ele>
        <time>2022-02-24T08:06:40.258Z</time>
      </trkpt>
      <trkpt lat="36.80025" lon="34.612">
        <ele>19.118004</ele>
        <time>2022-02-24T08:06:44.375Z</time>
      </trkpt>
      <trkpt lat="36.79996" lon="34.61185">
        <ele>18.791587</ele>
        <time>2022-02-24T08:06:51.994Z</time>
      </trkpt>
      <trkpt lat="36.79999" lon="34.61174">
        <ele>18.692359</ele>
        <time>2022-02-24T08:06:54.130Z</time>
      </trkpt>
      <trkpt lat="36.79964" lon="34.61175">
        <ele>18.330391</ele>
        <time>2022-02-24T08:07:02.429Z</time>
      </trkpt>
      <trkpt lat="36.79954" lon="34.61178">
        <ele>18.221913</ele>
        <time>2022-02-24T08:07:04.929Z</time>
      </trkpt>
      <trkpt lat="36.79935" lon="34.61179">
        <ele>18.017335</ele>
        <time>2022-02-24T08:07:09.568Z</time>
      </trkpt>
      <trkpt lat="36.79926" lon="34.6118">
        <ele>17.913747</ele>
        <time>2022-02-24T08:07:11.789Z</time>
      </trkpt>
      <trkpt lat="36.79891" lon="34.61181">
        <ele>17.52652</ele>
        <time>2022-02-24T08:07:20.385Z</time>
      </trkpt>
      <trkpt lat="36.79887" lon="34.61181">
        <ele>17.479767</ele>
        <time>2022-02-24T08:07:21.433Z</time>
      </trkpt>
      <trkpt lat="36.79872" lon="34.6119">
        <ele>17.295795</ele>
        <time>2022-02-24T08:07:25.523Z</time>
      </trkpt>
      <trkpt lat="36.79853" lon="34.61153">
        <ele>16.90457</ele>
        <time>2022-02-24T08:07:34.050Z</time>
      </trkpt>
      <trkpt lat="36.79846" lon="34.61141">
        <ele>16.774046</ele>
        <time>2022-02-24T08:07:36.684Z</time>
      </trkpt>
      <trkpt lat="36.79841" lon="34.6113">
        <ele>16.659575</ele>
        <time>2022-02-24T08:07:39.189Z</time>
      </trkpt>
      <trkpt lat="36.79824" lon="34.61099">
        <ele>16.329372</ele>
        <time>2022-02-24T08:07:46.112Z</time>
      </trkpt>
      <trkpt lat="36.79813" lon="34.61078">
        <ele>16.133933</ele>
        <time>2022-02-24T08:07:50.867Z</time>
      </trkpt>
      <trkpt lat="36.79806" lon="34.61064">
        <ele>16.04191</ele>
        <time>2022-02-24T08:07:53.996Z</time>
      </trkpt>
      <trkpt lat="36.7979" lon="34.61033">
        <ele>15.850813</ele>
        <time>2022-02-24T08:08:00.970Z</time>
      </trkpt>
      <trkpt lat="36.79774" lon="34.60996">
        <ele>15.633163</ele>
        <time>2022-02-24T08:08:09.096Z</time>
      </trkpt>
      <trkpt lat="36.7977" lon="34.60989">
        <ele>15.58714</ele>
        <time>2022-02-24T08:08:10.686Z</time>
      </trkpt>
      <trkpt lat="36.7976" lon="34.60977">
        <ele>15.495884</ele>
        <time>2022-02-24T08:08:14.387Z</time>
      </trkpt>
      <trkpt lat="36.79706" lon="34.61013">
        <ele>15.102604</ele>
        <time>2022-02-24T08:08:30.366Z</time>
      </trkpt>
      <trkpt lat="36.79648" lon="34.61052">
        <ele>15.190587</ele>
        <time>2022-02-24T08:08:50.319Z</time>
      </trkpt>
      <trkpt lat="36.79616" lon="34.61072">
        <ele>15.324723</ele>
        <time>2022-02-24T08:09:01.025Z</time>
      </trkpt>
      <trkpt lat="36.79608" lon="34.61069">
        <ele>15.359085</ele>
        <time>2022-02-24T08:09:03.812Z</time>
      </trkpt>
      <trkpt lat="36.79603" lon="34.6105">
        <ele>15.421938</ele>
        <time>2022-02-24T08:09:08.926Z</time>
      </trkpt>
      <trkpt lat="36.79587" lon="34.6102">
        <ele>15.530369</ele>
        <time>2022-02-24T08:09:17.720Z</time>
      </trkpt>
      <trkpt lat="36.79574" lon="34.60991">
        <ele>15.631923</ele>
        <time>2022-02-24T08:09:25.867Z</time>
      </trkpt>
      <trkpt lat="36.79554" lon="34.60959">
        <ele>15.571926</ele>
        <time>2022-02-24T08:09:35.053Z</time>
      </trkpt>
      <trkpt lat="36.79535" lon="34.60991">
        <ele>15.394869</ele>
        <time>2022-02-24T08:09:43.280Z</time>
      </trkpt>
      <trkpt lat="36.79492" lon="34.60947">
        <ele>15.085005</ele>
        <time>2022-02-24T08:09:57.385Z</time>
      </trkpt>
      <trkpt lat="36.79464" lon="34.60918">
        <ele>14.878995</ele>
        <time>2022-02-24T08:10:06.091Z</time>
      </trkpt>
      <trkpt lat="36.7942" lon="34.60868">
        <ele>14.665101</ele>
        <time>2022-02-24T08:10:20.398Z</time>
      </trkpt>
      <trkpt lat="36.7941" lon="34.60891">
        <ele>14.65711</ele>
        <time>2022-02-24T08:10:25.890Z</time>
      </trkpt>
      <trkpt lat="36.79405" lon="34.60906">
        <ele>14.651891</ele>
        <time>2022-02-24T08:10:29.451Z</time>
      </trkpt>
      <trkpt lat="36.79397" lon="34.60898">
        <ele>14.648026</ele>
        <time>2022-02-24T08:10:33.727Z</time>
      </trkpt>
      <trkpt lat="36.79364" lon="34.60869">
        <ele>14.632309</ele>
        <time>2022-02-24T08:10:52.119Z</time>
      </trkpt>
      <trkpt lat="36.7936" lon="34.60865">
        <ele>14.630272</ele>
        <time>2022-02-24T08:10:54.734Z</time>
      </trkpt>
      <trkpt lat="36.79366" lon="34.60845">
        <ele>14.623655</ele>
        <time>2022-02-24T08:10:59.824Z</time>
      </trkpt>
      <trkpt lat="36.79351" lon="34.608">
        <ele>14.608302</ele>
        <time>2022-02-24T08:11:12.125Z</time>
      </trkpt>
      <trkpt lat="36.79339" lon="34.60777">
        <ele>14.680079</ele>
        <time>2022-02-24T08:11:19.163Z</time>
      </trkpt>
      <trkpt lat="36.79296" lon="34.60703">
        <ele>15.138797</ele>
        <time>2022-02-24T08:11:39.522Z</time>
      </trkpt>
      <trkpt lat="36.79263" lon="34.60649">
        <ele>15.482267</ele>
        <time>2022-02-24T08:11:56.581Z</time>
      </trkpt>
      <trkpt lat="36.79251" lon="34.60628">
        <ele>15.608715</ele>
        <time>2022-02-24T08:12:03.283Z</time>
      </trkpt>
      <trkpt lat="36.79234" lon="34.60606">
        <ele>15.785752</ele>
        <time>2022-02-24T08:12:11.294Z</time>
      </trkpt>
      <trkpt lat="36.79211" lon="34.60575">
        <ele>16.188649</ele>
        <time>2022-02-24T08:12:22.995Z</time>
      </trkpt>
      <trkpt lat="36.79204" lon="34.60566">
        <ele>16.30826</ele>
        <time>2022-02-24T08:12:26.616Z</time>
      </trkpt>
      <trkpt lat="36.792" lon="34.60551">
        <ele>16.453996</ele>
        <time>2022-02-24T08:12:30.907Z</time>
      </trkpt>
      <trkpt lat="36.79199" lon="34.60548">
        <ele>16.485496</ele>
        <time>2022-02-24T08:12:31.837Z</time>
      </trkpt>
      <trkpt lat="36.79192" lon="34.60527">
        <ele>16.700394</ele>
        <time>2022-02-24T08:12:37.786Z</time>
      </trkpt>
      <trkpt lat="36.79151" lon="34.60388">
        <ele>17.942092</ele>
        <time>2022-02-24T08:13:17.165Z</time>
      </trkpt>
      <trkpt lat="36.79148" lon="34.60378">
        <ele>17.981119</ele>
        <time>2022-02-24T08:13:20.314Z</time>
      </trkpt>
      <trkpt lat="36.7913" lon="34.60318">
        <ele>18.203197</ele>
        <time>2022-02-24T08:13:37.338Z</time>
      </trkpt>
      <trkpt lat="36.791" lon="34.60226">
        <ele>18.546973</ele>
        <time>2022-02-24T08:14:00.551Z</time>
      </trkpt>
      <trkpt lat="36.79094" lon="34.6021">
        <ele>18.610104</ele>
        <time>2022-02-24T08:14:04.250Z</time>
      </trkpt>
      <trkpt lat="36.79087" lon="34.60196">
        <ele>18.564815</ele>
        <time>2022-02-24T08:14:07.290Z</time>
      </trkpt>
      <trkpt lat="36.79076" lon="34.60178">
        <ele>18.387606</ele>
        <time>2022-02-24T08:14:11.663Z</time>
      </trkpt>
      <trkpt lat="36.7906" lon="34.6016">
        <ele>18.186181</ele>
        <time>2022-02-24T08:14:16.667Z</time>
      </trkpt>
      <trkpt lat="36.79037" lon="34.60151">
        <ele>17.959809</ele>
        <time>2022-02-24T08:14:22.310Z</time>
      </trkpt>
      <trkpt lat="36.79014" lon="34.60129">
        <ele>17.680543</ele>
        <time>2022-02-24T08:14:29.388Z</time>
      </trkpt>
      <trkpt lat="36.79" lon="34.60112">
        <ele>17.500692</ele>
        <time>2022-02-24T08:14:33.985Z</time>
      </trkpt>
      <trkpt lat="36.78974" lon="34.60077">
        <ele>17.130114</ele>
        <time>2022-02-24T08:14:43.552Z</time>
      </trkpt>
      <trkpt lat="36.78957" lon="34.60053">
        <ele>16.886627</ele>
        <time>2022-02-24T08:14:49.762Z</time>
      </trkpt>
      <trkpt lat="36.78846" lon="34.59831">
        <ele>14.778848</ele>
        <time>2022-02-24T08:15:40.134Z</time>
      </trkpt>
      <trkpt lat="36.78822" lon="34.5978">
        <ele>14.389492</ele>
        <time>2022-02-24T08:15:51.645Z</time>
      </trkpt>
      <trkpt lat="36.78792" lon="34.59725">
        <ele>13.958389</ele>
        <time>2022-02-24T08:16:04.656Z</time>
      </trkpt>
      <trkpt lat="36.78763" lon="34.5967">
        <ele>13.600095</ele>
        <time>2022-02-24T08:16:17.996Z</time>
      </trkpt>
      <trkpt lat="36.78702" lon="34.59551">
        <ele>13.841638</ele>
        <time>2022-02-24T08:16:50.171Z</time>
      </trkpt>
      <trkpt lat="36.78681" lon="34.5951">
        <ele>13.924151</ele>
        <time>2022-02-24T08:17:02.050Z</time>
      </trkpt>
      <trkpt lat="36.78675" lon="34.59492">
        <ele>13.957393</ele>
        <time>2022-02-24T08:17:06.936Z</time>
      </trkpt>
      <trkpt lat="36.78673" lon="34.59475">
        <ele>14.008774</ele>
        <time>2022-02-24T08:17:10.972Z</time>
      </trkpt>
      <trkpt lat="36.78677" lon="34.59463">
        <ele>14.05539</ele>
        <time>2022-02-24T08:17:14.329Z</time>
      </trkpt>
      <trkpt lat="36.78678" lon="34.59459">
        <ele>14.071919</ele>
        <time>2022-02-24T08:17:15.491Z</time>
      </trkpt>
      <trkpt lat="36.78679" lon="34.59452">
        <ele>14.097332</ele>
        <time>2022-02-24T08:17:17.158Z</time>
      </trkpt>
      <trkpt lat="36.78674" lon="34.59437">
        <ele>14.155058</ele>
        <time>2022-02-24T08:17:20.926Z</time>
      </trkpt>
      <trkpt lat="36.7867" lon="34.59434">
        <ele>14.180396</ele>
        <time>2022-02-24T08:17:22.568Z</time>
      </trkpt>
      <trkpt lat="36.78666" lon="34.59432">
        <ele>14.199631</ele>
        <time>2022-02-24T08:17:23.950Z</time>
      </trkpt>
      <trkpt lat="36.78661" lon="34.59429">
        <ele>14.223636</ele>
        <time>2022-02-24T08:17:25.765Z</time>
      </trkpt>
      <trkpt lat="36.78645" lon="34.59402">
        <ele>14.343059</ele>
        <time>2022-02-24T08:17:33.680Z</time>
      </trkpt>
      <trkpt lat="36.78608" lon="34.59304">
        <ele>14.736969</ele>
        <time>2022-02-24T08:17:59.552Z</time>
      </trkpt>
      <trkpt lat="36.786" lon="34.59278">
        <ele>14.634674</ele>
        <time>2022-02-24T08:18:04.933Z</time>
      </trkpt>
      <trkpt lat="36.78591" lon="34.59252">
        <ele>14.365965</ele>
        <time>2022-02-24T08:18:10.254Z</time>
      </trkpt>
      <trkpt lat="36.78549" lon="34.59136">
        <ele>13.139463</ele>
        <time>2022-02-24T08:18:33.522Z</time>
      </trkpt>
      <trkpt lat="36.78547" lon="34.59129">
        <ele>13.056517</ele>
        <time>2022-02-24T08:18:34.872Z</time>
      </trkpt>
      <trkpt lat="36.78532" lon="34.59087">
        <ele>12.616829</ele>
        <time>2022-02-24T08:18:42.552Z</time>
      </trkpt>
      <trkpt lat="36.78504" lon="34.59004">
        <ele>11.644821</ele>
        <time>2022-02-24T08:18:57.471Z</time>
      </trkpt>
      <trkpt lat="36.78499" lon="34.58988">
        <ele>11.471491</ele>
        <time>2022-02-24T08:19:00.240Z</time>
      </trkpt>
      <trkpt lat="36.78496" lon="34.58961">
        <ele>11.16703</ele>
        <time>2022-02-24T08:19:05.042Z</time>
      </trkpt>
      <trkpt lat="36.78498" lon="34.58953">
        <ele>11.083009</ele>
        <time>2022-02-24T08:19:06.501Z</time>
      </trkpt>
      <trkpt lat="36.78498" lon="34.58943">
        <ele>10.978647</ele>
        <time>2022-02-24T08:19:08.230Z</time>
      </trkpt>
      <trkpt lat="36.78488" lon="34.58926">
        <ele>10.753213</ele>
        <time>2022-02-24T08:19:12.218Z</time>
      </trkpt>
      <trkpt lat="36.78481" lon="34.58923">
        <ele>10.656854</ele>
        <time>2022-02-24T08:19:13.879Z</time>
      </trkpt>
      <trkpt lat="36.78475" lon="34.5892">
        <ele>10.563787</ele>
        <time>2022-02-24T08:19:15.690Z</time>
      </trkpt>
      <trkpt lat="36.78465" lon="34.58909">
        <ele>10.392647</ele>
        <time>2022-02-24T08:19:19.014Z</time>
      </trkpt>
      <trkpt lat="36.78436" lon="34.58863">
        <ele>10.509449</ele>
        <time>2022-02-24T08:19:32.177Z</time>
      </trkpt>
      <trkpt lat="36.78416" lon="34.58832">
        <ele>10.804706</ele>
        <time>2022-02-24T08:19:41.431Z</time>
      </trkpt>
      <trkpt lat="36.78406" lon="34.58816">
        <ele>10.965937</ele>
        <time>2022-02-24T08:19:46.581Z</time>
      </trkpt>
      <trkpt lat="36.78362" lon="34.58749">
        <ele>11.617937</ele>
        <time>2022-02-24T08:20:10.855Z</time>
      </trkpt>
      <trkpt lat="36.78353" lon="34.58736">
        <ele>11.748454</ele>
        <time>2022-02-24T08:20:15.904Z</time>
      </trkpt>
      <trkpt lat="36.78345" lon="34.58714">
        <ele>11.901841</ele>
        <time>2022-02-24T08:20:22.144Z</time>
      </trkpt>
      <trkpt lat="36.78335" lon="34.5867">
        <ele>11.951492</ele>
        <time>2022-02-24T08:20:33.706Z</time>
      </trkpt>
      <trkpt lat="36.78339" lon="34.58639">
        <ele>11.986301</ele>
        <time>2022-02-24T08:20:40.967Z</time>
      </trkpt>
      <trkpt lat="36.78354" lon="34.58613">
        <ele>12.020632</ele>
        <time>2022-02-24T08:20:48.053Z</time>
      </trkpt>
      <trkpt lat="36.7838" lon="34.58583">
        <ele>12.06956</ele>
        <time>2022-02-24T08:20:57.330Z</time>
      </trkpt>
      <trkpt lat="36.78352" lon="34.58549">
        <ele>12.123271</ele>
        <time>2022-02-24T08:21:07.182Z</time>
      </trkpt>
      <trkpt lat="36.78312" lon="34.58503">
        <ele>11.926389</ele>
        <time>2022-02-24T08:21:21.165Z</time>
      </trkpt>
      <trkpt lat="36.78283" lon="34.58463">
        <ele>11.699415</ele>
        <time>2022-02-24T08:21:31.932Z</time>
      </trkpt>
      <trkpt lat="36.78261" lon="34.58432">
        <ele>11.522418</ele>
        <time>2022-02-24T08:21:40.027Z</time>
      </trkpt>
      <trkpt lat="36.78257" lon="34.58422">
        <ele>11.474646</ele>
        <time>2022-02-24T08:21:42.284Z</time>
      </trkpt>
      <trkpt lat="36.78236" lon="34.58373">
        <ele>11.238897</ele>
        <time>2022-02-24T08:21:54.437Z</time>
      </trkpt>
      <trkpt lat="36.78186" lon="34.58236">
        <ele>11.039192</ele>
        <time>2022-02-24T08:22:28.269Z</time>
      </trkpt>
      <trkpt lat="36.78195" lon="34.58228">
        <ele>11.024908</ele>
        <time>2022-02-24T08:22:31.024Z</time>
      </trkpt>
      <trkpt lat="36.78173" lon="34.58184">
        <ele>10.968013</ele>
        <time>2022-02-24T08:22:41.845Z</time>
      </trkpt>
      <trkpt lat="36.78162" lon="34.58164">
        <ele>10.94722</ele>
        <time>2022-02-24T08:22:47.014Z</time>
      </trkpt>
      <trkpt lat="36.78149" lon="34.58136">
        <ele>10.955295</ele>
        <time>2022-02-24T08:22:53.832Z</time>
      </trkpt>
      <trkpt lat="36.78138" lon="34.58121">
        <ele>10.96057</ele>
        <time>2022-02-24T08:22:57.988Z</time>
      </trkpt>
      <trkpt lat="36.78097" lon="34.58049">
        <ele>10.982756</ele>
        <time>2022-02-24T08:23:17.277Z</time>
      </trkpt>
      <trkpt lat="36.78069" lon="34.57997">
        <ele>10.998651</ele>
        <time>2022-02-24T08:23:32.405Z</time>
      </trkpt>
      <trkpt lat="36.78045" lon="34.58014">
        <ele>11.087335</ele>
        <time>2022-02-24T08:23:40.574Z</time>
      </trkpt>
      <trkpt lat="36.78022" lon="34.57966">
        <ele>11.339392</ele>
        <time>2022-02-24T08:23:54.405Z</time>
      </trkpt>
      <trkpt lat="36.77997" lon="34.57915">
        <ele>11.613749</ele>
        <time>2022-02-24T08:24:09.594Z</time>
      </trkpt>
      <trkpt lat="36.78007" lon="34.57907">
        <ele>11.680456</ele>
        <time>2022-02-24T08:24:13.309Z</time>
      </trkpt>
      <trkpt lat="36.77977" lon="34.57836">
        <ele>12.019064</ele>
        <time>2022-02-24T08:24:33.133Z</time>
      </trkpt>
      <trkpt lat="36.77954" lon="34.57778">
        <ele>11.874658</ele>
        <time>2022-02-24T08:24:47.658Z</time>
      </trkpt>
      <trkpt lat="36.77953" lon="34.57772">
        <ele>11.860695</ele>
        <time>2022-02-24T08:24:48.974Z</time>
      </trkpt>
      <trkpt lat="36.77871" lon="34.57813">
        <ele>11.617074</ele>
        <time>2022-02-24T08:25:11.096Z</time>
      </trkpt>
      <trkpt lat="36.77857" lon="34.57768">
        <ele>11.514994</ele>
        <time>2022-02-24T08:25:21.025Z</time>
      </trkpt>
      <trkpt lat="36.77852" lon="34.57751">
        <ele>11.483688</ele>
        <time>2022-02-24T08:25:24.811Z</time>
      </trkpt>
      <trkpt lat="36.77844" lon="34.57726">
        <ele>11.436767</ele>
        <time>2022-02-24T08:25:30.965Z</time>
      </trkpt>
      <trkpt lat="36.77838" lon="34.57704">
        <ele>11.396436</ele>
        <time>2022-02-24T08:25:35.836Z</time>
      </trkpt>
      <trkpt lat="36.77828" lon="34.57673">
        <ele>11.338812</ele>
        <time>2022-02-24T08:25:43.120Z</time>
      </trkpt>
      <trkpt lat="36.77809" lon="34.57614">
        <ele>11.228069</ele>
        <time>2022-02-24T08:25:56.575Z</time>
      </trkpt>
      <trkpt lat="36.7779" lon="34.57554">
        <ele>11.172483</ele>
        <time>2022-02-24T08:26:10.568Z</time>
      </trkpt>
      <trkpt lat="36.7779" lon="34.57553">
        <ele>11.175642</ele>
        <time>2022-02-24T08:26:10.873Z</time>
      </trkpt>
      <trkpt lat="36.77771" lon="34.57492">
        <ele>11.334295</ele>
        <time>2022-02-24T08:26:26.138Z</time>
      </trkpt>
      <trkpt lat="36.77752" lon="34.57431">
        <ele>11.493847</ele>
        <time>2022-02-24T08:26:42.548Z</time>
      </trkpt>
      <trkpt lat="36.77695" lon="34.57471">
        <ele>11.696473</ele>
        <time>2022-02-24T08:27:01.607Z</time>
      </trkpt>
      <trkpt lat="36.77668" lon="34.57393">
        <ele>11.974161</ele>
        <time>2022-02-24T08:27:20.079Z</time>
      </trkpt>
      <trkpt lat="36.77659" lon="34.57366">
        <ele>12.070386</ele>
        <time>2022-02-24T08:27:27.070Z</time>
      </trkpt>
      <trkpt lat="36.7765" lon="34.57341">
        <ele>12.159106</ele>
        <time>2022-02-24T08:27:33.498Z</time>
      </trkpt>
      <trkpt lat="36.77646" lon="34.57328">
        <ele>12.204121</ele>
        <time>2022-02-24T08:27:37.116Z</time>
      </trkpt>
      <trkpt lat="36.77638" lon="34.57294">
        <ele>12.31985</ele>
        <time>2022-02-24T08:27:45.860Z</time>
      </trkpt>
      <trkpt lat="36.77631" lon="34.57273">
        <ele>12.394265</ele>
        <time>2022-02-24T08:27:51.662Z</time>
      </trkpt>
      <trkpt lat="36.77628" lon="34.57263">
        <ele>12.413327</ele>
        <time>2022-02-24T08:27:53.937Z</time>
      </trkpt>
      <trkpt lat="36.77619" lon="34.57239">
        <ele>12.374695</ele>
        <time>2022-02-24T08:28:00.205Z</time>
      </trkpt>
      <trkpt lat="36.77603" lon="34.5718">
        <ele>12.284348</ele>
        <time>2022-02-24T08:28:12.385Z</time>
      </trkpt>
      <trkpt lat="36.77591" lon="34.57148">
        <ele>12.232529</ele>
        <time>2022-02-24T08:28:19.506Z</time>
      </trkpt>
      <trkpt lat="36.77559" lon="34.57069">
        <ele>12.103242</ele>
        <time>2022-02-24T08:28:37.585Z</time>
      </trkpt>
      <trkpt lat="36.77543" lon="34.57029">
        <ele>11.740005</ele>
        <time>2022-02-24T08:28:47.041Z</time>
      </trkpt>
      <trkpt lat="36.77538" lon="34.57017">
        <ele>11.615482</ele>
        <time>2022-02-24T08:28:49.757Z</time>
      </trkpt>
      <trkpt lat="36.7749" lon="34.56917">
        <ele>10.492443</ele>
        <time>2022-02-24T08:29:10.017Z</time>
      </trkpt>
      <trkpt lat="36.77479" lon="34.56895">
        <ele>10.245245</ele>
        <time>2022-02-24T08:29:14.576Z</time>
      </trkpt>
      <trkpt lat="36.77462" lon="34.56863">
        <ele>9.885597</ele>
        <time>2022-02-24T08:29:21.379Z</time>
      </trkpt>
      <trkpt lat="36.77442" lon="34.5683">
        <ele>9.537762</ele>
        <time>2022-02-24T08:29:28.946Z</time>
      </trkpt>
      <trkpt lat="36.77423" lon="34.56794">
        <ele>9.178497</ele>
        <time>2022-02-24T08:29:36.863Z</time>
      </trkpt>
      <trkpt lat="36.77401" lon="34.56758">
        <ele>8.798793</ele>
        <time>2022-02-24T08:29:45.207Z</time>
      </trkpt>
      <trkpt lat="36.77393" lon="34.56743">
        <ele>8.643946</ele>
        <time>2022-02-24T08:29:48.678Z</time>
      </trkpt>
      <trkpt lat="36.77341" lon="34.56656">
        <ele>8.192297</ele>
        <time>2022-02-24T08:30:08.503Z</time>
      </trkpt>
      <trkpt lat="36.77335" lon="34.56646">
        <ele>8.237161</ele>
        <time>2022-02-24T08:30:10.952Z</time>
      </trkpt>
      <trkpt lat="36.77324" lon="34.56631">
        <ele>8.311252</ele>
        <time>2022-02-24T08:30:15.711Z</time>
      </trkpt>
      <trkpt lat="36.77305" lon="34.56603">
        <ele>8.446998</ele>
        <time>2022-02-24T08:30:25.003Z</time>
      </trkpt>
      <trkpt lat="36.77239" lon="34.56495">
        <ele>9.054054</ele>
        <time>2022-02-24T08:30:59.292Z</time>
      </trkpt>
      <trkpt lat="36.77217" lon="34.56462">
        <ele>9.446189</ele>
        <time>2022-02-24T08:31:10.285Z</time>
      </trkpt>
      <trkpt lat="36.77199" lon="34.56431">
        <ele>9.793446</ele>
        <time>2022-02-24T08:31:20.523Z</time>
      </trkpt>
      <trkpt lat="36.77189" lon="34.56416">
        <ele>9.977338</ele>
        <time>2022-02-24T08:31:25.986Z</time>
      </trkpt>
      <trkpt lat="36.77183" lon="34.56406">
        <ele>10.089784</ele>
        <time>2022-02-24T08:31:29.348Z</time>
      </trkpt>
      <trkpt lat="36.77063" lon="34.56205">
        <ele>11.754084</ele>
        <time>2022-02-24T08:32:32.564Z</time>
      </trkpt>
      <trkpt lat="36.77038" lon="34.56163">
        <ele>12.029474</ele>
        <time>2022-02-24T08:32:44.065Z</time>
      </trkpt>
      <trkpt lat="36.77022" lon="34.56138">
        <ele>12.023021</ele>
        <time>2022-02-24T08:32:50.593Z</time>
      </trkpt>
      <trkpt lat="36.77014" lon="34.56127">
        <ele>11.958638</ele>
        <time>2022-02-24T08:32:53.632Z</time>
      </trkpt>
      <trkpt lat="36.77011" lon="34.56121">
        <ele>11.92729</ele>
        <time>2022-02-24T08:32:55.034Z</time>
      </trkpt>
      <trkpt lat="36.76995" lon="34.56097">
        <ele>11.794434</ele>
        <time>2022-02-24T08:33:01.124Z</time>
      </trkpt>
      <trkpt lat="36.76859" lon="34.55896">
        <ele>10.79962</ele>
        <time>2022-02-24T08:33:51.453Z</time>
      </trkpt>
      <trkpt lat="36.76823" lon="34.55841">
        <ele>10.590866</ele>
        <time>2022-02-24T08:34:06.492Z</time>
      </trkpt>
      <trkpt lat="36.76754" lon="34.55735">
        <ele>10.129085</ele>
        <time>2022-02-24T08:34:35.671Z</time>
      </trkpt>
      <trkpt lat="36.76706" lon="34.55662">
        <ele>9.793815</ele>
        <time>2022-02-24T08:34:54.687Z</time>
      </trkpt>
      <trkpt lat="36.76654" lon="34.55583">
        <ele>8.843232</ele>
        <time>2022-02-24T08:35:13.222Z</time>
      </trkpt>
      <trkpt lat="36.76593" lon="34.55491">
        <ele>7.351655</ele>
        <time>2022-02-24T08:35:33.236Z</time>
      </trkpt>
      <trkpt lat="36.76544" lon="34.55415">
        <ele>6.94018</ele>
        <time>2022-02-24T08:35:50.759Z</time>
      </trkpt>
      <trkpt lat="36.76516" lon="34.55374">
        <ele>7.032866</ele>
        <time>2022-02-24T08:36:02.756Z</time>
      </trkpt>
      <trkpt lat="36.76505" lon="34.55359">
        <ele>7.068064</ele>
        <time>2022-02-24T08:36:07.727Z</time>
      </trkpt>
      <trkpt lat="36.76479" lon="34.55319">
        <ele>7.158308</ele>
        <time>2022-02-24T08:36:20.939Z</time>
      </trkpt>
      <trkpt lat="36.76477" lon="34.55316">
        <ele>7.165356</ele>
        <time>2022-02-24T08:36:21.958Z</time>
      </trkpt>
      <trkpt lat="36.76426" lon="34.55242">
        <ele>7.807601</ele>
        <time>2022-02-24T08:36:47.564Z</time>
      </trkpt>
      <trkpt lat="36.76408" lon="34.55213">
        <ele>8.167125</ele>
        <time>2022-02-24T08:36:57.317Z</time>
      </trkpt>
      <trkpt lat="36.76343" lon="34.55111">
        <ele>9.41653</ele>
        <time>2022-02-24T08:37:31.523Z</time>
      </trkpt>
      <trkpt lat="36.76276" lon="34.55018">
        <ele>10.176938</ele>
        <time>2022-02-24T08:38:02.312Z</time>
      </trkpt>
      <trkpt lat="36.762" lon="34.54904">
        <ele>10.859395</ele>
        <time>2022-02-24T08:38:36.903Z</time>
      </trkpt>
      <trkpt lat="36.76192" lon="34.54892">
        <ele>10.885705</ele>
        <time>2022-02-24T08:38:40.234Z</time>
      </trkpt>
      <trkpt lat="36.76159" lon="34.54844">
        <ele>10.992041</ele>
        <time>2022-02-24T08:38:54.930Z</time>
      </trkpt>
      <trkpt lat="36.76085" lon="34.54734">
        <ele>11.250425</ele>
        <time>2022-02-24T08:39:25.225Z</time>
      </trkpt>
      <trkpt lat="36.76014" lon="34.54629">
        <ele>11.524083</ele>
        <time>2022-02-24T08:39:55.376Z</time>
      </trkpt>
      <trkpt lat="36.75932" lon="34.54508">
        <ele>12.583173</ele>
        <time>2022-02-24T08:40:33.819Z</time>
      </trkpt>
      <trkpt lat="36.75883" lon="34.54435">
        <ele>13.359936</ele>
        <time>2022-02-24T08:40:58.897Z</time>
      </trkpt>
      <trkpt lat="36.75866" lon="34.54409">
        <ele>13.740138</ele>
        <time>2022-02-24T08:41:08.390Z</time>
      </trkpt>
      <trkpt lat="36.75766" lon="34.54258">
        <ele>16.157816</ele>
        <time>2022-02-24T08:42:02.555Z</time>
      </trkpt>
      <trkpt lat="36.75758" lon="34.54246">
        <ele>16.239604</ele>
        <time>2022-02-24T08:42:06.290Z</time>
      </trkpt>
      <trkpt lat="36.75732" lon="34.54205">
        <ele>16.418235</ele>
        <time>2022-02-24T08:42:20.586Z</time>
      </trkpt>
      <trkpt lat="36.7564" lon="34.5407">
        <ele>16.862622</ele>
        <time>2022-02-24T08:42:58.829Z</time>
      </trkpt>
      <trkpt lat="36.75572" lon="34.53968">
        <ele>16.124028</ele>
        <time>2022-02-24T08:43:24.138Z</time>
      </trkpt>
      <trkpt lat="36.75525" lon="34.53901">
        <ele>15.661869</ele>
        <time>2022-02-24T08:43:40.768Z</time>
      </trkpt>
      <trkpt lat="36.75511" lon="34.53879">
        <ele>15.57136</ele>
        <time>2022-02-24T08:43:45.950Z</time>
      </trkpt>
      <trkpt lat="36.75503" lon="34.53868">
        <ele>15.525608</ele>
        <time>2022-02-24T08:43:48.670Z</time>
      </trkpt>
      <trkpt lat="36.7545" lon="34.5379">
        <ele>15.201152</ele>
        <time>2022-02-24T08:44:08.753Z</time>
      </trkpt>
      <trkpt lat="36.75412" lon="34.53734">
        <ele>15.045957</ele>
        <time>2022-02-24T08:44:24.608Z</time>
      </trkpt>
      <trkpt lat="36.75354" lon="34.5365">
        <ele>15.784352</ele>
        <time>2022-02-24T08:44:52.233Z</time>
      </trkpt>
      <trkpt lat="36.75307" lon="34.5358">
        <ele>16.390944</ele>
        <time>2022-02-24T08:45:15.425Z</time>
      </trkpt>
      <trkpt lat="36.75246" lon="34.5349">
        <ele>17.1766</ele>
        <time>2022-02-24T08:45:45.184Z</time>
      </trkpt>
      <trkpt lat="36.75216" lon="34.53446">
        <ele>17.564436</ele>
        <time>2022-02-24T08:46:00.265Z</time>
      </trkpt>
      <trkpt lat="36.75174" lon="34.53378">
        <ele>17.983387</ele>
        <time>2022-02-24T08:46:20.050Z</time>
      </trkpt>
      <trkpt lat="36.75127" lon="34.53298">
        <ele>17.9768</ele>
        <time>2022-02-24T08:46:40.165Z</time>
      </trkpt>
      <trkpt lat="36.75087" lon="34.53224">
        <ele>17.970828</ele>
        <time>2022-02-24T08:46:59.561Z</time>
      </trkpt>
      <trkpt lat="36.75067" lon="34.53191">
        <ele>17.918837</ele>
        <time>2022-02-24T08:47:09.047Z</time>
      </trkpt>
      <trkpt lat="36.75127" lon="34.53123">
        <ele>17.738537</ele>
        <time>2022-02-24T08:47:29.553Z</time>
      </trkpt>
      <trkpt lat="36.75094" lon="34.53061">
        <ele>17.606181</ele>
        <time>2022-02-24T08:47:45.370Z</time>
      </trkpt>
      <trkpt lat="36.75052" lon="34.52979">
        <ele>17.637887</ele>
        <time>2022-02-24T08:48:07.570Z</time>
      </trkpt>
      <trkpt lat="36.74999" lon="34.52867">
        <ele>17.753618</ele>
        <time>2022-02-24T08:48:37.686Z</time>
      </trkpt>
      <trkpt lat="36.75017" lon="34.52853">
        <ele>17.762979</ele>
        <time>2022-02-24T08:48:43.626Z</time>
      </trkpt>
      <trkpt lat="36.74986" lon="34.52779">
        <ele>17.707343</ele>
        <time>2022-02-24T08:49:02.271Z</time>
      </trkpt>
      <trkpt lat="36.74961" lon="34.52721">
        <ele>17.662729</ele>
        <time>2022-02-24T08:49:16.673Z</time>
      </trkpt>
      <trkpt lat="36.74922" lon="34.52628">
        <ele>17.514467</ele>
        <time>2022-02-24T08:49:39.112Z</time>
      </trkpt>
      <trkpt lat="36.74881" lon="34.52537">
        <ele>17.231487</ele>
        <time>2022-02-24T08:50:00.335Z</time>
      </trkpt>
      <trkpt lat="36.74841" lon="34.52427">
        <ele>16.988562</ele>
        <time>2022-02-24T08:50:26.911Z</time>
      </trkpt>
      <trkpt lat="36.74812" lon="34.52347">
        <ele>16.935531</ele>
        <time>2022-02-24T08:50:46.607Z</time>
      </trkpt>
      <trkpt lat="36.74789" lon="34.52285">
        <ele>16.89458</ele>
        <time>2022-02-24T08:51:01.626Z</time>
      </trkpt>
      <trkpt lat="36.74757" lon="34.52195">
        <ele>16.747857</ele>
        <time>2022-02-24T08:51:22.531Z</time>
      </trkpt>
      <trkpt lat="36.74732" lon="34.52128">
        <ele>16.609849</ele>
        <time>2022-02-24T08:51:38.968Z</time>
      </trkpt>
      <trkpt lat="36.74721" lon="34.52098">
        <ele>16.549657</ele>
        <time>2022-02-24T08:51:45.888Z</time>
      </trkpt>
      <trkpt lat="36.74699" lon="34.52036">
        <ele>16.41391</ele>
        <time>2022-02-24T08:52:00.062Z</time>
      </trkpt>
      <trkpt lat="36.74673" lon="34.51966">
        <ele>16.234573</ele>
        <time>2022-02-24T08:52:16.476Z</time>
      </trkpt>
      <trkpt lat="36.74641" lon="34.51878">
        <ele>16.008034</ele>
        <time>2022-02-24T08:52:37.425Z</time>
      </trkpt>
      <trkpt lat="36.74526" lon="34.51928">
        <ele>15.385178</ele>
        <time>2022-02-24T08:53:09.088Z</time>
      </trkpt>
      <trkpt lat="36.74502" lon="34.51871">
        <ele>15.094388</ele>
        <time>2022-02-24T08:53:21.615Z</time>
      </trkpt>
      <trkpt lat="36.74495" lon="34.51856">
        <ele>15.016563</ele>
        <time>2022-02-24T08:53:24.870Z</time>
      </trkpt>
      <trkpt lat="36.74459" lon="34.51766">
        <ele>14.595778</ele>
        <time>2022-02-24T08:53:43.832Z</time>
      </trkpt>
      <trkpt lat="36.74441" lon="34.5172">
        <ele>14.388047</ele>
        <time>2022-02-24T08:53:53.543Z</time>
      </trkpt>
      <trkpt lat="36.74419" lon="34.51732">
        <ele>14.265066</ele>
        <time>2022-02-24T08:53:59.805Z</time>
      </trkpt>
      <trkpt lat="36.74414" lon="34.51725">
        <ele>14.225731</ele>
        <time>2022-02-24T08:54:01.973Z</time>
      </trkpt>
      <trkpt lat="36.74364" lon="34.51647">
        <ele>14.166227</ele>
        <time>2022-02-24T08:54:24.594Z</time>
      </trkpt>
      <trkpt lat="36.74343" lon="34.51609">
        <ele>14.325885</ele>
        <time>2022-02-24T08:54:35.200Z</time>
      </trkpt>
      <trkpt lat="36.74333" lon="34.51596">
        <ele>14.387667</ele>
        <time>2022-02-24T08:54:39.287Z</time>
      </trkpt>
      <trkpt lat="36.7429" lon="34.5157">
        <ele>14.594185</ele>
        <time>2022-02-24T08:54:54.085Z</time>
      </trkpt>
      <trkpt lat="36.7425" lon="34.51544">
        <ele>14.788632</ele>
        <time>2022-02-24T08:55:08.587Z</time>
      </trkpt>
      <trkpt lat="36.7421" lon="34.51518">
        <ele>14.893335</ele>
        <time>2022-02-24T08:55:22.938Z</time>
      </trkpt>
      <trkpt lat="36.74204" lon="34.51513">
        <ele>14.910836</ele>
        <time>2022-02-24T08:55:25.165Z</time>
      </trkpt>
      <trkpt lat="36.74147" lon="34.51471">
        <ele>15.066061</ele>
        <time>2022-02-24T08:55:44.067Z</time>
      </trkpt>
      <trkpt lat="36.74089" lon="34.51426">
        <ele>15.188585</ele>
        <time>2022-02-24T08:56:02.396Z</time>
      </trkpt>
      <trkpt lat="36.74007" lon="34.51375">
        <ele>14.988304</ele>
        <time>2022-02-24T08:56:26.396Z</time>
      </trkpt>
      <trkpt lat="36.73939" lon="34.51328">
        <ele>14.819168</ele>
        <time>2022-02-24T08:56:46.542Z</time>
      </trkpt>
      <trkpt lat="36.73842" lon="34.51266">
        <ele>15.373387</ele>
        <time>2022-02-24T08:57:20.152Z</time>
      </trkpt>
      <trkpt lat="36.73838" lon="34.51264">
        <ele>15.39304</ele>
        <time>2022-02-24T08:57:21.847Z</time>
      </trkpt>
      <trkpt lat="36.73745" lon="34.51195">
        <ele>15.857838</ele>
        <time>2022-02-24T08:57:55.061Z</time>
      </trkpt>
      <trkpt lat="36.73737" lon="34.51216">
        <ele>15.905397</ele>
        <time>2022-02-24T08:58:00.490Z</time>
      </trkpt>
      <trkpt lat="36.73649" lon="34.51116">
        <ele>16.213873</ele>
        <time>2022-02-24T08:58:34.863Z</time>
      </trkpt>
      <trkpt lat="36.7359" lon="34.51046">
        <ele>15.736856</ele>
        <time>2022-02-24T08:58:55.988Z</time>
      </trkpt>
      <trkpt lat="36.73553" lon="34.50994">
        <ele>15.383327</ele>
        <time>2022-02-24T08:59:09.773Z</time>
      </trkpt>
      <trkpt lat="36.73485" lon="34.50914">
        <ele>14.739333</ele>
        <time>2022-02-24T08:59:32.569Z</time>
      </trkpt>
      <trkpt lat="36.73444" lon="34.50939">
        <ele>14.398904</ele>
        <time>2022-02-24T08:59:43.537Z</time>
      </trkpt>
      <trkpt lat="36.73379" lon="34.50977">
        <ele>13.859003</ele>
        <time>2022-02-24T09:00:01.414Z</time>
      </trkpt>
      <trkpt lat="36.73362" lon="34.50943">
        <ele>13.783414</ele>
        <time>2022-02-24T09:00:09.744Z</time>
      </trkpt>
      <trkpt lat="36.73313" lon="34.50844">
        <ele>14.05142</ele>
        <time>2022-02-24T09:00:36.525Z</time>
      </trkpt>
      <trkpt lat="36.73251" lon="34.50723">
        <ele>14.495277</ele>
        <time>2022-02-24T09:01:13.054Z</time>
      </trkpt>
      <trkpt lat="36.73208" lon="34.50656">
        <ele>14.869752</ele>
        <time>2022-02-24T09:01:34.379Z</time>
      </trkpt>
      <trkpt lat="36.73204" lon="34.50651">
        <ele>14.895149</ele>
        <time>2022-02-24T09:01:35.759Z</time>
      </trkpt>
      <trkpt lat="36.73196" lon="34.50637">
        <ele>14.973325</ele>
        <time>2022-02-24T09:01:39.986Z</time>
      </trkpt>
      <trkpt lat="36.73188" lon="34.50623">
        <ele>15.046885</ele>
        <time>2022-02-24T09:01:44.074Z</time>
      </trkpt>
      <trkpt lat="36.73142" lon="34.50662">
        <ele>15.097528</ele>
        <time>2022-02-24T09:02:00.089Z</time>
      </trkpt>
      <trkpt lat="36.73132" lon="34.50663">
        <ele>15.038136</ele>
        <time>2022-02-24T09:02:02.992Z</time>
      </trkpt>
      <trkpt lat="36.73125" lon="34.50661">
        <ele>14.99356</ele>
        <time>2022-02-24T09:02:05.207Z</time>
      </trkpt>
      <trkpt lat="36.73117" lon="34.50657">
        <ele>14.946733</ele>
        <time>2022-02-24T09:02:07.410Z</time>
      </trkpt>
      <trkpt lat="36.73111" lon="34.50652">
        <ele>14.901623</ele>
        <time>2022-02-24T09:02:09.594Z</time>
      </trkpt>
      <trkpt lat="36.73077" lon="34.50592">
        <ele>14.554882</ele>
        <time>2022-02-24T09:02:25.026Z</time>
      </trkpt>
      <trkpt lat="36.73029" lon="34.50503">
        <ele>13.794685</ele>
        <time>2022-02-24T09:02:45.109Z</time>
      </trkpt>
      <trkpt lat="36.73022" lon="34.50492">
        <ele>13.598985</ele>
        <time>2022-02-24T09:02:47.559Z</time>
      </trkpt>
      <trkpt lat="36.72957" lon="34.5055">
        <ele>12.134376</ele>
        <time>2022-02-24T09:03:05.354Z</time>
      </trkpt>
      <trkpt lat="36.72901" lon="34.50457">
        <ele>10.577351</ele>
        <time>2022-02-24T09:03:25.791Z</time>
      </trkpt>
      <trkpt lat="36.72844" lon="34.50511">
        <ele>9.685126</ele>
        <time>2022-02-24T09:03:42.125Z</time>
      </trkpt>
      <trkpt lat="36.72766" lon="34.50378">
        <ele>8.918731</ele>
        <time>2022-02-24T09:04:15.475Z</time>
      </trkpt>
      <trkpt lat="36.72758" lon="34.50367">
        <ele>8.986284</ele>
        <time>2022-02-24T09:04:19.205Z</time>
      </trkpt>
      <trkpt lat="36.72751" lon="34.50376">
        <ele>9.041114</ele>
        <time>2022-02-24T09:04:21.940Z</time>
      </trkpt>
      <trkpt lat="36.72686" lon="34.50362">
        <ele>9.408387</ele>
        <time>2022-02-24T09:04:43.227Z</time>
      </trkpt>
      <trkpt lat="36.72604" lon="34.50178">
        <ele>11.287301</ele>
        <time>2022-02-24T09:05:40.163Z</time>
      </trkpt>
      <trkpt lat="36.72589" lon="34.50146">
        <ele>11.665878</ele>
        <time>2022-02-24T09:05:49.392Z</time>
      </trkpt>
      <trkpt lat="36.72564" lon="34.50092">
        <ele>12.193805</ele>
        <time>2022-02-24T09:06:05.692Z</time>
      </trkpt>
      <trkpt lat="36.72521" lon="34.5">
        <ele>12.846133</ele>
        <time>2022-02-24T09:06:32.222Z</time>
      </trkpt>
      <trkpt lat="36.72511" lon="34.49979">
        <ele>12.996806</ele>
        <time>2022-02-24T09:06:37.853Z</time>
      </trkpt>
      <trkpt lat="36.7248" lon="34.4991">
        <ele>13.379006</ele>
        <time>2022-02-24T09:06:56.403Z</time>
      </trkpt>
      <trkpt lat="36.72428" lon="34.49796">
        <ele>13.335773</ele>
        <time>2022-02-24T09:07:24.968Z</time>
      </trkpt>
      <trkpt lat="36.72413" lon="34.49763">
        <ele>13.323335</ele>
        <time>2022-02-24T09:07:32.708Z</time>
      </trkpt>
      <trkpt lat="36.72467" lon="34.49709">
        <ele>13.07598</ele>
        <time>2022-02-24T09:07:49.178Z</time>
      </trkpt>
      <trkpt lat="36.72481" lon="34.49692">
        <ele>12.955402</ele>
        <time>2022-02-24T09:07:53.693Z</time>
      </trkpt>
      <trkpt lat="36.72437" lon="34.49598">
        <ele>12.412092</ele>
        <time>2022-02-24T09:08:15.452Z</time>
      </trkpt>
      <trkpt lat="36.72343" lon="34.49402">
        <ele>11.592855</ele>
        <time>2022-02-24T09:09:03.587Z</time>
      </trkpt>
      <trkpt lat="36.72315" lon="34.49357">
        <ele>11.389868</ele>
        <time>2022-02-24T09:09:15.502Z</time>
      </trkpt>
      <trkpt lat="36.72298" lon="34.49326">
        <ele>11.222763</ele>
        <time>2022-02-24T09:09:23.425Z</time>
      </trkpt>
      <trkpt lat="36.72245" lon="34.4923">
        <ele>10.695406</ele>
        <time>2022-02-24T09:09:47.523Z</time>
      </trkpt>
      <trkpt lat="36.72216" lon="34.49166">
        <ele>10.346174</ele>
        <time>2022-02-24T09:10:02.089Z</time>
      </trkpt>
      <trkpt lat="36.72192" lon="34.49068">
        <ele>9.807609</ele>
        <time>2022-02-24T09:10:22.134Z</time>
      </trkpt>
      <trkpt lat="36.72183" lon="34.49012">
        <ele>9.509202</ele>
        <time>2022-02-24T09:10:33.496Z</time>
      </trkpt>
      <trkpt lat="36.72172" lon="34.48985">
        <ele>9.350737</ele>
        <time>2022-02-24T09:10:39.836Z</time>
      </trkpt>
      <trkpt lat="36.72128" lon="34.48887">
        <ele>9.632889</ele>
        <time>2022-02-24T09:11:05.714Z</time>
      </trkpt>
      <trkpt lat="36.72064" lon="34.48754">
        <ele>10.196088</ele>
        <time>2022-02-24T09:11:44.892Z</time>
      </trkpt>
      <trkpt lat="36.72016" lon="34.48655">
        <ele>10.602801</ele>
        <time>2022-02-24T09:12:13.736Z</time>
      </trkpt>
      <trkpt lat="36.71989" lon="34.48599">
        <ele>10.830043</ele>
        <time>2022-02-24T09:12:28.609Z</time>
      </trkpt>
      <trkpt lat="36.71985" lon="34.48589">
        <ele>10.868277</ele>
        <time>2022-02-24T09:12:30.851Z</time>
      </trkpt>
      <trkpt lat="36.71935" lon="34.48473">
        <ele>11.207202</ele>
        <time>2022-02-24T09:12:59.903Z</time>
      </trkpt>
      <trkpt lat="36.71874" lon="34.48335">
        <ele>11.646273</ele>
        <time>2022-02-24T09:13:39.821Z</time>
      </trkpt>
      <trkpt lat="36.71863" lon="34.4834">
        <ele>11.692865</ele>
        <time>2022-02-24T09:13:43.459Z</time>
      </trkpt>
      <trkpt lat="36.71831" lon="34.48239">
        <ele>12.04005</ele>
        <time>2022-02-24T09:14:09.577Z</time>
      </trkpt>
      <trkpt lat="36.71763" lon="34.48049">
        <ele>11.514678</ele>
        <time>2022-02-24T09:14:52.976Z</time>
      </trkpt>
      <trkpt lat="36.71756" lon="34.48052">
        <ele>11.47455</ele>
        <time>2022-02-24T09:14:54.893Z</time>
      </trkpt>
      <trkpt lat="36.71728" lon="34.47994">
        <ele>11.218995</ele>
        <time>2022-02-24T09:15:08.183Z</time>
      </trkpt>
      <trkpt lat="36.71676" lon="34.47898">
        <ele>10.829215</ele>
        <time>2022-02-24T09:15:32.061Z</time>
      </trkpt>
      <trkpt lat="36.71646" lon="34.47817">
        <ele>10.530785</ele>
        <time>2022-02-24T09:15:51.569Z</time>
      </trkpt>
      <trkpt lat="36.71631" lon="34.47784">
        <ele>10.433621</ele>
        <time>2022-02-24T09:16:00.225Z</time>
      </trkpt>
      <trkpt lat="36.71605" lon="34.47739">
        <ele>10.295365</ele>
        <time>2022-02-24T09:16:11.614Z</time>
      </trkpt>
      <trkpt lat="36.71579" lon="34.47695">
        <ele>10.156598</ele>
        <time>2022-02-24T09:16:22.962Z</time>
      </trkpt>
      <trkpt lat="36.71555" lon="34.47655">
        <ele>10.02907</ele>
        <time>2022-02-24T09:16:33.634Z</time>
      </trkpt>
      <trkpt lat="36.71497" lon="34.47704">
        <ele>9.943243</ele>
        <time>2022-02-24T09:16:51.543Z</time>
      </trkpt>
      <trkpt lat="36.71438" lon="34.47629">
        <ele>9.905275</ele>
        <time>2022-02-24T09:17:14.243Z</time>
      </trkpt>
      <trkpt lat="36.71366" lon="34.47544">
        <ele>9.732115</ele>
        <time>2022-02-24T09:17:40.847Z</time>
      </trkpt>
      <trkpt lat="36.71305" lon="34.4747">
        <ele>9.488477</ele>
        <time>2022-02-24T09:18:03.023Z</time>
      </trkpt>
      <trkpt lat="36.71233" lon="34.47388">
        <ele>9.001218</ele>
        <time>2022-02-24T09:18:26.152Z</time>
      </trkpt>
      <trkpt lat="36.71204" lon="34.47355">
        <ele>8.744887</ele>
        <time>2022-02-24T09:18:35.303Z</time>
      </trkpt>
      <trkpt lat="36.71126" lon="34.4724">
        <ele>8.122075</ele>
        <time>2022-02-24T09:19:04.550Z</time>
      </trkpt>
      <trkpt lat="36.71017" lon="34.47037">
        <ele>8.110204</ele>
        <time>2022-02-24T09:19:56.635Z</time>
      </trkpt>
      <trkpt lat="36.70928" lon="34.46868">
        <ele>9.102625</ele>
        <time>2022-02-24T09:20:45.071Z</time>
      </trkpt>
      <trkpt lat="36.70884" lon="34.46783">
        <ele>10.003405</ele>
        <time>2022-02-24T09:21:12.239Z</time>
      </trkpt>
      <trkpt lat="36.70841" lon="34.46695">
        <ele>10.791004</ele>
        <time>2022-02-24T09:21:38.720Z</time>
      </trkpt>
      <trkpt lat="36.70815" lon="34.46642">
        <ele>11.023163</ele>
        <time>2022-02-24T09:21:53.842Z</time>
      </trkpt>
      <trkpt lat="36.70732" lon="34.46483">
        <ele>11.32424</ele>
        <time>2022-02-24T09:22:35.783Z</time>
      </trkpt>
      <trkpt lat="36.70725" lon="34.46469">
        <ele>11.253935</ele>
        <time>2022-02-24T09:22:38.825Z</time>
      </trkpt>
      <trkpt lat="36.707" lon="34.4642">
        <ele>11.00503</ele>
        <time>2022-02-24T09:22:50.107Z</time>
      </trkpt>
      <trkpt lat="36.7062" lon="34.46272">
        <ele>10.227596</ele>
        <time>2022-02-24T09:23:23.713Z</time>
      </trkpt>
      <trkpt lat="36.70596" lon="34.46224">
        <ele>9.980069</ele>
        <time>2022-02-24T09:23:34.296Z</time>
      </trkpt>
      <trkpt lat="36.70544" lon="34.4612">
        <ele>9.794243</ele>
        <time>2022-02-24T09:23:59.981Z</time>
      </trkpt>
      <trkpt lat="36.70489" lon="34.45999">
        <ele>10.614178</ele>
        <time>2022-02-24T09:24:35.027Z</time>
      </trkpt>
      <trkpt lat="36.70457" lon="34.45929">
        <ele>10.956475</ele>
        <time>2022-02-24T09:24:55.467Z</time>
      </trkpt>
      <trkpt lat="36.70436" lon="34.45879">
        <ele>11.038386</ele>
        <time>2022-02-24T09:25:09.261Z</time>
      </trkpt>
      <trkpt lat="36.70429" lon="34.45863">
        <ele>11.063838</ele>
        <time>2022-02-24T09:25:13.133Z</time>
      </trkpt>
      <trkpt lat="36.70373" lon="34.45751">
        <ele>11.234475</ele>
        <time>2022-02-24T09:25:39.997Z</time>
      </trkpt>
      <trkpt lat="36.70328" lon="34.45669">
        <ele>11.222108</ele>
        <time>2022-02-24T09:25:59.832Z</time>
      </trkpt>
      <trkpt lat="36.70297" lon="34.45616">
        <ele>11.213908</ele>
        <time>2022-02-24T09:26:14.039Z</time>
      </trkpt>
      <trkpt lat="36.7028" lon="34.45588">
        <ele>11.209588</ele>
        <time>2022-02-24T09:26:22.052Z</time>
      </trkpt>
      <trkpt lat="36.70265" lon="34.45563">
        <ele>11.327475</ele>
        <time>2022-02-24T09:26:29.619Z</time>
      </trkpt>
      <trkpt lat="36.70253" lon="34.45542">
        <ele>11.488384</ele>
        <time>2022-02-24T09:26:35.803Z</time>
      </trkpt>
      <trkpt lat="36.70175" lon="34.45416">
        <ele>12.480857</ele>
        <time>2022-02-24T09:27:15.796Z</time>
      </trkpt>
      <trkpt lat="36.70173" lon="34.45414">
        <ele>12.501814</ele>
        <time>2022-02-24T09:27:16.567Z</time>
      </trkpt>
      <trkpt lat="36.70106" lon="34.45291">
        <ele>12.98977</ele>
        <time>2022-02-24T09:27:51.188Z</time>
      </trkpt>
      <trkpt lat="36.70086" lon="34.45251">
        <ele>13.124705</ele>
        <time>2022-02-24T09:28:01.531Z</time>
      </trkpt>
      <trkpt lat="36.6996" lon="34.45003">
        <ele>13.080935</ele>
        <time>2022-02-24T09:29:04.112Z</time>
      </trkpt>
      <trkpt lat="36.69889" lon="34.44865">
        <ele>12.670773</ele>
        <time>2022-02-24T09:29:36.585Z</time>
      </trkpt>
      <trkpt lat="36.69638" lon="34.44382">
        <ele>12.56527</ele>
        <time>2022-02-24T09:31:41.066Z</time>
      </trkpt>
      <trkpt lat="36.69637" lon="34.44379">
        <ele>12.557755</ele>
        <time>2022-02-24T09:31:41.886Z</time>
      </trkpt>
      <trkpt lat="36.69612" lon="34.4433">
        <ele>12.43937</ele>
        <time>2022-02-24T09:31:53.859Z</time>
      </trkpt>
      <trkpt lat="36.69525" lon="34.44151">
        <ele>11.230835</ele>
        <time>2022-02-24T09:32:33.694Z</time>
      </trkpt>
      <trkpt lat="36.69425" lon="34.4396">
        <ele>9.836139</ele>
        <time>2022-02-24T09:33:15.111Z</time>
      </trkpt>
      <trkpt lat="36.69369" lon="34.43852">
        <ele>9.611707</ele>
        <time>2022-02-24T09:33:43.437Z</time>
      </trkpt>
      <trkpt lat="36.69357" lon="34.43829">
        <ele>9.739595</ele>
        <time>2022-02-24T09:33:50.305Z</time>
      </trkpt>
      <trkpt lat="36.69315" lon="34.4375">
        <ele>10.172879</ele>
        <time>2022-02-24T09:34:14.085Z</time>
      </trkpt>
      <trkpt lat="36.6914" lon="34.43399">
        <ele>11.934006</ele>
        <time>2022-02-24T09:35:48.437Z</time>
      </trkpt>
      <trkpt lat="36.69057" lon="34.43234">
        <ele>13.880094</ele>
        <time>2022-02-24T09:36:39.896Z</time>
      </trkpt>
      <trkpt lat="36.68988" lon="34.43098">
        <ele>15.91519</ele>
        <time>2022-02-24T09:37:26.949Z</time>
      </trkpt>
      <trkpt lat="36.68997" lon="34.43085">
        <ele>16.092571</ele>
        <time>2022-02-24T09:37:31.789Z</time>
      </trkpt>
      <trkpt lat="36.69015" lon="34.4306">
        <ele>16.425285</ele>
        <time>2022-02-24T09:37:40.832Z</time>
      </trkpt>
      <trkpt lat="36.69027" lon="34.43044">
        <ele>16.651451</ele>
        <time>2022-02-24T09:37:47.057Z</time>
      </trkpt>
      <trkpt lat="36.69015" lon="34.43022">
        <ele>16.918606</ele>
        <time>2022-02-24T09:37:54.030Z</time>
      </trkpt>
      <trkpt lat="36.68987" lon="34.4295">
        <ele>17.721257</ele>
        <time>2022-02-24T09:38:14.435Z</time>
      </trkpt>
      <trkpt lat="36.68985" lon="34.42945">
        <ele>17.780958</ele>
        <time>2022-02-24T09:38:15.770Z</time>
      </trkpt>
      <trkpt lat="36.68946" lon="34.42853">
        <ele>17.886261</ele>
        <time>2022-02-24T09:38:39.766Z</time>
      </trkpt>
      <trkpt lat="36.68925" lon="34.42813">
        <ele>17.930406</ele>
        <time>2022-02-24T09:38:50.063Z</time>
      </trkpt>
      <trkpt lat="36.68905" lon="34.4277">
        <ele>17.97621</ele>
        <time>2022-02-24T09:39:00.792Z</time>
      </trkpt>
      <trkpt lat="36.68899" lon="34.42756">
        <ele>17.991212</ele>
        <time>2022-02-24T09:39:04.415Z</time>
      </trkpt>
      <trkpt lat="36.68882" lon="34.4272">
        <ele>18.113316</ele>
        <time>2022-02-24T09:39:13.634Z</time>
      </trkpt>
      <trkpt lat="36.68853" lon="34.42656">
        <ele>18.367811</ele>
        <time>2022-02-24T09:39:30.710Z</time>
      </trkpt>
      <trkpt lat="36.68818" lon="34.42599">
        <ele>18.618002</ele>
        <time>2022-02-24T09:39:48.143Z</time>
      </trkpt>
      <trkpt lat="36.68801" lon="34.42557">
        <ele>18.792825</ele>
        <time>2022-02-24T09:40:00.153Z</time>
      </trkpt>
      <trkpt lat="36.68743" lon="34.4244">
        <ele>20.129907</ele>
        <time>2022-02-24T09:40:36.361Z</time>
      </trkpt>
      <trkpt lat="36.6874" lon="34.42426">
        <ele>20.277384</ele>
        <time>2022-02-24T09:40:40.774Z</time>
      </trkpt>
      <trkpt lat="36.68737" lon="34.42412">
        <ele>20.412879</ele>
        <time>2022-02-24T09:40:44.965Z</time>
      </trkpt>
      <trkpt lat="36.68735" lon="34.42401">
        <ele>20.523895</ele>
        <time>2022-02-24T09:40:47.841Z</time>
      </trkpt>
      <trkpt lat="36.68725" lon="34.4239">
        <ele>20.687333</ele>
        <time>2022-02-24T09:40:52.376Z</time>
      </trkpt>
      <trkpt lat="36.68719" lon="34.42385">
        <ele>20.779741</ele>
        <time>2022-02-24T09:40:55.318Z</time>
      </trkpt>
      <trkpt lat="36.68714" lon="34.4238">
        <ele>20.855786</ele>
        <time>2022-02-24T09:40:57.513Z</time>
      </trkpt>
      <trkpt lat="36.68702" lon="34.4237">
        <ele>21.039959</ele>
        <time>2022-02-24T09:41:01.901Z</time>
      </trkpt>
      <trkpt lat="36.68677" lon="34.42331">
        <ele>21.682856</ele>
        <time>2022-02-24T09:41:16.697Z</time>
      </trkpt>
      <trkpt lat="36.68653" lon="34.42311">
        <ele>22.141927</ele>
        <time>2022-02-24T09:41:27.323Z</time>
      </trkpt>
      <trkpt lat="36.68644" lon="34.42301">
        <ele>22.341007</ele>
        <time>2022-02-24T09:41:31.844Z</time>
      </trkpt>
      <trkpt lat="36.68637" lon="34.42294">
        <ele>22.476172</ele>
        <time>2022-02-24T09:41:35.255Z</time>
      </trkpt>
      <trkpt lat="36.68615" lon="34.42256">
        <ele>23.07321</ele>
        <time>2022-02-24T09:41:48.299Z</time>
      </trkpt>
      <trkpt lat="36.68596" lon="34.42218">
        <ele>23.642481</ele>
        <time>2022-02-24T09:42:00.935Z</time>
      </trkpt>
      <trkpt lat="36.68594" lon="34.42215">
        <ele>23.693512</ele>
        <time>2022-02-24T09:42:02.353Z</time>
      </trkpt>
      <trkpt lat="36.68523" lon="34.42097">
        <ele>24.750962</ele>
        <time>2022-02-24T09:42:41.694Z</time>
      </trkpt>
      <trkpt lat="36.68509" lon="34.42074">
        <ele>24.945449</ele>
        <time>2022-02-24T09:42:48.505Z</time>
      </trkpt>
      <trkpt lat="36.68506" lon="34.42046">
        <ele>25.136176</ele>
        <time>2022-02-24T09:42:55.342Z</time>
      </trkpt>
      <trkpt lat="36.685" lon="34.41997">
        <ele>25.319169</ele>
        <time>2022-02-24T09:43:06.629Z</time>
      </trkpt>
      <trkpt lat="36.68446" lon="34.41938">
        <ele>25.238969</ele>
        <time>2022-02-24T09:43:26.493Z</time>
      </trkpt>
      <trkpt lat="36.6844" lon="34.41929">
        <ele>25.228073</ele>
        <time>2022-02-24T09:43:28.937Z</time>
      </trkpt>
      <trkpt lat="36.68431" lon="34.41915">
        <ele>25.212778</ele>
        <time>2022-02-24T09:43:33.085Z</time>
      </trkpt>
      <trkpt lat="36.68419" lon="34.4188">
        <ele>25.178195</ele>
        <time>2022-02-24T09:43:41.049Z</time>
      </trkpt>
      <trkpt lat="36.68416" lon="34.41796">
        <ele>25.098751</ele>
        <time>2022-02-24T09:43:58.727Z</time>
      </trkpt>
      <trkpt lat="36.68414" lon="34.41783">
        <ele>25.085001</ele>
        <time>2022-02-24T09:44:02.219Z</time>
      </trkpt>
      <trkpt lat="36.68406" lon="34.41778">
        <ele>25.072799</ele>
        <time>2022-02-24T09:44:04.588Z</time>
      </trkpt>
      <trkpt lat="36.68363" lon="34.41761">
        <ele>25.016315</ele>
        <time>2022-02-24T09:44:16.771Z</time>
      </trkpt>
      <trkpt lat="36.68306" lon="34.41622">
        <ele>24.696326</ele>
        <time>2022-02-24T09:44:51.455Z</time>
      </trkpt>
      <trkpt lat="36.68304" lon="34.41618">
        <ele>24.679758</ele>
        <time>2022-02-24T09:44:52.430Z</time>
      </trkpt>
      <trkpt lat="36.68271" lon="34.41557">
        <ele>24.372462</ele>
        <time>2022-02-24T09:45:07.726Z</time>
      </trkpt>
      <trkpt lat="36.68252" lon="34.41526">
        <ele>24.212146</ele>
        <time>2022-02-24T09:45:15.573Z</time>
      </trkpt>
      <trkpt lat="36.68199" lon="34.41569">
        <ele>23.723814</ele>
        <time>2022-02-24T09:45:31.177Z</time>
      </trkpt>
      <trkpt lat="36.68185" lon="34.41551">
        <ele>23.438777</ele>
        <time>2022-02-24T09:45:35.738Z</time>
      </trkpt>
      <trkpt lat="36.68079" lon="34.41434">
        <ele>21.441856</ele>
        <time>2022-02-24T09:46:06.393Z</time>
      </trkpt>
      <trkpt lat="36.68009" lon="34.41377">
        <ele>21.335993</ele>
        <time>2022-02-24T09:46:25.615Z</time>
      </trkpt>
      <trkpt lat="36.6794" lon="34.41328">
        <ele>21.241103</ele>
        <time>2022-02-24T09:46:48.506Z</time>
      </trkpt>
      <trkpt lat="36.67886" lon="34.41289">
        <ele>21.988303</ele>
        <time>2022-02-24T09:47:09.521Z</time>
      </trkpt>
      <trkpt lat="36.67881" lon="34.41285">
        <ele>22.092058</ele>
        <time>2022-02-24T09:47:11.645Z</time>
      </trkpt>
      <trkpt lat="36.67779" lon="34.41213">
        <ele>24.095347</ele>
        <time>2022-02-24T09:47:54.940Z</time>
      </trkpt>
      <trkpt lat="36.67771" lon="34.41207">
        <ele>24.248562</ele>
        <time>2022-02-24T09:47:58.007Z</time>
      </trkpt>
      <trkpt lat="36.67706" lon="34.41162">
        <ele>24.750048</ele>
        <time>2022-02-24T09:48:22.124Z</time>
      </trkpt>
      <trkpt lat="36.67726" lon="34.4111">
        <ele>25.042122</ele>
        <time>2022-02-24T09:48:35.253Z</time>
      </trkpt>
      <trkpt lat="36.67728" lon="34.41098">
        <ele>25.105492</ele>
        <time>2022-02-24T09:48:38.107Z</time>
      </trkpt>
      <trkpt lat="36.67643" lon="34.41039">
        <ele>25.375475</ele>
        <time>2022-02-24T09:49:04.695Z</time>
      </trkpt>
      <trkpt lat="36.67626" lon="34.4103">
        <ele>25.352352</ele>
        <time>2022-02-24T09:49:09.617Z</time>
      </trkpt>
      <trkpt lat="36.67587" lon="34.41003">
        <ele>25.295472</ele>
        <time>2022-02-24T09:49:21.405Z</time>
      </trkpt>
      <trkpt lat="36.67546" lon="34.40974">
        <ele>25.234047</ele>
        <time>2022-02-24T09:49:34.066Z</time>
      </trkpt>
      <trkpt lat="36.67518" lon="34.40954">
        <ele>25.180696</ele>
        <time>2022-02-24T09:49:42.776Z</time>
      </trkpt>
      <trkpt lat="36.67475" lon="34.40923">
        <ele>25.044271</ele>
        <time>2022-02-24T09:49:56.778Z</time>
      </trkpt>
      <trkpt lat="36.67428" lon="34.40891">
        <ele>24.896528</ele>
        <time>2022-02-24T09:50:11.845Z</time>
      </trkpt>
      <trkpt lat="36.67363" lon="34.4085">
        <ele>24.650371</ele>
        <time>2022-02-24T09:50:30.371Z</time>
      </trkpt>
      <trkpt lat="36.67369" lon="34.40821">
        <ele>24.287223</ele>
        <time>2022-02-24T09:50:36.052Z</time>
      </trkpt>
      <trkpt lat="36.67359" lon="34.40815">
        <ele>24.115717</ele>
        <time>2022-02-24T09:50:38.862Z</time>
      </trkpt>
      <trkpt lat="36.67327" lon="34.40786">
        <ele>23.524317</ele>
        <time>2022-02-24T09:50:48.070Z</time>
      </trkpt>
      <trkpt lat="36.67325" lon="34.40783">
        <ele>23.474956</ele>
        <time>2022-02-24T09:50:48.822Z</time>
      </trkpt>
      <trkpt lat="36.67319" lon="34.40776">
        <ele>23.355393</ele>
        <time>2022-02-24T09:50:50.606Z</time>
      </trkpt>
      <trkpt lat="36.67294" lon="34.40751">
        <ele>22.879543</ele>
        <time>2022-02-24T09:50:57.943Z</time>
      </trkpt>
      <trkpt lat="36.67293" lon="34.4075">
        <ele>22.851822</ele>
        <time>2022-02-24T09:50:58.315Z</time>
      </trkpt>
      <trkpt lat="36.67284" lon="34.40741">
        <ele>22.678202</ele>
        <time>2022-02-24T09:51:01.101Z</time>
      </trkpt>
      <trkpt lat="36.6723" lon="34.40684">
        <ele>21.516201</ele>
        <time>2022-02-24T09:51:16.427Z</time>
      </trkpt>
      <trkpt lat="36.67223" lon="34.40677">
        <ele>21.337186</ele>
        <time>2022-02-24T09:51:18.445Z</time>
      </trkpt>
      <trkpt lat="36.67215" lon="34.40675">
        <ele>21.198678</ele>
        <time>2022-02-24T09:51:19.910Z</time>
      </trkpt>
      <trkpt lat="36.67198" lon="34.40672">
        <ele>20.867798</ele>
        <time>2022-02-24T09:51:23.567Z</time>
      </trkpt>
      <trkpt lat="36.67143" lon="34.40599">
        <ele>19.326027</ele>
        <time>2022-02-24T09:51:41.413Z</time>
      </trkpt>
      <trkpt lat="36.67131" lon="34.40591">
        <ele>19.07159</ele>
        <time>2022-02-24T09:51:44.230Z</time>
      </trkpt>
      <trkpt lat="36.67102" lon="34.40559">
        <ele>18.533768</ele>
        <time>2022-02-24T09:51:53.203Z</time>
      </trkpt>
      <trkpt lat="36.67044" lon="34.40447">
        <ele>18.300172</ele>
        <time>2022-02-24T09:52:21.798Z</time>
      </trkpt>
      <trkpt lat="36.66944" lon="34.40269">
        <ele>18.687669</ele>
        <time>2022-02-24T09:53:15.074Z</time>
      </trkpt>
      <trkpt lat="36.6694" lon="34.40262">
        <ele>18.716851</ele>
        <time>2022-02-24T09:53:16.702Z</time>
      </trkpt>
      <trkpt lat="36.66906" lon="34.40207">
        <ele>18.973362</ele>
        <time>2022-02-24T09:53:33.198Z</time>
      </trkpt>
      <trkpt lat="36.66896" lon="34.40202">
        <ele>19.015205</ele>
        <time>2022-02-24T09:53:36.136Z</time>
      </trkpt>
      <trkpt lat="36.66881" lon="34.40205">
        <ele>19.075228</ele>
        <time>2022-02-24T09:53:40.421Z</time>
      </trkpt>
      <trkpt lat="36.66849" lon="34.40231">
        <ele>19.22993</ele>
        <time>2022-02-24T09:53:52.109Z</time>
      </trkpt>
      <trkpt lat="36.66827" lon="34.40251">
        <ele>19.337126</ele>
        <time>2022-02-24T09:54:00.149Z</time>
      </trkpt>
      <trkpt lat="36.66772" lon="34.40154">
        <ele>19.713227</ele>
        <time>2022-02-24T09:54:27.413Z</time>
      </trkpt>
      <trkpt lat="36.66741" lon="34.40116">
        <ele>19.853286</ele>
        <time>2022-02-24T09:54:39.944Z</time>
      </trkpt>
      <trkpt lat="36.66692" lon="34.40031">
        <ele>20.12389</ele>
        <time>2022-02-24T09:55:04.543Z</time>
      </trkpt>
      <trkpt lat="36.66628" lon="34.39938">
        <ele>19.950374</ele>
        <time>2022-02-24T09:55:30.180Z</time>
      </trkpt>
      <trkpt lat="36.66599" lon="34.39906">
        <ele>19.679298</ele>
        <time>2022-02-24T09:55:39.510Z</time>
      </trkpt>
      <trkpt lat="36.66565" lon="34.39876">
        <ele>19.391967</ele>
        <time>2022-02-24T09:55:49.322Z</time>
      </trkpt>
      <trkpt lat="36.66518" lon="34.3984">
        <ele>18.975666</ele>
        <time>2022-02-24T09:56:02.161Z</time>
      </trkpt>
      <trkpt lat="36.66386" lon="34.39739">
        <ele>16.821519</ele>
        <time>2022-02-24T09:56:36.169Z</time>
      </trkpt>
      <trkpt lat="36.66357" lon="34.39718">
        <ele>16.403225</ele>
        <time>2022-02-24T09:56:43.678Z</time>
      </trkpt>
      <trkpt lat="36.66254" lon="34.39641">
        <ele>15.198614</ele>
        <time>2022-02-24T09:57:11.327Z</time>
      </trkpt>
      <trkpt lat="36.66138" lon="34.39555">
        <ele>13.994524</ele>
        <time>2022-02-24T09:57:43.346Z</time>
      </trkpt>
      <trkpt lat="36.66054" lon="34.3949">
        <ele>13.189209</ele>
        <time>2022-02-24T09:58:06.629Z</time>
      </trkpt>
      <trkpt lat="36.65904" lon="34.39376">
        <ele>12.231512</ele>
        <time>2022-02-24T09:58:49.334Z</time>
      </trkpt>
      <trkpt lat="36.65857" lon="34.39339">
        <ele>12.148691</ele>
        <time>2022-02-24T09:59:04.277Z</time>
      </trkpt>
      <trkpt lat="36.65804" lon="34.39298">
        <ele>12.057563</ele>
        <time>2022-02-24T09:59:21.131Z</time>
      </trkpt>
      <trkpt lat="36.65704" lon="34.39209">
        <ele>11.172969</ele>
        <time>2022-02-24T09:59:52.781Z</time>
      </trkpt>
      <trkpt lat="36.65627" lon="34.3912">
        <ele>9.865576</ele>
        <time>2022-02-24T10:00:15.580Z</time>
      </trkpt>
      <trkpt lat="36.65619" lon="34.3911">
        <ele>9.724379</ele>
        <time>2022-02-24T10:00:17.826Z</time>
      </trkpt>
      <trkpt lat="36.65598" lon="34.39084">
        <ele>9.079384</ele>
        <time>2022-02-24T10:00:24.050Z</time>
      </trkpt>
      <trkpt lat="36.65549" lon="34.39003">
        <ele>7.306355</ele>
        <time>2022-02-24T10:00:40.577Z</time>
      </trkpt>
      <trkpt lat="36.6549" lon="34.38876">
        <ele>5.441266</ele>
        <time>2022-02-24T10:01:05.593Z</time>
      </trkpt>
      <trkpt lat="36.65483" lon="34.38856">
        <ele>5.313832</ele>
        <time>2022-02-24T10:01:09.419Z</time>
      </trkpt>
      <trkpt lat="36.65471" lon="34.38822">
        <ele>5.093197</ele>
        <time>2022-02-24T10:01:16.354Z</time>
      </trkpt>
      <trkpt lat="36.65399" lon="34.38599">
        <ele>5.330047</ele>
        <time>2022-02-24T10:02:09.579Z</time>
      </trkpt>
      <trkpt lat="36.65397" lon="34.3859">
        <ele>5.390806</ele>
        <time>2022-02-24T10:02:12.243Z</time>
      </trkpt>
      <trkpt lat="36.65326" lon="34.38364">
        <ele>8.103412</ele>
        <time>2022-02-24T10:03:20.148Z</time>
      </trkpt>
      <trkpt lat="36.65282" lon="34.38219">
        <ele>9.904944</ele>
        <time>2022-02-24T10:04:03.303Z</time>
      </trkpt>
      <trkpt lat="36.65267" lon="34.38169">
        <ele>10.461096</ele>
        <time>2022-02-24T10:04:17.598Z</time>
      </trkpt>
      <trkpt lat="36.65204" lon="34.37974">
        <ele>11.896571</ele>
        <time>2022-02-24T10:05:08.852Z</time>
      </trkpt>
      <trkpt lat="36.65179" lon="34.37894">
        <ele>12.307685</ele>
        <time>2022-02-24T10:05:28.386Z</time>
      </trkpt>
      <trkpt lat="36.65137" lon="34.37765">
        <ele>12.512281</ele>
        <time>2022-02-24T10:05:59.049Z</time>
      </trkpt>
      <trkpt lat="36.65117" lon="34.37704">
        <ele>12.600708</ele>
        <time>2022-02-24T10:06:13.528Z</time>
      </trkpt>
      <trkpt lat="36.65074" lon="34.37575">
        <ele>12.638131</ele>
        <time>2022-02-24T10:06:44.368Z</time>
      </trkpt>
      <trkpt lat="36.6505" lon="34.37509">
        <ele>12.641429</ele>
        <time>2022-02-24T10:06:59.520Z</time>
      </trkpt>
      <trkpt lat="36.65018" lon="34.37424">
        <ele>12.723474</ele>
        <time>2022-02-24T10:07:18.827Z</time>
      </trkpt>
      <trkpt lat="36.64971" lon="34.37307">
        <ele>12.902359</ele>
        <time>2022-02-24T10:07:48.066Z</time>
      </trkpt>
      <trkpt lat="36.64957" lon="34.37272">
        <ele>12.969531</ele>
        <time>2022-02-24T10:07:56.818Z</time>
      </trkpt>
      <trkpt lat="36.64941" lon="34.37231">
        <ele>13.197412</ele>
        <time>2022-02-24T10:08:07.556Z</time>
      </trkpt>
      <trkpt lat="36.64886" lon="34.37107">
        <ele>13.895066</ele>
        <time>2022-02-24T10:08:42.038Z</time>
      </trkpt>
      <trkpt lat="36.64871" lon="34.37072">
        <ele>14.071488</ele>
        <time>2022-02-24T10:08:51.748Z</time>
      </trkpt>
      <trkpt lat="36.6486" lon="34.37046">
        <ele>14.148787</ele>
        <time>2022-02-24T10:08:58.549Z</time>
      </trkpt>
      <trkpt lat="36.64767" lon="34.36836">
        <ele>14.518049</ele>
        <time>2022-02-24T10:09:52.366Z</time>
      </trkpt>
      <trkpt lat="36.6464" lon="34.36524">
        <ele>13.096664</ele>
        <time>2022-02-24T10:11:01.541Z</time>
      </trkpt>
      <trkpt lat="36.6458" lon="34.36376">
        <ele>11.604411</ele>
        <time>2022-02-24T10:11:31.270Z</time>
      </trkpt>
      <trkpt lat="36.64517" lon="34.36222">
        <ele>9.996856</ele>
        <time>2022-02-24T10:12:02.485Z</time>
      </trkpt>
      <trkpt lat="36.64497" lon="34.36173">
        <ele>9.567599</ele>
        <time>2022-02-24T10:12:12.882Z</time>
      </trkpt>
      <trkpt lat="36.64393" lon="34.35926">
        <ele>7.763932</ele>
        <time>2022-02-24T10:13:05.391Z</time>
      </trkpt>
      <trkpt lat="36.64385" lon="34.35909">
        <ele>7.655191</ele>
        <time>2022-02-24T10:13:09.074Z</time>
      </trkpt>
      <trkpt lat="36.6437" lon="34.35873">
        <ele>7.520411</ele>
        <time>2022-02-24T10:13:17.724Z</time>
      </trkpt>
      <trkpt lat="36.64361" lon="34.3585">
        <ele>7.551816</ele>
        <time>2022-02-24T10:13:23.269Z</time>
      </trkpt>
      <trkpt lat="36.6435" lon="34.35826">
        <ele>7.586387</ele>
        <time>2022-02-24T10:13:29.186Z</time>
      </trkpt>
      <trkpt lat="36.64304" lon="34.35709">
        <ele>7.749187</ele>
        <time>2022-02-24T10:13:59.176Z</time>
      </trkpt>
      <trkpt lat="36.64257" lon="34.35597">
        <ele>7.740787</ele>
        <time>2022-02-24T10:14:26.657Z</time>
      </trkpt>
      <trkpt lat="36.64248" lon="34.35574">
        <ele>7.729937</ele>
        <time>2022-02-24T10:14:31.872Z</time>
      </trkpt>
      <trkpt lat="36.6422" lon="34.35505">
        <ele>7.698039</ele>
        <time>2022-02-24T10:14:47.962Z</time>
      </trkpt>
      <trkpt lat="36.64199" lon="34.35455">
        <ele>7.763926</ele>
        <time>2022-02-24T10:14:59.568Z</time>
      </trkpt>
      <trkpt lat="36.64188" lon="34.35428">
        <ele>7.831365</ele>
        <time>2022-02-24T10:15:06.188Z</time>
      </trkpt>
      <trkpt lat="36.6414" lon="34.35315">
        <ele>8.108622</ele>
        <time>2022-02-24T10:15:35.066Z</time>
      </trkpt>
      <trkpt lat="36.64069" lon="34.35162">
        <ele>8.853969</ele>
        <time>2022-02-24T10:16:18.260Z</time>
      </trkpt>
      <trkpt lat="36.64007" lon="34.35061">
        <ele>9.123413</ele>
        <time>2022-02-24T10:16:47.248Z</time>
      </trkpt>
      <trkpt lat="36.63942" lon="34.34976">
        <ele>8.885178</ele>
        <time>2022-02-24T10:17:10.712Z</time>
      </trkpt>
      <trkpt lat="36.6393" lon="34.3496">
        <ele>8.84088</ele>
        <time>2022-02-24T10:17:14.761Z</time>
      </trkpt>
      <trkpt lat="36.63846" lon="34.34878">
        <ele>8.472406</ele>
        <time>2022-02-24T10:17:41.428Z</time>
      </trkpt>
      <trkpt lat="36.63824" lon="34.34859">
        <ele>8.370916</ele>
        <time>2022-02-24T10:17:48.066Z</time>
      </trkpt>
      <trkpt lat="36.63801" lon="34.3484">
        <ele>8.26513</ele>
        <time>2022-02-24T10:17:54.784Z</time>
      </trkpt>
      <trkpt lat="36.6377" lon="34.34812">
        <ele>8.119397</ele>
        <time>2022-02-24T10:18:04.570Z</time>
      </trkpt>
      <trkpt lat="36.63764" lon="34.34807">
        <ele>8.094924</ele>
        <time>2022-02-24T10:18:06.300Z</time>
      </trkpt>
      <trkpt lat="36.63749" lon="34.34794">
        <ele>8.080775</ele>
        <time>2022-02-24T10:18:11.400Z</time>
      </trkpt>
      <trkpt lat="36.63677" lon="34.34731">
        <ele>8.057936</ele>
        <time>2022-02-24T10:18:35.341Z</time>
      </trkpt>
      <trkpt lat="36.63586" lon="34.34652">
        <ele>8.040366</ele>
        <time>2022-02-24T10:19:04.423Z</time>
      </trkpt>
      <trkpt lat="36.63556" lon="34.34626">
        <ele>8.042594</ele>
        <time>2022-02-24T10:19:14.174Z</time>
      </trkpt>
      <trkpt lat="36.63163" lon="34.34283">
        <ele>7.985552</ele>
        <time>2022-02-24T10:21:22.638Z</time>
      </trkpt>
      <trkpt lat="36.62893" lon="34.34059">
        <ele>6.865898</ele>
        <time>2022-02-24T10:22:43.706Z</time>
      </trkpt>
      <trkpt lat="36.62683" lon="34.33867">
        <ele>6.456668</ele>
        <time>2022-02-24T10:23:51.149Z</time>
      </trkpt>
      <trkpt lat="36.62624" lon="34.33814">
        <ele>6.507635</ele>
        <time>2022-02-24T10:24:10.353Z</time>
      </trkpt>
      <trkpt lat="36.62505" lon="34.33687">
        <ele>7.182257</ele>
        <time>2022-02-24T10:24:55.631Z</time>
      </trkpt>
      <trkpt lat="36.62422" lon="34.33589">
        <ele>7.77758</ele>
        <time>2022-02-24T10:25:30.798Z</time>
      </trkpt>
      <trkpt lat="36.62409" lon="34.33574">
        <ele>7.848124</ele>
        <time>2022-02-24T10:25:36.203Z</time>
      </trkpt>
      <trkpt lat="36.62342" lon="34.33494">
        <ele>8.206722</ele>
        <time>2022-02-24T10:26:02.648Z</time>
      </trkpt>
      <trkpt lat="36.62112" lon="34.3319">
        <ele>7.423738</ele>
        <time>2022-02-24T10:27:26.876Z</time>
      </trkpt>
      <trkpt lat="36.6197" lon="34.33008">
        <ele>7.058343</ele>
        <time>2022-02-24T10:28:20.946Z</time>
      </trkpt>
      <trkpt lat="36.61695" lon="34.32625">
        <ele>5.49954</ele>
        <time>2022-02-24T10:30:03.015Z</time>
      </trkpt>
      <trkpt lat="36.61434" lon="34.32276">
        <ele>6.958369</ele>
        <time>2022-02-24T10:31:53.418Z</time>
      </trkpt>
      <trkpt lat="36.61429" lon="34.32268">
        <ele>6.995926</ele>
        <time>2022-02-24T10:31:55.987Z</time>
      </trkpt>
      <trkpt lat="36.61422" lon="34.32256">
        <ele>7.043458</ele>
        <time>2022-02-24T10:31:59.407Z</time>
      </trkpt>
      <trkpt lat="36.6142" lon="34.32252">
        <ele>7.057141</ele>
        <time>2022-02-24T10:32:00.326Z</time>
      </trkpt>
      <trkpt lat="36.61418" lon="34.32249">
        <ele>7.070938</ele>
        <time>2022-02-24T10:32:01.294Z</time>
      </trkpt>
      <trkpt lat="36.61416" lon="34.32246">
        <ele>7.084343</ele>
        <time>2022-02-24T10:32:02.230Z</time>
      </trkpt>
      <trkpt lat="36.61413" lon="34.32245">
        <ele>7.098039</ele>
        <time>2022-02-24T10:32:03.191Z</time>
      </trkpt>
      <trkpt lat="36.61348" lon="34.32156">
        <ele>7.489391</ele>
        <time>2022-02-24T10:32:30.390Z</time>
      </trkpt>
      <trkpt lat="36.61321" lon="34.32116">
        <ele>7.693349</ele>
        <time>2022-02-24T10:32:42.958Z</time>
      </trkpt>
      <trkpt lat="36.61271" lon="34.32047">
        <ele>8.058853</ele>
        <time>2022-02-24T10:33:05.389Z</time>
      </trkpt>
      <trkpt lat="36.61201" lon="34.31953">
        <ele>8.446879</ele>
        <time>2022-02-24T10:33:34.325Z</time>
      </trkpt>
      <trkpt lat="36.61136" lon="34.31859">
        <ele>8.630812</ele>
        <time>2022-02-24T10:34:01.622Z</time>
      </trkpt>
      <trkpt lat="36.61101" lon="34.31807">
        <ele>8.783951</ele>
        <time>2022-02-24T10:34:16.242Z</time>
      </trkpt>
      <trkpt lat="36.61072" lon="34.31767">
        <ele>9.063913</ele>
        <time>2022-02-24T10:34:28.001Z</time>
      </trkpt>
      <trkpt lat="36.61065" lon="34.31757">
        <ele>9.132404</ele>
        <time>2022-02-24T10:34:31.086Z</time>
      </trkpt>
      <trkpt lat="36.61048" lon="34.31733">
        <ele>9.30298</ele>
        <time>2022-02-24T10:34:38.715Z</time>
      </trkpt>
      <trkpt lat="36.61002" lon="34.31672">
        <ele>9.735408</ele>
        <time>2022-02-24T10:34:59.518Z</time>
      </trkpt>
      <trkpt lat="36.60992" lon="34.31657">
        <ele>9.83933</ele>
        <time>2022-02-24T10:35:04.998Z</time>
      </trkpt>
      <trkpt lat="36.60888" lon="34.31512">
        <ele>11.380548</ele>
        <time>2022-02-24T10:35:55.225Z</time>
      </trkpt>
      <trkpt lat="36.60845" lon="34.31449">
        <ele>11.981766</ele>
        <time>2022-02-24T10:36:14.558Z</time>
      </trkpt>
      <trkpt lat="36.60792" lon="34.31365">
        <ele>12.676025</ele>
        <time>2022-02-24T10:36:39.917Z</time>
      </trkpt>
      <trkpt lat="36.60759" lon="34.31318">
        <ele>13.079722</ele>
        <time>2022-02-24T10:36:56.084Z</time>
      </trkpt>
      <trkpt lat="36.60728" lon="34.31272">
        <ele>13.375007</ele>
        <time>2022-02-24T10:37:11.790Z</time>
      </trkpt>
      <trkpt lat="36.60726" lon="34.31269">
        <ele>13.393401</ele>
        <time>2022-02-24T10:37:12.876Z</time>
      </trkpt>
      <trkpt lat="36.60696" lon="34.31221">
        <ele>13.675451</ele>
        <time>2022-02-24T10:37:27.800Z</time>
      </trkpt>
      <trkpt lat="36.60718" lon="34.31203">
        <ele>13.829158</ele>
        <time>2022-02-24T10:37:34.899Z</time>
      </trkpt>
      <trkpt lat="36.60726" lon="34.31198">
        <ele>13.879799</ele>
        <time>2022-02-24T10:37:37.623Z</time>
      </trkpt>
      <trkpt lat="36.60714" lon="34.31149">
        <ele>14.116121</ele>
        <time>2022-02-24T10:37:49.488Z</time>
      </trkpt>
      <trkpt lat="36.60712" lon="34.31144">
        <ele>14.138491</ele>
        <time>2022-02-24T10:37:50.531Z</time>
      </trkpt>
      <trkpt lat="36.60711" lon="34.31139">
        <ele>14.163857</ele>
        <time>2022-02-24T10:37:51.621Z</time>
      </trkpt>
      <trkpt lat="36.60703" lon="34.31125">
        <ele>14.081933</ele>
        <time>2022-02-24T10:37:55.756Z</time>
      </trkpt>
      <trkpt lat="36.60689" lon="34.31099">
        <ele>13.861879</ele>
        <time>2022-02-24T10:38:02.652Z</time>
      </trkpt>
      <trkpt lat="36.60686" lon="34.31092">
        <ele>13.805242</ele>
        <time>2022-02-24T10:38:04.385Z</time>
      </trkpt>
      <trkpt lat="36.60669" lon="34.3106">
        <ele>13.530223</ele>
        <time>2022-02-24T10:38:12.207Z</time>
      </trkpt>
      <trkpt lat="36.60647" lon="34.3102">
        <ele>13.191882</ele>
        <time>2022-02-24T10:38:21.265Z</time>
      </trkpt>
      <trkpt lat="36.60629" lon="34.30987">
        <ele>12.907423</ele>
        <time>2022-02-24T10:38:28.646Z</time>
      </trkpt>
      <trkpt lat="36.60648" lon="34.30973">
        <ele>12.716414</ele>
        <time>2022-02-24T10:38:33.419Z</time>
      </trkpt>
      <trkpt lat="36.60628" lon="34.30935">
        <ele>12.333868</ele>
        <time>2022-02-24T10:38:41.887Z</time>
      </trkpt>
      <trkpt lat="36.60598" lon="34.30885">
        <ele>11.755421</ele>
        <time>2022-02-24T10:38:53.711Z</time>
      </trkpt>
      <trkpt lat="36.60575" lon="34.30839">
        <ele>11.259773</ele>
        <time>2022-02-24T10:39:04.103Z</time>
      </trkpt>
      <trkpt lat="36.60545" lon="34.30782">
        <ele>10.618001</ele>
        <time>2022-02-24T10:39:17.570Z</time>
      </trkpt>
      <trkpt lat="36.60513" lon="34.30722">
        <ele>10.04255</ele>
        <time>2022-02-24T10:39:31.441Z</time>
      </trkpt>
      <trkpt lat="36.60498" lon="34.30739">
        <ele>9.846441</ele>
        <time>2022-02-24T10:39:36.127Z</time>
      </trkpt>
      <trkpt lat="36.60459" lon="34.30669">
        <ele>9.188603</ele>
        <time>2022-02-24T10:39:51.770Z</time>
      </trkpt>
      <trkpt lat="36.60387" lon="34.30532">
        <ele>7.973596</ele>
        <time>2022-02-24T10:40:22.408Z</time>
      </trkpt>
      <trkpt lat="36.60306" lon="34.30381">
        <ele>6.774371</ele>
        <time>2022-02-24T10:40:57.191Z</time>
      </trkpt>
      <trkpt lat="36.60253" lon="34.30288">
        <ele>6.139311</ele>
        <time>2022-02-24T10:41:19.106Z</time>
      </trkpt>
      <trkpt lat="36.60227" lon="34.30236">
        <ele>5.842878</ele>
        <time>2022-02-24T10:41:30.902Z</time>
      </trkpt>
      <trkpt lat="36.60169" lon="34.30124">
        <ele>5.398757</ele>
        <time>2022-02-24T10:41:57.241Z</time>
      </trkpt>
      <trkpt lat="36.60135" lon="34.30058">
        <ele>5.172248</ele>
        <time>2022-02-24T10:42:13.555Z</time>
      </trkpt>
      <trkpt lat="36.60107" lon="34.30005">
        <ele>5.278349</ele>
        <time>2022-02-24T10:42:27.136Z</time>
      </trkpt>
      <trkpt lat="36.60051" lon="34.29902">
        <ele>5.489095</ele>
        <time>2022-02-24T10:42:55.149Z</time>
      </trkpt>
      <trkpt lat="36.60005" lon="34.29819">
        <ele>5.77537</ele>
        <time>2022-02-24T10:43:18.562Z</time>
      </trkpt>
      <trkpt lat="36.59946" lon="34.29725">
        <ele>6.173236</ele>
        <time>2022-02-24T10:43:46.155Z</time>
      </trkpt>
      <trkpt lat="36.59916" lon="34.29696">
        <ele>6.323592</ele>
        <time>2022-02-24T10:43:56.801Z</time>
      </trkpt>
      <trkpt lat="36.59901" lon="34.29708">
        <ele>6.391215</ele>
        <time>2022-02-24T10:44:02.151Z</time>
      </trkpt>
      <trkpt lat="36.59869" lon="34.29734">
        <ele>6.534889</ele>
        <time>2022-02-24T10:44:13.625Z</time>
      </trkpt>
      <trkpt lat="36.59856" lon="34.29711">
        <ele>6.618591</ele>
        <time>2022-02-24T10:44:20.175Z</time>
      </trkpt>
      <trkpt lat="36.5975" lon="34.29536">
        <ele>7.06042</ele>
        <time>2022-02-24T10:45:09.520Z</time>
      </trkpt>
      <trkpt lat="36.59717" lon="34.2948">
        <ele>7.128862</ele>
        <time>2022-02-24T10:45:24.648Z</time>
      </trkpt>
      <trkpt lat="36.595" lon="34.29106">
        <ele>6.988088</ele>
        <time>2022-02-24T10:47:02.455Z</time>
      </trkpt>
      <trkpt lat="36.59302" lon="34.28775">
        <ele>6.736975</ele>
        <time>2022-02-24T10:48:29.366Z</time>
      </trkpt>
      <trkpt lat="36.59291" lon="34.28758">
        <ele>6.726618</ele>
        <time>2022-02-24T10:48:33.910Z</time>
      </trkpt>
      <trkpt lat="36.59135" lon="34.28496">
        <ele>6.648317</ele>
        <time>2022-02-24T10:49:43.779Z</time>
      </trkpt>
      <trkpt lat="36.59107" lon="34.28457">
        <ele>6.611473</ele>
        <time>2022-02-24T10:49:54.955Z</time>
      </trkpt>
      <trkpt lat="36.58932" lon="34.28204">
        <ele>6.429784</ele>
        <time>2022-02-24T10:51:05.214Z</time>
      </trkpt>
      <trkpt lat="36.58787" lon="34.27994">
        <ele>6.471102</ele>
        <time>2022-02-24T10:52:05.524Z</time>
      </trkpt>
      <trkpt lat="36.58665" lon="34.27816">
        <ele>6.613643</ele>
        <time>2022-02-24T10:52:54.789Z</time>
      </trkpt>
      <trkpt lat="36.58558" lon="34.27633">
        <ele>7.865862</ele>
        <time>2022-02-24T10:53:47.391Z</time>
      </trkpt>
      <trkpt lat="36.58549" lon="34.27618">
        <ele>8.120571</ele>
        <time>2022-02-24T10:53:53.113Z</time>
      </trkpt>
      <trkpt lat="36.58527" lon="34.27578">
        <ele>8.774039</ele>
        <time>2022-02-24T10:54:07.846Z</time>
      </trkpt>
      <trkpt lat="36.58498" lon="34.27544">
        <ele>9.424575</ele>
        <time>2022-02-24T10:54:22.361Z</time>
      </trkpt>
      <trkpt lat="36.58505" lon="34.27536">
        <ele>9.581096</ele>
        <time>2022-02-24T10:54:25.620Z</time>
      </trkpt>
      <trkpt lat="36.58503" lon="34.27469">
        <ele>10.457508</ele>
        <time>2022-02-24T10:54:45.840Z</time>
      </trkpt>
      <trkpt lat="36.585" lon="34.27458">
        <ele>10.592447</ele>
        <time>2022-02-24T10:54:49.865Z</time>
      </trkpt>
      <trkpt lat="36.58463" lon="34.27461">
        <ele>11.177488</ele>
        <time>2022-02-24T10:55:03.896Z</time>
      </trkpt>
      <trkpt lat="36.58447" lon="34.27457">
        <ele>11.424024</ele>
        <time>2022-02-24T10:55:09.386Z</time>
      </trkpt>
      <trkpt lat="36.584" lon="34.27385">
        <ele>12.583186</ele>
        <time>2022-02-24T10:55:36.155Z</time>
      </trkpt>
      <trkpt lat="36.58357" lon="34.27321">
        <ele>12.745218</ele>
        <time>2022-02-24T10:55:55.401Z</time>
      </trkpt>
      <trkpt lat="36.58345" lon="34.27283">
        <ele>12.648751</ele>
        <time>2022-02-24T10:56:04.050Z</time>
      </trkpt>
      <trkpt lat="36.58331" lon="34.27232">
        <ele>12.521493</ele>
        <time>2022-02-24T10:56:15.074Z</time>
      </trkpt>
      <trkpt lat="36.58322" lon="34.27219">
        <ele>12.479077</ele>
        <time>2022-02-24T10:56:18.735Z</time>
      </trkpt>
      <trkpt lat="36.58294" lon="34.27163">
        <ele>12.260564</ele>
        <time>2022-02-24T10:56:31.895Z</time>
      </trkpt>
      <trkpt lat="36.58235" lon="34.27078">
        <ele>11.489817</ele>
        <time>2022-02-24T10:56:53.569Z</time>
      </trkpt>
      <trkpt lat="36.58202" lon="34.27093">
        <ele>11.191402</ele>
        <time>2022-02-24T10:57:02.089Z</time>
      </trkpt>
      <trkpt lat="36.5815" lon="34.26959">
        <ele>10.04577</ele>
        <time>2022-02-24T10:57:30.806Z</time>
      </trkpt>
      <trkpt lat="36.58123" lon="34.26905">
        <ele>9.521753</ele>
        <time>2022-02-24T10:57:42.726Z</time>
      </trkpt>
      <trkpt lat="36.58093" lon="34.26856">
        <ele>9.022884</ele>
        <time>2022-02-24T10:57:53.773Z</time>
      </trkpt>
      <trkpt lat="36.58057" lon="34.26805">
        <ele>8.137868</ele>
        <time>2022-02-24T10:58:05.804Z</time>
      </trkpt>
      <trkpt lat="36.58044" lon="34.26788">
        <ele>7.819152</ele>
        <time>2022-02-24T10:58:09.958Z</time>
      </trkpt>
      <trkpt lat="36.58006" lon="34.26749">
        <ele>7.002385</ele>
        <time>2022-02-24T10:58:20.399Z</time>
      </trkpt>
      <trkpt lat="36.57948" lon="34.26698">
        <ele>5.832246</ele>
        <time>2022-02-24T10:58:35.542Z</time>
      </trkpt>
      <trkpt lat="36.57939" lon="34.2669">
        <ele>5.68071</ele>
        <time>2022-02-24T10:58:37.815Z</time>
      </trkpt>
      <trkpt lat="36.57784" lon="34.26554">
        <ele>3.224789</ele>
        <time>2022-02-24T10:59:20.211Z</time>
      </trkpt>
      <trkpt lat="36.57639" lon="34.2641">
        <ele>2.348327</ele>
        <time>2022-02-24T11:00:06.181Z</time>
      </trkpt>
      <trkpt lat="36.57415" lon="34.26168">
        <ele>2.954615</ele>
        <time>2022-02-24T11:01:29.523Z</time>
      </trkpt>
      <trkpt lat="36.56935" lon="34.25646">
        <ele>5.636715</ele>
        <time>2022-02-24T11:04:32.826Z</time>
      </trkpt>
      <trkpt lat="36.5684" lon="34.25537">
        <ele>6.049731</ele>
        <time>2022-02-24T11:05:09.524Z</time>
      </trkpt>
      <trkpt lat="36.56767" lon="34.25436">
        <ele>6.209044</ele>
        <time>2022-02-24T11:05:39.262Z</time>
      </trkpt>
      <trkpt lat="36.56763" lon="34.25433">
        <ele>6.215509</ele>
        <time>2022-02-24T11:05:40.473Z</time>
      </trkpt>
      <trkpt lat="36.56721" lon="34.25398">
        <ele>6.281145</ele>
        <time>2022-02-24T11:05:53.983Z</time>
      </trkpt>
      <trkpt lat="36.56533" lon="34.25251">
        <ele>6.085664</ele>
        <time>2022-02-24T11:06:52.727Z</time>
      </trkpt>
      <trkpt lat="36.56454" lon="34.25205">
        <ele>5.853147</ele>
        <time>2022-02-24T11:07:15.113Z</time>
      </trkpt>
      <trkpt lat="36.56233" lon="34.25102">
        <ele>4.595735</ele>
        <time>2022-02-24T11:08:12.926Z</time>
      </trkpt>
      <trkpt lat="36.5616" lon="34.25052">
        <ele>3.887203</ele>
        <time>2022-02-24T11:08:32.414Z</time>
      </trkpt>
      <trkpt lat="36.56098" lon="34.24991">
        <ele>3.217242</ele>
        <time>2022-02-24T11:08:50.857Z</time>
      </trkpt>
      <trkpt lat="36.55982" lon="34.24855">
        <ele>2.168333</ele>
        <time>2022-02-24T11:09:28.423Z</time>
      </trkpt>
      <trkpt lat="36.55862" lon="34.247">
        <ele>2.278866</ele>
        <time>2022-02-24T11:10:14.952Z</time>
      </trkpt>
      <trkpt lat="36.55819" lon="34.24644">
        <ele>2.665979</ele>
        <time>2022-02-24T11:10:34.243Z</time>
      </trkpt>
      <trkpt lat="36.5573" lon="34.24534">
        <ele>4.098215</ele>
        <time>2022-02-24T11:11:15.586Z</time>
      </trkpt>
      <trkpt lat="36.55611" lon="34.24399">
        <ele>5.590838</ele>
        <time>2022-02-24T11:12:07.517Z</time>
      </trkpt>
      <trkpt lat="36.55599" lon="34.24386">
        <ele>5.72295</ele>
        <time>2022-02-24T11:12:12.367Z</time>
      </trkpt>
      <trkpt lat="36.5553" lon="34.2431">
        <ele>5.634454</ele>
        <time>2022-02-24T11:12:36.297Z</time>
      </trkpt>
      <trkpt lat="36.55521" lon="34.243">
        <ele>5.564624</ele>
        <time>2022-02-24T11:12:39.691Z</time>
      </trkpt>
      <trkpt lat="36.55519" lon="34.24294">
        <ele>5.534105</ele>
        <time>2022-02-24T11:12:40.980Z</time>
      </trkpt>
      <trkpt lat="36.55516" lon="34.24288">
        <ele>5.503135</ele>
        <time>2022-02-24T11:12:42.249Z</time>
      </trkpt>
      <trkpt lat="36.55512" lon="34.24284">
        <ele>5.471928</ele>
        <time>2022-02-24T11:12:43.447Z</time>
      </trkpt>
      <trkpt lat="36.55507" lon="34.24282">
        <ele>5.441301</ele>
        <time>2022-02-24T11:12:44.640Z</time>
      </trkpt>
      <trkpt lat="36.55501" lon="34.24282">
        <ele>5.410367</ele>
        <time>2022-02-24T11:12:45.946Z</time>
      </trkpt>
      <trkpt lat="36.55405" lon="34.24223">
        <ele>4.826673</ele>
        <time>2022-02-24T11:13:10.987Z</time>
      </trkpt>
      <trkpt lat="36.55416" lon="34.242">
        <ele>4.724211</ele>
        <time>2022-02-24T11:13:16.325Z</time>
      </trkpt>
      <trkpt lat="36.55432" lon="34.2418">
        <ele>4.620305</ele>
        <time>2022-02-24T11:13:21.421Z</time>
      </trkpt>
      <trkpt lat="36.55386" lon="34.24135">
        <ele>4.345591</ele>
        <time>2022-02-24T11:13:36.384Z</time>
      </trkpt>
      <trkpt lat="36.55308" lon="34.2406">
        <ele>4.46865</ele>
        <time>2022-02-24T11:14:06.024Z</time>
      </trkpt>
      <trkpt lat="36.553" lon="34.24054">
        <ele>4.530427</ele>
        <time>2022-02-24T11:14:09.097Z</time>
      </trkpt>
      <trkpt lat="36.55277" lon="34.24034">
        <ele>4.7238</ele>
        <time>2022-02-24T11:14:18.506Z</time>
      </trkpt>
      <trkpt lat="36.55264" lon="34.24025">
        <ele>4.821772</ele>
        <time>2022-02-24T11:14:23.412Z</time>
      </trkpt>
      <trkpt lat="36.55235" lon="34.24003">
        <ele>5.05161</ele>
        <time>2022-02-24T11:14:34.302Z</time>
      </trkpt>
      <trkpt lat="36.55223" lon="34.23995">
        <ele>5.141925</ele>
        <time>2022-02-24T11:14:38.393Z</time>
      </trkpt>
      <trkpt lat="36.55144" lon="34.23942">
        <ele>5.228654</ele>
        <time>2022-02-24T11:15:05.394Z</time>
      </trkpt>
      <trkpt lat="36.55097" lon="34.23905">
        <ele>5.124678</ele>
        <time>2022-02-24T11:15:20.348Z</time>
      </trkpt>
      <trkpt lat="36.55039" lon="34.23869">
        <ele>4.99414</ele>
        <time>2022-02-24T11:15:36.915Z</time>
      </trkpt>
      <trkpt lat="36.54983" lon="34.2383">
        <ele>4.405175</ele>
        <time>2022-02-24T11:15:52.095Z</time>
      </trkpt>
      <trkpt lat="36.54924" lon="34.23765">
        <ele>3.690723</ele>
        <time>2022-02-24T11:16:10.961Z</time>
      </trkpt>
      <trkpt lat="36.54883" lon="34.23736">
        <ele>3.348595</ele>
        <time>2022-02-24T11:16:22.877Z</time>
      </trkpt>
      <trkpt lat="36.54834" lon="34.2368">
        <ele>3.267906</ele>
        <time>2022-02-24T11:16:40.331Z</time>
      </trkpt>
      <trkpt lat="36.54701" lon="34.23604">
        <ele>3.280203</ele>
        <time>2022-02-24T11:17:22.034Z</time>
      </trkpt>
      <trkpt lat="36.54614" lon="34.23556">
        <ele>3.570694</ele>
        <time>2022-02-24T11:17:49.361Z</time>
      </trkpt>
      <trkpt lat="36.5448" lon="34.23463">
        <ele>4.814188</ele>
        <time>2022-02-24T11:18:36.752Z</time>
      </trkpt>
      <trkpt lat="36.54495" lon="34.2342">
        <ele>5.186454</ele>
        <time>2022-02-24T11:18:49.374Z</time>
      </trkpt>
      <trkpt lat="36.54502" lon="34.23319">
        <ele>6.56878</ele>
        <time>2022-02-24T11:19:19.271Z</time>
      </trkpt>
      <trkpt lat="36.54482" lon="34.23278">
        <ele>7.366455</ele>
        <time>2022-02-24T11:19:34.165Z</time>
      </trkpt>
      <trkpt lat="36.54457" lon="34.23251">
        <ele>8.047295</ele>
        <time>2022-02-24T11:19:47.113Z</time>
      </trkpt>
      <trkpt lat="36.54422" lon="34.23234">
        <ele>8.833381</ele>
        <time>2022-02-24T11:20:01.910Z</time>
      </trkpt>
      <trkpt lat="36.54393" lon="34.23232">
        <ele>9.378043</ele>
        <time>2022-02-24T11:20:13.223Z</time>
      </trkpt>
      <trkpt lat="36.54284" lon="34.232">
        <ele>10.992266</ele>
        <time>2022-02-24T11:20:53.804Z</time>
      </trkpt>
      <trkpt lat="36.54234" lon="34.232">
        <ele>11.701114</ele>
        <time>2022-02-24T11:21:09.710Z</time>
      </trkpt>
      <trkpt lat="36.54171" lon="34.23188">
        <ele>11.872136</ele>
        <time>2022-02-24T11:21:28.175Z</time>
      </trkpt>
      <trkpt lat="36.54115" lon="34.2316">
        <ele>11.930369</ele>
        <time>2022-02-24T11:21:43.900Z</time>
      </trkpt>
      <trkpt lat="36.5405" lon="34.23145">
        <ele>12.057119</ele>
        <time>2022-02-24T11:22:01.765Z</time>
      </trkpt>
      <trkpt lat="36.54028" lon="34.23121">
        <ele>12.719968</ele>
        <time>2022-02-24T11:22:10.904Z</time>
      </trkpt>
      <trkpt lat="36.54021" lon="34.23101">
        <ele>13.120703</ele>
        <time>2022-02-24T11:22:16.793Z</time>
      </trkpt>
      <trkpt lat="36.54025" lon="34.2307">
        <ele>13.686277</ele>
        <time>2022-02-24T11:22:24.960Z</time>
      </trkpt>
      <trkpt lat="36.54022" lon="34.23036">
        <ele>14.312675</ele>
        <time>2022-02-24T11:22:35.021Z</time>
      </trkpt>
      <trkpt lat="36.54026" lon="34.23023">
        <ele>14.569111</ele>
        <time>2022-02-24T11:22:40.129Z</time>
      </trkpt>
      <trkpt lat="36.54031" lon="34.23001">
        <ele>14.984581</ele>
        <time>2022-02-24T11:22:47.207Z</time>
      </trkpt>
      <trkpt lat="36.54003" lon="34.23005">
        <ele>15.615592</ele>
        <time>2022-02-24T11:23:00.257Z</time>
      </trkpt>
      <trkpt lat="36.53985" lon="34.23015">
        <ele>16.074949</ele>
        <time>2022-02-24T11:23:09.831Z</time>
      </trkpt>
      <trkpt lat="36.53956" lon="34.23">
        <ele>17.680067</ele>
        <time>2022-02-24T11:23:25.369Z</time>
      </trkpt>
      <trkpt lat="36.53937" lon="34.23001">
        <ele>18.659252</ele>
        <time>2022-02-24T11:23:35.629Z</time>
      </trkpt>
      <trkpt lat="36.53929" lon="34.23009">
        <ele>19.179765</ele>
        <time>2022-02-24T11:23:40.237Z</time>
      </trkpt>
      <trkpt lat="36.53915" lon="34.23021">
        <ele>20.06303</ele>
        <time>2022-02-24T11:23:50.252Z</time>
      </trkpt>
      <trkpt lat="36.53919" lon="34.22927">
        <ele>23.97662</ele>
        <time>2022-02-24T11:24:31.051Z</time>
      </trkpt>
      <trkpt lat="36.53909" lon="34.22876">
        <ele>25.796903</ele>
        <time>2022-02-24T11:24:52.485Z</time>
      </trkpt>
      <trkpt lat="36.53896" lon="34.2285">
        <ele>26.538247</ele>
        <time>2022-02-24T11:25:04.609Z</time>
      </trkpt>
      <trkpt lat="36.53872" lon="34.2281">
        <ele>27.737616</ele>
        <time>2022-02-24T11:25:22.252Z</time>
      </trkpt>
      <trkpt lat="36.53818" lon="34.22758">
        <ele>29.788493</ele>
        <time>2022-02-24T11:25:47.661Z</time>
      </trkpt>
      <trkpt lat="36.53808" lon="34.22746">
        <ele>30.200147</ele>
        <time>2022-02-24T11:25:52.733Z</time>
      </trkpt>
      <trkpt lat="36.53803" lon="34.22739">
        <ele>30.443455</ele>
        <time>2022-02-24T11:25:54.945Z</time>
      </trkpt>
      <trkpt lat="36.538" lon="34.22702">
        <ele>31.003473</ele>
        <time>2022-02-24T11:26:04.912Z</time>
      </trkpt>
      <trkpt lat="36.5382" lon="34.22577">
        <ele>32.360733</ele>
        <time>2022-02-24T11:26:36.811Z</time>
      </trkpt>
      <trkpt lat="36.53847" lon="34.22495">
        <ele>33.496539</ele>
        <time>2022-02-24T11:27:01.083Z</time>
      </trkpt>
      <trkpt lat="36.53845" lon="34.22467">
        <ele>34.119351</ele>
        <time>2022-02-24T11:27:09.521Z</time>
      </trkpt>
      <trkpt lat="36.53824" lon="34.22421">
        <ele>35.272467</ele>
        <time>2022-02-24T11:27:25.874Z</time>
      </trkpt>
      <trkpt lat="36.53785" lon="34.22358">
        <ele>37.000115</ele>
        <time>2022-02-24T11:27:51.819Z</time>
      </trkpt>
      <trkpt lat="36.53772" lon="34.22346">
        <ele>37.451201</ele>
        <time>2022-02-24T11:27:58.962Z</time>
      </trkpt>
      <trkpt lat="36.53735" lon="34.22339">
        <ele>38.547553</ele>
        <time>2022-02-24T11:28:15.858Z</time>
      </trkpt>
      <trkpt lat="36.5371" lon="34.22328">
        <ele>39.402158</ele>
        <time>2022-02-24T11:28:27.745Z</time>
      </trkpt>
      <trkpt lat="36.53681" lon="34.22306">
        <ele>40.48404</ele>
        <time>2022-02-24T11:28:42.018Z</time>
      </trkpt>
      <trkpt lat="36.53613" lon="34.22277">
        <ele>42.790898</ele>
        <time>2022-02-24T11:29:11.720Z</time>
      </trkpt>
      <trkpt lat="36.5361" lon="34.22276">
        <ele>42.913592</ele>
        <time>2022-02-24T11:29:13.728Z</time>
      </trkpt>
      <trkpt lat="36.53602" lon="34.22264">
        <ele>43.293771</ele>
        <time>2022-02-24T11:29:18.410Z</time>
      </trkpt>
      <trkpt lat="36.53601" lon="34.22249">
        <ele>43.692217</ele>
        <time>2022-02-24T11:29:23.249Z</time>
      </trkpt>
      <trkpt lat="36.53616" lon="34.22175">
        <ele>45.26438</ele>
        <time>2022-02-24T11:29:48.104Z</time>
      </trkpt>
      <trkpt lat="36.5361" lon="34.22163">
        <ele>45.545046</ele>
        <time>2022-02-24T11:29:52.355Z</time>
      </trkpt>
      <trkpt lat="36.53563" lon="34.22118">
        <ele>47.048247</ele>
        <time>2022-02-24T11:30:16.089Z</time>
      </trkpt>
      <trkpt lat="36.53503" lon="34.22032">
        <ele>49.026247</ele>
        <time>2022-02-24T11:30:49.036Z</time>
      </trkpt>
      <trkpt lat="36.53475" lon="34.21988">
        <ele>49.787917</ele>
        <time>2022-02-24T11:31:04.708Z</time>
      </trkpt>
      <trkpt lat="36.53471" lon="34.21982">
        <ele>49.894175</ele>
        <time>2022-02-24T11:31:07.015Z</time>
      </trkpt>
      <trkpt lat="36.53437" lon="34.21912">
        <ele>50.993143</ele>
        <time>2022-02-24T11:31:29.242Z</time>
      </trkpt>
      <trkpt lat="36.53405" lon="34.21875">
        <ele>51.67934</ele>
        <time>2022-02-24T11:31:44.208Z</time>
      </trkpt>
      <trkpt lat="36.53379" lon="34.21849">
        <ele>52.149738</ele>
        <time>2022-02-24T11:31:55.043Z</time>
      </trkpt>
      <trkpt lat="36.53374" lon="34.21843">
        <ele>52.249023</ele>
        <time>2022-02-24T11:31:57.251Z</time>
      </trkpt>
      <trkpt lat="36.5337" lon="34.2184">
        <ele>52.319756</ele>
        <time>2022-02-24T11:31:58.848Z</time>
      </trkpt>
      <trkpt lat="36.53339" lon="34.21809">
        <ele>52.883279</ele>
        <time>2022-02-24T11:32:11.398Z</time>
      </trkpt>
      <trkpt lat="36.53284" lon="34.21771">
        <ele>53.788582</ele>
        <time>2022-02-24T11:32:32.428Z</time>
      </trkpt>
      <trkpt lat="36.53203" lon="34.21733">
        <ele>55.590878</ele>
        <time>2022-02-24T11:33:04.568Z</time>
      </trkpt>
      <trkpt lat="36.53152" lon="34.2173">
        <ele>56.693012</ele>
        <time>2022-02-24T11:33:23.964Z</time>
      </trkpt>
      <trkpt lat="36.53115" lon="34.21711">
        <ele>57.563531</ele>
        <time>2022-02-24T11:33:39.475Z</time>
      </trkpt>
      <trkpt lat="36.5306" lon="34.21683">
        <ele>58.22749</ele>
        <time>2022-02-24T11:34:02.196Z</time>
      </trkpt>
      <trkpt lat="36.52945" lon="34.21614">
        <ele>59.27414</ele>
        <time>2022-02-24T11:34:41.100Z</time>
      </trkpt>
      <trkpt lat="36.52924" lon="34.21601">
        <ele>58.82793</ele>
        <time>2022-02-24T11:34:46.353Z</time>
      </trkpt>
      <trkpt lat="36.52763" lon="34.21482">
        <ele>52.987177</ele>
        <time>2022-02-24T11:35:22.765Z</time>
      </trkpt>
      <trkpt lat="36.5275" lon="34.21456">
        <ele>51.770191</ele>
        <time>2022-02-24T11:35:27.197Z</time>
      </trkpt>
      <trkpt lat="36.52741" lon="34.21452">
        <ele>51.279342</ele>
        <time>2022-02-24T11:35:28.999Z</time>
      </trkpt>
      <trkpt lat="36.52703" lon="34.21463">
        <ele>49.343867</ele>
        <time>2022-02-24T11:35:36.004Z</time>
      </trkpt>
      <trkpt lat="36.52686" lon="34.21455">
        <ele>48.439837</ele>
        <time>2022-02-24T11:35:39.244Z</time>
      </trkpt>
      <trkpt lat="36.5261" lon="34.21362">
        <ele>42.794348</ele>
        <time>2022-02-24T11:35:58.208Z</time>
      </trkpt>
      <trkpt lat="36.52566" lon="34.21374">
        <ele>40.179005</ele>
        <time>2022-02-24T11:36:06.072Z</time>
      </trkpt>
      <trkpt lat="36.52468" lon="34.21437">
        <ele>34.026184</ele>
        <time>2022-02-24T11:36:25.496Z</time>
      </trkpt>
      <trkpt lat="36.52436" lon="34.21403">
        <ele>32.189849</ele>
        <time>2022-02-24T11:36:33.071Z</time>
      </trkpt>
      <trkpt lat="36.5215" lon="34.21107">
        <ele>19.293056</ele>
        <time>2022-02-24T11:37:44.428Z</time>
      </trkpt>
      <trkpt lat="36.52095" lon="34.2104">
        <ele>17.886158</ele>
        <time>2022-02-24T11:38:02.818Z</time>
      </trkpt>
      <trkpt lat="36.5204" lon="34.2095">
        <ele>16.630018</ele>
        <time>2022-02-24T11:38:25.909Z</time>
      </trkpt>
      <trkpt lat="36.52003" lon="34.20869">
        <ele>15.760419</ele>
        <time>2022-02-24T11:38:43.482Z</time>
      </trkpt>
      <trkpt lat="36.5192" lon="34.20663">
        <ele>11.575118</ele>
        <time>2022-02-24T11:39:20.998Z</time>
      </trkpt>
      <trkpt lat="36.51871" lon="34.20589">
        <ele>9.733327</ele>
        <time>2022-02-24T11:39:36.300Z</time>
      </trkpt>
      <trkpt lat="36.51807" lon="34.20526">
        <ele>7.966414</ele>
        <time>2022-02-24T11:39:53.176Z</time>
      </trkpt>
      <trkpt lat="36.5174" lon="34.20475">
        <ele>6.540167</ele>
        <time>2022-02-24T11:40:10.294Z</time>
      </trkpt>
      <trkpt lat="36.51676" lon="34.20448">
        <ele>6.057995</ele>
        <time>2022-02-24T11:40:25.959Z</time>
      </trkpt>
      <trkpt lat="36.51505" lon="34.20417">
        <ele>5.909542</ele>
        <time>2022-02-24T11:41:10.422Z</time>
      </trkpt>
      <trkpt lat="36.51437" lon="34.20394">
        <ele>6.377673</ele>
        <time>2022-02-24T11:41:32.724Z</time>
      </trkpt>
      <trkpt lat="36.51363" lon="34.20344">
        <ele>7.650675</ele>
        <time>2022-02-24T11:42:02.562Z</time>
      </trkpt>
      <trkpt lat="36.5134" lon="34.20324">
        <ele>8.221722</ele>
        <time>2022-02-24T11:42:13.242Z</time>
      </trkpt>
      <trkpt lat="36.51291" lon="34.20302">
        <ele>9.259981</ele>
        <time>2022-02-24T11:42:32.598Z</time>
      </trkpt>
      <trkpt lat="36.51242" lon="34.20268">
        <ele>10.269824</ele>
        <time>2022-02-24T11:42:53.557Z</time>
      </trkpt>
      <trkpt lat="36.51182" lon="34.20216">
        <ele>10.848092</ele>
        <time>2022-02-24T11:43:18.373Z</time>
      </trkpt>
      <trkpt lat="36.5113" lon="34.20153">
        <ele>11.426975</ele>
        <time>2022-02-24T11:43:39.024Z</time>
      </trkpt>
      <trkpt lat="36.50994" lon="34.19935">
        <ele>10.456185</ele>
        <time>2022-02-24T11:44:32.255Z</time>
      </trkpt>
      <trkpt lat="36.50977" lon="34.19914">
        <ele>10.34421</ele>
        <time>2022-02-24T11:44:38.073Z</time>
      </trkpt>
      <trkpt lat="36.50942" lon="34.19868">
        <ele>10.108812</ele>
        <time>2022-02-24T11:44:51.073Z</time>
      </trkpt>
      <trkpt lat="36.50883" lon="34.19805">
        <ele>9.747365</ele>
        <time>2022-02-24T11:45:11.153Z</time>
      </trkpt>
      <trkpt lat="36.50762" lon="34.197">
        <ele>8.580926</ele>
        <time>2022-02-24T11:45:45.640Z</time>
      </trkpt>
      <trkpt lat="36.50653" lon="34.19618">
        <ele>8.539769</ele>
        <time>2022-02-24T11:46:15.546Z</time>
      </trkpt>
      <trkpt lat="36.50405" lon="34.19432">
        <ele>11.229876</ele>
        <time>2022-02-24T11:47:52.941Z</time>
      </trkpt>
      <trkpt lat="36.50391" lon="34.19422">
        <ele>11.181078</ele>
        <time>2022-02-24T11:47:57.781Z</time>
      </trkpt>
      <trkpt lat="36.50313" lon="34.19363">
        <ele>10.904137</ele>
        <time>2022-02-24T11:48:21.374Z</time>
      </trkpt>
      <trkpt lat="36.50251" lon="34.19313">
        <ele>10.512633</ele>
        <time>2022-02-24T11:48:37.904Z</time>
      </trkpt>
      <trkpt lat="36.50193" lon="34.19255">
        <ele>9.537079</ele>
        <time>2022-02-24T11:48:53.784Z</time>
      </trkpt>
      <trkpt lat="36.50146" lon="34.1919">
        <ele>8.619208</ele>
        <time>2022-02-24T11:49:09.186Z</time>
      </trkpt>
      <trkpt lat="36.50111" lon="34.19116">
        <ele>8.738317</ele>
        <time>2022-02-24T11:49:26.628Z</time>
      </trkpt>
      <trkpt lat="36.50086" lon="34.19032">
        <ele>9.271387</ele>
        <time>2022-02-24T11:49:48.332Z</time>
      </trkpt>
      <trkpt lat="36.50053" lon="34.18801">
        <ele>12.000763</ele>
        <time>2022-02-24T11:50:57.052Z</time>
      </trkpt>
      <trkpt lat="36.50036" lon="34.18756">
        <ele>12.703968</ele>
        <time>2022-02-24T11:51:10.821Z</time>
      </trkpt>
      <trkpt lat="36.5001" lon="34.18719">
        <ele>12.868308</ele>
        <time>2022-02-24T11:51:23.270Z</time>
      </trkpt>
      <trkpt lat="36.49975" lon="34.18687">
        <ele>12.886533</ele>
        <time>2022-02-24T11:51:36.471Z</time>
      </trkpt>
      <trkpt lat="36.49871" lon="34.18629">
        <ele>12.736197</ele>
        <time>2022-02-24T11:52:04.732Z</time>
      </trkpt>
      <trkpt lat="36.49837" lon="34.1861">
        <ele>11.940709</ele>
        <time>2022-02-24T11:52:12.638Z</time>
      </trkpt>
      <trkpt lat="36.4982" lon="34.18594">
        <ele>11.462015</ele>
        <time>2022-02-24T11:52:17.339Z</time>
      </trkpt>
      <trkpt lat="36.498" lon="34.18569">
        <ele>10.850359</ele>
        <time>2022-02-24T11:52:23.315Z</time>
      </trkpt>
      <trkpt lat="36.49787" lon="34.18554">
        <ele>10.479296</ele>
        <time>2022-02-24T11:52:26.613Z</time>
      </trkpt>
      <trkpt lat="36.49717" lon="34.18411">
        <ele>7.363293</ele>
        <time>2022-02-24T11:52:53.557Z</time>
      </trkpt>
      <trkpt lat="36.49695" lon="34.18361">
        <ele>6.242374</ele>
        <time>2022-02-24T11:53:02.775Z</time>
      </trkpt>
      <trkpt lat="36.49656" lon="34.18314">
        <ele>4.928681</ele>
        <time>2022-02-24T11:53:14.135Z</time>
      </trkpt>
      <trkpt lat="36.49609" lon="34.18271">
        <ele>4.257567</ele>
        <time>2022-02-24T11:53:26.948Z</time>
      </trkpt>
      <trkpt lat="36.49577" lon="34.18249">
        <ele>3.96253</ele>
        <time>2022-02-24T11:53:35.270Z</time>
      </trkpt>
      <trkpt lat="36.49549" lon="34.18229">
        <ele>3.695226</ele>
        <time>2022-02-24T11:53:43.323Z</time>
      </trkpt>
      <trkpt lat="36.49391" lon="34.1817">
        <ele>3.445753</ele>
        <time>2022-02-24T11:54:26.685Z</time>
      </trkpt>
      <trkpt lat="36.4905" lon="34.18051">
        <ele>5.313466</ele>
        <time>2022-02-24T11:56:13.316Z</time>
      </trkpt>
      <trkpt lat="36.48931" lon="34.1801">
        <ele>5.632788</ele>
        <time>2022-02-24T11:56:46.531Z</time>
      </trkpt>
      <trkpt lat="36.4882" lon="34.17971">
        <ele>5.563525</ele>
        <time>2022-02-24T11:57:16.616Z</time>
      </trkpt>
      <trkpt lat="36.48778" lon="34.17957">
        <ele>5.54895</ele>
        <time>2022-02-24T11:57:28.113Z</time>
      </trkpt>
      <trkpt lat="36.48744" lon="34.17945">
        <ele>5.551554</ele>
        <time>2022-02-24T11:57:37.317Z</time>
      </trkpt>
      <trkpt lat="36.48706" lon="34.1793">
        <ele>5.554564</ele>
        <time>2022-02-24T11:57:47.859Z</time>
      </trkpt>
      <trkpt lat="36.48663" lon="34.17902">
        <ele>5.558183</ele>
        <time>2022-02-24T11:58:01.037Z</time>
      </trkpt>
      <trkpt lat="36.48625" lon="34.17861">
        <ele>5.545111</ele>
        <time>2022-02-24T11:58:15.216Z</time>
      </trkpt>
      <trkpt lat="36.48602" lon="34.17816">
        <ele>5.485675</ele>
        <time>2022-02-24T11:58:26.515Z</time>
      </trkpt>
      <trkpt lat="36.48551" lon="34.17716">
        <ele>5.352971</ele>
        <time>2022-02-24T11:58:51.096Z</time>
      </trkpt>
      <trkpt lat="36.485" lon="34.17654">
        <ele>5.217936</ele>
        <time>2022-02-24T11:59:09.216Z</time>
      </trkpt>
      <trkpt lat="36.48364" lon="34.1754">
        <ele>4.950788</ele>
        <time>2022-02-24T11:59:50.905Z</time>
      </trkpt>
      <trkpt lat="36.48308" lon="34.17486">
        <ele>5.075699</ele>
        <time>2022-02-24T12:00:10.414Z</time>
      </trkpt>
      <trkpt lat="36.48245" lon="34.17424">
        <ele>5.217394</ele>
        <time>2022-02-24T12:00:33.363Z</time>
      </trkpt>
      <trkpt lat="36.48188" lon="34.17373">
        <ele>5.302788</ele>
        <time>2022-02-24T12:00:53.663Z</time>
      </trkpt>
      <trkpt lat="36.48123" lon="34.17334">
        <ele>5.387798</ele>
        <time>2022-02-24T12:01:13.744Z</time>
      </trkpt>
      <trkpt lat="36.48036" lon="34.17313">
        <ele>5.005329</ele>
        <time>2022-02-24T12:01:35.751Z</time>
      </trkpt>
      <trkpt lat="36.47915" lon="34.17316">
        <ele>3.910617</ele>
        <time>2022-02-24T12:02:03.676Z</time>
      </trkpt>
      <trkpt lat="36.47876" lon="34.17305">
        <ele>3.51485</ele>
        <time>2022-02-24T12:02:12.586Z</time>
      </trkpt>
      <trkpt lat="36.47839" lon="34.17284">
        <ele>3.099992</ele>
        <time>2022-02-24T12:02:21.532Z</time>
      </trkpt>
      <trkpt lat="36.47805" lon="34.1725">
        <ele>2.649729</ele>
        <time>2022-02-24T12:02:31.464Z</time>
      </trkpt>
      <trkpt lat="36.47734" lon="34.1716">
        <ele>2.045192</ele>
        <time>2022-02-24T12:02:55.422Z</time>
      </trkpt>
      <trkpt lat="36.47649" lon="34.17054">
        <ele>2.314565</ele>
        <time>2022-02-24T12:03:29.044Z</time>
      </trkpt>
      <trkpt lat="36.47592" lon="34.16993">
        <ele>3.09972</ele>
        <time>2022-02-24T12:03:53.923Z</time>
      </trkpt>
      <trkpt lat="36.47525" lon="34.16951">
        <ele>4.182979</ele>
        <time>2022-02-24T12:04:19.770Z</time>
      </trkpt>
      <trkpt lat="36.47452" lon="34.16923">
        <ele>5.232841</ele>
        <time>2022-02-24T12:04:46.558Z</time>
      </trkpt>
      <trkpt lat="36.47377" lon="34.16906">
        <ele>6.086337</ele>
        <time>2022-02-24T12:05:11.780Z</time>
      </trkpt>
      <trkpt lat="36.47231" lon="34.16888">
        <ele>7.374449</ele>
        <time>2022-02-24T12:05:56.342Z</time>
      </trkpt>
      <trkpt lat="36.47015" lon="34.16846">
        <ele>8.68128</ele>
        <time>2022-02-24T12:06:59.170Z</time>
      </trkpt>
      <trkpt lat="36.46946" lon="34.16822">
        <ele>9.136081</ele>
        <time>2022-02-24T12:07:21.288Z</time>
      </trkpt>
      <trkpt lat="36.46881" lon="34.16778">
        <ele>9.544527</ele>
        <time>2022-02-24T12:07:44.112Z</time>
      </trkpt>
      <trkpt lat="36.46829" lon="34.16713">
        <ele>9.954633</ele>
        <time>2022-02-24T12:08:06.348Z</time>
      </trkpt>
      <trkpt lat="36.46799" lon="34.1665">
        <ele>10.12547</ele>
        <time>2022-02-24T12:08:21.642Z</time>
      </trkpt>
      <trkpt lat="36.4678" lon="34.16571">
        <ele>10.040821</ele>
        <time>2022-02-24T12:08:38.539Z</time>
      </trkpt>
      <trkpt lat="36.46774" lon="34.16528">
        <ele>9.996346</ele>
        <time>2022-02-24T12:08:47.412Z</time>
      </trkpt>
      <trkpt lat="36.4677" lon="34.16494">
        <ele>9.961414</ele>
        <time>2022-02-24T12:08:54.217Z</time>
      </trkpt>
      <trkpt lat="36.46765" lon="34.16447">
        <ele>9.997969</ele>
        <time>2022-02-24T12:09:04.189Z</time>
      </trkpt>
      <trkpt lat="36.46718" lon="34.15808">
        <ele>13.88727</ele>
        <time>2022-02-24T12:11:42.138Z</time>
      </trkpt>
      <trkpt lat="36.46704" lon="34.15615">
        <ele>14.815531</ele>
        <time>2022-02-24T12:12:29.168Z</time>
      </trkpt>
      <trkpt lat="36.4668" lon="34.15484">
        <ele>14.55088</ele>
        <time>2022-02-24T12:12:58.139Z</time>
      </trkpt>
      <trkpt lat="36.46659" lon="34.15401">
        <ele>14.06818</ele>
        <time>2022-02-24T12:13:14.783Z</time>
      </trkpt>
      <trkpt lat="36.46621" lon="34.15301">
        <ele>12.84343</ele>
        <time>2022-02-24T12:13:34.026Z</time>
      </trkpt>
      <trkpt lat="36.4657" lon="34.15192">
        <ele>10.876649</ele>
        <time>2022-02-24T12:13:55.104Z</time>
      </trkpt>
      <trkpt lat="36.46459" lon="34.15002">
        <ele>7.217466</ele>
        <time>2022-02-24T12:14:35.017Z</time>
      </trkpt>
      <trkpt lat="36.46315" lon="34.14801">
        <ele>4.799658</ele>
        <time>2022-02-24T12:15:23.467Z</time>
      </trkpt>
      <trkpt lat="36.46287" lon="34.14753">
        <ele>5.20914</ele>
        <time>2022-02-24T12:15:37.868Z</time>
      </trkpt>
      <trkpt lat="36.46275" lon="34.14726">
        <ele>5.425658</ele>
        <time>2022-02-24T12:15:45.730Z</time>
      </trkpt>
      <trkpt lat="36.46263" lon="34.14653">
        <ele>5.94393</ele>
        <time>2022-02-24T12:16:05.907Z</time>
      </trkpt>
      <trkpt lat="36.46261" lon="34.1462">
        <ele>6.169464</ele>
        <time>2022-02-24T12:16:15.195Z</time>
      </trkpt>
      <trkpt lat="36.46262" lon="34.14608">
        <ele>6.280262</ele>
        <time>2022-02-24T12:16:18.590Z</time>
      </trkpt>
      <trkpt lat="36.46266" lon="34.145">
        <ele>7.402931</ele>
        <time>2022-02-24T12:16:49.186Z</time>
      </trkpt>
      <trkpt lat="36.46269" lon="34.14433">
        <ele>8.098081</ele>
        <time>2022-02-24T12:17:07.417Z</time>
      </trkpt>
      <trkpt lat="36.46268" lon="34.14373">
        <ele>8.489192</ele>
        <time>2022-02-24T12:17:20.985Z</time>
      </trkpt>
      <trkpt lat="36.46244" lon="34.14187">
        <ele>8.10785</ele>
        <time>2022-02-24T12:17:59.656Z</time>
      </trkpt>
      <trkpt lat="36.46243" lon="34.14162">
        <ele>8.038473</ele>
        <time>2022-02-24T12:18:04.347Z</time>
      </trkpt>
      <trkpt lat="36.46244" lon="34.14154">
        <ele>8.003357</ele>
        <time>2022-02-24T12:18:05.874Z</time>
      </trkpt>
      <trkpt lat="36.46241" lon="34.1414">
        <ele>7.937758</ele>
        <time>2022-02-24T12:18:08.481Z</time>
      </trkpt>
      <trkpt lat="36.46237" lon="34.14135">
        <ele>7.906069</ele>
        <time>2022-02-24T12:18:09.809Z</time>
      </trkpt>
      <trkpt lat="36.46234" lon="34.14118">
        <ele>7.82927</ele>
        <time>2022-02-24T12:18:13.078Z</time>
      </trkpt>
      <trkpt lat="36.46231" lon="34.14106">
        <ele>7.771836</ele>
        <time>2022-02-24T12:18:15.537Z</time>
      </trkpt>
      <trkpt lat="36.4623" lon="34.14099">
        <ele>7.738179</ele>
        <time>2022-02-24T12:18:16.757Z</time>
      </trkpt>
      <trkpt lat="36.46199" lon="34.1387">
        <ele>7.862687</ele>
        <time>2022-02-24T12:19:03.374Z</time>
      </trkpt>
      <trkpt lat="36.46196" lon="34.13846">
        <ele>8.095375</ele>
        <time>2022-02-24T12:19:10.178Z</time>
      </trkpt>
      <trkpt lat="36.46149" lon="34.13517">
        <ele>12.439126</ele>
        <time>2022-02-24T12:20:50.544Z</time>
      </trkpt>
      <trkpt lat="36.46131" lon="34.13437">
        <ele>11.532111</ele>
        <time>2022-02-24T12:21:07.560Z</time>
      </trkpt>
      <trkpt lat="36.46129" lon="34.1343">
        <ele>11.441315</ele>
        <time>2022-02-24T12:21:08.689Z</time>
      </trkpt>
      <trkpt lat="36.46113" lon="34.13367">
        <ele>10.599995</ele>
        <time>2022-02-24T12:21:19.839Z</time>
      </trkpt>
      <trkpt lat="36.4609" lon="34.13305">
        <ele>9.738447</ele>
        <time>2022-02-24T12:21:30.500Z</time>
      </trkpt>
      <trkpt lat="36.46074" lon="34.13277">
        <ele>9.62566</ele>
        <time>2022-02-24T12:21:35.857Z</time>
      </trkpt>
      <trkpt lat="36.46047" lon="34.13237">
        <ele>9.521882</ele>
        <time>2022-02-24T12:21:44.206Z</time>
      </trkpt>
      <trkpt lat="36.46013" lon="34.13196">
        <ele>9.404953</ele>
        <time>2022-02-24T12:21:56.897Z</time>
      </trkpt>
      <trkpt lat="36.4599" lon="34.13169">
        <ele>9.326627</ele>
        <time>2022-02-24T12:22:07.008Z</time>
      </trkpt>
      <trkpt lat="36.45972" lon="34.13152">
        <ele>9.272062</ele>
        <time>2022-02-24T12:22:14.976Z</time>
      </trkpt>
      <trkpt lat="36.45974" lon="34.13134">
        <ele>9.417741</ele>
        <time>2022-02-24T12:22:21.052Z</time>
      </trkpt>
      <trkpt lat="36.45967" lon="34.13099">
        <ele>11.21456</ele>
        <time>2022-02-24T12:22:34.347Z</time>
      </trkpt>
      <trkpt lat="36.45953" lon="34.1307">
        <ele>12.83968</ele>
        <time>2022-02-24T12:22:48.585Z</time>
      </trkpt>
      <trkpt lat="36.45937" lon="34.13046">
        <ele>14.384349</ele>
        <time>2022-02-24T12:23:02.812Z</time>
      </trkpt>
      <trkpt lat="36.45888" lon="34.12995">
        <ele>18.279967</ele>
        <time>2022-02-24T12:23:43.822Z</time>
      </trkpt>
      <trkpt lat="36.45865" lon="34.12957">
        <ele>20.564829</ele>
        <time>2022-02-24T12:24:12.124Z</time>
      </trkpt>
      <trkpt lat="36.45812" lon="34.12843">
        <ele>25.629351</ele>
        <time>2022-02-24T12:25:16.375Z</time>
      </trkpt>
      <trkpt lat="36.45769" lon="34.12771">
        <ele>28.63184</ele>
        <time>2022-02-24T12:25:43.154Z</time>
      </trkpt>
      <trkpt lat="36.45757" lon="34.12771">
        <ele>28.147185</ele>
        <time>2022-02-24T12:25:45.606Z</time>
      </trkpt>
      <trkpt lat="36.45727" lon="34.12771">
        <ele>26.969592</ele>
        <time>2022-02-24T12:25:53.184Z</time>
      </trkpt>
      <trkpt lat="36.45684" lon="34.12745">
        <ele>25.054986</ele>
        <time>2022-02-24T12:26:02.503Z</time>
      </trkpt>
      <trkpt lat="36.45664" lon="34.12749">
        <ele>24.214372</ele>
        <time>2022-02-24T12:26:06.464Z</time>
      </trkpt>
      <trkpt lat="36.45582" lon="34.12784">
        <ele>20.591589</ele>
        <time>2022-02-24T12:26:21.889Z</time>
      </trkpt>
      <trkpt lat="36.45567" lon="34.12787">
        <ele>19.814171</ele>
        <time>2022-02-24T12:26:24.690Z</time>
      </trkpt>
      <trkpt lat="36.45486" lon="34.12692">
        <ele>14.356887</ele>
        <time>2022-02-24T12:26:44.818Z</time>
      </trkpt>
      <trkpt lat="36.45394" lon="34.12548">
        <ele>11.344219</ele>
        <time>2022-02-24T12:27:16.357Z</time>
      </trkpt>
      <trkpt lat="36.45277" lon="34.12322">
        <ele>12.206942</ele>
        <time>2022-02-24T12:28:17.035Z</time>
      </trkpt>
      <trkpt lat="36.4513" lon="34.12062">
        <ele>22.136467</ele>
        <time>2022-02-24T12:30:15.004Z</time>
      </trkpt>
      <trkpt lat="36.45108" lon="34.11987">
        <ele>25.640034</ele>
        <time>2022-02-24T12:30:52.464Z</time>
      </trkpt>
      <trkpt lat="36.45065" lon="34.11899">
        <ele>29.629501</ele>
        <time>2022-02-24T12:31:40.970Z</time>
      </trkpt>
      <trkpt lat="36.44988" lon="34.11762">
        <ele>32.216933</ele>
        <time>2022-02-24T12:32:33.199Z</time>
      </trkpt>
      <trkpt lat="36.44919" lon="34.11666">
        <ele>29.980656</ele>
        <time>2022-02-24T12:32:53.232Z</time>
      </trkpt>
      <trkpt lat="36.4478" lon="34.11507">
        <ele>24.244473</ele>
        <time>2022-02-24T12:33:27.840Z</time>
      </trkpt>
      <trkpt lat="36.44765" lon="34.11491">
        <ele>23.82489</ele>
        <time>2022-02-24T12:33:31.994Z</time>
      </trkpt>
      <trkpt lat="36.44753" lon="34.11477">
        <ele>23.481587</ele>
        <time>2022-02-24T12:33:36.356Z</time>
      </trkpt>
      <trkpt lat="36.44735" lon="34.1146">
        <ele>23.01569</ele>
        <time>2022-02-24T12:33:41.568Z</time>
      </trkpt>
      <trkpt lat="36.44727" lon="34.11451">
        <ele>22.793868</ele>
        <time>2022-02-24T12:33:45.128Z</time>
      </trkpt>
      <trkpt lat="36.44515" lon="34.11224">
        <ele>25.998611</ele>
        <time>2022-02-24T12:35:21.945Z</time>
      </trkpt>
      <trkpt lat="36.44428" lon="34.11116">
        <ele>28.099702</ele>
        <time>2022-02-24T12:36:00.763Z</time>
      </trkpt>
      <trkpt lat="36.44422" lon="34.11109">
        <ele>28.436256</ele>
        <time>2022-02-24T12:36:03.523Z</time>
      </trkpt>
      <trkpt lat="36.44399" lon="34.11078">
        <ele>29.784763</ele>
        <time>2022-02-24T12:36:15.719Z</time>
      </trkpt>
      <trkpt lat="36.44255" lon="34.10885">
        <ele>40.017677</ele>
        <time>2022-02-24T12:38:06.203Z</time>
      </trkpt>
      <trkpt lat="36.44251" lon="34.1088">
        <ele>40.348549</ele>
        <time>2022-02-24T12:38:10.726Z</time>
      </trkpt>
      <trkpt lat="36.44202" lon="34.10819">
        <ele>44.468663</ele>
        <time>2022-02-24T12:38:51.165Z</time>
      </trkpt>
      <trkpt lat="36.44142" lon="34.10755">
        <ele>46.863056</ele>
        <time>2022-02-24T12:39:35.853Z</time>
      </trkpt>
      <trkpt lat="36.43779" lon="34.10421">
        <ele>52.769815</ele>
        <time>2022-02-24T12:42:07.483Z</time>
      </trkpt>
      <trkpt lat="36.43626" lon="34.10284">
        <ele>38.944362</ele>
        <time>2022-02-24T12:42:38.679Z</time>
      </trkpt>
      <trkpt lat="36.43601" lon="34.10263">
        <ele>36.68669</ele>
        <time>2022-02-24T12:42:43.533Z</time>
      </trkpt>
      <trkpt lat="36.43535" lon="34.10214">
        <ele>31.472996</ele>
        <time>2022-02-24T12:42:56.389Z</time>
      </trkpt>
      <trkpt lat="36.43466" lon="34.10178">
        <ele>26.419735</ele>
        <time>2022-02-24T12:43:09.641Z</time>
      </trkpt>
      <trkpt lat="36.43393" lon="34.10162">
        <ele>24.775119</ele>
        <time>2022-02-24T12:43:24.848Z</time>
      </trkpt>
      <trkpt lat="36.43173" lon="34.10131">
        <ele>22.51977</ele>
        <time>2022-02-24T12:44:22.612Z</time>
      </trkpt>
      <trkpt lat="36.43101" lon="34.10112">
        <ele>21.933667</ele>
        <time>2022-02-24T12:44:39.474Z</time>
      </trkpt>
      <trkpt lat="36.42826" lon="34.09978">
        <ele>14.425686</ele>
        <time>2022-02-24T12:45:38.175Z</time>
      </trkpt>
      <trkpt lat="36.42619" lon="34.09868">
        <ele>11.361367</ele>
        <time>2022-02-24T12:46:28.026Z</time>
      </trkpt>
      <trkpt lat="36.42443" lon="34.09811">
        <ele>13.406464</ele>
        <time>2022-02-24T12:47:27.948Z</time>
      </trkpt>
      <trkpt lat="36.42406" lon="34.09785">
        <ele>14.274957</ele>
        <time>2022-02-24T12:47:45.269Z</time>
      </trkpt>
      <trkpt lat="36.42372" lon="34.0975">
        <ele>15.411585</ele>
        <time>2022-02-24T12:48:03.354Z</time>
      </trkpt>
      <trkpt lat="36.42339" lon="34.09695">
        <ele>16.841024</ele>
        <time>2022-02-24T12:48:26.049Z</time>
      </trkpt>
      <trkpt lat="36.42292" lon="34.09578">
        <ele>18.656809</ele>
        <time>2022-02-24T12:49:06.121Z</time>
      </trkpt>
      <trkpt lat="36.42119" lon="34.09056">
        <ele>21.052109</ele>
        <time>2022-02-24T12:51:14.092Z</time>
      </trkpt>
      <trkpt lat="36.4211" lon="34.09036">
        <ele>21.115696</ele>
        <time>2022-02-24T12:51:18.890Z</time>
      </trkpt>
      <trkpt lat="36.421" lon="34.09015">
        <ele>21.183687</ele>
        <time>2022-02-24T12:51:25.721Z</time>
      </trkpt>
      <trkpt lat="36.42017" lon="34.08834">
        <ele>20.76554</ele>
        <time>2022-02-24T12:52:11.902Z</time>
      </trkpt>
      <trkpt lat="36.41964" lon="34.08739">
        <ele>17.17414</ele>
        <time>2022-02-24T12:52:30.509Z</time>
      </trkpt>
      <trkpt lat="36.41895" lon="34.08642">
        <ele>12.471748</ele>
        <time>2022-02-24T12:52:48.784Z</time>
      </trkpt>
      <trkpt lat="36.41874" lon="34.08613">
        <ele>10.773645</ele>
        <time>2022-02-24T12:52:54.194Z</time>
      </trkpt>
      <trkpt lat="36.41824" lon="34.08551">
        <ele>6.976531</ele>
        <time>2022-02-24T12:53:06.469Z</time>
      </trkpt>
      <trkpt lat="36.41817" lon="34.08543">
        <ele>6.425459</ele>
        <time>2022-02-24T12:53:08.292Z</time>
      </trkpt>
      <trkpt lat="36.4181" lon="34.08537">
        <ele>5.974122</ele>
        <time>2022-02-24T12:53:09.764Z</time>
      </trkpt>
      <trkpt lat="36.41771" lon="34.08493">
        <ele>3.117241</ele>
        <time>2022-02-24T12:53:19.330Z</time>
      </trkpt>
      <trkpt lat="36.41727" lon="34.08443">
        <ele>2.539123</ele>
        <time>2022-02-24T12:53:31.652Z</time>
      </trkpt>
      <trkpt lat="36.41715" lon="34.08427">
        <ele>2.409766</ele>
        <time>2022-02-24T12:53:35.781Z</time>
      </trkpt>
      <trkpt lat="36.41682" lon="34.08385">
        <ele>2.065739</ele>
        <time>2022-02-24T12:53:48.226Z</time>
      </trkpt>
      <trkpt lat="36.41658" lon="34.08348">
        <ele>1.785127</ele>
        <time>2022-02-24T12:53:59.856Z</time>
      </trkpt>
      <trkpt lat="36.4164" lon="34.08318">
        <ele>1.801493</ele>
        <time>2022-02-24T12:54:09.513Z</time>
      </trkpt>
      <trkpt lat="36.41568" lon="34.08206">
        <ele>3.822499</ele>
        <time>2022-02-24T12:54:51.336Z</time>
      </trkpt>
      <trkpt lat="36.41547" lon="34.08172">
        <ele>4.428814</ele>
        <time>2022-02-24T12:55:03.788Z</time>
      </trkpt>
      <trkpt lat="36.41526" lon="34.08147">
        <ele>4.87458</ele>
        <time>2022-02-24T12:55:14.440Z</time>
      </trkpt>
      <trkpt lat="36.41514" lon="34.08133">
        <ele>5.044882</ele>
        <time>2022-02-24T12:55:19.979Z</time>
      </trkpt>
      <trkpt lat="36.41438" lon="34.08079">
        <ele>5.915714</ele>
        <time>2022-02-24T12:55:48.897Z</time>
      </trkpt>
      <trkpt lat="36.41264" lon="34.07971">
        <ele>6.704491</ele>
        <time>2022-02-24T12:56:42.413Z</time>
      </trkpt>
      <trkpt lat="36.41199" lon="34.0792">
        <ele>6.835938</ele>
        <time>2022-02-24T12:57:02.250Z</time>
      </trkpt>
      <trkpt lat="36.41145" lon="34.07862">
        <ele>7.081016</ele>
        <time>2022-02-24T12:57:22.163Z</time>
      </trkpt>
      <trkpt lat="36.41164" lon="34.07845">
        <ele>7.161789</ele>
        <time>2022-02-24T12:57:29.173Z</time>
      </trkpt>
      <trkpt lat="36.41139" lon="34.07806">
        <ele>7.299562</ele>
        <time>2022-02-24T12:57:42.030Z</time>
      </trkpt>
      <trkpt lat="36.41124" lon="34.07778">
        <ele>7.379182</ele>
        <time>2022-02-24T12:57:50.474Z</time>
      </trkpt>
      <trkpt lat="36.41101" lon="34.07738">
        <ele>7.424992</ele>
        <time>2022-02-24T12:58:02.284Z</time>
      </trkpt>
      <trkpt lat="36.41068" lon="34.07691">
        <ele>7.484534</ele>
        <time>2022-02-24T12:58:16.991Z</time>
      </trkpt>
      <trkpt lat="36.4105" lon="34.07665">
        <ele>7.51748</ele>
        <time>2022-02-24T12:58:25.164Z</time>
      </trkpt>
      <trkpt lat="36.40976" lon="34.07563">
        <ele>7.014824</ele>
        <time>2022-02-24T12:58:53.544Z</time>
      </trkpt>
      <trkpt lat="36.40876" lon="34.07457">
        <ele>5.640461</ele>
        <time>2022-02-24T12:59:24.294Z</time>
      </trkpt>
      <trkpt lat="36.40825" lon="34.07389">
        <ele>5.085003</ele>
        <time>2022-02-24T12:59:42.493Z</time>
      </trkpt>
      <trkpt lat="36.40808" lon="34.07358">
        <ele>4.861293</ele>
        <time>2022-02-24T12:59:50.048Z</time>
      </trkpt>
      <trkpt lat="36.40798" lon="34.07364">
        <ele>4.780219</ele>
        <time>2022-02-24T12:59:52.838Z</time>
      </trkpt>
      <trkpt lat="36.40747" lon="34.07269">
        <ele>4.243202</ele>
        <time>2022-02-24T13:00:16.820Z</time>
      </trkpt>
      <trkpt lat="36.40722" lon="34.07216">
        <ele>4.095461</ele>
        <time>2022-02-24T13:00:29.417Z</time>
      </trkpt>
      <trkpt lat="36.40719" lon="34.07207">
        <ele>4.071294</ele>
        <time>2022-02-24T13:00:31.650Z</time>
      </trkpt>
      <trkpt lat="36.40706" lon="34.07168">
        <ele>3.968172</ele>
        <time>2022-02-24T13:00:40.831Z</time>
      </trkpt>
      <trkpt lat="36.40678" lon="34.07177">
        <ele>3.883355</ele>
        <time>2022-02-24T13:00:48.305Z</time>
      </trkpt>
      <trkpt lat="36.40647" lon="34.07186">
        <ele>3.794392</ele>
        <time>2022-02-24T13:00:56.898Z</time>
      </trkpt>
      <trkpt lat="36.40577" lon="34.06993">
        <ele>3.543069</ele>
        <time>2022-02-24T13:01:41.038Z</time>
      </trkpt>
      <trkpt lat="36.40536" lon="34.06881">
        <ele>3.463659</ele>
        <time>2022-02-24T13:02:07.409Z</time>
      </trkpt>
      <trkpt lat="36.40458" lon="34.06696">
        <ele>3.556826</ele>
        <time>2022-02-24T13:02:51.512Z</time>
      </trkpt>
      <trkpt lat="36.404" lon="34.06581">
        <ele>3.793155</ele>
        <time>2022-02-24T13:03:23.100Z</time>
      </trkpt>
      <trkpt lat="36.4032" lon="34.06443">
        <ele>4.381148</ele>
        <time>2022-02-24T13:04:02.490Z</time>
      </trkpt>
      <trkpt lat="36.403" lon="34.06408">
        <ele>4.526139</ele>
        <time>2022-02-24T13:04:12.278Z</time>
      </trkpt>
      <trkpt lat="36.40236" lon="34.06315">
        <ele>4.832607</ele>
        <time>2022-02-24T13:04:39.662Z</time>
      </trkpt>
      <trkpt lat="36.401" lon="34.06133">
        <ele>5.397966</ele>
        <time>2022-02-24T13:05:36.545Z</time>
      </trkpt>
      <trkpt lat="36.40089" lon="34.0612">
        <ele>5.438176</ele>
        <time>2022-02-24T13:05:41.074Z</time>
      </trkpt>
      <trkpt lat="36.39855" lon="34.05855">
        <ele>5.37063</ele>
        <time>2022-02-24T13:07:05.259Z</time>
      </trkpt>
      <trkpt lat="36.39485" lon="34.05436">
        <ele>4.469339</ele>
        <time>2022-02-24T13:09:11.747Z</time>
      </trkpt>
      <trkpt lat="36.39509" lon="34.05419">
        <ele>4.646219</ele>
        <time>2022-02-24T13:09:20.896Z</time>
      </trkpt>
      <trkpt lat="36.39593" lon="34.05356">
        <ele>5.268563</ele>
        <time>2022-02-24T13:09:53.488Z</time>
      </trkpt>
      <trkpt lat="36.39619" lon="34.05343">
        <ele>5.420803</ele>
        <time>2022-02-24T13:10:02.715Z</time>
      </trkpt>
      <trkpt lat="36.39625" lon="34.05334">
        <ele>5.467791</ele>
        <time>2022-02-24T13:10:05.672Z</time>
      </trkpt>
      <trkpt lat="36.3963" lon="34.05291">
        <ele>5.660883</ele>
        <time>2022-02-24T13:10:16.875Z</time>
      </trkpt>
      <trkpt lat="36.3964" lon="34.05251">
        <ele>5.843779</ele>
        <time>2022-02-24T13:10:26.941Z</time>
      </trkpt>
      <trkpt lat="36.39641" lon="34.05236">
        <ele>5.912605</ele>
        <time>2022-02-24T13:10:30.512Z</time>
      </trkpt>
      <trkpt lat="36.39602" lon="34.051">
        <ele>6.297308</ele>
        <time>2022-02-24T13:11:03.476Z</time>
      </trkpt>
      <trkpt lat="36.39604" lon="34.05053">
        <ele>6.331487</ele>
        <time>2022-02-24T13:11:13.779Z</time>
      </trkpt>
      <trkpt lat="36.39593" lon="34.05032">
        <ele>6.349636</ele>
        <time>2022-02-24T13:11:19.454Z</time>
      </trkpt>
      <trkpt lat="36.39589" lon="34.05027">
        <ele>6.35516</ele>
        <time>2022-02-24T13:11:21.266Z</time>
      </trkpt>
      <trkpt lat="36.39523" lon="34.05038">
        <ele>6.420549</ele>
        <time>2022-02-24T13:11:40.281Z</time>
      </trkpt>
      <trkpt lat="36.39503" lon="34.05029">
        <ele>6.462397</ele>
        <time>2022-02-24T13:11:46.491Z</time>
      </trkpt>
      <trkpt lat="36.39468" lon="34.05001">
        <ele>6.541288</ele>
        <time>2022-02-24T13:11:58.206Z</time>
      </trkpt>
      <trkpt lat="36.39446" lon="34.04969">
        <ele>6.60702</ele>
        <time>2022-02-24T13:12:08.068Z</time>
      </trkpt>
      <trkpt lat="36.39428" lon="34.04938">
        <ele>6.666525</ele>
        <time>2022-02-24T13:12:16.541Z</time>
      </trkpt>
      <trkpt lat="36.39389" lon="34.04878">
        <ele>6.799353</ele>
        <time>2022-02-24T13:12:33.599Z</time>
      </trkpt>
      <trkpt lat="36.39337" lon="34.04765">
        <ele>7.084976</ele>
        <time>2022-02-24T13:13:02.024Z</time>
      </trkpt>
      <trkpt lat="36.39312" lon="34.04726">
        <ele>7.195663</ele>
        <time>2022-02-24T13:13:13.660Z</time>
      </trkpt>
      <trkpt lat="36.39266" lon="34.04686">
        <ele>7.583591</ele>
        <time>2022-02-24T13:13:30.321Z</time>
      </trkpt>
      <trkpt lat="36.39201" lon="34.04664">
        <ele>8.205644</ele>
        <time>2022-02-24T13:13:51.168Z</time>
      </trkpt>
      <trkpt lat="36.39169" lon="34.0464">
        <ele>8.548543</ele>
        <time>2022-02-24T13:14:03.060Z</time>
      </trkpt>
      <trkpt lat="36.39148" lon="34.04617">
        <ele>8.808801</ele>
        <time>2022-02-24T13:14:12.264Z</time>
      </trkpt>
      <trkpt lat="36.39087" lon="34.04514">
        <ele>10.016278</ele>
        <time>2022-02-24T13:14:45.816Z</time>
      </trkpt>
      <trkpt lat="36.39071" lon="34.04471">
        <ele>10.478267</ele>
        <time>2022-02-24T13:14:58.254Z</time>
      </trkpt>
      <trkpt lat="36.39061" lon="34.04408">
        <ele>11.091684</ele>
        <time>2022-02-24T13:15:14.930Z</time>
      </trkpt>
      <trkpt lat="36.39049" lon="34.04373">
        <ele>11.38568</ele>
        <time>2022-02-24T13:15:25.024Z</time>
      </trkpt>
      <trkpt lat="36.39036" lon="34.04352">
        <ele>11.586011</ele>
        <time>2022-02-24T13:15:31.807Z</time>
      </trkpt>
      <trkpt lat="36.39015" lon="34.04335">
        <ele>11.819524</ele>
        <time>2022-02-24T13:15:39.693Z</time>
      </trkpt>
      <trkpt lat="36.38975" lon="34.04329">
        <ele>12.196295</ele>
        <time>2022-02-24T13:15:52.318Z</time>
      </trkpt>
      <trkpt lat="36.3895" lon="34.04319">
        <ele>12.439957</ele>
        <time>2022-02-24T13:16:00.439Z</time>
      </trkpt>
      <trkpt lat="36.38928" lon="34.04301">
        <ele>12.688977</ele>
        <time>2022-02-24T13:16:08.713Z</time>
      </trkpt>
      <trkpt lat="36.38891" lon="34.04257">
        <ele>12.584564</ele>
        <time>2022-02-24T13:16:23.592Z</time>
      </trkpt>
      <trkpt lat="36.38803" lon="34.04149">
        <ele>12.056569</ele>
        <time>2022-02-24T13:16:54.378Z</time>
      </trkpt>
      <trkpt lat="36.38795" lon="34.04139">
        <ele>12.011882</ele>
        <time>2022-02-24T13:16:56.531Z</time>
      </trkpt>
      <trkpt lat="36.38679" lon="34.04002">
        <ele>9.119211</ele>
        <time>2022-02-24T13:17:30.453Z</time>
      </trkpt>
      <trkpt lat="36.38641" lon="34.03938">
        <ele>8.121291</ele>
        <time>2022-02-24T13:17:43.899Z</time>
      </trkpt>
      <trkpt lat="36.38571" lon="34.03839">
        <ele>6.591452</ele>
        <time>2022-02-24T13:18:07.296Z</time>
      </trkpt>
      <trkpt lat="36.38439" lon="34.03662">
        <ele>5.489189</ele>
        <time>2022-02-24T13:18:55.055Z</time>
      </trkpt>
      <trkpt lat="36.38433" lon="34.03651">
        <ele>5.444321</ele>
        <time>2022-02-24T13:18:58.108Z</time>
      </trkpt>
      <trkpt lat="36.38422" lon="34.03629">
        <ele>5.518164</ele>
        <time>2022-02-24T13:19:03.848Z</time>
      </trkpt>
      <trkpt lat="36.38387" lon="34.03538">
        <ele>6.061306</ele>
        <time>2022-02-24T13:19:27.732Z</time>
      </trkpt>
      <trkpt lat="36.38335" lon="34.03453">
        <ele>6.63604</ele>
        <time>2022-02-24T13:19:55.100Z</time>
      </trkpt>
      <trkpt lat="36.3832" lon="34.03415">
        <ele>6.815817</ele>
        <time>2022-02-24T13:20:05.504Z</time>
      </trkpt>
      <trkpt lat="36.38303" lon="34.03361">
        <ele>7.067261</ele>
        <time>2022-02-24T13:20:19.784Z</time>
      </trkpt>
      <trkpt lat="36.38283" lon="34.03289">
        <ele>7.393245</ele>
        <time>2022-02-24T13:20:37.557Z</time>
      </trkpt>
      <trkpt lat="36.3822" lon="34.03081">
        <ele>7.723175</ele>
        <time>2022-02-24T13:21:25.526Z</time>
      </trkpt>
      <trkpt lat="36.38217" lon="34.03057">
        <ele>7.742377</ele>
        <time>2022-02-24T13:21:30.817Z</time>
      </trkpt>
      <trkpt lat="36.3821" lon="34.03004">
        <ele>7.758872</ele>
        <time>2022-02-24T13:21:42.652Z</time>
      </trkpt>
      <trkpt lat="36.38198" lon="34.02914">
        <ele>7.759485</ele>
        <time>2022-02-24T13:22:02.755Z</time>
      </trkpt>
      <trkpt lat="36.38193" lon="34.0287">
        <ele>7.759783</ele>
        <time>2022-02-24T13:22:12.498Z</time>
      </trkpt>
      <trkpt lat="36.38143" lon="34.02562">
        <ele>7.081246</ele>
        <time>2022-02-24T13:23:16.898Z</time>
      </trkpt>
      <trkpt lat="36.38136" lon="34.02547">
        <ele>7.014544</ele>
        <time>2022-02-24T13:23:20.074Z</time>
      </trkpt>
      <trkpt lat="36.38124" lon="34.02541">
        <ele>6.949591</ele>
        <time>2022-02-24T13:23:23.178Z</time>
      </trkpt>
      <trkpt lat="36.38116" lon="34.02537">
        <ele>6.906903</ele>
        <time>2022-02-24T13:23:25.275Z</time>
      </trkpt>
      <trkpt lat="36.38102" lon="34.02531">
        <ele>6.829558</ele>
        <time>2022-02-24T13:23:28.945Z</time>
      </trkpt>
      <trkpt lat="36.3809" lon="34.02269">
        <ele>5.953253</ele>
        <time>2022-02-24T13:24:21.241Z</time>
      </trkpt>
      <trkpt lat="36.38086" lon="34.02207">
        <ele>5.785759</ele>
        <time>2022-02-24T13:24:34.180Z</time>
      </trkpt>
      <trkpt lat="36.3802" lon="34.01777">
        <ele>5.770984</ele>
        <time>2022-02-24T13:26:07.692Z</time>
      </trkpt>
      <trkpt lat="36.37951" lon="34.0134">
        <ele>7.313322</ele>
        <time>2022-02-24T13:27:51.813Z</time>
      </trkpt>
      <trkpt lat="36.37876" lon="34.00879">
        <ele>8.151448</ele>
        <time>2022-02-24T13:29:37.460Z</time>
      </trkpt>
      <trkpt lat="36.37842" lon="34.00663">
        <ele>7.861855</ele>
        <time>2022-02-24T13:30:22.266Z</time>
      </trkpt>
      <trkpt lat="36.37815" lon="34.00496">
        <ele>8.347057</ele>
        <time>2022-02-24T13:31:00.510Z</time>
      </trkpt>
      <trkpt lat="36.37802" lon="34.00405">
        <ele>8.720014</ele>
        <time>2022-02-24T13:31:23.495Z</time>
      </trkpt>
      <trkpt lat="36.37795" lon="34.00321">
        <ele>9.236564</ele>
        <time>2022-02-24T13:31:44.359Z</time>
      </trkpt>
      <trkpt lat="36.37797" lon="34.00244">
        <ele>9.709624</ele>
        <time>2022-02-24T13:32:03.187Z</time>
      </trkpt>
      <trkpt lat="36.37805" lon="34.00186">
        <ele>10.001734</ele>
        <time>2022-02-24T13:32:17.286Z</time>
      </trkpt>
      <trkpt lat="36.37821" lon="34.00128">
        <ele>10.184898</ele>
        <time>2022-02-24T13:32:31.695Z</time>
      </trkpt>
      <trkpt lat="36.37906" lon="33.99925">
        <ele>10.644474</ele>
        <time>2022-02-24T13:33:23.113Z</time>
      </trkpt>
      <trkpt lat="36.38428" lon="33.98772">
        <ele>11.028187</ele>
        <time>2022-02-24T13:38:09.443Z</time>
      </trkpt>
      <trkpt lat="36.38495" lon="33.98627">
        <ele>10.680669</ele>
        <time>2022-02-24T13:38:43.198Z</time>
      </trkpt>
      <trkpt lat="36.38528" lon="33.98554">
        <ele>10.396316</ele>
        <time>2022-02-24T13:38:59.815Z</time>
      </trkpt>
      <trkpt lat="36.38537" lon="33.98534">
        <ele>10.318946</ele>
        <time>2022-02-24T13:39:04.218Z</time>
      </trkpt>
      <trkpt lat="36.386" lon="33.98379">
        <ele>10.019679</ele>
        <time>2022-02-24T13:39:39.344Z</time>
      </trkpt>
      <trkpt lat="36.38643" lon="33.98251">
        <ele>10.115176</ele>
        <time>2022-02-24T13:40:11.059Z</time>
      </trkpt>
      <trkpt lat="36.3867" lon="33.98136">
        <ele>10.255964</ele>
        <time>2022-02-24T13:40:38.225Z</time>
      </trkpt>
      <trkpt lat="36.38688" lon="33.97949">
        <ele>10.403747</ele>
        <time>2022-02-24T13:41:18.537Z</time>
      </trkpt>
      <trkpt lat="36.38686" lon="33.97827">
        <ele>10.410112</ele>
        <time>2022-02-24T13:41:44.421Z</time>
      </trkpt>
      <trkpt lat="36.38677" lon="33.97725">
        <ele>10.565259</ele>
        <time>2022-02-24T13:42:06.682Z</time>
      </trkpt>
      <trkpt lat="36.38657" lon="33.97608">
        <ele>10.820993</ele>
        <time>2022-02-24T13:42:34.221Z</time>
      </trkpt>
      <trkpt lat="36.38578" lon="33.97216">
        <ele>11.776571</ele>
        <time>2022-02-24T13:44:07.023Z</time>
      </trkpt>
      <trkpt lat="36.38443" lon="33.96575">
        <ele>11.287883</ele>
        <time>2022-02-24T13:46:24.941Z</time>
      </trkpt>
      <trkpt lat="36.38369" lon="33.96219">
        <ele>11.881103</ele>
        <time>2022-02-24T13:47:47.903Z</time>
      </trkpt>
      <trkpt lat="36.38291" lon="33.95841">
        <ele>12.531413</ele>
        <time>2022-02-24T13:49:15.243Z</time>
      </trkpt>
      <trkpt lat="36.38261" lon="33.95649">
        <ele>12.528508</ele>
        <time>2022-02-24T13:49:57.002Z</time>
      </trkpt>
      <trkpt lat="36.38244" lon="33.95439">
        <ele>12.673161</ele>
        <time>2022-02-24T13:50:42.434Z</time>
      </trkpt>
      <trkpt lat="36.38248" lon="33.94943">
        <ele>13.58157</ele>
        <time>2022-02-24T13:52:34.481Z</time>
      </trkpt>
      <trkpt lat="36.38247" lon="33.94825">
        <ele>13.425081</ele>
        <time>2022-02-24T13:52:59.196Z</time>
      </trkpt>
      <trkpt lat="36.38241" lon="33.94712">
        <ele>13.291439</ele>
        <time>2022-02-24T13:53:22.014Z</time>
      </trkpt>
      <trkpt lat="36.38239" lon="33.94672">
        <ele>13.268419</ele>
        <time>2022-02-24T13:53:30.129Z</time>
      </trkpt>
      <trkpt lat="36.38233" lon="33.94555">
        <ele>13.20081</ele>
        <time>2022-02-24T13:53:54.796Z</time>
      </trkpt>
      <trkpt lat="36.38232" lon="33.94544">
        <ele>13.194395</ele>
        <time>2022-02-24T13:53:57.231Z</time>
      </trkpt>
      <trkpt lat="36.38223" lon="33.94406">
        <ele>13.634115</ele>
        <time>2022-02-24T13:54:29.725Z</time>
      </trkpt>
      <trkpt lat="36.38225" lon="33.94263">
        <ele>14.223583</ele>
        <time>2022-02-24T13:55:03.993Z</time>
      </trkpt>
      <trkpt lat="36.38224" lon="33.94242">
        <ele>14.29607</ele>
        <time>2022-02-24T13:55:08.900Z</time>
      </trkpt>
      <trkpt lat="36.38222" lon="33.94222">
        <ele>14.365699</ele>
        <time>2022-02-24T13:55:13.640Z</time>
      </trkpt>
      <trkpt lat="36.38215" lon="33.94161">
        <ele>14.577033</ele>
        <time>2022-02-24T13:55:27.874Z</time>
      </trkpt>
      <trkpt lat="36.38209" lon="33.94096">
        <ele>14.802966</ele>
        <time>2022-02-24T13:55:43.177Z</time>
      </trkpt>
      <trkpt lat="36.38204" lon="33.94034">
        <ele>14.915815</ele>
        <time>2022-02-24T13:55:56.868Z</time>
      </trkpt>
      <trkpt lat="36.382" lon="33.94014">
        <ele>14.924166</ele>
        <time>2022-02-24T13:56:01.230Z</time>
      </trkpt>
      <trkpt lat="36.38196" lon="33.93984">
        <ele>14.93671</ele>
        <time>2022-02-24T13:56:07.773Z</time>
      </trkpt>
      <trkpt lat="36.38192" lon="33.93958">
        <ele>14.947428</ele>
        <time>2022-02-24T13:56:13.538Z</time>
      </trkpt>
      <trkpt lat="36.38189" lon="33.93947">
        <ele>14.952039</ele>
        <time>2022-02-24T13:56:15.998Z</time>
      </trkpt>
      <trkpt lat="36.38166" lon="33.93908">
        <ele>14.971766</ele>
        <time>2022-02-24T13:56:26.692Z</time>
      </trkpt>
      <trkpt lat="36.38162" lon="33.93903">
        <ele>14.974974</ele>
        <time>2022-02-24T13:56:28.425Z</time>
      </trkpt>
      <trkpt lat="36.38147" lon="33.93886">
        <ele>14.985106</ele>
        <time>2022-02-24T13:56:33.612Z</time>
      </trkpt>
      <trkpt lat="36.38126" lon="33.93867">
        <ele>14.983722</ele>
        <time>2022-02-24T13:56:40.658Z</time>
      </trkpt>
      <trkpt lat="36.38115" lon="33.93858">
        <ele>14.970344</ele>
        <time>2022-02-24T13:56:44.034Z</time>
      </trkpt>
      <trkpt lat="36.38087" lon="33.93836">
        <ele>14.936788</ele>
        <time>2022-02-24T13:56:52.418Z</time>
      </trkpt>
      <trkpt lat="36.38056" lon="33.93813">
        <ele>14.899973</ele>
        <time>2022-02-24T13:57:01.333Z</time>
      </trkpt>
      <trkpt lat="36.38044" lon="33.93806">
        <ele>14.88701</ele>
        <time>2022-02-24T13:57:04.715Z</time>
      </trkpt>
      <trkpt lat="36.38021" lon="33.93792">
        <ele>14.860153</ele>
        <time>2022-02-24T13:57:11.323Z</time>
      </trkpt>
      <trkpt lat="36.37962" lon="33.93777">
        <ele>14.82542</ele>
        <time>2022-02-24T13:57:28.068Z</time>
      </trkpt>
      <trkpt lat="36.3792" lon="33.93771">
        <ele>14.883637</ele>
        <time>2022-02-24T13:57:39.668Z</time>
      </trkpt>
      <trkpt lat="36.3791" lon="33.9377">
        <ele>14.897362</ele>
        <time>2022-02-24T13:57:42.389Z</time>
      </trkpt>
      <trkpt lat="36.37814" lon="33.93759">
        <ele>15.029713</ele>
        <time>2022-02-24T13:58:08.512Z</time>
      </trkpt>
      <trkpt lat="36.37723" lon="33.9375">
        <ele>15.114051</ele>
        <time>2022-02-24T13:58:33.949Z</time>
      </trkpt>
      <trkpt lat="36.37597" lon="33.93727">
        <ele>15.203317</ele>
        <time>2022-02-24T13:59:07.823Z</time>
      </trkpt>
      <trkpt lat="36.37562" lon="33.93718">
        <ele>15.209736</ele>
        <time>2022-02-24T13:59:17.489Z</time>
      </trkpt>
      <trkpt lat="36.37558" lon="33.93712">
        <ele>15.21081</ele>
        <time>2022-02-24T13:59:19.116Z</time>
      </trkpt>
      <trkpt lat="36.37541" lon="33.93704">
        <ele>15.213977</ele>
        <time>2022-02-24T13:59:23.886Z</time>
      </trkpt>
      <trkpt lat="36.37535" lon="33.93705">
        <ele>15.21506</ele>
        <time>2022-02-24T13:59:25.588Z</time>
      </trkpt>
      <trkpt lat="36.37529" lon="33.93709">
        <ele>15.216397</ele>
        <time>2022-02-24T13:59:27.612Z</time>
      </trkpt>
      <trkpt lat="36.37524" lon="33.93716">
        <ele>15.217732</ele>
        <time>2022-02-24T13:59:29.644Z</time>
      </trkpt>
      <trkpt lat="36.3752" lon="33.93724">
        <ele>15.219079</ele>
        <time>2022-02-24T13:59:31.691Z</time>
      </trkpt>
      <trkpt lat="36.3752" lon="33.93734">
        <ele>15.220419</ele>
        <time>2022-02-24T13:59:33.714Z</time>
      </trkpt>
      <trkpt lat="36.37521" lon="33.93743">
        <ele>15.221763</ele>
        <time>2022-02-24T13:59:35.826Z</time>
      </trkpt>
      <trkpt lat="36.37507" lon="33.93778">
        <ele>15.227433</ele>
        <time>2022-02-24T13:59:44.411Z</time>
      </trkpt>
      <trkpt lat="36.37506" lon="33.93781">
        <ele>15.227981</ele>
        <time>2022-02-24T13:59:45.311Z</time>
      </trkpt>
      <trkpt lat="36.37465" lon="33.93878">
        <ele>15.65947</ele>
        <time>2022-02-24T14:00:08.195Z</time>
      </trkpt>
      <trkpt lat="36.37436" lon="33.93941">
        <ele>16.043693</ele>
        <time>2022-02-24T14:00:23.533Z</time>
      </trkpt>
      <trkpt lat="36.37345" lon="33.93881">
        <ele>18.520445</ele>
        <time>2022-02-24T14:01:01.854Z</time>
      </trkpt>
      <trkpt lat="36.37311" lon="33.93859">
        <ele>20.247432</ele>
        <time>2022-02-24T14:01:21.436Z</time>
      </trkpt>
      <trkpt lat="36.37281" lon="33.93831">
        <ele>21.926526</ele>
        <time>2022-02-24T14:01:41.589Z</time>
      </trkpt>
      <trkpt lat="36.37275" lon="33.93839">
        <ele>22.320864</ele>
        <time>2022-02-24T14:01:47.640Z</time>
      </trkpt>
      <trkpt lat="36.37245" lon="33.93855">
        <ele>23.758917</ele>
        <time>2022-02-24T14:02:04.973Z</time>
      </trkpt>
      <trkpt lat="36.37212" lon="33.93873">
        <ele>25.501762</ele>
        <time>2022-02-24T14:02:25.853Z</time>
      </trkpt>
      <trkpt lat="36.37209" lon="33.93866">
        <ele>25.821971</ele>
        <time>2022-02-24T14:02:30.319Z</time>
      </trkpt>
      <trkpt lat="36.372" lon="33.93849">
        <ele>26.600497</ele>
        <time>2022-02-24T14:02:38.442Z</time>
      </trkpt>
      <trkpt lat="36.37179" lon="33.93815">
        <ele>28.29264</ele>
        <time>2022-02-24T14:02:57.372Z</time>
      </trkpt>
      <trkpt lat="36.37143" lon="33.93747">
        <ele>31.511917</ele>
        <time>2022-02-24T14:03:32.675Z</time>
      </trkpt>
      <trkpt lat="36.37127" lon="33.93722">
        <ele>32.773316</ele>
        <time>2022-02-24T14:03:44.686Z</time>
      </trkpt>
      <trkpt lat="36.37106" lon="33.93739">
        <ele>33.746681</ele>
        <time>2022-02-24T14:03:54.083Z</time>
      </trkpt>
      <trkpt lat="36.37072" lon="33.93689">
        <ele>35.441614</ele>
        <time>2022-02-24T14:04:12.918Z</time>
      </trkpt>
      <trkpt lat="36.37054" lon="33.93711">
        <ele>36.252055</ele>
        <time>2022-02-24T14:04:24.571Z</time>
      </trkpt>
      <trkpt lat="36.37046" lon="33.93721">
        <ele>36.634009</ele>
        <time>2022-02-24T14:04:29.255Z</time>
      </trkpt>
      <trkpt lat="36.3699" lon="33.93655">
        <ele>39.096641</ele>
        <time>2022-02-24T14:05:04.863Z</time>
      </trkpt>
      <trkpt lat="36.36968" lon="33.93682">
        <ele>39.729501</ele>
        <time>2022-02-24T14:05:18.383Z</time>
      </trkpt>
      <trkpt lat="36.36956" lon="33.93693">
        <ele>40.037057</ele>
        <time>2022-02-24T14:05:25.837Z</time>
      </trkpt>
      <trkpt lat="36.36948" lon="33.93701">
        <ele>40.23757</ele>
        <time>2022-02-24T14:05:29.886Z</time>
      </trkpt>
      <trkpt lat="36.3694" lon="33.93709">
        <ele>40.436976</ele>
        <time>2022-02-24T14:05:33.113Z</time>
      </trkpt>
      <trkpt lat="36.36934" lon="33.93729">
        <ele>40.790553</ele>
        <time>2022-02-24T14:05:39.716Z</time>
      </trkpt>
      <trkpt lat="36.36928" lon="33.93758">
        <ele>41.283991</ele>
        <time>2022-02-24T14:05:47.259Z</time>
      </trkpt>
      <trkpt lat="36.36925" lon="33.93771">
        <ele>41.497406</ele>
        <time>2022-02-24T14:05:51.556Z</time>
      </trkpt>
      <trkpt lat="36.3692" lon="33.93796">
        <ele>41.91954</ele>
        <time>2022-02-24T14:05:58.021Z</time>
      </trkpt>
      <trkpt lat="36.36916" lon="33.93819">
        <ele>42.2945</ele>
        <time>2022-02-24T14:06:05.210Z</time>
      </trkpt>
      <trkpt lat="36.36914" lon="33.93833">
        <ele>42.530869</ele>
        <time>2022-02-24T14:06:08.673Z</time>
      </trkpt>
      <trkpt lat="36.36918" lon="33.93862">
        <ele>42.448313</ele>
        <time>2022-02-24T14:06:17.004Z</time>
      </trkpt>
      <trkpt lat="36.36906" lon="33.93871">
        <ele>42.122834</ele>
        <time>2022-02-24T14:06:20.643Z</time>
      </trkpt>
      <trkpt lat="36.36869" lon="33.93892">
        <ele>41.201878</ele>
        <time>2022-02-24T14:06:29.214Z</time>
      </trkpt>
      <trkpt lat="36.3677" lon="33.93945">
        <ele>38.727045</ele>
        <time>2022-02-24T14:06:49.702Z</time>
      </trkpt>
      <trkpt lat="36.36736" lon="33.93967">
        <ele>37.323673</ele>
        <time>2022-02-24T14:06:57.270Z</time>
      </trkpt>
      <trkpt lat="36.36721" lon="33.93974">
        <ele>36.700756</ele>
        <time>2022-02-24T14:07:00.451Z</time>
      </trkpt>
      <trkpt lat="36.36703" lon="33.93985">
        <ele>35.941484</ele>
        <time>2022-02-24T14:07:04.343Z</time>
      </trkpt>
      <trkpt lat="36.36669" lon="33.94003">
        <ele>34.530194</ele>
        <time>2022-02-24T14:07:11.460Z</time>
      </trkpt>
      <trkpt lat="36.36624" lon="33.9403">
        <ele>32.640305</ele>
        <time>2022-02-24T14:07:20.687Z</time>
      </trkpt>
      <trkpt lat="36.3653" lon="33.94082">
        <ele>27.817079</ele>
        <time>2022-02-24T14:07:39.751Z</time>
      </trkpt>
      <trkpt lat="36.36437" lon="33.94123">
        <ele>22.927687</ele>
        <time>2022-02-24T14:07:57.464Z</time>
      </trkpt>
      <trkpt lat="36.36393" lon="33.94145">
        <ele>20.415144</ele>
        <time>2022-02-24T14:08:05.944Z</time>
      </trkpt>
      <trkpt lat="36.36345" lon="33.94168">
        <ele>17.763209</ele>
        <time>2022-02-24T14:08:14.922Z</time>
      </trkpt>
      <trkpt lat="36.36298" lon="33.94192">
        <ele>15.105202</ele>
        <time>2022-02-24T14:08:24.075Z</time>
      </trkpt>
      <trkpt lat="36.36251" lon="33.94216">
        <ele>13.036478</ele>
        <time>2022-02-24T14:08:33.616Z</time>
      </trkpt>
      <trkpt lat="36.36224" lon="33.94237">
        <ele>12.355589</ele>
        <time>2022-02-24T14:08:39.710Z</time>
      </trkpt>
      <trkpt lat="36.36196" lon="33.94231">
        <ele>11.727897</ele>
        <time>2022-02-24T14:08:45.502Z</time>
      </trkpt>
      <trkpt lat="36.36182" lon="33.94232">
        <ele>11.430383</ele>
        <time>2022-02-24T14:08:48.338Z</time>
      </trkpt>
      <trkpt lat="36.36172" lon="33.94226">
        <ele>11.175987</ele>
        <time>2022-02-24T14:08:50.825Z</time>
      </trkpt>
      <trkpt lat="36.36155" lon="33.94192">
        <ele>10.462418</ele>
        <time>2022-02-24T14:08:58.130Z</time>
      </trkpt>
      <trkpt lat="36.36141" lon="33.94147">
        <ele>9.616276</ele>
        <time>2022-02-24T14:09:07.349Z</time>
      </trkpt>
      <trkpt lat="36.3612" lon="33.94115">
        <ele>9.561911</ele>
        <time>2022-02-24T14:09:15.707Z</time>
      </trkpt>
      <trkpt lat="36.36103" lon="33.94096">
        <ele>9.581516</ele>
        <time>2022-02-24T14:09:21.887Z</time>
      </trkpt>
      <trkpt lat="36.36083" lon="33.94086">
        <ele>9.600501</ele>
        <time>2022-02-24T14:09:27.762Z</time>
      </trkpt>
      <trkpt lat="36.3608" lon="33.94083">
        <ele>9.604531</ele>
        <time>2022-02-24T14:09:29.035Z</time>
      </trkpt>
      <trkpt lat="36.36066" lon="33.94085">
        <ele>9.616323</ele>
        <time>2022-02-24T14:09:33.098Z</time>
      </trkpt>
      <trkpt lat="36.36042" lon="33.94081">
        <ele>9.637281</ele>
        <time>2022-02-24T14:09:39.679Z</time>
      </trkpt>
      <trkpt lat="36.36035" lon="33.94072">
        <ele>9.646224</ele>
        <time>2022-02-24T14:09:42.749Z</time>
      </trkpt>
      <trkpt lat="36.36031" lon="33.94049">
        <ele>9.662488</ele>
        <time>2022-02-24T14:09:47.822Z</time>
      </trkpt>
      <trkpt lat="36.36032" lon="33.94001">
        <ele>9.701063</ele>
        <time>2022-02-24T14:09:58.691Z</time>
      </trkpt>
      <trkpt lat="36.36029" lon="33.9399">
        <ele>9.722771</ele>
        <time>2022-02-24T14:10:01.481Z</time>
      </trkpt>
      <trkpt lat="36.36012" lon="33.93981">
        <ele>9.76656</ele>
        <time>2022-02-24T14:10:06.527Z</time>
      </trkpt>
      <trkpt lat="36.35944" lon="33.93974">
        <ele>9.930204</ele>
        <time>2022-02-24T14:10:25.606Z</time>
      </trkpt>
      <trkpt lat="36.35856" lon="33.93964">
        <ele>10.158528</ele>
        <time>2022-02-24T14:10:50.099Z</time>
      </trkpt>
      <trkpt lat="36.35816" lon="33.9396">
        <ele>10.344874</ele>
        <time>2022-02-24T14:11:01.105Z</time>
      </trkpt>
      <trkpt lat="36.3577" lon="33.93941">
        <ele>10.571508</ele>
        <time>2022-02-24T14:11:14.910Z</time>
      </trkpt>
      <trkpt lat="36.35745" lon="33.93931">
        <ele>10.693188</ele>
        <time>2022-02-24T14:11:22.642Z</time>
      </trkpt>
      <trkpt lat="36.35721" lon="33.9392">
        <ele>10.812598</ele>
        <time>2022-02-24T14:11:30.306Z</time>
      </trkpt>
      <trkpt lat="36.35702" lon="33.93912">
        <ele>10.903982</ele>
        <time>2022-02-24T14:11:36.275Z</time>
      </trkpt>
      <trkpt lat="36.35678" lon="33.93908">
        <ele>11.046392</ele>
        <time>2022-02-24T14:11:43.514Z</time>
      </trkpt>
      <trkpt lat="36.35655" lon="33.93911">
        <ele>11.219023</ele>
        <time>2022-02-24T14:11:50.792Z</time>
      </trkpt>
      <trkpt lat="36.35617" lon="33.93856">
        <ele>11.64682</ele>
        <time>2022-02-24T14:12:09.070Z</time>
      </trkpt>
      <trkpt lat="36.35588" lon="33.93814">
        <ele>11.972545</ele>
        <time>2022-02-24T14:12:22.549Z</time>
      </trkpt>
      <trkpt lat="36.35543" lon="33.9375">
        <ele>12.210045</ele>
        <time>2022-02-24T14:12:42.994Z</time>
      </trkpt>
      <trkpt lat="36.3542" lon="33.93577">
        <ele>11.319746</ele>
        <time>2022-02-24T14:13:29.131Z</time>
      </trkpt>
      <trkpt lat="36.35403" lon="33.93551">
        <ele>10.897155</ele>
        <time>2022-02-24T14:13:35.189Z</time>
      </trkpt>
      <trkpt lat="36.35327" lon="33.93446">
        <ele>9.168679</ele>
        <time>2022-02-24T14:13:59.379Z</time>
      </trkpt>
      <trkpt lat="36.35284" lon="33.93396">
        <ele>8.396158</ele>
        <time>2022-02-24T14:14:11.836Z</time>
      </trkpt>
      <trkpt lat="36.35173" lon="33.93284">
        <ele>6.792528</ele>
        <time>2022-02-24T14:14:44.455Z</time>
      </trkpt>
      <trkpt lat="36.34666" lon="33.92813">
        <ele>7.791186</ele>
        <time>2022-02-24T14:17:38.983Z</time>
      </trkpt>
      <trkpt lat="36.34515" lon="33.92667">
        <ele>9.540952</ele>
        <time>2022-02-24T14:18:35.754Z</time>
      </trkpt>
      <trkpt lat="36.34516" lon="33.9266">
        <ele>9.618106</ele>
        <time>2022-02-24T14:18:37.798Z</time>
      </trkpt>
      <trkpt lat="36.34514" lon="33.9265">
        <ele>9.714717</ele>
        <time>2022-02-24T14:18:40.762Z</time>
      </trkpt>
      <trkpt lat="36.34515" lon="33.9263">
        <ele>9.919665</ele>
        <time>2022-02-24T14:18:46.255Z</time>
      </trkpt>
      <trkpt lat="36.34534" lon="33.92588">
        <ele>10.591304</ele>
        <time>2022-02-24T14:19:01.950Z</time>
      </trkpt>
      <trkpt lat="36.34546" lon="33.92513">
        <ele>12.565435</ele>
        <time>2022-02-24T14:19:29.396Z</time>
      </trkpt>
      <trkpt lat="36.34559" lon="33.92485">
        <ele>13.391504</ele>
        <time>2022-02-24T14:19:41.236Z</time>
      </trkpt>
      <trkpt lat="36.34576" lon="33.92462">
        <ele>14.189288</ele>
        <time>2022-02-24T14:19:51.475Z</time>
      </trkpt>
      <trkpt lat="36.34582" lon="33.92458">
        <ele>14.409895</ele>
        <time>2022-02-24T14:19:55.350Z</time>
      </trkpt>
      <trkpt lat="36.34589" lon="33.92452">
        <ele>14.693169</ele>
        <time>2022-02-24T14:19:59.282Z</time>
      </trkpt>
      <trkpt lat="36.34606" lon="33.92439">
        <ele>15.333136</ele>
        <time>2022-02-24T14:20:07.181Z</time>
      </trkpt>
      <trkpt lat="36.34594" lon="33.92377">
        <ele>16.77149</ele>
        <time>2022-02-24T14:20:30.506Z</time>
      </trkpt>
      <trkpt lat="36.34563" lon="33.9228">
        <ele>18.861924</ele>
        <time>2022-02-24T14:21:05.705Z</time>
      </trkpt>
      <trkpt lat="36.34535" lon="33.92221">
        <ele>20.235582</ele>
        <time>2022-02-24T14:21:24.903Z</time>
      </trkpt>
      <trkpt lat="36.34533" lon="33.92214">
        <ele>20.378374</ele>
        <time>2022-02-24T14:21:27.057Z</time>
      </trkpt>
      <trkpt lat="36.34532" lon="33.92204">
        <ele>20.553631</ele>
        <time>2022-02-24T14:21:29.750Z</time>
      </trkpt>
      <trkpt lat="36.34469" lon="33.92084">
        <ele>22.375901</ele>
        <time>2022-02-24T14:22:09.043Z</time>
      </trkpt>
      <trkpt lat="36.34385" lon="33.91923">
        <ele>26.820422</ele>
        <time>2022-02-24T14:23:07.152Z</time>
      </trkpt>
      <trkpt lat="36.3433" lon="33.91816">
        <ele>30.846808</ele>
        <time>2022-02-24T14:24:01.824Z</time>
      </trkpt>
      <trkpt lat="36.3434" lon="33.91806">
        <ele>31.50035</ele>
        <time>2022-02-24T14:24:10.295Z</time>
      </trkpt>
      <trkpt lat="36.3438" lon="33.91771">
        <ele>34.03994</ele>
        <time>2022-02-24T14:24:36.927Z</time>
      </trkpt>
      <trkpt lat="36.34372" lon="33.91754">
        <ele>34.861966</ele>
        <time>2022-02-24T14:24:46.449Z</time>
      </trkpt>
      <trkpt lat="36.34394" lon="33.91736">
        <ele>36.255813</ele>
        <time>2022-02-24T14:25:00.360Z</time>
      </trkpt>
      <trkpt lat="36.34421" lon="33.91709">
        <ele>38.044725</ele>
        <time>2022-02-24T14:25:19.332Z</time>
      </trkpt>
      <trkpt lat="36.3443" lon="33.917">
        <ele>38.668982</ele>
        <time>2022-02-24T14:25:26.849Z</time>
      </trkpt>
      <trkpt lat="36.34432" lon="33.91678">
        <ele>39.463749</ele>
        <time>2022-02-24T14:25:35.704Z</time>
      </trkpt>
      <trkpt lat="36.34238" lon="33.9138">
        <ele>44.08632</ele>
        <time>2022-02-24T14:27:18.953Z</time>
      </trkpt>
      <trkpt lat="36.34239" lon="33.91363">
        <ele>44.245236</ele>
        <time>2022-02-24T14:27:23.567Z</time>
      </trkpt>
      <trkpt lat="36.34247" lon="33.9135">
        <ele>44.400655</ele>
        <time>2022-02-24T14:27:27.888Z</time>
      </trkpt>
      <trkpt lat="36.34368" lon="33.91284">
        <ele>45.751291</ele>
        <time>2022-02-24T14:28:11.603Z</time>
      </trkpt>
      <trkpt lat="36.3433" lon="33.91084">
        <ele>47.58902</ele>
        <time>2022-02-24T14:29:03.994Z</time>
      </trkpt>
      <trkpt lat="36.34319" lon="33.9104">
        <ele>48.039943</ele>
        <time>2022-02-24T14:29:16.797Z</time>
      </trkpt>
      <trkpt lat="36.3428" lon="33.90945">
        <ele>49.046503</ele>
        <time>2022-02-24T14:29:48.046Z</time>
      </trkpt>
      <trkpt lat="36.34227" lon="33.9084">
        <ele>50.207489</ele>
        <time>2022-02-24T14:30:24.883Z</time>
      </trkpt>
      <trkpt lat="36.34174" lon="33.90707">
        <ele>48.235161</ele>
        <time>2022-02-24T14:30:54.436Z</time>
      </trkpt>
      <trkpt lat="36.34118" lon="33.90567">
        <ele>43.591903</ele>
        <time>2022-02-24T14:31:18.570Z</time>
      </trkpt>
      <trkpt lat="36.34109" lon="33.90573">
        <ele>42.982114</ele>
        <time>2022-02-24T14:31:20.360Z</time>
      </trkpt>
      <trkpt lat="36.34059" lon="33.90445">
        <ele>35.822534</ele>
        <time>2022-02-24T14:31:40.981Z</time>
      </trkpt>
      <trkpt lat="36.3405" lon="33.90408">
        <ele>33.885756</ele>
        <time>2022-02-24T14:31:46.729Z</time>
      </trkpt>
      <trkpt lat="36.34048" lon="33.90371">
        <ele>32.590595</ele>
        <time>2022-02-24T14:31:52.151Z</time>
      </trkpt>
      <trkpt lat="36.34041" lon="33.90346">
        <ele>31.656364</ele>
        <time>2022-02-24T14:31:56.255Z</time>
      </trkpt>
      <trkpt lat="36.34038" lon="33.90337">
        <ele>31.302608</ele>
        <time>2022-02-24T14:31:57.773Z</time>
      </trkpt>
      <trkpt lat="36.34031" lon="33.90336">
        <ele>30.990985</ele>
        <time>2022-02-24T14:31:59.037Z</time>
      </trkpt>
      <trkpt lat="36.34016" lon="33.90347">
        <ele>30.246353</ele>
        <time>2022-02-24T14:32:02.416Z</time>
      </trkpt>
      <trkpt lat="36.33997" lon="33.90383">
        <ele>28.719319</ele>
        <time>2022-02-24T14:32:09.233Z</time>
      </trkpt>
      <trkpt lat="36.33978" lon="33.90396">
        <ele>27.769375</ele>
        <time>2022-02-24T14:32:13.508Z</time>
      </trkpt>
      <trkpt lat="36.33934" lon="33.90391">
        <ele>26.004795</ele>
        <time>2022-02-24T14:32:22.592Z</time>
      </trkpt>
      <trkpt lat="36.33915" lon="33.90386">
        <ele>25.728913</ele>
        <time>2022-02-24T14:32:27.056Z</time>
      </trkpt>
      <trkpt lat="36.33813" lon="33.90339">
        <ele>24.200931</ele>
        <time>2022-02-24T14:32:52.589Z</time>
      </trkpt>
      <trkpt lat="36.33802" lon="33.9033">
        <ele>24.002042</ele>
        <time>2022-02-24T14:32:55.947Z</time>
      </trkpt>
      <trkpt lat="36.33773" lon="33.90306">
        <ele>23.532841</ele>
        <time>2022-02-24T14:33:04.913Z</time>
      </trkpt>
      <trkpt lat="36.33766" lon="33.90295">
        <ele>23.451922</ele>
        <time>2022-02-24T14:33:07.932Z</time>
      </trkpt>
      <trkpt lat="36.33744" lon="33.90324">
        <ele>23.229322</ele>
        <time>2022-02-24T14:33:15.399Z</time>
      </trkpt>
      <trkpt lat="36.33716" lon="33.90351">
        <ele>22.976183</ele>
        <time>2022-02-24T14:33:23.980Z</time>
      </trkpt>
      <trkpt lat="36.33646" lon="33.90396">
        <ele>22.424844</ele>
        <time>2022-02-24T14:33:42.660Z</time>
      </trkpt>
      <trkpt lat="36.33626" lon="33.90414">
        <ele>22.260261</ele>
        <time>2022-02-24T14:33:48.369Z</time>
      </trkpt>
      <trkpt lat="36.33636" lon="33.90372">
        <ele>22.102197</ele>
        <time>2022-02-24T14:33:57.334Z</time>
      </trkpt>
      <trkpt lat="36.33636" lon="33.90328">
        <ele>21.939389</ele>
        <time>2022-02-24T14:34:06.767Z</time>
      </trkpt>
      <trkpt lat="36.33615" lon="33.90208">
        <ele>21.488976</ele>
        <time>2022-02-24T14:34:32.572Z</time>
      </trkpt>
      <trkpt lat="36.33615" lon="33.90199">
        <ele>21.449717</ele>
        <time>2022-02-24T14:34:34.762Z</time>
      </trkpt>
      <trkpt lat="36.33612" lon="33.90168">
        <ele>21.248068</ele>
        <time>2022-02-24T14:34:41.246Z</time>
      </trkpt>
      <trkpt lat="36.33611" lon="33.90152">
        <ele>21.148288</ele>
        <time>2022-02-24T14:34:44.549Z</time>
      </trkpt>
      <trkpt lat="36.33605" lon="33.90149">
        <ele>21.097731</ele>
        <time>2022-02-24T14:34:45.980Z</time>
      </trkpt>
      <trkpt lat="36.33513" lon="33.90044">
        <ele>20.091426</ele>
        <time>2022-02-24T14:35:15.575Z</time>
      </trkpt>
      <trkpt lat="36.33441" lon="33.89953">
        <ele>18.618764</ele>
        <time>2022-02-24T14:35:38.364Z</time>
      </trkpt>
      <trkpt lat="36.33431" lon="33.8995">
        <ele>18.465175</ele>
        <time>2022-02-24T14:35:40.560Z</time>
      </trkpt>
      <trkpt lat="36.33418" lon="33.89946">
        <ele>18.277683</ele>
        <time>2022-02-24T14:35:43.293Z</time>
      </trkpt>
      <trkpt lat="36.33394" lon="33.89951">
        <ele>17.908083</ele>
        <time>2022-02-24T14:35:48.695Z</time>
      </trkpt>
      <trkpt lat="36.33354" lon="33.89861">
        <ele>16.85445</ele>
        <time>2022-02-24T14:36:06.824Z</time>
      </trkpt>
      <trkpt lat="36.33299" lon="33.89762">
        <ele>15.823943</ele>
        <time>2022-02-24T14:36:29.025Z</time>
      </trkpt>
      <trkpt lat="36.3328" lon="33.89732">
        <ele>15.496295</ele>
        <time>2022-02-24T14:36:36.518Z</time>
      </trkpt>
      <trkpt lat="36.33233" lon="33.8966">
        <ele>15.057876</ele>
        <time>2022-02-24T14:36:55.024Z</time>
      </trkpt>
      <trkpt lat="36.33187" lon="33.89601">
        <ele>14.712984</ele>
        <time>2022-02-24T14:37:11.545Z</time>
      </trkpt>
      <trkpt lat="36.33175" lon="33.89585">
        <ele>14.621749</ele>
        <time>2022-02-24T14:37:15.894Z</time>
      </trkpt>
      <trkpt lat="36.32956" lon="33.89312">
        <ele>12.476739</ele>
        <time>2022-02-24T14:38:31.024Z</time>
      </trkpt>
      <trkpt lat="36.32801" lon="33.8912">
        <ele>10.271316</ele>
        <time>2022-02-24T14:39:20.870Z</time>
      </trkpt>
      <trkpt lat="36.32693" lon="33.88977">
        <ele>8.815244</ele>
        <time>2022-02-24T14:39:57.531Z</time>
      </trkpt>
      <trkpt lat="36.32685" lon="33.88965">
        <ele>8.703569</ele>
        <time>2022-02-24T14:40:00.535Z</time>
      </trkpt>
      <trkpt lat="36.32704" lon="33.88943">
        <ele>8.477814</ele>
        <time>2022-02-24T14:40:07.205Z</time>
      </trkpt>
      <trkpt lat="36.32728" lon="33.88874">
        <ele>8.156348</ele>
        <time>2022-02-24T14:40:22.683Z</time>
      </trkpt>
      <trkpt lat="36.3273" lon="33.8887">
        <ele>8.144131</ele>
        <time>2022-02-24T14:40:23.661Z</time>
      </trkpt>
      <trkpt lat="36.32729" lon="33.88854">
        <ele>8.102872</ele>
        <time>2022-02-24T14:40:26.899Z</time>
      </trkpt>
      <trkpt lat="36.32728" lon="33.88832">
        <ele>8.045378</ele>
        <time>2022-02-24T14:40:31.645Z</time>
      </trkpt>
      <trkpt lat="36.32717" lon="33.8879">
        <ele>7.930326</ele>
        <time>2022-02-24T14:40:41.145Z</time>
      </trkpt>
      <trkpt lat="36.32694" lon="33.88744">
        <ele>7.788448</ele>
        <time>2022-02-24T14:40:53.227Z</time>
      </trkpt>
      <trkpt lat="36.32687" lon="33.88711">
        <ele>7.701316</ele>
        <time>2022-02-24T14:41:00.538Z</time>
      </trkpt>
      <trkpt lat="36.32684" lon="33.88692">
        <ele>7.627927</ele>
        <time>2022-02-24T14:41:04.816Z</time>
      </trkpt>
      <trkpt lat="36.32677" lon="33.88645">
        <ele>7.443767</ele>
        <time>2022-02-24T14:41:15.046Z</time>
      </trkpt>
      <trkpt lat="36.32669" lon="33.88591">
        <ele>7.234651</ele>
        <time>2022-02-24T14:41:26.382Z</time>
      </trkpt>
      <trkpt lat="36.3266" lon="33.88545">
        <ele>7.053838</ele>
        <time>2022-02-24T14:41:36.026Z</time>
      </trkpt>
      <trkpt lat="36.32652" lon="33.88506">
        <ele>6.899367</ele>
        <time>2022-02-24T14:41:44.298Z</time>
      </trkpt>
      <trkpt lat="36.32651" lon="33.88487">
        <ele>6.82099</ele>
        <time>2022-02-24T14:41:48.080Z</time>
      </trkpt>
      <trkpt lat="36.32636" lon="33.88465">
        <ele>6.662473</ele>
        <time>2022-02-24T14:41:54.133Z</time>
      </trkpt>
      <trkpt lat="36.32614" lon="33.8844">
        <ele>6.457815</ele>
        <time>2022-02-24T14:42:01.711Z</time>
      </trkpt>
      <trkpt lat="36.32604" lon="33.88426">
        <ele>6.362605</ele>
        <time>2022-02-24T14:42:05.140Z</time>
      </trkpt>
      <trkpt lat="36.32555" lon="33.88348">
        <ele>5.824055</ele>
        <time>2022-02-24T14:42:25.046Z</time>
      </trkpt>
      <trkpt lat="36.32471" lon="33.8827">
        <ele>5.313071</ele>
        <time>2022-02-24T14:42:52.489Z</time>
      </trkpt>
      <trkpt lat="36.32319" lon="33.882">
        <ele>5.282403</ele>
        <time>2022-02-24T14:43:34.481Z</time>
      </trkpt>
      <trkpt lat="36.32255" lon="33.88162">
        <ele>5.772112</ele>
        <time>2022-02-24T14:43:57.284Z</time>
      </trkpt>
      <trkpt lat="36.32228" lon="33.88129">
        <ele>6.031143</ele>
        <time>2022-02-24T14:44:09.715Z</time>
      </trkpt>
      <trkpt lat="36.32221" lon="33.8812">
        <ele>6.100038</ele>
        <time>2022-02-24T14:44:13.188Z</time>
      </trkpt>
      <trkpt lat="36.32229" lon="33.88046">
        <ele>8.031287</ele>
        <time>2022-02-24T14:44:36.795Z</time>
      </trkpt>
      <trkpt lat="36.32225" lon="33.88038">
        <ele>8.280899</ele>
        <time>2022-02-24T14:44:39.797Z</time>
      </trkpt>
      <trkpt lat="36.32207" lon="33.88002">
        <ele>9.444487</ele>
        <time>2022-02-24T14:44:54.994Z</time>
      </trkpt>
      <trkpt lat="36.32201" lon="33.88002">
        <ele>9.649116</ele>
        <time>2022-02-24T14:44:57.560Z</time>
      </trkpt>
      <trkpt lat="36.32168" lon="33.87999">
        <ele>10.736315</ele>
        <time>2022-02-24T14:45:12.741Z</time>
      </trkpt>
      <trkpt lat="36.32166" lon="33.87978">
        <ele>11.309548</ele>
        <time>2022-02-24T14:45:21.283Z</time>
      </trkpt>
      <trkpt lat="36.32156" lon="33.8793">
        <ele>13.165144</ele>
        <time>2022-02-24T14:45:40.997Z</time>
      </trkpt>
      <trkpt lat="36.32133" lon="33.87898">
        <ele>15.478248</ele>
        <time>2022-02-24T14:46:00.101Z</time>
      </trkpt>
      <trkpt lat="36.32121" lon="33.87873">
        <ele>17.101395</ele>
        <time>2022-02-24T14:46:13.221Z</time>
      </trkpt>
      <trkpt lat="36.32112" lon="33.87856">
        <ele>18.204501</ele>
        <time>2022-02-24T14:46:22.822Z</time>
      </trkpt>
      <trkpt lat="36.32099" lon="33.87821">
        <ele>20.258286</ele>
        <time>2022-02-24T14:46:42.168Z</time>
      </trkpt>
      <trkpt lat="36.32089" lon="33.87806">
        <ele>21.350588</ele>
        <time>2022-02-24T14:46:52.529Z</time>
      </trkpt>
      <trkpt lat="36.32098" lon="33.87756">
        <ele>24.135897</ele>
        <time>2022-02-24T14:47:20.566Z</time>
      </trkpt>
      <trkpt lat="36.321" lon="33.87745">
        <ele>24.936881</ele>
        <time>2022-02-24T14:47:27.305Z</time>
      </trkpt>
      <trkpt lat="36.32111" lon="33.87689">
        <ele>29.412182</ele>
        <time>2022-02-24T14:48:00.084Z</time>
      </trkpt>
      <trkpt lat="36.3212" lon="33.87643">
        <ele>33.00696</ele>
        <time>2022-02-24T14:48:27.320Z</time>
      </trkpt>
      <trkpt lat="36.32123" lon="33.87626">
        <ele>34.366034</ele>
        <time>2022-02-24T14:48:38.400Z</time>
      </trkpt>
      <trkpt lat="36.32139" lon="33.87546">
        <ele>40.702915</ele>
        <time>2022-02-24T14:49:30.395Z</time>
      </trkpt>
      <trkpt lat="36.32157" lon="33.87461">
        <ele>47.942825</ele>
        <time>2022-02-24T14:50:23.846Z</time>
      </trkpt>
      <trkpt lat="36.32184" lon="33.8734">
        <ele>58.362264</ele>
        <time>2022-02-24T14:51:42.206Z</time>
      </trkpt>
      <trkpt lat="36.32191" lon="33.87293">
        <ele>62.354752</ele>
        <time>2022-02-24T14:52:12.851Z</time>
      </trkpt>
      <trkpt lat="36.32197" lon="33.8727">
        <ele>64.355108</ele>
        <time>2022-02-24T14:52:27.916Z</time>
      </trkpt>
      <trkpt lat="36.32203" lon="33.87242">
        <ele>66.790083</ele>
        <time>2022-02-24T14:52:46.724Z</time>
      </trkpt>
      <trkpt lat="36.32216" lon="33.87184">
        <ele>71.84677</ele>
        <time>2022-02-24T14:53:24.151Z</time>
      </trkpt>
      <trkpt lat="36.32221" lon="33.87163">
        <ele>73.61505</ele>
        <time>2022-02-24T14:53:37.360Z</time>
      </trkpt>
      <trkpt lat="36.32228" lon="33.87137">
        <ele>75.957209</ele>
        <time>2022-02-24T14:53:54.423Z</time>
      </trkpt>
      <trkpt lat="36.32239" lon="33.87103">
        <ele>79.003848</ele>
        <time>2022-02-24T14:54:17.116Z</time>
      </trkpt>
      <trkpt lat="36.32241" lon="33.87094">
        <ele>79.855126</ele>
        <time>2022-02-24T14:54:23.377Z</time>
      </trkpt>
      <trkpt lat="36.32279" lon="33.86992">
        <ele>89.487427</ele>
        <time>2022-02-24T14:55:33.788Z</time>
      </trkpt>
      <trkpt lat="36.32297" lon="33.86926">
        <ele>95.417918</ele>
        <time>2022-02-24T14:56:17.096Z</time>
      </trkpt>
      <trkpt lat="36.32306" lon="33.86858">
        <ele>102.143098</ele>
        <time>2022-02-24T14:57:03.154Z</time>
      </trkpt>
      <trkpt lat="36.32324" lon="33.86798">
        <ele>108.944046</ele>
        <time>2022-02-24T14:57:49.340Z</time>
      </trkpt>
      <trkpt lat="36.3232" lon="33.86737">
        <ele>115.382461</ele>
        <time>2022-02-24T14:58:35.367Z</time>
      </trkpt>
      <trkpt lat="36.32325" lon="33.86645">
        <ele>125.463245</ele>
        <time>2022-02-24T14:59:46.803Z</time>
      </trkpt>
      <trkpt lat="36.32314" lon="33.86566">
        <ele>134.843264</ele>
        <time>2022-02-24T15:00:53.830Z</time>
      </trkpt>
      <trkpt lat="36.32332" lon="33.86503">
        <ele>142.708997</ele>
        <time>2022-02-24T15:01:45.596Z</time>
      </trkpt>
      <trkpt lat="36.32339" lon="33.86465">
        <ele>147.295725</ele>
        <time>2022-02-24T15:02:15.883Z</time>
      </trkpt>
      <trkpt lat="36.3234" lon="33.86458">
        <ele>147.99345</ele>
        <time>2022-02-24T15:02:20.411Z</time>
      </trkpt>
      <trkpt lat="36.32342" lon="33.86447">
        <ele>149.129418</ele>
        <time>2022-02-24T15:02:30.421Z</time>
      </trkpt>
      <trkpt lat="36.32338" lon="33.86329">
        <ele>160.970089</ele>
        <time>2022-02-24T15:03:54.731Z</time>
      </trkpt>
      <trkpt lat="36.32284" lon="33.85947">
        <ele>198.154636</ele>
        <time>2022-02-24T15:08:14.326Z</time>
      </trkpt>
      <trkpt lat="36.32266" lon="33.85862">
        <ele>206.821731</ele>
        <time>2022-02-24T15:09:16.727Z</time>
      </trkpt>
      <trkpt lat="36.32265" lon="33.85797">
        <ele>213.285625</ele>
        <time>2022-02-24T15:10:04.500Z</time>
      </trkpt>
      <trkpt lat="36.3228" lon="33.857">
        <ele>222.507272</ele>
        <time>2022-02-24T15:11:15.177Z</time>
      </trkpt>
      <trkpt lat="36.32285" lon="33.85627">
        <ele>229.408801</ele>
        <time>2022-02-24T15:12:05.041Z</time>
      </trkpt>
      <trkpt lat="36.32269" lon="33.85552">
        <ele>235.488319</ele>
        <time>2022-02-24T15:12:52.411Z</time>
      </trkpt>
      <trkpt lat="36.32249" lon="33.85504">
        <ele>238.450686</ele>
        <time>2022-02-24T15:13:21.580Z</time>
      </trkpt>
      <trkpt lat="36.32238" lon="33.85462">
        <ele>240.91493</ele>
        <time>2022-02-24T15:13:43.360Z</time>
      </trkpt>
      <trkpt lat="36.3223" lon="33.85392">
        <ele>244.81781</ele>
        <time>2022-02-24T15:14:13.352Z</time>
      </trkpt>
      <trkpt lat="36.32214" lon="33.85325">
        <ele>247.282323</ele>
        <time>2022-02-24T15:14:39.213Z</time>
      </trkpt>
      <trkpt lat="36.32203" lon="33.85279">
        <ele>248.568268</ele>
        <time>2022-02-24T15:14:55.726Z</time>
      </trkpt>
      <trkpt lat="36.32187" lon="33.85212">
        <ele>250.402183</ele>
        <time>2022-02-24T15:15:18.187Z</time>
      </trkpt>
      <trkpt lat="36.32167" lon="33.84951">
        <ele>258.069878</ele>
        <time>2022-02-24T15:16:49.800Z</time>
      </trkpt>
      <trkpt lat="36.32212" lon="33.84744">
        <ele>268.396169</ele>
        <time>2022-02-24T15:18:30.005Z</time>
      </trkpt>
      <trkpt lat="36.322" lon="33.84579">
        <ele>276.870671</ele>
        <time>2022-02-24T15:19:52.427Z</time>
      </trkpt>
      <trkpt lat="36.32181" lon="33.84502">
        <ele>281.064461</ele>
        <time>2022-02-24T15:20:29.173Z</time>
      </trkpt>
      <trkpt lat="36.32172" lon="33.84436">
        <ele>283.29167</ele>
        <time>2022-02-24T15:20:56.545Z</time>
      </trkpt>
      <trkpt lat="36.32171" lon="33.84401">
        <ele>284.431355</ele>
        <time>2022-02-24T15:21:10.247Z</time>
      </trkpt>
      <trkpt lat="36.32223" lon="33.84296">
        <ele>288.386616</ele>
        <time>2022-02-24T15:21:53.949Z</time>
      </trkpt>
      <trkpt lat="36.32229" lon="33.84261">
        <ele>289.159773</ele>
        <time>2022-02-24T15:22:06.239Z</time>
      </trkpt>
      <trkpt lat="36.32215" lon="33.8417">
        <ele>291.062135</ele>
        <time>2022-02-24T15:22:36.506Z</time>
      </trkpt>
      <trkpt lat="36.32196" lon="33.84097">
        <ele>292.648406</ele>
        <time>2022-02-24T15:23:00.521Z</time>
      </trkpt>
      <trkpt lat="36.3217" lon="33.84042">
        <ele>293.763041</ele>
        <time>2022-02-24T15:23:19.554Z</time>
      </trkpt>
      <trkpt lat="36.32155" lon="33.83999">
        <ele>294.523311</ele>
        <time>2022-02-24T15:23:33.265Z</time>
      </trkpt>
      <trkpt lat="36.32155" lon="33.83962">
        <ele>295.117929</ele>
        <time>2022-02-24T15:23:43.890Z</time>
      </trkpt>
      <trkpt lat="36.32163" lon="33.83939">
        <ele>295.523355</ele>
        <time>2022-02-24T15:23:51.177Z</time>
      </trkpt>
      <trkpt lat="36.32224" lon="33.83896">
        <ele>297.14322</ele>
        <time>2022-02-24T15:24:17.811Z</time>
      </trkpt>
      <trkpt lat="36.32239" lon="33.83843">
        <ele>298.71504</ele>
        <time>2022-02-24T15:24:36.655Z</time>
      </trkpt>
      <trkpt lat="36.32246" lon="33.83719">
        <ele>302.176771</ele>
        <time>2022-02-24T15:25:22.288Z</time>
      </trkpt>
      <trkpt lat="36.32231" lon="33.8365">
        <ele>304.897435</ele>
        <time>2022-02-24T15:25:50.600Z</time>
      </trkpt>
      <trkpt lat="36.32213" lon="33.83597">
        <ele>307.395493</ele>
        <time>2022-02-24T15:26:15.062Z</time>
      </trkpt>
      <trkpt lat="36.32197" lon="33.83571">
        <ele>308.820242</ele>
        <time>2022-02-24T15:26:29.360Z</time>
      </trkpt>
      <trkpt lat="36.32176" lon="33.83532">
        <ele>310.859641</ele>
        <time>2022-02-24T15:26:50.482Z</time>
      </trkpt>
      <trkpt lat="36.32163" lon="33.83509">
        <ele>312.128671</ele>
        <time>2022-02-24T15:27:03.859Z</time>
      </trkpt>
      <trkpt lat="36.32157" lon="33.83496">
        <ele>312.772896</ele>
        <time>2022-02-24T15:27:10.380Z</time>
      </trkpt>
      <trkpt lat="36.32141" lon="33.83464">
        <ele>315.334493</ele>
        <time>2022-02-24T15:27:28.109Z</time>
      </trkpt>
      <trkpt lat="36.32138" lon="33.83434">
        <ele>317.402357</ele>
        <time>2022-02-24T15:27:42.541Z</time>
      </trkpt>
      <trkpt lat="36.32097" lon="33.83352">
        <ele>323.95225</ele>
        <time>2022-02-24T15:28:36.848Z</time>
      </trkpt>
      <trkpt lat="36.32108" lon="33.83298">
        <ele>327.77</ele>
        <time>2022-02-24T15:29:12.432Z</time>
      </trkpt>
      <trkpt lat="36.32101" lon="33.83263">
        <ele>330.563819</ele>
        <time>2022-02-24T15:29:34.697Z</time>
      </trkpt>
      <trkpt lat="36.32073" lon="33.83218">
        <ele>335.041772</ele>
        <time>2022-02-24T15:30:10.209Z</time>
      </trkpt>
      <trkpt lat="36.32063" lon="33.83203">
        <ele>336.573331</ele>
        <time>2022-02-24T15:30:22.264Z</time>
      </trkpt>
      <trkpt lat="36.32054" lon="33.83177">
        <ele>338.823303</ele>
        <time>2022-02-24T15:30:39.465Z</time>
      </trkpt>
      <trkpt lat="36.32034" lon="33.83119">
        <ele>343.855015</ele>
        <time>2022-02-24T15:31:17.792Z</time>
      </trkpt>
      <trkpt lat="36.32011" lon="33.83019">
        <ele>350.269223</ele>
        <time>2022-02-24T15:32:15.116Z</time>
      </trkpt>
      <trkpt lat="36.31965" lon="33.8296">
        <ele>354.950026</ele>
        <time>2022-02-24T15:32:53.820Z</time>
      </trkpt>
      <trkpt lat="36.31955" lon="33.82882">
        <ele>359.335215</ele>
        <time>2022-02-24T15:33:29.364Z</time>
      </trkpt>
      <trkpt lat="36.31945" lon="33.82844">
        <ele>361.268801</ele>
        <time>2022-02-24T15:33:47.605Z</time>
      </trkpt>
      <trkpt lat="36.31907" lon="33.82782">
        <ele>364.985953</ele>
        <time>2022-02-24T15:34:22.959Z</time>
      </trkpt>
      <trkpt lat="36.31888" lon="33.82737">
        <ele>367.475597</ele>
        <time>2022-02-24T15:34:46.542Z</time>
      </trkpt>
      <trkpt lat="36.31875" lon="33.82664">
        <ele>371.00117</ele>
        <time>2022-02-24T15:35:20.594Z</time>
      </trkpt>
      <trkpt lat="36.31796" lon="33.82452">
        <ele>381.718295</ele>
        <time>2022-02-24T15:37:04.755Z</time>
      </trkpt>
      <trkpt lat="36.31788" lon="33.82382">
        <ele>384.799683</ele>
        <time>2022-02-24T15:37:34.624Z</time>
      </trkpt>
      <trkpt lat="36.31791" lon="33.82315">
        <ele>387.721455</ele>
        <time>2022-02-24T15:38:03.110Z</time>
      </trkpt>
      <trkpt lat="36.31775" lon="33.82239">
        <ele>391.18962</ele>
        <time>2022-02-24T15:38:37.302Z</time>
      </trkpt>
      <trkpt lat="36.31758" lon="33.82203">
        <ele>393.065293</ele>
        <time>2022-02-24T15:38:56.388Z</time>
      </trkpt>
      <trkpt lat="36.3171" lon="33.82135">
        <ele>397.135809</ele>
        <time>2022-02-24T15:39:39.152Z</time>
      </trkpt>
      <trkpt lat="36.31632" lon="33.82078">
        <ele>399.862289</ele>
        <time>2022-02-24T15:40:38.975Z</time>
      </trkpt>
      <trkpt lat="36.3162" lon="33.82046">
        <ele>400.181008</ele>
        <time>2022-02-24T15:40:55.422Z</time>
      </trkpt>
      <trkpt lat="36.31623" lon="33.82032">
        <ele>400.317592</ele>
        <time>2022-02-24T15:41:00.810Z</time>
      </trkpt>
      <trkpt lat="36.31622" lon="33.81996">
        <ele>400.647806</ele>
        <time>2022-02-24T15:41:15.152Z</time>
      </trkpt>
      <trkpt lat="36.31608" lon="33.81944">
        <ele>401.155368</ele>
        <time>2022-02-24T15:41:32.856Z</time>
      </trkpt>
      <trkpt lat="36.31617" lon="33.81924">
        <ele>401.031782</ele>
        <time>2022-02-24T15:41:39.642Z</time>
      </trkpt>
      <trkpt lat="36.31638" lon="33.81933">
        <ele>399.56842</ele>
        <time>2022-02-24T15:41:47.167Z</time>
      </trkpt>
      <trkpt lat="36.31646" lon="33.81914">
        <ele>398.445733</ele>
        <time>2022-02-24T15:41:52.944Z</time>
      </trkpt>
      <trkpt lat="36.3167" lon="33.81805">
        <ele>392.422526</ele>
        <time>2022-02-24T15:42:21.118Z</time>
      </trkpt>
      <trkpt lat="36.31667" lon="33.81732">
        <ele>388.199088</ele>
        <time>2022-02-24T15:42:38.803Z</time>
      </trkpt>
      <trkpt lat="36.31673" lon="33.81705">
        <ele>386.171756</ele>
        <time>2022-02-24T15:42:45.513Z</time>
      </trkpt>
      <trkpt lat="36.31671" lon="33.81687">
        <ele>384.867772</ele>
        <time>2022-02-24T15:42:49.822Z</time>
      </trkpt>
      <trkpt lat="36.3164" lon="33.81701">
        <ele>381.943166</ele>
        <time>2022-02-24T15:42:59.457Z</time>
      </trkpt>
      <trkpt lat="36.31627" lon="33.81686">
        <ele>380.313922</ele>
        <time>2022-02-24T15:43:04.821Z</time>
      </trkpt>
      <trkpt lat="36.31629" lon="33.8165">
        <ele>377.731081</ele>
        <time>2022-02-24T15:43:13.311Z</time>
      </trkpt>
      <trkpt lat="36.31641" lon="33.81606">
        <ele>374.307959</ele>
        <time>2022-02-24T15:43:24.585Z</time>
      </trkpt>
      <trkpt lat="36.3164" lon="33.81568">
        <ele>371.716314</ele>
        <time>2022-02-24T15:43:33.780Z</time>
      </trkpt>
      <trkpt lat="36.31656" lon="33.81524">
        <ele>368.635536</ele>
        <time>2022-02-24T15:43:45.261Z</time>
      </trkpt>
      <trkpt lat="36.31665" lon="33.81532">
        <ele>367.704147</ele>
        <time>2022-02-24T15:43:48.740Z</time>
      </trkpt>
      <trkpt lat="36.3166" lon="33.81565">
        <ele>365.477673</ele>
        <time>2022-02-24T15:43:57.160Z</time>
      </trkpt>
      <trkpt lat="36.31674" lon="33.81575">
        <ele>364.231976</ele>
        <time>2022-02-24T15:44:01.873Z</time>
      </trkpt>
      <trkpt lat="36.31717" lon="33.81571">
        <ele>360.711804</ele>
        <time>2022-02-24T15:44:15.415Z</time>
      </trkpt>
      <trkpt lat="36.31778" lon="33.81549">
        <ele>356.172601</ele>
        <time>2022-02-24T15:44:35.315Z</time>
      </trkpt>
      <trkpt lat="36.3171" lon="33.81524">
        <ele>351.496842</ele>
        <time>2022-02-24T15:44:57.737Z</time>
      </trkpt>
      <trkpt lat="36.31695" lon="33.81479">
        <ele>348.901301</ele>
        <time>2022-02-24T15:45:10.138Z</time>
      </trkpt>
      <trkpt lat="36.31649" lon="33.81454">
        <ele>345.458943</ele>
        <time>2022-02-24T15:45:26.009Z</time>
      </trkpt>
      <trkpt lat="36.31584" lon="33.81392">
        <ele>339.531591</ele>
        <time>2022-02-24T15:45:51.637Z</time>
      </trkpt>
      <trkpt lat="36.31532" lon="33.81281">
        <ele>332.584505</ele>
        <time>2022-02-24T15:46:23.271Z</time>
      </trkpt>
      <trkpt lat="36.31477" lon="33.81228">
        <ele>328.820905</ele>
        <time>2022-02-24T15:46:45.667Z</time>
      </trkpt>
      <trkpt lat="36.31483" lon="33.81163">
        <ele>325.981613</ele>
        <time>2022-02-24T15:47:03.260Z</time>
      </trkpt>
      <trkpt lat="36.31441" lon="33.81086">
        <ele>323.175274</ele>
        <time>2022-02-24T15:47:29.469Z</time>
      </trkpt>
      <trkpt lat="36.31399" lon="33.80999">
        <ele>321.119683</ele>
        <time>2022-02-24T15:47:59.257Z</time>
      </trkpt>
      <trkpt lat="36.31408" lon="33.80817">
        <ele>320.643155</ele>
        <time>2022-02-24T15:48:57.488Z</time>
      </trkpt>
      <trkpt lat="36.31303" lon="33.8062">
        <ele>327.071522</ele>
        <time>2022-02-24T15:50:53.151Z</time>
      </trkpt>
      <trkpt lat="36.31179" lon="33.80423">
        <ele>340.320913</ele>
        <time>2022-02-24T15:53:41.133Z</time>
      </trkpt>
      <trkpt lat="36.31157" lon="33.80354">
        <ele>344.496805</ele>
        <time>2022-02-24T15:54:26.829Z</time>
      </trkpt>
      <trkpt lat="36.31115" lon="33.80318">
        <ele>345.439195</ele>
        <time>2022-02-24T15:55:00.624Z</time>
      </trkpt>
      <trkpt lat="36.31094" lon="33.80266">
        <ele>346.317147</ele>
        <time>2022-02-24T15:55:27.207Z</time>
      </trkpt>
      <trkpt lat="36.31092" lon="33.80171">
        <ele>347.750121</ele>
        <time>2022-02-24T15:55:59.588Z</time>
      </trkpt>
      <trkpt lat="36.31103" lon="33.80106">
        <ele>346.683784</ele>
        <time>2022-02-24T15:56:19.184Z</time>
      </trkpt>
      <trkpt lat="36.31091" lon="33.80028">
        <ele>345.344194</ele>
        <time>2022-02-24T15:56:41.909Z</time>
      </trkpt>
      <trkpt lat="36.31059" lon="33.79964">
        <ele>344.063202</ele>
        <time>2022-02-24T15:57:04.420Z</time>
      </trkpt>
      <trkpt lat="36.31041" lon="33.79853">
        <ele>345.00038</ele>
        <time>2022-02-24T15:57:44.757Z</time>
      </trkpt>
      <trkpt lat="36.30925" lon="33.79717">
        <ele>346.91043</ele>
        <time>2022-02-24T15:59:17.178Z</time>
      </trkpt>
      <trkpt lat="36.30864" lon="33.79699">
        <ele>347.740862</ele>
        <time>2022-02-24T15:59:50.996Z</time>
      </trkpt>
      <trkpt lat="36.30841" lon="33.79673">
        <ele>348.134854</ele>
        <time>2022-02-24T16:00:04.441Z</time>
      </trkpt>
      <trkpt lat="36.30843" lon="33.79621">
        <ele>347.876438</ele>
        <time>2022-02-24T16:00:20.926Z</time>
      </trkpt>
      <trkpt lat="36.30858" lon="33.79558">
        <ele>346.730279</ele>
        <time>2022-02-24T16:00:40.090Z</time>
      </trkpt>
      <trkpt lat="36.30851" lon="33.79483">
        <ele>345.41694</ele>
        <time>2022-02-24T16:01:01.954Z</time>
      </trkpt>
      <trkpt lat="36.30819" lon="33.79425">
        <ele>344.521577</ele>
        <time>2022-02-24T16:01:22.972Z</time>
      </trkpt>
      <trkpt lat="36.30776" lon="33.79362">
        <ele>344.611065</ele>
        <time>2022-02-24T16:01:49.545Z</time>
      </trkpt>
      <trkpt lat="36.30733" lon="33.79245">
        <ele>344.86435</ele>
        <time>2022-02-24T16:02:39.729Z</time>
      </trkpt>
      <trkpt lat="36.30701" lon="33.79117">
        <ele>348.261129</ele>
        <time>2022-02-24T16:03:49.735Z</time>
      </trkpt>
      <trkpt lat="36.30671" lon="33.79028">
        <ele>350.187967</ele>
        <time>2022-02-24T16:04:37.702Z</time>
      </trkpt>
      <trkpt lat="36.30628" lon="33.78938">
        <ele>348.471982</ele>
        <time>2022-02-24T16:05:15.340Z</time>
      </trkpt>
      <trkpt lat="36.30616" lon="33.78875">
        <ele>347.423938</ele>
        <time>2022-02-24T16:05:32.377Z</time>
      </trkpt>
      <trkpt lat="36.30613" lon="33.78787">
        <ele>345.251458</ele>
        <time>2022-02-24T16:05:55.346Z</time>
      </trkpt>
      <trkpt lat="36.30608" lon="33.787">
        <ele>342.480332</ele>
        <time>2022-02-24T16:06:17.448Z</time>
      </trkpt>
      <trkpt lat="36.30613" lon="33.78671">
        <ele>341.539536</ele>
        <time>2022-02-24T16:06:25.320Z</time>
      </trkpt>
      <trkpt lat="36.30607" lon="33.78652">
        <ele>340.894966</ele>
        <time>2022-02-24T16:06:33.565Z</time>
      </trkpt>
      <trkpt lat="36.30558" lon="33.78581">
        <ele>340.920234</ele>
        <time>2022-02-24T16:07:08.331Z</time>
      </trkpt>
      <trkpt lat="36.30527" lon="33.78516">
        <ele>342.671352</ele>
        <time>2022-02-24T16:07:47.031Z</time>
      </trkpt>
      <trkpt lat="36.30503" lon="33.78421">
        <ele>344.912021</ele>
        <time>2022-02-24T16:08:43.016Z</time>
      </trkpt>
      <trkpt lat="36.30449" lon="33.78279">
        <ele>345.690293</ele>
        <time>2022-02-24T16:09:44.287Z</time>
      </trkpt>
      <trkpt lat="36.30429" lon="33.78228">
        <ele>345.97191</ele>
        <time>2022-02-24T16:10:01.738Z</time>
      </trkpt>
      <trkpt lat="36.30398" lon="33.78201">
        <ele>345.722079</ele>
        <time>2022-02-24T16:10:15.799Z</time>
      </trkpt>
      <trkpt lat="36.30388" lon="33.78189">
        <ele>345.611021</ele>
        <time>2022-02-24T16:10:21.265Z</time>
      </trkpt>
      <trkpt lat="36.30388" lon="33.78146">
        <ele>345.348549</ele>
        <time>2022-02-24T16:10:34.272Z</time>
      </trkpt>
      <trkpt lat="36.30377" lon="33.78102">
        <ele>345.064046</ele>
        <time>2022-02-24T16:10:48.545Z</time>
      </trkpt>
      <trkpt lat="36.30378" lon="33.78041">
        <ele>344.684305</ele>
        <time>2022-02-24T16:11:09.212Z</time>
      </trkpt>
      <trkpt lat="36.30352" lon="33.77889">
        <ele>349.44002</ele>
        <time>2022-02-24T16:12:23.536Z</time>
      </trkpt>
      <trkpt lat="36.30387" lon="33.77816">
        <ele>352.451916</ele>
        <time>2022-02-24T16:13:13.512Z</time>
      </trkpt>
      <trkpt lat="36.30396" lon="33.77706">
        <ele>360.110816</ele>
        <time>2022-02-24T16:14:34.830Z</time>
      </trkpt>
      <trkpt lat="36.30411" lon="33.77644">
        <ele>364.632908</ele>
        <time>2022-02-24T16:15:21.927Z</time>
      </trkpt>
      <trkpt lat="36.30425" lon="33.7762">
        <ele>366.660251</ele>
        <time>2022-02-24T16:15:43.986Z</time>
      </trkpt>
      <trkpt lat="36.30455" lon="33.77603">
        <ele>368.219013</ele>
        <time>2022-02-24T16:16:10.491Z</time>
      </trkpt>
      <trkpt lat="36.30489" lon="33.77577">
        <ele>369.2395</ele>
        <time>2022-02-24T16:16:38.358Z</time>
      </trkpt>
      <trkpt lat="36.305" lon="33.77508">
        <ele>370.705501</ele>
        <time>2022-02-24T16:17:12.051Z</time>
      </trkpt>
      <trkpt lat="36.305" lon="33.77481">
        <ele>371.278488</ele>
        <time>2022-02-24T16:17:23.639Z</time>
      </trkpt>
      <trkpt lat="36.3048" lon="33.77518">
        <ele>372.201839</ele>
        <time>2022-02-24T16:17:31.609Z</time>
      </trkpt>
      <trkpt lat="36.30453" lon="33.77574">
        <ele>369.230068</ele>
        <time>2022-02-24T16:17:41.494Z</time>
      </trkpt>
      <trkpt lat="36.30443" lon="33.77579">
        <ele>368.495966</ele>
        <time>2022-02-24T16:17:43.591Z</time>
      </trkpt>
      <trkpt lat="36.30426" lon="33.77574">
        <ele>367.409542</ele>
        <time>2022-02-24T16:17:46.618Z</time>
      </trkpt>
      <trkpt lat="36.30411" lon="33.7755">
        <ele>365.829396</ele>
        <time>2022-02-24T16:17:50.977Z</time>
      </trkpt>
      <trkpt lat="36.30396" lon="33.77424">
        <ele>359.535089</ele>
        <time>2022-02-24T16:18:09.117Z</time>
      </trkpt>
      <trkpt lat="36.30388" lon="33.77404">
        <ele>358.621135</ele>
        <time>2022-02-24T16:18:12.358Z</time>
      </trkpt>
      <trkpt lat="36.30378" lon="33.77396">
        <ele>358.033618</ele>
        <time>2022-02-24T16:18:14.452Z</time>
      </trkpt>
      <trkpt lat="36.30362" lon="33.77395">
        <ele>357.228554</ele>
        <time>2022-02-24T16:18:17.320Z</time>
      </trkpt>
      <trkpt lat="36.30251" lon="33.77428">
        <ele>351.771723</ele>
        <time>2022-02-24T16:18:39.647Z</time>
      </trkpt>
      <trkpt lat="36.30192" lon="33.77438">
        <ele>352.878478</ele>
        <time>2022-02-24T16:18:58.199Z</time>
      </trkpt>
      <trkpt lat="36.30179" lon="33.77441">
        <ele>353.117182</ele>
        <time>2022-02-24T16:19:02.567Z</time>
      </trkpt>
      <trkpt lat="36.30136" lon="33.77446">
        <ele>353.929715</ele>
        <time>2022-02-24T16:19:20.109Z</time>
      </trkpt>
      <trkpt lat="36.30111" lon="33.7744">
        <ele>354.411329</ele>
        <time>2022-02-24T16:19:32.158Z</time>
      </trkpt>
      <trkpt lat="36.30097" lon="33.77421">
        <ele>354.788914</ele>
        <time>2022-02-24T16:19:41.839Z</time>
      </trkpt>
      <trkpt lat="36.30083" lon="33.77381">
        <ele>356.101419</ele>
        <time>2022-02-24T16:19:59.899Z</time>
      </trkpt>
      <trkpt lat="36.30055" lon="33.77329">
        <ele>358.583368</ele>
        <time>2022-02-24T16:20:28.315Z</time>
      </trkpt>
      <trkpt lat="36.30019" lon="33.7729">
        <ele>360.918081</ele>
        <time>2022-02-24T16:20:53.401Z</time>
      </trkpt>
      <trkpt lat="36.2996" lon="33.77249">
        <ele>364.20674</ele>
        <time>2022-02-24T16:21:26.403Z</time>
      </trkpt>
      <trkpt lat="36.29912" lon="33.77237">
        <ele>366.367135</ele>
        <time>2022-02-24T16:21:50.671Z</time>
      </trkpt>
      <trkpt lat="36.29868" lon="33.7721">
        <ele>368.53379</ele>
        <time>2022-02-24T16:22:15.139Z</time>
      </trkpt>
      <trkpt lat="36.29827" lon="33.77193">
        <ele>370.48886</ele>
        <time>2022-02-24T16:22:37.595Z</time>
      </trkpt>
      <trkpt lat="36.29618" lon="33.77121">
        <ele>378.017167</ele>
        <time>2022-02-24T16:24:16.576Z</time>
      </trkpt>
      <trkpt lat="36.29547" lon="33.77102">
        <ele>377.762541</ele>
        <time>2022-02-24T16:24:38.603Z</time>
      </trkpt>
      <trkpt lat="36.29501" lon="33.77095">
        <ele>377.600561</ele>
        <time>2022-02-24T16:24:49.826Z</time>
      </trkpt>
      <trkpt lat="36.29459" lon="33.77096">
        <ele>377.452927</ele>
        <time>2022-02-24T16:24:59.096Z</time>
      </trkpt>
      <trkpt lat="36.29392" lon="33.77116">
        <ele>375.664649</ele>
        <time>2022-02-24T16:25:13.438Z</time>
      </trkpt>
      <trkpt lat="36.29147" lon="33.77171">
        <ele>368.031992</ele>
        <time>2022-02-24T16:26:04.142Z</time>
      </trkpt>
      <trkpt lat="36.29035" lon="33.77183">
        <ele>365.691514</ele>
        <time>2022-02-24T16:26:28.639Z</time>
      </trkpt>
      <trkpt lat="36.28956" lon="33.77184">
        <ele>364.71605</ele>
        <time>2022-02-24T16:26:47.606Z</time>
      </trkpt>
      <trkpt lat="36.28925" lon="33.77175">
        <ele>364.314033</ele>
        <time>2022-02-24T16:26:55.852Z</time>
      </trkpt>
      <trkpt lat="36.28792" lon="33.77099">
        <ele>364.414028</ele>
        <time>2022-02-24T16:27:37.174Z</time>
      </trkpt>
      <trkpt lat="36.28742" lon="33.77078">
        <ele>364.528746</ele>
        <time>2022-02-24T16:27:53.377Z</time>
      </trkpt>
      <trkpt lat="36.28714" lon="33.77059">
        <ele>364.672465</ele>
        <time>2022-02-24T16:28:03.281Z</time>
      </trkpt>
      <trkpt lat="36.2868" lon="33.77025">
        <ele>364.86852</ele>
        <time>2022-02-24T16:28:16.716Z</time>
      </trkpt>
      <trkpt lat="36.28642" lon="33.76996">
        <ele>365.064552</ele>
        <time>2022-02-24T16:28:29.971Z</time>
      </trkpt>
      <trkpt lat="36.28583" lon="33.76976">
        <ele>365.298001</ele>
        <time>2022-02-24T16:28:48.055Z</time>
      </trkpt>
      <trkpt lat="36.28555" lon="33.76958">
        <ele>365.304564</ele>
        <time>2022-02-24T16:28:56.939Z</time>
      </trkpt>
      <trkpt lat="36.28503" lon="33.76894">
        <ele>365.319655</ele>
        <time>2022-02-24T16:29:16.830Z</time>
      </trkpt>
      <trkpt lat="36.28439" lon="33.76832">
        <ele>365.444024</ele>
        <time>2022-02-24T16:29:39.257Z</time>
      </trkpt>
      <trkpt lat="36.28392" lon="33.76801">
        <ele>365.817597</ele>
        <time>2022-02-24T16:29:54.731Z</time>
      </trkpt>
      <trkpt lat="36.28371" lon="33.76781">
        <ele>366.005974</ele>
        <time>2022-02-24T16:30:02.755Z</time>
      </trkpt>
      <trkpt lat="36.28224" lon="33.76536">
        <ele>368.891511</ele>
        <time>2022-02-24T16:31:26.442Z</time>
      </trkpt>
      <trkpt lat="36.28103" lon="33.76391">
        <ele>371.904656</ele>
        <time>2022-02-24T16:32:28.933Z</time>
      </trkpt>
      <trkpt lat="36.28055" lon="33.76324">
        <ele>373.11825</ele>
        <time>2022-02-24T16:32:54.955Z</time>
      </trkpt>
      <trkpt lat="36.27982" lon="33.76189">
        <ele>375.168012</ele>
        <time>2022-02-24T16:33:40.531Z</time>
      </trkpt>
      <trkpt lat="36.2793" lon="33.76132">
        <ele>376.505434</ele>
        <time>2022-02-24T16:34:05.307Z</time>
      </trkpt>
      <trkpt lat="36.27887" lon="33.76075">
        <ele>377.744273</ele>
        <time>2022-02-24T16:34:28.866Z</time>
      </trkpt>
      <trkpt lat="36.27842" lon="33.76028">
        <ele>378.908483</ele>
        <time>2022-02-24T16:34:51.577Z</time>
      </trkpt>
      <trkpt lat="36.27728" lon="33.75922">
        <ele>382.121473</ele>
        <time>2022-02-24T16:35:47.734Z</time>
      </trkpt>
      <trkpt lat="36.27596" lon="33.75772">
        <ele>385.302524</ele>
        <time>2022-02-24T16:36:53.152Z</time>
      </trkpt>
      <trkpt lat="36.27514" lon="33.75588">
        <ele>387.401192</ele>
        <time>2022-02-24T16:37:48.470Z</time>
      </trkpt>
      <trkpt lat="36.2748" lon="33.75535">
        <ele>388.158256</ele>
        <time>2022-02-24T16:38:06.625Z</time>
      </trkpt>
      <trkpt lat="36.27432" lon="33.75472">
        <ele>389.834169</ele>
        <time>2022-02-24T16:38:31.993Z</time>
      </trkpt>
      <trkpt lat="36.27449" lon="33.75457">
        <ele>390.322552</ele>
        <time>2022-02-24T16:38:40.418Z</time>
      </trkpt>
      <trkpt lat="36.27485" lon="33.75433">
        <ele>391.293975</ele>
        <time>2022-02-24T16:38:56.653Z</time>
      </trkpt>
      <trkpt lat="36.27492" lon="33.75423">
        <ele>391.56638</ele>
        <time>2022-02-24T16:39:01.026Z</time>
      </trkpt>
      <trkpt lat="36.27494" lon="33.75406">
        <ele>391.885174</ele>
        <time>2022-02-24T16:39:07.101Z</time>
      </trkpt>
      <trkpt lat="36.27458" lon="33.75336">
        <ele>394.696426</ele>
        <time>2022-02-24T16:39:38.121Z</time>
      </trkpt>
      <trkpt lat="36.27432" lon="33.75263">
        <ele>397.694745</ele>
        <time>2022-02-24T16:40:10.501Z</time>
      </trkpt>
      <trkpt lat="36.27424" lon="33.75226">
        <ele>399.145208</ele>
        <time>2022-02-24T16:40:26.808Z</time>
      </trkpt>
      <trkpt lat="36.2741" lon="33.75081">
        <ele>405.857611</ele>
        <time>2022-02-24T16:41:32.666Z</time>
      </trkpt>
      <trkpt lat="36.2741" lon="33.75033">
        <ele>408.165389</ele>
        <time>2022-02-24T16:41:55.037Z</time>
      </trkpt>
      <trkpt lat="36.27396" lon="33.74946">
        <ele>412.391711</ele>
        <time>2022-02-24T16:42:37.310Z</time>
      </trkpt>
      <trkpt lat="36.27399" lon="33.74897">
        <ele>414.491663</ele>
        <time>2022-02-24T16:42:59.692Z</time>
      </trkpt>
      <trkpt lat="36.27357" lon="33.74878">
        <ele>416.846375</ele>
        <time>2022-02-24T16:43:23.859Z</time>
      </trkpt>
      <trkpt lat="36.2735" lon="33.7486">
        <ele>417.691348</ele>
        <time>2022-02-24T16:43:32.249Z</time>
      </trkpt>
      <trkpt lat="36.27352" lon="33.74845">
        <ele>418.345896</ele>
        <time>2022-02-24T16:43:38.695Z</time>
      </trkpt>
      <trkpt lat="36.27362" lon="33.74826">
        <ele>419.338892</ele>
        <time>2022-02-24T16:43:48.254Z</time>
      </trkpt>
      <trkpt lat="36.27364" lon="33.74784">
        <ele>421.087505</ele>
        <time>2022-02-24T16:44:04.877Z</time>
      </trkpt>
      <trkpt lat="36.2738" lon="33.7475">
        <ele>421.868123</ele>
        <time>2022-02-24T16:44:19.629Z</time>
      </trkpt>
      <trkpt lat="36.27391" lon="33.74703">
        <ele>422.830812</ele>
        <time>2022-02-24T16:44:36.153Z</time>
      </trkpt>
      <trkpt lat="36.27384" lon="33.74628">
        <ele>424.322881</ele>
        <time>2022-02-24T16:44:58.811Z</time>
      </trkpt>
      <trkpt lat="36.27386" lon="33.74582">
        <ele>425.23389</ele>
        <time>2022-02-24T16:45:11.421Z</time>
      </trkpt>
      <trkpt lat="36.27381" lon="33.74501">
        <ele>425.930511</ele>
        <time>2022-02-24T16:45:32.503Z</time>
      </trkpt>
      <trkpt lat="36.27368" lon="33.74401">
        <ele>426.610385</ele>
        <time>2022-02-24T16:45:57.803Z</time>
      </trkpt>
      <trkpt lat="36.27372" lon="33.74321">
        <ele>427.142839</ele>
        <time>2022-02-24T16:46:18.101Z</time>
      </trkpt>
      <trkpt lat="36.27413" lon="33.74216">
        <ele>427.905962</ele>
        <time>2022-02-24T16:46:48.740Z</time>
      </trkpt>
      <trkpt lat="36.2746" lon="33.74131">
        <ele>428.480296</ele>
        <time>2022-02-24T16:47:14.973Z</time>
      </trkpt>
      <trkpt lat="36.2747" lon="33.74094">
        <ele>428.574927</ele>
        <time>2022-02-24T16:47:24.348Z</time>
      </trkpt>
      <trkpt lat="36.27472" lon="33.73937">
        <ele>428.957059</ele>
        <time>2022-02-24T16:48:00.512Z</time>
      </trkpt>
      <trkpt lat="36.27479" lon="33.73866">
        <ele>428.891182</ele>
        <time>2022-02-24T16:48:16.753Z</time>
      </trkpt>
      <trkpt lat="36.27472" lon="33.73704">
        <ele>428.618525</ele>
        <time>2022-02-24T16:48:52.350Z</time>
      </trkpt>
      <trkpt lat="36.27467" lon="33.73679">
        <ele>428.275264</ele>
        <time>2022-02-24T16:48:57.679Z</time>
      </trkpt>
      <trkpt lat="36.27468" lon="33.7365">
        <ele>427.890768</ele>
        <time>2022-02-24T16:49:03.259Z</time>
      </trkpt>
      <trkpt lat="36.27463" lon="33.73618">
        <ele>427.457087</ele>
        <time>2022-02-24T16:49:09.317Z</time>
      </trkpt>
      <trkpt lat="36.27447" lon="33.73554">
        <ele>426.572677</ele>
        <time>2022-02-24T16:49:21.648Z</time>
      </trkpt>
      <trkpt lat="36.27433" lon="33.73553">
        <ele>426.345322</ele>
        <time>2022-02-24T16:49:24.496Z</time>
      </trkpt>
      <trkpt lat="36.27255" lon="33.73599">
        <ele>421.919588</ele>
        <time>2022-02-24T16:50:02.588Z</time>
      </trkpt>
      <trkpt lat="36.27099" lon="33.73632">
        <ele>418.705737</ele>
        <time>2022-02-24T16:50:37.321Z</time>
      </trkpt>
      <trkpt lat="36.27052" lon="33.73636">
        <ele>417.822308</ele>
        <time>2022-02-24T16:50:48.331Z</time>
      </trkpt>
      <trkpt lat="36.26941" lon="33.73624">
        <ele>417.208728</ele>
        <time>2022-02-24T16:51:15.847Z</time>
      </trkpt>
      <trkpt lat="36.26908" lon="33.73616">
        <ele>417.050575</ele>
        <time>2022-02-24T16:51:24.798Z</time>
      </trkpt>
      <trkpt lat="36.26784" lon="33.73608">
        <ele>417.891407</ele>
        <time>2022-02-24T16:52:02.118Z</time>
      </trkpt>
      <trkpt lat="36.26731" lon="33.73593">
        <ele>418.56931</ele>
        <time>2022-02-24T16:52:21.045Z</time>
      </trkpt>
      <trkpt lat="36.26548" lon="33.73519">
        <ele>422.459136</ele>
        <time>2022-02-24T16:53:37.120Z</time>
      </trkpt>
      <trkpt lat="36.26496" lon="33.73468">
        <ele>423.372439</ele>
        <time>2022-02-24T16:54:01.466Z</time>
      </trkpt>
      <trkpt lat="36.26468" lon="33.7345">
        <ele>423.578482</ele>
        <time>2022-02-24T16:54:11.895Z</time>
      </trkpt>
      <trkpt lat="36.2644" lon="33.73441">
        <ele>423.773349</ele>
        <time>2022-02-24T16:54:21.133Z</time>
      </trkpt>
      <trkpt lat="36.26412" lon="33.7344">
        <ele>423.957236</ele>
        <time>2022-02-24T16:54:29.273Z</time>
      </trkpt>
      <trkpt lat="36.26376" lon="33.73449">
        <ele>424.199459</ele>
        <time>2022-02-24T16:54:39.251Z</time>
      </trkpt>
      <trkpt lat="36.2621" lon="33.73515">
        <ele>423.34643</ele>
        <time>2022-02-24T16:55:22.773Z</time>
      </trkpt>
      <trkpt lat="36.26165" lon="33.73528">
        <ele>423.124309</ele>
        <time>2022-02-24T16:55:34.775Z</time>
      </trkpt>
      <trkpt lat="36.2608" lon="33.73535">
        <ele>422.851163</ele>
        <time>2022-02-24T16:55:58.289Z</time>
      </trkpt>
      <trkpt lat="36.26046" lon="33.73544">
        <ele>422.738447</ele>
        <time>2022-02-24T16:56:07.980Z</time>
      </trkpt>
      <trkpt lat="36.26034" lon="33.73542">
        <ele>422.701363</ele>
        <time>2022-02-24T16:56:10.787Z</time>
      </trkpt>
      <trkpt lat="36.25999" lon="33.73519">
        <ele>422.388032</ele>
        <time>2022-02-24T16:56:21.015Z</time>
      </trkpt>
      <trkpt lat="36.25927" lon="33.73485">
        <ele>421.11067</ele>
        <time>2022-02-24T16:56:39.268Z</time>
      </trkpt>
      <trkpt lat="36.25914" lon="33.73484">
        <ele>420.891837</ele>
        <time>2022-02-24T16:56:42.435Z</time>
      </trkpt>
      <trkpt lat="36.25913" lon="33.73479">
        <ele>420.829974</ele>
        <time>2022-02-24T16:56:43.066Z</time>
      </trkpt>
      <trkpt lat="36.25898" lon="33.73448">
        <ele>420.349475</ele>
        <time>2022-02-24T16:56:49.520Z</time>
      </trkpt>
      <trkpt lat="36.25895" lon="33.73427">
        <ele>420.065961</ele>
        <time>2022-02-24T16:56:52.876Z</time>
      </trkpt>
      <trkpt lat="36.25898" lon="33.73411">
        <ele>419.841935</ele>
        <time>2022-02-24T16:56:55.811Z</time>
      </trkpt>
      <trkpt lat="36.25908" lon="33.73398">
        <ele>419.596616</ele>
        <time>2022-02-24T16:56:58.555Z</time>
      </trkpt>
      <trkpt lat="36.25952" lon="33.73386">
        <ele>418.640743</ele>
        <time>2022-02-24T16:57:07.799Z</time>
      </trkpt>
      <trkpt lat="36.25961" lon="33.73378">
        <ele>418.418089</ele>
        <time>2022-02-24T16:57:10.024Z</time>
      </trkpt>
      <trkpt lat="36.25969" lon="33.73359">
        <ele>418.051995</ele>
        <time>2022-02-24T16:57:13.363Z</time>
      </trkpt>
      <trkpt lat="36.25979" lon="33.73302">
        <ele>417.066277</ele>
        <time>2022-02-24T16:57:23.181Z</time>
      </trkpt>
      <trkpt lat="36.25952" lon="33.73222">
        <ele>415.857056</ele>
        <time>2022-02-24T16:57:38.409Z</time>
      </trkpt>
      <trkpt lat="36.25945" lon="33.73179">
        <ele>415.830172</ele>
        <time>2022-02-24T16:57:46.753Z</time>
      </trkpt>
      <trkpt lat="36.25951" lon="33.73118">
        <ele>415.79319</ele>
        <time>2022-02-24T16:57:59.410Z</time>
      </trkpt>
      <trkpt lat="36.25985" lon="33.73006">
        <ele>416.343792</ele>
        <time>2022-02-24T16:58:27.331Z</time>
      </trkpt>
      <trkpt lat="36.26008" lon="33.72952">
        <ele>418.423357</ele>
        <time>2022-02-24T16:58:45.627Z</time>
      </trkpt>
      <trkpt lat="36.26006" lon="33.72932">
        <ele>419.101085</ele>
        <time>2022-02-24T16:58:51.326Z</time>
      </trkpt>
      <trkpt lat="36.2599" lon="33.72921">
        <ele>419.864858</ele>
        <time>2022-02-24T16:58:59.261Z</time>
      </trkpt>
      <trkpt lat="36.25874" lon="33.72847">
        <ele>427.002567</ele>
        <time>2022-02-24T17:00:18.026Z</time>
      </trkpt>
      <trkpt lat="36.25844" lon="33.72835">
        <ele>429.426233</ele>
        <time>2022-02-24T17:00:38.116Z</time>
      </trkpt>
      <trkpt lat="36.25834" lon="33.72836">
        <ele>430.19296</ele>
        <time>2022-02-24T17:00:48.023Z</time>
      </trkpt>
      <trkpt lat="36.25827" lon="33.72777">
        <ele>433.828129</ele>
        <time>2022-02-24T17:01:17.849Z</time>
      </trkpt>
      <trkpt lat="36.25825" lon="33.72694">
        <ele>437.998616</ele>
        <time>2022-02-24T17:01:59.107Z</time>
      </trkpt>
      <trkpt lat="36.25819" lon="33.72653">
        <ele>439.35636</ele>
        <time>2022-02-24T17:02:19.063Z</time>
      </trkpt>
      <trkpt lat="36.25873" lon="33.72543">
        <ele>443.498612</ele>
        <time>2022-02-24T17:02:59.831Z</time>
      </trkpt>
      <trkpt lat="36.25923" lon="33.7246">
        <ele>444.637442</ele>
        <time>2022-02-24T17:03:29.789Z</time>
      </trkpt>
      <trkpt lat="36.25936" lon="33.72368">
        <ele>445.110589</ele>
        <time>2022-02-24T17:03:52.230Z</time>
      </trkpt>
      <trkpt lat="36.25944" lon="33.72336">
        <ele>445.279129</ele>
        <time>2022-02-24T17:03:59.234Z</time>
      </trkpt>
      <trkpt lat="36.26046" lon="33.72073">
        <ele>440.91533</ele>
        <time>2022-02-24T17:04:48.046Z</time>
      </trkpt>
      <trkpt lat="36.26074" lon="33.71983">
        <ele>439.412171</ele>
        <time>2022-02-24T17:05:04.126Z</time>
      </trkpt>
      <trkpt lat="36.26108" lon="33.71913">
        <ele>438.291635</ele>
        <time>2022-02-24T17:05:18.681Z</time>
      </trkpt>
      <trkpt lat="36.26133" lon="33.71889">
        <ele>438.255801</ele>
        <time>2022-02-24T17:05:26.135Z</time>
      </trkpt>
      <trkpt lat="36.2615" lon="33.71881">
        <ele>438.235189</ele>
        <time>2022-02-24T17:05:30.628Z</time>
      </trkpt>
      <trkpt lat="36.26085" lon="33.71862">
        <ele>438.159884</ele>
        <time>2022-02-24T17:05:48.603Z</time>
      </trkpt>
      <trkpt lat="36.26009" lon="33.71835">
        <ele>438.122993</ele>
        <time>2022-02-24T17:06:12.186Z</time>
      </trkpt>
      <trkpt lat="36.25934" lon="33.71802">
        <ele>438.218847</ele>
        <time>2022-02-24T17:06:35.018Z</time>
      </trkpt>
      <trkpt lat="36.25841" lon="33.71751">
        <ele>438.123226</ele>
        <time>2022-02-24T17:07:01.018Z</time>
      </trkpt>
      <trkpt lat="36.25806" lon="33.71724">
        <ele>437.799897</ele>
        <time>2022-02-24T17:07:10.806Z</time>
      </trkpt>
      <trkpt lat="36.25777" lon="33.71686">
        <ele>437.468187</ele>
        <time>2022-02-24T17:07:20.497Z</time>
      </trkpt>
      <trkpt lat="36.25794" lon="33.71495">
        <ele>436.620873</ele>
        <time>2022-02-24T17:07:56.664Z</time>
      </trkpt>
      <trkpt lat="36.25789" lon="33.71477">
        <ele>436.571369</ele>
        <time>2022-02-24T17:08:00.279Z</time>
      </trkpt>
      <trkpt lat="36.25745" lon="33.71412">
        <ele>436.339229</ele>
        <time>2022-02-24T17:08:18.503Z</time>
      </trkpt>
      <trkpt lat="36.25669" lon="33.71326">
        <ele>437.276033</ele>
        <time>2022-02-24T17:08:50.539Z</time>
      </trkpt>
      <trkpt lat="36.25605" lon="33.71278">
        <ele>438.108378</ele>
        <time>2022-02-24T17:09:15.838Z</time>
      </trkpt>
      <trkpt lat="36.25579" lon="33.71241">
        <ele>438.576156</ele>
        <time>2022-02-24T17:09:28.999Z</time>
      </trkpt>
      <trkpt lat="36.25555" lon="33.71194">
        <ele>439.136179</ele>
        <time>2022-02-24T17:09:43.889Z</time>
      </trkpt>
      <trkpt lat="36.25543" lon="33.71154">
        <ele>439.572381</ele>
        <time>2022-02-24T17:09:55.344Z</time>
      </trkpt>
      <trkpt lat="36.25513" lon="33.70976">
        <ele>441.1521</ele>
        <time>2022-02-24T17:10:42.181Z</time>
      </trkpt>
      <trkpt lat="36.25511" lon="33.70934">
        <ele>441.451319</ele>
        <time>2022-02-24T17:10:52.978Z</time>
      </trkpt>
      <trkpt lat="36.25524" lon="33.70806">
        <ele>441.884062</ele>
        <time>2022-02-24T17:11:24.543Z</time>
      </trkpt>
      <trkpt lat="36.25522" lon="33.70721">
        <ele>441.295816</ele>
        <time>2022-02-24T17:11:42.222Z</time>
      </trkpt>
      <trkpt lat="36.25509" lon="33.70694">
        <ele>441.076847</ele>
        <time>2022-02-24T17:11:48.264Z</time>
      </trkpt>
      <trkpt lat="36.25418" lon="33.70559">
        <ele>437.951814</ele>
        <time>2022-02-24T17:12:17.188Z</time>
      </trkpt>
      <trkpt lat="36.25407" lon="33.70524">
        <ele>437.029247</ele>
        <time>2022-02-24T17:12:22.791Z</time>
      </trkpt>
      <trkpt lat="36.25375" lon="33.70459">
        <ele>435.0901</ele>
        <time>2022-02-24T17:12:34.647Z</time>
      </trkpt>
      <trkpt lat="36.25384" lon="33.70354">
        <ele>432.708048</ele>
        <time>2022-02-24T17:12:50.882Z</time>
      </trkpt>
      <trkpt lat="36.25366" lon="33.70322">
        <ele>431.825971</ele>
        <time>2022-02-24T17:12:57.226Z</time>
      </trkpt>
      <trkpt lat="36.25365" lon="33.703">
        <ele>431.33723</ele>
        <time>2022-02-24T17:13:00.800Z</time>
      </trkpt>
      <trkpt lat="36.25345" lon="33.70255">
        <ele>430.176747</ele>
        <time>2022-02-24T17:13:09.734Z</time>
      </trkpt>
      <trkpt lat="36.25293" lon="33.70202">
        <ele>428.896742</ele>
        <time>2022-02-24T17:13:24.522Z</time>
      </trkpt>
      <trkpt lat="36.25289" lon="33.70173">
        <ele>428.475044</ele>
        <time>2022-02-24T17:13:29.755Z</time>
      </trkpt>
      <trkpt lat="36.25291" lon="33.70114">
        <ele>427.636727</ele>
        <time>2022-02-24T17:13:39.793Z</time>
      </trkpt>
      <trkpt lat="36.25282" lon="33.70084">
        <ele>427.179585</ele>
        <time>2022-02-24T17:13:45.482Z</time>
      </trkpt>
      <trkpt lat="36.25236" lon="33.69984">
        <ele>424.671653</ele>
        <time>2022-02-24T17:14:05.047Z</time>
      </trkpt>
      <trkpt lat="36.25219" lon="33.69921">
        <ele>423.065928</ele>
        <time>2022-02-24T17:14:15.523Z</time>
      </trkpt>
      <trkpt lat="36.25219" lon="33.69879">
        <ele>422.026275</ele>
        <time>2022-02-24T17:14:22.029Z</time>
      </trkpt>
      <trkpt lat="36.25227" lon="33.69823">
        <ele>420.027315</ele>
        <time>2022-02-24T17:14:30.486Z</time>
      </trkpt>
      <trkpt lat="36.25216" lon="33.69808">
        <ele>419.074848</ele>
        <time>2022-02-24T17:14:33.493Z</time>
      </trkpt>
      <trkpt lat="36.25172" lon="33.69786">
        <ele>416.241418</ele>
        <time>2022-02-24T17:14:42.257Z</time>
      </trkpt>
      <trkpt lat="36.25136" lon="33.69746">
        <ele>413.385244</ele>
        <time>2022-02-24T17:14:50.753Z</time>
      </trkpt>
      <trkpt lat="36.25089" lon="33.69718">
        <ele>409.97491</ele>
        <time>2022-02-24T17:14:59.672Z</time>
      </trkpt>
      <trkpt lat="36.25046" lon="33.69677">
        <ele>404.361371</ele>
        <time>2022-02-24T17:15:08.612Z</time>
      </trkpt>
      <trkpt lat="36.25006" lon="33.69622">
        <ele>398.161341</ele>
        <time>2022-02-24T17:15:18.262Z</time>
      </trkpt>
      <trkpt lat="36.2497" lon="33.69516">
        <ele>387.995567</ele>
        <time>2022-02-24T17:15:32.913Z</time>
      </trkpt>
      <trkpt lat="36.24955" lon="33.69492">
        <ele>384.902926</ele>
        <time>2022-02-24T17:15:36.923Z</time>
      </trkpt>
      <trkpt lat="36.24917" lon="33.69474">
        <ele>380.002453</ele>
        <time>2022-02-24T17:15:43.266Z</time>
      </trkpt>
      <trkpt lat="36.2487" lon="33.69411">
        <ele>371.496583</ele>
        <time>2022-02-24T17:15:54.293Z</time>
      </trkpt>
      <trkpt lat="36.2485" lon="33.69392">
        <ele>368.563941</ele>
        <time>2022-02-24T17:15:58.343Z</time>
      </trkpt>
      <trkpt lat="36.24831" lon="33.69384">
        <ele>366.365142</ele>
        <time>2022-02-24T17:16:01.574Z</time>
      </trkpt>
      <trkpt lat="36.24807" lon="33.69388">
        <ele>363.734674</ele>
        <time>2022-02-24T17:16:05.474Z</time>
      </trkpt>
      <trkpt lat="36.24783" lon="33.694">
        <ele>360.874582</ele>
        <time>2022-02-24T17:16:09.723Z</time>
      </trkpt>
      <trkpt lat="36.2475" lon="33.69405">
        <ele>357.251536</ele>
        <time>2022-02-24T17:16:15.106Z</time>
      </trkpt>
      <trkpt lat="36.24719" lon="33.69402">
        <ele>353.821079</ele>
        <time>2022-02-24T17:16:20.205Z</time>
      </trkpt>
      <trkpt lat="36.24651" lon="33.69376">
        <ele>345.952696</ele>
        <time>2022-02-24T17:16:31.610Z</time>
      </trkpt>
      <trkpt lat="36.24572" lon="33.69392">
        <ele>336.858526</ele>
        <time>2022-02-24T17:16:44.571Z</time>
      </trkpt>
      <trkpt lat="36.24544" lon="33.69388">
        <ele>333.595841</ele>
        <time>2022-02-24T17:16:49.183Z</time>
      </trkpt>
      <trkpt lat="36.24478" lon="33.69336">
        <ele>323.678461</ele>
        <time>2022-02-24T17:17:01.539Z</time>
      </trkpt>
      <trkpt lat="36.24454" lon="33.69307">
        <ele>319.106984</ele>
        <time>2022-02-24T17:17:06.789Z</time>
      </trkpt>
      <trkpt lat="36.2443" lon="33.69265">
        <ele>313.428941</ele>
        <time>2022-02-24T17:17:13.298Z</time>
      </trkpt>
      <trkpt lat="36.24378" lon="33.69206">
        <ele>303.568131</ele>
        <time>2022-02-24T17:17:24.411Z</time>
      </trkpt>
      <trkpt lat="36.24322" lon="33.6916">
        <ele>293.589723</ele>
        <time>2022-02-24T17:17:34.834Z</time>
      </trkpt>
      <trkpt lat="36.24307" lon="33.69155">
        <ele>291.209963</ele>
        <time>2022-02-24T17:17:37.319Z</time>
      </trkpt>
      <trkpt lat="36.24259" lon="33.69169">
        <ele>283.90686</ele>
        <time>2022-02-24T17:17:44.950Z</time>
      </trkpt>
      <trkpt lat="36.24238" lon="33.69165">
        <ele>280.709554</ele>
        <time>2022-02-24T17:17:48.286Z</time>
      </trkpt>
      <trkpt lat="36.2422" lon="33.6917">
        <ele>278.034356</ele>
        <time>2022-02-24T17:17:51.098Z</time>
      </trkpt>
      <trkpt lat="36.24196" lon="33.69184">
        <ele>274.316019</ele>
        <time>2022-02-24T17:17:55.204Z</time>
      </trkpt>
      <trkpt lat="36.24108" lon="33.69255">
        <ele>259.398101</ele>
        <time>2022-02-24T17:18:11.702Z</time>
      </trkpt>
      <trkpt lat="36.2408" lon="33.69265">
        <ele>255.231105</ele>
        <time>2022-02-24T17:18:16.313Z</time>
      </trkpt>
      <trkpt lat="36.24054" lon="33.69285">
        <ele>251.515882</ele>
        <time>2022-02-24T17:18:21.052Z</time>
      </trkpt>
      <trkpt lat="36.24043" lon="33.69304">
        <ele>249.507126</ele>
        <time>2022-02-24T17:18:24.070Z</time>
      </trkpt>
      <trkpt lat="36.24042" lon="33.69326">
        <ele>247.660468</ele>
        <time>2022-02-24T17:18:26.864Z</time>
      </trkpt>
      <trkpt lat="36.24089" lon="33.69414">
        <ele>238.692639</ele>
        <time>2022-02-24T17:18:40.667Z</time>
      </trkpt>
      <trkpt lat="36.24032" lon="33.69571">
        <ele>226.507586</ele>
        <time>2022-02-24T17:19:04.029Z</time>
      </trkpt>
      <trkpt lat="36.24037" lon="33.69656">
        <ele>221.065165</ele>
        <time>2022-02-24T17:19:15.759Z</time>
      </trkpt>
      <trkpt lat="36.24033" lon="33.69681">
        <ele>219.399619</ele>
        <time>2022-02-24T17:19:19.220Z</time>
      </trkpt>
      <trkpt lat="36.24021" lon="33.69719">
        <ele>216.44668</ele>
        <time>2022-02-24T17:19:24.788Z</time>
      </trkpt>
      <trkpt lat="36.23891" lon="33.69978">
        <ele>193.829534</ele>
        <time>2022-02-24T17:20:05.290Z</time>
      </trkpt>
      <trkpt lat="36.23883" lon="33.7001">
        <ele>191.262388</ele>
        <time>2022-02-24T17:20:09.711Z</time>
      </trkpt>
      <trkpt lat="36.23878" lon="33.70068">
        <ele>186.733563</ele>
        <time>2022-02-24T17:20:17.432Z</time>
      </trkpt>
      <trkpt lat="36.23884" lon="33.70089">
        <ele>185.083701</ele>
        <time>2022-02-24T17:20:20.334Z</time>
      </trkpt>
      <trkpt lat="36.23903" lon="33.70122">
        <ele>182.076692</ele>
        <time>2022-02-24T17:20:25.683Z</time>
      </trkpt>
      <trkpt lat="36.23915" lon="33.70162">
        <ele>178.859356</ele>
        <time>2022-02-24T17:20:31.426Z</time>
      </trkpt>
      <trkpt lat="36.23922" lon="33.70181">
        <ele>177.321931</ele>
        <time>2022-02-24T17:20:34.225Z</time>
      </trkpt>
      <trkpt lat="36.23907" lon="33.70182">
        <ele>175.881932</ele>
        <time>2022-02-24T17:20:36.766Z</time>
      </trkpt>
      <trkpt lat="36.23893" lon="33.70178">
        <ele>174.593102</ele>
        <time>2022-02-24T17:20:39.118Z</time>
      </trkpt>
      <trkpt lat="36.23881" lon="33.70164">
        <ele>173.056662</ele>
        <time>2022-02-24T17:20:41.872Z</time>
      </trkpt>
      <trkpt lat="36.2385" lon="33.7011">
        <ele>168.330199</ele>
        <time>2022-02-24T17:20:50.825Z</time>
      </trkpt>
      <trkpt lat="36.23836" lon="33.70042">
        <ele>163.758526</ele>
        <time>2022-02-24T17:21:00.147Z</time>
      </trkpt>
      <trkpt lat="36.23784" lon="33.69923">
        <ele>154.897695</ele>
        <time>2022-02-24T17:21:18.640Z</time>
      </trkpt>
      <trkpt lat="36.23782" lon="33.69905">
        <ele>153.777648</ele>
        <time>2022-02-24T17:21:21.056Z</time>
      </trkpt>
      <trkpt lat="36.23804" lon="33.69825">
        <ele>148.384778</ele>
        <time>2022-02-24T17:21:32.753Z</time>
      </trkpt>
      <trkpt lat="36.23802" lon="33.69754">
        <ele>143.879227</ele>
        <time>2022-02-24T17:21:42.341Z</time>
      </trkpt>
      <trkpt lat="36.23814" lon="33.69724">
        <ele>141.723288</ele>
        <time>2022-02-24T17:21:46.852Z</time>
      </trkpt>
      <trkpt lat="36.23821" lon="33.69674">
        <ele>138.236052</ele>
        <time>2022-02-24T17:21:53.626Z</time>
      </trkpt>
      <trkpt lat="36.23822" lon="33.69658">
        <ele>137.048699</ele>
        <time>2022-02-24T17:21:55.869Z</time>
      </trkpt>
      <trkpt lat="36.23814" lon="33.69621">
        <ele>134.357719</ele>
        <time>2022-02-24T17:22:01.069Z</time>
      </trkpt>
      <trkpt lat="36.2381" lon="33.69613">
        <ele>133.721459</ele>
        <time>2022-02-24T17:22:02.225Z</time>
      </trkpt>
      <trkpt lat="36.23806" lon="33.69585">
        <ele>131.69904</ele>
        <time>2022-02-24T17:22:06.136Z</time>
      </trkpt>
      <trkpt lat="36.23806" lon="33.69451">
        <ele>122.454952</ele>
        <time>2022-02-24T17:22:23.953Z</time>
      </trkpt>
      <trkpt lat="36.23779" lon="33.69393">
        <ele>117.928942</ele>
        <time>2022-02-24T17:22:33.011Z</time>
      </trkpt>
      <trkpt lat="36.23709" lon="33.69334">
        <ele>110.959941</ele>
        <time>2022-02-24T17:22:47.261Z</time>
      </trkpt>
      <trkpt lat="36.23692" lon="33.69311">
        <ele>109.249033</ele>
        <time>2022-02-24T17:22:51.565Z</time>
      </trkpt>
      <trkpt lat="36.23661" lon="33.69244">
        <ele>105.296686</ele>
        <time>2022-02-24T17:23:02.199Z</time>
      </trkpt>
      <trkpt lat="36.23642" lon="33.69181">
        <ele>101.814119</ele>
        <time>2022-02-24T17:23:11.762Z</time>
      </trkpt>
      <trkpt lat="36.23629" lon="33.69085">
        <ele>97.555459</ele>
        <time>2022-02-24T17:23:25.836Z</time>
      </trkpt>
      <trkpt lat="36.236" lon="33.69033">
        <ele>95.338167</ele>
        <time>2022-02-24T17:23:35.378Z</time>
      </trkpt>
      <trkpt lat="36.23541" lon="33.68851">
        <ele>89.387513</ele>
        <time>2022-02-24T17:24:05.459Z</time>
      </trkpt>
      <trkpt lat="36.23533" lon="33.68808">
        <ele>88.324019</ele>
        <time>2022-02-24T17:24:12.376Z</time>
      </trkpt>
      <trkpt lat="36.23515" lon="33.68802">
        <ele>87.766549</ele>
        <time>2022-02-24T17:24:16.232Z</time>
      </trkpt>
      <trkpt lat="36.23475" lon="33.68827">
        <ele>86.40793</ele>
        <time>2022-02-24T17:24:25.629Z</time>
      </trkpt>
      <trkpt lat="36.2347" lon="33.68828">
        <ele>86.269454</ele>
        <time>2022-02-24T17:24:26.429Z</time>
      </trkpt>
      <trkpt lat="36.23463" lon="33.68805">
        <ele>85.736716</ele>
        <time>2022-02-24T17:24:30.593Z</time>
      </trkpt>
      <trkpt lat="36.23458" lon="33.68784">
        <ele>85.342645</ele>
        <time>2022-02-24T17:24:34.148Z</time>
      </trkpt>
      <trkpt lat="36.23448" lon="33.68742">
        <ele>84.544509</ele>
        <time>2022-02-24T17:24:41.531Z</time>
      </trkpt>
      <trkpt lat="36.23415" lon="33.6866">
        <ele>82.886864</ele>
        <time>2022-02-24T17:24:56.821Z</time>
      </trkpt>
      <trkpt lat="36.23411" lon="33.68641">
        <ele>82.529467</ele>
        <time>2022-02-24T17:25:00.089Z</time>
      </trkpt>
      <trkpt lat="36.23376" lon="33.68644">
        <ele>81.70822</ele>
        <time>2022-02-24T17:25:07.616Z</time>
      </trkpt>
      <trkpt lat="36.23339" lon="33.68608">
        <ele>80.406433</ele>
        <time>2022-02-24T17:25:17.373Z</time>
      </trkpt>
      <trkpt lat="36.23325" lon="33.68602">
        <ele>79.9918</ele>
        <time>2022-02-24T17:25:20.413Z</time>
      </trkpt>
      <trkpt lat="36.23202" lon="33.68583">
        <ele>76.486604</ele>
        <time>2022-02-24T17:25:44.669Z</time>
      </trkpt>
      <trkpt lat="36.2319" lon="33.68577">
        <ele>76.051139</ele>
        <time>2022-02-24T17:25:47.303Z</time>
      </trkpt>
      <trkpt lat="36.23141" lon="33.68535">
        <ele>74.142377</ele>
        <time>2022-02-24T17:25:58.865Z</time>
      </trkpt>
      <trkpt lat="36.23131" lon="33.68518">
        <ele>73.618067</ele>
        <time>2022-02-24T17:26:02.064Z</time>
      </trkpt>
      <trkpt lat="36.23123" lon="33.68499">
        <ele>73.05625</ele>
        <time>2022-02-24T17:26:05.486Z</time>
      </trkpt>
      <trkpt lat="36.23123" lon="33.68442">
        <ele>71.591351</ele>
        <time>2022-02-24T17:26:14.474Z</time>
      </trkpt>
      <trkpt lat="36.23093" lon="33.68387">
        <ele>70.185059</ele>
        <time>2022-02-24T17:26:25.077Z</time>
      </trkpt>
      <trkpt lat="36.22963" lon="33.68355">
        <ele>67.012967</ele>
        <time>2022-02-24T17:26:52.208Z</time>
      </trkpt>
      <trkpt lat="36.22945" lon="33.68339">
        <ele>66.692755</ele>
        <time>2022-02-24T17:26:57.128Z</time>
      </trkpt>
      <trkpt lat="36.22919" lon="33.68208">
        <ele>65.871087</ele>
        <time>2022-02-24T17:27:22.408Z</time>
      </trkpt>
      <trkpt lat="36.2291" lon="33.68187">
        <ele>65.725178</ele>
        <time>2022-02-24T17:27:27.362Z</time>
      </trkpt>
      <trkpt lat="36.22871" lon="33.68142">
        <ele>65.504662</ele>
        <time>2022-02-24T17:27:41.901Z</time>
      </trkpt>
      <trkpt lat="36.2285" lon="33.68093">
        <ele>65.726107</ele>
        <time>2022-02-24T17:27:54.684Z</time>
      </trkpt>
      <trkpt lat="36.22799" lon="33.67994">
        <ele>66.194339</ele>
        <time>2022-02-24T17:28:23.010Z</time>
      </trkpt>
      <trkpt lat="36.22711" lon="33.67917">
        <ele>66.588949</ele>
        <time>2022-02-24T17:28:54.858Z</time>
      </trkpt>
      <trkpt lat="36.22676" lon="33.67819">
        <ele>66.8709</ele>
        <time>2022-02-24T17:29:18.870Z</time>
      </trkpt>
      <trkpt lat="36.22613" lon="33.67709">
        <ele>66.666501</ele>
        <time>2022-02-24T17:29:46.892Z</time>
      </trkpt>
      <trkpt lat="36.22593" lon="33.67665">
        <ele>66.564257</ele>
        <time>2022-02-24T17:29:57.092Z</time>
      </trkpt>
      <trkpt lat="36.22558" lon="33.67619">
        <ele>66.499656</ele>
        <time>2022-02-24T17:30:09.696Z</time>
      </trkpt>
      <trkpt lat="36.22534" lon="33.67597">
        <ele>66.616099</ele>
        <time>2022-02-24T17:30:17.198Z</time>
      </trkpt>
      <trkpt lat="36.22509" lon="33.67582">
        <ele>66.727115</ele>
        <time>2022-02-24T17:30:24.526Z</time>
      </trkpt>
      <trkpt lat="36.22463" lon="33.67542">
        <ele>66.951368</ele>
        <time>2022-02-24T17:30:40.409Z</time>
      </trkpt>
      <trkpt lat="36.22378" lon="33.67488">
        <ele>68.076816</ele>
        <time>2022-02-24T17:31:10.966Z</time>
      </trkpt>
      <trkpt lat="36.22287" lon="33.67405">
        <ele>70.710999</ele>
        <time>2022-02-24T17:31:54.639Z</time>
      </trkpt>
      <trkpt lat="36.22273" lon="33.67391">
        <ele>71.142508</ele>
        <time>2022-02-24T17:32:02.363Z</time>
      </trkpt>
      <trkpt lat="36.22209" lon="33.67295">
        <ele>74.424252</ele>
        <time>2022-02-24T17:32:45.697Z</time>
      </trkpt>
      <trkpt lat="36.22186" lon="33.67153">
        <ele>78.234241</ele>
        <time>2022-02-24T17:33:36.800Z</time>
      </trkpt>
      <trkpt lat="36.22176" lon="33.6714">
        <ele>78.633522</ele>
        <time>2022-02-24T17:33:42.901Z</time>
      </trkpt>
      <trkpt lat="36.22142" lon="33.67123">
        <ele>79.622012</ele>
        <time>2022-02-24T17:33:57.823Z</time>
      </trkpt>
      <trkpt lat="36.22134" lon="33.67112">
        <ele>79.951035</ele>
        <time>2022-02-24T17:34:02.664Z</time>
      </trkpt>
      <trkpt lat="36.22114" lon="33.67052">
        <ele>81.381972</ele>
        <time>2022-02-24T17:34:23.116Z</time>
      </trkpt>
      <trkpt lat="36.22082" lon="33.67003">
        <ele>82.51087</ele>
        <time>2022-02-24T17:34:41.892Z</time>
      </trkpt>
      <trkpt lat="36.2206" lon="33.66956">
        <ele>82.855445</ele>
        <time>2022-02-24T17:34:57.143Z</time>
      </trkpt>
      <trkpt lat="36.22031" lon="33.66857">
        <ele>83.529799</ele>
        <time>2022-02-24T17:35:24.305Z</time>
      </trkpt>
      <trkpt lat="36.22016" lon="33.667">
        <ele>81.496936</ele>
        <time>2022-02-24T17:35:52.843Z</time>
      </trkpt>
      <trkpt lat="36.22015" lon="33.66691">
        <ele>81.311976</ele>
        <time>2022-02-24T17:35:54.155Z</time>
      </trkpt>
      <trkpt lat="36.22015" lon="33.66682">
        <ele>81.122716</ele>
        <time>2022-02-24T17:35:55.569Z</time>
      </trkpt>
      <trkpt lat="36.22011" lon="33.66659">
        <ele>80.629905</ele>
        <time>2022-02-24T17:35:59.579Z</time>
      </trkpt>
      <trkpt lat="36.21996" lon="33.66664">
        <ele>80.227912</ele>
        <time>2022-02-24T17:36:02.424Z</time>
      </trkpt>
      <trkpt lat="36.21951" lon="33.66678">
        <ele>78.854166</ele>
        <time>2022-02-24T17:36:11.211Z</time>
      </trkpt>
      <trkpt lat="36.21912" lon="33.66669">
        <ele>76.759808</ele>
        <time>2022-02-24T17:36:18.274Z</time>
      </trkpt>
      <trkpt lat="36.21834" lon="33.66694">
        <ele>72.394681</ele>
        <time>2022-02-24T17:36:32.551Z</time>
      </trkpt>
      <trkpt lat="36.21787" lon="33.66696">
        <ele>69.85813</ele>
        <time>2022-02-24T17:36:40.885Z</time>
      </trkpt>
      <trkpt lat="36.21747" lon="33.66704">
        <ele>67.540289</ele>
        <time>2022-02-24T17:36:48.166Z</time>
      </trkpt>
      <trkpt lat="36.21664" lon="33.66686">
        <ele>62.747238</ele>
        <time>2022-02-24T17:37:03.091Z</time>
      </trkpt>
      <trkpt lat="36.21609" lon="33.66689">
        <ele>59.63061</ele>
        <time>2022-02-24T17:37:12.870Z</time>
      </trkpt>
      <trkpt lat="36.21591" lon="33.66686">
        <ele>58.726773</ele>
        <time>2022-02-24T17:37:16.026Z</time>
      </trkpt>
      <trkpt lat="36.21559" lon="33.66662">
        <ele>56.899781</ele>
        <time>2022-02-24T17:37:22.827Z</time>
      </trkpt>
      <trkpt lat="36.21482" lon="33.66625">
        <ele>52.906879</ele>
        <time>2022-02-24T17:37:37.833Z</time>
      </trkpt>
      <trkpt lat="36.21453" lon="33.66621">
        <ele>51.491297</ele>
        <time>2022-02-24T17:37:43.173Z</time>
      </trkpt>
      <trkpt lat="36.21395" lon="33.66628">
        <ele>49.433935</ele>
        <time>2022-02-24T17:37:53.991Z</time>
      </trkpt>
      <trkpt lat="36.2131" lon="33.66626">
        <ele>46.932383</ele>
        <time>2022-02-24T17:38:10.694Z</time>
      </trkpt>
      <trkpt lat="36.21307" lon="33.66619">
        <ele>46.77094</ele>
        <time>2022-02-24T17:38:11.842Z</time>
      </trkpt>
      <trkpt lat="36.21266" lon="33.66498">
        <ele>45.930594</ele>
        <time>2022-02-24T17:38:35.469Z</time>
      </trkpt>
      <trkpt lat="36.21024" lon="33.65762">
        <ele>52.494062</ele>
        <time>2022-02-24T17:42:09.802Z</time>
      </trkpt>
      <trkpt lat="36.20814" lon="33.65165">
        <ele>45.019607</ele>
        <time>2022-02-24T17:44:04.715Z</time>
      </trkpt>
      <trkpt lat="36.2072" lon="33.6494">
        <ele>42.135295</ele>
        <time>2022-02-24T17:44:48.561Z</time>
      </trkpt>
      <trkpt lat="36.20657" lon="33.64776">
        <ele>43.58763</ele>
        <time>2022-02-24T17:45:34.376Z</time>
      </trkpt>
      <trkpt lat="36.20624" lon="33.64698">
        <ele>44.903991</ele>
        <time>2022-02-24T17:46:02.299Z</time>
      </trkpt>
      <trkpt lat="36.20562" lon="33.64584">
        <ele>48.193735</ele>
        <time>2022-02-24T17:46:47.194Z</time>
      </trkpt>
      <trkpt lat="36.20452" lon="33.64396">
        <ele>54.926593</ele>
        <time>2022-02-24T17:48:09.205Z</time>
      </trkpt>
      <trkpt lat="36.20376" lon="33.64246">
        <ele>60.481992</ele>
        <time>2022-02-24T17:49:18.046Z</time>
      </trkpt>
      <trkpt lat="36.20257" lon="33.64027">
        <ele>66.789406</ele>
        <time>2022-02-24T17:50:48.512Z</time>
      </trkpt>
      <trkpt lat="36.20222" lon="33.6397">
        <ele>67.753676</ele>
        <time>2022-02-24T17:51:04.387Z</time>
      </trkpt>
      <trkpt lat="36.20196" lon="33.63929">
        <ele>67.819664</ele>
        <time>2022-02-24T17:51:15.734Z</time>
      </trkpt>
      <trkpt lat="36.20184" lon="33.63906">
        <ele>67.854391</ele>
        <time>2022-02-24T17:51:21.757Z</time>
      </trkpt>
      <trkpt lat="36.20158" lon="33.63858">
        <ele>67.927705</ele>
        <time>2022-02-24T17:51:33.662Z</time>
      </trkpt>
      <trkpt lat="36.20094" lon="33.63744">
        <ele>68.747121</ele>
        <time>2022-02-24T17:52:03.896Z</time>
      </trkpt>
      <trkpt lat="36.1992" lon="33.63399">
        <ele>73.763693</ele>
        <time>2022-02-24T17:53:59.944Z</time>
      </trkpt>
      <trkpt lat="36.19861" lon="33.63254">
        <ele>75.466498</ele>
        <time>2022-02-24T17:54:42.122Z</time>
      </trkpt>
      <trkpt lat="36.19776" lon="33.6303">
        <ele>77.876154</ele>
        <time>2022-02-24T17:55:48.590Z</time>
      </trkpt>
      <trkpt lat="36.19669" lon="33.62667">
        <ele>75.352468</ele>
        <time>2022-02-24T17:57:11.844Z</time>
      </trkpt>
      <trkpt lat="36.19607" lon="33.62417">
        <ele>64.069195</ele>
        <time>2022-02-24T17:57:47.827Z</time>
      </trkpt>
      <trkpt lat="36.1954" lon="33.62176">
        <ele>60.375101</ele>
        <time>2022-02-24T17:58:32.260Z</time>
      </trkpt>
      <trkpt lat="36.19461" lon="33.61923">
        <ele>64.316336</ele>
        <time>2022-02-24T18:00:08.236Z</time>
      </trkpt>
      <trkpt lat="36.19425" lon="33.61834">
        <ele>63.575261</ele>
        <time>2022-02-24T18:00:25.343Z</time>
      </trkpt>
      <trkpt lat="36.19416" lon="33.61807">
        <ele>63.358687</ele>
        <time>2022-02-24T18:00:29.674Z</time>
      </trkpt>
      <trkpt lat="36.19403" lon="33.61775">
        <ele>63.022816</ele>
        <time>2022-02-24T18:00:34.879Z</time>
      </trkpt>
      <trkpt lat="36.19192" lon="33.61346">
        <ele>51.929334</ele>
        <time>2022-02-24T18:01:53.807Z</time>
      </trkpt>
      <trkpt lat="36.1919" lon="33.61311">
        <ele>52.309404</ele>
        <time>2022-02-24T18:02:07.209Z</time>
      </trkpt>
      <trkpt lat="36.19162" lon="33.61246">
        <ele>53.087122</ele>
        <time>2022-02-24T18:02:36.245Z</time>
      </trkpt>
      <trkpt lat="36.19141" lon="33.61244">
        <ele>53.374042</ele>
        <time>2022-02-24T18:02:47.878Z</time>
      </trkpt>
      <trkpt lat="36.1909" lon="33.6115">
        <ele>55.700912</ele>
        <time>2022-02-24T18:03:30.522Z</time>
      </trkpt>
      <trkpt lat="36.18989" lon="33.61003">
        <ele>59.776936</ele>
        <time>2022-02-24T18:04:29.154Z</time>
      </trkpt>
      <trkpt lat="36.18938" lon="33.60943">
        <ele>61.087572</ele>
        <time>2022-02-24T18:04:51.983Z</time>
      </trkpt>
      <trkpt lat="36.18879" lon="33.60885">
        <ele>62.565791</ele>
        <time>2022-02-24T18:05:19.137Z</time>
      </trkpt>
      <trkpt lat="36.18818" lon="33.60804">
        <ele>64.618104</ele>
        <time>2022-02-24T18:05:55.741Z</time>
      </trkpt>
      <trkpt lat="36.18787" lon="33.60748">
        <ele>65.867834</ele>
        <time>2022-02-24T18:06:19.855Z</time>
      </trkpt>
      <trkpt lat="36.18724" lon="33.60598">
        <ele>64.842437</ele>
        <time>2022-02-24T18:06:54.368Z</time>
      </trkpt>
      <trkpt lat="36.18721" lon="33.60594">
        <ele>64.788209</ele>
        <time>2022-02-24T18:06:57.541Z</time>
      </trkpt>
      <trkpt lat="36.18719" lon="33.60592">
        <ele>64.749609</ele>
        <time>2022-02-24T18:06:57.956Z</time>
      </trkpt>
      <trkpt lat="36.18704" lon="33.60588">
        <ele>64.528646</ele>
        <time>2022-02-24T18:07:00.732Z</time>
      </trkpt>
      <trkpt lat="36.18696" lon="33.60596">
        <ele>64.377651</ele>
        <time>2022-02-24T18:07:03.213Z</time>
      </trkpt>
      <trkpt lat="36.18693" lon="33.60609">
        <ele>64.226185</ele>
        <time>2022-02-24T18:07:05.697Z</time>
      </trkpt>
      <trkpt lat="36.18694" lon="33.60615">
        <ele>64.153393</ele>
        <time>2022-02-24T18:07:06.524Z</time>
      </trkpt>
      <trkpt lat="36.18683" lon="33.60624">
        <ele>63.959754</ele>
        <time>2022-02-24T18:07:09.039Z</time>
      </trkpt>
      <trkpt lat="36.18655" lon="33.60624">
        <ele>63.186728</ele>
        <time>2022-02-24T18:07:14.359Z</time>
      </trkpt>
      <trkpt lat="36.18633" lon="33.6061">
        <ele>62.444018</ele>
        <time>2022-02-24T18:07:19.230Z</time>
      </trkpt>
      <trkpt lat="36.18621" lon="33.60593">
        <ele>61.880749</ele>
        <time>2022-02-24T18:07:22.384Z</time>
      </trkpt>
      <trkpt lat="36.18588" lon="33.60487">
        <ele>59.081724</ele>
        <time>2022-02-24T18:07:39.879Z</time>
      </trkpt>
      <trkpt lat="36.18563" lon="33.60438">
        <ele>58.888253</ele>
        <time>2022-02-24T18:07:53.061Z</time>
      </trkpt>
      <trkpt lat="36.18528" lon="33.6039">
        <ele>59.943493</ele>
        <time>2022-02-24T18:08:09.923Z</time>
      </trkpt>
      <trkpt lat="36.18462" lon="33.60321">
        <ele>61.720634</ele>
        <time>2022-02-24T18:08:45.654Z</time>
      </trkpt>
      <trkpt lat="36.18423" lon="33.60268">
        <ele>63.663999</ele>
        <time>2022-02-24T18:09:13.467Z</time>
      </trkpt>
      <trkpt lat="36.18387" lon="33.60208">
        <ele>66.005539</ele>
        <time>2022-02-24T18:09:42.087Z</time>
      </trkpt>
      <trkpt lat="36.18353" lon="33.60131">
        <ele>68.738876</ele>
        <time>2022-02-24T18:10:14.732Z</time>
      </trkpt>
      <trkpt lat="36.18326" lon="33.60046">
        <ele>69.088478</ele>
        <time>2022-02-24T18:10:43.937Z</time>
      </trkpt>
      <trkpt lat="36.18314" lon="33.60021">
        <ele>69.102022</ele>
        <time>2022-02-24T18:10:51.045Z</time>
      </trkpt>
      <trkpt lat="36.1829" lon="33.60004">
        <ele>69.118523</ele>
        <time>2022-02-24T18:10:58.325Z</time>
      </trkpt>
      <trkpt lat="36.18268" lon="33.59996">
        <ele>69.131882</ele>
        <time>2022-02-24T18:11:03.287Z</time>
      </trkpt>
      <trkpt lat="36.18207" lon="33.59994">
        <ele>68.077993</ele>
        <time>2022-02-24T18:11:14.975Z</time>
      </trkpt>
      <trkpt lat="36.18195" lon="33.59981">
        <ele>67.222182</ele>
        <time>2022-02-24T18:11:18.026Z</time>
      </trkpt>
      <trkpt lat="36.18176" lon="33.59939">
        <ele>65.187519</ele>
        <time>2022-02-24T18:11:25.023Z</time>
      </trkpt>
      <trkpt lat="36.18129" lon="33.59892">
        <ele>62.042587</ele>
        <time>2022-02-24T18:11:35.592Z</time>
      </trkpt>
      <trkpt lat="36.18118" lon="33.59874">
        <ele>61.078573</ele>
        <time>2022-02-24T18:11:38.827Z</time>
      </trkpt>
      <trkpt lat="36.18108" lon="33.5984">
        <ele>59.504771</ele>
        <time>2022-02-24T18:11:44.055Z</time>
      </trkpt>
      <trkpt lat="36.18095" lon="33.59821">
        <ele>58.331733</ele>
        <time>2022-02-24T18:11:47.550Z</time>
      </trkpt>
      <trkpt lat="36.18074" lon="33.59807">
        <ele>56.959472</ele>
        <time>2022-02-24T18:11:51.634Z</time>
      </trkpt>
      <trkpt lat="36.17996" lon="33.59708">
        <ele>50.456268</ele>
        <time>2022-02-24T18:12:11.269Z</time>
      </trkpt>
      <trkpt lat="36.17988" lon="33.59684">
        <ele>49.246204</ele>
        <time>2022-02-24T18:12:14.995Z</time>
      </trkpt>
      <trkpt lat="36.17985" lon="33.59626">
        <ele>47.717471</ele>
        <time>2022-02-24T18:12:23.652Z</time>
      </trkpt>
      <trkpt lat="36.1797" lon="33.596">
        <ele>46.878139</ele>
        <time>2022-02-24T18:12:28.467Z</time>
      </trkpt>
      <trkpt lat="36.17945" lon="33.59577">
        <ele>45.873925</ele>
        <time>2022-02-24T18:12:34.254Z</time>
      </trkpt>
      <trkpt lat="36.17902" lon="33.59557">
        <ele>44.393122</ele>
        <time>2022-02-24T18:12:43.236Z</time>
      </trkpt>
      <trkpt lat="36.17863" lon="33.59528">
        <ele>44.053788</ele>
        <time>2022-02-24T18:12:54.220Z</time>
      </trkpt>
      <trkpt lat="36.17809" lon="33.59472">
        <ele>46.803371</ele>
        <time>2022-02-24T18:13:22.310Z</time>
      </trkpt>
      <trkpt lat="36.17775" lon="33.59425">
        <ele>48.804365</ele>
        <time>2022-02-24T18:13:49.977Z</time>
      </trkpt>
      <trkpt lat="36.17732" lon="33.59348">
        <ele>51.798566</ele>
        <time>2022-02-24T18:14:35.799Z</time>
      </trkpt>
      <trkpt lat="36.17729" lon="33.59329">
        <ele>52.429421</ele>
        <time>2022-02-24T18:14:45.009Z</time>
      </trkpt>
      <trkpt lat="36.17732" lon="33.59312">
        <ele>52.98991</ele>
        <time>2022-02-24T18:14:53.496Z</time>
      </trkpt>
      <trkpt lat="36.17746" lon="33.59296">
        <ele>53.765715</ele>
        <time>2022-02-24T18:15:04.728Z</time>
      </trkpt>
      <trkpt lat="36.1775" lon="33.59283">
        <ele>54.209281</ele>
        <time>2022-02-24T18:15:10.450Z</time>
      </trkpt>
      <trkpt lat="36.17747" lon="33.59269">
        <ele>54.699393</ele>
        <time>2022-02-24T18:15:16.240Z</time>
      </trkpt>
      <trkpt lat="36.17731" lon="33.59236">
        <ele>55.958481</ele>
        <time>2022-02-24T18:15:28.641Z</time>
      </trkpt>
      <trkpt lat="36.17719" lon="33.59179">
        <ele>57.695059</ele>
        <time>2022-02-24T18:15:42.336Z</time>
      </trkpt>
      <trkpt lat="36.17689" lon="33.5913">
        <ele>57.117886</ele>
        <time>2022-02-24T18:15:54.077Z</time>
      </trkpt>
      <trkpt lat="36.17662" lon="33.59061">
        <ele>56.402091</ele>
        <time>2022-02-24T18:16:06.835Z</time>
      </trkpt>
      <trkpt lat="36.17642" lon="33.59031">
        <ele>56.034143</ele>
        <time>2022-02-24T18:16:13.276Z</time>
      </trkpt>
      <trkpt lat="36.17485" lon="33.58945">
        <ele>55.528294</ele>
        <time>2022-02-24T18:16:56.078Z</time>
      </trkpt>
      <trkpt lat="36.17418" lon="33.58899">
        <ele>55.602468</ele>
        <time>2022-02-24T18:17:21.551Z</time>
      </trkpt>
      <trkpt lat="36.17368" lon="33.58882">
        <ele>55.763295</ele>
        <time>2022-02-24T18:17:36.648Z</time>
      </trkpt>
      <trkpt lat="36.17339" lon="33.58882">
        <ele>55.854814</ele>
        <time>2022-02-24T18:17:44.669Z</time>
      </trkpt>
      <trkpt lat="36.17281" lon="33.58906">
        <ele>56.046388</ele>
        <time>2022-02-24T18:18:00.007Z</time>
      </trkpt>
      <trkpt lat="36.17242" lon="33.58906">
        <ele>56.476941</ele>
        <time>2022-02-24T18:18:09.378Z</time>
      </trkpt>
      <trkpt lat="36.17154" lon="33.58854">
        <ele>57.619446</ele>
        <time>2022-02-24T18:18:38.512Z</time>
      </trkpt>
      <trkpt lat="36.17137" lon="33.58827">
        <ele>57.939593</ele>
        <time>2022-02-24T18:18:48.949Z</time>
      </trkpt>
      <trkpt lat="36.17134" lon="33.588">
        <ele>58.364262</ele>
        <time>2022-02-24T18:18:57.940Z</time>
      </trkpt>
      <trkpt lat="36.17138" lon="33.58707">
        <ele>63.411117</ele>
        <time>2022-02-24T18:19:35.483Z</time>
      </trkpt>
      <trkpt lat="36.17127" lon="33.58665">
        <ele>65.776803</ele>
        <time>2022-02-24T18:19:57.062Z</time>
      </trkpt>
      <trkpt lat="36.1706" lon="33.58579">
        <ele>73.070721</ele>
        <time>2022-02-24T18:21:06.304Z</time>
      </trkpt>
      <trkpt lat="36.16973" lon="33.58479">
        <ele>84.457991</ele>
        <time>2022-02-24T18:22:38.441Z</time>
      </trkpt>
      <trkpt lat="36.16945" lon="33.58462">
        <ele>87.348178</ele>
        <time>2022-02-24T18:23:01.695Z</time>
      </trkpt>
      <trkpt lat="36.16908" lon="33.58455">
        <ele>88.18735</ele>
        <time>2022-02-24T18:23:23.329Z</time>
      </trkpt>
      <trkpt lat="36.16823" lon="33.58473">
        <ele>90.13583</ele>
        <time>2022-02-24T18:23:57.675Z</time>
      </trkpt>
      <trkpt lat="36.16795" lon="33.58471">
        <ele>90.779188</ele>
        <time>2022-02-24T18:24:04.395Z</time>
      </trkpt>
      <trkpt lat="36.16767" lon="33.58463">
        <ele>91.318404</ele>
        <time>2022-02-24T18:24:09.851Z</time>
      </trkpt>
      <trkpt lat="36.1675" lon="33.58449">
        <ele>90.087466</ele>
        <time>2022-02-24T18:24:13.768Z</time>
      </trkpt>
      <trkpt lat="36.16729" lon="33.58418">
        <ele>88.166541</ele>
        <time>2022-02-24T18:24:19.594Z</time>
      </trkpt>
      <trkpt lat="36.16723" lon="33.5831">
        <ele>82.989474</ele>
        <time>2022-02-24T18:24:34.436Z</time>
      </trkpt>
      <trkpt lat="36.16708" lon="33.58282">
        <ele>81.39962</ele>
        <time>2022-02-24T18:24:39.053Z</time>
      </trkpt>
      <trkpt lat="36.16684" lon="33.58272">
        <ele>80.142689</ele>
        <time>2022-02-24T18:24:43.457Z</time>
      </trkpt>
      <trkpt lat="36.16554" lon="33.58256">
        <ele>74.536619</ele>
        <time>2022-02-24T18:25:07.477Z</time>
      </trkpt>
      <trkpt lat="36.16448" lon="33.58224">
        <ele>71.684853</ele>
        <time>2022-02-24T18:25:31.047Z</time>
      </trkpt>
      <trkpt lat="36.16361" lon="33.58182">
        <ele>69.984112</ele>
        <time>2022-02-24T18:25:52.228Z</time>
      </trkpt>
      <trkpt lat="36.16345" lon="33.58162">
        <ele>69.285496</ele>
        <time>2022-02-24T18:25:56.973Z</time>
      </trkpt>
      <trkpt lat="36.16348" lon="33.58132">
        <ele>68.189057</ele>
        <time>2022-02-24T18:26:01.758Z</time>
      </trkpt>
      <trkpt lat="36.1638" lon="33.58043">
        <ele>64.537648</ele>
        <time>2022-02-24T18:26:16.629Z</time>
      </trkpt>
      <trkpt lat="36.16402" lon="33.58003">
        <ele>62.743478</ele>
        <time>2022-02-24T18:26:23.534Z</time>
      </trkpt>
      <trkpt lat="36.16403" lon="33.57984">
        <ele>62.03503</ele>
        <time>2022-02-24T18:26:26.198Z</time>
      </trkpt>
      <trkpt lat="36.16391" lon="33.57969">
        <ele>61.09425</ele>
        <time>2022-02-24T18:26:29.046Z</time>
      </trkpt>
      <trkpt lat="36.16337" lon="33.57928">
        <ele>55.837165</ele>
        <time>2022-02-24T18:26:39.768Z</time>
      </trkpt>
      <trkpt lat="36.16302" lon="33.57884">
        <ele>51.742451</ele>
        <time>2022-02-24T18:26:48.032Z</time>
      </trkpt>
      <trkpt lat="36.16297" lon="33.5785">
        <ele>49.478315</ele>
        <time>2022-02-24T18:26:52.557Z</time>
      </trkpt>
      <trkpt lat="36.16309" lon="33.57817">
        <ele>47.100109</ele>
        <time>2022-02-24T18:26:57.323Z</time>
      </trkpt>
      <trkpt lat="36.16352" lon="33.5777">
        <ele>42.031193</ele>
        <time>2022-02-24T18:27:06.895Z</time>
      </trkpt>
      <trkpt lat="36.16355" lon="33.57751">
        <ele>40.704992</ele>
        <time>2022-02-24T18:27:09.389Z</time>
      </trkpt>
      <trkpt lat="36.16308" lon="33.57645">
        <ele>32.088259</ele>
        <time>2022-02-24T18:27:25.591Z</time>
      </trkpt>
      <trkpt lat="36.16273" lon="33.57582">
        <ele>27.562761</ele>
        <time>2022-02-24T18:27:35.987Z</time>
      </trkpt>
      <trkpt lat="36.16256" lon="33.57547">
        <ele>25.333526</ele>
        <time>2022-02-24T18:27:41.523Z</time>
      </trkpt>
      <trkpt lat="36.16172" lon="33.57504">
        <ele>19.119598</ele>
        <time>2022-02-24T18:27:57.288Z</time>
      </trkpt>
      <trkpt lat="36.16047" lon="33.574">
        <ele>12.779232</ele>
        <time>2022-02-24T18:28:25.334Z</time>
      </trkpt>
      <trkpt lat="36.16009" lon="33.57355">
        <ele>11.084176</ele>
        <time>2022-02-24T18:28:35.890Z</time>
      </trkpt>
      <trkpt lat="36.15947" lon="33.57223">
        <ele>9.772509</ele>
        <time>2022-02-24T18:29:03.876Z</time>
      </trkpt>
      <trkpt lat="36.15916" lon="33.57127">
        <ele>9.529484</ele>
        <time>2022-02-24T18:29:27.864Z</time>
      </trkpt>
      <trkpt lat="36.15913" lon="33.57096">
        <ele>9.656749</ele>
        <time>2022-02-24T18:29:35.312Z</time>
      </trkpt>
      <trkpt lat="36.15927" lon="33.57061">
        <ele>9.816105</ele>
        <time>2022-02-24T18:29:44.583Z</time>
      </trkpt>
      <trkpt lat="36.15947" lon="33.57036">
        <ele>9.959584</ele>
        <time>2022-02-24T18:29:52.895Z</time>
      </trkpt>
      <trkpt lat="36.15957" lon="33.57032">
        <ele>10.010514</ele>
        <time>2022-02-24T18:29:56.097Z</time>
      </trkpt>
      <trkpt lat="36.15961" lon="33.56979">
        <ele>10.225023</ele>
        <time>2022-02-24T18:30:08.988Z</time>
      </trkpt>
      <trkpt lat="36.15989" lon="33.56895">
        <ele>10.654656</ele>
        <time>2022-02-24T18:30:31.491Z</time>
      </trkpt>
      <trkpt lat="36.16027" lon="33.56856">
        <ele>10.944624</ele>
        <time>2022-02-24T18:30:45.997Z</time>
      </trkpt>
      <trkpt lat="36.16032" lon="33.56832">
        <ele>11.065445</ele>
        <time>2022-02-24T18:30:51.973Z</time>
      </trkpt>
      <trkpt lat="36.16031" lon="33.56708">
        <ele>12.010318</ele>
        <time>2022-02-24T18:31:23.930Z</time>
      </trkpt>
      <trkpt lat="36.16037" lon="33.56667">
        <ele>12.402362</ele>
        <time>2022-02-24T18:31:35.231Z</time>
      </trkpt>
      <trkpt lat="36.16065" lon="33.5662">
        <ele>12.962414</ele>
        <time>2022-02-24T18:31:51.792Z</time>
      </trkpt>
      <trkpt lat="36.16105" lon="33.56552">
        <ele>13.824081</ele>
        <time>2022-02-24T18:32:15.230Z</time>
      </trkpt>
      <trkpt lat="36.16114" lon="33.56534">
        <ele>14.057013</ele>
        <time>2022-02-24T18:32:20.871Z</time>
      </trkpt>
      <trkpt lat="36.16121" lon="33.56523">
        <ele>14.220788</ele>
        <time>2022-02-24T18:32:25.076Z</time>
      </trkpt>
      <trkpt lat="36.16135" lon="33.56494">
        <ele>14.594102</ele>
        <time>2022-02-24T18:32:34.312Z</time>
      </trkpt>
      <trkpt lat="36.16167" lon="33.56421">
        <ele>15.53375</ele>
        <time>2022-02-24T18:32:57.387Z</time>
      </trkpt>
      <trkpt lat="36.16193" lon="33.56386">
        <ele>16.10492</ele>
        <time>2022-02-24T18:33:10.503Z</time>
      </trkpt>
      <trkpt lat="36.16236" lon="33.56343">
        <ele>17.080623</ele>
        <time>2022-02-24T18:33:29.949Z</time>
      </trkpt>
      <trkpt lat="36.16276" lon="33.5634">
        <ele>17.795243</ele>
        <time>2022-02-24T18:33:44.319Z</time>
      </trkpt>
      <trkpt lat="36.16312" lon="33.5631">
        <ele>18.573731</ele>
        <time>2022-02-24T18:34:00.432Z</time>
      </trkpt>
      <trkpt lat="36.16453" lon="33.56171">
        <ele>22.409754</ele>
        <time>2022-02-24T18:35:09.654Z</time>
      </trkpt>
      <trkpt lat="36.16524" lon="33.56078">
        <ele>24.611325</ele>
        <time>2022-02-24T18:35:49.344Z</time>
      </trkpt>
      <trkpt lat="36.16617" lon="33.55988">
        <ele>27.149788</ele>
        <time>2022-02-24T18:36:33.843Z</time>
      </trkpt>
      <trkpt lat="36.16653" lon="33.55962">
        <ele>28.151237</ele>
        <time>2022-02-24T18:36:49.365Z</time>
      </trkpt>
      <trkpt lat="36.1671" lon="33.55911">
        <ele>29.825958</ele>
        <time>2022-02-24T18:37:17.619Z</time>
      </trkpt>
      <trkpt lat="36.16736" lon="33.55897">
        <ele>30.510872</ele>
        <time>2022-02-24T18:37:29.447Z</time>
      </trkpt>
      <trkpt lat="36.16771" lon="33.55892">
        <ele>31.350287</ele>
        <time>2022-02-24T18:37:43.483Z</time>
      </trkpt>
      <trkpt lat="36.168" lon="33.55893">
        <ele>32.033893</ele>
        <time>2022-02-24T18:37:55.024Z</time>
      </trkpt>
      <trkpt lat="36.16804" lon="33.55884">
        <ele>32.229628</ele>
        <time>2022-02-24T18:37:58.709Z</time>
      </trkpt>
      <trkpt lat="36.16835" lon="33.55861">
        <ele>33.066652</ele>
        <time>2022-02-24T18:38:12.398Z</time>
      </trkpt>
      <trkpt lat="36.16852" lon="33.55836">
        <ele>33.682464</ele>
        <time>2022-02-24T18:38:21.595Z</time>
      </trkpt>
      <trkpt lat="36.16857" lon="33.55768">
        <ele>34.974869</ele>
        <time>2022-02-24T18:38:41.869Z</time>
      </trkpt>
      <trkpt lat="36.16886" lon="33.55762">
        <ele>35.812383</ele>
        <time>2022-02-24T18:38:54.270Z</time>
      </trkpt>
      <trkpt lat="36.16888" lon="33.55689">
        <ele>37.825375</ele>
        <time>2022-02-24T18:39:18.125Z</time>
      </trkpt>
      <trkpt lat="36.16889" lon="33.55655">
        <ele>38.754517</ele>
        <time>2022-02-24T18:39:29.204Z</time>
      </trkpt>
      <trkpt lat="36.1689" lon="33.55634">
        <ele>39.355634</ele>
        <time>2022-02-24T18:39:37.065Z</time>
      </trkpt>
      <trkpt lat="36.16896" lon="33.55603">
        <ele>40.208626</ele>
        <time>2022-02-24T18:39:47.785Z</time>
      </trkpt>
      <trkpt lat="36.169" lon="33.55581">
        <ele>40.838777</ele>
        <time>2022-02-24T18:39:56.740Z</time>
      </trkpt>
      <trkpt lat="36.16914" lon="33.55542">
        <ele>42.499457</ele>
        <time>2022-02-24T18:40:12.945Z</time>
      </trkpt>
      <trkpt lat="36.16923" lon="33.55514">
        <ele>44.058152</ele>
        <time>2022-02-24T18:40:24.925Z</time>
      </trkpt>
      <trkpt lat="36.16957" lon="33.55456">
        <ele>47.823603</ele>
        <time>2022-02-24T18:40:57.222Z</time>
      </trkpt>
      <trkpt lat="36.17061" lon="33.55354">
        <ele>58.259842</ele>
        <time>2022-02-24T18:42:23.334Z</time>
      </trkpt>
      <trkpt lat="36.17075" lon="33.55312">
        <ele>61.952932</ele>
        <time>2022-02-24T18:42:49.629Z</time>
      </trkpt>
      <trkpt lat="36.17105" lon="33.55251">
        <ele>67.739878</ele>
        <time>2022-02-24T18:43:33.920Z</time>
      </trkpt>
      <trkpt lat="36.17127" lon="33.55194">
        <ele>73.577828</ele>
        <time>2022-02-24T18:44:16.969Z</time>
      </trkpt>
      <trkpt lat="36.17139" lon="33.55142">
        <ele>79.694902</ele>
        <time>2022-02-24T18:44:58.877Z</time>
      </trkpt>
      <trkpt lat="36.17143" lon="33.55089">
        <ele>85.856018</ele>
        <time>2022-02-24T18:45:40.475Z</time>
      </trkpt>
      <trkpt lat="36.17135" lon="33.55032">
        <ele>92.434676</ele>
        <time>2022-02-24T18:46:26.299Z</time>
      </trkpt>
      <trkpt lat="36.17123" lon="33.54986">
        <ele>97.889366</ele>
        <time>2022-02-24T18:47:05.983Z</time>
      </trkpt>
      <trkpt lat="36.17091" lon="33.5491">
        <ele>107.074244</ele>
        <time>2022-02-24T18:48:13.212Z</time>
      </trkpt>
      <trkpt lat="36.17062" lon="33.54853">
        <ele>114.249646</ele>
        <time>2022-02-24T18:49:04.249Z</time>
      </trkpt>
      <trkpt lat="36.16973" lon="33.54709">
        <ele>130.028415</ele>
        <time>2022-02-24T18:50:55.453Z</time>
      </trkpt>
      <trkpt lat="36.16946" lon="33.54652">
        <ele>135.150274</ele>
        <time>2022-02-24T18:51:30.839Z</time>
      </trkpt>
      <trkpt lat="36.16653" lon="33.53852">
        <ele>196.094642</ele>
        <time>2022-02-24T18:59:40.017Z</time>
      </trkpt>
      <trkpt lat="36.16395" lon="33.53174">
        <ele>221.588443</ele>
        <time>2022-02-24T19:04:28.104Z</time>
      </trkpt>
      <trkpt lat="36.16357" lon="33.53041">
        <ele>219.75832</ele>
        <time>2022-02-24T19:04:50.730Z</time>
      </trkpt>
      <trkpt lat="36.1633" lon="33.5293">
        <ele>218.138666</ele>
        <time>2022-02-24T19:05:08.185Z</time>
      </trkpt>
      <trkpt lat="36.16326" lon="33.52782">
        <ele>215.947416</ele>
        <time>2022-02-24T19:05:35.566Z</time>
      </trkpt>
      <trkpt lat="36.16353" lon="33.52613">
        <ele>215.777127</ele>
        <time>2022-02-24T19:06:15.113Z</time>
      </trkpt>
      <trkpt lat="36.16427" lon="33.52459">
        <ele>213.666989</ele>
        <time>2022-02-24T19:06:50.343Z</time>
      </trkpt>
      <trkpt lat="36.16684" lon="33.52075">
        <ele>197.896891</ele>
        <time>2022-02-24T19:08:06.238Z</time>
      </trkpt>
      <trkpt lat="36.16733" lon="33.51957">
        <ele>190.615778</ele>
        <time>2022-02-24T19:08:24.476Z</time>
      </trkpt>
      <trkpt lat="36.16764" lon="33.51828">
        <ele>182.02494</ele>
        <time>2022-02-24T19:08:42.566Z</time>
      </trkpt>
      <trkpt lat="36.16768" lon="33.51722">
        <ele>174.879328</ele>
        <time>2022-02-24T19:08:56.912Z</time>
      </trkpt>
      <trkpt lat="36.16709" lon="33.51114">
        <ele>133.055259</ele>
        <time>2022-02-24T19:10:19.736Z</time>
      </trkpt>
      <trkpt lat="36.16669" lon="33.51006">
        <ele>123.808456</ele>
        <time>2022-02-24T19:10:35.355Z</time>
      </trkpt>
      <trkpt lat="36.16662" lon="33.50987">
        <ele>122.18972</ele>
        <time>2022-02-24T19:10:38.104Z</time>
      </trkpt>
      <trkpt lat="36.16597" lon="33.50836">
        <ele>109.890332</ele>
        <time>2022-02-24T19:11:00.828Z</time>
      </trkpt>
      <trkpt lat="36.16515" lon="33.50667">
        <ele>96.124138</ele>
        <time>2022-02-24T19:11:27.739Z</time>
      </trkpt>
      <trkpt lat="36.16465" lon="33.50568">
        <ele>88.026485</ele>
        <time>2022-02-24T19:11:43.285Z</time>
      </trkpt>
      <trkpt lat="36.16373" lon="33.50414">
        <ele>73.382977</ele>
        <time>2022-02-24T19:12:08.703Z</time>
      </trkpt>
      <trkpt lat="36.16347" lon="33.50356">
        <ele>68.747685</ele>
        <time>2022-02-24T19:12:17.459Z</time>
      </trkpt>
      <trkpt lat="36.16333" lon="33.50309">
        <ele>65.464669</ele>
        <time>2022-02-24T19:12:24.106Z</time>
      </trkpt>
      <trkpt lat="36.16323" lon="33.50245">
        <ele>61.135043</ele>
        <time>2022-02-24T19:12:32.978Z</time>
      </trkpt>
      <trkpt lat="36.16319" lon="33.5021">
        <ele>58.809473</ele>
        <time>2022-02-24T19:12:37.802Z</time>
      </trkpt>
      <trkpt lat="36.1632" lon="33.50176">
        <ele>56.559997</ele>
        <time>2022-02-24T19:12:42.546Z</time>
      </trkpt>
      <trkpt lat="36.16322" lon="33.50153">
        <ele>55.90537</ele>
        <time>2022-02-24T19:12:45.698Z</time>
      </trkpt>
      <trkpt lat="36.16367" lon="33.5006">
        <ele>52.762145</ele>
        <time>2022-02-24T19:13:01.904Z</time>
      </trkpt>
      <trkpt lat="36.16401" lon="33.49993">
        <ele>50.484501</ele>
        <time>2022-02-24T19:13:15.771Z</time>
      </trkpt>
      <trkpt lat="36.1641" lon="33.49976">
        <ele>50.311504</ele>
        <time>2022-02-24T19:13:19.920Z</time>
      </trkpt>
      <trkpt lat="36.16423" lon="33.4995">
        <ele>50.862702</ele>
        <time>2022-02-24T19:13:27.441Z</time>
      </trkpt>
      <trkpt lat="36.16456" lon="33.49874">
        <ele>52.376818</ele>
        <time>2022-02-24T19:13:51.104Z</time>
      </trkpt>
      <trkpt lat="36.16467" lon="33.49845">
        <ele>52.950537</ele>
        <time>2022-02-24T19:14:01.535Z</time>
      </trkpt>
      <trkpt lat="36.16479" lon="33.4981">
        <ele>53.634194</ele>
        <time>2022-02-24T19:14:16.014Z</time>
      </trkpt>
      <trkpt lat="36.16495" lon="33.49762">
        <ele>54.74543</ele>
        <time>2022-02-24T19:14:36.949Z</time>
      </trkpt>
      <trkpt lat="36.16507" lon="33.49657">
        <ele>57.578489</ele>
        <time>2022-02-24T19:15:18.607Z</time>
      </trkpt>
      <trkpt lat="36.16505" lon="33.49637">
        <ele>58.108357</ele>
        <time>2022-02-24T19:15:25.606Z</time>
      </trkpt>
      <trkpt lat="36.16503" lon="33.4962">
        <ele>58.555391</ele>
        <time>2022-02-24T19:15:31.288Z</time>
      </trkpt>
      <trkpt lat="36.16482" lon="33.49551">
        <ele>59.361772</ele>
        <time>2022-02-24T19:15:51.185Z</time>
      </trkpt>
      <trkpt lat="36.1646" lon="33.49512">
        <ele>57.597361</ele>
        <time>2022-02-24T19:16:02.518Z</time>
      </trkpt>
      <trkpt lat="36.1608" lon="33.48946">
        <ele>30.507107</ele>
        <time>2022-02-24T19:17:49.696Z</time>
      </trkpt>
      <trkpt lat="36.16041" lon="33.48893">
        <ele>27.67666</ele>
        <time>2022-02-24T19:18:00.257Z</time>
      </trkpt>
      <trkpt lat="36.158" lon="33.48626">
        <ele>15.289075</ele>
        <time>2022-02-24T19:19:01.228Z</time>
      </trkpt>
      <trkpt lat="36.15774" lon="33.48581">
        <ele>13.736811</ele>
        <time>2022-02-24T19:19:10.059Z</time>
      </trkpt>
      <trkpt lat="36.15752" lon="33.48524">
        <ele>13.442913</ele>
        <time>2022-02-24T19:19:20.766Z</time>
      </trkpt>
      <trkpt lat="36.15742" lon="33.48488">
        <ele>13.375305</ele>
        <time>2022-02-24T19:19:27.872Z</time>
      </trkpt>
      <trkpt lat="36.15738" lon="33.48454">
        <ele>13.314042</ele>
        <time>2022-02-24T19:19:35.086Z</time>
      </trkpt>
      <trkpt lat="36.1574" lon="33.48441">
        <ele>13.291328</ele>
        <time>2022-02-24T19:19:37.604Z</time>
      </trkpt>
      <trkpt lat="36.15745" lon="33.48389">
        <ele>13.200193</ele>
        <time>2022-02-24T19:19:50.769Z</time>
      </trkpt>
      <trkpt lat="36.15756" lon="33.4828">
        <ele>15.407264</ele>
        <time>2022-02-24T19:20:25.552Z</time>
      </trkpt>
      <trkpt lat="36.15763" lon="33.4817">
        <ele>18.484581</ele>
        <time>2022-02-24T19:21:07.264Z</time>
      </trkpt>
      <trkpt lat="36.15802" lon="33.48046">
        <ele>21.906451</ele>
        <time>2022-02-24T19:21:57.497Z</time>
      </trkpt>
      <trkpt lat="36.15837" lon="33.47971">
        <ele>24.065667</ele>
        <time>2022-02-24T19:22:25.236Z</time>
      </trkpt>
      <trkpt lat="36.15878" lon="33.47918">
        <ele>25.258633</ele>
        <time>2022-02-24T19:22:45.519Z</time>
      </trkpt>
      <trkpt lat="36.15931" lon="33.47825">
        <ele>26.250914</ele>
        <time>2022-02-24T19:23:13.491Z</time>
      </trkpt>
      <trkpt lat="36.15945" lon="33.47772">
        <ele>26.735715</ele>
        <time>2022-02-24T19:23:26.615Z</time>
      </trkpt>
      <trkpt lat="36.15955" lon="33.47641">
        <ele>28.580848</ele>
        <time>2022-02-24T19:24:01.902Z</time>
      </trkpt>
      <trkpt lat="36.15965" lon="33.47595">
        <ele>29.26997</ele>
        <time>2022-02-24T19:24:16.498Z</time>
      </trkpt>
      <trkpt lat="36.16025" lon="33.47413">
        <ele>32.118494</ele>
        <time>2022-02-24T19:25:18.589Z</time>
      </trkpt>
      <trkpt lat="36.16032" lon="33.47285">
        <ele>32.941184</ele>
        <time>2022-02-24T19:25:49.669Z</time>
      </trkpt>
      <trkpt lat="36.16023" lon="33.47242">
        <ele>32.5727</ele>
        <time>2022-02-24T19:25:58.315Z</time>
      </trkpt>
      <trkpt lat="36.15991" lon="33.47184">
        <ele>31.992668</ele>
        <time>2022-02-24T19:26:10.727Z</time>
      </trkpt>
      <trkpt lat="36.15898" lon="33.47046">
        <ele>29.005547</ele>
        <time>2022-02-24T19:26:40.715Z</time>
      </trkpt>
      <trkpt lat="36.15868" lon="33.46963">
        <ele>27.091631</ele>
        <time>2022-02-24T19:26:55.418Z</time>
      </trkpt>
      <trkpt lat="36.15858" lon="33.46889">
        <ele>24.884892</ele>
        <time>2022-02-24T19:27:07.234Z</time>
      </trkpt>
      <trkpt lat="36.15862" lon="33.46833">
        <ele>23.103692</ele>
        <time>2022-02-24T19:27:15.938Z</time>
      </trkpt>
      <trkpt lat="36.15888" lon="33.46773">
        <ele>20.974677</ele>
        <time>2022-02-24T19:27:26.047Z</time>
      </trkpt>
      <trkpt lat="36.15976" lon="33.46671">
        <ele>16.16932</ele>
        <time>2022-02-24T19:27:48.471Z</time>
      </trkpt>
      <trkpt lat="36.16003" lon="33.46642">
        <ele>14.718697</ele>
        <time>2022-02-24T19:27:55.231Z</time>
      </trkpt>
      <trkpt lat="36.16052" lon="33.46608">
        <ele>12.497066</ele>
        <time>2022-02-24T19:28:06.509Z</time>
      </trkpt>
      <trkpt lat="36.16105" lon="33.46572">
        <ele>10.724209</ele>
        <time>2022-02-24T19:28:18.666Z</time>
      </trkpt>
      <trkpt lat="36.16113" lon="33.46568">
        <ele>10.467963</ele>
        <time>2022-02-24T19:28:20.564Z</time>
      </trkpt>
      <trkpt lat="36.16127" lon="33.46551">
        <ele>9.894144</ele>
        <time>2022-02-24T19:28:24.434Z</time>
      </trkpt>
      <trkpt lat="36.16143" lon="33.46528">
        <ele>9.173411</ele>
        <time>2022-02-24T19:28:29.940Z</time>
      </trkpt>
      <trkpt lat="36.16158" lon="33.46485">
        <ele>8.068073</ele>
        <time>2022-02-24T19:28:38.055Z</time>
      </trkpt>
      <trkpt lat="36.16163" lon="33.46459">
        <ele>7.426318</ele>
        <time>2022-02-24T19:28:42.779Z</time>
      </trkpt>
      <trkpt lat="36.16172" lon="33.46415">
        <ele>6.690877</ele>
        <time>2022-02-24T19:28:50.496Z</time>
      </trkpt>
      <trkpt lat="36.16188" lon="33.46358">
        <ele>5.773757</ele>
        <time>2022-02-24T19:29:00.480Z</time>
      </trkpt>
      <trkpt lat="36.16195" lon="33.46291">
        <ele>4.756553</ele>
        <time>2022-02-24T19:29:12.140Z</time>
      </trkpt>
      <trkpt lat="36.16193" lon="33.46232">
        <ele>3.884289</ele>
        <time>2022-02-24T19:29:22.745Z</time>
      </trkpt>
      <trkpt lat="36.16183" lon="33.46116">
        <ele>3.355716</ele>
        <time>2022-02-24T19:29:45.259Z</time>
      </trkpt>
      <trkpt lat="36.1616" lon="33.46041">
        <ele>2.995659</ele>
        <time>2022-02-24T19:30:01.485Z</time>
      </trkpt>
      <trkpt lat="36.16144" lon="33.46013">
        <ele>3.030102</ele>
        <time>2022-02-24T19:30:09.099Z</time>
      </trkpt>
      <trkpt lat="36.16122" lon="33.45979">
        <ele>3.547036</ele>
        <time>2022-02-24T19:30:19.071Z</time>
      </trkpt>
      <trkpt lat="36.16076" lon="33.45925">
        <ele>4.487432</ele>
        <time>2022-02-24T19:30:38.996Z</time>
      </trkpt>
      <trkpt lat="36.15956" lon="33.4584">
        <ele>7.479003</ele>
        <time>2022-02-24T19:31:34.456Z</time>
      </trkpt>
      <trkpt lat="36.15897" lon="33.458">
        <ele>9.419145</ele>
        <time>2022-02-24T19:32:02.681Z</time>
      </trkpt>
      <trkpt lat="36.15834" lon="33.45757">
        <ele>11.234842</ele>
        <time>2022-02-24T19:32:32.161Z</time>
      </trkpt>
      <trkpt lat="36.15796" lon="33.45728">
        <ele>12.005984</ele>
        <time>2022-02-24T19:32:49.014Z</time>
      </trkpt>
      <trkpt lat="36.15739" lon="33.45672">
        <ele>13.271624</ele>
        <time>2022-02-24T19:33:13.123Z</time>
      </trkpt>
      <trkpt lat="36.15713" lon="33.45638">
        <ele>13.92897</ele>
        <time>2022-02-24T19:33:24.817Z</time>
      </trkpt>
      <trkpt lat="36.15672" lon="33.45564">
        <ele>14.307784</ele>
        <time>2022-02-24T19:33:46.319Z</time>
      </trkpt>
      <trkpt lat="36.15643" lon="33.45466">
        <ele>14.749531</ele>
        <time>2022-02-24T19:34:10.425Z</time>
      </trkpt>
      <trkpt lat="36.15628" lon="33.4535">
        <ele>15.32815</ele>
        <time>2022-02-24T19:34:37.413Z</time>
      </trkpt>
      <trkpt lat="36.15616" lon="33.45294">
        <ele>15.620571</ele>
        <time>2022-02-24T19:34:50.851Z</time>
      </trkpt>
      <trkpt lat="36.156" lon="33.45256">
        <ele>15.841743</ele>
        <time>2022-02-24T19:35:01.242Z</time>
      </trkpt>
      <trkpt lat="36.15516" lon="33.45126">
        <ele>17.854776</ele>
        <time>2022-02-24T19:35:45.238Z</time>
      </trkpt>
      <trkpt lat="36.15493" lon="33.45071">
        <ele>18.696182</ele>
        <time>2022-02-24T19:36:03.636Z</time>
      </trkpt>
      <trkpt lat="36.15478" lon="33.45001">
        <ele>20.346308</ele>
        <time>2022-02-24T19:36:26.958Z</time>
      </trkpt>
      <trkpt lat="36.15474" lon="33.44937">
        <ele>22.152672</ele>
        <time>2022-02-24T19:36:48.890Z</time>
      </trkpt>
      <trkpt lat="36.15473" lon="33.4471">
        <ele>29.038014</ele>
        <time>2022-02-24T19:38:13.933Z</time>
      </trkpt>
      <trkpt lat="36.15476" lon="33.44673">
        <ele>30.229086</ele>
        <time>2022-02-24T19:38:27.834Z</time>
      </trkpt>
      <trkpt lat="36.15493" lon="33.44611">
        <ele>32.359145</ele>
        <time>2022-02-24T19:38:52.036Z</time>
      </trkpt>
      <trkpt lat="36.15515" lon="33.44559">
        <ele>33.886505</ele>
        <time>2022-02-24T19:39:12.854Z</time>
      </trkpt>
      <trkpt lat="36.15537" lon="33.44519">
        <ele>35.101313</ele>
        <time>2022-02-24T19:39:29.279Z</time>
      </trkpt>
      <trkpt lat="36.15602" lon="33.44439">
        <ele>37.983629</ele>
        <time>2022-02-24T19:40:05.523Z</time>
      </trkpt>
      <trkpt lat="36.15805" lon="33.44241">
        <ele>48.338957</ele>
        <time>2022-02-24T19:41:53.404Z</time>
      </trkpt>
      <trkpt lat="36.15816" lon="33.4423">
        <ele>49.228141</ele>
        <time>2022-02-24T19:42:01.714Z</time>
      </trkpt>
      <trkpt lat="36.15892" lon="33.44154">
        <ele>55.653292</ele>
        <time>2022-02-24T19:43:05.707Z</time>
      </trkpt>
      <trkpt lat="36.15947" lon="33.44093">
        <ele>64.567119</ele>
        <time>2022-02-24T19:44:05.679Z</time>
      </trkpt>
      <trkpt lat="36.15985" lon="33.44066">
        <ele>70.014549</ele>
        <time>2022-02-24T19:44:45.219Z</time>
      </trkpt>
      <trkpt lat="36.16016" lon="33.44051">
        <ele>74.044406</ele>
        <time>2022-02-24T19:45:15.565Z</time>
      </trkpt>
      <trkpt lat="36.16076" lon="33.44041">
        <ele>81.743522</ele>
        <time>2022-02-24T19:46:13.688Z</time>
      </trkpt>
      <trkpt lat="36.16158" lon="33.44065">
        <ele>92.659791</ele>
        <time>2022-02-24T19:47:32.526Z</time>
      </trkpt>
      <trkpt lat="36.16193" lon="33.44087">
        <ele>97.867062</ele>
        <time>2022-02-24T19:48:07.740Z</time>
      </trkpt>
      <trkpt lat="36.16219" lon="33.44111">
        <ele>101.580406</ele>
        <time>2022-02-24T19:48:35.382Z</time>
      </trkpt>
      <trkpt lat="36.16451" lon="33.44379">
        <ele>125.537127</ele>
        <time>2022-02-24T19:51:55.020Z</time>
      </trkpt>
      <trkpt lat="36.16494" lon="33.44423">
        <ele>128.757467</ele>
        <time>2022-02-24T19:52:19.590Z</time>
      </trkpt>
      <trkpt lat="36.16528" lon="33.44449">
        <ele>130.63561</ele>
        <time>2022-02-24T19:52:37.749Z</time>
      </trkpt>
      <trkpt lat="36.1657" lon="33.44469">
        <ele>132.730133</ele>
        <time>2022-02-24T19:52:58.389Z</time>
      </trkpt>
      <trkpt lat="36.16616" lon="33.44483">
        <ele>134.957085</ele>
        <time>2022-02-24T19:53:20.923Z</time>
      </trkpt>
      <trkpt lat="36.16757" lon="33.44517">
        <ele>143.466291</ele>
        <time>2022-02-24T19:54:43.354Z</time>
      </trkpt>
      <trkpt lat="36.16953" lon="33.44556">
        <ele>154.662694</ele>
        <time>2022-02-24T19:56:34.944Z</time>
      </trkpt>
      <trkpt lat="36.17009" lon="33.44561">
        <ele>157.369349</ele>
        <time>2022-02-24T19:56:59.905Z</time>
      </trkpt>
      <trkpt lat="36.17073" lon="33.44546">
        <ele>159.47227</ele>
        <time>2022-02-24T19:57:26.665Z</time>
      </trkpt>
      <trkpt lat="36.17109" lon="33.44532">
        <ele>160.656922</ele>
        <time>2022-02-24T19:57:41.224Z</time>
      </trkpt>
      <trkpt lat="36.17143" lon="33.44509">
        <ele>161.885359</ele>
        <time>2022-02-24T19:57:56.501Z</time>
      </trkpt>
      <trkpt lat="36.17192" lon="33.44461">
        <ele>164.578734</ele>
        <time>2022-02-24T19:58:22.987Z</time>
      </trkpt>
      <trkpt lat="36.17594" lon="33.44019">
        <ele>191.775336</ele>
        <time>2022-02-24T20:03:01.064Z</time>
      </trkpt>
      <trkpt lat="36.17627" lon="33.43971">
        <ele>194.512182</ele>
        <time>2022-02-24T20:03:26.968Z</time>
      </trkpt>
      <trkpt lat="36.17638" lon="33.43925">
        <ele>196.589777</ele>
        <time>2022-02-24T20:03:46.995Z</time>
      </trkpt>
      <trkpt lat="36.17642" lon="33.43849">
        <ele>200.010231</ele>
        <time>2022-02-24T20:04:19.520Z</time>
      </trkpt>
      <trkpt lat="36.17637" lon="33.43601">
        <ele>213.805133</ele>
        <time>2022-02-24T20:06:17.808Z</time>
      </trkpt>
      <trkpt lat="36.17633" lon="33.43563">
        <ele>216.45512</ele>
        <time>2022-02-24T20:06:38.232Z</time>
      </trkpt>
      <trkpt lat="36.17607" lon="33.43478">
        <ele>222.653247</ele>
        <time>2022-02-24T20:07:28.217Z</time>
      </trkpt>
      <trkpt lat="36.17576" lon="33.43436">
        <ele>226.5739</ele>
        <time>2022-02-24T20:08:01.580Z</time>
      </trkpt>
      <trkpt lat="36.17546" lon="33.43401">
        <ele>230.856047</ele>
        <time>2022-02-24T20:08:32.629Z</time>
      </trkpt>
      <trkpt lat="36.17474" lon="33.43342">
        <ele>239.758543</ele>
        <time>2022-02-24T20:09:38.570Z</time>
      </trkpt>
      <trkpt lat="36.17353" lon="33.43254">
        <ele>254.415202</ele>
        <time>2022-02-24T20:11:29.242Z</time>
      </trkpt>
      <trkpt lat="36.17288" lon="33.43215">
        <ele>261.950122</ele>
        <time>2022-02-24T20:12:24.661Z</time>
      </trkpt>
      <trkpt lat="36.17217" lon="33.43178">
        <ele>268.675071</ele>
        <time>2022-02-24T20:13:22.110Z</time>
      </trkpt>
      <trkpt lat="36.17059" lon="33.43128">
        <ele>280.458587</ele>
        <time>2022-02-24T20:15:03.161Z</time>
      </trkpt>
      <trkpt lat="36.16926" lon="33.43093">
        <ele>286.571199</ele>
        <time>2022-02-24T20:16:03.453Z</time>
      </trkpt>
      <trkpt lat="36.16891" lon="33.43075">
        <ele>288.004146</ele>
        <time>2022-02-24T20:16:18.183Z</time>
      </trkpt>
      <trkpt lat="36.16865" lon="33.43056">
        <ele>289.139123</ele>
        <time>2022-02-24T20:16:30.550Z</time>
      </trkpt>
      <trkpt lat="36.1684" lon="33.43027">
        <ele>290.380399</ele>
        <time>2022-02-24T20:16:45.020Z</time>
      </trkpt>
      <trkpt lat="36.16802" lon="33.42967">
        <ele>292.628776</ele>
        <time>2022-02-24T20:17:13.431Z</time>
      </trkpt>
      <trkpt lat="36.16782" lon="33.42912">
        <ele>294.78413</ele>
        <time>2022-02-24T20:17:37.273Z</time>
      </trkpt>
      <trkpt lat="36.16778" lon="33.42867">
        <ele>296.594917</ele>
        <time>2022-02-24T20:17:55.711Z</time>
      </trkpt>
      <trkpt lat="36.1678" lon="33.4282">
        <ele>298.496081</ele>
        <time>2022-02-24T20:18:15.440Z</time>
      </trkpt>
      <trkpt lat="36.16837" lon="33.42402">
        <ele>316.163993</ele>
        <time>2022-02-24T20:21:10.275Z</time>
      </trkpt>
      <trkpt lat="36.16827" lon="33.42322">
        <ele>319.748735</ele>
        <time>2022-02-24T20:21:45.521Z</time>
      </trkpt>
      <trkpt lat="36.16815" lon="33.42289">
        <ele>321.360863</ele>
        <time>2022-02-24T20:22:01.781Z</time>
      </trkpt>
      <trkpt lat="36.16798" lon="33.42265">
        <ele>323.108639</ele>
        <time>2022-02-24T20:22:16.528Z</time>
      </trkpt>
      <trkpt lat="36.16769" lon="33.42239">
        <ele>325.534634</ele>
        <time>2022-02-24T20:22:37.276Z</time>
      </trkpt>
      <trkpt lat="36.16682" lon="33.42199">
        <ele>331.723011</ele>
        <time>2022-02-24T20:23:31.292Z</time>
      </trkpt>
      <trkpt lat="36.16608" lon="33.42155">
        <ele>337.978393</ele>
        <time>2022-02-24T20:24:23.951Z</time>
      </trkpt>
      <trkpt lat="36.16558" lon="33.4213">
        <ele>342.295627</ele>
        <time>2022-02-24T20:25:00.338Z</time>
      </trkpt>
      <trkpt lat="36.16542" lon="33.42122">
        <ele>343.684189</ele>
        <time>2022-02-24T20:25:11.189Z</time>
      </trkpt>
      <trkpt lat="36.16494" lon="33.42101">
        <ele>347.726765</ele>
        <time>2022-02-24T20:25:45.423Z</time>
      </trkpt>
      <trkpt lat="36.16451" lon="33.42086">
        <ele>350.915061</ele>
        <time>2022-02-24T20:26:14.886Z</time>
      </trkpt>
      <trkpt lat="36.16364" lon="33.42045">
        <ele>357.435861</ele>
        <time>2022-02-24T20:27:13.226Z</time>
      </trkpt>
      <trkpt lat="36.16341" lon="33.42032">
        <ele>359.241051</ele>
        <time>2022-02-24T20:27:27.226Z</time>
      </trkpt>
      <trkpt lat="36.16298" lon="33.41995">
        <ele>361.499551</ele>
        <time>2022-02-24T20:27:53.517Z</time>
      </trkpt>
      <trkpt lat="36.16277" lon="33.41967">
        <ele>362.404195</ele>
        <time>2022-02-24T20:28:07.432Z</time>
      </trkpt>
      <trkpt lat="36.16234" lon="33.41889">
        <ele>364.614695</ele>
        <time>2022-02-24T20:28:36.377Z</time>
      </trkpt>
      <trkpt lat="36.16217" lon="33.4183">
        <ele>365.706998</ele>
        <time>2022-02-24T20:28:52.786Z</time>
      </trkpt>
      <trkpt lat="36.16208" lon="33.41753">
        <ele>365.498435</ele>
        <time>2022-02-24T20:29:10.875Z</time>
      </trkpt>
      <trkpt lat="36.1625" lon="33.412">
        <ele>360.99517</ele>
        <time>2022-02-24T20:30:59.375Z</time>
      </trkpt>
      <trkpt lat="36.16259" lon="33.41028">
        <ele>348.469515</ele>
        <time>2022-02-24T20:31:22.140Z</time>
      </trkpt>
      <trkpt lat="36.16257" lon="33.40985">
        <ele>345.03263</ele>
        <time>2022-02-24T20:31:27.624Z</time>
      </trkpt>
      <trkpt lat="36.1625" lon="33.40926">
        <ele>339.790163</ele>
        <time>2022-02-24T20:31:35.233Z</time>
      </trkpt>
      <trkpt lat="36.16231" lon="33.40828">
        <ele>330.27435</ele>
        <time>2022-02-24T20:31:48.102Z</time>
      </trkpt>
      <trkpt lat="36.16212" lon="33.40768">
        <ele>324.152681</ele>
        <time>2022-02-24T20:31:56.506Z</time>
      </trkpt>
      <trkpt lat="36.16112" lon="33.40524">
        <ele>304.867501</ele>
        <time>2022-02-24T20:32:33.600Z</time>
      </trkpt>
      <trkpt lat="36.16072" lon="33.40443">
        <ele>298.409591</ele>
        <time>2022-02-24T20:32:46.492Z</time>
      </trkpt>
      <trkpt lat="36.1599" lon="33.40354">
        <ele>289.051954</ele>
        <time>2022-02-24T20:33:04.551Z</time>
      </trkpt>
      <trkpt lat="36.15818" lon="33.40189">
        <ele>269.481369</ele>
        <time>2022-02-24T20:33:40.424Z</time>
      </trkpt>
      <trkpt lat="36.15759" lon="33.40113">
        <ele>262.456041</ele>
        <time>2022-02-24T20:33:54.659Z</time>
      </trkpt>
      <trkpt lat="36.15529" lon="33.39723">
        <ele>238.262041</ele>
        <time>2022-02-24T20:35:03.287Z</time>
      </trkpt>
      <trkpt lat="36.15461" lon="33.39616">
        <ele>230.600077</ele>
        <time>2022-02-24T20:35:22.392Z</time>
      </trkpt>
      <trkpt lat="36.15367" lon="33.3945">
        <ele>218.983797</ele>
        <time>2022-02-24T20:35:50.147Z</time>
      </trkpt>
      <trkpt lat="36.15303" lon="33.39371">
        <ele>212.661182</ele>
        <time>2022-02-24T20:36:05.683Z</time>
      </trkpt>
      <trkpt lat="36.15266" lon="33.39336">
        <ele>211.015632</ele>
        <time>2022-02-24T20:36:13.926Z</time>
      </trkpt>
      <trkpt lat="36.1516" lon="33.39267">
        <ele>206.724945</ele>
        <time>2022-02-24T20:36:37.661Z</time>
      </trkpt>
      <trkpt lat="36.15086" lon="33.39216">
        <ele>205.859005</ele>
        <time>2022-02-24T20:36:58.047Z</time>
      </trkpt>
      <trkpt lat="36.15078" lon="33.39212">
        <ele>205.796043</ele>
        <time>2022-02-24T20:37:00.543Z</time>
      </trkpt>
      <trkpt lat="36.15026" lon="33.39182">
        <ele>205.404485</ele>
        <time>2022-02-24T20:37:15.456Z</time>
      </trkpt>
      <trkpt lat="36.14786" lon="33.39044">
        <ele>201.787188</ele>
        <time>2022-02-24T20:38:18.336Z</time>
      </trkpt>
      <trkpt lat="36.14748" lon="33.39006">
        <ele>199.841891</ele>
        <time>2022-02-24T20:38:27.763Z</time>
      </trkpt>
      <trkpt lat="36.14672" lon="33.38898">
        <ele>193.662275</ele>
        <time>2022-02-24T20:38:48.285Z</time>
      </trkpt>
      <trkpt lat="36.14642" lon="33.38851">
        <ele>189.330724</ele>
        <time>2022-02-24T20:38:56.342Z</time>
      </trkpt>
      <trkpt lat="36.14609" lon="33.38767">
        <ele>182.597868</ele>
        <time>2022-02-24T20:39:08.604Z</time>
      </trkpt>
      <trkpt lat="36.14602" lon="33.38698">
        <ele>177.461027</ele>
        <time>2022-02-24T20:39:17.655Z</time>
      </trkpt>
      <trkpt lat="36.14602" lon="33.38666">
        <ele>175.032466</ele>
        <time>2022-02-24T20:39:21.856Z</time>
      </trkpt>
      <trkpt lat="36.14618" lon="33.38578">
        <ele>168.243019</ele>
        <time>2022-02-24T20:39:33.699Z</time>
      </trkpt>
      <trkpt lat="36.14681" lon="33.38461">
        <ele>160.341678</ele>
        <time>2022-02-24T20:39:53.077Z</time>
      </trkpt>
      <trkpt lat="36.14735" lon="33.3838">
        <ele>156.12445</ele>
        <time>2022-02-24T20:40:08.994Z</time>
      </trkpt>
      <trkpt lat="36.1477" lon="33.38351">
        <ele>154.285418</ele>
        <time>2022-02-24T20:40:17.494Z</time>
      </trkpt>
      <trkpt lat="36.1481" lon="33.38335">
        <ele>153.211258</ele>
        <time>2022-02-24T20:40:26.474Z</time>
      </trkpt>
      <trkpt lat="36.1485" lon="33.38331">
        <ele>152.192928</ele>
        <time>2022-02-24T20:40:35.149Z</time>
      </trkpt>
      <trkpt lat="36.14901" lon="33.38346">
        <ele>150.883158</ele>
        <time>2022-02-24T20:40:46.164Z</time>
      </trkpt>
      <trkpt lat="36.14927" lon="33.38362">
        <ele>150.135184</ele>
        <time>2022-02-24T20:40:52.076Z</time>
      </trkpt>
      <trkpt lat="36.14991" lon="33.38428">
        <ele>144.527365</ele>
        <time>2022-02-24T20:41:07.354Z</time>
      </trkpt>
      <trkpt lat="36.15017" lon="33.38447">
        <ele>142.363923</ele>
        <time>2022-02-24T20:41:12.563Z</time>
      </trkpt>
      <trkpt lat="36.15075" lon="33.38469">
        <ele>138.065211</ele>
        <time>2022-02-24T20:41:22.583Z</time>
      </trkpt>
      <trkpt lat="36.15117" lon="33.3847">
        <ele>133.435976</ele>
        <time>2022-02-24T20:41:29.306Z</time>
      </trkpt>
      <trkpt lat="36.15153" lon="33.38462">
        <ele>128.841157</ele>
        <time>2022-02-24T20:41:35.085Z</time>
      </trkpt>
      <trkpt lat="36.15284" lon="33.38414">
        <ele>111.508975</ele>
        <time>2022-02-24T20:41:56.646Z</time>
      </trkpt>
      <trkpt lat="36.15347" lon="33.38382">
        <ele>102.902524</ele>
        <time>2022-02-24T20:42:07.417Z</time>
      </trkpt>
      <trkpt lat="36.15404" lon="33.38331">
        <ele>94.044128</ele>
        <time>2022-02-24T20:42:18.583Z</time>
      </trkpt>
      <trkpt lat="36.15425" lon="33.38306">
        <ele>90.637119</ele>
        <time>2022-02-24T20:42:23.190Z</time>
      </trkpt>
      <trkpt lat="36.15446" lon="33.38275">
        <ele>87.195839</ele>
        <time>2022-02-24T20:42:28.463Z</time>
      </trkpt>
      <trkpt lat="36.15484" lon="33.38201">
        <ele>79.813309</ele>
        <time>2022-02-24T20:42:39.856Z</time>
      </trkpt>
      <trkpt lat="36.15506" lon="33.3813">
        <ele>73.317404</ele>
        <time>2022-02-24T20:42:50.036Z</time>
      </trkpt>
      <trkpt lat="36.15523" lon="33.38044">
        <ele>66.587856</ele>
        <time>2022-02-24T20:43:01.799Z</time>
      </trkpt>
      <trkpt lat="36.15525" lon="33.3797">
        <ele>60.954874</ele>
        <time>2022-02-24T20:43:11.647Z</time>
      </trkpt>
      <trkpt lat="36.15517" lon="33.3793">
        <ele>57.889098</ele>
        <time>2022-02-24T20:43:17.033Z</time>
      </trkpt>
      <trkpt lat="36.15508" lon="33.37891">
        <ele>54.953844</ele>
        <time>2022-02-24T20:43:22.450Z</time>
      </trkpt>
      <trkpt lat="36.15509" lon="33.3786">
        <ele>52.871054</ele>
        <time>2022-02-24T20:43:26.785Z</time>
      </trkpt>
      <trkpt lat="36.15503" lon="33.37836">
        <ele>51.183531</ele>
        <time>2022-02-24T20:43:30.385Z</time>
      </trkpt>
      <trkpt lat="36.15498" lon="33.37816">
        <ele>49.796496</ele>
        <time>2022-02-24T20:43:33.255Z</time>
      </trkpt>
      <trkpt lat="36.15498" lon="33.37806">
        <ele>49.091237</ele>
        <time>2022-02-24T20:43:34.762Z</time>
      </trkpt>
      <trkpt lat="36.1553" lon="33.37724">
        <ele>42.977555</ele>
        <time>2022-02-24T20:43:47.582Z</time>
      </trkpt>
      <trkpt lat="36.15563" lon="33.37564">
        <ele>34.463373</ele>
        <time>2022-02-24T20:44:11.772Z</time>
      </trkpt>
      <trkpt lat="36.15612" lon="33.37418">
        <ele>28.273577</ele>
        <time>2022-02-24T20:44:36.313Z</time>
      </trkpt>
      <trkpt lat="36.15622" lon="33.37373">
        <ele>26.969798</ele>
        <time>2022-02-24T20:44:43.929Z</time>
      </trkpt>
      <trkpt lat="36.15603" lon="33.3705">
        <ele>19.7182</ele>
        <time>2022-02-24T20:45:40.075Z</time>
      </trkpt>
      <trkpt lat="36.15597" lon="33.36985">
        <ele>18.316709</ele>
        <time>2022-02-24T20:45:51.166Z</time>
      </trkpt>
      <trkpt lat="36.1559" lon="33.36974">
        <ele>18.008866</ele>
        <time>2022-02-24T20:45:53.427Z</time>
      </trkpt>
      <trkpt lat="36.15582" lon="33.36955">
        <ele>17.543844</ele>
        <time>2022-02-24T20:45:56.920Z</time>
      </trkpt>
      <trkpt lat="36.15575" lon="33.36941">
        <ele>17.19364</ele>
        <time>2022-02-24T20:45:59.447Z</time>
      </trkpt>
      <trkpt lat="36.15565" lon="33.36902">
        <ele>16.311261</ele>
        <time>2022-02-24T20:46:06.058Z</time>
      </trkpt>
      <trkpt lat="36.15545" lon="33.36802">
        <ele>14.441853</ele>
        <time>2022-02-24T20:46:22.823Z</time>
      </trkpt>
      <trkpt lat="36.15543" lon="33.3679">
        <ele>14.293714</ele>
        <time>2022-02-24T20:46:24.917Z</time>
      </trkpt>
      <trkpt lat="36.15417" lon="33.36249">
        <ele>7.994824</ele>
        <time>2022-02-24T20:48:07.356Z</time>
      </trkpt>
      <trkpt lat="36.15398" lon="33.36205">
        <ele>7.486663</ele>
        <time>2022-02-24T20:48:16.372Z</time>
      </trkpt>
      <trkpt lat="36.15432" lon="33.35971">
        <ele>5.621575</ele>
        <time>2022-02-24T20:49:00.400Z</time>
      </trkpt>
      <trkpt lat="36.15438" lon="33.35939">
        <ele>5.588529</ele>
        <time>2022-02-24T20:49:07.213Z</time>
      </trkpt>
      <trkpt lat="36.15453" lon="33.35853">
        <ele>5.501837</ele>
        <time>2022-02-24T20:49:25.867Z</time>
      </trkpt>
      <trkpt lat="36.15456" lon="33.35834">
        <ele>5.481894</ele>
        <time>2022-02-24T20:49:30.364Z</time>
      </trkpt>
      <trkpt lat="36.15471" lon="33.35742">
        <ele>5.349136</ele>
        <time>2022-02-24T20:49:51.529Z</time>
      </trkpt>
      <trkpt lat="36.15489" lon="33.35629">
        <ele>5.002816</ele>
        <time>2022-02-24T20:50:15.914Z</time>
      </trkpt>
      <trkpt lat="36.15508" lon="33.35508">
        <ele>4.462402</ele>
        <time>2022-02-24T20:50:39.143Z</time>
      </trkpt>
      <trkpt lat="36.15525" lon="33.35396">
        <ele>3.543851</ele>
        <time>2022-02-24T20:51:00.436Z</time>
      </trkpt>
      <trkpt lat="36.15529" lon="33.35372">
        <ele>3.348468</ele>
        <time>2022-02-24T20:51:05.005Z</time>
      </trkpt>
      <trkpt lat="36.15527" lon="33.35344">
        <ele>3.119317</ele>
        <time>2022-02-24T20:51:10.229Z</time>
      </trkpt>
      <trkpt lat="36.15527" lon="33.35328">
        <ele>2.99307</ele>
        <time>2022-02-24T20:51:13.186Z</time>
      </trkpt>
      <trkpt lat="36.15521" lon="33.35225">
        <ele>2.443594</ele>
        <time>2022-02-24T20:51:32.438Z</time>
      </trkpt>
      <trkpt lat="36.15509" lon="33.35158">
        <ele>2.089872</ele>
        <time>2022-02-24T20:51:45.686Z</time>
      </trkpt>
      <trkpt lat="36.15507" lon="33.35149">
        <ele>2.038473</ele>
        <time>2022-02-24T20:51:47.625Z</time>
      </trkpt>
      <trkpt lat="36.15481" lon="33.35064">
        <ele>2.36318</ele>
        <time>2022-02-24T20:52:06.414Z</time>
      </trkpt>
      <trkpt lat="36.15423" lon="33.34959">
        <ele>3.966267</ele>
        <time>2022-02-24T20:52:43.123Z</time>
      </trkpt>
      <trkpt lat="36.15372" lon="33.34865">
        <ele>5.451602</ele>
        <time>2022-02-24T20:53:19.156Z</time>
      </trkpt>
      <trkpt lat="36.15355" lon="33.34828">
        <ele>6.032347</ele>
        <time>2022-02-24T20:53:32.377Z</time>
      </trkpt>
      <trkpt lat="36.15345" lon="33.34807">
        <ele>6.352878</ele>
        <time>2022-02-24T20:53:39.160Z</time>
      </trkpt>
      <trkpt lat="36.15322" lon="33.3473">
        <ele>7.454413</ele>
        <time>2022-02-24T20:54:01.660Z</time>
      </trkpt>
      <trkpt lat="36.15313" lon="33.34678">
        <ele>7.278468</ele>
        <time>2022-02-24T20:54:13.224Z</time>
      </trkpt>
      <trkpt lat="36.15306" lon="33.3461">
        <ele>6.721883</ele>
        <time>2022-02-24T20:54:25.234Z</time>
      </trkpt>
      <trkpt lat="36.15302" lon="33.34452">
        <ele>5.799344</ele>
        <time>2022-02-24T20:54:53.149Z</time>
      </trkpt>
      <trkpt lat="36.153" lon="33.34381">
        <ele>5.788945</ele>
        <time>2022-02-24T20:55:06.945Z</time>
      </trkpt>
      <trkpt lat="36.153" lon="33.34372">
        <ele>5.787501</ele>
        <time>2022-02-24T20:55:09.077Z</time>
      </trkpt>
      <trkpt lat="36.15298" lon="33.34346">
        <ele>5.783767</ele>
        <time>2022-02-24T20:55:14.726Z</time>
      </trkpt>
      <trkpt lat="36.15297" lon="33.34339">
        <ele>5.782688</ele>
        <time>2022-02-24T20:55:16.462Z</time>
      </trkpt>
      <trkpt lat="36.15289" lon="33.34218">
        <ele>6.904954</ele>
        <time>2022-02-24T20:55:49.530Z</time>
      </trkpt>
      <trkpt lat="36.15265" lon="33.33856">
        <ele>14.618521</ele>
        <time>2022-02-24T20:57:48.987Z</time>
      </trkpt>
      <trkpt lat="36.15264" lon="33.33838">
        <ele>15.031361</ele>
        <time>2022-02-24T20:57:54.067Z</time>
      </trkpt>
      <trkpt lat="36.15262" lon="33.33827">
        <ele>15.211142</ele>
        <time>2022-02-24T20:57:57.302Z</time>
      </trkpt>
      <trkpt lat="36.15255" lon="33.33785">
        <ele>15.493877</ele>
        <time>2022-02-24T20:58:10.638Z</time>
      </trkpt>
      <trkpt lat="36.15249" lon="33.33742">
        <ele>15.775488</ele>
        <time>2022-02-24T20:58:23.530Z</time>
      </trkpt>
      <trkpt lat="36.15233" lon="33.33676">
        <ele>16.231211</ele>
        <time>2022-02-24T20:58:38.559Z</time>
      </trkpt>
      <trkpt lat="36.15256" lon="33.33653">
        <ele>16.473023</ele>
        <time>2022-02-24T20:58:46.460Z</time>
      </trkpt>
      <trkpt lat="36.15272" lon="33.33644">
        <ele>16.613536</ele>
        <time>2022-02-24T20:58:51.118Z</time>
      </trkpt>
      <trkpt lat="36.15277" lon="33.33625">
        <ele>16.597499</ele>
        <time>2022-02-24T20:58:55.168Z</time>
      </trkpt>
      <trkpt lat="36.15275" lon="33.33588">
        <ele>16.498456</ele>
        <time>2022-02-24T20:59:02.907Z</time>
      </trkpt>
      <trkpt lat="36.15261" lon="33.33568">
        <ele>16.425074</ele>
        <time>2022-02-24T20:59:08.012Z</time>
      </trkpt>
      <trkpt lat="36.15178" lon="33.33504">
        <ele>16.095209</ele>
        <time>2022-02-24T20:59:35.557Z</time>
      </trkpt>
      <trkpt lat="36.15147" lon="33.33441">
        <ele>16.035864</ele>
        <time>2022-02-24T20:59:50.092Z</time>
      </trkpt>
      <trkpt lat="36.1514" lon="33.33426">
        <ele>16.036263</ele>
        <time>2022-02-24T20:59:53.890Z</time>
      </trkpt>
      <trkpt lat="36.15161" lon="33.33391">
        <ele>16.037283</ele>
        <time>2022-02-24T21:00:03.898Z</time>
      </trkpt>
      <trkpt lat="36.15167" lon="33.33373">
        <ele>16.037741</ele>
        <time>2022-02-24T21:00:08.524Z</time>
      </trkpt>
      <trkpt lat="36.15166" lon="33.33334">
        <ele>16.038651</ele>
        <time>2022-02-24T21:00:17.628Z</time>
      </trkpt>
      <trkpt lat="36.15153" lon="33.33313">
        <ele>16.039258</ele>
        <time>2022-02-24T21:00:23.714Z</time>
      </trkpt>
      <trkpt lat="36.15113" lon="33.33279">
        <ele>16.046762</ele>
        <time>2022-02-24T21:00:38.117Z</time>
      </trkpt>
      <trkpt lat="36.15086" lon="33.33234">
        <ele>16.057949</ele>
        <time>2022-02-24T21:00:51.269Z</time>
      </trkpt>
      <trkpt lat="36.15075" lon="33.3318">
        <ele>16.069172</ele>
        <time>2022-02-24T21:01:03.386Z</time>
      </trkpt>
      <trkpt lat="36.15067" lon="33.33164">
        <ele>16.072876</ele>
        <time>2022-02-24T21:01:07.321Z</time>
      </trkpt>
      <trkpt lat="36.15036" lon="33.33133">
        <ele>16.082639</ele>
        <time>2022-02-24T21:01:17.800Z</time>
      </trkpt>
      <trkpt lat="36.1501" lon="33.33068">
        <ele>16.41967</ele>
        <time>2022-02-24T21:01:33.938Z</time>
      </trkpt>
      <trkpt lat="36.14955" lon="33.3299">
        <ele>16.969933</ele>
        <time>2022-02-24T21:01:59.845Z</time>
      </trkpt>
      <trkpt lat="36.14925" lon="33.32886">
        <ele>17.988645</ele>
        <time>2022-02-24T21:02:31.200Z</time>
      </trkpt>
      <trkpt lat="36.14925" lon="33.32834">
        <ele>18.672268</ele>
        <time>2022-02-24T21:02:46.316Z</time>
      </trkpt>
      <trkpt lat="36.14925" lon="33.32807">
        <ele>19.030495</ele>
        <time>2022-02-24T21:02:53.884Z</time>
      </trkpt>
      <trkpt lat="36.14929" lon="33.32757">
        <ele>19.696155</ele>
        <time>2022-02-24T21:03:08.664Z</time>
      </trkpt>
      <trkpt lat="36.14929" lon="33.32746">
        <ele>19.841256</ele>
        <time>2022-02-24T21:03:12.414Z</time>
      </trkpt>
      <trkpt lat="36.14928" lon="33.32724">
        <ele>20.131369</ele>
        <time>2022-02-24T21:03:18.753Z</time>
      </trkpt>
      <trkpt lat="36.14911" lon="33.32678">
        <ele>20.633559</ele>
        <time>2022-02-24T21:03:33.669Z</time>
      </trkpt>
      <trkpt lat="36.14892" lon="33.32621">
        <ele>21.217579</ele>
        <time>2022-02-24T21:03:51.038Z</time>
      </trkpt>
      <trkpt lat="36.14875" lon="33.32594">
        <ele>21.536643</ele>
        <time>2022-02-24T21:03:59.565Z</time>
      </trkpt>
      <trkpt lat="36.14859" lon="33.32571">
        <ele>21.836571</ele>
        <time>2022-02-24T21:04:07.845Z</time>
      </trkpt>
      <trkpt lat="36.14845" lon="33.32532">
        <ele>22.240024</ele>
        <time>2022-02-24T21:04:18.302Z</time>
      </trkpt>
      <trkpt lat="36.14833" lon="33.32519">
        <ele>22.362297</ele>
        <time>2022-02-24T21:04:23.008Z</time>
      </trkpt>
      <trkpt lat="36.14806" lon="33.32508">
        <ele>22.501938</ele>
        <time>2022-02-24T21:04:31.691Z</time>
      </trkpt>
      <trkpt lat="36.1476" lon="33.32459">
        <ele>22.805589</ele>
        <time>2022-02-24T21:04:49.874Z</time>
      </trkpt>
      <trkpt lat="36.14647" lon="33.32319">
        <ele>23.715786</ele>
        <time>2022-02-24T21:05:37.867Z</time>
      </trkpt>
      <trkpt lat="36.1463" lon="33.3229">
        <ele>23.905254</ele>
        <time>2022-02-24T21:05:46.767Z</time>
      </trkpt>
      <trkpt lat="36.14621" lon="33.3225">
        <ele>24.125464</ele>
        <time>2022-02-24T21:05:56.821Z</time>
      </trkpt>
      <trkpt lat="36.14601" lon="33.32219">
        <ele>24.335273</ele>
        <time>2022-02-24T21:06:06.928Z</time>
      </trkpt>
      <trkpt lat="36.14593" lon="33.32211">
        <ele>24.433714</ele>
        <time>2022-02-24T21:06:10.783Z</time>
      </trkpt>
      <trkpt lat="36.14529" lon="33.32155">
        <ele>25.742582</ele>
        <time>2022-02-24T21:06:37.742Z</time>
      </trkpt>
      <trkpt lat="36.14509" lon="33.3213">
        <ele>26.214048</ele>
        <time>2022-02-24T21:06:48.047Z</time>
      </trkpt>
      <trkpt lat="36.145" lon="33.3212">
        <ele>26.417121</ele>
        <time>2022-02-24T21:06:52.917Z</time>
      </trkpt>
      <trkpt lat="36.14474" lon="33.32057">
        <ele>27.364041</ele>
        <time>2022-02-24T21:07:13.560Z</time>
      </trkpt>
      <trkpt lat="36.1446" lon="33.32012">
        <ele>28.482633</ele>
        <time>2022-02-24T21:07:28.500Z</time>
      </trkpt>
      <trkpt lat="36.14425" lon="33.31962">
        <ele>30.02097</ele>
        <time>2022-02-24T21:07:51.104Z</time>
      </trkpt>
      <trkpt lat="36.14367" lon="33.31905">
        <ele>32.164847</ele>
        <time>2022-02-24T21:08:23.696Z</time>
      </trkpt>
      <trkpt lat="36.1435" lon="33.31888">
        <ele>32.77639</ele>
        <time>2022-02-24T21:08:33.309Z</time>
      </trkpt>
      <trkpt lat="36.14304" lon="33.31843">
        <ele>34.369814</ele>
        <time>2022-02-24T21:08:57.532Z</time>
      </trkpt>
      <trkpt lat="36.14272" lon="33.31801">
        <ele>35.65257</ele>
        <time>2022-02-24T21:09:16.854Z</time>
      </trkpt>
      <trkpt lat="36.14232" lon="33.31778">
        <ele>36.853566</ele>
        <time>2022-02-24T21:09:34.653Z</time>
      </trkpt>
      <trkpt lat="36.14197" lon="33.31748">
        <ele>37.756114</ele>
        <time>2022-02-24T21:09:51.053Z</time>
      </trkpt>
      <trkpt lat="36.1418" lon="33.31737">
        <ele>38.043891</ele>
        <time>2022-02-24T21:09:58.725Z</time>
      </trkpt>
      <trkpt lat="36.14144" lon="33.31671">
        <ele>38.98557</ele>
        <time>2022-02-24T21:10:21.419Z</time>
      </trkpt>
      <trkpt lat="36.14127" lon="33.31658">
        <ele>39.277161</ele>
        <time>2022-02-24T21:10:28.095Z</time>
      </trkpt>
      <trkpt lat="36.14118" lon="33.31651">
        <ele>39.431683</ele>
        <time>2022-02-24T21:10:31.648Z</time>
      </trkpt>
      <trkpt lat="36.14084" lon="33.31625">
        <ele>40.014884</ele>
        <time>2022-02-24T21:10:44.570Z</time>
      </trkpt>
      <trkpt lat="36.1406" lon="33.31535">
        <ele>40.363094</ele>
        <time>2022-02-24T21:11:07.212Z</time>
      </trkpt>
      <trkpt lat="36.1401" lon="33.31485">
        <ele>40.599819</ele>
        <time>2022-02-24T21:11:23.566Z</time>
      </trkpt>
      <trkpt lat="36.1399" lon="33.31449">
        <ele>40.729441</ele>
        <time>2022-02-24T21:11:33.454Z</time>
      </trkpt>
      <trkpt lat="36.13937" lon="33.31411">
        <ele>42.207649</ele>
        <time>2022-02-24T21:11:56.841Z</time>
      </trkpt>
      <trkpt lat="36.13905" lon="33.31372">
        <ele>43.462187</ele>
        <time>2022-02-24T21:12:14.199Z</time>
      </trkpt>
      <trkpt lat="36.1394" lon="33.31333">
        <ele>44.785753</ele>
        <time>2022-02-24T21:12:34.612Z</time>
      </trkpt>
      <trkpt lat="36.13947" lon="33.31326">
        <ele>45.043943</ele>
        <time>2022-02-24T21:12:40.131Z</time>
      </trkpt>
      <trkpt lat="36.13919" lon="33.31295">
        <ele>46.221275</ele>
        <time>2022-02-24T21:12:57.876Z</time>
      </trkpt>
      <trkpt lat="36.13902" lon="33.31246">
        <ele>47.957265</ele>
        <time>2022-02-24T21:13:19.247Z</time>
      </trkpt>
      <trkpt lat="36.1391" lon="33.31185">
        <ele>49.954576</ele>
        <time>2022-02-24T21:13:45.813Z</time>
      </trkpt>
      <trkpt lat="36.13907" lon="33.31166">
        <ele>50.582405</ele>
        <time>2022-02-24T21:13:54.675Z</time>
      </trkpt>
      <trkpt lat="36.13889" lon="33.3114">
        <ele>51.684937</ele>
        <time>2022-02-24T21:14:06.494Z</time>
      </trkpt>
      <trkpt lat="36.1386" lon="33.31056">
        <ele>53.149149</ele>
        <time>2022-02-24T21:14:34.805Z</time>
      </trkpt>
      <trkpt lat="36.13845" lon="33.31036">
        <ele>53.230229</ele>
        <time>2022-02-24T21:14:42.578Z</time>
      </trkpt>
      <trkpt lat="36.13794" lon="33.30939">
        <ele>53.567766</ele>
        <time>2022-02-24T21:15:09.060Z</time>
      </trkpt>
      <trkpt lat="36.13738" lon="33.30852">
        <ele>51.178175</ele>
        <time>2022-02-24T21:15:28.323Z</time>
      </trkpt>
      <trkpt lat="36.13697" lon="33.30795">
        <ele>48.930426</ele>
        <time>2022-02-24T21:15:40.080Z</time>
      </trkpt>
      <trkpt lat="36.13652" lon="33.30736">
        <ele>46.472245</ele>
        <time>2022-02-24T21:15:52.674Z</time>
      </trkpt>
      <trkpt lat="36.13629" lon="33.30729">
        <ele>45.529486</ele>
        <time>2022-02-24T21:15:57.304Z</time>
      </trkpt>
      <trkpt lat="36.13595" lon="33.30737">
        <ele>44.177635</ele>
        <time>2022-02-24T21:16:03.946Z</time>
      </trkpt>
      <trkpt lat="36.1356" lon="33.30558">
        <ele>38.661056</ele>
        <time>2022-02-24T21:16:32.748Z</time>
      </trkpt>
      <trkpt lat="36.13517" lon="33.30435">
        <ele>35.244898</ele>
        <time>2022-02-24T21:16:54.427Z</time>
      </trkpt>
      <trkpt lat="36.13479" lon="33.30369">
        <ele>32.77528</ele>
        <time>2022-02-24T21:17:06.933Z</time>
      </trkpt>
      <trkpt lat="36.13472" lon="33.30356">
        <ele>32.222904</ele>
        <time>2022-02-24T21:17:09.236Z</time>
      </trkpt>
      <trkpt lat="36.13341" lon="33.30197">
        <ele>24.854416</ele>
        <time>2022-02-24T21:17:42.922Z</time>
      </trkpt>
      <trkpt lat="36.13311" lon="33.30148">
        <ele>23.200396</ele>
        <time>2022-02-24T21:17:52.421Z</time>
      </trkpt>
      <trkpt lat="36.13293" lon="33.3004">
        <ele>20.413502</ele>
        <time>2022-02-24T21:18:10.572Z</time>
      </trkpt>
      <trkpt lat="36.13297" lon="33.29986">
        <ele>19.758014</ele>
        <time>2022-02-24T21:18:20.137Z</time>
      </trkpt>
      <trkpt lat="36.13299" lon="33.2997">
        <ele>19.570005</ele>
        <time>2022-02-24T21:18:23.154Z</time>
      </trkpt>
      <trkpt lat="36.13323" lon="33.29907">
        <ele>18.735826</ele>
        <time>2022-02-24T21:18:36.194Z</time>
      </trkpt>
      <trkpt lat="36.1356" lon="33.29681">
        <ele>13.637883</ele>
        <time>2022-02-24T21:19:42.685Z</time>
      </trkpt>
      <trkpt lat="36.13581" lon="33.29645">
        <ele>12.656522</ele>
        <time>2022-02-24T21:19:49.685Z</time>
      </trkpt>
      <trkpt lat="36.13586" lon="33.29626">
        <ele>12.217302</ele>
        <time>2022-02-24T21:19:52.650Z</time>
      </trkpt>
      <trkpt lat="36.13592" lon="33.29593">
        <ele>11.485516</ele>
        <time>2022-02-24T21:19:57.951Z</time>
      </trkpt>
      <trkpt lat="36.13584" lon="33.29504">
        <ele>10.29403</ele>
        <time>2022-02-24T21:20:11.899Z</time>
      </trkpt>
      <trkpt lat="36.13568" lon="33.29472">
        <ele>10.143758</ele>
        <time>2022-02-24T21:20:18.341Z</time>
      </trkpt>
      <trkpt lat="36.13474" lon="33.29415">
        <ele>9.63535</ele>
        <time>2022-02-24T21:20:48.881Z</time>
      </trkpt>
      <trkpt lat="36.13461" lon="33.29401">
        <ele>9.864503</ele>
        <time>2022-02-24T21:20:54.638Z</time>
      </trkpt>
      <trkpt lat="36.13448" lon="33.29389">
        <ele>10.471915</ele>
        <time>2022-02-24T21:21:01.585Z</time>
      </trkpt>
      <trkpt lat="36.13431" lon="33.29367">
        <ele>11.382801</ele>
        <time>2022-02-24T21:21:10.943Z</time>
      </trkpt>
      <trkpt lat="36.13428" lon="33.29333">
        <ele>12.421976</ele>
        <time>2022-02-24T21:21:22.705Z</time>
      </trkpt>
      <trkpt lat="36.13434" lon="33.2927">
        <ele>14.335106</ele>
        <time>2022-02-24T21:21:46.261Z</time>
      </trkpt>
      <trkpt lat="36.13479" lon="33.29145">
        <ele>19.804135</ele>
        <time>2022-02-24T21:22:45.045Z</time>
      </trkpt>
      <trkpt lat="36.13484" lon="33.29104">
        <ele>21.867138</ele>
        <time>2022-02-24T21:23:03.798Z</time>
      </trkpt>
      <trkpt lat="36.13483" lon="33.29099">
        <ele>22.103757</ele>
        <time>2022-02-24T21:23:06.361Z</time>
      </trkpt>
      <trkpt lat="36.13502" lon="33.29075">
        <ele>23.732739</ele>
        <time>2022-02-24T21:23:21.400Z</time>
      </trkpt>
      <trkpt lat="36.13518" lon="33.29006">
        <ele>27.244162</ele>
        <time>2022-02-24T21:23:53.910Z</time>
      </trkpt>
      <trkpt lat="36.1352" lon="33.29003">
        <ele>27.529028</ele>
        <time>2022-02-24T21:23:57.319Z</time>
      </trkpt>
      <trkpt lat="36.13518" lon="33.2896">
        <ele>30.121052</ele>
        <time>2022-02-24T21:24:17.652Z</time>
      </trkpt>
      <trkpt lat="36.13514" lon="33.28925">
        <ele>32.341713</ele>
        <time>2022-02-24T21:24:35.737Z</time>
      </trkpt>
      <trkpt lat="36.13501" lon="33.28894">
        <ele>34.488109</ele>
        <time>2022-02-24T21:24:53.977Z</time>
      </trkpt>
      <trkpt lat="36.13453" lon="33.2883">
        <ele>39.817648</ele>
        <time>2022-02-24T21:25:40.600Z</time>
      </trkpt>
      <trkpt lat="36.13432" lon="33.28775">
        <ele>44.256047</ele>
        <time>2022-02-24T21:26:13.887Z</time>
      </trkpt>
      <trkpt lat="36.13432" lon="33.28767">
        <ele>44.880461</ele>
        <time>2022-02-24T21:26:18.350Z</time>
      </trkpt>
      <trkpt lat="36.13441" lon="33.28762">
        <ele>45.855589</ele>
        <time>2022-02-24T21:26:25.482Z</time>
      </trkpt>
      <trkpt lat="36.13467" lon="33.28765">
        <ele>48.339994</ele>
        <time>2022-02-24T21:26:45.051Z</time>
      </trkpt>
      <trkpt lat="36.13479" lon="33.28742">
        <ele>50.512272</ele>
        <time>2022-02-24T21:27:03.170Z</time>
      </trkpt>
      <trkpt lat="36.13466" lon="33.28716">
        <ele>52.910635</ele>
        <time>2022-02-24T21:27:23.451Z</time>
      </trkpt>
      <trkpt lat="36.13465" lon="33.28619">
        <ele>59.228427</ele>
        <time>2022-02-24T21:28:23.279Z</time>
      </trkpt>
      <trkpt lat="36.13469" lon="33.28574">
        <ele>60.997668</ele>
        <time>2022-02-24T21:28:48.023Z</time>
      </trkpt>
      <trkpt lat="36.13466" lon="33.28534">
        <ele>62.52334</ele>
        <time>2022-02-24T21:29:06.977Z</time>
      </trkpt>
      <trkpt lat="36.13463" lon="33.28499">
        <ele>63.894078</ele>
        <time>2022-02-24T21:29:23.150Z</time>
      </trkpt>
      <trkpt lat="36.13459" lon="33.28493">
        <ele>64.178383</ele>
        <time>2022-02-24T21:29:25.152Z</time>
      </trkpt>
      <trkpt lat="36.13446" lon="33.28461">
        <ele>65.56615</ele>
        <time>2022-02-24T21:29:36.707Z</time>
      </trkpt>
      <trkpt lat="36.13379" lon="33.28362">
        <ele>62.052939</ele>
        <time>2022-02-24T21:29:57.616Z</time>
      </trkpt>
      <trkpt lat="36.13365" lon="33.28356">
        <ele>61.23492</ele>
        <time>2022-02-24T21:30:00.130Z</time>
      </trkpt>
      <trkpt lat="36.1336" lon="33.28371">
        <ele>60.476337</ele>
        <time>2022-02-24T21:30:02.504Z</time>
      </trkpt>
      <trkpt lat="36.1336" lon="33.28378">
        <ele>60.161713</ele>
        <time>2022-02-24T21:30:03.394Z</time>
      </trkpt>
      <trkpt lat="36.13314" lon="33.28379">
        <ele>57.497316</ele>
        <time>2022-02-24T21:30:11.441Z</time>
      </trkpt>
      <trkpt lat="36.13307" lon="33.2835">
        <ele>55.992057</ele>
        <time>2022-02-24T21:30:15.725Z</time>
      </trkpt>
      <trkpt lat="36.13236" lon="33.2807">
        <ele>39.696209</ele>
        <time>2022-02-24T21:30:57.712Z</time>
      </trkpt>
      <trkpt lat="36.1322" lon="33.28043">
        <ele>38.604743</ele>
        <time>2022-02-24T21:31:03.028Z</time>
      </trkpt>
      <trkpt lat="36.13196" lon="33.28021">
        <ele>37.433183</ele>
        <time>2022-02-24T21:31:08.870Z</time>
      </trkpt>
      <trkpt lat="36.13172" lon="33.27958">
        <ele>35.15616</ele>
        <time>2022-02-24T21:31:21.602Z</time>
      </trkpt>
      <trkpt lat="36.13178" lon="33.27922">
        <ele>35.549883</ele>
        <time>2022-02-24T21:31:29.976Z</time>
      </trkpt>
      <trkpt lat="36.13202" lon="33.27891">
        <ele>36.474578</ele>
        <time>2022-02-24T21:31:42.255Z</time>
      </trkpt>
      <trkpt lat="36.13205" lon="33.27867">
        <ele>36.978961</ele>
        <time>2022-02-24T21:31:49.164Z</time>
      </trkpt>
      <trkpt lat="36.1319" lon="33.27847">
        <ele>37.559534</ele>
        <time>2022-02-24T21:31:59.560Z</time>
      </trkpt>
      <trkpt lat="36.13161" lon="33.27828">
        <ele>38.448648</ele>
        <time>2022-02-24T21:32:15.574Z</time>
      </trkpt>
      <trkpt lat="36.13141" lon="33.27786">
        <ele>39.47854</ele>
        <time>2022-02-24T21:32:33.329Z</time>
      </trkpt>
      <trkpt lat="36.1314" lon="33.27743">
        <ele>40.442484</ele>
        <time>2022-02-24T21:32:49.469Z</time>
      </trkpt>
      <trkpt lat="36.13145" lon="33.27699">
        <ele>41.467575</ele>
        <time>2022-02-24T21:33:06.239Z</time>
      </trkpt>
      <trkpt lat="36.13169" lon="33.27649">
        <ele>42.778676</ele>
        <time>2022-02-24T21:33:26.299Z</time>
      </trkpt>
      <trkpt lat="36.13179" lon="33.27614">
        <ele>43.610044</ele>
        <time>2022-02-24T21:33:37.770Z</time>
      </trkpt>
      <trkpt lat="36.13171" lon="33.27592">
        <ele>44.160623</ele>
        <time>2022-02-24T21:33:44.355Z</time>
      </trkpt>
      <trkpt lat="36.13145" lon="33.27559">
        <ele>44.716866</ele>
        <time>2022-02-24T21:33:55.315Z</time>
      </trkpt>
      <trkpt lat="36.13137" lon="33.27537">
        <ele>44.707368</ele>
        <time>2022-02-24T21:34:00.603Z</time>
      </trkpt>
      <trkpt lat="36.13146" lon="33.27485">
        <ele>44.686023</ele>
        <time>2022-02-24T21:34:12.513Z</time>
      </trkpt>
      <trkpt lat="36.13143" lon="33.27463">
        <ele>44.677274</ele>
        <time>2022-02-24T21:34:17.311Z</time>
      </trkpt>
      <trkpt lat="36.13117" lon="33.27442">
        <ele>44.661886</ele>
        <time>2022-02-24T21:34:24.971Z</time>
      </trkpt>
      <trkpt lat="36.13103" lon="33.27419">
        <ele>44.650213</ele>
        <time>2022-02-24T21:34:30.524Z</time>
      </trkpt>
      <trkpt lat="36.13093" lon="33.27386">
        <ele>44.632341</ele>
        <time>2022-02-24T21:34:37.232Z</time>
      </trkpt>
      <trkpt lat="36.13103" lon="33.27316">
        <ele>44.287114</ele>
        <time>2022-02-24T21:34:50.925Z</time>
      </trkpt>
      <trkpt lat="36.13099" lon="33.27271">
        <ele>44.065068</ele>
        <time>2022-02-24T21:34:59.805Z</time>
      </trkpt>
      <trkpt lat="36.13069" lon="33.2722">
        <ele>43.756819</ele>
        <time>2022-02-24T21:35:12.617Z</time>
      </trkpt>
      <trkpt lat="36.13061" lon="33.27182">
        <ele>43.561634</ele>
        <time>2022-02-24T21:35:20.995Z</time>
      </trkpt>
      <trkpt lat="36.13069" lon="33.27155">
        <ele>43.241782</ele>
        <time>2022-02-24T21:35:26.857Z</time>
      </trkpt>
      <trkpt lat="36.13134" lon="33.27053">
        <ele>41.706812</ele>
        <time>2022-02-24T21:35:50.408Z</time>
      </trkpt>
      <trkpt lat="36.1319" lon="33.27029">
        <ele>40.842538</ele>
        <time>2022-02-24T21:36:02.578Z</time>
      </trkpt>
      <trkpt lat="36.13199" lon="33.27019">
        <ele>40.680452</ele>
        <time>2022-02-24T21:36:05.096Z</time>
      </trkpt>
      <trkpt lat="36.13201" lon="33.27005">
        <ele>40.533914</ele>
        <time>2022-02-24T21:36:07.311Z</time>
      </trkpt>
      <trkpt lat="36.13195" lon="33.2699">
        <ele>40.358004</ele>
        <time>2022-02-24T21:36:09.978Z</time>
      </trkpt>
      <trkpt lat="36.13106" lon="33.26925">
        <ele>38.988443</ele>
        <time>2022-02-24T21:36:32.392Z</time>
      </trkpt>
      <trkpt lat="36.13088" lon="33.26906">
        <ele>38.682405</ele>
        <time>2022-02-24T21:36:38.726Z</time>
      </trkpt>
      <trkpt lat="36.13078" lon="33.26884">
        <ele>38.728478</ele>
        <time>2022-02-24T21:36:44.845Z</time>
      </trkpt>
      <trkpt lat="36.13077" lon="33.26859">
        <ele>39.067718</ele>
        <time>2022-02-24T21:36:51.978Z</time>
      </trkpt>
      <trkpt lat="36.13087" lon="33.26835">
        <ele>39.43642</ele>
        <time>2022-02-24T21:37:00.247Z</time>
      </trkpt>
      <trkpt lat="36.13113" lon="33.26806">
        <ele>40.021715</ele>
        <time>2022-02-24T21:37:13.550Z</time>
      </trkpt>
      <trkpt lat="36.13198" lon="33.26773">
        <ele>41.525658</ele>
        <time>2022-02-24T21:37:47.561Z</time>
      </trkpt>
      <trkpt lat="36.1322" lon="33.26751">
        <ele>41.586571</ele>
        <time>2022-02-24T21:37:57.352Z</time>
      </trkpt>
      <trkpt lat="36.13296" lon="33.2657">
        <ele>41.720757</ele>
        <time>2022-02-24T21:38:38.410Z</time>
      </trkpt>
      <trkpt lat="36.13295" lon="33.26542">
        <ele>41.895066</ele>
        <time>2022-02-24T21:38:43.409Z</time>
      </trkpt>
      <trkpt lat="36.13271" lon="33.26519">
        <ele>42.12904</ele>
        <time>2022-02-24T21:38:50.644Z</time>
      </trkpt>
      <trkpt lat="36.13268" lon="33.26498">
        <ele>42.260452</ele>
        <time>2022-02-24T21:38:55.044Z</time>
      </trkpt>
      <trkpt lat="36.13272" lon="33.26471">
        <ele>42.436909</ele>
        <time>2022-02-24T21:39:01.191Z</time>
      </trkpt>
      <trkpt lat="36.13333" lon="33.26286">
        <ele>45.542017</ele>
        <time>2022-02-24T21:40:02.483Z</time>
      </trkpt>
      <trkpt lat="36.13344" lon="33.26146">
        <ele>49.073521</ele>
        <time>2022-02-24T21:40:52.285Z</time>
      </trkpt>
      <trkpt lat="36.13347" lon="33.25886">
        <ele>58.83389</ele>
        <time>2022-02-24T21:42:25.467Z</time>
      </trkpt>
      <trkpt lat="36.13325" lon="33.25783">
        <ele>65.41121</ele>
        <time>2022-02-24T21:43:19.768Z</time>
      </trkpt>
      <trkpt lat="36.13326" lon="33.2571">
        <ele>70.578213</ele>
        <time>2022-02-24T21:44:05.349Z</time>
      </trkpt>
      <trkpt lat="36.13403" lon="33.25573">
        <ele>88.562381</ele>
        <time>2022-02-24T21:46:12.236Z</time>
      </trkpt>
      <trkpt lat="36.1348" lon="33.25487">
        <ele>100.926539</ele>
        <time>2022-02-24T21:47:49.926Z</time>
      </trkpt>
      <trkpt lat="36.13499" lon="33.2545">
        <ele>104.874608</ele>
        <time>2022-02-24T21:48:19.448Z</time>
      </trkpt>
      <trkpt lat="36.13506" lon="33.25409">
        <ele>108.596756</ele>
        <time>2022-02-24T21:48:44.914Z</time>
      </trkpt>
      <trkpt lat="36.13505" lon="33.2528">
        <ele>115.985632</ele>
        <time>2022-02-24T21:49:48.656Z</time>
      </trkpt>
      <trkpt lat="36.13489" lon="33.25206">
        <ele>118.751756</ele>
        <time>2022-02-24T21:50:15.472Z</time>
      </trkpt>
      <trkpt lat="36.13491" lon="33.2515">
        <ele>120.820294</ele>
        <time>2022-02-24T21:50:32.697Z</time>
      </trkpt>
      <trkpt lat="36.13469" lon="33.25073">
        <ele>123.029603</ele>
        <time>2022-02-24T21:50:55.681Z</time>
      </trkpt>
      <trkpt lat="36.13422" lon="33.24978">
        <ele>125.913592</ele>
        <time>2022-02-24T21:51:30.051Z</time>
      </trkpt>
      <trkpt lat="36.13401" lon="33.24832">
        <ele>136.603595</ele>
        <time>2022-02-24T21:52:40.408Z</time>
      </trkpt>
      <trkpt lat="36.13379" lon="33.24781">
        <ele>141.711259</ele>
        <time>2022-02-24T21:53:26.203Z</time>
      </trkpt>
      <trkpt lat="36.13374" lon="33.24743">
        <ele>145.090125</ele>
        <time>2022-02-24T21:53:57.456Z</time>
      </trkpt>
      <trkpt lat="36.1339" lon="33.24697">
        <ele>150.718571</ele>
        <time>2022-02-24T21:54:40.406Z</time>
      </trkpt>
      <trkpt lat="36.13409" lon="33.24667">
        <ele>155.449313</ele>
        <time>2022-02-24T21:55:12.997Z</time>
      </trkpt>
      <trkpt lat="36.13426" lon="33.24665">
        <ele>157.963519</ele>
        <time>2022-02-24T21:55:33.379Z</time>
      </trkpt>
      <trkpt lat="36.13471" lon="33.24645">
        <ele>165.357306</ele>
        <time>2022-02-24T21:56:22.041Z</time>
      </trkpt>
      <trkpt lat="36.13493" lon="33.24627">
        <ele>169.350054</ele>
        <time>2022-02-24T21:56:49.655Z</time>
      </trkpt>
      <trkpt lat="36.13506" lon="33.24604">
        <ele>172.795118</ele>
        <time>2022-02-24T21:57:09.694Z</time>
      </trkpt>
      <trkpt lat="36.13507" lon="33.24562">
        <ele>175.709738</ele>
        <time>2022-02-24T21:57:40.825Z</time>
      </trkpt>
      <trkpt lat="36.13501" lon="33.24476">
        <ele>180.284292</ele>
        <time>2022-02-24T21:58:25.695Z</time>
      </trkpt>
      <trkpt lat="36.13421" lon="33.2328">
        <ele>203.236951</ele>
        <time>2022-02-24T22:04:35.922Z</time>
      </trkpt>
      <trkpt lat="36.13407" lon="33.23105">
        <ele>194.383887</ele>
        <time>2022-02-24T22:04:58.818Z</time>
      </trkpt>
      <trkpt lat="36.13377" lon="33.22656">
        <ele>179.891814</ele>
        <time>2022-02-24T22:06:24.504Z</time>
      </trkpt>
      <trkpt lat="36.13377" lon="33.22645">
        <ele>179.330835</ele>
        <time>2022-02-24T22:06:25.924Z</time>
      </trkpt>
      <trkpt lat="36.13372" lon="33.22624">
        <ele>178.276831</ele>
        <time>2022-02-24T22:06:28.785Z</time>
      </trkpt>
      <trkpt lat="36.13344" lon="33.22589">
        <ele>174.131805</ele>
        <time>2022-02-24T22:06:35.016Z</time>
      </trkpt>
      <trkpt lat="36.13334" lon="33.22571">
        <ele>171.403518</ele>
        <time>2022-02-24T22:06:37.670Z</time>
      </trkpt>
      <trkpt lat="36.1333" lon="33.22553">
        <ele>168.979337</ele>
        <time>2022-02-24T22:06:40.165Z</time>
      </trkpt>
      <trkpt lat="36.13311" lon="33.22515">
        <ele>163.344907</ele>
        <time>2022-02-24T22:06:45.656Z</time>
      </trkpt>
      <trkpt lat="36.13256" lon="33.22465">
        <ele>152.654082</ele>
        <time>2022-02-24T22:06:56.120Z</time>
      </trkpt>
      <trkpt lat="36.13187" lon="33.22427">
        <ele>147.617002</ele>
        <time>2022-02-24T22:07:08.831Z</time>
      </trkpt>
      <trkpt lat="36.13185" lon="33.22397">
        <ele>147.063438</ele>
        <time>2022-02-24T22:07:15.074Z</time>
      </trkpt>
      <trkpt lat="36.13202" lon="33.22354">
        <ele>146.202134</ele>
        <time>2022-02-24T22:07:26.433Z</time>
      </trkpt>
      <trkpt lat="36.13203" lon="33.22313">
        <ele>145.44491</ele>
        <time>2022-02-24T22:07:37.926Z</time>
      </trkpt>
      <trkpt lat="36.13179" lon="33.22285">
        <ele>144.702245</ele>
        <time>2022-02-24T22:07:49.691Z</time>
      </trkpt>
      <trkpt lat="36.13177" lon="33.22258">
        <ele>144.617632</ele>
        <time>2022-02-24T22:07:57.797Z</time>
      </trkpt>
      <trkpt lat="36.1319" lon="33.22238">
        <ele>144.543143</ele>
        <time>2022-02-24T22:08:06.540Z</time>
      </trkpt>
      <trkpt lat="36.13257" lon="33.2221">
        <ele>144.295701</ele>
        <time>2022-02-24T22:08:30.811Z</time>
      </trkpt>
      <trkpt lat="36.133" lon="33.22185">
        <ele>144.12654</ele>
        <time>2022-02-24T22:08:40.972Z</time>
      </trkpt>
      <trkpt lat="36.13326" lon="33.22158">
        <ele>142.787976</ele>
        <time>2022-02-24T22:08:47.113Z</time>
      </trkpt>
      <trkpt lat="36.13341" lon="33.22132">
        <ele>140.491572</ele>
        <time>2022-02-24T22:08:51.577Z</time>
      </trkpt>
      <trkpt lat="36.13337" lon="33.22117">
        <ele>139.36367</ele>
        <time>2022-02-24T22:08:53.716Z</time>
      </trkpt>
      <trkpt lat="36.13323" lon="33.22112">
        <ele>138.07785</ele>
        <time>2022-02-24T22:08:56.141Z</time>
      </trkpt>
      <trkpt lat="36.13294" lon="33.22118">
        <ele>135.437075</ele>
        <time>2022-02-24T22:09:01.032Z</time>
      </trkpt>
      <trkpt lat="36.13271" lon="33.22109">
        <ele>133.317236</ele>
        <time>2022-02-24T22:09:04.933Z</time>
      </trkpt>
      <trkpt lat="36.1324" lon="33.22081">
        <ele>129.954662</ele>
        <time>2022-02-24T22:09:11.077Z</time>
      </trkpt>
      <trkpt lat="36.13218" lon="33.22052">
        <ele>127.538919</ele>
        <time>2022-02-24T22:09:16.308Z</time>
      </trkpt>
      <trkpt lat="36.13188" lon="33.22032">
        <ele>125.767296</ele>
        <time>2022-02-24T22:09:21.692Z</time>
      </trkpt>
      <trkpt lat="36.13173" lon="33.22014">
        <ele>124.623021</ele>
        <time>2022-02-24T22:09:25.257Z</time>
      </trkpt>
      <trkpt lat="36.13145" lon="33.21924">
        <ele>120.457123</ele>
        <time>2022-02-24T22:09:39.255Z</time>
      </trkpt>
      <trkpt lat="36.13029" lon="33.21807">
        <ele>122.909255</ele>
        <time>2022-02-24T22:10:36.682Z</time>
      </trkpt>
      <trkpt lat="36.13033" lon="33.21788">
        <ele>123.477765</ele>
        <time>2022-02-24T22:10:46.173Z</time>
      </trkpt>
      <trkpt lat="36.13083" lon="33.21712">
        <ele>127.177515</ele>
        <time>2022-02-24T22:11:34.053Z</time>
      </trkpt>
      <trkpt lat="36.13099" lon="33.21673">
        <ele>129.297304</ele>
        <time>2022-02-24T22:11:54.187Z</time>
      </trkpt>
      <trkpt lat="36.13073" lon="33.21574">
        <ele>134.409308</ele>
        <time>2022-02-24T22:12:39.020Z</time>
      </trkpt>
      <trkpt lat="36.13091" lon="33.21512">
        <ele>138.075109</ele>
        <time>2022-02-24T22:13:08.842Z</time>
      </trkpt>
      <trkpt lat="36.13086" lon="33.21446">
        <ele>142.318331</ele>
        <time>2022-02-24T22:13:39.072Z</time>
      </trkpt>
      <trkpt lat="36.13115" lon="33.21376">
        <ele>147.357184</ele>
        <time>2022-02-24T22:14:20.450Z</time>
      </trkpt>
      <trkpt lat="36.13123" lon="33.21276">
        <ele>154.90159</ele>
        <time>2022-02-24T22:15:23.319Z</time>
      </trkpt>
      <trkpt lat="36.13155" lon="33.21259">
        <ele>158.614239</ele>
        <time>2022-02-24T22:15:54.014Z</time>
      </trkpt>
      <trkpt lat="36.13233" lon="33.21201">
        <ele>168.336692</ele>
        <time>2022-02-24T22:17:09.234Z</time>
      </trkpt>
      <trkpt lat="36.1325" lon="33.21199">
        <ele>169.768756</ele>
        <time>2022-02-24T22:17:21.119Z</time>
      </trkpt>
      <trkpt lat="36.13269" lon="33.21204">
        <ele>170.121341</ele>
        <time>2022-02-24T22:17:35.274Z</time>
      </trkpt>
      <trkpt lat="36.13354" lon="33.21262">
        <ele>171.789818</ele>
        <time>2022-02-24T22:18:19.391Z</time>
      </trkpt>
      <trkpt lat="36.13372" lon="33.21264">
        <ele>172.108728</ele>
        <time>2022-02-24T22:18:23.212Z</time>
      </trkpt>
      <trkpt lat="36.13385" lon="33.21255">
        <ele>172.362783</ele>
        <time>2022-02-24T22:18:25.955Z</time>
      </trkpt>
      <trkpt lat="36.13383" lon="33.21191">
        <ele>170.084314</ele>
        <time>2022-02-24T22:18:34.710Z</time>
      </trkpt>
      <trkpt lat="36.13399" lon="33.21164">
        <ele>167.131538</ele>
        <time>2022-02-24T22:18:39.157Z</time>
      </trkpt>
      <trkpt lat="36.13399" lon="33.21148">
        <ele>165.754849</ele>
        <time>2022-02-24T22:18:41.208Z</time>
      </trkpt>
      <trkpt lat="36.13386" lon="33.21117">
        <ele>162.67136</ele>
        <time>2022-02-24T22:18:45.762Z</time>
      </trkpt>
      <trkpt lat="36.13383" lon="33.21091">
        <ele>160.400341</ele>
        <time>2022-02-24T22:18:49.071Z</time>
      </trkpt>
      <trkpt lat="36.13409" lon="33.21038">
        <ele>154.925783</ele>
        <time>2022-02-24T22:18:57.060Z</time>
      </trkpt>
      <trkpt lat="36.13407" lon="33.21019">
        <ele>153.246789</ele>
        <time>2022-02-24T22:18:59.532Z</time>
      </trkpt>
      <trkpt lat="36.13393" lon="33.21002">
        <ele>151.47888</ele>
        <time>2022-02-24T22:19:02.611Z</time>
      </trkpt>
      <trkpt lat="36.13367" lon="33.20994">
        <ele>149.027875</ele>
        <time>2022-02-24T22:19:06.871Z</time>
      </trkpt>
      <trkpt lat="36.13339" lon="33.20971">
        <ele>146.007783</ele>
        <time>2022-02-24T22:19:12.194Z</time>
      </trkpt>
      <trkpt lat="36.13325" lon="33.20945">
        <ele>143.713627</ele>
        <time>2022-02-24T22:19:16.346Z</time>
      </trkpt>
      <trkpt lat="36.13333" lon="33.20885">
        <ele>139.184784</ele>
        <time>2022-02-24T22:19:24.875Z</time>
      </trkpt>
      <trkpt lat="36.133" lon="33.20853">
        <ele>136.671583</ele>
        <time>2022-02-24T22:19:32.604Z</time>
      </trkpt>
      <trkpt lat="36.13287" lon="33.20823">
        <ele>136.233725</ele>
        <time>2022-02-24T22:19:37.926Z</time>
      </trkpt>
      <trkpt lat="36.13265" lon="33.20734">
        <ele>135.028211</ele>
        <time>2022-02-24T22:19:54.952Z</time>
      </trkpt>
      <trkpt lat="36.1327" lon="33.20651">
        <ele>134.071231</ele>
        <time>2022-02-24T22:20:14.498Z</time>
      </trkpt>
      <trkpt lat="36.13283" lon="33.20617">
        <ele>134.054719</ele>
        <time>2022-02-24T22:20:24.070Z</time>
      </trkpt>
      <trkpt lat="36.1331" lon="33.20586">
        <ele>134.034201</ele>
        <time>2022-02-24T22:20:35.179Z</time>
      </trkpt>
      <trkpt lat="36.13325" lon="33.20533">
        <ele>134.009516</ele>
        <time>2022-02-24T22:20:47.443Z</time>
      </trkpt>
      <trkpt lat="36.13358" lon="33.20489">
        <ele>133.982914</ele>
        <time>2022-02-24T22:20:59.734Z</time>
      </trkpt>
      <trkpt lat="36.13359" lon="33.20463">
        <ele>133.757887</ele>
        <time>2022-02-24T22:21:04.616Z</time>
      </trkpt>
      <trkpt lat="36.1335" lon="33.20454">
        <ele>133.508691</ele>
        <time>2022-02-24T22:21:07.151Z</time>
      </trkpt>
      <trkpt lat="36.13217" lon="33.20418">
        <ele>130.536059</ele>
        <time>2022-02-24T22:21:34.715Z</time>
      </trkpt>
      <trkpt lat="36.13198" lon="33.20397">
        <ele>129.942956</ele>
        <time>2022-02-24T22:21:40.119Z</time>
      </trkpt>
      <trkpt lat="36.13184" lon="33.20337">
        <ele>128.612362</ele>
        <time>2022-02-24T22:21:50.259Z</time>
      </trkpt>
      <trkpt lat="36.13171" lon="33.20318">
        <ele>128.048368</ele>
        <time>2022-02-24T22:21:54.402Z</time>
      </trkpt>
      <trkpt lat="36.13087" lon="33.20288">
        <ele>125.723294</ele>
        <time>2022-02-24T22:22:11.464Z</time>
      </trkpt>
      <trkpt lat="36.13062" lon="33.20264">
        <ele>125.141448</ele>
        <time>2022-02-24T22:22:18.069Z</time>
      </trkpt>
      <trkpt lat="36.13045" lon="33.20189">
        <ele>124.755454</ele>
        <time>2022-02-24T22:22:32.193Z</time>
      </trkpt>
      <trkpt lat="36.12981" lon="33.2013">
        <ele>124.268578</ele>
        <time>2022-02-24T22:22:51.005Z</time>
      </trkpt>
      <trkpt lat="36.12973" lon="33.20106">
        <ele>124.136526</ele>
        <time>2022-02-24T22:22:57.411Z</time>
      </trkpt>
      <trkpt lat="36.12974" lon="33.2002">
        <ele>127.764101</ele>
        <time>2022-02-24T22:23:26.759Z</time>
      </trkpt>
      <trkpt lat="36.13006" lon="33.19935">
        <ele>131.875666</ele>
        <time>2022-02-24T22:24:11.063Z</time>
      </trkpt>
      <trkpt lat="36.12967" lon="33.19861">
        <ele>136.931207</ele>
        <time>2022-02-24T22:24:58.286Z</time>
      </trkpt>
      <trkpt lat="36.12965" lon="33.19785">
        <ele>142.41026</ele>
        <time>2022-02-24T22:25:43.837Z</time>
      </trkpt>
      <trkpt lat="36.1302" lon="33.19583">
        <ele>156.060806</ele>
        <time>2022-02-24T22:27:43.062Z</time>
      </trkpt>
      <trkpt lat="36.13019" lon="33.19482">
        <ele>161.743605</ele>
        <time>2022-02-24T22:28:27.155Z</time>
      </trkpt>
      <trkpt lat="36.13032" lon="33.19465">
        <ele>162.653292</ele>
        <time>2022-02-24T22:28:36.487Z</time>
      </trkpt>
      <trkpt lat="36.13084" lon="33.19446">
        <ele>163.777297</ele>
        <time>2022-02-24T22:29:00.516Z</time>
      </trkpt>
      <trkpt lat="36.13181" lon="33.19349">
        <ele>166.069325</ele>
        <time>2022-02-24T22:29:40.374Z</time>
      </trkpt>
      <trkpt lat="36.13265" lon="33.19328">
        <ele>163.999595</ele>
        <time>2022-02-24T22:30:00.522Z</time>
      </trkpt>
      <trkpt lat="36.13353" lon="33.19289">
        <ele>161.306791</ele>
        <time>2022-02-24T22:30:18.208Z</time>
      </trkpt>
      <trkpt lat="36.13385" lon="33.19287">
        <ele>158.337274</ele>
        <time>2022-02-24T22:30:23.797Z</time>
      </trkpt>
      <trkpt lat="36.13412" lon="33.19298">
        <ele>155.705195</ele>
        <time>2022-02-24T22:30:28.617Z</time>
      </trkpt>
      <trkpt lat="36.13471" lon="33.19353">
        <ele>148.861739</ele>
        <time>2022-02-24T22:30:40.672Z</time>
      </trkpt>
      <trkpt lat="36.13502" lon="33.19352">
        <ele>146.007229</ele>
        <time>2022-02-24T22:30:45.549Z</time>
      </trkpt>
      <trkpt lat="36.13518" lon="33.19322">
        <ele>141.968796</ele>
        <time>2022-02-24T22:30:50.193Z</time>
      </trkpt>
      <trkpt lat="36.13504" lon="33.19234">
        <ele>130.86407</ele>
        <time>2022-02-24T22:31:01.349Z</time>
      </trkpt>
      <trkpt lat="36.13524" lon="33.1912">
        <ele>116.242557</ele>
        <time>2022-02-24T22:31:15.947Z</time>
      </trkpt>
      <trkpt lat="36.13553" lon="33.18853">
        <ele>83.227837</ele>
        <time>2022-02-24T22:31:49.751Z</time>
      </trkpt>
      <trkpt lat="36.13548" lon="33.18808">
        <ele>78.107545</ele>
        <time>2022-02-24T22:31:55.527Z</time>
      </trkpt>
      <trkpt lat="36.13523" lon="33.18798">
        <ele>74.54649</ele>
        <time>2022-02-24T22:31:59.547Z</time>
      </trkpt>
      <trkpt lat="36.1348" lon="33.18841">
        <ele>66.839892</ele>
        <time>2022-02-24T22:32:08.267Z</time>
      </trkpt>
      <trkpt lat="36.1346" lon="33.18841">
        <ele>64.052744</ele>
        <time>2022-02-24T22:32:11.508Z</time>
      </trkpt>
      <trkpt lat="36.13449" lon="33.18824">
        <ele>62.009087</ele>
        <time>2022-02-24T22:32:14.262Z</time>
      </trkpt>
      <trkpt lat="36.13452" lon="33.18795">
        <ele>59.263229</ele>
        <time>2022-02-24T22:32:17.964Z</time>
      </trkpt>
      <trkpt lat="36.13496" lon="33.18704">
        <ele>49.225549</ele>
        <time>2022-02-24T22:32:31.591Z</time>
      </trkpt>
      <trkpt lat="36.13494" lon="33.18682">
        <ele>47.081083</ele>
        <time>2022-02-24T22:32:34.504Z</time>
      </trkpt>
      <trkpt lat="36.13458" lon="33.18623">
        <ele>40.774873</ele>
        <time>2022-02-24T22:32:44.106Z</time>
      </trkpt>
      <trkpt lat="36.13444" lon="33.18569">
        <ele>36.542913</ele>
        <time>2022-02-24T22:32:51.661Z</time>
      </trkpt>
      <trkpt lat="36.13433" lon="33.18464">
        <ele>28.726018</ele>
        <time>2022-02-24T22:33:05.853Z</time>
      </trkpt>
      <trkpt lat="36.13439" lon="33.18415">
        <ele>25.512826</ele>
        <time>2022-02-24T22:33:12.659Z</time>
      </trkpt>
      <trkpt lat="36.13455" lon="33.18394">
        <ele>23.976621</ele>
        <time>2022-02-24T22:33:16.621Z</time>
      </trkpt>
      <trkpt lat="36.13488" lon="33.18384">
        <ele>21.687491</ele>
        <time>2022-02-24T22:33:22.584Z</time>
      </trkpt>
      <trkpt lat="36.13499" lon="33.18349">
        <ele>19.670829</ele>
        <time>2022-02-24T22:33:27.875Z</time>
      </trkpt>
      <trkpt lat="36.13467" lon="33.18205">
        <ele>12.94263</ele>
        <time>2022-02-24T22:33:49.255Z</time>
      </trkpt>
      <trkpt lat="36.13471" lon="33.18121">
        <ele>10.21852</ele>
        <time>2022-02-24T22:34:01.920Z</time>
      </trkpt>
      <trkpt lat="36.13484" lon="33.18011">
        <ele>7.328122</ele>
        <time>2022-02-24T22:34:20.182Z</time>
      </trkpt>
      <trkpt lat="36.13511" lon="33.17861">
        <ele>5.76015</ele>
        <time>2022-02-24T22:34:48.521Z</time>
      </trkpt>
      <trkpt lat="36.13532" lon="33.17748">
        <ele>5.058108</ele>
        <time>2022-02-24T22:35:12.053Z</time>
      </trkpt>
      <trkpt lat="36.13547" lon="33.17663">
        <ele>4.708137</ele>
        <time>2022-02-24T22:35:28.978Z</time>
      </trkpt>
      <trkpt lat="36.13554" lon="33.17628">
        <ele>4.560029</ele>
        <time>2022-02-24T22:35:36.248Z</time>
      </trkpt>
      <trkpt lat="36.13557" lon="33.17608">
        <ele>4.479341</ele>
        <time>2022-02-24T22:35:40.270Z</time>
      </trkpt>
      <trkpt lat="36.13564" lon="33.17557">
        <ele>4.441213</ele>
        <time>2022-02-24T22:35:50.855Z</time>
      </trkpt>
      <trkpt lat="36.13583" lon="33.17431">
        <ele>4.350479</ele>
        <time>2022-02-24T22:36:18.823Z</time>
      </trkpt>
      <trkpt lat="36.13662" lon="33.1691">
        <ele>4.349371</ele>
        <time>2022-02-24T22:38:13.728Z</time>
      </trkpt>
      <trkpt lat="36.1369" lon="33.1677">
        <ele>4.025605</ele>
        <time>2022-02-24T22:38:43.003Z</time>
      </trkpt>
      <trkpt lat="36.13732" lon="33.16632">
        <ele>3.881829</ele>
        <time>2022-02-24T22:39:13.254Z</time>
      </trkpt>
      <trkpt lat="36.1378" lon="33.16484">
        <ele>4.039541</ele>
        <time>2022-02-24T22:39:48.329Z</time>
      </trkpt>
      <trkpt lat="36.13866" lon="33.16222">
        <ele>5.782805</ele>
        <time>2022-02-24T22:40:57.236Z</time>
      </trkpt>
      <trkpt lat="36.13902" lon="33.16048">
        <ele>7.360209</ele>
        <time>2022-02-24T22:41:45.329Z</time>
      </trkpt>
      <trkpt lat="36.13909" lon="33.15963">
        <ele>8.129105</ele>
        <time>2022-02-24T22:42:08.207Z</time>
      </trkpt>
      <trkpt lat="36.13913" lon="33.1589">
        <ele>8.787691</ele>
        <time>2022-02-24T22:42:26.730Z</time>
      </trkpt>
      <trkpt lat="36.13913" lon="33.15884">
        <ele>8.784625</ele>
        <time>2022-02-24T22:42:28.234Z</time>
      </trkpt>
      <trkpt lat="36.13914" lon="33.15765">
        <ele>8.724116</ele>
        <time>2022-02-24T22:42:55.073Z</time>
      </trkpt>
      <trkpt lat="36.13918" lon="33.15447">
        <ele>7.508234</ele>
        <time>2022-02-24T22:43:56.760Z</time>
      </trkpt>
      <trkpt lat="36.13917" lon="33.15432">
        <ele>7.452661</ele>
        <time>2022-02-24T22:43:59.684Z</time>
      </trkpt>
      <trkpt lat="36.13895" lon="33.15061">
        <ele>6.412925</ele>
        <time>2022-02-24T22:45:15.666Z</time>
      </trkpt>
      <trkpt lat="36.13889" lon="33.1496">
        <ele>6.027182</ele>
        <time>2022-02-24T22:45:36.740Z</time>
      </trkpt>
      <trkpt lat="36.13885" lon="33.14923">
        <ele>5.80245</ele>
        <time>2022-02-24T22:45:44.353Z</time>
      </trkpt>
      <trkpt lat="36.13881" lon="33.14878">
        <ele>5.530645</ele>
        <time>2022-02-24T22:45:53.303Z</time>
      </trkpt>
      <trkpt lat="36.13879" lon="33.14853">
        <ele>5.383293</ele>
        <time>2022-02-24T22:45:57.570Z</time>
      </trkpt>
      <trkpt lat="36.13856" lon="33.14698">
        <ele>4.403474</ele>
        <time>2022-02-24T22:46:27.009Z</time>
      </trkpt>
      <trkpt lat="36.13856" lon="33.14692">
        <ele>4.367913</ele>
        <time>2022-02-24T22:46:27.827Z</time>
      </trkpt>
      <trkpt lat="36.13825" lon="33.1448">
        <ele>3.524615</ele>
        <time>2022-02-24T22:47:11.063Z</time>
      </trkpt>
      <trkpt lat="36.13802" lon="33.14314">
        <ele>3.496951</ele>
        <time>2022-02-24T22:47:49.425Z</time>
      </trkpt>
      <trkpt lat="36.13786" lon="33.14224">
        <ele>3.359423</ele>
        <time>2022-02-24T22:48:08.720Z</time>
      </trkpt>
      <trkpt lat="36.13783" lon="33.14205">
        <ele>3.330447</ele>
        <time>2022-02-24T22:48:12.422Z</time>
      </trkpt>
      <trkpt lat="36.13758" lon="33.14121">
        <ele>3.203516</ele>
        <time>2022-02-24T22:48:30.455Z</time>
      </trkpt>
      <trkpt lat="36.13673" lon="33.13848">
        <ele>3.105334</ele>
        <time>2022-02-24T22:49:33.767Z</time>
      </trkpt>
      <trkpt lat="36.1364" lon="33.13725">
        <ele>3.110678</ele>
        <time>2022-02-24T22:50:01.848Z</time>
      </trkpt>
      <trkpt lat="36.13619" lon="33.13628">
        <ele>3.042713</ele>
        <time>2022-02-24T22:50:22.618Z</time>
      </trkpt>
      <trkpt lat="36.13597" lon="33.13481">
        <ele>2.962661</ele>
        <time>2022-02-24T22:50:54.154Z</time>
      </trkpt>
      <trkpt lat="36.13589" lon="33.13444">
        <ele>3.111347</ele>
        <time>2022-02-24T22:51:02.669Z</time>
      </trkpt>
      <trkpt lat="36.13569" lon="33.13348">
        <ele>3.495105</ele>
        <time>2022-02-24T22:51:26.521Z</time>
      </trkpt>
      <trkpt lat="36.13546" lon="33.13253">
        <ele>3.87453</ele>
        <time>2022-02-24T22:51:50.494Z</time>
      </trkpt>
      <trkpt lat="36.13525" lon="33.13183">
        <ele>4.154811</ele>
        <time>2022-02-24T22:52:08.192Z</time>
      </trkpt>
      <trkpt lat="36.13494" lon="33.13078">
        <ele>4.578021</ele>
        <time>2022-02-24T22:52:33.805Z</time>
      </trkpt>
      <trkpt lat="36.13473" lon="33.1301">
        <ele>4.762801</ele>
        <time>2022-02-24T22:52:50.568Z</time>
      </trkpt>
      <trkpt lat="36.13433" lon="33.12933">
        <ele>4.969463</ele>
        <time>2022-02-24T22:53:10.829Z</time>
      </trkpt>
      <trkpt lat="36.13411" lon="33.12896">
        <ele>5.073252</ele>
        <time>2022-02-24T22:53:21.400Z</time>
      </trkpt>
      <trkpt lat="36.13399" lon="33.12877">
        <ele>5.126299</ele>
        <time>2022-02-24T22:53:27.111Z</time>
      </trkpt>
      <trkpt lat="36.13391" lon="33.12864">
        <ele>5.17064</ele>
        <time>2022-02-24T22:53:30.980Z</time>
      </trkpt>
      <trkpt lat="36.13124" lon="33.12502">
        <ele>6.41277</ele>
        <time>2022-02-24T22:55:22.326Z</time>
      </trkpt>
      <trkpt lat="36.13073" lon="33.12427">
        <ele>6.668305</ele>
        <time>2022-02-24T22:55:44.966Z</time>
      </trkpt>
      <trkpt lat="36.13033" lon="33.12361">
        <ele>6.823539</ele>
        <time>2022-02-24T22:56:03.588Z</time>
      </trkpt>
      <trkpt lat="36.1301" lon="33.12317">
        <ele>6.786441</ele>
        <time>2022-02-24T22:56:15.193Z</time>
      </trkpt>
      <trkpt lat="36.1299" lon="33.12256">
        <ele>6.739695</ele>
        <time>2022-02-24T22:56:29.288Z</time>
      </trkpt>
      <trkpt lat="36.12978" lon="33.12193">
        <ele>6.693961</ele>
        <time>2022-02-24T22:56:42.655Z</time>
      </trkpt>
      <trkpt lat="36.12974" lon="33.12055">
        <ele>6.369426</ele>
        <time>2022-02-24T22:57:10.002Z</time>
      </trkpt>
      <trkpt lat="36.12962" lon="33.11982">
        <ele>6.171537</ele>
        <time>2022-02-24T22:57:24.947Z</time>
      </trkpt>
      <trkpt lat="36.12791" lon="33.11384">
        <ele>7.436173</ele>
        <time>2022-02-24T22:59:50.307Z</time>
      </trkpt>
      <trkpt lat="36.12755" lon="33.11275">
        <ele>7.371464</ele>
        <time>2022-02-24T23:00:14.286Z</time>
      </trkpt>
      <trkpt lat="36.12735" lon="33.1123">
        <ele>7.232896</ele>
        <time>2022-02-24T23:00:24.759Z</time>
      </trkpt>
      <trkpt lat="36.12715" lon="33.11201">
        <ele>7.131091</ele>
        <time>2022-02-24T23:00:32.280Z</time>
      </trkpt>
      <trkpt lat="36.1271" lon="33.11189">
        <ele>7.096541</ele>
        <time>2022-02-24T23:00:34.893Z</time>
      </trkpt>
      <trkpt lat="36.12681" lon="33.11135">
        <ele>6.919389</ele>
        <time>2022-02-24T23:00:48.192Z</time>
      </trkpt>
      <trkpt lat="36.12544" lon="33.10877">
        <ele>6.814056</ele>
        <time>2022-02-24T23:01:54.316Z</time>
      </trkpt>
      <trkpt lat="36.12315" lon="33.10474">
        <ele>7.063147</ele>
        <time>2022-02-24T23:03:41.112Z</time>
      </trkpt>
      <trkpt lat="36.12236" lon="33.10344">
        <ele>7.60275</ele>
        <time>2022-02-24T23:04:18.655Z</time>
      </trkpt>
      <trkpt lat="36.12188" lon="33.10266">
        <ele>8.165284</ele>
        <time>2022-02-24T23:04:42.527Z</time>
      </trkpt>
      <trkpt lat="36.12145" lon="33.10206">
        <ele>8.780838</ele>
        <time>2022-02-24T23:05:02.845Z</time>
      </trkpt>
      <trkpt lat="36.12033" lon="33.10072">
        <ele>10.998909</ele>
        <time>2022-02-24T23:05:55.014Z</time>
      </trkpt>
      <trkpt lat="36.115" lon="33.09488">
        <ele>26.839345</ele>
        <time>2022-02-24T23:10:21.776Z</time>
      </trkpt>
      <trkpt lat="36.11208" lon="33.09171">
        <ele>36.307822</ele>
        <time>2022-02-24T23:12:50.114Z</time>
      </trkpt>
      <trkpt lat="36.11153" lon="33.09104">
        <ele>38.805634</ele>
        <time>2022-02-24T23:13:21.183Z</time>
      </trkpt>
      <trkpt lat="36.11109" lon="33.09041">
        <ele>40.955506</ele>
        <time>2022-02-24T23:13:51.457Z</time>
      </trkpt>
      <trkpt lat="36.11055" lon="33.08955">
        <ele>44.041475</ele>
        <time>2022-02-24T23:14:30.765Z</time>
      </trkpt>
      <trkpt lat="36.11053" lon="33.08951">
        <ele>44.188418</ele>
        <time>2022-02-24T23:14:33.891Z</time>
      </trkpt>
      <trkpt lat="36.1092" lon="33.08645">
        <ele>53.653764</ele>
        <time>2022-02-24T23:16:32.018Z</time>
      </trkpt>
      <trkpt lat="36.10861" lon="33.08441">
        <ele>60.576385</ele>
        <time>2022-02-24T23:17:47.844Z</time>
      </trkpt>
      <trkpt lat="36.10841" lon="33.0839">
        <ele>63.998021</ele>
        <time>2022-02-24T23:18:14.541Z</time>
      </trkpt>
      <trkpt lat="36.10807" lon="33.08357">
        <ele>67.66806</ele>
        <time>2022-02-24T23:18:43.340Z</time>
      </trkpt>
      <trkpt lat="36.10767" lon="33.08337">
        <ele>71.260328</ele>
        <time>2022-02-24T23:19:14.577Z</time>
      </trkpt>
      <trkpt lat="36.10731" lon="33.08332">
        <ele>74.353717</ele>
        <time>2022-02-24T23:19:43.233Z</time>
      </trkpt>
      <trkpt lat="36.10646" lon="33.08331">
        <ele>80.726267</ele>
        <time>2022-02-24T23:20:44.256Z</time>
      </trkpt>
      <trkpt lat="36.10602" lon="33.08311">
        <ele>84.148389</ele>
        <time>2022-02-24T23:21:15.235Z</time>
      </trkpt>
      <trkpt lat="36.10399" lon="33.08158">
        <ele>96.104929</ele>
        <time>2022-02-24T23:23:09.660Z</time>
      </trkpt>
      <trkpt lat="36.10348" lon="33.08098">
        <ele>96.873024</ele>
        <time>2022-02-24T23:23:36.973Z</time>
      </trkpt>
      <trkpt lat="36.10243" lon="33.0789">
        <ele>92.837553</ele>
        <time>2022-02-24T23:24:23.647Z</time>
      </trkpt>
      <trkpt lat="36.10192" lon="33.07831">
        <ele>88.613443</ele>
        <time>2022-02-24T23:24:35.486Z</time>
      </trkpt>
      <trkpt lat="36.1005" lon="33.07707">
        <ele>69.451254</ele>
        <time>2022-02-24T23:25:03.043Z</time>
      </trkpt>
      <trkpt lat="36.09951" lon="33.07592">
        <ele>56.42587</ele>
        <time>2022-02-24T23:25:24.940Z</time>
      </trkpt>
      <trkpt lat="36.09901" lon="33.07507">
        <ele>49.208787</ele>
        <time>2022-02-24T23:25:39.745Z</time>
      </trkpt>
      <trkpt lat="36.09812" lon="33.07309">
        <ele>41.441091</ele>
        <time>2022-02-24T23:26:14.230Z</time>
      </trkpt>
      <trkpt lat="36.0972" lon="33.07147">
        <ele>34.792135</ele>
        <time>2022-02-24T23:26:44.231Z</time>
      </trkpt>
      <trkpt lat="36.09673" lon="33.07041">
        <ele>30.783631</ele>
        <time>2022-02-24T23:27:02.306Z</time>
      </trkpt>
      <trkpt lat="36.09649" lon="33.06974">
        <ele>28.373393</ele>
        <time>2022-02-24T23:27:13.302Z</time>
      </trkpt>
      <trkpt lat="36.09609" lon="33.06742">
        <ele>22.279884</ele>
        <time>2022-02-24T23:27:50.666Z</time>
      </trkpt>
      <trkpt lat="36.09533" lon="33.0606">
        <ele>13.511075</ele>
        <time>2022-02-24T23:29:53.356Z</time>
      </trkpt>
      <trkpt lat="36.09524" lon="33.05931">
        <ele>12.688427</ele>
        <time>2022-02-24T23:30:17.284Z</time>
      </trkpt>
      <trkpt lat="36.09527" lon="33.05888">
        <ele>12.428069</ele>
        <time>2022-02-24T23:30:25.816Z</time>
      </trkpt>
      <trkpt lat="36.09537" lon="33.05839">
        <ele>12.126508</ele>
        <time>2022-02-24T23:30:36.026Z</time>
      </trkpt>
      <trkpt lat="36.09634" lon="33.0551">
        <ele>12.545525</ele>
        <time>2022-02-24T23:31:55.240Z</time>
      </trkpt>
      <trkpt lat="36.09652" lon="33.05429">
        <ele>12.62706</ele>
        <time>2022-02-24T23:32:13.135Z</time>
      </trkpt>
      <trkpt lat="36.0966" lon="33.05355">
        <ele>12.854929</ele>
        <time>2022-02-24T23:32:29.109Z</time>
      </trkpt>
      <trkpt lat="36.09659" lon="33.05341">
        <ele>12.909033</ele>
        <time>2022-02-24T23:32:31.995Z</time>
      </trkpt>
      <trkpt lat="36.09655" lon="33.05295">
        <ele>13.08441</ele>
        <time>2022-02-24T23:32:41.518Z</time>
      </trkpt>
      <trkpt lat="36.09622" lon="33.05091">
        <ele>16.60808</ele>
        <time>2022-02-24T23:33:35.619Z</time>
      </trkpt>
      <trkpt lat="36.09618" lon="33.05031">
        <ele>18.500339</ele>
        <time>2022-02-24T23:33:58.138Z</time>
      </trkpt>
      <trkpt lat="36.09623" lon="33.04411">
        <ele>52.667326</ele>
        <time>2022-02-24T23:39:17.434Z</time>
      </trkpt>
      <trkpt lat="36.09627" lon="33.04354">
        <ele>55.019305</ele>
        <time>2022-02-24T23:39:41.071Z</time>
      </trkpt>
      <trkpt lat="36.09718" lon="33.0399">
        <ele>56.353493</ele>
        <time>2022-02-24T23:41:10.155Z</time>
      </trkpt>
      <trkpt lat="36.09727" lon="33.03939">
        <ele>55.341274</ele>
        <time>2022-02-24T23:41:18.139Z</time>
      </trkpt>
      <trkpt lat="36.0973" lon="33.0387">
        <ele>53.897453</ele>
        <time>2022-02-24T23:41:28.250Z</time>
      </trkpt>
      <trkpt lat="36.09724" lon="33.03839">
        <ele>52.355459</ele>
        <time>2022-02-24T23:41:32.703Z</time>
      </trkpt>
      <trkpt lat="36.09693" lon="33.03663">
        <ele>43.606853</ele>
        <time>2022-02-24T23:41:57.924Z</time>
      </trkpt>
      <trkpt lat="36.09678" lon="33.03531">
        <ele>39.745843</ele>
        <time>2022-02-24T23:42:18.197Z</time>
      </trkpt>
      <trkpt lat="36.09681" lon="33.03487">
        <ele>38.510429</ele>
        <time>2022-02-24T23:42:25.653Z</time>
      </trkpt>
      <trkpt lat="36.09688" lon="33.03473">
        <ele>38.068867</ele>
        <time>2022-02-24T23:42:28.504Z</time>
      </trkpt>
      <trkpt lat="36.09718" lon="33.03439">
        <ele>36.680386</ele>
        <time>2022-02-24T23:42:37.395Z</time>
      </trkpt>
      <trkpt lat="36.09757" lon="33.03421">
        <ele>35.322907</ele>
        <time>2022-02-24T23:42:46.030Z</time>
      </trkpt>
      <trkpt lat="36.09787" lon="33.03417">
        <ele>34.307101</ele>
        <time>2022-02-24T23:42:52.294Z</time>
      </trkpt>
      <trkpt lat="36.09864" lon="33.03428">
        <ele>31.767461</ele>
        <time>2022-02-24T23:43:06.969Z</time>
      </trkpt>
      <trkpt lat="36.09894" lon="33.03427">
        <ele>30.44373</ele>
        <time>2022-02-24T23:43:12.529Z</time>
      </trkpt>
      <trkpt lat="36.09921" lon="33.03416">
        <ele>28.80257</ele>
        <time>2022-02-24T23:43:17.408Z</time>
      </trkpt>
      <trkpt lat="36.0994" lon="33.03401">
        <ele>27.438111</ele>
        <time>2022-02-24T23:43:21.425Z</time>
      </trkpt>
      <trkpt lat="36.0996" lon="33.03367">
        <ele>25.4234</ele>
        <time>2022-02-24T23:43:27.290Z</time>
      </trkpt>
      <trkpt lat="36.09968" lon="33.03334">
        <ele>23.779677</ele>
        <time>2022-02-24T23:43:32.053Z</time>
      </trkpt>
      <trkpt lat="36.09962" lon="33.0327">
        <ele>20.715573</ele>
        <time>2022-02-24T23:43:41.032Z</time>
      </trkpt>
      <trkpt lat="36.09951" lon="33.03241">
        <ele>19.850048</ele>
        <time>2022-02-24T23:43:45.706Z</time>
      </trkpt>
      <trkpt lat="36.09909" lon="33.03165">
        <ele>17.78924</ele>
        <time>2022-02-24T23:43:59.560Z</time>
      </trkpt>
      <trkpt lat="36.098" lon="33.02969">
        <ele>16.25038</ele>
        <time>2022-02-24T23:44:47.898Z</time>
      </trkpt>
      <trkpt lat="36.09774" lon="33.02913">
        <ele>16.627115</ele>
        <time>2022-02-24T23:45:07.338Z</time>
      </trkpt>
      <trkpt lat="36.09764" lon="33.0288">
        <ele>16.965422</ele>
        <time>2022-02-24T23:45:18.727Z</time>
      </trkpt>
      <trkpt lat="36.09758" lon="33.02836">
        <ele>17.700279</ele>
        <time>2022-02-24T23:45:32.708Z</time>
      </trkpt>
      <trkpt lat="36.09755" lon="33.02691">
        <ele>20.13582</ele>
        <time>2022-02-24T23:46:16.797Z</time>
      </trkpt>
      <trkpt lat="36.09793" lon="33.02706">
        <ele>20.439413</ele>
        <time>2022-02-24T23:46:29.697Z</time>
      </trkpt>
      <trkpt lat="36.09797" lon="33.02691">
        <ele>20.410273</ele>
        <time>2022-02-24T23:46:33.757Z</time>
      </trkpt>
      <trkpt lat="36.09827" lon="33.02632">
        <ele>20.278326</ele>
        <time>2022-02-24T23:46:49.179Z</time>
      </trkpt>
      <trkpt lat="36.09849" lon="33.02563">
        <ele>20.137686</ele>
        <time>2022-02-24T23:47:03.121Z</time>
      </trkpt>
      <trkpt lat="36.09856" lon="33.02523">
        <ele>20.096376</ele>
        <time>2022-02-24T23:47:10.800Z</time>
      </trkpt>
      <trkpt lat="36.09856" lon="33.02462">
        <ele>20.432016</ele>
        <time>2022-02-24T23:47:23.638Z</time>
      </trkpt>
      <trkpt lat="36.09862" lon="33.02422">
        <ele>20.655379</ele>
        <time>2022-02-24T23:47:33.491Z</time>
      </trkpt>
      <trkpt lat="36.0986" lon="33.02408">
        <ele>20.731567</ele>
        <time>2022-02-24T23:47:36.209Z</time>
      </trkpt>
      <trkpt lat="36.09944" lon="33.0234">
        <ele>21.789433</ele>
        <time>2022-02-24T23:48:11.633Z</time>
      </trkpt>
      <trkpt lat="36.09963" lon="33.02318">
        <ele>22.565736</ele>
        <time>2022-02-24T23:48:22.343Z</time>
      </trkpt>
      <trkpt lat="36.09984" lon="33.02278">
        <ele>23.679076</ele>
        <time>2022-02-24T23:48:38.948Z</time>
      </trkpt>
      <trkpt lat="36.10079" lon="33.02006">
        <ele>30.081349</ele>
        <time>2022-02-24T23:50:18.617Z</time>
      </trkpt>
      <trkpt lat="36.10092" lon="33.01959">
        <ele>31.006157</ele>
        <time>2022-02-24T23:50:31.610Z</time>
      </trkpt>
      <trkpt lat="36.10097" lon="33.01918">
        <ele>30.737143</ele>
        <time>2022-02-24T23:50:41.400Z</time>
      </trkpt>
      <trkpt lat="36.10101" lon="33.01858">
        <ele>30.353963</ele>
        <time>2022-02-24T23:50:53.783Z</time>
      </trkpt>
      <trkpt lat="36.10098" lon="33.01805">
        <ele>30.009622</ele>
        <time>2022-02-24T23:51:03.781Z</time>
      </trkpt>
      <trkpt lat="36.10086" lon="33.01737">
        <ele>29.427952</ele>
        <time>2022-02-24T23:51:15.686Z</time>
      </trkpt>
      <trkpt lat="36.10053" lon="33.01603">
        <ele>24.908258</ele>
        <time>2022-02-24T23:51:37.071Z</time>
      </trkpt>
      <trkpt lat="36.10042" lon="33.01541">
        <ele>22.822962</ele>
        <time>2022-02-24T23:51:46.513Z</time>
      </trkpt>
      <trkpt lat="36.10034" lon="33.0149">
        <ele>21.013033</ele>
        <time>2022-02-24T23:51:54.027Z</time>
      </trkpt>
      <trkpt lat="36.10031" lon="33.01452">
        <ele>19.643295</ele>
        <time>2022-02-24T23:51:59.510Z</time>
      </trkpt>
      <trkpt lat="36.10031" lon="33.01406">
        <ele>17.989225</ele>
        <time>2022-02-24T23:52:06.229Z</time>
      </trkpt>
      <trkpt lat="36.1004" lon="33.01342">
        <ele>15.658393</ele>
        <time>2022-02-24T23:52:15.974Z</time>
      </trkpt>
      <trkpt lat="36.10053" lon="33.01295">
        <ele>14.260326</ele>
        <time>2022-02-24T23:52:23.630Z</time>
      </trkpt>
      <trkpt lat="36.10097" lon="33.01162">
        <ele>13.013032</ele>
        <time>2022-02-24T23:52:49.977Z</time>
      </trkpt>
      <trkpt lat="36.10164" lon="33.00972">
        <ele>12.746675</ele>
        <time>2022-02-24T23:53:38.858Z</time>
      </trkpt>
      <trkpt lat="36.10195" lon="33.0089">
        <ele>12.860129</ele>
        <time>2022-02-24T23:53:58.569Z</time>
      </trkpt>
      <trkpt lat="36.10215" lon="33.00826">
        <ele>12.484248</ele>
        <time>2022-02-24T23:54:12.366Z</time>
      </trkpt>
      <trkpt lat="36.10222" lon="33.00782">
        <ele>12.241135</ele>
        <time>2022-02-24T23:54:21.000Z</time>
      </trkpt>
      <trkpt lat="36.10226" lon="33.00719">
        <ele>11.894162</ele>
        <time>2022-02-24T23:54:33.029Z</time>
      </trkpt>
      <trkpt lat="36.10225" lon="33.0065">
        <ele>11.431771</ele>
        <time>2022-02-24T23:54:45.625Z</time>
      </trkpt>
      <trkpt lat="36.10217" lon="33.00498">
        <ele>10.183134</ele>
        <time>2022-02-24T23:55:13.709Z</time>
      </trkpt>
      <trkpt lat="36.10225" lon="33.00402">
        <ele>9.828215</ele>
        <time>2022-02-24T23:55:32.771Z</time>
      </trkpt>
      <trkpt lat="36.10238" lon="33.00335">
        <ele>9.76857</ele>
        <time>2022-02-24T23:55:47.116Z</time>
      </trkpt>
      <trkpt lat="36.10265" lon="33.00241">
        <ele>9.714781</ele>
        <time>2022-02-24T23:56:09.459Z</time>
      </trkpt>
      <trkpt lat="36.10318" lon="33.00063">
        <ele>10.65123</ele>
        <time>2022-02-24T23:56:55.589Z</time>
      </trkpt>
      <trkpt lat="36.10326" lon="33.00022">
        <ele>10.853717</ele>
        <time>2022-02-24T23:57:05.710Z</time>
      </trkpt>
      <trkpt lat="36.1033" lon="32.99988">
        <ele>11.005197</ele>
        <time>2022-02-24T23:57:13.817Z</time>
      </trkpt>
      <trkpt lat="36.10332" lon="32.99952">
        <ele>11.163229</ele>
        <time>2022-02-24T23:57:21.881Z</time>
      </trkpt>
      <trkpt lat="36.10329" lon="32.999">
        <ele>11.393766</ele>
        <time>2022-02-24T23:57:33.377Z</time>
      </trkpt>
      <trkpt lat="36.10312" lon="32.99689">
        <ele>13.686802</ele>
        <time>2022-02-24T23:58:26.131Z</time>
      </trkpt>
      <trkpt lat="36.10311" lon="32.99663">
        <ele>14.076836</ele>
        <time>2022-02-24T23:58:34.049Z</time>
      </trkpt>
      <trkpt lat="36.10328" lon="32.99485">
        <ele>18.069295</ele>
        <time>2022-02-24T23:59:36.989Z</time>
      </trkpt>
      <trkpt lat="36.10347" lon="32.99358">
        <ele>21.283039</ele>
        <time>2022-02-25T00:00:22.272Z</time>
      </trkpt>
      <trkpt lat="36.10361" lon="32.99255">
        <ele>22.34409</ele>
        <time>2022-02-25T00:00:52.967Z</time>
      </trkpt>
      <trkpt lat="36.10372" lon="32.99183">
        <ele>23.09164</ele>
        <time>2022-02-25T00:01:10.210Z</time>
      </trkpt>
      <trkpt lat="36.10387" lon="32.99077">
        <ele>22.46924</ele>
        <time>2022-02-25T00:01:30.450Z</time>
      </trkpt>
      <trkpt lat="36.10419" lon="32.98859">
        <ele>19.581863</ele>
        <time>2022-02-25T00:02:08.467Z</time>
      </trkpt>
      <trkpt lat="36.10438" lon="32.9872">
        <ele>17.381855</ele>
        <time>2022-02-25T00:02:32.754Z</time>
      </trkpt>
      <trkpt lat="36.10468" lon="32.98532">
        <ele>14.211624</ele>
        <time>2022-02-25T00:03:05.362Z</time>
      </trkpt>
      <trkpt lat="36.10496" lon="32.98339">
        <ele>10.953978</ele>
        <time>2022-02-25T00:03:38.305Z</time>
      </trkpt>
      <trkpt lat="36.10512" lon="32.9824">
        <ele>9.577225</ele>
        <time>2022-02-25T00:03:55.729Z</time>
      </trkpt>
      <trkpt lat="36.10543" lon="32.98033">
        <ele>7.753738</ele>
        <time>2022-02-25T00:04:35.152Z</time>
      </trkpt>
      <trkpt lat="36.1055" lon="32.97983">
        <ele>7.508588</ele>
        <time>2022-02-25T00:04:45.251Z</time>
      </trkpt>
      <trkpt lat="36.10555" lon="32.97939">
        <ele>7.299001</ele>
        <time>2022-02-25T00:04:53.864Z</time>
      </trkpt>
      <trkpt lat="36.10563" lon="32.9785">
        <ele>6.866808</ele>
        <time>2022-02-25T00:05:11.897Z</time>
      </trkpt>
      <trkpt lat="36.10566" lon="32.97779">
        <ele>6.772695</ele>
        <time>2022-02-25T00:05:26.177Z</time>
      </trkpt>
      <trkpt lat="36.10571" lon="32.97688">
        <ele>6.704955</ele>
        <time>2022-02-25T00:05:45.417Z</time>
      </trkpt>
      <trkpt lat="36.10572" lon="32.97638">
        <ele>6.667602</ele>
        <time>2022-02-25T00:05:56.503Z</time>
      </trkpt>
      <trkpt lat="36.10571" lon="32.97593">
        <ele>6.695834</ele>
        <time>2022-02-25T00:06:06.737Z</time>
      </trkpt>
      <trkpt lat="36.10568" lon="32.97526">
        <ele>6.818261</ele>
        <time>2022-02-25T00:06:22.370Z</time>
      </trkpt>
      <trkpt lat="36.10614" lon="32.97516">
        <ele>6.92306</ele>
        <time>2022-02-25T00:06:36.039Z</time>
      </trkpt>
      <trkpt lat="36.10669" lon="32.97497">
        <ele>7.051662</ele>
        <time>2022-02-25T00:06:52.268Z</time>
      </trkpt>
      <trkpt lat="36.10686" lon="32.9749">
        <ele>7.016093</ele>
        <time>2022-02-25T00:06:57.171Z</time>
      </trkpt>
      <trkpt lat="36.10674" lon="32.97484">
        <ele>6.982867</ele>
        <time>2022-02-25T00:07:00.472Z</time>
      </trkpt>
      <trkpt lat="36.10669" lon="32.97471">
        <ele>6.952647</ele>
        <time>2022-02-25T00:07:03.584Z</time>
      </trkpt>
      <trkpt lat="36.10659" lon="32.97408">
        <ele>6.817115</ele>
        <time>2022-02-25T00:07:17.054Z</time>
      </trkpt>
      <trkpt lat="36.10659" lon="32.97387">
        <ele>6.771554</ele>
        <time>2022-02-25T00:07:21.541Z</time>
      </trkpt>
      <trkpt lat="36.10655" lon="32.97327">
        <ele>6.645083</ele>
        <time>2022-02-25T00:07:33.879Z</time>
      </trkpt>
      <trkpt lat="36.10649" lon="32.97164">
        <ele>6.171144</ele>
        <time>2022-02-25T00:08:07.684Z</time>
      </trkpt>
      <trkpt lat="36.10639" lon="32.9703">
        <ele>5.943629</ele>
        <time>2022-02-25T00:08:37.392Z</time>
      </trkpt>
      <trkpt lat="36.10637" lon="32.96977">
        <ele>5.985657</ele>
        <time>2022-02-25T00:08:49.706Z</time>
      </trkpt>
      <trkpt lat="36.10626" lon="32.96919">
        <ele>6.032297</ele>
        <time>2022-02-25T00:09:03.547Z</time>
      </trkpt>
      <trkpt lat="36.10621" lon="32.96909">
        <ele>6.041833</ele>
        <time>2022-02-25T00:09:06.304Z</time>
      </trkpt>
      <trkpt lat="36.10611" lon="32.96903">
        <ele>6.05266</ele>
        <time>2022-02-25T00:09:09.418Z</time>
      </trkpt>
      <trkpt lat="36.10599" lon="32.96903">
        <ele>6.064834</ele>
        <time>2022-02-25T00:09:13.089Z</time>
      </trkpt>
      <trkpt lat="36.1059" lon="32.96587">
        <ele>5.915154</ele>
        <time>2022-02-25T00:10:23.924Z</time>
      </trkpt>
      <trkpt lat="36.10585" lon="32.96445">
        <ele>5.575731</ele>
        <time>2022-02-25T00:10:53.994Z</time>
      </trkpt>
      <trkpt lat="36.10585" lon="32.96319">
        <ele>5.130741</ele>
        <time>2022-02-25T00:11:19.918Z</time>
      </trkpt>
      <trkpt lat="36.10578" lon="32.96183">
        <ele>4.748319</ele>
        <time>2022-02-25T00:11:48.446Z</time>
      </trkpt>
      <trkpt lat="36.10512" lon="32.9617">
        <ele>4.746755</ele>
        <time>2022-02-25T00:12:06.776Z</time>
      </trkpt>
      <trkpt lat="36.10507" lon="32.96036">
        <ele>4.786939</ele>
        <time>2022-02-25T00:12:37.058Z</time>
      </trkpt>
      <trkpt lat="36.10498" lon="32.95903">
        <ele>5.012341</ele>
        <time>2022-02-25T00:13:07.000Z</time>
      </trkpt>
      <trkpt lat="36.10493" lon="32.95691">
        <ele>5.291752</ele>
        <time>2022-02-25T00:13:53.223Z</time>
      </trkpt>
      <trkpt lat="36.10537" lon="32.95574">
        <ele>5.489657</ele>
        <time>2022-02-25T00:14:23.671Z</time>
      </trkpt>
      <trkpt lat="36.10596" lon="32.95399">
        <ele>5.841187</ele>
        <time>2022-02-25T00:15:08.544Z</time>
      </trkpt>
      <trkpt lat="36.1062" lon="32.95315">
        <ele>5.857617</ele>
        <time>2022-02-25T00:15:28.772Z</time>
      </trkpt>
      <trkpt lat="36.1063" lon="32.9527">
        <ele>5.866378</ele>
        <time>2022-02-25T00:15:39.283Z</time>
      </trkpt>
      <trkpt lat="36.10632" lon="32.95227">
        <ele>5.874338</ele>
        <time>2022-02-25T00:15:48.721Z</time>
      </trkpt>
      <trkpt lat="36.10573" lon="32.94844">
        <ele>5.502867</ele>
        <time>2022-02-25T00:17:13.936Z</time>
      </trkpt>
      <trkpt lat="36.10542" lon="32.94777">
        <ele>5.458842</ele>
        <time>2022-02-25T00:17:31.191Z</time>
      </trkpt>
      <trkpt lat="36.10466" lon="32.94595">
        <ele>5.91633</ele>
        <time>2022-02-25T00:18:19.418Z</time>
      </trkpt>
      <trkpt lat="36.10443" lon="32.94541">
        <ele>6.024345</ele>
        <time>2022-02-25T00:18:34.488Z</time>
      </trkpt>
      <trkpt lat="36.10425" lon="32.94515">
        <ele>6.077722</ele>
        <time>2022-02-25T00:18:43.010Z</time>
      </trkpt>
      <trkpt lat="36.10417" lon="32.94482">
        <ele>6.131277</ele>
        <time>2022-02-25T00:18:51.375Z</time>
      </trkpt>
      <trkpt lat="36.1038" lon="32.94396">
        <ele>6.283661</ele>
        <time>2022-02-25T00:19:12.435Z</time>
      </trkpt>
      <trkpt lat="36.10341" lon="32.94333">
        <ele>5.898748</ele>
        <time>2022-02-25T00:19:27.781Z</time>
      </trkpt>
      <trkpt lat="36.10242" lon="32.94172">
        <ele>5.021937</ele>
        <time>2022-02-25T00:20:05.494Z</time>
      </trkpt>
      <trkpt lat="36.1005" lon="32.93859">
        <ele>6.835644</ele>
        <time>2022-02-25T00:21:41.546Z</time>
      </trkpt>
      <trkpt lat="36.09934" lon="32.937">
        <ele>8.966962</ele>
        <time>2022-02-25T00:22:38.120Z</time>
      </trkpt>
      <trkpt lat="36.09882" lon="32.93657">
        <ele>9.987288</ele>
        <time>2022-02-25T00:22:59.010Z</time>
      </trkpt>
      <trkpt lat="36.09736" lon="32.93579">
        <ele>12.88245</ele>
        <time>2022-02-25T00:23:55.708Z</time>
      </trkpt>
      <trkpt lat="36.09576" lon="32.93458">
        <ele>16.810084</ele>
        <time>2022-02-25T00:25:07.316Z</time>
      </trkpt>
      <trkpt lat="36.09505" lon="32.93416">
        <ele>17.981188</ele>
        <time>2022-02-25T00:25:34.122Z</time>
      </trkpt>
      <trkpt lat="36.09363" lon="32.93352">
        <ele>19.796009</ele>
        <time>2022-02-25T00:26:19.932Z</time>
      </trkpt>
      <trkpt lat="36.0925" lon="32.93274">
        <ele>21.434941</ele>
        <time>2022-02-25T00:27:01.436Z</time>
      </trkpt>
      <trkpt lat="36.09216" lon="32.9323">
        <ele>22.428456</ele>
        <time>2022-02-25T00:27:19.465Z</time>
      </trkpt>
      <trkpt lat="36.09159" lon="32.93135">
        <ele>24.362093</ele>
        <time>2022-02-25T00:27:56.547Z</time>
      </trkpt>
      <trkpt lat="36.09088" lon="32.93032">
        <ele>26.184031</ele>
        <time>2022-02-25T00:28:36.171Z</time>
      </trkpt>
      <trkpt lat="36.09049" lon="32.92957">
        <ele>27.379584</ele>
        <time>2022-02-25T00:28:59.527Z</time>
      </trkpt>
      <trkpt lat="36.08991" lon="32.92881">
        <ele>28.385684</ele>
        <time>2022-02-25T00:29:24.706Z</time>
      </trkpt>
      <trkpt lat="36.0898" lon="32.92858">
        <ele>28.643672</ele>
        <time>2022-02-25T00:29:31.130Z</time>
      </trkpt>
      <trkpt lat="36.08976" lon="32.92827">
        <ele>28.954803</ele>
        <time>2022-02-25T00:29:39.282Z</time>
      </trkpt>
      <trkpt lat="36.09005" lon="32.92708">
        <ele>31.213345</ele>
        <time>2022-02-25T00:30:15.777Z</time>
      </trkpt>
      <trkpt lat="36.0901" lon="32.92661">
        <ele>32.420559</ele>
        <time>2022-02-25T00:30:31.681Z</time>
      </trkpt>
      <trkpt lat="36.0901" lon="32.92525">
        <ele>36.213488</ele>
        <time>2022-02-25T00:31:21.152Z</time>
      </trkpt>
      <trkpt lat="36.09035" lon="32.92357">
        <ele>42.632393</ele>
        <time>2022-02-25T00:32:29.528Z</time>
      </trkpt>
      <trkpt lat="36.09033" lon="32.9231">
        <ele>44.509149</ele>
        <time>2022-02-25T00:32:49.158Z</time>
      </trkpt>
      <trkpt lat="36.0901" lon="32.92131">
        <ele>51.91767</ele>
        <time>2022-02-25T00:34:06.117Z</time>
      </trkpt>
      <trkpt lat="36.09033" lon="32.91857">
        <ele>59.134341</ele>
        <time>2022-02-25T00:35:47.612Z</time>
      </trkpt>
      <trkpt lat="36.09033" lon="32.91824">
        <ele>58.809097</ele>
        <time>2022-02-25T00:35:54.445Z</time>
      </trkpt>
      <trkpt lat="36.09022" lon="32.91768">
        <ele>58.255976</ele>
        <time>2022-02-25T00:36:04.379Z</time>
      </trkpt>
      <trkpt lat="36.08991" lon="32.91704">
        <ele>57.538631</ele>
        <time>2022-02-25T00:36:16.104Z</time>
      </trkpt>
      <trkpt lat="36.08934" lon="32.91626">
        <ele>54.883067</ele>
        <time>2022-02-25T00:36:32.044Z</time>
      </trkpt>
      <trkpt lat="36.08886" lon="32.91572">
        <ele>52.504496</ele>
        <time>2022-02-25T00:36:44.495Z</time>
      </trkpt>
      <trkpt lat="36.0887" lon="32.9155">
        <ele>51.646011</ele>
        <time>2022-02-25T00:36:49.133Z</time>
      </trkpt>
      <trkpt lat="36.08868" lon="32.91531">
        <ele>51.089095</ele>
        <time>2022-02-25T00:36:52.139Z</time>
      </trkpt>
      <trkpt lat="36.08877" lon="32.91508">
        <ele>50.203909</ele>
        <time>2022-02-25T00:36:56.366Z</time>
      </trkpt>
      <trkpt lat="36.08957" lon="32.9145">
        <ele>46.021429</ele>
        <time>2022-02-25T00:37:14.154Z</time>
      </trkpt>
      <trkpt lat="36.08973" lon="32.91431">
        <ele>45.00253</ele>
        <time>2022-02-25T00:37:18.249Z</time>
      </trkpt>
      <trkpt lat="36.08979" lon="32.91416">
        <ele>44.389607</ele>
        <time>2022-02-25T00:37:20.701Z</time>
      </trkpt>
      <trkpt lat="36.08982" lon="32.91402">
        <ele>43.859548</ele>
        <time>2022-02-25T00:37:22.756Z</time>
      </trkpt>
      <trkpt lat="36.0897" lon="32.9124">
        <ele>34.778806</ele>
        <time>2022-02-25T00:37:45.109Z</time>
      </trkpt>
      <trkpt lat="36.08962" lon="32.91204">
        <ele>32.482657</ele>
        <time>2022-02-25T00:37:50.177Z</time>
      </trkpt>
      <trkpt lat="36.08944" lon="32.91166">
        <ele>29.762696</ele>
        <time>2022-02-25T00:37:56.219Z</time>
      </trkpt>
      <trkpt lat="36.0893" lon="32.91151">
        <ele>28.452928</ele>
        <time>2022-02-25T00:37:59.269Z</time>
      </trkpt>
      <trkpt lat="36.08911" lon="32.91136">
        <ele>26.882018</ele>
        <time>2022-02-25T00:38:03.135Z</time>
      </trkpt>
      <trkpt lat="36.08796" lon="32.91087">
        <ele>18.51671</ele>
        <time>2022-02-25T00:38:24.076Z</time>
      </trkpt>
      <trkpt lat="36.08755" lon="32.9104">
        <ele>15.312131</ele>
        <time>2022-02-25T00:38:33.950Z</time>
      </trkpt>
      <trkpt lat="36.08741" lon="32.91014">
        <ele>14.088983</ele>
        <time>2022-02-25T00:38:38.586Z</time>
      </trkpt>
      <trkpt lat="36.08729" lon="32.90978">
        <ele>12.635002</ele>
        <time>2022-02-25T00:38:44.142Z</time>
      </trkpt>
      <trkpt lat="36.08697" lon="32.90777">
        <ele>6.378072</ele>
        <time>2022-02-25T00:39:15.361Z</time>
      </trkpt>
      <trkpt lat="36.08678" lon="32.90664">
        <ele>4.048611</ele>
        <time>2022-02-25T00:39:35.250Z</time>
      </trkpt>
      <trkpt lat="36.08655" lon="32.90521">
        <ele>3.411343</ele>
        <time>2022-02-25T00:40:04.344Z</time>
      </trkpt>
      <trkpt lat="36.08633" lon="32.90433">
        <ele>3.224887</ele>
        <time>2022-02-25T00:40:25.478Z</time>
      </trkpt>
      <trkpt lat="36.08602" lon="32.90352">
        <ele>3.596775</ele>
        <time>2022-02-25T00:40:45.386Z</time>
      </trkpt>
      <trkpt lat="36.08565" lon="32.90274">
        <ele>3.999585</ele>
        <time>2022-02-25T00:41:07.008Z</time>
      </trkpt>
      <trkpt lat="36.08512" lon="32.90188">
        <ele>4.944309</ele>
        <time>2022-02-25T00:41:34.524Z</time>
      </trkpt>
      <trkpt lat="36.08518" lon="32.9018">
        <ele>5.07073</ele>
        <time>2022-02-25T00:41:37.403Z</time>
      </trkpt>
      <trkpt lat="36.08515" lon="32.90164">
        <ele>5.257695</ele>
        <time>2022-02-25T00:41:41.986Z</time>
      </trkpt>
      <trkpt lat="36.08444" lon="32.9">
        <ele>7.405084</ele>
        <time>2022-02-25T00:42:34.563Z</time>
      </trkpt>
      <trkpt lat="36.08446" lon="32.89975">
        <ele>7.675461</ele>
        <time>2022-02-25T00:42:41.615Z</time>
      </trkpt>
      <trkpt lat="36.08519" lon="32.89764">
        <ele>9.78996</ele>
        <time>2022-02-25T00:43:41.135Z</time>
      </trkpt>
      <trkpt lat="36.08524" lon="32.89742">
        <ele>9.947576</ele>
        <time>2022-02-25T00:43:46.779Z</time>
      </trkpt>
      <trkpt lat="36.08523" lon="32.89709">
        <ele>10.17059</ele>
        <time>2022-02-25T00:43:54.682Z</time>
      </trkpt>
      <trkpt lat="36.08515" lon="32.89648">
        <ele>10.590876</ele>
        <time>2022-02-25T00:44:09.425Z</time>
      </trkpt>
      <trkpt lat="36.08488" lon="32.89438">
        <ele>11.684329</ele>
        <time>2022-02-25T00:45:00.887Z</time>
      </trkpt>
      <trkpt lat="36.08472" lon="32.89288">
        <ele>11.905489</ele>
        <time>2022-02-25T00:45:35.672Z</time>
      </trkpt>
      <trkpt lat="36.08491" lon="32.89107">
        <ele>11.407404</ele>
        <time>2022-02-25T00:46:13.192Z</time>
      </trkpt>
      <trkpt lat="36.08499" lon="32.89044">
        <ele>10.96223</ele>
        <time>2022-02-25T00:46:25.290Z</time>
      </trkpt>
      <trkpt lat="36.08563" lon="32.88912">
        <ele>9.3967</ele>
        <time>2022-02-25T00:46:52.977Z</time>
      </trkpt>
      <trkpt lat="36.08532" lon="32.88858">
        <ele>8.496232</ele>
        <time>2022-02-25T00:47:05.137Z</time>
      </trkpt>
      <trkpt lat="36.08487" lon="32.88753">
        <ele>6.994032</ele>
        <time>2022-02-25T00:47:26.322Z</time>
      </trkpt>
      <trkpt lat="36.08463" lon="32.88735">
        <ele>6.608738</ele>
        <time>2022-02-25T00:47:32.590Z</time>
      </trkpt>
      <trkpt lat="36.08412" lon="32.88713">
        <ele>5.879596</ele>
        <time>2022-02-25T00:47:44.926Z</time>
      </trkpt>
      <trkpt lat="36.08522" lon="32.88444">
        <ele>3.955191</ele>
        <time>2022-02-25T00:48:43.934Z</time>
      </trkpt>
      <trkpt lat="36.08628" lon="32.88199">
        <ele>3.869593</ele>
        <time>2022-02-25T00:49:43.771Z</time>
      </trkpt>
      <trkpt lat="36.08822" lon="32.87729">
        <ele>4.545382</ele>
        <time>2022-02-25T00:51:40.623Z</time>
      </trkpt>
      <trkpt lat="36.08978" lon="32.87361">
        <ele>5.459296</ele>
        <time>2022-02-25T00:53:14.728Z</time>
      </trkpt>
      <trkpt lat="36.09037" lon="32.87191">
        <ele>5.975992</ele>
        <time>2022-02-25T00:53:57.410Z</time>
      </trkpt>
      <trkpt lat="36.09063" lon="32.87027">
        <ele>6.433466</ele>
        <time>2022-02-25T00:54:35.975Z</time>
      </trkpt>
      <trkpt lat="36.09069" lon="32.86963">
        <ele>6.462886</ele>
        <time>2022-02-25T00:54:50.351Z</time>
      </trkpt>
      <trkpt lat="36.09067" lon="32.86893">
        <ele>6.494722</ele>
        <time>2022-02-25T00:55:05.553Z</time>
      </trkpt>
      <trkpt lat="36.09062" lon="32.8682">
        <ele>6.528393</ele>
        <time>2022-02-25T00:55:21.178Z</time>
      </trkpt>
      <trkpt lat="36.09049" lon="32.86736">
        <ele>6.446916</ele>
        <time>2022-02-25T00:55:39.161Z</time>
      </trkpt>
      <trkpt lat="36.09035" lon="32.8667">
        <ele>6.378986</ele>
        <time>2022-02-25T00:55:53.401Z</time>
      </trkpt>
      <trkpt lat="36.09033" lon="32.86664">
        <ele>6.372907</ele>
        <time>2022-02-25T00:55:54.682Z</time>
      </trkpt>
      <trkpt lat="36.09022" lon="32.86628">
        <ele>6.334221</ele>
        <time>2022-02-25T00:56:02.822Z</time>
      </trkpt>
      <trkpt lat="36.08965" lon="32.86486">
        <ele>6.186428</ele>
        <time>2022-02-25T00:56:36.520Z</time>
      </trkpt>
      <trkpt lat="36.08914" lon="32.8639">
        <ele>6.068036</ele>
        <time>2022-02-25T00:57:00.829Z</time>
      </trkpt>
      <trkpt lat="36.08842" lon="32.8626">
        <ele>5.838029</ele>
        <time>2022-02-25T00:57:33.716Z</time>
      </trkpt>
      <trkpt lat="36.08826" lon="32.86231">
        <ele>5.787546</ele>
        <time>2022-02-25T00:57:40.926Z</time>
      </trkpt>
      <trkpt lat="36.0876" lon="32.86111">
        <ele>5.705506</ele>
        <time>2022-02-25T00:58:11.534Z</time>
      </trkpt>
      <trkpt lat="36.08753" lon="32.86098">
        <ele>5.697474</ele>
        <time>2022-02-25T00:58:14.774Z</time>
      </trkpt>
      <trkpt lat="36.08642" lon="32.85896">
        <ele>5.842864</ele>
        <time>2022-02-25T00:59:08.365Z</time>
      </trkpt>
      <trkpt lat="36.08635" lon="32.85882">
        <ele>5.860155</ele>
        <time>2022-02-25T00:59:12.034Z</time>
      </trkpt>
      <trkpt lat="36.0863" lon="32.85874">
        <ele>5.87039</ele>
        <time>2022-02-25T00:59:14.169Z</time>
      </trkpt>
      <trkpt lat="36.086" lon="32.85815">
        <ele>5.971881</ele>
        <time>2022-02-25T00:59:29.956Z</time>
      </trkpt>
      <trkpt lat="36.08445" lon="32.85529">
        <ele>6.605647</ele>
        <time>2022-02-25T01:00:46.723Z</time>
      </trkpt>
      <trkpt lat="36.08393" lon="32.85433">
        <ele>7.098741</ele>
        <time>2022-02-25T01:01:13.474Z</time>
      </trkpt>
      <trkpt lat="36.08234" lon="32.8515">
        <ele>9.86084</ele>
        <time>2022-02-25T01:02:39.848Z</time>
      </trkpt>
      <trkpt lat="36.08153" lon="32.85004">
        <ele>12.858949</ele>
        <time>2022-02-25T01:03:34.154Z</time>
      </trkpt>
      <trkpt lat="36.08038" lon="32.84795">
        <ele>17.431702</ele>
        <time>2022-02-25T01:04:53.676Z</time>
      </trkpt>
      <trkpt lat="36.08005" lon="32.84731">
        <ele>18.537697</ele>
        <time>2022-02-25T01:05:14.395Z</time>
      </trkpt>
      <trkpt lat="36.07928" lon="32.84584">
        <ele>19.942322</ele>
        <time>2022-02-25T01:05:57.112Z</time>
      </trkpt>
      <trkpt lat="36.07918" lon="32.84565">
        <ele>20.126001</ele>
        <time>2022-02-25T01:06:02.843Z</time>
      </trkpt>
      <trkpt lat="36.07907" lon="32.84543">
        <ele>20.380376</ele>
        <time>2022-02-25T01:06:09.422Z</time>
      </trkpt>
      <trkpt lat="36.07887" lon="32.84509">
        <ele>20.789957</ele>
        <time>2022-02-25T01:06:20.703Z</time>
      </trkpt>
      <trkpt lat="36.07853" lon="32.84453">
        <ele>21.472312</ele>
        <time>2022-02-25T01:06:39.914Z</time>
      </trkpt>
      <trkpt lat="36.07791" lon="32.84339">
        <ele>22.497256</ele>
        <time>2022-02-25T01:07:16.205Z</time>
      </trkpt>
      <trkpt lat="36.077" lon="32.84166">
        <ele>23.082653</ele>
        <time>2022-02-25T01:08:02.519Z</time>
      </trkpt>
      <trkpt lat="36.07646" lon="32.84075">
        <ele>22.878073</ele>
        <time>2022-02-25T01:08:24.783Z</time>
      </trkpt>
      <trkpt lat="36.07593" lon="32.83989">
        <ele>22.661434</ele>
        <time>2022-02-25T01:08:47.770Z</time>
      </trkpt>
      <trkpt lat="36.07569" lon="32.83951">
        <ele>22.543859</ele>
        <time>2022-02-25T01:08:57.933Z</time>
      </trkpt>
      <trkpt lat="36.0756" lon="32.83938">
        <ele>22.501618</ele>
        <time>2022-02-25T01:09:01.587Z</time>
      </trkpt>
      <trkpt lat="36.07515" lon="32.83873">
        <ele>22.292685</ele>
        <time>2022-02-25T01:09:18.930Z</time>
      </trkpt>
      <trkpt lat="36.07458" lon="32.83794">
        <ele>22.026148</ele>
        <time>2022-02-25T01:09:40.019Z</time>
      </trkpt>
      <trkpt lat="36.07403" lon="32.83733">
        <ele>21.792163</ele>
        <time>2022-02-25T01:09:58.259Z</time>
      </trkpt>
      <trkpt lat="36.07354" lon="32.83684">
        <ele>21.641742</ele>
        <time>2022-02-25T01:10:14.634Z</time>
      </trkpt>
      <trkpt lat="36.07306" lon="32.83633">
        <ele>21.678177</ele>
        <time>2022-02-25T01:10:32.885Z</time>
      </trkpt>
      <trkpt lat="36.07279" lon="32.83605">
        <ele>21.698201</ele>
        <time>2022-02-25T01:10:42.719Z</time>
      </trkpt>
      <trkpt lat="36.07233" lon="32.83558">
        <ele>21.732624</ele>
        <time>2022-02-25T01:10:58.851Z</time>
      </trkpt>
      <trkpt lat="36.07213" lon="32.83539">
        <ele>21.515799</ele>
        <time>2022-02-25T01:11:05.259Z</time>
      </trkpt>
      <trkpt lat="36.0716" lon="32.83492">
        <ele>20.655786</ele>
        <time>2022-02-25T01:11:20.528Z</time>
      </trkpt>
      <trkpt lat="36.07128" lon="32.83467">
        <ele>20.160712</ele>
        <time>2022-02-25T01:11:28.834Z</time>
      </trkpt>
      <trkpt lat="36.07042" lon="32.83386">
        <ele>18.44873</ele>
        <time>2022-02-25T01:11:51.419Z</time>
      </trkpt>
      <trkpt lat="36.06894" lon="32.83248">
        <ele>14.95921</ele>
        <time>2022-02-25T01:12:31.081Z</time>
      </trkpt>
      <trkpt lat="36.06704" lon="32.8307">
        <ele>10.730099</ele>
        <time>2022-02-25T01:13:21.947Z</time>
      </trkpt>
      <trkpt lat="36.0663" lon="32.83001">
        <ele>9.40828</ele>
        <time>2022-02-25T01:13:42.352Z</time>
      </trkpt>
      <trkpt lat="36.06461" lon="32.82841">
        <ele>8.223161</ele>
        <time>2022-02-25T01:14:34.469Z</time>
      </trkpt>
      <trkpt lat="36.06414" lon="32.82798">
        <ele>8.196872</ele>
        <time>2022-02-25T01:14:50.079Z</time>
      </trkpt>
      <trkpt lat="36.06372" lon="32.82752">
        <ele>8.171297</ele>
        <time>2022-02-25T01:15:05.622Z</time>
      </trkpt>
      <trkpt lat="36.06356" lon="32.82735">
        <ele>8.222118</ele>
        <time>2022-02-25T01:15:11.529Z</time>
      </trkpt>
      <trkpt lat="36.0628" lon="32.82673">
        <ele>8.582053</ele>
        <time>2022-02-25T01:15:37.568Z</time>
      </trkpt>
      <trkpt lat="36.06106" lon="32.82511">
        <ele>9.434843</ele>
        <time>2022-02-25T01:16:40.940Z</time>
      </trkpt>
      <trkpt lat="36.05908" lon="32.8232">
        <ele>9.679624</ele>
        <time>2022-02-25T01:17:48.702Z</time>
      </trkpt>
      <trkpt lat="36.05765" lon="32.82186">
        <ele>9.564709</ele>
        <time>2022-02-25T01:18:36.358Z</time>
      </trkpt>
      <trkpt lat="36.055" lon="32.81938">
        <ele>8.366476</ele>
        <time>2022-02-25T01:19:59.535Z</time>
      </trkpt>
      <trkpt lat="36.05488" lon="32.81926">
        <ele>8.312786</ele>
        <time>2022-02-25T01:20:03.280Z</time>
      </trkpt>
      <trkpt lat="36.05456" lon="32.81897">
        <ele>8.174025</ele>
        <time>2022-02-25T01:20:12.877Z</time>
      </trkpt>
      <trkpt lat="36.05447" lon="32.81889">
        <ele>8.133145</ele>
        <time>2022-02-25T01:20:15.646Z</time>
      </trkpt>
      <trkpt lat="36.05273" lon="32.81733">
        <ele>7.689416</ele>
        <time>2022-02-25T01:21:10.744Z</time>
      </trkpt>
      <trkpt lat="36.05208" lon="32.81673">
        <ele>7.675039</ele>
        <time>2022-02-25T01:21:33.009Z</time>
      </trkpt>
      <trkpt lat="36.05174" lon="32.81641">
        <ele>7.804562</ele>
        <time>2022-02-25T01:21:45.080Z</time>
      </trkpt>
      <trkpt lat="36.05016" lon="32.81499">
        <ele>8.315215</ele>
        <time>2022-02-25T01:22:39.942Z</time>
      </trkpt>
      <trkpt lat="36.0488" lon="32.81371">
        <ele>8.486649</ele>
        <time>2022-02-25T01:23:26.791Z</time>
      </trkpt>
      <trkpt lat="36.0468" lon="32.81182">
        <ele>8.592591</ele>
        <time>2022-02-25T01:24:32.135Z</time>
      </trkpt>
      <trkpt lat="36.04555" lon="32.81069">
        <ele>9.689875</ele>
        <time>2022-02-25T01:25:19.888Z</time>
      </trkpt>
      <trkpt lat="36.04533" lon="32.81049">
        <ele>9.951428</ele>
        <time>2022-02-25T01:25:28.693Z</time>
      </trkpt>
      <trkpt lat="36.04481" lon="32.81001">
        <ele>10.512096</ele>
        <time>2022-02-25T01:25:50.471Z</time>
      </trkpt>
      <trkpt lat="36.04332" lon="32.80865">
        <ele>11.256048</ele>
        <time>2022-02-25T01:26:44.006Z</time>
      </trkpt>
      <trkpt lat="36.0428" lon="32.80816">
        <ele>10.97652</ele>
        <time>2022-02-25T01:26:59.376Z</time>
      </trkpt>
      <trkpt lat="36.0423" lon="32.80763">
        <ele>10.696504</ele>
        <time>2022-02-25T01:27:15.114Z</time>
      </trkpt>
      <trkpt lat="36.042" lon="32.80722">
        <ele>10.621654</ele>
        <time>2022-02-25T01:27:26.355Z</time>
      </trkpt>
      <trkpt lat="36.04182" lon="32.80696">
        <ele>10.678908</ele>
        <time>2022-02-25T01:27:33.478Z</time>
      </trkpt>
      <trkpt lat="36.04163" lon="32.80665">
        <ele>10.744022</ele>
        <time>2022-02-25T01:27:41.958Z</time>
      </trkpt>
      <trkpt lat="36.04152" lon="32.80646">
        <ele>10.783818</ele>
        <time>2022-02-25T01:27:47.388Z</time>
      </trkpt>
      <trkpt lat="36.04125" lon="32.80591">
        <ele>10.890082</ele>
        <time>2022-02-25T01:28:01.926Z</time>
      </trkpt>
      <trkpt lat="36.04099" lon="32.80528">
        <ele>11.483096</ele>
        <time>2022-02-25T01:28:19.412Z</time>
      </trkpt>
      <trkpt lat="36.04082" lon="32.80478">
        <ele>12.39403</ele>
        <time>2022-02-25T01:28:33.304Z</time>
      </trkpt>
      <trkpt lat="36.04064" lon="32.80407">
        <ele>13.652389</ele>
        <time>2022-02-25T01:28:54.607Z</time>
      </trkpt>
      <trkpt lat="36.04053" lon="32.80345">
        <ele>14.764677</ele>
        <time>2022-02-25T01:29:16.730Z</time>
      </trkpt>
      <trkpt lat="36.0405" lon="32.80293">
        <ele>17.029715</ele>
        <time>2022-02-25T01:29:37.241Z</time>
      </trkpt>
      <trkpt lat="36.0405" lon="32.80243">
        <ele>19.246927</ele>
        <time>2022-02-25T01:29:58.175Z</time>
      </trkpt>
      <trkpt lat="36.04048" lon="32.80209">
        <ele>20.743043</ele>
        <time>2022-02-25T01:30:12.462Z</time>
      </trkpt>
      <trkpt lat="36.04048" lon="32.80208">
        <ele>20.76008</ele>
        <time>2022-02-25T01:30:12.893Z</time>
      </trkpt>
      <trkpt lat="36.04047" lon="32.80166">
        <ele>22.598096</ele>
        <time>2022-02-25T01:30:31.384Z</time>
      </trkpt>
      <trkpt lat="36.0405" lon="32.80095">
        <ele>26.007914</ele>
        <time>2022-02-25T01:31:05.898Z</time>
      </trkpt>
      <trkpt lat="36.04059" lon="32.80035">
        <ele>29.317887</ele>
        <time>2022-02-25T01:31:36.875Z</time>
      </trkpt>
      <trkpt lat="36.04082" lon="32.79939">
        <ele>34.6839</ele>
        <time>2022-02-25T01:32:24.792Z</time>
      </trkpt>
      <trkpt lat="36.04115" lon="32.79839">
        <ele>39.135286</ele>
        <time>2022-02-25T01:33:11.506Z</time>
      </trkpt>
      <trkpt lat="36.04144" lon="32.79752">
        <ele>42.579619</ele>
        <time>2022-02-25T01:33:48.143Z</time>
      </trkpt>
      <trkpt lat="36.04176" lon="32.7968">
        <ele>44.996732</ele>
        <time>2022-02-25T01:34:15.798Z</time>
      </trkpt>
      <trkpt lat="36.04216" lon="32.79621">
        <ele>46.35865</ele>
        <time>2022-02-25T01:34:38.466Z</time>
      </trkpt>
      <trkpt lat="36.04257" lon="32.79583">
        <ele>47.49408</ele>
        <time>2022-02-25T01:34:56.588Z</time>
      </trkpt>
      <trkpt lat="36.04305" lon="32.7955">
        <ele>48.746209</ele>
        <time>2022-02-25T01:35:15.367Z</time>
      </trkpt>
      <trkpt lat="36.04432" lon="32.79459">
        <ele>52.684228</ele>
        <time>2022-02-25T01:36:11.476Z</time>
      </trkpt>
      <trkpt lat="36.04503" lon="32.79401">
        <ele>57.797068</ele>
        <time>2022-02-25T01:36:52.397Z</time>
      </trkpt>
      <trkpt lat="36.04546" lon="32.79368">
        <ele>61.30808</ele>
        <time>2022-02-25T01:37:23.861Z</time>
      </trkpt>
      <trkpt lat="36.04572" lon="32.79335">
        <ele>63.93421</ele>
        <time>2022-02-25T01:37:49.658Z</time>
      </trkpt>
      <trkpt lat="36.04585" lon="32.79314">
        <ele>65.40601</ele>
        <time>2022-02-25T01:38:04.625Z</time>
      </trkpt>
      <trkpt lat="36.04605" lon="32.79258">
        <ele>70.679104</ele>
        <time>2022-02-25T01:38:43.494Z</time>
      </trkpt>
      <trkpt lat="36.04615" lon="32.79208">
        <ele>75.35096</ele>
        <time>2022-02-25T01:39:18.533Z</time>
      </trkpt>
      <trkpt lat="36.0462" lon="32.79149">
        <ele>80.631156</ele>
        <time>2022-02-25T01:39:59.723Z</time>
      </trkpt>
      <trkpt lat="36.04613" lon="32.79075">
        <ele>86.810899</ele>
        <time>2022-02-25T01:40:49.147Z</time>
      </trkpt>
      <trkpt lat="36.04604" lon="32.79041">
        <ele>89.009029</ele>
        <time>2022-02-25T01:41:09.622Z</time>
      </trkpt>
      <trkpt lat="36.04571" lon="32.78982">
        <ele>93.350254</ele>
        <time>2022-02-25T01:41:46.441Z</time>
      </trkpt>
      <trkpt lat="36.04526" lon="32.78927">
        <ele>98.101932</ele>
        <time>2022-02-25T01:42:20.687Z</time>
      </trkpt>
      <trkpt lat="36.04465" lon="32.78895">
        <ele>102.919986</ele>
        <time>2022-02-25T01:42:54.386Z</time>
      </trkpt>
      <trkpt lat="36.0443" lon="32.78882">
        <ele>105.586693</ele>
        <time>2022-02-25T01:43:13.826Z</time>
      </trkpt>
      <trkpt lat="36.04387" lon="32.78883">
        <ele>108.636593</ele>
        <time>2022-02-25T01:43:37.623Z</time>
      </trkpt>
      <trkpt lat="36.04085" lon="32.78955">
        <ele>141.879312</ele>
        <time>2022-02-25T01:47:43.296Z</time>
      </trkpt>
      <trkpt lat="36.04041" lon="32.78961">
        <ele>147.474736</ele>
        <time>2022-02-25T01:48:24.666Z</time>
      </trkpt>
      <trkpt lat="36.03942" lon="32.78953">
        <ele>160.352867</ele>
        <time>2022-02-25T01:49:59.664Z</time>
      </trkpt>
      <trkpt lat="36.0366" lon="32.78888">
        <ele>196.175815</ele>
        <time>2022-02-25T01:54:12.468Z</time>
      </trkpt>
      <trkpt lat="36.0361" lon="32.78864">
        <ele>201.503213</ele>
        <time>2022-02-25T01:54:52.038Z</time>
      </trkpt>
      <trkpt lat="36.03538" lon="32.78817">
        <ele>206.981572</ele>
        <time>2022-02-25T01:55:42.267Z</time>
      </trkpt>
      <trkpt lat="36.03461" lon="32.78755">
        <ele>212.818186</ele>
        <time>2022-02-25T01:56:27.841Z</time>
      </trkpt>
      <trkpt lat="36.03383" lon="32.78664">
        <ele>217.351529</ele>
        <time>2022-02-25T01:57:17.075Z</time>
      </trkpt>
      <trkpt lat="36.03318" lon="32.78544">
        <ele>221.822571</ele>
        <time>2022-02-25T01:58:12.533Z</time>
      </trkpt>
      <trkpt lat="36.03179" lon="32.78141">
        <ele>230.857032</ele>
        <time>2022-02-25T02:00:37.404Z</time>
      </trkpt>
      <trkpt lat="36.03158" lon="32.78051">
        <ele>230.496331</ele>
        <time>2022-02-25T02:00:53.605Z</time>
      </trkpt>
      <trkpt lat="36.03157" lon="32.78018">
        <ele>230.368815</ele>
        <time>2022-02-25T02:00:59.205Z</time>
      </trkpt>
      <trkpt lat="36.03157" lon="32.77947">
        <ele>229.808904</ele>
        <time>2022-02-25T02:01:10.758Z</time>
      </trkpt>
      <trkpt lat="36.03159" lon="32.77922">
        <ele>229.547813</ele>
        <time>2022-02-25T02:01:14.891Z</time>
      </trkpt>
      <trkpt lat="36.03154" lon="32.77889">
        <ele>229.195886</ele>
        <time>2022-02-25T02:01:20.444Z</time>
      </trkpt>
      <trkpt lat="36.03159" lon="32.77783">
        <ele>228.075759</ele>
        <time>2022-02-25T02:01:39.757Z</time>
      </trkpt>
      <trkpt lat="36.03172" lon="32.77684">
        <ele>229.859004</ele>
        <time>2022-02-25T02:02:07.946Z</time>
      </trkpt>
      <trkpt lat="36.03218" lon="32.77463">
        <ele>236.946593</ele>
        <time>2022-02-25T02:03:33.006Z</time>
      </trkpt>
      <trkpt lat="36.03237" lon="32.77391">
        <ele>240.180816</ele>
        <time>2022-02-25T02:04:06.878Z</time>
      </trkpt>
      <trkpt lat="36.03326" lon="32.77136">
        <ele>253.779099</ele>
        <time>2022-02-25T02:06:17.451Z</time>
      </trkpt>
      <trkpt lat="36.03349" lon="32.77052">
        <ele>255.637504</ele>
        <time>2022-02-25T02:06:51.642Z</time>
      </trkpt>
      <trkpt lat="36.03377" lon="32.76887">
        <ele>258.036039</ele>
        <time>2022-02-25T02:07:36.510Z</time>
      </trkpt>
      <trkpt lat="36.03384" lon="32.76678">
        <ele>255.44061</ele>
        <time>2022-02-25T02:08:11.555Z</time>
      </trkpt>
      <trkpt lat="36.03378" lon="32.76574">
        <ele>253.874688</ele>
        <time>2022-02-25T02:08:28.327Z</time>
      </trkpt>
      <trkpt lat="36.03368" lon="32.76495">
        <ele>252.663631</ele>
        <time>2022-02-25T02:08:42.549Z</time>
      </trkpt>
      <trkpt lat="36.03342" lon="32.76378">
        <ele>253.630023</ele>
        <time>2022-02-25T02:09:10.752Z</time>
      </trkpt>
      <trkpt lat="36.03332" lon="32.76257">
        <ele>255.081508</ele>
        <time>2022-02-25T02:09:49.267Z</time>
      </trkpt>
      <trkpt lat="36.03338" lon="32.76189">
        <ele>256.232673</ele>
        <time>2022-02-25T02:10:12.209Z</time>
      </trkpt>
      <trkpt lat="36.0335" lon="32.76117">
        <ele>257.472147</ele>
        <time>2022-02-25T02:10:34.995Z</time>
      </trkpt>
      <trkpt lat="36.03369" lon="32.76055">
        <ele>258.592914</ele>
        <time>2022-02-25T02:10:52.559Z</time>
      </trkpt>
      <trkpt lat="36.03393" lon="32.75996">
        <ele>259.3993</ele>
        <time>2022-02-25T02:11:08.904Z</time>
      </trkpt>
      <trkpt lat="36.03432" lon="32.75926">
        <ele>260.368702</ele>
        <time>2022-02-25T02:11:29.199Z</time>
      </trkpt>
      <trkpt lat="36.03573" lon="32.75725">
        <ele>265.362487</ele>
        <time>2022-02-25T02:12:51.307Z</time>
      </trkpt>
      <trkpt lat="36.03591" lon="32.75706">
        <ele>266.021394</ele>
        <time>2022-02-25T02:13:03.641Z</time>
      </trkpt>
      <trkpt lat="36.03629" lon="32.75683">
        <ele>266.361287</ele>
        <time>2022-02-25T02:13:23.809Z</time>
      </trkpt>
      <trkpt lat="36.03742" lon="32.75628">
        <ele>266.849721</ele>
        <time>2022-02-25T02:14:04.015Z</time>
      </trkpt>
      <trkpt lat="36.03815" lon="32.75579">
        <ele>259.938126</ele>
        <time>2022-02-25T02:14:18.620Z</time>
      </trkpt>
      <trkpt lat="36.0384" lon="32.75548">
        <ele>255.82408</ele>
        <time>2022-02-25T02:14:24.118Z</time>
      </trkpt>
      <trkpt lat="36.03859" lon="32.75515">
        <ele>252.001898</ele>
        <time>2022-02-25T02:14:29.176Z</time>
      </trkpt>
      <trkpt lat="36.03873" lon="32.75466">
        <ele>247.090866</ele>
        <time>2022-02-25T02:14:35.675Z</time>
      </trkpt>
      <trkpt lat="36.03882" lon="32.75415">
        <ele>241.865687</ele>
        <time>2022-02-25T02:14:42.153Z</time>
      </trkpt>
      <trkpt lat="36.0387" lon="32.75416">
        <ele>240.325897</ele>
        <time>2022-02-25T02:14:44.032Z</time>
      </trkpt>
      <trkpt lat="36.03859" lon="32.75419">
        <ele>238.991957</ele>
        <time>2022-02-25T02:14:45.644Z</time>
      </trkpt>
      <trkpt lat="36.03849" lon="32.75418">
        <ele>237.599668</ele>
        <time>2022-02-25T02:14:47.364Z</time>
      </trkpt>
      <trkpt lat="36.03838" lon="32.75407">
        <ele>235.81955</ele>
        <time>2022-02-25T02:14:49.573Z</time>
      </trkpt>
      <trkpt lat="36.03808" lon="32.75322">
        <ele>226.322706</ele>
        <time>2022-02-25T02:15:01.419Z</time>
      </trkpt>
      <trkpt lat="36.03797" lon="32.75301">
        <ele>223.750599</ele>
        <time>2022-02-25T02:15:04.695Z</time>
      </trkpt>
      <trkpt lat="36.03793" lon="32.75268">
        <ele>222.543728</ele>
        <time>2022-02-25T02:15:09.587Z</time>
      </trkpt>
      <trkpt lat="36.03786" lon="32.75252">
        <ele>222.25063</ele>
        <time>2022-02-25T02:15:12.612Z</time>
      </trkpt>
      <trkpt lat="36.03745" lon="32.75205">
        <ele>221.126993</ele>
        <time>2022-02-25T02:15:24.782Z</time>
      </trkpt>
      <trkpt lat="36.03733" lon="32.75182">
        <ele>220.679143</ele>
        <time>2022-02-25T02:15:30.307Z</time>
      </trkpt>
      <trkpt lat="36.03714" lon="32.75065">
        <ele>220.727193</ele>
        <time>2022-02-25T02:16:03.460Z</time>
      </trkpt>
      <trkpt lat="36.03611" lon="32.74967">
        <ele>226.590419</ele>
        <time>2022-02-25T02:17:09.131Z</time>
      </trkpt>
      <trkpt lat="36.03605" lon="32.74941">
        <ele>227.619671</ele>
        <time>2022-02-25T02:17:22.894Z</time>
      </trkpt>
      <trkpt lat="36.03617" lon="32.74922">
        <ele>228.825224</ele>
        <time>2022-02-25T02:17:35.835Z</time>
      </trkpt>
      <trkpt lat="36.03636" lon="32.74915">
        <ele>230.093802</ele>
        <time>2022-02-25T02:17:49.437Z</time>
      </trkpt>
      <trkpt lat="36.03686" lon="32.74914">
        <ele>233.262138</ele>
        <time>2022-02-25T02:18:22.529Z</time>
      </trkpt>
      <trkpt lat="36.03773" lon="32.74891">
        <ele>238.761172</ele>
        <time>2022-02-25T02:19:12.201Z</time>
      </trkpt>
      <trkpt lat="36.03795" lon="32.74889">
        <ele>238.696042</ele>
        <time>2022-02-25T02:19:22.252Z</time>
      </trkpt>
      <trkpt lat="36.03832" lon="32.74903">
        <ele>238.583886</ele>
        <time>2022-02-25T02:19:36.525Z</time>
      </trkpt>
      <trkpt lat="36.03849" lon="32.74901">
        <ele>238.533639</ele>
        <time>2022-02-25T02:19:41.535Z</time>
      </trkpt>
      <trkpt lat="36.03863" lon="32.74894">
        <ele>238.490637</ele>
        <time>2022-02-25T02:19:45.290Z</time>
      </trkpt>
      <trkpt lat="36.03878" lon="32.74875">
        <ele>238.427791</ele>
        <time>2022-02-25T02:19:50.229Z</time>
      </trkpt>
      <trkpt lat="36.03944" lon="32.74721">
        <ele>235.647792</ele>
        <time>2022-02-25T02:20:18.437Z</time>
      </trkpt>
      <trkpt lat="36.03987" lon="32.74495">
        <ele>229.018493</ele>
        <time>2022-02-25T02:20:57.074Z</time>
      </trkpt>
      <trkpt lat="36.04085" lon="32.74317">
        <ele>220.256693</ele>
        <time>2022-02-25T02:21:31.089Z</time>
      </trkpt>
      <trkpt lat="36.04111" lon="32.74173">
        <ele>211.327735</ele>
        <time>2022-02-25T02:21:52.198Z</time>
      </trkpt>
      <trkpt lat="36.04111" lon="32.74122">
        <ele>206.450099</ele>
        <time>2022-02-25T02:21:59.028Z</time>
      </trkpt>
      <trkpt lat="36.041" lon="32.7405">
        <ele>199.318229</ele>
        <time>2022-02-25T02:22:08.917Z</time>
      </trkpt>
      <trkpt lat="36.04094" lon="32.74021">
        <ele>196.513614</ele>
        <time>2022-02-25T02:22:12.834Z</time>
      </trkpt>
      <trkpt lat="36.04082" lon="32.74011">
        <ele>194.728392</ele>
        <time>2022-02-25T02:22:15.141Z</time>
      </trkpt>
      <trkpt lat="36.04074" lon="32.73993">
        <ele>192.744474</ele>
        <time>2022-02-25T02:22:17.718Z</time>
      </trkpt>
      <trkpt lat="36.04071" lon="32.73967">
        <ele>190.558672</ele>
        <time>2022-02-25T02:22:21.062Z</time>
      </trkpt>
      <trkpt lat="36.04066" lon="32.73964">
        <ele>189.999198</ele>
        <time>2022-02-25T02:22:22.082Z</time>
      </trkpt>
      <trkpt lat="36.04058" lon="32.73968">
        <ele>189.239429</ele>
        <time>2022-02-25T02:22:23.292Z</time>
      </trkpt>
      <trkpt lat="36.04052" lon="32.73998">
        <ele>186.817534</ele>
        <time>2022-02-25T02:22:27.400Z</time>
      </trkpt>
      <trkpt lat="36.04047" lon="32.73998">
        <ele>186.363821</ele>
        <time>2022-02-25T02:22:28.146Z</time>
      </trkpt>
      <trkpt lat="36.04028" lon="32.73969">
        <ele>183.419852</ele>
        <time>2022-02-25T02:22:33.093Z</time>
      </trkpt>
      <trkpt lat="36.04005" lon="32.7396">
        <ele>181.134621</ele>
        <time>2022-02-25T02:22:36.826Z</time>
      </trkpt>
      <trkpt lat="36.03995" lon="32.73949">
        <ele>179.845695</ele>
        <time>2022-02-25T02:22:39.686Z</time>
      </trkpt>
      <trkpt lat="36.03987" lon="32.73928">
        <ele>178.003051</ele>
        <time>2022-02-25T02:22:42.720Z</time>
      </trkpt>
      <trkpt lat="36.0399" lon="32.73916">
        <ele>177.070746</ele>
        <time>2022-02-25T02:22:44.690Z</time>
      </trkpt>
      <trkpt lat="36.03997" lon="32.73913">
        <ele>176.330214</ele>
        <time>2022-02-25T02:22:49.335Z</time>
      </trkpt>
      <trkpt lat="36.04015" lon="32.73919">
        <ele>174.581416</ele>
        <time>2022-02-25T02:22:52.271Z</time>
      </trkpt>
      <trkpt lat="36.04033" lon="32.73918">
        <ele>173.547465</ele>
        <time>2022-02-25T02:22:58.563Z</time>
      </trkpt>
      <trkpt lat="36.04049" lon="32.73904">
        <ele>172.382014</ele>
        <time>2022-02-25T02:23:01.801Z</time>
      </trkpt>
      <trkpt lat="36.04053" lon="32.73891">
        <ele>171.739385</ele>
        <time>2022-02-25T02:23:05.437Z</time>
      </trkpt>
      <trkpt lat="36.04053" lon="32.73847">
        <ele>169.697529</ele>
        <time>2022-02-25T02:23:11.713Z</time>
      </trkpt>
      <trkpt lat="36.0406" lon="32.73832">
        <ele>168.878587</ele>
        <time>2022-02-25T02:23:14.216Z</time>
      </trkpt>
      <trkpt lat="36.04082" lon="32.73821">
        <ele>167.495376</ele>
        <time>2022-02-25T02:23:18.760Z</time>
      </trkpt>
      <trkpt lat="36.04093" lon="32.73801">
        <ele>166.365121</ele>
        <time>2022-02-25T02:23:22.343Z</time>
      </trkpt>
      <trkpt lat="36.04113" lon="32.73788">
        <ele>165.080491</ele>
        <time>2022-02-25T02:23:25.938Z</time>
      </trkpt>
      <trkpt lat="36.04113" lon="32.73781">
        <ele>164.728507</ele>
        <time>2022-02-25T02:23:27.080Z</time>
      </trkpt>
      <trkpt lat="36.04109" lon="32.73777">
        <ele>164.4033</ele>
        <time>2022-02-25T02:23:28.157Z</time>
      </trkpt>
      <trkpt lat="36.0409" lon="32.73778">
        <ele>163.47364</ele>
        <time>2022-02-25T02:23:31.260Z</time>
      </trkpt>
      <trkpt lat="36.04061" lon="32.7379">
        <ele>161.989176</ele>
        <time>2022-02-25T02:23:36.707Z</time>
      </trkpt>
      <trkpt lat="36.04051" lon="32.73782">
        <ele>161.403051</ele>
        <time>2022-02-25T02:23:38.615Z</time>
      </trkpt>
      <trkpt lat="36.04055" lon="32.73771">
        <ele>160.961178</ele>
        <time>2022-02-25T02:23:40.637Z</time>
      </trkpt>
      <trkpt lat="36.04072" lon="32.73755">
        <ele>159.93209</ele>
        <time>2022-02-25T02:23:44.332Z</time>
      </trkpt>
      <trkpt lat="36.04079" lon="32.73741">
        <ele>159.259853</ele>
        <time>2022-02-25T02:23:46.904Z</time>
      </trkpt>
      <trkpt lat="36.04082" lon="32.73722">
        <ele>158.530548</ele>
        <time>2022-02-25T02:23:50.125Z</time>
      </trkpt>
      <trkpt lat="36.04085" lon="32.7371">
        <ele>158.013496</ele>
        <time>2022-02-25T02:23:51.796Z</time>
      </trkpt>
      <trkpt lat="36.04095" lon="32.73705">
        <ele>157.472482</ele>
        <time>2022-02-25T02:23:55.356Z</time>
      </trkpt>
      <trkpt lat="36.04115" lon="32.73698">
        <ele>156.488134</ele>
        <time>2022-02-25T02:23:59.174Z</time>
      </trkpt>
      <trkpt lat="36.04117" lon="32.73686">
        <ele>156.014903</ele>
        <time>2022-02-25T02:24:00.964Z</time>
      </trkpt>
      <trkpt lat="36.0411" lon="32.73651">
        <ele>155.902723</ele>
        <time>2022-02-25T02:24:06.947Z</time>
      </trkpt>
      <trkpt lat="36.04117" lon="32.73626">
        <ele>156.393833</ele>
        <time>2022-02-25T02:24:16.089Z</time>
      </trkpt>
      <trkpt lat="36.04174" lon="32.73581">
        <ele>157.932831</ele>
        <time>2022-02-25T02:24:41.036Z</time>
      </trkpt>
      <trkpt lat="36.04207" lon="32.73562">
        <ele>158.761994</ele>
        <time>2022-02-25T02:25:00.881Z</time>
      </trkpt>
      <trkpt lat="36.04214" lon="32.7355">
        <ele>159.034558</ele>
        <time>2022-02-25T02:25:06.824Z</time>
      </trkpt>
      <trkpt lat="36.04212" lon="32.73542">
        <ele>159.185362</ele>
        <time>2022-02-25T02:25:10.038Z</time>
      </trkpt>
      <trkpt lat="36.04166" lon="32.73525">
        <ele>161.035294</ele>
        <time>2022-02-25T02:25:31.888Z</time>
      </trkpt>
      <trkpt lat="36.04117" lon="32.73533">
        <ele>163.400468</ele>
        <time>2022-02-25T02:25:53.519Z</time>
      </trkpt>
      <trkpt lat="36.04103" lon="32.73528">
        <ele>164.070373</ele>
        <time>2022-02-25T02:25:59.986Z</time>
      </trkpt>
      <trkpt lat="36.04085" lon="32.73511">
        <ele>165.186618</ele>
        <time>2022-02-25T02:26:11.422Z</time>
      </trkpt>
      <trkpt lat="36.04058" lon="32.73466">
        <ele>167.316334</ele>
        <time>2022-02-25T02:26:35.351Z</time>
      </trkpt>
      <trkpt lat="36.04029" lon="32.7345">
        <ele>169.385682</ele>
        <time>2022-02-25T02:26:53.133Z</time>
      </trkpt>
      <trkpt lat="36.04009" lon="32.73412">
        <ele>172.485247</ele>
        <time>2022-02-25T02:27:14.695Z</time>
      </trkpt>
      <trkpt lat="36.03973" lon="32.73412">
        <ele>175.531449</ele>
        <time>2022-02-25T02:27:37.209Z</time>
      </trkpt>
      <trkpt lat="36.03957" lon="32.73401">
        <ele>177.098875</ele>
        <time>2022-02-25T02:27:49.943Z</time>
      </trkpt>
      <trkpt lat="36.03955" lon="32.73389">
        <ele>177.927069</ele>
        <time>2022-02-25T02:27:56.550Z</time>
      </trkpt>
      <trkpt lat="36.03959" lon="32.7338">
        <ele>178.637733</ele>
        <time>2022-02-25T02:28:02.491Z</time>
      </trkpt>
      <trkpt lat="36.03991" lon="32.7338">
        <ele>181.378465</ele>
        <time>2022-02-25T02:28:26.797Z</time>
      </trkpt>
      <trkpt lat="36.04013" lon="32.73367">
        <ele>183.470018</ele>
        <time>2022-02-25T02:28:46.385Z</time>
      </trkpt>
      <trkpt lat="36.04026" lon="32.73331">
        <ele>186.409756</ele>
        <time>2022-02-25T02:29:13.998Z</time>
      </trkpt>
      <trkpt lat="36.04023" lon="32.7332">
        <ele>187.254204</ele>
        <time>2022-02-25T02:29:20.705Z</time>
      </trkpt>
      <trkpt lat="36.04003" lon="32.73305">
        <ele>189.372745</ele>
        <time>2022-02-25T02:29:40.172Z</time>
      </trkpt>
      <trkpt lat="36.03973" lon="32.73229">
        <ele>195.747327</ele>
        <time>2022-02-25T02:30:29.627Z</time>
      </trkpt>
      <trkpt lat="36.03974" lon="32.73213">
        <ele>196.940352</ele>
        <time>2022-02-25T02:30:36.881Z</time>
      </trkpt>
      <trkpt lat="36.03984" lon="32.73201">
        <ele>198.244231</ele>
        <time>2022-02-25T02:30:44.487Z</time>
      </trkpt>
      <trkpt lat="36.03992" lon="32.73195">
        <ele>199.108772</ele>
        <time>2022-02-25T02:30:52.410Z</time>
      </trkpt>
      <trkpt lat="36.0399" lon="32.73175">
        <ele>200.369288</ele>
        <time>2022-02-25T02:31:00.873Z</time>
      </trkpt>
      <trkpt lat="36.0398" lon="32.73125">
        <ele>202.229793</ele>
        <time>2022-02-25T02:31:24.354Z</time>
      </trkpt>
      <trkpt lat="36.03952" lon="32.73097">
        <ele>203.820323</ele>
        <time>2022-02-25T02:31:43.407Z</time>
      </trkpt>
      <trkpt lat="36.03903" lon="32.73067">
        <ele>206.262882</ele>
        <time>2022-02-25T02:32:11.176Z</time>
      </trkpt>
      <trkpt lat="36.03884" lon="32.73042">
        <ele>207.493744</ele>
        <time>2022-02-25T02:32:20.978Z</time>
      </trkpt>
      <trkpt lat="36.0388" lon="32.7302">
        <ele>208.202448</ele>
        <time>2022-02-25T02:32:27.259Z</time>
      </trkpt>
      <trkpt lat="36.03883" lon="32.72975">
        <ele>208.705669</ele>
        <time>2022-02-25T02:32:39.322Z</time>
      </trkpt>
      <trkpt lat="36.03858" lon="32.72911">
        <ele>209.513167</ele>
        <time>2022-02-25T02:32:58.240Z</time>
      </trkpt>
      <trkpt lat="36.03863" lon="32.72888">
        <ele>209.78199</ele>
        <time>2022-02-25T02:33:04.554Z</time>
      </trkpt>
      <trkpt lat="36.03912" lon="32.7283">
        <ele>210.870427</ele>
        <time>2022-02-25T02:33:27.561Z</time>
      </trkpt>
      <trkpt lat="36.03921" lon="32.72807">
        <ele>211.809292</ele>
        <time>2022-02-25T02:33:35.159Z</time>
      </trkpt>
      <trkpt lat="36.0392" lon="32.72784">
        <ele>212.657322</ele>
        <time>2022-02-25T02:33:41.627Z</time>
      </trkpt>
      <trkpt lat="36.03899" lon="32.72702">
        <ele>215.765278</ele>
        <time>2022-02-25T02:34:10.592Z</time>
      </trkpt>
      <trkpt lat="36.03896" lon="32.72669">
        <ele>216.988994</ele>
        <time>2022-02-25T02:34:25.503Z</time>
      </trkpt>
      <trkpt lat="36.03897" lon="32.72596">
        <ele>220.66349</ele>
        <time>2022-02-25T02:35:04.821Z</time>
      </trkpt>
      <trkpt lat="36.03904" lon="32.72575">
        <ele>222.489647</ele>
        <time>2022-02-25T02:35:19.600Z</time>
      </trkpt>
      <trkpt lat="36.03919" lon="32.72554">
        <ele>224.70531</ele>
        <time>2022-02-25T02:35:43.761Z</time>
      </trkpt>
      <trkpt lat="36.03947" lon="32.7254">
        <ele>227.644082</ele>
        <time>2022-02-25T02:36:06.737Z</time>
      </trkpt>
      <trkpt lat="36.04007" lon="32.72554">
        <ele>233.673173</ele>
        <time>2022-02-25T02:36:50.694Z</time>
      </trkpt>
      <trkpt lat="36.04042" lon="32.7257">
        <ele>236.875104</ele>
        <time>2022-02-25T02:37:17.081Z</time>
      </trkpt>
      <trkpt lat="36.04055" lon="32.72576">
        <ele>237.673094</ele>
        <time>2022-02-25T02:37:32.396Z</time>
      </trkpt>
      <trkpt lat="36.0407" lon="32.72579">
        <ele>238.5434</ele>
        <time>2022-02-25T02:37:37.062Z</time>
      </trkpt>
      <trkpt lat="36.04082" lon="32.72577">
        <ele>239.225778</ele>
        <time>2022-02-25T02:37:46.531Z</time>
      </trkpt>
      <trkpt lat="36.0409" lon="32.72566">
        <ele>239.884373</ele>
        <time>2022-02-25T02:37:56.252Z</time>
      </trkpt>
      <trkpt lat="36.04094" lon="32.72504">
        <ele>242.757711</ele>
        <time>2022-02-25T02:38:19.789Z</time>
      </trkpt>
      <trkpt lat="36.04104" lon="32.72492">
        <ele>243.542258</ele>
        <time>2022-02-25T02:38:30.063Z</time>
      </trkpt>
      <trkpt lat="36.0413" lon="32.72496">
        <ele>245.041922</ele>
        <time>2022-02-25T02:38:38.850Z</time>
      </trkpt>
      <trkpt lat="36.04179" lon="32.72516">
        <ele>247.057142</ele>
        <time>2022-02-25T02:38:59.804Z</time>
      </trkpt>
      <trkpt lat="36.04234" lon="32.72519">
        <ele>248.156969</ele>
        <time>2022-02-25T02:39:22.462Z</time>
      </trkpt>
      <trkpt lat="36.04255" lon="32.72526">
        <ele>248.577566</ele>
        <time>2022-02-25T02:39:31.296Z</time>
      </trkpt>
      <trkpt lat="36.04277" lon="32.7254">
        <ele>249.080394</ele>
        <time>2022-02-25T02:39:41.446Z</time>
      </trkpt>
      <trkpt lat="36.0432" lon="32.72584">
        <ele>249.974582</ele>
        <time>2022-02-25T02:40:01.030Z</time>
      </trkpt>
      <trkpt lat="36.04348" lon="32.72596">
        <ele>248.440304</ele>
        <time>2022-02-25T02:40:08.498Z</time>
      </trkpt>
      <trkpt lat="36.04363" lon="32.72595">
        <ele>247.619047</ele>
        <time>2022-02-25T02:40:11.947Z</time>
      </trkpt>
      <trkpt lat="36.04437" lon="32.72565">
        <ele>243.486676</ele>
        <time>2022-02-25T02:40:26.850Z</time>
      </trkpt>
      <trkpt lat="36.0449" lon="32.72559">
        <ele>240.655556</ele>
        <time>2022-02-25T02:40:36.065Z</time>
      </trkpt>
      <trkpt lat="36.04504" lon="32.72545">
        <ele>239.024439</ele>
        <time>2022-02-25T02:40:39.004Z</time>
      </trkpt>
      <trkpt lat="36.04511" lon="32.72521">
        <ele>237.079754</ele>
        <time>2022-02-25T02:40:42.406Z</time>
      </trkpt>
      <trkpt lat="36.04515" lon="32.72435">
        <ele>230.4555</ele>
        <time>2022-02-25T02:40:54.074Z</time>
      </trkpt>
      <trkpt lat="36.04526" lon="32.72311">
        <ele>222.452226</ele>
        <time>2022-02-25T02:41:12.310Z</time>
      </trkpt>
      <trkpt lat="36.04541" lon="32.72297">
        <ele>221.659727</ele>
        <time>2022-02-25T02:41:15.838Z</time>
      </trkpt>
      <trkpt lat="36.04588" lon="32.72251">
        <ele>219.149601</ele>
        <time>2022-02-25T02:41:27.200Z</time>
      </trkpt>
      <trkpt lat="36.04607" lon="32.72233">
        <ele>218.140336</ele>
        <time>2022-02-25T02:41:32.076Z</time>
      </trkpt>
      <trkpt lat="36.04645" lon="32.72213">
        <ele>216.413512</ele>
        <time>2022-02-25T02:41:40.571Z</time>
      </trkpt>
      <trkpt lat="36.04672" lon="32.72208">
        <ele>214.295474</ele>
        <time>2022-02-25T02:41:46.548Z</time>
      </trkpt>
      <trkpt lat="36.04685" lon="32.72197">
        <ele>212.753469</ele>
        <time>2022-02-25T02:41:49.448Z</time>
      </trkpt>
      <trkpt lat="36.04691" lon="32.72181">
        <ele>211.419708</ele>
        <time>2022-02-25T02:41:51.864Z</time>
      </trkpt>
      <trkpt lat="36.0469" lon="32.72162">
        <ele>209.990367</ele>
        <time>2022-02-25T02:41:54.352Z</time>
      </trkpt>
      <trkpt lat="36.04681" lon="32.72145">
        <ele>208.419667</ele>
        <time>2022-02-25T02:41:57.028Z</time>
      </trkpt>
      <trkpt lat="36.04665" lon="32.72128">
        <ele>206.401424</ele>
        <time>2022-02-25T02:42:00.394Z</time>
      </trkpt>
      <trkpt lat="36.04632" lon="32.7211">
        <ele>202.947689</ele>
        <time>2022-02-25T02:42:06.103Z</time>
      </trkpt>
      <trkpt lat="36.0461" lon="32.72112">
        <ele>200.834361</ele>
        <time>2022-02-25T02:42:09.602Z</time>
      </trkpt>
      <trkpt lat="36.04573" lon="32.72129">
        <ele>197.138897</ele>
        <time>2022-02-25T02:42:15.844Z</time>
      </trkpt>
      <trkpt lat="36.04554" lon="32.72132">
        <ele>195.429023</ele>
        <time>2022-02-25T02:42:18.840Z</time>
      </trkpt>
      <trkpt lat="36.0454" lon="32.7213">
        <ele>194.118728</ele>
        <time>2022-02-25T02:42:21.115Z</time>
      </trkpt>
      <trkpt lat="36.04514" lon="32.72098">
        <ele>190.716921</ele>
        <time>2022-02-25T02:42:27.075Z</time>
      </trkpt>
      <trkpt lat="36.04421" lon="32.72025">
        <ele>181.583451</ele>
        <time>2022-02-25T02:42:45.731Z</time>
      </trkpt>
      <trkpt lat="36.04393" lon="32.71996">
        <ele>180.07374</ele>
        <time>2022-02-25T02:42:53.131Z</time>
      </trkpt>
      <trkpt lat="36.04367" lon="32.71959">
        <ele>178.450803</ele>
        <time>2022-02-25T02:43:01.203Z</time>
      </trkpt>
      <trkpt lat="36.04327" lon="32.7187">
        <ele>175.061309</ele>
        <time>2022-02-25T02:43:17.116Z</time>
      </trkpt>
      <trkpt lat="36.04312" lon="32.71782">
        <ele>171.439846</ele>
        <time>2022-02-25T02:43:30.259Z</time>
      </trkpt>
      <trkpt lat="36.04314" lon="32.71575">
        <ele>162.983966</ele>
        <time>2022-02-25T02:44:00.216Z</time>
      </trkpt>
      <trkpt lat="36.04319" lon="32.71524">
        <ele>160.857948</ele>
        <time>2022-02-25T02:44:07.905Z</time>
      </trkpt>
      <trkpt lat="36.04331" lon="32.71475">
        <ele>158.768081</ele>
        <time>2022-02-25T02:44:15.555Z</time>
      </trkpt>
      <trkpt lat="36.04348" lon="32.71434">
        <ele>156.867606</ele>
        <time>2022-02-25T02:44:22.451Z</time>
      </trkpt>
      <trkpt lat="36.04425" lon="32.7133">
        <ele>148.03983</ele>
        <time>2022-02-25T02:44:42.136Z</time>
      </trkpt>
      <trkpt lat="36.04444" lon="32.71297">
        <ele>145.46086</ele>
        <time>2022-02-25T02:44:47.586Z</time>
      </trkpt>
      <trkpt lat="36.04456" lon="32.71256">
        <ele>142.706706</ele>
        <time>2022-02-25T02:44:53.312Z</time>
      </trkpt>
      <trkpt lat="36.04464" lon="32.7121">
        <ele>138.864131</ele>
        <time>2022-02-25T02:44:59.365Z</time>
      </trkpt>
      <trkpt lat="36.04463" lon="32.71169">
        <ele>135.418045</ele>
        <time>2022-02-25T02:45:04.768Z</time>
      </trkpt>
      <trkpt lat="36.04457" lon="32.71126">
        <ele>131.837324</ele>
        <time>2022-02-25T02:45:10.369Z</time>
      </trkpt>
      <trkpt lat="36.04442" lon="32.71085">
        <ele>128.080042</ele>
        <time>2022-02-25T02:45:16.289Z</time>
      </trkpt>
      <trkpt lat="36.04419" lon="32.71043">
        <ele>124.147601</ele>
        <time>2022-02-25T02:45:23.000Z</time>
      </trkpt>
      <trkpt lat="36.04392" lon="32.71014">
        <ele>122.442474</ele>
        <time>2022-02-25T02:45:29.146Z</time>
      </trkpt>
      <trkpt lat="36.04355" lon="32.70987">
        <ele>120.433226</ele>
        <time>2022-02-25T02:45:36.722Z</time>
      </trkpt>
      <trkpt lat="36.04326" lon="32.70974">
        <ele>118.974196</ele>
        <time>2022-02-25T02:45:42.507Z</time>
      </trkpt>
      <trkpt lat="36.04293" lon="32.70965">
        <ele>117.367685</ele>
        <time>2022-02-25T02:45:49.212Z</time>
      </trkpt>
      <trkpt lat="36.04252" lon="32.70966">
        <ele>115.787758</ele>
        <time>2022-02-25T02:45:57.984Z</time>
      </trkpt>
      <trkpt lat="36.04097" lon="32.70983">
        <ele>114.886764</ele>
        <time>2022-02-25T02:46:37.403Z</time>
      </trkpt>
      <trkpt lat="36.04065" lon="32.70982">
        <ele>114.883836</ele>
        <time>2022-02-25T02:46:45.632Z</time>
      </trkpt>
      <trkpt lat="36.04028" lon="32.70969">
        <ele>115.07663</ele>
        <time>2022-02-25T02:46:55.803Z</time>
      </trkpt>
      <trkpt lat="36.03998" lon="32.70944">
        <ele>115.258203</ele>
        <time>2022-02-25T02:47:05.685Z</time>
      </trkpt>
      <trkpt lat="36.03974" lon="32.70911">
        <ele>115.434098</ele>
        <time>2022-02-25T02:47:15.770Z</time>
      </trkpt>
      <trkpt lat="36.03961" lon="32.70877">
        <ele>115.585232</ele>
        <time>2022-02-25T02:47:25.137Z</time>
      </trkpt>
      <trkpt lat="36.03955" lon="32.70833">
        <ele>116.149071</ele>
        <time>2022-02-25T02:47:37.349Z</time>
      </trkpt>
      <trkpt lat="36.03958" lon="32.70796">
        <ele>117.155818</ele>
        <time>2022-02-25T02:47:48.750Z</time>
      </trkpt>
      <trkpt lat="36.03972" lon="32.70746">
        <ele>118.569734</ele>
        <time>2022-02-25T02:48:06.170Z</time>
      </trkpt>
      <trkpt lat="36.0403" lon="32.70584">
        <ele>123.749556</ele>
        <time>2022-02-25T02:49:14.148Z</time>
      </trkpt>
      <trkpt lat="36.04093" lon="32.70444">
        <ele>129.22326</ele>
        <time>2022-02-25T02:50:17.449Z</time>
      </trkpt>
      <trkpt lat="36.04131" lon="32.7035">
        <ele>128.268985</ele>
        <time>2022-02-25T02:50:50.059Z</time>
      </trkpt>
      <trkpt lat="36.04331" lon="32.69826">
        <ele>119.487487</ele>
        <time>2022-02-25T02:52:30.644Z</time>
      </trkpt>
      <trkpt lat="36.04385" lon="32.697">
        <ele>113.527824</ele>
        <time>2022-02-25T02:52:50.757Z</time>
      </trkpt>
      <trkpt lat="36.04441" lon="32.69582">
        <ele>109.357782</ele>
        <time>2022-02-25T02:53:10.913Z</time>
      </trkpt>
      <trkpt lat="36.04676" lon="32.69107">
        <ele>96.076882</ele>
        <time>2022-02-25T02:54:49.975Z</time>
      </trkpt>
      <trkpt lat="36.0495" lon="32.68565">
        <ele>55.11275</ele>
        <time>2022-02-25T02:56:15.088Z</time>
      </trkpt>
      <trkpt lat="36.05186" lon="32.68036">
        <ele>64.822971</ele>
        <time>2022-02-25T02:59:45.834Z</time>
      </trkpt>
      <trkpt lat="36.05245" lon="32.67891">
        <ele>64.059731</ele>
        <time>2022-02-25T03:00:19.508Z</time>
      </trkpt>
      <trkpt lat="36.05289" lon="32.6775">
        <ele>56.622239</ele>
        <time>2022-02-25T03:00:40.139Z</time>
      </trkpt>
      <trkpt lat="36.05305" lon="32.67689">
        <ele>54.260132</ele>
        <time>2022-02-25T03:00:48.869Z</time>
      </trkpt>
      <trkpt lat="36.05324" lon="32.67611">
        <ele>52.632188</ele>
        <time>2022-02-25T03:01:00.809Z</time>
      </trkpt>
      <trkpt lat="36.05347" lon="32.67497">
        <ele>50.483906</ele>
        <time>2022-02-25T03:01:25.741Z</time>
      </trkpt>
      <trkpt lat="36.05469" lon="32.66775">
        <ele>79.138519</ele>
        <time>2022-02-25T03:06:23.736Z</time>
      </trkpt>
      <trkpt lat="36.05481" lon="32.66731">
        <ele>81.548863</ele>
        <time>2022-02-25T03:06:45.133Z</time>
      </trkpt>
      <trkpt lat="36.0552" lon="32.66667">
        <ele>85.656182</ele>
        <time>2022-02-25T03:07:24.127Z</time>
      </trkpt>
      <trkpt lat="36.05545" lon="32.66645">
        <ele>88.005713</ele>
        <time>2022-02-25T03:07:44.221Z</time>
      </trkpt>
      <trkpt lat="36.05602" lon="32.66609">
        <ele>93.89704</ele>
        <time>2022-02-25T03:08:27.763Z</time>
      </trkpt>
      <trkpt lat="36.05639" lon="32.66577">
        <ele>98.081017</ele>
        <time>2022-02-25T03:09:00.256Z</time>
      </trkpt>
      <trkpt lat="36.05702" lon="32.66494">
        <ele>107.225893</ele>
        <time>2022-02-25T03:10:10.642Z</time>
      </trkpt>
      <trkpt lat="36.05726" lon="32.66444">
        <ele>112.483056</ele>
        <time>2022-02-25T03:10:48.366Z</time>
      </trkpt>
      <trkpt lat="36.05764" lon="32.66333">
        <ele>123.313545</ele>
        <time>2022-02-25T03:12:08.230Z</time>
      </trkpt>
      <trkpt lat="36.05788" lon="32.66258">
        <ele>130.530003</ele>
        <time>2022-02-25T03:13:02.611Z</time>
      </trkpt>
      <trkpt lat="36.058" lon="32.66208">
        <ele>135.135923</ele>
        <time>2022-02-25T03:13:36.766Z</time>
      </trkpt>
      <trkpt lat="36.05805" lon="32.66166">
        <ele>138.872818</ele>
        <time>2022-02-25T03:14:03.507Z</time>
      </trkpt>
      <trkpt lat="36.05805" lon="32.66065">
        <ele>146.902298</ele>
        <time>2022-02-25T03:15:04.731Z</time>
      </trkpt>
      <trkpt lat="36.05797" lon="32.66021">
        <ele>150.006306</ele>
        <time>2022-02-25T03:15:29.975Z</time>
      </trkpt>
      <trkpt lat="36.05724" lon="32.65715">
        <ele>171.158442</ele>
        <time>2022-02-25T03:18:17.099Z</time>
      </trkpt>
      <trkpt lat="36.05723" lon="32.65666">
        <ele>174.196951</ele>
        <time>2022-02-25T03:18:42.057Z</time>
      </trkpt>
      <trkpt lat="36.05728" lon="32.65617">
        <ele>177.288572</ele>
        <time>2022-02-25T03:19:07.650Z</time>
      </trkpt>
      <trkpt lat="36.05728" lon="32.6561">
        <ele>177.68001</ele>
        <time>2022-02-25T03:19:10.933Z</time>
      </trkpt>
      <trkpt lat="36.05733" lon="32.65563">
        <ele>180.627765</ele>
        <time>2022-02-25T03:19:35.286Z</time>
      </trkpt>
      <trkpt lat="36.05742" lon="32.65529">
        <ele>182.869972</ele>
        <time>2022-02-25T03:19:53.628Z</time>
      </trkpt>
      <trkpt lat="36.05773" lon="32.65471">
        <ele>187.196279</ele>
        <time>2022-02-25T03:20:29.700Z</time>
      </trkpt>
      <trkpt lat="36.05821" lon="32.65422">
        <ele>192.135416</ele>
        <time>2022-02-25T03:21:08.598Z</time>
      </trkpt>
      <trkpt lat="36.05874" lon="32.65393">
        <ele>196.731923</ele>
        <time>2022-02-25T03:21:43.421Z</time>
      </trkpt>
      <trkpt lat="36.05898" lon="32.65386">
        <ele>198.656018</ele>
        <time>2022-02-25T03:21:58.337Z</time>
      </trkpt>
      <trkpt lat="36.05951" lon="32.65386">
        <ele>204.161407</ele>
        <time>2022-02-25T03:22:35.384Z</time>
      </trkpt>
      <trkpt lat="36.06054" lon="32.65423">
        <ele>218.328645</ele>
        <time>2022-02-25T03:24:11.535Z</time>
      </trkpt>
      <trkpt lat="36.06073" lon="32.65425">
        <ele>220.927404</ele>
        <time>2022-02-25T03:24:33.561Z</time>
      </trkpt>
      <trkpt lat="36.06104" lon="32.65433">
        <ele>225.265407</ele>
        <time>2022-02-25T03:25:06.836Z</time>
      </trkpt>
      <trkpt lat="36.06134" lon="32.65434">
        <ele>230.237622</ele>
        <time>2022-02-25T03:25:34.973Z</time>
      </trkpt>
      <trkpt lat="36.06136" lon="32.65434">
        <ele>230.570361</ele>
        <time>2022-02-25T03:25:37.986Z</time>
      </trkpt>
      <trkpt lat="36.06206" lon="32.65435">
        <ele>242.207374</ele>
        <time>2022-02-25T03:26:53.513Z</time>
      </trkpt>
      <trkpt lat="36.06324" lon="32.65417">
        <ele>260.299185</ele>
        <time>2022-02-25T03:29:01.466Z</time>
      </trkpt>
      <trkpt lat="36.06346" lon="32.65428">
        <ele>263.316321</ele>
        <time>2022-02-25T03:29:22.423Z</time>
      </trkpt>
      <trkpt lat="36.0638" lon="32.65464">
        <ele>269.117967</ele>
        <time>2022-02-25T03:30:02.170Z</time>
      </trkpt>
      <trkpt lat="36.06396" lon="32.65474">
        <ele>271.337208</ele>
        <time>2022-02-25T03:30:16.526Z</time>
      </trkpt>
      <trkpt lat="36.06429" lon="32.65473">
        <ele>275.524582</ele>
        <time>2022-02-25T03:30:42.651Z</time>
      </trkpt>
      <trkpt lat="36.06563" lon="32.65404">
        <ele>288.488829</ele>
        <time>2022-02-25T03:32:20.526Z</time>
      </trkpt>
      <trkpt lat="36.06613" lon="32.65361">
        <ele>293.403952</ele>
        <time>2022-02-25T03:33:00.738Z</time>
      </trkpt>
      <trkpt lat="36.06666" lon="32.65328">
        <ele>296.547273</ele>
        <time>2022-02-25T03:33:35.028Z</time>
      </trkpt>
      <trkpt lat="36.06681" lon="32.65325">
        <ele>297.370057</ele>
        <time>2022-02-25T03:33:43.818Z</time>
      </trkpt>
      <trkpt lat="36.06697" lon="32.65328">
        <ele>298.237493</ele>
        <time>2022-02-25T03:33:52.649Z</time>
      </trkpt>
      <trkpt lat="36.06726" lon="32.65333">
        <ele>299.815032</ele>
        <time>2022-02-25T03:34:07.477Z</time>
      </trkpt>
      <trkpt lat="36.06744" lon="32.65329">
        <ele>300.753366</ele>
        <time>2022-02-25T03:34:15.672Z</time>
      </trkpt>
      <trkpt lat="36.06764" lon="32.65316">
        <ele>301.976824</ele>
        <time>2022-02-25T03:34:26.821Z</time>
      </trkpt>
      <trkpt lat="36.06779" lon="32.65302">
        <ele>302.592233</ele>
        <time>2022-02-25T03:34:34.328Z</time>
      </trkpt>
      <trkpt lat="36.06855" lon="32.65193">
        <ele>303.353689</ele>
        <time>2022-02-25T03:35:09.185Z</time>
      </trkpt>
      <trkpt lat="36.06875" lon="32.65173">
        <ele>303.521204</ele>
        <time>2022-02-25T03:35:14.848Z</time>
      </trkpt>
      <trkpt lat="36.06895" lon="32.6516">
        <ele>303.66833</ele>
        <time>2022-02-25T03:35:20.077Z</time>
      </trkpt>
      <trkpt lat="36.06931" lon="32.6515">
        <ele>304.160115</ele>
        <time>2022-02-25T03:35:29.268Z</time>
      </trkpt>
      <trkpt lat="36.0695" lon="32.65139">
        <ele>304.468864</ele>
        <time>2022-02-25T03:35:35.023Z</time>
      </trkpt>
      <trkpt lat="36.0696" lon="32.65127">
        <ele>304.673174</ele>
        <time>2022-02-25T03:35:38.601Z</time>
      </trkpt>
      <trkpt lat="36.06976" lon="32.65069">
        <ele>305.393083</ele>
        <time>2022-02-25T03:35:53.584Z</time>
      </trkpt>
      <trkpt lat="36.06983" lon="32.65056">
        <ele>305.585365</ele>
        <time>2022-02-25T03:35:58.272Z</time>
      </trkpt>
      <trkpt lat="36.07035" lon="32.65021">
        <ele>306.843503</ele>
        <time>2022-02-25T03:36:23.839Z</time>
      </trkpt>
      <trkpt lat="36.07041" lon="32.65006">
        <ele>307.744944</ele>
        <time>2022-02-25T03:36:30.284Z</time>
      </trkpt>
      <trkpt lat="36.07044" lon="32.64952">
        <ele>310.759715</ele>
        <time>2022-02-25T03:36:54.018Z</time>
      </trkpt>
      <trkpt lat="36.0707" lon="32.64886">
        <ele>314.835028</ele>
        <time>2022-02-25T03:37:32.140Z</time>
      </trkpt>
      <trkpt lat="36.07081" lon="32.64875">
        <ele>315.815722</ele>
        <time>2022-02-25T03:37:41.747Z</time>
      </trkpt>
      <trkpt lat="36.07102" lon="32.64873">
        <ele>317.289113</ele>
        <time>2022-02-25T03:37:56.559Z</time>
      </trkpt>
      <trkpt lat="36.07117" lon="32.64859">
        <ele>318.579233</ele>
        <time>2022-02-25T03:38:09.333Z</time>
      </trkpt>
      <trkpt lat="36.07128" lon="32.64739">
        <ele>325.464553</ele>
        <time>2022-02-25T03:39:14.494Z</time>
      </trkpt>
      <trkpt lat="36.07133" lon="32.64724">
        <ele>326.389932</ele>
        <time>2022-02-25T03:39:22.687Z</time>
      </trkpt>
      <trkpt lat="36.07191" lon="32.64659">
        <ele>331.550705</ele>
        <time>2022-02-25T03:40:06.520Z</time>
      </trkpt>
      <trkpt lat="36.07248" lon="32.64635">
        <ele>332.593393</ele>
        <time>2022-02-25T03:40:31.358Z</time>
      </trkpt>
      <trkpt lat="36.07275" lon="32.64571">
        <ele>333.613796</ele>
        <time>2022-02-25T03:40:48.725Z</time>
      </trkpt>
      <trkpt lat="36.07312" lon="32.64535">
        <ele>334.438511</ele>
        <time>2022-02-25T03:41:01.231Z</time>
      </trkpt>
      <trkpt lat="36.07349" lon="32.64452">
        <ele>335.001037</ele>
        <time>2022-02-25T03:41:20.429Z</time>
      </trkpt>
      <trkpt lat="36.07354" lon="32.64382">
        <ele>335.356692</ele>
        <time>2022-02-25T03:41:35.452Z</time>
      </trkpt>
      <trkpt lat="36.07352" lon="32.6432">
        <ele>335.666738</ele>
        <time>2022-02-25T03:41:51.774Z</time>
      </trkpt>
      <trkpt lat="36.07355" lon="32.64302">
        <ele>336.332935</ele>
        <time>2022-02-25T03:41:57.371Z</time>
      </trkpt>
      <trkpt lat="36.07375" lon="32.64258">
        <ele>338.905746</ele>
        <time>2022-02-25T03:42:15.761Z</time>
      </trkpt>
      <trkpt lat="36.0738" lon="32.64223">
        <ele>340.725414</ele>
        <time>2022-02-25T03:42:30.703Z</time>
      </trkpt>
      <trkpt lat="36.07366" lon="32.64138">
        <ele>345.138501</ele>
        <time>2022-02-25T03:43:14.086Z</time>
      </trkpt>
      <trkpt lat="36.07354" lon="32.64125">
        <ele>346.11465</ele>
        <time>2022-02-25T03:43:25.085Z</time>
      </trkpt>
      <trkpt lat="36.07315" lon="32.64102">
        <ele>350.68878</ele>
        <time>2022-02-25T03:43:58.271Z</time>
      </trkpt>
      <trkpt lat="36.07309" lon="32.64092">
        <ele>351.975541</ele>
        <time>2022-02-25T03:44:06.533Z</time>
      </trkpt>
      <trkpt lat="36.07309" lon="32.64067">
        <ele>354.553561</ele>
        <time>2022-02-25T03:44:24.130Z</time>
      </trkpt>
      <trkpt lat="36.07317" lon="32.6405">
        <ele>356.527683</ele>
        <time>2022-02-25T03:44:38.053Z</time>
      </trkpt>
      <trkpt lat="36.0736" lon="32.64006">
        <ele>363.664446</ele>
        <time>2022-02-25T03:45:29.710Z</time>
      </trkpt>
      <trkpt lat="36.07428" lon="32.6391">
        <ele>379.161433</ele>
        <time>2022-02-25T03:47:06.843Z</time>
      </trkpt>
      <trkpt lat="36.07485" lon="32.63766">
        <ele>401.484893</ele>
        <time>2022-02-25T03:49:38.721Z</time>
      </trkpt>
      <trkpt lat="36.07497" lon="32.63751">
        <ele>404.512894</ele>
        <time>2022-02-25T03:49:56.257Z</time>
      </trkpt>
      <trkpt lat="36.07507" lon="32.6374">
        <ele>406.876122</ele>
        <time>2022-02-25T03:50:14.386Z</time>
      </trkpt>
      <trkpt lat="36.07519" lon="32.63733">
        <ele>409.178021</ele>
        <time>2022-02-25T03:50:27.306Z</time>
      </trkpt>
      <trkpt lat="36.07535" lon="32.63733">
        <ele>412.022297</ele>
        <time>2022-02-25T03:50:46.429Z</time>
      </trkpt>
      <trkpt lat="36.07551" lon="32.63741">
        <ele>415.168627</ele>
        <time>2022-02-25T03:51:07.526Z</time>
      </trkpt>
      <trkpt lat="36.07592" lon="32.63792">
        <ele>425.569082</ele>
        <time>2022-02-25T03:52:17.824Z</time>
      </trkpt>
      <trkpt lat="36.07675" lon="32.63851">
        <ele>437.681003</ele>
        <time>2022-02-25T03:53:51.993Z</time>
      </trkpt>
      <trkpt lat="36.07688" lon="32.63869">
        <ele>439.34339</ele>
        <time>2022-02-25T03:54:06.215Z</time>
      </trkpt>
      <trkpt lat="36.07716" lon="32.63944">
        <ele>445.293885</ele>
        <time>2022-02-25T03:54:48.580Z</time>
      </trkpt>
      <trkpt lat="36.07744" lon="32.63964">
        <ele>448.234828</ele>
        <time>2022-02-25T03:55:03.418Z</time>
      </trkpt>
      <trkpt lat="36.07772" lon="32.63999">
        <ele>447.506345</ele>
        <time>2022-02-25T03:55:16.074Z</time>
      </trkpt>
      <trkpt lat="36.07784" lon="32.64021">
        <ele>446.747</ele>
        <time>2022-02-25T03:55:20.808Z</time>
      </trkpt>
      <trkpt lat="36.0779" lon="32.64044">
        <ele>446.039266</ele>
        <time>2022-02-25T03:55:25.002Z</time>
      </trkpt>
      <trkpt lat="36.07794" lon="32.64221">
        <ele>439.758941</ele>
        <time>2022-02-25T03:55:49.665Z</time>
      </trkpt>
      <trkpt lat="36.07804" lon="32.64249">
        <ele>438.091294</ele>
        <time>2022-02-25T03:55:53.790Z</time>
      </trkpt>
      <trkpt lat="36.07815" lon="32.64258">
        <ele>437.234156</ele>
        <time>2022-02-25T03:55:55.929Z</time>
      </trkpt>
      <trkpt lat="36.07839" lon="32.64257">
        <ele>435.578962</ele>
        <time>2022-02-25T03:56:00.055Z</time>
      </trkpt>
      <trkpt lat="36.07868" lon="32.64244">
        <ele>433.569806</ele>
        <time>2022-02-25T03:56:05.179Z</time>
      </trkpt>
      <trkpt lat="36.07887" lon="32.64229">
        <ele>432.03799</ele>
        <time>2022-02-25T03:56:09.196Z</time>
      </trkpt>
      <trkpt lat="36.07903" lon="32.64208">
        <ele>430.485318</ele>
        <time>2022-02-25T03:56:13.451Z</time>
      </trkpt>
      <trkpt lat="36.07926" lon="32.64151">
        <ele>431.85927</ele>
        <time>2022-02-25T03:56:23.730Z</time>
      </trkpt>
      <trkpt lat="36.07938" lon="32.64139">
        <ele>432.342843</ele>
        <time>2022-02-25T03:56:27.324Z</time>
      </trkpt>
      <trkpt lat="36.07952" lon="32.64134">
        <ele>432.818459</ele>
        <time>2022-02-25T03:56:32.065Z</time>
      </trkpt>
      <trkpt lat="36.08075" lon="32.64185">
        <ele>439.58554</ele>
        <time>2022-02-25T03:57:51.972Z</time>
      </trkpt>
      <trkpt lat="36.08134" lon="32.64221">
        <ele>447.665881</ele>
        <time>2022-02-25T03:58:50.924Z</time>
      </trkpt>
      <trkpt lat="36.08182" lon="32.64264">
        <ele>455.004502</ele>
        <time>2022-02-25T03:59:47.626Z</time>
      </trkpt>
      <trkpt lat="36.08227" lon="32.6432">
        <ele>462.521688</ele>
        <time>2022-02-25T04:00:48.402Z</time>
      </trkpt>
      <trkpt lat="36.08256" lon="32.64364">
        <ele>467.662185</ele>
        <time>2022-02-25T04:01:28.814Z</time>
      </trkpt>
      <trkpt lat="36.08342" lon="32.64584">
        <ele>485.639986</ele>
        <time>2022-02-25T04:03:50.142Z</time>
      </trkpt>
      <trkpt lat="36.08365" lon="32.64629">
        <ele>488.640873</ele>
        <time>2022-02-25T04:04:12.937Z</time>
      </trkpt>
      <trkpt lat="36.08387" lon="32.64658">
        <ele>490.853335</ele>
        <time>2022-02-25T04:04:28.419Z</time>
      </trkpt>
      <trkpt lat="36.08582" lon="32.64831">
        <ele>493.046856</ele>
        <time>2022-02-25T04:05:49.068Z</time>
      </trkpt>
      <trkpt lat="36.08655" lon="32.64875">
        <ele>491.105561</ele>
        <time>2022-02-25T04:06:05.574Z</time>
      </trkpt>
      <trkpt lat="36.08678" lon="32.64881">
        <ele>490.563379</ele>
        <time>2022-02-25T04:06:09.860Z</time>
      </trkpt>
      <trkpt lat="36.08815" lon="32.64866">
        <ele>480.257411</ele>
        <time>2022-02-25T04:06:33.216Z</time>
      </trkpt>
      <trkpt lat="36.08866" lon="32.64853">
        <ele>475.863614</ele>
        <time>2022-02-25T04:06:41.754Z</time>
      </trkpt>
      <trkpt lat="36.08899" lon="32.64836">
        <ele>472.499572</ele>
        <time>2022-02-25T04:06:47.523Z</time>
      </trkpt>
      <trkpt lat="36.08928" lon="32.64802">
        <ele>468.64063</ele>
        <time>2022-02-25T04:06:53.910Z</time>
      </trkpt>
      <trkpt lat="36.08949" lon="32.64771">
        <ele>465.495231</ele>
        <time>2022-02-25T04:06:59.162Z</time>
      </trkpt>
      <trkpt lat="36.0896" lon="32.64735">
        <ele>462.41682</ele>
        <time>2022-02-25T04:07:04.327Z</time>
      </trkpt>
      <trkpt lat="36.08963" lon="32.64674">
        <ele>457.627035</ele>
        <time>2022-02-25T04:07:12.521Z</time>
      </trkpt>
      <trkpt lat="36.08955" lon="32.64633">
        <ele>455.694807</ele>
        <time>2022-02-25T04:07:18.282Z</time>
      </trkpt>
      <trkpt lat="36.08912" lon="32.64509">
        <ele>449.534757</ele>
        <time>2022-02-25T04:07:37.770Z</time>
      </trkpt>
      <trkpt lat="36.08913" lon="32.64493">
        <ele>448.818415</ele>
        <time>2022-02-25T04:07:40.271Z</time>
      </trkpt>
      <trkpt lat="36.08928" lon="32.64456">
        <ele>447.255817</ele>
        <time>2022-02-25T04:07:46.807Z</time>
      </trkpt>
      <trkpt lat="36.08916" lon="32.64369">
        <ele>445.480944</ele>
        <time>2022-02-25T04:08:01.282Z</time>
      </trkpt>
      <trkpt lat="36.08896" lon="32.64322">
        <ele>444.428367</ele>
        <time>2022-02-25T04:08:09.895Z</time>
      </trkpt>
      <trkpt lat="36.08879" lon="32.64307">
        <ele>443.906337</ele>
        <time>2022-02-25T04:08:14.183Z</time>
      </trkpt>
      <trkpt lat="36.08864" lon="32.64276">
        <ele>443.170786</ele>
        <time>2022-02-25T04:08:20.401Z</time>
      </trkpt>
      <trkpt lat="36.08835" lon="32.64128">
        <ele>442.816932</ele>
        <time>2022-02-25T04:08:48.831Z</time>
      </trkpt>
      <trkpt lat="36.08835" lon="32.64085">
        <ele>442.757681</ele>
        <time>2022-02-25T04:08:58.400Z</time>
      </trkpt>
      <trkpt lat="36.0886" lon="32.63997">
        <ele>445.070099</ele>
        <time>2022-02-25T04:09:27.061Z</time>
      </trkpt>
      <trkpt lat="36.08864" lon="32.63927">
        <ele>447.931413</ele>
        <time>2022-02-25T04:09:55.561Z</time>
      </trkpt>
      <trkpt lat="36.08874" lon="32.63896">
        <ele>449.28348</ele>
        <time>2022-02-25T04:10:11.080Z</time>
      </trkpt>
      <trkpt lat="36.08917" lon="32.6384">
        <ele>452.472599</ele>
        <time>2022-02-25T04:10:50.587Z</time>
      </trkpt>
      <trkpt lat="36.08928" lon="32.63835">
        <ele>453.100616</ele>
        <time>2022-02-25T04:10:58.543Z</time>
      </trkpt>
      <trkpt lat="36.08949" lon="32.63836">
        <ele>454.187774</ele>
        <time>2022-02-25T04:11:12.200Z</time>
      </trkpt>
      <trkpt lat="36.09006" lon="32.63913">
        <ele>458.627231</ele>
        <time>2022-02-25T04:12:01.969Z</time>
      </trkpt>
      <trkpt lat="36.09069" lon="32.63963">
        <ele>460.27213</ele>
        <time>2022-02-25T04:12:29.808Z</time>
      </trkpt>
      <trkpt lat="36.09129" lon="32.64055">
        <ele>456.546257</ele>
        <time>2022-02-25T04:12:47.982Z</time>
      </trkpt>
      <trkpt lat="36.09149" lon="32.64065">
        <ele>455.72083</ele>
        <time>2022-02-25T04:12:51.634Z</time>
      </trkpt>
      <trkpt lat="36.09162" lon="32.64065">
        <ele>455.227803</ele>
        <time>2022-02-25T04:12:53.764Z</time>
      </trkpt>
      <trkpt lat="36.09174" lon="32.64055">
        <ele>454.661639</ele>
        <time>2022-02-25T04:12:56.223Z</time>
      </trkpt>
      <trkpt lat="36.09187" lon="32.64033">
        <ele>453.638</ele>
        <time>2022-02-25T04:12:59.856Z</time>
      </trkpt>
      <trkpt lat="36.09201" lon="32.63992">
        <ele>451.702358</ele>
        <time>2022-02-25T04:13:05.921Z</time>
      </trkpt>
      <trkpt lat="36.09214" lon="32.63893">
        <ele>447.390168</ele>
        <time>2022-02-25T04:13:20.007Z</time>
      </trkpt>
      <trkpt lat="36.09221" lon="32.63868">
        <ele>446.248629</ele>
        <time>2022-02-25T04:13:24.043Z</time>
      </trkpt>
      <trkpt lat="36.09244" lon="32.63831">
        <ele>444.808793</ele>
        <time>2022-02-25T04:13:32.025Z</time>
      </trkpt>
      <trkpt lat="36.0934" lon="32.63815">
        <ele>446.392262</ele>
        <time>2022-02-25T04:14:04.284Z</time>
      </trkpt>
      <trkpt lat="36.0943" lon="32.63794">
        <ele>447.846808</ele>
        <time>2022-02-25T04:14:45.291Z</time>
      </trkpt>
      <trkpt lat="36.09474" lon="32.63793">
        <ele>448.453787</ele>
        <time>2022-02-25T04:15:04.283Z</time>
      </trkpt>
      <trkpt lat="36.09523" lon="32.63793">
        <ele>449.125253</ele>
        <time>2022-02-25T04:15:22.169Z</time>
      </trkpt>
      <trkpt lat="36.09542" lon="32.63793">
        <ele>449.394389</ele>
        <time>2022-02-25T04:15:28.580Z</time>
      </trkpt>
      <trkpt lat="36.09582" lon="32.63795">
        <ele>449.941264</ele>
        <time>2022-02-25T04:15:38.610Z</time>
      </trkpt>
      <trkpt lat="36.09623" lon="32.6378">
        <ele>448.517231</ele>
        <time>2022-02-25T04:15:47.546Z</time>
      </trkpt>
      <trkpt lat="36.09711" lon="32.63698">
        <ele>443.173592</ele>
        <time>2022-02-25T04:16:07.618Z</time>
      </trkpt>
      <trkpt lat="36.09724" lon="32.63677">
        <ele>442.155113</ele>
        <time>2022-02-25T04:16:11.209Z</time>
      </trkpt>
      <trkpt lat="36.09726" lon="32.6364">
        <ele>440.229257</ele>
        <time>2022-02-25T04:16:16.266Z</time>
      </trkpt>
      <trkpt lat="36.09719" lon="32.63624">
        <ele>439.031509</ele>
        <time>2022-02-25T04:16:18.681Z</time>
      </trkpt>
      <trkpt lat="36.09674" lon="32.63571">
        <ele>433.954584</ele>
        <time>2022-02-25T04:16:28.917Z</time>
      </trkpt>
      <trkpt lat="36.09665" lon="32.63552">
        <ele>432.410676</ele>
        <time>2022-02-25T04:16:32.035Z</time>
      </trkpt>
      <trkpt lat="36.0965" lon="32.6349">
        <ele>428.128425</ele>
        <time>2022-02-25T04:16:40.693Z</time>
      </trkpt>
      <trkpt lat="36.09647" lon="32.63439">
        <ele>425.373275</ele>
        <time>2022-02-25T04:16:47.700Z</time>
      </trkpt>
      <trkpt lat="36.09642" lon="32.63421">
        <ele>424.612554</ele>
        <time>2022-02-25T04:16:50.146Z</time>
      </trkpt>
      <trkpt lat="36.09631" lon="32.63403">
        <ele>423.642089</ele>
        <time>2022-02-25T04:16:53.313Z</time>
      </trkpt>
      <trkpt lat="36.09583" lon="32.63363">
        <ele>420.604095</ele>
        <time>2022-02-25T04:17:03.464Z</time>
      </trkpt>
      <trkpt lat="36.09538" lon="32.63306">
        <ele>417.205321</ele>
        <time>2022-02-25T04:17:15.758Z</time>
      </trkpt>
      <trkpt lat="36.09453" lon="32.63216">
        <ele>418.925558</ele>
        <time>2022-02-25T04:17:48.856Z</time>
      </trkpt>
      <trkpt lat="36.09446" lon="32.63203">
        <ele>419.131754</ele>
        <time>2022-02-25T04:17:54.255Z</time>
      </trkpt>
      <trkpt lat="36.09443" lon="32.63182">
        <ele>419.411282</ele>
        <time>2022-02-25T04:18:01.671Z</time>
      </trkpt>
      <trkpt lat="36.09448" lon="32.63119">
        <ele>420.606183</ele>
        <time>2022-02-25T04:18:27.807Z</time>
      </trkpt>
      <trkpt lat="36.09455" lon="32.63106">
        <ele>421.230314</ele>
        <time>2022-02-25T04:18:34.533Z</time>
      </trkpt>
      <trkpt lat="36.09467" lon="32.63099">
        <ele>421.857142</ele>
        <time>2022-02-25T04:18:41.436Z</time>
      </trkpt>
      <trkpt lat="36.09503" lon="32.6309">
        <ele>423.620029</ele>
        <time>2022-02-25T04:19:01.403Z</time>
      </trkpt>
      <trkpt lat="36.09519" lon="32.6308">
        <ele>424.486135</ele>
        <time>2022-02-25T04:19:11.120Z</time>
      </trkpt>
      <trkpt lat="36.09567" lon="32.63028">
        <ele>427.576179</ele>
        <time>2022-02-25T04:19:43.086Z</time>
      </trkpt>
      <trkpt lat="36.09605" lon="32.62959">
        <ele>430.450266</ele>
        <time>2022-02-25T04:20:12.450Z</time>
      </trkpt>
      <trkpt lat="36.09621" lon="32.62942">
        <ele>431.276096</ele>
        <time>2022-02-25T04:20:21.505Z</time>
      </trkpt>
      <trkpt lat="36.09676" lon="32.62905">
        <ele>433.72728</ele>
        <time>2022-02-25T04:20:49.305Z</time>
      </trkpt>
      <trkpt lat="36.09684" lon="32.62889">
        <ele>434.339123</ele>
        <time>2022-02-25T04:20:55.967Z</time>
      </trkpt>
      <trkpt lat="36.09687" lon="32.62828">
        <ele>436.494521</ele>
        <time>2022-02-25T04:21:18.413Z</time>
      </trkpt>
      <trkpt lat="36.09693" lon="32.62815">
        <ele>437.267017</ele>
        <time>2022-02-25T04:21:24.685Z</time>
      </trkpt>
      <trkpt lat="36.09761" lon="32.62783">
        <ele>441.762876</ele>
        <time>2022-02-25T04:22:04.909Z</time>
      </trkpt>
      <trkpt lat="36.09821" lon="32.62786">
        <ele>445.476382</ele>
        <time>2022-02-25T04:22:42.807Z</time>
      </trkpt>
      <trkpt lat="36.09846" lon="32.62779">
        <ele>447.019416</ele>
        <time>2022-02-25T04:22:58.808Z</time>
      </trkpt>
      <trkpt lat="36.09873" lon="32.6276">
        <ele>448.297745</ele>
        <time>2022-02-25T04:23:17.616Z</time>
      </trkpt>
      <trkpt lat="36.09907" lon="32.62726">
        <ele>450.070666</ele>
        <time>2022-02-25T04:23:40.783Z</time>
      </trkpt>
      <trkpt lat="36.09949" lon="32.62716">
        <ele>451.821529</ele>
        <time>2022-02-25T04:24:00.617Z</time>
      </trkpt>
      <trkpt lat="36.0999" lon="32.62667">
        <ele>454.149005</ele>
        <time>2022-02-25T04:24:21.414Z</time>
      </trkpt>
      <trkpt lat="36.10017" lon="32.62648">
        <ele>453.829734</ele>
        <time>2022-02-25T04:24:30.184Z</time>
      </trkpt>
      <trkpt lat="36.10062" lon="32.62638">
        <ele>453.077637</ele>
        <time>2022-02-25T04:24:40.959Z</time>
      </trkpt>
      <trkpt lat="36.10092" lon="32.62619">
        <ele>452.531219</ele>
        <time>2022-02-25T04:24:47.835Z</time>
      </trkpt>
      <trkpt lat="36.10108" lon="32.626">
        <ele>452.159262</ele>
        <time>2022-02-25T04:24:52.301Z</time>
      </trkpt>
      <trkpt lat="36.10113" lon="32.62578">
        <ele>451.85958</ele>
        <time>2022-02-25T04:24:55.848Z</time>
      </trkpt>
      <trkpt lat="36.10097" lon="32.62551">
        <ele>451.427326</ele>
        <time>2022-02-25T04:25:00.877Z</time>
      </trkpt>
      <trkpt lat="36.0999" lon="32.62444">
        <ele>447.934208</ele>
        <time>2022-02-25T04:25:28.117Z</time>
      </trkpt>
      <trkpt lat="36.09957" lon="32.62377">
        <ele>446.597309</ele>
        <time>2022-02-25T04:25:41.982Z</time>
      </trkpt>
      <trkpt lat="36.09938" lon="32.62354">
        <ele>446.406295</ele>
        <time>2022-02-25T04:25:48.132Z</time>
      </trkpt>
      <trkpt lat="36.09813" lon="32.62303">
        <ele>445.462928</ele>
        <time>2022-02-25T04:26:21.336Z</time>
      </trkpt>
      <trkpt lat="36.09789" lon="32.62266">
        <ele>444.988839</ele>
        <time>2022-02-25T04:26:30.961Z</time>
      </trkpt>
      <trkpt lat="36.09775" lon="32.62231">
        <ele>444.587934</ele>
        <time>2022-02-25T04:26:38.180Z</time>
      </trkpt>
      <trkpt lat="36.09761" lon="32.62217">
        <ele>444.343568</ele>
        <time>2022-02-25T04:26:42.486Z</time>
      </trkpt>
      <trkpt lat="36.09738" lon="32.62205">
        <ele>444.01973</ele>
        <time>2022-02-25T04:26:48.018Z</time>
      </trkpt>
      <trkpt lat="36.0972" lon="32.62182">
        <ele>443.681677</ele>
        <time>2022-02-25T04:26:53.688Z</time>
      </trkpt>
      <trkpt lat="36.09721" lon="32.62122">
        <ele>443.0166</ele>
        <time>2022-02-25T04:27:04.081Z</time>
      </trkpt>
      <trkpt lat="36.09709" lon="32.62099">
        <ele>442.479045</ele>
        <time>2022-02-25T04:27:08.727Z</time>
      </trkpt>
      <trkpt lat="36.09593" lon="32.62081">
        <ele>439.6745</ele>
        <time>2022-02-25T04:27:31.924Z</time>
      </trkpt>
      <trkpt lat="36.0957" lon="32.62069">
        <ele>439.073592</ele>
        <time>2022-02-25T04:27:37.044Z</time>
      </trkpt>
      <trkpt lat="36.0954" lon="32.62042">
        <ele>438.494059</ele>
        <time>2022-02-25T04:27:45.053Z</time>
      </trkpt>
      <trkpt lat="36.09528" lon="32.62022">
        <ele>438.281871</ele>
        <time>2022-02-25T04:27:49.510Z</time>
      </trkpt>
      <trkpt lat="36.09517" lon="32.6198">
        <ele>437.901933</ele>
        <time>2022-02-25T04:27:57.785Z</time>
      </trkpt>
      <trkpt lat="36.09516" lon="32.61956">
        <ele>437.692836</ele>
        <time>2022-02-25T04:28:02.428Z</time>
      </trkpt>
      <trkpt lat="36.09525" lon="32.61872">
        <ele>436.96493</ele>
        <time>2022-02-25T04:28:18.729Z</time>
      </trkpt>
      <trkpt lat="36.09523" lon="32.61854">
        <ele>436.81586</ele>
        <time>2022-02-25T04:28:22.510Z</time>
      </trkpt>
      <trkpt lat="36.09502" lon="32.61796">
        <ele>436.489733</ele>
        <time>2022-02-25T04:28:35.536Z</time>
      </trkpt>
      <trkpt lat="36.09501" lon="32.61773">
        <ele>436.373936</ele>
        <time>2022-02-25T04:28:40.380Z</time>
      </trkpt>
      <trkpt lat="36.09508" lon="32.61726">
        <ele>436.125522</ele>
        <time>2022-02-25T04:28:50.430Z</time>
      </trkpt>
      <trkpt lat="36.09504" lon="32.61699">
        <ele>435.984669</ele>
        <time>2022-02-25T04:28:55.792Z</time>
      </trkpt>
      <trkpt lat="36.09472" lon="32.61665">
        <ele>435.718798</ele>
        <time>2022-02-25T04:29:05.559Z</time>
      </trkpt>
      <trkpt lat="36.09314" lon="32.61568">
        <ele>432.369552</ele>
        <time>2022-02-25T04:29:43.235Z</time>
      </trkpt>
      <trkpt lat="36.09302" lon="32.61557">
        <ele>431.978988</ele>
        <time>2022-02-25T04:29:46.184Z</time>
      </trkpt>
      <trkpt lat="36.09285" lon="32.61527">
        <ele>430.954407</ele>
        <time>2022-02-25T04:29:52.227Z</time>
      </trkpt>
      <trkpt lat="36.09276" lon="32.61449">
        <ele>428.787902</ele>
        <time>2022-02-25T04:30:04.633Z</time>
      </trkpt>
      <trkpt lat="36.09273" lon="32.61375">
        <ele>426.711536</ele>
        <time>2022-02-25T04:30:16.025Z</time>
      </trkpt>
      <trkpt lat="36.09279" lon="32.61333">
        <ele>425.0981</ele>
        <time>2022-02-25T04:30:22.253Z</time>
      </trkpt>
      <trkpt lat="36.09295" lon="32.61308">
        <ele>423.386432</ele>
        <time>2022-02-25T04:30:27.086Z</time>
      </trkpt>
      <trkpt lat="36.09335" lon="32.61276">
        <ele>420.281224</ele>
        <time>2022-02-25T04:30:35.557Z</time>
      </trkpt>
      <trkpt lat="36.09424" lon="32.61228">
        <ele>413.785547</ele>
        <time>2022-02-25T04:30:51.965Z</time>
      </trkpt>
      <trkpt lat="36.09489" lon="32.61138">
        <ele>403.925521</ele>
        <time>2022-02-25T04:31:07.997Z</time>
      </trkpt>
      <trkpt lat="36.09493" lon="32.61099">
        <ele>400.725011</ele>
        <time>2022-02-25T04:31:13.129Z</time>
      </trkpt>
      <trkpt lat="36.09473" lon="32.61021">
        <ele>393.664913</ele>
        <time>2022-02-25T04:31:23.768Z</time>
      </trkpt>
      <trkpt lat="36.0948" lon="32.60967">
        <ele>388.470587</ele>
        <time>2022-02-25T04:31:30.836Z</time>
      </trkpt>
      <trkpt lat="36.09491" lon="32.60939">
        <ele>385.457486</ele>
        <time>2022-02-25T04:31:34.928Z</time>
      </trkpt>
      <trkpt lat="36.09552" lon="32.60874">
        <ele>375.999291</ele>
        <time>2022-02-25T04:31:47.730Z</time>
      </trkpt>
      <trkpt lat="36.09567" lon="32.6085">
        <ele>373.115857</ele>
        <time>2022-02-25T04:31:51.688Z</time>
      </trkpt>
      <trkpt lat="36.09564" lon="32.60818">
        <ele>370.052819</ele>
        <time>2022-02-25T04:31:55.915Z</time>
      </trkpt>
      <trkpt lat="36.09546" lon="32.60783">
        <ele>366.256161</ele>
        <time>2022-02-25T04:32:01.135Z</time>
      </trkpt>
      <trkpt lat="36.09505" lon="32.60722">
        <ele>358.855026</ele>
        <time>2022-02-25T04:32:11.371Z</time>
      </trkpt>
      <trkpt lat="36.09404" lon="32.60657">
        <ele>352.079392</ele>
        <time>2022-02-25T04:32:30.448Z</time>
      </trkpt>
      <trkpt lat="36.09373" lon="32.60627">
        <ele>350.893965</ele>
        <time>2022-02-25T04:32:38.420Z</time>
      </trkpt>
      <trkpt lat="36.0936" lon="32.60609">
        <ele>350.301461</ele>
        <time>2022-02-25T04:32:43.795Z</time>
      </trkpt>
      <trkpt lat="36.09356" lon="32.60591">
        <ele>349.825352</ele>
        <time>2022-02-25T04:32:48.596Z</time>
      </trkpt>
      <trkpt lat="36.09358" lon="32.60571">
        <ele>349.329331</ele>
        <time>2022-02-25T04:32:54.793Z</time>
      </trkpt>
      <trkpt lat="36.09374" lon="32.6054">
        <ele>349.42048</ele>
        <time>2022-02-25T04:33:07.559Z</time>
      </trkpt>
      <trkpt lat="36.09402" lon="32.60521">
        <ele>350.744442</ele>
        <time>2022-02-25T04:33:24.927Z</time>
      </trkpt>
      <trkpt lat="36.09443" lon="32.60472">
        <ele>353.024771</ele>
        <time>2022-02-25T04:33:57.925Z</time>
      </trkpt>
      <trkpt lat="36.09529" lon="32.60402">
        <ele>354.938086</ele>
        <time>2022-02-25T04:34:43.477Z</time>
      </trkpt>
      <trkpt lat="36.09541" lon="32.60387">
        <ele>354.139935</ele>
        <time>2022-02-25T04:34:47.473Z</time>
      </trkpt>
      <trkpt lat="36.09575" lon="32.60322">
        <ele>351.243072</ele>
        <time>2022-02-25T04:34:59.109Z</time>
      </trkpt>
      <trkpt lat="36.09614" lon="32.60289">
        <ele>349.034002</ele>
        <time>2022-02-25T04:35:07.107Z</time>
      </trkpt>
      <trkpt lat="36.09619" lon="32.60275">
        <ele>348.448834</ele>
        <time>2022-02-25T04:35:09.151Z</time>
      </trkpt>
      <trkpt lat="36.09618" lon="32.60252">
        <ele>347.237746</ele>
        <time>2022-02-25T04:35:12.202Z</time>
      </trkpt>
      <trkpt lat="36.096" lon="32.6019">
        <ele>340.832615</ele>
        <time>2022-02-25T04:35:20.645Z</time>
      </trkpt>
      <trkpt lat="36.09586" lon="32.6016">
        <ele>337.459476</ele>
        <time>2022-02-25T04:35:25.066Z</time>
      </trkpt>
      <trkpt lat="36.09574" lon="32.60146">
        <ele>335.414164</ele>
        <time>2022-02-25T04:35:27.736Z</time>
      </trkpt>
      <trkpt lat="36.09532" lon="32.60133">
        <ele>330.22596</ele>
        <time>2022-02-25T04:35:34.554Z</time>
      </trkpt>
      <trkpt lat="36.09497" lon="32.60103">
        <ele>325.506071</ele>
        <time>2022-02-25T04:35:41.367Z</time>
      </trkpt>
      <trkpt lat="36.09487" lon="32.60081">
        <ele>324.02633</ele>
        <time>2022-02-25T04:35:44.609Z</time>
      </trkpt>
      <trkpt lat="36.09476" lon="32.60026">
        <ele>320.639695</ele>
        <time>2022-02-25T04:35:52.209Z</time>
      </trkpt>
      <trkpt lat="36.09463" lon="32.60007">
        <ele>319.140551</ele>
        <time>2022-02-25T04:35:55.617Z</time>
      </trkpt>
      <trkpt lat="36.09405" lon="32.59964">
        <ele>314.134649</ele>
        <time>2022-02-25T04:36:07.501Z</time>
      </trkpt>
      <trkpt lat="36.09338" lon="32.59898">
        <ele>311.485991</ele>
        <time>2022-02-25T04:36:25.531Z</time>
      </trkpt>
      <trkpt lat="36.09317" lon="32.59869">
        <ele>310.850131</ele>
        <time>2022-02-25T04:36:33.124Z</time>
      </trkpt>
      <trkpt lat="36.0931" lon="32.59846">
        <ele>310.45568</ele>
        <time>2022-02-25T04:36:37.784Z</time>
      </trkpt>
      <trkpt lat="36.09302" lon="32.59795">
        <ele>309.611548</ele>
        <time>2022-02-25T04:36:47.133Z</time>
      </trkpt>
      <trkpt lat="36.09301" lon="32.59766">
        <ele>308.977072</ele>
        <time>2022-02-25T04:36:52.418Z</time>
      </trkpt>
      <trkpt lat="36.09305" lon="32.59744">
        <ele>308.076914</ele>
        <time>2022-02-25T04:36:55.845Z</time>
      </trkpt>
      <trkpt lat="36.09312" lon="32.59732">
        <ele>307.476479</ele>
        <time>2022-02-25T04:36:58.630Z</time>
      </trkpt>
      <trkpt lat="36.09349" lon="32.59689">
        <ele>304.932351</ele>
        <time>2022-02-25T04:37:08.116Z</time>
      </trkpt>
      <trkpt lat="36.09378" lon="32.59648">
        <ele>302.72124</ele>
        <time>2022-02-25T04:37:16.064Z</time>
      </trkpt>
      <trkpt lat="36.09437" lon="32.59594">
        <ele>298.05985</ele>
        <time>2022-02-25T04:37:28.420Z</time>
      </trkpt>
      <trkpt lat="36.09483" lon="32.59432">
        <ele>285.023742</ele>
        <time>2022-02-25T04:37:51.055Z</time>
      </trkpt>
      <trkpt lat="36.09523" lon="32.5936">
        <ele>279.15597</ele>
        <time>2022-02-25T04:38:02.635Z</time>
      </trkpt>
      <trkpt lat="36.09535" lon="32.59325">
        <ele>276.679833</ele>
        <time>2022-02-25T04:38:07.761Z</time>
      </trkpt>
      <trkpt lat="36.0956" lon="32.59128">
        <ele>266.040277</ele>
        <time>2022-02-25T04:38:35.532Z</time>
      </trkpt>
      <trkpt lat="36.09565" lon="32.59111">
        <ele>265.397999</ele>
        <time>2022-02-25T04:38:38.212Z</time>
      </trkpt>
      <trkpt lat="36.09604" lon="32.5905">
        <ele>262.585853</ele>
        <time>2022-02-25T04:38:50.378Z</time>
      </trkpt>
      <trkpt lat="36.09608" lon="32.59035">
        <ele>262.020923</ele>
        <time>2022-02-25T04:38:52.894Z</time>
      </trkpt>
      <trkpt lat="36.09609" lon="32.58957">
        <ele>259.555946</ele>
        <time>2022-02-25T04:39:05.923Z</time>
      </trkpt>
      <trkpt lat="36.09617" lon="32.58928">
        <ele>258.680329</ele>
        <time>2022-02-25T04:39:11.356Z</time>
      </trkpt>
      <trkpt lat="36.09732" lon="32.58812">
        <ele>251.706731</ele>
        <time>2022-02-25T04:39:39.528Z</time>
      </trkpt>
      <trkpt lat="36.09744" lon="32.58805">
        <ele>250.498843</ele>
        <time>2022-02-25T04:39:41.786Z</time>
      </trkpt>
      <trkpt lat="36.09794" lon="32.58791">
        <ele>245.817806</ele>
        <time>2022-02-25T04:39:50.249Z</time>
      </trkpt>
      <trkpt lat="36.09809" lon="32.58772">
        <ele>243.833055</ele>
        <time>2022-02-25T04:39:53.782Z</time>
      </trkpt>
      <trkpt lat="36.09814" lon="32.58746">
        <ele>241.867479</ele>
        <time>2022-02-25T04:39:57.237Z</time>
      </trkpt>
      <trkpt lat="36.09811" lon="32.58696">
        <ele>238.190771</ele>
        <time>2022-02-25T04:40:03.663Z</time>
      </trkpt>
      <trkpt lat="36.0979" lon="32.58622">
        <ele>231.905413</ele>
        <time>2022-02-25T04:40:13.766Z</time>
      </trkpt>
      <trkpt lat="36.09773" lon="32.58585">
        <ele>228.482558</ele>
        <time>2022-02-25T04:40:19.327Z</time>
      </trkpt>
      <trkpt lat="36.0973" lon="32.58523">
        <ele>221.996416</ele>
        <time>2022-02-25T04:40:30.206Z</time>
      </trkpt>
      <trkpt lat="36.09707" lon="32.58458">
        <ele>220.058677</ele>
        <time>2022-02-25T04:40:40.706Z</time>
      </trkpt>
      <trkpt lat="36.09678" lon="32.58399">
        <ele>219.587736</ele>
        <time>2022-02-25T04:40:53.166Z</time>
      </trkpt>
      <trkpt lat="36.0967" lon="32.58368">
        <ele>219.360905</ele>
        <time>2022-02-25T04:41:01.273Z</time>
      </trkpt>
      <trkpt lat="36.0967" lon="32.58348">
        <ele>219.223522</ele>
        <time>2022-02-25T04:41:07.136Z</time>
      </trkpt>
      <trkpt lat="36.09673" lon="32.58328">
        <ele>219.087414</ele>
        <time>2022-02-25T04:41:13.403Z</time>
      </trkpt>
      <trkpt lat="36.09678" lon="32.58307">
        <ele>218.93606</ele>
        <time>2022-02-25T04:41:20.811Z</time>
      </trkpt>
      <trkpt lat="36.09704" lon="32.58229">
        <ele>220.652753</ele>
        <time>2022-02-25T04:41:52.052Z</time>
      </trkpt>
      <trkpt lat="36.0971" lon="32.58219">
        <ele>220.933302</ele>
        <time>2022-02-25T04:41:56.816Z</time>
      </trkpt>
      <trkpt lat="36.09725" lon="32.58213">
        <ele>221.390158</ele>
        <time>2022-02-25T04:42:04.679Z</time>
      </trkpt>
      <trkpt lat="36.09748" lon="32.58226">
        <ele>222.087128</ele>
        <time>2022-02-25T04:42:17.399Z</time>
      </trkpt>
      <trkpt lat="36.09794" lon="32.58287">
        <ele>223.962507</ele>
        <time>2022-02-25T04:42:42.345Z</time>
      </trkpt>
      <trkpt lat="36.09836" lon="32.58319">
        <ele>221.529628</ele>
        <time>2022-02-25T04:42:53.316Z</time>
      </trkpt>
      <trkpt lat="36.0986" lon="32.58345">
        <ele>219.943504</ele>
        <time>2022-02-25T04:42:59.475Z</time>
      </trkpt>
      <trkpt lat="36.09873" lon="32.58356">
        <ele>219.159165</ele>
        <time>2022-02-25T04:43:02.227Z</time>
      </trkpt>
      <trkpt lat="36.09894" lon="32.58373">
        <ele>217.907971</ele>
        <time>2022-02-25T04:43:06.715Z</time>
      </trkpt>
      <trkpt lat="36.0999" lon="32.58414">
        <ele>210.232474</ele>
        <time>2022-02-25T04:43:23.380Z</time>
      </trkpt>
      <trkpt lat="36.10004" lon="32.58405">
        <ele>208.517236</ele>
        <time>2022-02-25T04:43:25.834Z</time>
      </trkpt>
      <trkpt lat="36.1003" lon="32.58327">
        <ele>200.96167</ele>
        <time>2022-02-25T04:43:36.812Z</time>
      </trkpt>
      <trkpt lat="36.10043" lon="32.58308">
        <ele>198.788786</ele>
        <time>2022-02-25T04:43:39.909Z</time>
      </trkpt>
      <trkpt lat="36.10059" lon="32.58304">
        <ele>196.971555</ele>
        <time>2022-02-25T04:43:42.596Z</time>
      </trkpt>
      <trkpt lat="36.10135" lon="32.58317">
        <ele>189.230288</ele>
        <time>2022-02-25T04:43:55.065Z</time>
      </trkpt>
      <trkpt lat="36.10166" lon="32.58331">
        <ele>186.002059</ele>
        <time>2022-02-25T04:44:00.522Z</time>
      </trkpt>
      <trkpt lat="36.10175" lon="32.58334">
        <ele>185.05297</ele>
        <time>2022-02-25T04:44:02.047Z</time>
      </trkpt>
      <trkpt lat="36.10188" lon="32.5833">
        <ele>183.817745</ele>
        <time>2022-02-25T04:44:04.221Z</time>
      </trkpt>
      <trkpt lat="36.10264" lon="32.58254">
        <ele>174.460621</ele>
        <time>2022-02-25T04:44:20.479Z</time>
      </trkpt>
      <trkpt lat="36.1028" lon="32.58251">
        <ele>172.989648</ele>
        <time>2022-02-25T04:44:23.250Z</time>
      </trkpt>
      <trkpt lat="36.10319" lon="32.5826">
        <ele>169.367</ele>
        <time>2022-02-25T04:44:29.774Z</time>
      </trkpt>
      <trkpt lat="36.10403" lon="32.58209">
        <ele>160.715356</ele>
        <time>2022-02-25T04:44:45.229Z</time>
      </trkpt>
      <trkpt lat="36.10443" lon="32.58217">
        <ele>155.99716</ele>
        <time>2022-02-25T04:44:51.750Z</time>
      </trkpt>
      <trkpt lat="36.10455" lon="32.58209">
        <ele>154.411515</ele>
        <time>2022-02-25T04:44:53.925Z</time>
      </trkpt>
      <trkpt lat="36.10459" lon="32.58198">
        <ele>153.200969</ele>
        <time>2022-02-25T04:44:55.575Z</time>
      </trkpt>
      <trkpt lat="36.1046" lon="32.58133">
        <ele>147.029174</ele>
        <time>2022-02-25T04:45:03.936Z</time>
      </trkpt>
      <trkpt lat="36.10469" lon="32.58072">
        <ele>141.184755</ele>
        <time>2022-02-25T04:45:11.796Z</time>
      </trkpt>
      <trkpt lat="36.10479" lon="32.58052">
        <ele>138.779246</ele>
        <time>2022-02-25T04:45:14.841Z</time>
      </trkpt>
      <trkpt lat="36.10516" lon="32.58021">
        <ele>132.905931</ele>
        <time>2022-02-25T04:45:21.846Z</time>
      </trkpt>
      <trkpt lat="36.10532" lon="32.57995">
        <ele>129.385116</ele>
        <time>2022-02-25T04:45:26.028Z</time>
      </trkpt>
      <trkpt lat="36.1054" lon="32.57964">
        <ele>125.853887</ele>
        <time>2022-02-25T04:45:30.222Z</time>
      </trkpt>
      <trkpt lat="36.1054" lon="32.57934">
        <ele>122.688337</ele>
        <time>2022-02-25T04:45:33.996Z</time>
      </trkpt>
      <trkpt lat="36.10527" lon="32.57891">
        <ele>117.826817</ele>
        <time>2022-02-25T04:45:39.779Z</time>
      </trkpt>
      <trkpt lat="36.105" lon="32.57832">
        <ele>111.431134</ele>
        <time>2022-02-25T04:45:48.563Z</time>
      </trkpt>
      <trkpt lat="36.10493" lon="32.57807">
        <ele>109.100669</ele>
        <time>2022-02-25T04:45:51.914Z</time>
      </trkpt>
      <trkpt lat="36.10504" lon="32.57727">
        <ele>101.776243</ele>
        <time>2022-02-25T04:46:02.550Z</time>
      </trkpt>
      <trkpt lat="36.10498" lon="32.57704">
        <ele>99.603267</ele>
        <time>2022-02-25T04:46:05.728Z</time>
      </trkpt>
      <trkpt lat="36.10476" lon="32.5767">
        <ele>95.812999</ele>
        <time>2022-02-25T04:46:11.488Z</time>
      </trkpt>
      <trkpt lat="36.10475" lon="32.57661">
        <ele>95.166557</ele>
        <time>2022-02-25T04:46:12.694Z</time>
      </trkpt>
      <trkpt lat="36.1048" lon="32.57639">
        <ele>93.534752</ele>
        <time>2022-02-25T04:46:15.763Z</time>
      </trkpt>
      <trkpt lat="36.10506" lon="32.57597">
        <ele>89.757328</ele>
        <time>2022-02-25T04:46:22.792Z</time>
      </trkpt>
      <trkpt lat="36.10508" lon="32.57557">
        <ele>86.917637</ele>
        <time>2022-02-25T04:46:28.102Z</time>
      </trkpt>
      <trkpt lat="36.105" lon="32.57531">
        <ele>84.907417</ele>
        <time>2022-02-25T04:46:31.848Z</time>
      </trkpt>
      <trkpt lat="36.10473" lon="32.57474">
        <ele>80.227118</ele>
        <time>2022-02-25T04:46:40.968Z</time>
      </trkpt>
      <trkpt lat="36.10471" lon="32.57459">
        <ele>79.248071</ele>
        <time>2022-02-25T04:46:42.958Z</time>
      </trkpt>
      <trkpt lat="36.10473" lon="32.57448">
        <ele>78.492296</ele>
        <time>2022-02-25T04:46:44.625Z</time>
      </trkpt>
      <trkpt lat="36.10482" lon="32.57435">
        <ele>77.423911</ele>
        <time>2022-02-25T04:46:47.050Z</time>
      </trkpt>
      <trkpt lat="36.10498" lon="32.57424">
        <ele>75.95229</ele>
        <time>2022-02-25T04:46:50.122Z</time>
      </trkpt>
      <trkpt lat="36.10504" lon="32.57412">
        <ele>75.057484</ele>
        <time>2022-02-25T04:46:52.114Z</time>
      </trkpt>
      <trkpt lat="36.10505" lon="32.57402">
        <ele>74.403056</ele>
        <time>2022-02-25T04:46:53.526Z</time>
      </trkpt>
      <trkpt lat="36.10494" lon="32.57369">
        <ele>72.059375</ele>
        <time>2022-02-25T04:46:58.430Z</time>
      </trkpt>
      <trkpt lat="36.10493" lon="32.57349">
        <ele>70.794295</ele>
        <time>2022-02-25T04:47:01.019Z</time>
      </trkpt>
      <trkpt lat="36.10516" lon="32.57304">
        <ele>67.363776</ele>
        <time>2022-02-25T04:47:08.220Z</time>
      </trkpt>
      <trkpt lat="36.10514" lon="32.57251">
        <ele>63.688503</ele>
        <time>2022-02-25T04:47:15.480Z</time>
      </trkpt>
      <trkpt lat="36.10519" lon="32.57223">
        <ele>61.582465</ele>
        <time>2022-02-25T04:47:19.351Z</time>
      </trkpt>
      <trkpt lat="36.10533" lon="32.57197">
        <ele>59.314161</ele>
        <time>2022-02-25T04:47:23.516Z</time>
      </trkpt>
      <trkpt lat="36.1054" lon="32.57176">
        <ele>57.663725</ele>
        <time>2022-02-25T04:47:26.556Z</time>
      </trkpt>
      <trkpt lat="36.1054" lon="32.5715">
        <ele>55.782419</ele>
        <time>2022-02-25T04:47:30.012Z</time>
      </trkpt>
      <trkpt lat="36.10532" lon="32.57096">
        <ele>51.809479</ele>
        <time>2022-02-25T04:47:37.262Z</time>
      </trkpt>
      <trkpt lat="36.10524" lon="32.57043">
        <ele>48.150102</ele>
        <time>2022-02-25T04:47:44.417Z</time>
      </trkpt>
      <trkpt lat="36.10517" lon="32.5695">
        <ele>42.306682</ele>
        <time>2022-02-25T04:47:56.997Z</time>
      </trkpt>
      <trkpt lat="36.10521" lon="32.56897">
        <ele>38.940663</ele>
        <time>2022-02-25T04:48:04.285Z</time>
      </trkpt>
      <trkpt lat="36.10553" lon="32.56771">
        <ele>32.292054</ele>
        <time>2022-02-25T04:48:23.211Z</time>
      </trkpt>
      <trkpt lat="36.10565" lon="32.56732">
        <ele>30.519269</ele>
        <time>2022-02-25T04:48:29.278Z</time>
      </trkpt>
      <trkpt lat="36.10583" lon="32.56696">
        <ele>28.670104</ele>
        <time>2022-02-25T04:48:35.695Z</time>
      </trkpt>
      <trkpt lat="36.10625" lon="32.56628">
        <ele>25.102076</ele>
        <time>2022-02-25T04:48:48.204Z</time>
      </trkpt>
      <trkpt lat="36.10693" lon="32.56544">
        <ele>20.19143</ele>
        <time>2022-02-25T04:49:05.454Z</time>
      </trkpt>
      <trkpt lat="36.10709" lon="32.56506">
        <ele>18.429363</ele>
        <time>2022-02-25T04:49:11.702Z</time>
      </trkpt>
      <trkpt lat="36.10714" lon="32.56481">
        <ele>17.362818</ele>
        <time>2022-02-25T04:49:15.421Z</time>
      </trkpt>
      <trkpt lat="36.10724" lon="32.56404">
        <ele>15.681077</ele>
        <time>2022-02-25T04:49:27.141Z</time>
      </trkpt>
      <trkpt lat="36.10734" lon="32.5635">
        <ele>14.537034</ele>
        <time>2022-02-25T04:49:35.893Z</time>
      </trkpt>
      <trkpt lat="36.10747" lon="32.56267">
        <ele>12.779142</ele>
        <time>2022-02-25T04:49:51.029Z</time>
      </trkpt>
      <trkpt lat="36.10747" lon="32.56252">
        <ele>12.686835</ele>
        <time>2022-02-25T04:49:54.136Z</time>
      </trkpt>
      <trkpt lat="36.10747" lon="32.56236">
        <ele>12.95717</ele>
        <time>2022-02-25T04:49:57.658Z</time>
      </trkpt>
      <trkpt lat="36.10747" lon="32.56228">
        <ele>13.076924</ele>
        <time>2022-02-25T04:50:00.066Z</time>
      </trkpt>
      <trkpt lat="36.10742" lon="32.56186">
        <ele>13.766514</ele>
        <time>2022-02-25T04:50:11.919Z</time>
      </trkpt>
      <trkpt lat="36.10732" lon="32.56144">
        <ele>14.475172</ele>
        <time>2022-02-25T04:50:25.516Z</time>
      </trkpt>
      <trkpt lat="36.1071" lon="32.56093">
        <ele>15.41207</ele>
        <time>2022-02-25T04:50:44.409Z</time>
      </trkpt>
      <trkpt lat="36.10692" lon="32.56068">
        <ele>15.952149</ele>
        <time>2022-02-25T04:50:56.022Z</time>
      </trkpt>
      <trkpt lat="36.10642" lon="32.56019">
        <ele>17.717324</ele>
        <time>2022-02-25T04:51:22.289Z</time>
      </trkpt>
      <trkpt lat="36.10612" lon="32.55993">
        <ele>18.801535</ele>
        <time>2022-02-25T04:51:37.233Z</time>
      </trkpt>
      <trkpt lat="36.10595" lon="32.55985">
        <ele>19.33536</ele>
        <time>2022-02-25T04:51:44.286Z</time>
      </trkpt>
      <trkpt lat="36.10579" lon="32.55977">
        <ele>19.84738</ele>
        <time>2022-02-25T04:51:51.616Z</time>
      </trkpt>
      <trkpt lat="36.10444" lon="32.55935">
        <ele>24.720656</ele>
        <time>2022-02-25T04:52:48.419Z</time>
      </trkpt>
      <trkpt lat="36.10393" lon="32.55907">
        <ele>26.868495</ele>
        <time>2022-02-25T04:53:12.042Z</time>
      </trkpt>
      <trkpt lat="36.10339" lon="32.55868">
        <ele>30.00474</ele>
        <time>2022-02-25T04:53:46.325Z</time>
      </trkpt>
      <trkpt lat="36.10309" lon="32.55813">
        <ele>33.892129</ele>
        <time>2022-02-25T04:54:17.362Z</time>
      </trkpt>
      <trkpt lat="36.10301" lon="32.55777">
        <ele>36.05455</ele>
        <time>2022-02-25T04:54:35.567Z</time>
      </trkpt>
      <trkpt lat="36.10297" lon="32.55756">
        <ele>37.370123</ele>
        <time>2022-02-25T04:54:48.080Z</time>
      </trkpt>
      <trkpt lat="36.10279" lon="32.55563">
        <ele>49.796052</ele>
        <time>2022-02-25T04:56:34.102Z</time>
      </trkpt>
      <trkpt lat="36.10282" lon="32.55465">
        <ele>56.405188</ele>
        <time>2022-02-25T04:57:24.897Z</time>
      </trkpt>
      <trkpt lat="36.10284" lon="32.55453">
        <ele>57.26933</ele>
        <time>2022-02-25T04:57:32.309Z</time>
      </trkpt>
      <trkpt lat="36.1029" lon="32.55391">
        <ele>61.830179</ele>
        <time>2022-02-25T04:58:06.281Z</time>
      </trkpt>
      <trkpt lat="36.10286" lon="32.55331">
        <ele>66.184774</ele>
        <time>2022-02-25T04:58:39.623Z</time>
      </trkpt>
      <trkpt lat="36.10278" lon="32.55307">
        <ele>68.03285</ele>
        <time>2022-02-25T04:58:54.187Z</time>
      </trkpt>
      <trkpt lat="36.10275" lon="32.55297">
        <ele>68.871072</ele>
        <time>2022-02-25T04:59:01.795Z</time>
      </trkpt>
      <trkpt lat="36.10245" lon="32.55232">
        <ele>74.631811</ele>
        <time>2022-02-25T04:59:45.326Z</time>
      </trkpt>
      <trkpt lat="36.10236" lon="32.55199">
        <ele>77.579866</ele>
        <time>2022-02-25T05:00:06.392Z</time>
      </trkpt>
      <trkpt lat="36.10232" lon="32.55162">
        <ele>80.703153</ele>
        <time>2022-02-25T05:00:29.678Z</time>
      </trkpt>
      <trkpt lat="36.10232" lon="32.55085">
        <ele>87.255597</ele>
        <time>2022-02-25T05:01:18.171Z</time>
      </trkpt>
      <trkpt lat="36.10238" lon="32.55017">
        <ele>93.358376</ele>
        <time>2022-02-25T05:02:00.117Z</time>
      </trkpt>
      <trkpt lat="36.10245" lon="32.54975">
        <ele>97.522583</ele>
        <time>2022-02-25T05:02:30.790Z</time>
      </trkpt>
      <trkpt lat="36.1027" lon="32.5489">
        <ele>106.433268</ele>
        <time>2022-02-25T05:03:38.157Z</time>
      </trkpt>
      <trkpt lat="36.10272" lon="32.54868">
        <ele>108.626045</ele>
        <time>2022-02-25T05:03:52.149Z</time>
      </trkpt>
      <trkpt lat="36.10269" lon="32.54848">
        <ele>110.630381</ele>
        <time>2022-02-25T05:04:07.748Z</time>
      </trkpt>
      <trkpt lat="36.10259" lon="32.54834">
        <ele>112.434669</ele>
        <time>2022-02-25T05:04:18.775Z</time>
      </trkpt>
      <trkpt lat="36.10246" lon="32.54826">
        <ele>113.937256</ele>
        <time>2022-02-25T05:04:30.222Z</time>
      </trkpt>
      <trkpt lat="36.10236" lon="32.54826">
        <ele>114.668202</ele>
        <time>2022-02-25T05:04:41.056Z</time>
      </trkpt>
      <trkpt lat="36.10166" lon="32.5482">
        <ele>119.815464</ele>
        <time>2022-02-25T05:05:32.400Z</time>
      </trkpt>
      <trkpt lat="36.10149" lon="32.54825">
        <ele>121.036665</ele>
        <time>2022-02-25T05:05:41.101Z</time>
      </trkpt>
      <trkpt lat="36.10134" lon="32.54839">
        <ele>122.402104</ele>
        <time>2022-02-25T05:05:54.389Z</time>
      </trkpt>
      <trkpt lat="36.10117" lon="32.5496">
        <ele>127.322846</ele>
        <time>2022-02-25T05:06:34.798Z</time>
      </trkpt>
      <trkpt lat="36.10109" lon="32.54982">
        <ele>127.656515</ele>
        <time>2022-02-25T05:06:39.758Z</time>
      </trkpt>
      <trkpt lat="36.10093" lon="32.55005">
        <ele>128.06807</ele>
        <time>2022-02-25T05:06:45.980Z</time>
      </trkpt>
      <trkpt lat="36.10014" lon="32.55073">
        <ele>129.836496</ele>
        <time>2022-02-25T05:07:15.744Z</time>
      </trkpt>
      <trkpt lat="36.09999" lon="32.55079">
        <ele>130.836863</ele>
        <time>2022-02-25T05:07:22.185Z</time>
      </trkpt>
      <trkpt lat="36.09983" lon="32.55077">
        <ele>131.90833</ele>
        <time>2022-02-25T05:07:29.167Z</time>
      </trkpt>
      <trkpt lat="36.09973" lon="32.55059">
        <ele>133.099801</ele>
        <time>2022-02-25T05:07:38.876Z</time>
      </trkpt>
      <trkpt lat="36.09974" lon="32.55049">
        <ele>133.630331</ele>
        <time>2022-02-25T05:07:43.405Z</time>
      </trkpt>
      <trkpt lat="36.09981" lon="32.55042">
        <ele>134.219611</ele>
        <time>2022-02-25T05:07:48.229Z</time>
      </trkpt>
      <trkpt lat="36.10016" lon="32.55034">
        <ele>136.588699</ele>
        <time>2022-02-25T05:08:11.160Z</time>
      </trkpt>
      <trkpt lat="36.10031" lon="32.55022">
        <ele>137.782233</ele>
        <time>2022-02-25T05:08:23.931Z</time>
      </trkpt>
      <trkpt lat="36.10051" lon="32.55002">
        <ele>139.502156</ele>
        <time>2022-02-25T05:08:42.041Z</time>
      </trkpt>
      <trkpt lat="36.10069" lon="32.54973">
        <ele>141.426106</ele>
        <time>2022-02-25T05:09:02.626Z</time>
      </trkpt>
      <trkpt lat="36.10079" lon="32.54943">
        <ele>143.107163</ele>
        <time>2022-02-25T05:09:21.082Z</time>
      </trkpt>
      <trkpt lat="36.10081" lon="32.54916">
        <ele>144.553228</ele>
        <time>2022-02-25T05:09:36.331Z</time>
      </trkpt>
      <trkpt lat="36.10074" lon="32.54876">
        <ele>146.735193</ele>
        <time>2022-02-25T05:09:57.880Z</time>
      </trkpt>
      <trkpt lat="36.10056" lon="32.54836">
        <ele>149.128549</ele>
        <time>2022-02-25T05:10:19.553Z</time>
      </trkpt>
      <trkpt lat="36.10037" lon="32.54839">
        <ele>150.383285</ele>
        <time>2022-02-25T05:10:29.772Z</time>
      </trkpt>
      <trkpt lat="36.10031" lon="32.54852">
        <ele>151.216941</ele>
        <time>2022-02-25T05:10:36.126Z</time>
      </trkpt>
      <trkpt lat="36.10038" lon="32.54941">
        <ele>155.000336</ele>
        <time>2022-02-25T05:11:06.685Z</time>
      </trkpt>
      <trkpt lat="36.10034" lon="32.54973">
        <ele>156.064348</ele>
        <time>2022-02-25T05:11:16.624Z</time>
      </trkpt>
      <trkpt lat="36.10021" lon="32.54987">
        <ele>156.776433</ele>
        <time>2022-02-25T05:11:23.293Z</time>
      </trkpt>
      <trkpt lat="36.10009" lon="32.54992">
        <ele>157.316136</ele>
        <time>2022-02-25T05:11:28.709Z</time>
      </trkpt>
      <trkpt lat="36.09992" lon="32.54989">
        <ele>158.032536</ele>
        <time>2022-02-25T05:11:35.619Z</time>
      </trkpt>
      <trkpt lat="36.09966" lon="32.54965">
        <ele>159.386787</ele>
        <time>2022-02-25T05:11:51.375Z</time>
      </trkpt>
      <trkpt lat="36.09917" lon="32.54829">
        <ele>165.052192</ele>
        <time>2022-02-25T05:13:01.607Z</time>
      </trkpt>
      <trkpt lat="36.09905" lon="32.5481">
        <ele>166.048212</ele>
        <time>2022-02-25T05:13:13.615Z</time>
      </trkpt>
      <trkpt lat="36.0989" lon="32.54798">
        <ele>166.920129</ele>
        <time>2022-02-25T05:13:23.949Z</time>
      </trkpt>
      <trkpt lat="36.09869" lon="32.54794">
        <ele>167.9802</ele>
        <time>2022-02-25T05:13:35.947Z</time>
      </trkpt>
      <trkpt lat="36.09847" lon="32.54801">
        <ele>169.105853</ele>
        <time>2022-02-25T05:13:46.676Z</time>
      </trkpt>
      <trkpt lat="36.09743" lon="32.5487">
        <ele>165.873992</ele>
        <time>2022-02-25T05:14:12.170Z</time>
      </trkpt>
      <trkpt lat="36.0972" lon="32.54879">
        <ele>164.999898</ele>
        <time>2022-02-25T05:14:16.297Z</time>
      </trkpt>
      <trkpt lat="36.09695" lon="32.54881">
        <ele>164.071548</ele>
        <time>2022-02-25T05:14:20.535Z</time>
      </trkpt>
      <trkpt lat="36.09634" lon="32.54861">
        <ele>161.159324</ele>
        <time>2022-02-25T05:14:31.090Z</time>
      </trkpt>
      <trkpt lat="36.09607" lon="32.54843">
        <ele>159.555026</ele>
        <time>2022-02-25T05:14:36.219Z</time>
      </trkpt>
      <trkpt lat="36.09577" lon="32.5481">
        <ele>157.447497</ele>
        <time>2022-02-25T05:14:43.011Z</time>
      </trkpt>
      <trkpt lat="36.0957" lon="32.54787">
        <ele>156.405947</ele>
        <time>2022-02-25T05:14:46.546Z</time>
      </trkpt>
      <trkpt lat="36.0957" lon="32.54725">
        <ele>153.760739</ele>
        <time>2022-02-25T05:14:56.883Z</time>
      </trkpt>
      <trkpt lat="36.09592" lon="32.54668">
        <ele>156.188871</ele>
        <time>2022-02-25T05:15:16.620Z</time>
      </trkpt>
      <trkpt lat="36.09629" lon="32.54622">
        <ele>158.823987</ele>
        <time>2022-02-25T05:15:45.123Z</time>
      </trkpt>
      <trkpt lat="36.09636" lon="32.54601">
        <ele>159.764709</ele>
        <time>2022-02-25T05:15:55.938Z</time>
      </trkpt>
      <trkpt lat="36.09636" lon="32.54576">
        <ele>160.803545</ele>
        <time>2022-02-25T05:16:08.558Z</time>
      </trkpt>
      <trkpt lat="36.09625" lon="32.54532">
        <ele>162.677602</ele>
        <time>2022-02-25T05:16:32.591Z</time>
      </trkpt>
      <trkpt lat="36.09623" lon="32.54488">
        <ele>165.701312</ele>
        <time>2022-02-25T05:16:57.433Z</time>
      </trkpt>
      <trkpt lat="36.09627" lon="32.54469">
        <ele>167.07918</ele>
        <time>2022-02-25T05:17:09.243Z</time>
      </trkpt>
      <trkpt lat="36.09659" lon="32.54417">
        <ele>171.684919</ele>
        <time>2022-02-25T05:17:48.154Z</time>
      </trkpt>
      <trkpt lat="36.09691" lon="32.5433">
        <ele>178.413916</ele>
        <time>2022-02-25T05:18:40.774Z</time>
      </trkpt>
      <trkpt lat="36.09709" lon="32.5431">
        <ele>179.714592</ele>
        <time>2022-02-25T05:18:56.343Z</time>
      </trkpt>
      <trkpt lat="36.0981" lon="32.54244">
        <ele>185.750472</ele>
        <time>2022-02-25T05:19:59.737Z</time>
      </trkpt>
      <trkpt lat="36.09835" lon="32.54217">
        <ele>187.517429</ele>
        <time>2022-02-25T05:20:13.525Z</time>
      </trkpt>
      <trkpt lat="36.09853" lon="32.5419">
        <ele>187.726699</ele>
        <time>2022-02-25T05:20:22.783Z</time>
      </trkpt>
      <trkpt lat="36.09876" lon="32.54139">
        <ele>187.178805</ele>
        <time>2022-02-25T05:20:35.480Z</time>
      </trkpt>
      <trkpt lat="36.09901" lon="32.5405">
        <ele>186.309395</ele>
        <time>2022-02-25T05:20:51.192Z</time>
      </trkpt>
      <trkpt lat="36.09903" lon="32.54018">
        <ele>186.007657</ele>
        <time>2022-02-25T05:20:56.322Z</time>
      </trkpt>
      <trkpt lat="36.09892" lon="32.53943">
        <ele>185.527515</ele>
        <time>2022-02-25T05:21:08.105Z</time>
      </trkpt>
      <trkpt lat="36.09882" lon="32.53911">
        <ele>185.333249</ele>
        <time>2022-02-25T05:21:13.390Z</time>
      </trkpt>
      <trkpt lat="36.09784" lon="32.53741">
        <ele>189.076505</ele>
        <time>2022-02-25T05:22:09.150Z</time>
      </trkpt>
      <trkpt lat="36.0976" lon="32.53675">
        <ele>192.930006</ele>
        <time>2022-02-25T05:22:48.099Z</time>
      </trkpt>
      <trkpt lat="36.09756" lon="32.5365">
        <ele>194.296445</ele>
        <time>2022-02-25T05:23:03.942Z</time>
      </trkpt>
      <trkpt lat="36.09757" lon="32.5362">
        <ele>195.910969</ele>
        <time>2022-02-25T05:23:23.732Z</time>
      </trkpt>
      <trkpt lat="36.09783" lon="32.53551">
        <ele>201.936217</ele>
        <time>2022-02-25T05:24:15.111Z</time>
      </trkpt>
      <trkpt lat="36.0984" lon="32.53523">
        <ele>208.288687</ele>
        <time>2022-02-25T05:25:05.198Z</time>
      </trkpt>
      <trkpt lat="36.09855" lon="32.53503">
        <ele>210.643924</ele>
        <time>2022-02-25T05:25:22.448Z</time>
      </trkpt>
      <trkpt lat="36.09931" lon="32.53365">
        <ele>221.563921</ele>
        <time>2022-02-25T05:26:50.062Z</time>
      </trkpt>
      <trkpt lat="36.09939" lon="32.53327">
        <ele>223.79018</ele>
        <time>2022-02-25T05:27:07.375Z</time>
      </trkpt>
      <trkpt lat="36.09921" lon="32.53254">
        <ele>228.046027</ele>
        <time>2022-02-25T05:27:41.660Z</time>
      </trkpt>
      <trkpt lat="36.09921" lon="32.53214">
        <ele>229.51453</ele>
        <time>2022-02-25T05:27:59.504Z</time>
      </trkpt>
      <trkpt lat="36.0993" lon="32.53193">
        <ele>230.397288</ele>
        <time>2022-02-25T05:28:10.253Z</time>
      </trkpt>
      <trkpt lat="36.09989" lon="32.53115">
        <ele>234.385888</ele>
        <time>2022-02-25T05:28:54.611Z</time>
      </trkpt>
      <trkpt lat="36.10031" lon="32.53069">
        <ele>236.173819</ele>
        <time>2022-02-25T05:29:16.341Z</time>
      </trkpt>
      <trkpt lat="36.1004" lon="32.53049">
        <ele>236.225025</ele>
        <time>2022-02-25T05:29:22.052Z</time>
      </trkpt>
      <trkpt lat="36.10043" lon="32.53026">
        <ele>236.275867</ele>
        <time>2022-02-25T05:29:27.269Z</time>
      </trkpt>
      <trkpt lat="36.1004" lon="32.53002">
        <ele>236.329119</ele>
        <time>2022-02-25T05:29:32.319Z</time>
      </trkpt>
      <trkpt lat="36.1003" lon="32.52978">
        <ele>236.389014</ele>
        <time>2022-02-25T05:29:37.613Z</time>
      </trkpt>
      <trkpt lat="36.0997" lon="32.5289">
        <ele>237.026947</ele>
        <time>2022-02-25T05:29:59.206Z</time>
      </trkpt>
      <trkpt lat="36.09943" lon="32.52833">
        <ele>239.180072</ele>
        <time>2022-02-25T05:30:14.818Z</time>
      </trkpt>
      <trkpt lat="36.0994" lon="32.52806">
        <ele>240.084907</ele>
        <time>2022-02-25T05:30:23.819Z</time>
      </trkpt>
      <trkpt lat="36.09954" lon="32.52705">
        <ele>243.423958</ele>
        <time>2022-02-25T05:31:09.771Z</time>
      </trkpt>
      <trkpt lat="36.09924" lon="32.52605">
        <ele>252.079476</ele>
        <time>2022-02-25T05:32:13.738Z</time>
      </trkpt>
      <trkpt lat="36.09923" lon="32.52585">
        <ele>253.851541</ele>
        <time>2022-02-25T05:32:26.869Z</time>
      </trkpt>
      <trkpt lat="36.09927" lon="32.52557">
        <ele>256.371974</ele>
        <time>2022-02-25T05:32:46.417Z</time>
      </trkpt>
      <trkpt lat="36.09938" lon="32.52536">
        <ele>258.497503</ele>
        <time>2022-02-25T05:33:03.280Z</time>
      </trkpt>
      <trkpt lat="36.09998" lon="32.52471">
        <ele>267.315276</ele>
        <time>2022-02-25T05:34:15.060Z</time>
      </trkpt>
      <trkpt lat="36.10012" lon="32.52447">
        <ele>269.910083</ele>
        <time>2022-02-25T05:34:34.904Z</time>
      </trkpt>
      <trkpt lat="36.10018" lon="32.52397">
        <ele>274.472574</ele>
        <time>2022-02-25T05:35:07.490Z</time>
      </trkpt>
      <trkpt lat="36.10001" lon="32.52335">
        <ele>280.265714</ele>
        <time>2022-02-25T05:35:46.634Z</time>
      </trkpt>
      <trkpt lat="36.09999" lon="32.52313">
        <ele>282.251952</ele>
        <time>2022-02-25T05:36:00.086Z</time>
      </trkpt>
      <trkpt lat="36.10004" lon="32.52292">
        <ele>284.009142</ele>
        <time>2022-02-25T05:36:12.901Z</time>
      </trkpt>
      <trkpt lat="36.10014" lon="32.52272">
        <ele>285.795562</ele>
        <time>2022-02-25T05:36:27.695Z</time>
      </trkpt>
      <trkpt lat="36.10032" lon="32.52253">
        <ele>287.938884</ele>
        <time>2022-02-25T05:36:45.083Z</time>
      </trkpt>
      <trkpt lat="36.10084" lon="32.52215">
        <ele>293.39019</ele>
        <time>2022-02-25T05:37:27.638Z</time>
      </trkpt>
      <trkpt lat="36.10104" lon="32.52193">
        <ele>295.866374</ele>
        <time>2022-02-25T05:37:46.022Z</time>
      </trkpt>
      <trkpt lat="36.10153" lon="32.52088">
        <ele>303.966126</ele>
        <time>2022-02-25T05:38:50.847Z</time>
      </trkpt>
      <trkpt lat="36.10215" lon="32.52002">
        <ele>311.195209</ele>
        <time>2022-02-25T05:39:52.161Z</time>
      </trkpt>
      <trkpt lat="36.10237" lon="32.51984">
        <ele>313.279473</ele>
        <time>2022-02-25T05:40:08.187Z</time>
      </trkpt>
      <trkpt lat="36.10261" lon="32.51973">
        <ele>314.402594</ele>
        <time>2022-02-25T05:40:22.430Z</time>
      </trkpt>
      <trkpt lat="36.10282" lon="32.51972">
        <ele>315.178248</ele>
        <time>2022-02-25T05:40:33.920Z</time>
      </trkpt>
      <trkpt lat="36.10296" lon="32.51975">
        <ele>315.685111</ele>
        <time>2022-02-25T05:40:40.988Z</time>
      </trkpt>
      <trkpt lat="36.10307" lon="32.51997">
        <ele>316.454241</ele>
        <time>2022-02-25T05:40:51.355Z</time>
      </trkpt>
      <trkpt lat="36.10289" lon="32.52025">
        <ele>317.516059</ele>
        <time>2022-02-25T05:41:04.408Z</time>
      </trkpt>
      <trkpt lat="36.10206" lon="32.52103">
        <ele>320.550673</ele>
        <time>2022-02-25T05:41:39.574Z</time>
      </trkpt>
      <trkpt lat="36.10108" lon="32.52256">
        <ele>322.418685</ele>
        <time>2022-02-25T05:42:24.595Z</time>
      </trkpt>
      <trkpt lat="36.10094" lon="32.5228">
        <ele>323.678657</ele>
        <time>2022-02-25T05:42:34.255Z</time>
      </trkpt>
      <trkpt lat="36.10085" lon="32.52315">
        <ele>325.22829</ele>
        <time>2022-02-25T05:42:47.576Z</time>
      </trkpt>
      <trkpt lat="36.10095" lon="32.52335">
        <ele>326.228427</ele>
        <time>2022-02-25T05:42:56.954Z</time>
      </trkpt>
      <trkpt lat="36.10107" lon="32.52338">
        <ele>326.886132</ele>
        <time>2022-02-25T05:43:03.635Z</time>
      </trkpt>
      <trkpt lat="36.1013" lon="32.5232">
        <ele>328.325035</ele>
        <time>2022-02-25T05:43:18.996Z</time>
      </trkpt>
      <trkpt lat="36.10149" lon="32.52278">
        <ele>330.366903</ele>
        <time>2022-02-25T05:43:43.297Z</time>
      </trkpt>
      <trkpt lat="36.10172" lon="32.52245">
        <ele>332.644323</ele>
        <time>2022-02-25T05:44:07.450Z</time>
      </trkpt>
      <trkpt lat="36.1035" lon="32.52045">
        <ele>353.513702</ele>
        <time>2022-02-25T05:46:49.665Z</time>
      </trkpt>
      <trkpt lat="36.10373" lon="32.52026">
        <ele>356.109157</ele>
        <time>2022-02-25T05:47:07.537Z</time>
      </trkpt>
      <trkpt lat="36.10446" lon="32.51986">
        <ele>363.56502</ele>
        <time>2022-02-25T05:48:08.640Z</time>
      </trkpt>
      <trkpt lat="36.10471" lon="32.51953">
        <ele>368.245421</ele>
        <time>2022-02-25T05:48:38.167Z</time>
      </trkpt>
      <trkpt lat="36.10489" lon="32.51933">
        <ele>371.34392</ele>
        <time>2022-02-25T05:48:55.856Z</time>
      </trkpt>
      <trkpt lat="36.10497" lon="32.51924">
        <ele>372.667207</ele>
        <time>2022-02-25T05:49:07.612Z</time>
      </trkpt>
      <trkpt lat="36.10514" lon="32.51912">
        <ele>375.205405</ele>
        <time>2022-02-25T05:49:23.271Z</time>
      </trkpt>
      <trkpt lat="36.10531" lon="32.51908">
        <ele>377.33091</ele>
        <time>2022-02-25T05:49:40.707Z</time>
      </trkpt>
      <trkpt lat="36.10556" lon="32.51912">
        <ele>380.555233</ele>
        <time>2022-02-25T05:50:02.709Z</time>
      </trkpt>
      <trkpt lat="36.1069" lon="32.51982">
        <ele>397.937048</ele>
        <time>2022-02-25T05:52:22.373Z</time>
      </trkpt>
      <trkpt lat="36.1075" lon="32.51997">
        <ele>405.107943</ele>
        <time>2022-02-25T05:53:09.112Z</time>
      </trkpt>
      <trkpt lat="36.10926" lon="32.51992">
        <ele>416.29479</ele>
        <time>2022-02-25T05:54:43.012Z</time>
      </trkpt>
      <trkpt lat="36.10982" lon="32.51976">
        <ele>419.548273</ele>
        <time>2022-02-25T05:55:09.673Z</time>
      </trkpt>
      <trkpt lat="36.11057" lon="32.51942">
        <ele>424.098469</ele>
        <time>2022-02-25T05:55:52.504Z</time>
      </trkpt>
      <trkpt lat="36.11087" lon="32.51936">
        <ele>425.780401</ele>
        <time>2022-02-25T05:56:09.309Z</time>
      </trkpt>
      <trkpt lat="36.11111" lon="32.5194">
        <ele>427.173228</ele>
        <time>2022-02-25T05:56:23.718Z</time>
      </trkpt>
      <trkpt lat="36.11188" lon="32.51971">
        <ele>431.750901</ele>
        <time>2022-02-25T05:57:12.062Z</time>
      </trkpt>
      <trkpt lat="36.11246" lon="32.51979">
        <ele>435.032008</ele>
        <time>2022-02-25T05:57:44.756Z</time>
      </trkpt>
      <trkpt lat="36.11267" lon="32.51973">
        <ele>436.208091</ele>
        <time>2022-02-25T05:57:55.324Z</time>
      </trkpt>
      <trkpt lat="36.11291" lon="32.51961">
        <ele>437.689273</ele>
        <time>2022-02-25T05:58:07.731Z</time>
      </trkpt>
      <trkpt lat="36.11311" lon="32.51944">
        <ele>438.420791</ele>
        <time>2022-02-25T05:58:17.915Z</time>
      </trkpt>
      <trkpt lat="36.11365" lon="32.51859">
        <ele>440.860333</ele>
        <time>2022-02-25T05:58:50.283Z</time>
      </trkpt>
      <trkpt lat="36.11443" lon="32.51817">
        <ele>443.421815</ele>
        <time>2022-02-25T05:59:23.098Z</time>
      </trkpt>
      <trkpt lat="36.11456" lon="32.51801">
        <ele>444.223187</ele>
        <time>2022-02-25T05:59:30.910Z</time>
      </trkpt>
      <trkpt lat="36.11466" lon="32.51768">
        <ele>445.429218</ele>
        <time>2022-02-25T05:59:42.981Z</time>
      </trkpt>
      <trkpt lat="36.11478" lon="32.51676">
        <ele>448.658716</ele>
        <time>2022-02-25T06:00:19.082Z</time>
      </trkpt>
      <trkpt lat="36.11491" lon="32.51642">
        <ele>449.980459</ele>
        <time>2022-02-25T06:00:37.101Z</time>
      </trkpt>
      <trkpt lat="36.11509" lon="32.5161">
        <ele>451.02144</ele>
        <time>2022-02-25T06:00:55.375Z</time>
      </trkpt>
      <trkpt lat="36.11575" lon="32.51532">
        <ele>453.427743</ele>
        <time>2022-02-25T06:01:37.025Z</time>
      </trkpt>
      <trkpt lat="36.11597" lon="32.51496">
        <ele>454.378054</ele>
        <time>2022-02-25T06:01:48.404Z</time>
      </trkpt>
      <trkpt lat="36.11615" lon="32.51455">
        <ele>455.18348</ele>
        <time>2022-02-25T06:01:57.662Z</time>
      </trkpt>
      <trkpt lat="36.1163" lon="32.51381">
        <ele>453.67791</ele>
        <time>2022-02-25T06:02:10.690Z</time>
      </trkpt>
      <trkpt lat="36.1163" lon="32.5135">
        <ele>453.06095</ele>
        <time>2022-02-25T06:02:15.616Z</time>
      </trkpt>
      <trkpt lat="36.11622" lon="32.51313">
        <ele>452.304614</ele>
        <time>2022-02-25T06:02:21.355Z</time>
      </trkpt>
      <trkpt lat="36.11607" lon="32.51271">
        <ele>451.400053</ele>
        <time>2022-02-25T06:02:28.038Z</time>
      </trkpt>
      <trkpt lat="36.11514" lon="32.5111">
        <ele>451.663226</ele>
        <time>2022-02-25T06:03:07.337Z</time>
      </trkpt>
      <trkpt lat="36.115" lon="32.51072">
        <ele>451.854529</ele>
        <time>2022-02-25T06:03:22.783Z</time>
      </trkpt>
      <trkpt lat="36.11495" lon="32.5104">
        <ele>452.840909</ele>
        <time>2022-02-25T06:03:36.045Z</time>
      </trkpt>
      <trkpt lat="36.11497" lon="32.5101">
        <ele>454.070374</ele>
        <time>2022-02-25T06:03:48.951Z</time>
      </trkpt>
      <trkpt lat="36.11509" lon="32.5098">
        <ele>455.456461</ele>
        <time>2022-02-25T06:04:04.014Z</time>
      </trkpt>
      <trkpt lat="36.11525" lon="32.50954">
        <ele>456.811146</ele>
        <time>2022-02-25T06:04:18.927Z</time>
      </trkpt>
      <trkpt lat="36.11567" lon="32.50921">
        <ele>459.31437</ele>
        <time>2022-02-25T06:04:46.780Z</time>
      </trkpt>
      <trkpt lat="36.11585" lon="32.50887">
        <ele>460.99115</ele>
        <time>2022-02-25T06:05:03.194Z</time>
      </trkpt>
      <trkpt lat="36.1158" lon="32.50836">
        <ele>461.681873</ele>
        <time>2022-02-25T06:05:21.693Z</time>
      </trkpt>
      <trkpt lat="36.11602" lon="32.50759">
        <ele>462.707629</ele>
        <time>2022-02-25T06:05:46.490Z</time>
      </trkpt>
      <trkpt lat="36.11602" lon="32.50733">
        <ele>463.033748</ele>
        <time>2022-02-25T06:05:52.689Z</time>
      </trkpt>
      <trkpt lat="36.11588" lon="32.50708">
        <ele>463.414146</ele>
        <time>2022-02-25T06:05:59.136Z</time>
      </trkpt>
      <trkpt lat="36.11538" lon="32.50662">
        <ele>462.377171</ele>
        <time>2022-02-25T06:06:12.999Z</time>
      </trkpt>
      <trkpt lat="36.11521" lon="32.50632">
        <ele>461.167825</ele>
        <time>2022-02-25T06:06:18.988Z</time>
      </trkpt>
      <trkpt lat="36.11464" lon="32.50483">
        <ele>454.98628</ele>
        <time>2022-02-25T06:06:43.031Z</time>
      </trkpt>
      <trkpt lat="36.11442" lon="32.50378">
        <ele>448.080893</ele>
        <time>2022-02-25T06:06:57.451Z</time>
      </trkpt>
      <trkpt lat="36.11438" lon="32.50341">
        <ele>445.736692</ele>
        <time>2022-02-25T06:07:02.454Z</time>
      </trkpt>
      <trkpt lat="36.11439" lon="32.50323">
        <ele>444.594292</ele>
        <time>2022-02-25T06:07:04.789Z</time>
      </trkpt>
      <trkpt lat="36.1144" lon="32.50301">
        <ele>443.157969</ele>
        <time>2022-02-25T06:07:07.984Z</time>
      </trkpt>
      <trkpt lat="36.11444" lon="32.50269">
        <ele>441.762181</ele>
        <time>2022-02-25T06:07:12.466Z</time>
      </trkpt>
      <trkpt lat="36.11457" lon="32.50226">
        <ele>440.606196</ele>
        <time>2022-02-25T06:07:18.835Z</time>
      </trkpt>
      <trkpt lat="36.11472" lon="32.50197">
        <ele>439.715617</ele>
        <time>2022-02-25T06:07:23.810Z</time>
      </trkpt>
      <trkpt lat="36.11491" lon="32.50172">
        <ele>438.839602</ele>
        <time>2022-02-25T06:07:29.080Z</time>
      </trkpt>
      <trkpt lat="36.11543" lon="32.50124">
        <ele>436.77494</ele>
        <time>2022-02-25T06:07:46.467Z</time>
      </trkpt>
      <trkpt lat="36.11748" lon="32.49959">
        <ele>439.286025</ele>
        <time>2022-02-25T06:09:16.883Z</time>
      </trkpt>
      <trkpt lat="36.1177" lon="32.49933">
        <ele>438.940149</ele>
        <time>2022-02-25T06:09:25.049Z</time>
      </trkpt>
      <trkpt lat="36.11824" lon="32.49838">
        <ele>437.813655</ele>
        <time>2022-02-25T06:09:44.152Z</time>
      </trkpt>
      <trkpt lat="36.11843" lon="32.49821">
        <ele>435.740378</ele>
        <time>2022-02-25T06:09:48.433Z</time>
      </trkpt>
      <trkpt lat="36.1193" lon="32.49775">
        <ele>427.518735</ele>
        <time>2022-02-25T06:10:04.185Z</time>
      </trkpt>
      <trkpt lat="36.11949" lon="32.49757">
        <ele>425.367944</ele>
        <time>2022-02-25T06:10:08.131Z</time>
      </trkpt>
      <trkpt lat="36.11954" lon="32.49745">
        <ele>424.413605</ele>
        <time>2022-02-25T06:10:09.874Z</time>
      </trkpt>
      <trkpt lat="36.11953" lon="32.4972">
        <ele>422.682619</ele>
        <time>2022-02-25T06:10:13.000Z</time>
      </trkpt>
      <trkpt lat="36.11943" lon="32.49703">
        <ele>420.94764</ele>
        <time>2022-02-25T06:10:15.692Z</time>
      </trkpt>
      <trkpt lat="36.11879" lon="32.49623">
        <ele>411.06204</ele>
        <time>2022-02-25T06:10:30.145Z</time>
      </trkpt>
      <trkpt lat="36.11862" lon="32.49592">
        <ele>407.796055</ele>
        <time>2022-02-25T06:10:35.012Z</time>
      </trkpt>
      <trkpt lat="36.11852" lon="32.49559">
        <ele>404.726399</ele>
        <time>2022-02-25T06:10:39.695Z</time>
      </trkpt>
      <trkpt lat="36.11847" lon="32.49516">
        <ele>402.338865</ele>
        <time>2022-02-25T06:10:45.712Z</time>
      </trkpt>
      <trkpt lat="36.11845" lon="32.4948">
        <ele>401.715628</ele>
        <time>2022-02-25T06:10:50.946Z</time>
      </trkpt>
      <trkpt lat="36.11852" lon="32.49438">
        <ele>400.972988</ele>
        <time>2022-02-25T06:10:57.690Z</time>
      </trkpt>
      <trkpt lat="36.11868" lon="32.49393">
        <ele>400.115487</ele>
        <time>2022-02-25T06:11:06.848Z</time>
      </trkpt>
      <trkpt lat="36.11905" lon="32.4933">
        <ele>398.842686</ele>
        <time>2022-02-25T06:11:27.176Z</time>
      </trkpt>
      <trkpt lat="36.11966" lon="32.4928">
        <ele>399.920545</ele>
        <time>2022-02-25T06:11:55.536Z</time>
      </trkpt>
      <trkpt lat="36.11989" lon="32.49255">
        <ele>400.370416</ele>
        <time>2022-02-25T06:12:06.416Z</time>
      </trkpt>
      <trkpt lat="36.12007" lon="32.49225">
        <ele>400.819789</ele>
        <time>2022-02-25T06:12:16.226Z</time>
      </trkpt>
      <trkpt lat="36.12047" lon="32.49133">
        <ele>401.768416</ele>
        <time>2022-02-25T06:12:40.743Z</time>
      </trkpt>
      <trkpt lat="36.12058" lon="32.49112">
        <ele>401.925297</ele>
        <time>2022-02-25T06:12:46.616Z</time>
      </trkpt>
      <trkpt lat="36.12069" lon="32.49103">
        <ele>402.023494</ele>
        <time>2022-02-25T06:12:50.622Z</time>
      </trkpt>
      <trkpt lat="36.12084" lon="32.49093">
        <ele>402.156499</ele>
        <time>2022-02-25T06:12:55.972Z</time>
      </trkpt>
      <trkpt lat="36.12148" lon="32.49076">
        <ele>402.656147</ele>
        <time>2022-02-25T06:13:16.793Z</time>
      </trkpt>
      <trkpt lat="36.12165" lon="32.49064">
        <ele>402.805302</ele>
        <time>2022-02-25T06:13:22.785Z</time>
      </trkpt>
      <trkpt lat="36.12201" lon="32.4902">
        <ele>403.332032</ele>
        <time>2022-02-25T06:13:37.453Z</time>
      </trkpt>
      <trkpt lat="36.12221" lon="32.49015">
        <ele>403.547913</ele>
        <time>2022-02-25T06:13:43.590Z</time>
      </trkpt>
      <trkpt lat="36.1227" lon="32.49018">
        <ele>404.072405</ele>
        <time>2022-02-25T06:13:59.484Z</time>
      </trkpt>
      <trkpt lat="36.12308" lon="32.49008">
        <ele>404.486835</ele>
        <time>2022-02-25T06:14:12.549Z</time>
      </trkpt>
      <trkpt lat="36.12318" lon="32.49">
        <ele>404.618214</ele>
        <time>2022-02-25T06:14:17.386Z</time>
      </trkpt>
      <trkpt lat="36.12321" lon="32.48998">
        <ele>404.652771</ele>
        <time>2022-02-25T06:14:18.000Z</time>
      </trkpt>
      <trkpt lat="36.12358" lon="32.48961">
        <ele>405.087372</ele>
        <time>2022-02-25T06:14:33.513Z</time>
      </trkpt>
      <trkpt lat="36.12392" lon="32.48938">
        <ele>405.430104</ele>
        <time>2022-02-25T06:14:45.895Z</time>
      </trkpt>
      <trkpt lat="36.12526" lon="32.48876">
        <ele>405.685007</ele>
        <time>2022-02-25T06:15:29.535Z</time>
      </trkpt>
      <trkpt lat="36.12591" lon="32.48836">
        <ele>404.516548</ele>
        <time>2022-02-25T06:15:45.539Z</time>
      </trkpt>
      <trkpt lat="36.12616" lon="32.48811">
        <ele>404.012596</ele>
        <time>2022-02-25T06:15:51.914Z</time>
      </trkpt>
      <trkpt lat="36.12629" lon="32.48779">
        <ele>403.533397</ele>
        <time>2022-02-25T06:15:57.647Z</time>
      </trkpt>
      <trkpt lat="36.12645" lon="32.48709">
        <ele>401.411571</ele>
        <time>2022-02-25T06:16:08.766Z</time>
      </trkpt>
      <trkpt lat="36.12664" lon="32.48674">
        <ele>400.127331</ele>
        <time>2022-02-25T06:16:15.002Z</time>
      </trkpt>
      <trkpt lat="36.12729" lon="32.48647">
        <ele>397.495193</ele>
        <time>2022-02-25T06:16:27.716Z</time>
      </trkpt>
      <trkpt lat="36.12741" lon="32.48635">
        <ele>396.910481</ele>
        <time>2022-02-25T06:16:30.750Z</time>
      </trkpt>
      <trkpt lat="36.12777" lon="32.48573">
        <ele>395.511105</ele>
        <time>2022-02-25T06:16:43.071Z</time>
      </trkpt>
      <trkpt lat="36.12853" lon="32.48497">
        <ele>393.583465</ele>
        <time>2022-02-25T06:17:03.226Z</time>
      </trkpt>
      <trkpt lat="36.12897" lon="32.48422">
        <ele>393.362416</ele>
        <time>2022-02-25T06:17:23.363Z</time>
      </trkpt>
      <trkpt lat="36.12938" lon="32.48386">
        <ele>393.770291</ele>
        <time>2022-02-25T06:17:40.211Z</time>
      </trkpt>
      <trkpt lat="36.12962" lon="32.48373">
        <ele>393.976664</ele>
        <time>2022-02-25T06:17:47.857Z</time>
      </trkpt>
      <trkpt lat="36.12964" lon="32.48372">
        <ele>393.995358</ele>
        <time>2022-02-25T06:17:50.243Z</time>
      </trkpt>
      <trkpt lat="36.13018" lon="32.48353">
        <ele>394.44755</ele>
        <time>2022-02-25T06:18:08.425Z</time>
      </trkpt>
      <trkpt lat="36.1308" lon="32.48347">
        <ele>394.496897</ele>
        <time>2022-02-25T06:18:27.661Z</time>
      </trkpt>
      <trkpt lat="36.13116" lon="32.48338">
        <ele>394.52641</ele>
        <time>2022-02-25T06:18:38.515Z</time>
      </trkpt>
      <trkpt lat="36.13129" lon="32.48332">
        <ele>394.536868</ele>
        <time>2022-02-25T06:18:42.201Z</time>
      </trkpt>
      <trkpt lat="36.13158" lon="32.48313">
        <ele>394.563115</ele>
        <time>2022-02-25T06:18:49.775Z</time>
      </trkpt>
      <trkpt lat="36.13181" lon="32.48283">
        <ele>394.589609</ele>
        <time>2022-02-25T06:18:57.364Z</time>
      </trkpt>
      <trkpt lat="36.13202" lon="32.48206">
        <ele>394.400893</ele>
        <time>2022-02-25T06:19:12.467Z</time>
      </trkpt>
      <trkpt lat="36.13227" lon="32.48154">
        <ele>394.262025</ele>
        <time>2022-02-25T06:19:23.914Z</time>
      </trkpt>
      <trkpt lat="36.13254" lon="32.48116">
        <ele>394.143532</ele>
        <time>2022-02-25T06:19:36.941Z</time>
      </trkpt>
      <trkpt lat="36.13388" lon="32.47957">
        <ele>394.22284</ele>
        <time>2022-02-25T06:20:32.512Z</time>
      </trkpt>
      <trkpt lat="36.13396" lon="32.47943">
        <ele>394.23604</ele>
        <time>2022-02-25T06:20:36.922Z</time>
      </trkpt>
      <trkpt lat="36.13405" lon="32.47923">
        <ele>393.752776</ele>
        <time>2022-02-25T06:20:40.385Z</time>
      </trkpt>
      <trkpt lat="36.13412" lon="32.47877">
        <ele>392.375302</ele>
        <time>2022-02-25T06:20:47.876Z</time>
      </trkpt>
      <trkpt lat="36.13412" lon="32.47779">
        <ele>389.495598</ele>
        <time>2022-02-25T06:21:02.548Z</time>
      </trkpt>
      <trkpt lat="36.13417" lon="32.47752">
        <ele>388.692564</ele>
        <time>2022-02-25T06:21:06.440Z</time>
      </trkpt>
      <trkpt lat="36.13445" lon="32.47671">
        <ele>386.667088</ele>
        <time>2022-02-25T06:21:19.755Z</time>
      </trkpt>
      <trkpt lat="36.13446" lon="32.47635">
        <ele>385.974198</ele>
        <time>2022-02-25T06:21:25.589Z</time>
      </trkpt>
      <trkpt lat="36.13439" lon="32.47577">
        <ele>384.866667</ele>
        <time>2022-02-25T06:21:35.342Z</time>
      </trkpt>
      <trkpt lat="36.1344" lon="32.47551">
        <ele>384.368053</ele>
        <time>2022-02-25T06:21:40.021Z</time>
      </trkpt>
      <trkpt lat="36.13449" lon="32.47523">
        <ele>383.796773</ele>
        <time>2022-02-25T06:21:45.661Z</time>
      </trkpt>
      <trkpt lat="36.13467" lon="32.475">
        <ele>383.503144</ele>
        <time>2022-02-25T06:21:52.083Z</time>
      </trkpt>
      <trkpt lat="36.13596" lon="32.47366">
        <ele>384.183981</ele>
        <time>2022-02-25T06:22:39.536Z</time>
      </trkpt>
      <trkpt lat="36.13603" lon="32.47343">
        <ele>385.023951</ele>
        <time>2022-02-25T06:22:47.144Z</time>
      </trkpt>
      <trkpt lat="36.13605" lon="32.47317">
        <ele>385.928005</ele>
        <time>2022-02-25T06:22:53.784Z</time>
      </trkpt>
      <trkpt lat="36.13601" lon="32.47281">
        <ele>387.176272</ele>
        <time>2022-02-25T06:23:09.286Z</time>
      </trkpt>
      <trkpt lat="36.13601" lon="32.47271">
        <ele>387.506364</ele>
        <time>2022-02-25T06:23:10.814Z</time>
      </trkpt>
      <trkpt lat="36.136" lon="32.47253">
        <ele>388.128731</ele>
        <time>2022-02-25T06:23:20.499Z</time>
      </trkpt>
      <trkpt lat="36.13603" lon="32.47227">
        <ele>389.048511</ele>
        <time>2022-02-25T06:23:28.949Z</time>
      </trkpt>
      <trkpt lat="36.13613" lon="32.47202">
        <ele>390.001091</ele>
        <time>2022-02-25T06:23:43.566Z</time>
      </trkpt>
      <trkpt lat="36.13646" lon="32.47163">
        <ele>391.975675</ele>
        <time>2022-02-25T06:24:08.064Z</time>
      </trkpt>
      <trkpt lat="36.13667" lon="32.47152">
        <ele>393.059585</ele>
        <time>2022-02-25T06:24:22.755Z</time>
      </trkpt>
      <trkpt lat="36.13687" lon="32.47151">
        <ele>394.01106</ele>
        <time>2022-02-25T06:24:32.434Z</time>
      </trkpt>
      <trkpt lat="36.13762" lon="32.47172">
        <ele>397.736094</ele>
        <time>2022-02-25T06:25:17.925Z</time>
      </trkpt>
      <trkpt lat="36.13806" lon="32.47172">
        <ele>399.834934</ele>
        <time>2022-02-25T06:25:36.404Z</time>
      </trkpt>
      <trkpt lat="36.13825" lon="32.47164">
        <ele>400.266822</ele>
        <time>2022-02-25T06:25:43.529Z</time>
      </trkpt>
      <trkpt lat="36.1389" lon="32.47107">
        <ele>397.099695</ele>
        <time>2022-02-25T06:26:02.115Z</time>
      </trkpt>
      <trkpt lat="36.1397" lon="32.47025">
        <ele>392.393264</ele>
        <time>2022-02-25T06:26:19.756Z</time>
      </trkpt>
      <trkpt lat="36.13996" lon="32.46989">
        <ele>388.48244</ele>
        <time>2022-02-25T06:26:26.185Z</time>
      </trkpt>
      <trkpt lat="36.14002" lon="32.46978">
        <ele>387.407912</ele>
        <time>2022-02-25T06:26:27.903Z</time>
      </trkpt>
      <trkpt lat="36.14022" lon="32.46944">
        <ele>383.989202</ele>
        <time>2022-02-25T06:26:33.466Z</time>
      </trkpt>
      <trkpt lat="36.1404" lon="32.469">
        <ele>380.041404</ele>
        <time>2022-02-25T06:26:39.854Z</time>
      </trkpt>
      <trkpt lat="36.14048" lon="32.4686">
        <ele>376.664658</ele>
        <time>2022-02-25T06:26:45.318Z</time>
      </trkpt>
      <trkpt lat="36.14057" lon="32.46776">
        <ele>371.277518</ele>
        <time>2022-02-25T06:26:56.318Z</time>
      </trkpt>
      <trkpt lat="36.14067" lon="32.46737">
        <ele>368.830161</ele>
        <time>2022-02-25T06:27:01.876Z</time>
      </trkpt>
      <trkpt lat="36.14077" lon="32.46705">
        <ele>366.736379</ele>
        <time>2022-02-25T06:27:06.742Z</time>
      </trkpt>
      <trkpt lat="36.14117" lon="32.4663">
        <ele>361.691707</ele>
        <time>2022-02-25T06:27:19.812Z</time>
      </trkpt>
      <trkpt lat="36.14125" lon="32.46597">
        <ele>360.758569</ele>
        <time>2022-02-25T06:27:24.909Z</time>
      </trkpt>
      <trkpt lat="36.14129" lon="32.46482">
        <ele>357.5815</ele>
        <time>2022-02-25T06:27:43.031Z</time>
      </trkpt>
      <trkpt lat="36.14138" lon="32.46452">
        <ele>356.726296</ele>
        <time>2022-02-25T06:27:48.208Z</time>
      </trkpt>
      <trkpt lat="36.14173" lon="32.46412">
        <ele>355.286246</ele>
        <time>2022-02-25T06:27:58.320Z</time>
      </trkpt>
      <trkpt lat="36.14194" lon="32.46363">
        <ele>354.077159</ele>
        <time>2022-02-25T06:28:07.767Z</time>
      </trkpt>
      <trkpt lat="36.14209" lon="32.46279">
        <ele>352.249241</ele>
        <time>2022-02-25T06:28:21.384Z</time>
      </trkpt>
      <trkpt lat="36.14226" lon="32.46223">
        <ele>350.931892</ele>
        <time>2022-02-25T06:28:31.028Z</time>
      </trkpt>
      <trkpt lat="36.14244" lon="32.46188">
        <ele>349.904807</ele>
        <time>2022-02-25T06:28:37.654Z</time>
      </trkpt>
      <trkpt lat="36.143" lon="32.4611">
        <ele>347.291637</ele>
        <time>2022-02-25T06:28:54.186Z</time>
      </trkpt>
      <trkpt lat="36.14315" lon="32.46083">
        <ele>346.440096</ele>
        <time>2022-02-25T06:28:59.465Z</time>
      </trkpt>
      <trkpt lat="36.14324" lon="32.46057">
        <ele>345.737903</ele>
        <time>2022-02-25T06:29:03.758Z</time>
      </trkpt>
      <trkpt lat="36.14345" lon="32.45639">
        <ele>337.016667</ele>
        <time>2022-02-25T06:30:10.817Z</time>
      </trkpt>
      <trkpt lat="36.14348" lon="32.45594">
        <ele>336.437509</ele>
        <time>2022-02-25T06:30:21.820Z</time>
      </trkpt>
      <trkpt lat="36.14356" lon="32.45562">
        <ele>336.519684</ele>
        <time>2022-02-25T06:30:30.967Z</time>
      </trkpt>
      <trkpt lat="36.14361" lon="32.45549">
        <ele>336.557485</ele>
        <time>2022-02-25T06:30:33.899Z</time>
      </trkpt>
      <trkpt lat="36.14368" lon="32.45538">
        <ele>336.591268</ele>
        <time>2022-02-25T06:30:39.863Z</time>
      </trkpt>
      <trkpt lat="36.14447" lon="32.45482">
        <ele>336.869233</ele>
        <time>2022-02-25T06:31:06.057Z</time>
      </trkpt>
      <trkpt lat="36.14497" lon="32.45431">
        <ele>335.827473</ele>
        <time>2022-02-25T06:31:23.618Z</time>
      </trkpt>
      <trkpt lat="36.14522" lon="32.45367">
        <ele>333.887771</ele>
        <time>2022-02-25T06:31:34.488Z</time>
      </trkpt>
      <trkpt lat="36.14553" lon="32.45121">
        <ele>326.64859</ele>
        <time>2022-02-25T06:32:11.105Z</time>
      </trkpt>
      <trkpt lat="36.14565" lon="32.45078">
        <ele>325.256745</ele>
        <time>2022-02-25T06:32:18.454Z</time>
      </trkpt>
      <trkpt lat="36.14615" lon="32.44987">
        <ele>323.683369</ele>
        <time>2022-02-25T06:32:38.205Z</time>
      </trkpt>
      <trkpt lat="36.14689" lon="32.4487">
        <ele>322.814089</ele>
        <time>2022-02-25T06:33:09.606Z</time>
      </trkpt>
      <trkpt lat="36.14737" lon="32.44812">
        <ele>321.993977</ele>
        <time>2022-02-25T06:33:25.523Z</time>
      </trkpt>
      <trkpt lat="36.14752" lon="32.44786">
        <ele>321.674719</ele>
        <time>2022-02-25T06:33:31.114Z</time>
      </trkpt>
      <trkpt lat="36.14769" lon="32.4474">
        <ele>321.1684</ele>
        <time>2022-02-25T06:33:40.004Z</time>
      </trkpt>
      <trkpt lat="36.1482" lon="32.44564">
        <ele>319.422174</ele>
        <time>2022-02-25T06:34:13.124Z</time>
      </trkpt>
      <trkpt lat="36.14834" lon="32.4453">
        <ele>319.078699</ele>
        <time>2022-02-25T06:34:20.661Z</time>
      </trkpt>
      <trkpt lat="36.1485" lon="32.44499">
        <ele>318.7455</ele>
        <time>2022-02-25T06:34:27.955Z</time>
      </trkpt>
      <trkpt lat="36.14872" lon="32.44476">
        <ele>318.384383</ele>
        <time>2022-02-25T06:34:35.245Z</time>
      </trkpt>
      <trkpt lat="36.14928" lon="32.44441">
        <ele>317.514413</ele>
        <time>2022-02-25T06:34:49.832Z</time>
      </trkpt>
      <trkpt lat="36.14946" lon="32.44424">
        <ele>317.192067</ele>
        <time>2022-02-25T06:34:55.061Z</time>
      </trkpt>
      <trkpt lat="36.14965" lon="32.44392">
        <ele>316.747907</ele>
        <time>2022-02-25T06:35:02.169Z</time>
      </trkpt>
      <trkpt lat="36.15046" lon="32.44217">
        <ele>313.722858</ele>
        <time>2022-02-25T06:35:35.581Z</time>
      </trkpt>
      <trkpt lat="36.15066" lon="32.44183">
        <ele>313.017489</ele>
        <time>2022-02-25T06:35:42.808Z</time>
      </trkpt>
      <trkpt lat="36.15088" lon="32.44158">
        <ele>312.412535</ele>
        <time>2022-02-25T06:35:49.259Z</time>
      </trkpt>
      <trkpt lat="36.15109" lon="32.44143">
        <ele>311.94695</ele>
        <time>2022-02-25T06:35:54.792Z</time>
      </trkpt>
      <trkpt lat="36.1512" lon="32.44137">
        <ele>311.717784</ele>
        <time>2022-02-25T06:35:57.580Z</time>
      </trkpt>
      <trkpt lat="36.15145" lon="32.44134">
        <ele>311.240025</ele>
        <time>2022-02-25T06:36:03.328Z</time>
      </trkpt>
      <trkpt lat="36.15161" lon="32.44141">
        <ele>310.927494</ele>
        <time>2022-02-25T06:36:07.038Z</time>
      </trkpt>
      <trkpt lat="36.15185" lon="32.4416">
        <ele>310.386933</ele>
        <time>2022-02-25T06:36:13.560Z</time>
      </trkpt>
      <trkpt lat="36.15206" lon="32.44191">
        <ele>309.774112</ele>
        <time>2022-02-25T06:36:20.660Z</time>
      </trkpt>
      <trkpt lat="36.15214" lon="32.44236">
        <ele>309.072761</ele>
        <time>2022-02-25T06:36:28.406Z</time>
      </trkpt>
      <trkpt lat="36.15225" lon="32.44377">
        <ele>303.746933</ele>
        <time>2022-02-25T06:36:49.905Z</time>
      </trkpt>
      <trkpt lat="36.15235" lon="32.4441">
        <ele>302.392584</ele>
        <time>2022-02-25T06:36:54.836Z</time>
      </trkpt>
      <trkpt lat="36.15269" lon="32.44461">
        <ele>299.597811</ele>
        <time>2022-02-25T06:37:04.158Z</time>
      </trkpt>
      <trkpt lat="36.15331" lon="32.44505">
        <ele>294.835048</ele>
        <time>2022-02-25T06:37:16.347Z</time>
      </trkpt>
      <trkpt lat="36.15365" lon="32.44547">
        <ele>291.625095</ele>
        <time>2022-02-25T06:37:24.576Z</time>
      </trkpt>
      <trkpt lat="36.15379" lon="32.44595">
        <ele>288.845466</ele>
        <time>2022-02-25T06:37:31.744Z</time>
      </trkpt>
      <trkpt lat="36.15378" lon="32.44686">
        <ele>284.248756</ele>
        <time>2022-02-25T06:37:44.589Z</time>
      </trkpt>
      <trkpt lat="36.15384" lon="32.44719">
        <ele>282.540026</ele>
        <time>2022-02-25T06:37:49.453Z</time>
      </trkpt>
      <trkpt lat="36.15407" lon="32.44766">
        <ele>279.799006</ele>
        <time>2022-02-25T06:37:57.247Z</time>
      </trkpt>
      <trkpt lat="36.15442" lon="32.44792">
        <ele>277.259891</ele>
        <time>2022-02-25T06:38:04.383Z</time>
      </trkpt>
      <trkpt lat="36.15472" lon="32.44799">
        <ele>275.029771</ele>
        <time>2022-02-25T06:38:09.737Z</time>
      </trkpt>
      <trkpt lat="36.15503" lon="32.44795">
        <ele>272.737197</ele>
        <time>2022-02-25T06:38:15.093Z</time>
      </trkpt>
      <trkpt lat="36.15601" lon="32.44726">
        <ele>264.426852</ele>
        <time>2022-02-25T06:38:34.258Z</time>
      </trkpt>
      <trkpt lat="36.15634" lon="32.44712">
        <ele>261.65625</ele>
        <time>2022-02-25T06:38:40.051Z</time>
      </trkpt>
      <trkpt lat="36.15668" lon="32.4471">
        <ele>258.824249</ele>
        <time>2022-02-25T06:38:45.792Z</time>
      </trkpt>
      <trkpt lat="36.15934" lon="32.44853">
        <ele>234.533604</ele>
        <time>2022-02-25T06:39:34.225Z</time>
      </trkpt>
      <trkpt lat="36.15992" lon="32.44871">
        <ele>229.942427</ele>
        <time>2022-02-25T06:39:44.158Z</time>
      </trkpt>
      <trkpt lat="36.16038" lon="32.44874">
        <ele>226.480505</ele>
        <time>2022-02-25T06:39:51.820Z</time>
      </trkpt>
      <trkpt lat="36.16536" lon="32.44772">
        <ele>194.906474</ele>
        <time>2022-02-25T06:41:19.929Z</time>
      </trkpt>
      <trkpt lat="36.16611" lon="32.44747">
        <ele>191.923514</ele>
        <time>2022-02-25T06:41:35.070Z</time>
      </trkpt>
      <trkpt lat="36.16662" lon="32.44723">
        <ele>190.11157</ele>
        <time>2022-02-25T06:41:46.847Z</time>
      </trkpt>
      <trkpt lat="36.16835" lon="32.4462">
        <ele>187.22863</ele>
        <time>2022-02-25T06:42:29.821Z</time>
      </trkpt>
      <trkpt lat="36.16837" lon="32.44619">
        <ele>187.194715</ele>
        <time>2022-02-25T06:42:30.168Z</time>
      </trkpt>
      <trkpt lat="36.16928" lon="32.44572">
        <ele>185.556384</ele>
        <time>2022-02-25T06:42:51.465Z</time>
      </trkpt>
      <trkpt lat="36.16946" lon="32.4456">
        <ele>185.210128</ele>
        <time>2022-02-25T06:42:55.822Z</time>
      </trkpt>
      <trkpt lat="36.17001" lon="32.44523">
        <ele>184.425352</ele>
        <time>2022-02-25T06:43:09.513Z</time>
      </trkpt>
      <trkpt lat="36.17021" lon="32.44505">
        <ele>184.229786</ele>
        <time>2022-02-25T06:43:15.076Z</time>
      </trkpt>
      <trkpt lat="36.17345" lon="32.44291">
        <ele>181.714865</ele>
        <time>2022-02-25T06:44:46.064Z</time>
      </trkpt>
      <trkpt lat="36.17399" lon="32.44264">
        <ele>181.100403</ele>
        <time>2022-02-25T06:44:58.804Z</time>
      </trkpt>
      <trkpt lat="36.1753" lon="32.44211">
        <ele>180.247661</ele>
        <time>2022-02-25T06:45:29.910Z</time>
      </trkpt>
      <trkpt lat="36.17586" lon="32.44189">
        <ele>180.075134</ele>
        <time>2022-02-25T06:45:45.093Z</time>
      </trkpt>
      <trkpt lat="36.17621" lon="32.44173">
        <ele>179.965386</ele>
        <time>2022-02-25T06:45:56.242Z</time>
      </trkpt>
      <trkpt lat="36.17649" lon="32.44149">
        <ele>180.370517</ele>
        <time>2022-02-25T06:46:07.475Z</time>
      </trkpt>
      <trkpt lat="36.17668" lon="32.44121">
        <ele>180.799755</ele>
        <time>2022-02-25T06:46:17.760Z</time>
      </trkpt>
      <trkpt lat="36.17681" lon="32.44084">
        <ele>181.285789</ele>
        <time>2022-02-25T06:46:29.921Z</time>
      </trkpt>
      <trkpt lat="36.17688" lon="32.44046">
        <ele>181.752615</ele>
        <time>2022-02-25T06:46:41.537Z</time>
      </trkpt>
      <trkpt lat="36.17696" lon="32.43801">
        <ele>183.137358</ele>
        <time>2022-02-25T06:47:44.981Z</time>
      </trkpt>
      <trkpt lat="36.17705" lon="32.43771">
        <ele>183.23255</ele>
        <time>2022-02-25T06:47:50.815Z</time>
      </trkpt>
      <trkpt lat="36.17723" lon="32.4374">
        <ele>182.775229</ele>
        <time>2022-02-25T06:47:57.473Z</time>
      </trkpt>
      <trkpt lat="36.17747" lon="32.43713">
        <ele>181.773909</ele>
        <time>2022-02-25T06:48:04.153Z</time>
      </trkpt>
      <trkpt lat="36.17778" lon="32.4369">
        <ele>180.650911</ele>
        <time>2022-02-25T06:48:11.319Z</time>
      </trkpt>
      <trkpt lat="36.17812" lon="32.43674">
        <ele>179.53274</ele>
        <time>2022-02-25T06:48:18.196Z</time>
      </trkpt>
      <trkpt lat="36.17845" lon="32.43671">
        <ele>178.521291</ele>
        <time>2022-02-25T06:48:24.342Z</time>
      </trkpt>
      <trkpt lat="36.17957" lon="32.43676">
        <ele>175.03245</ele>
        <time>2022-02-25T06:48:45.603Z</time>
      </trkpt>
      <trkpt lat="36.18007" lon="32.43664">
        <ele>173.476019</ele>
        <time>2022-02-25T06:48:55.553Z</time>
      </trkpt>
      <trkpt lat="36.18049" lon="32.43645">
        <ele>172.146504</ele>
        <time>2022-02-25T06:49:04.999Z</time>
      </trkpt>
      <trkpt lat="36.18095" lon="32.43616">
        <ele>171.923368</ele>
        <time>2022-02-25T06:49:16.653Z</time>
      </trkpt>
      <trkpt lat="36.18133" lon="32.4358">
        <ele>171.714701</ele>
        <time>2022-02-25T06:49:28.830Z</time>
      </trkpt>
      <trkpt lat="36.18167" lon="32.43538">
        <ele>171.507984</ele>
        <time>2022-02-25T06:49:42.087Z</time>
      </trkpt>
      <trkpt lat="36.18198" lon="32.43483">
        <ele>171.439323</ele>
        <time>2022-02-25T06:49:58.361Z</time>
      </trkpt>
      <trkpt lat="36.18284" lon="32.43291">
        <ele>171.326564</ele>
        <time>2022-02-25T06:50:49.064Z</time>
      </trkpt>
      <trkpt lat="36.18317" lon="32.43228">
        <ele>169.955565</ele>
        <time>2022-02-25T06:51:01.766Z</time>
      </trkpt>
      <trkpt lat="36.18363" lon="32.43169">
        <ele>168.429351</ele>
        <time>2022-02-25T06:51:14.948Z</time>
      </trkpt>
      <trkpt lat="36.18428" lon="32.43098">
        <ele>165.956828</ele>
        <time>2022-02-25T06:51:31.260Z</time>
      </trkpt>
      <trkpt lat="36.18697" lon="32.42804">
        <ele>155.72447</ele>
        <time>2022-02-25T06:52:42.523Z</time>
      </trkpt>
      <trkpt lat="36.18765" lon="32.42731">
        <ele>153.914505</ele>
        <time>2022-02-25T06:53:01.869Z</time>
      </trkpt>
      <trkpt lat="36.18827" lon="32.42684">
        <ele>152.872534</ele>
        <time>2022-02-25T06:53:18.216Z</time>
      </trkpt>
      <trkpt lat="36.19095" lon="32.4253">
        <ele>150.676782</ele>
        <time>2022-02-25T06:54:29.251Z</time>
      </trkpt>
      <trkpt lat="36.19133" lon="32.42499">
        <ele>150.323277</ele>
        <time>2022-02-25T06:54:40.796Z</time>
      </trkpt>
      <trkpt lat="36.1918" lon="32.42447">
        <ele>149.6752</ele>
        <time>2022-02-25T06:54:55.677Z</time>
      </trkpt>
      <trkpt lat="36.19215" lon="32.42399">
        <ele>149.139455</ele>
        <time>2022-02-25T06:55:07.523Z</time>
      </trkpt>
      <trkpt lat="36.19244" lon="32.42355">
        <ele>148.673236</ele>
        <time>2022-02-25T06:55:17.791Z</time>
      </trkpt>
      <trkpt lat="36.19264" lon="32.42328">
        <ele>148.202753</ele>
        <time>2022-02-25T06:55:24.250Z</time>
      </trkpt>
      <trkpt lat="36.19327" lon="32.42175">
        <ele>145.991078</ele>
        <time>2022-02-25T06:55:54.104Z</time>
      </trkpt>
      <trkpt lat="36.1934" lon="32.42114">
        <ele>145.741754</ele>
        <time>2022-02-25T06:56:05.307Z</time>
      </trkpt>
      <trkpt lat="36.19349" lon="32.42068">
        <ele>145.691454</ele>
        <time>2022-02-25T06:56:14.389Z</time>
      </trkpt>
      <trkpt lat="36.19354" lon="32.42021">
        <ele>145.641625</ele>
        <time>2022-02-25T06:56:24.071Z</time>
      </trkpt>
      <trkpt lat="36.19357" lon="32.41972">
        <ele>145.589904</ele>
        <time>2022-02-25T06:56:34.962Z</time>
      </trkpt>
      <trkpt lat="36.19353" lon="32.41925">
        <ele>145.877481</ele>
        <time>2022-02-25T06:56:48.467Z</time>
      </trkpt>
      <trkpt lat="36.1935" lon="32.41882">
        <ele>146.712465</ele>
        <time>2022-02-25T06:57:02.219Z</time>
      </trkpt>
      <trkpt lat="36.19335" lon="32.41796">
        <ele>148.45236</ele>
        <time>2022-02-25T06:57:31.420Z</time>
      </trkpt>
      <trkpt lat="36.19326" lon="32.41765">
        <ele>149.09829</ele>
        <time>2022-02-25T06:57:42.716Z</time>
      </trkpt>
      <trkpt lat="36.19315" lon="32.41727">
        <ele>149.89399</ele>
        <time>2022-02-25T06:57:55.929Z</time>
      </trkpt>
      <trkpt lat="36.19297" lon="32.41673">
        <ele>149.531741</ele>
        <time>2022-02-25T06:58:11.610Z</time>
      </trkpt>
      <trkpt lat="36.19278" lon="32.4161">
        <ele>149.04818</ele>
        <time>2022-02-25T06:58:26.850Z</time>
      </trkpt>
      <trkpt lat="36.1927" lon="32.41586">
        <ele>148.859154</ele>
        <time>2022-02-25T06:58:31.627Z</time>
      </trkpt>
      <trkpt lat="36.19177" lon="32.41303">
        <ele>140.997881</ele>
        <time>2022-02-25T06:59:17.700Z</time>
      </trkpt>
      <trkpt lat="36.19175" lon="32.41298">
        <ele>140.893394</ele>
        <time>2022-02-25T06:59:18.585Z</time>
      </trkpt>
      <trkpt lat="36.19147" lon="32.41214">
        <ele>139.198999</ele>
        <time>2022-02-25T06:59:33.268Z</time>
      </trkpt>
      <trkpt lat="36.19091" lon="32.41061">
        <ele>136.370835</ele>
        <time>2022-02-25T07:00:03.271Z</time>
      </trkpt>
      <trkpt lat="36.19063" lon="32.40978">
        <ele>135.244136</ele>
        <time>2022-02-25T07:00:19.249Z</time>
      </trkpt>
      <trkpt lat="36.19046" lon="32.40907">
        <ele>134.312464</ele>
        <time>2022-02-25T07:00:32.216Z</time>
      </trkpt>
      <trkpt lat="36.19037" lon="32.40855">
        <ele>133.435537</ele>
        <time>2022-02-25T07:00:41.407Z</time>
      </trkpt>
      <trkpt lat="36.19035" lon="32.40754">
        <ele>131.70079</ele>
        <time>2022-02-25T07:00:58.427Z</time>
      </trkpt>
      <trkpt lat="36.19044" lon="32.40675">
        <ele>130.346474</ele>
        <time>2022-02-25T07:01:11.664Z</time>
      </trkpt>
      <trkpt lat="36.19055" lon="32.40622">
        <ele>129.490447</ele>
        <time>2022-02-25T07:01:20.809Z</time>
      </trkpt>
      <trkpt lat="36.19104" lon="32.40458">
        <ele>126.802684</ele>
        <time>2022-02-25T07:01:50.937Z</time>
      </trkpt>
      <trkpt lat="36.19142" lon="32.40331">
        <ele>125.218715</ele>
        <time>2022-02-25T07:02:15.222Z</time>
      </trkpt>
      <trkpt lat="36.19188" lon="32.40233">
        <ele>123.960932</ele>
        <time>2022-02-25T07:02:35.626Z</time>
      </trkpt>
      <trkpt lat="36.19247" lon="32.40155">
        <ele>122.877429</ele>
        <time>2022-02-25T07:02:54.768Z</time>
      </trkpt>
      <trkpt lat="36.19292" lon="32.4011">
        <ele>122.142095</ele>
        <time>2022-02-25T07:03:08.152Z</time>
      </trkpt>
      <trkpt lat="36.19308" lon="32.40095">
        <ele>121.949913</ele>
        <time>2022-02-25T07:03:12.718Z</time>
      </trkpt>
      <trkpt lat="36.19316" lon="32.40087">
        <ele>121.86908</ele>
        <time>2022-02-25T07:03:15.197Z</time>
      </trkpt>
      <trkpt lat="36.19339" lon="32.40065">
        <ele>121.633855</ele>
        <time>2022-02-25T07:03:22.032Z</time>
      </trkpt>
      <trkpt lat="36.1946" lon="32.39963">
        <ele>120.438005</ele>
        <time>2022-02-25T07:03:57.097Z</time>
      </trkpt>
      <trkpt lat="36.19541" lon="32.39886">
        <ele>119.483011</ele>
        <time>2022-02-25T07:04:21.182Z</time>
      </trkpt>
      <trkpt lat="36.19647" lon="32.39771">
        <ele>117.79982</ele>
        <time>2022-02-25T07:04:52.910Z</time>
      </trkpt>
      <trkpt lat="36.19724" lon="32.397">
        <ele>116.463984</ele>
        <time>2022-02-25T07:05:14.093Z</time>
      </trkpt>
      <trkpt lat="36.19981" lon="32.39541">
        <ele>112.04333</ele>
        <time>2022-02-25T07:06:16.820Z</time>
      </trkpt>
      <trkpt lat="36.2004" lon="32.3951">
        <ele>111.095663</ele>
        <time>2022-02-25T07:06:31.237Z</time>
      </trkpt>
      <trkpt lat="36.20217" lon="32.39439">
        <ele>108.971526</ele>
        <time>2022-02-25T07:07:13.710Z</time>
      </trkpt>
      <trkpt lat="36.20275" lon="32.39397">
        <ele>108.206234</ele>
        <time>2022-02-25T07:07:29.068Z</time>
      </trkpt>
      <trkpt lat="36.20299" lon="32.39378">
        <ele>107.877601</ele>
        <time>2022-02-25T07:07:35.574Z</time>
      </trkpt>
      <trkpt lat="36.20313" lon="32.39367">
        <ele>107.696145</ele>
        <time>2022-02-25T07:07:39.222Z</time>
      </trkpt>
      <trkpt lat="36.20438" lon="32.39266">
        <ele>106.220825</ele>
        <time>2022-02-25T07:08:13.403Z</time>
      </trkpt>
      <trkpt lat="36.20507" lon="32.39211">
        <ele>105.525879</ele>
        <time>2022-02-25T07:08:32.761Z</time>
      </trkpt>
      <trkpt lat="36.20649" lon="32.39097">
        <ele>105.170009</ele>
        <time>2022-02-25T07:09:16.351Z</time>
      </trkpt>
      <trkpt lat="36.20712" lon="32.39055">
        <ele>105.261221</ele>
        <time>2022-02-25T07:09:36.551Z</time>
      </trkpt>
      <trkpt lat="36.20778" lon="32.39026">
        <ele>105.481347</ele>
        <time>2022-02-25T07:09:56.328Z</time>
      </trkpt>
      <trkpt lat="36.2083" lon="32.39007">
        <ele>105.655765</ele>
        <time>2022-02-25T07:10:12.062Z</time>
      </trkpt>
      <trkpt lat="36.20895" lon="32.38982">
        <ele>105.823247</ele>
        <time>2022-02-25T07:10:31.090Z</time>
      </trkpt>
      <trkpt lat="36.20949" lon="32.38968">
        <ele>105.949695</ele>
        <time>2022-02-25T07:10:46.385Z</time>
      </trkpt>
      <trkpt lat="36.21139" lon="32.38962">
        <ele>106.62293</ele>
        <time>2022-02-25T07:11:38.548Z</time>
      </trkpt>
      <trkpt lat="36.21252" lon="32.38958">
        <ele>107.362763</ele>
        <time>2022-02-25T07:12:13.599Z</time>
      </trkpt>
      <trkpt lat="36.21256" lon="32.38965">
        <ele>107.4254</ele>
        <time>2022-02-25T07:12:16.206Z</time>
      </trkpt>
      <trkpt lat="36.21296" lon="32.38997">
        <ele>107.872152</ele>
        <time>2022-02-25T07:12:31.166Z</time>
      </trkpt>
      <trkpt lat="36.21439" lon="32.39079">
        <ele>109.174688</ele>
        <time>2022-02-25T07:13:19.704Z</time>
      </trkpt>
      <trkpt lat="36.21463" lon="32.39091">
        <ele>109.366661</ele>
        <time>2022-02-25T07:13:27.196Z</time>
      </trkpt>
      <trkpt lat="36.2151" lon="32.39111">
        <ele>109.732216</ele>
        <time>2022-02-25T07:13:41.792Z</time>
      </trkpt>
      <trkpt lat="36.2154" lon="32.39132">
        <ele>109.998653</ele>
        <time>2022-02-25T07:13:52.333Z</time>
      </trkpt>
      <trkpt lat="36.21555" lon="32.39135">
        <ele>110.116031</ele>
        <time>2022-02-25T07:13:56.815Z</time>
      </trkpt>
      <trkpt lat="36.2164" lon="32.39133">
        <ele>110.793261</ele>
        <time>2022-02-25T07:14:23.225Z</time>
      </trkpt>
      <trkpt lat="36.21708" lon="32.39138">
        <ele>111.32545</ele>
        <time>2022-02-25T07:14:43.963Z</time>
      </trkpt>
      <trkpt lat="36.21845" lon="32.39176">
        <ele>112.050879</ele>
        <time>2022-02-25T07:15:25.371Z</time>
      </trkpt>
      <trkpt lat="36.22" lon="32.39177">
        <ele>112.19505</ele>
        <time>2022-02-25T07:16:08.438Z</time>
      </trkpt>
      <trkpt lat="36.22035" lon="32.39177">
        <ele>112.180647</ele>
        <time>2022-02-25T07:16:17.495Z</time>
      </trkpt>
      <trkpt lat="36.22063" lon="32.39167">
        <ele>112.139925</ele>
        <time>2022-02-25T07:16:24.566Z</time>
      </trkpt>
      <trkpt lat="36.22125" lon="32.39132">
        <ele>111.150385</ele>
        <time>2022-02-25T07:16:40.737Z</time>
      </trkpt>
      <trkpt lat="36.2213" lon="32.39124">
        <ele>111.042557</ele>
        <time>2022-02-25T07:16:42.331Z</time>
      </trkpt>
      <trkpt lat="36.22195" lon="32.3908">
        <ele>109.959163</ele>
        <time>2022-02-25T07:16:58.306Z</time>
      </trkpt>
      <trkpt lat="36.22215" lon="32.39057">
        <ele>109.570416</ele>
        <time>2022-02-25T07:17:03.971Z</time>
      </trkpt>
      <trkpt lat="36.22236" lon="32.39024">
        <ele>108.852464</ele>
        <time>2022-02-25T07:17:11.017Z</time>
      </trkpt>
      <trkpt lat="36.22259" lon="32.38987">
        <ele>108.04782</ele>
        <time>2022-02-25T07:17:18.830Z</time>
      </trkpt>
      <trkpt lat="36.22317" lon="32.38901">
        <ele>106.130479</ele>
        <time>2022-02-25T07:17:37.579Z</time>
      </trkpt>
      <trkpt lat="36.2238" lon="32.38862">
        <ele>104.990756</ele>
        <time>2022-02-25T07:17:52.609Z</time>
      </trkpt>
      <trkpt lat="36.22411" lon="32.38841">
        <ele>104.471485</ele>
        <time>2022-02-25T07:18:00.612Z</time>
      </trkpt>
      <trkpt lat="36.22436" lon="32.38825">
        <ele>104.067749</ele>
        <time>2022-02-25T07:18:06.799Z</time>
      </trkpt>
      <trkpt lat="36.22477" lon="32.38793">
        <ele>103.366428</ele>
        <time>2022-02-25T07:18:17.728Z</time>
      </trkpt>
      <trkpt lat="36.22552" lon="32.38721">
        <ele>102.775845</ele>
        <time>2022-02-25T07:18:39.585Z</time>
      </trkpt>
      <trkpt lat="36.22662" lon="32.38651">
        <ele>102.516195</ele>
        <time>2022-02-25T07:19:12.606Z</time>
      </trkpt>
      <trkpt lat="36.22687" lon="32.38629">
        <ele>102.768989</ele>
        <time>2022-02-25T07:19:21.659Z</time>
      </trkpt>
      <trkpt lat="36.22707" lon="32.38596">
        <ele>103.051946</ele>
        <time>2022-02-25T07:19:32.228Z</time>
      </trkpt>
      <trkpt lat="36.22727" lon="32.38556">
        <ele>103.369162</ele>
        <time>2022-02-25T07:19:44.229Z</time>
      </trkpt>
      <trkpt lat="36.22736" lon="32.38528">
        <ele>103.572587</ele>
        <time>2022-02-25T07:19:52.331Z</time>
      </trkpt>
      <trkpt lat="36.22739" lon="32.38516">
        <ele>103.653491</ele>
        <time>2022-02-25T07:19:55.236Z</time>
      </trkpt>
      <trkpt lat="36.22757" lon="32.38492">
        <ele>103.848406</ele>
        <time>2022-02-25T07:20:04.196Z</time>
      </trkpt>
      <trkpt lat="36.22781" lon="32.38467">
        <ele>103.967378</ele>
        <time>2022-02-25T07:20:14.368Z</time>
      </trkpt>
      <trkpt lat="36.22822" lon="32.38441">
        <ele>104.143203</ele>
        <time>2022-02-25T07:20:28.677Z</time>
      </trkpt>
      <trkpt lat="36.22949" lon="32.38395">
        <ele>103.939676</ele>
        <time>2022-02-25T07:21:03.286Z</time>
      </trkpt>
      <trkpt lat="36.22996" lon="32.38343">
        <ele>102.978558</ele>
        <time>2022-02-25T07:21:16.899Z</time>
      </trkpt>
      <trkpt lat="36.23056" lon="32.38217">
        <ele>100.943152</ele>
        <time>2022-02-25T07:21:41.466Z</time>
      </trkpt>
      <trkpt lat="36.23064" lon="32.382">
        <ele>100.617798</ele>
        <time>2022-02-25T07:21:44.514Z</time>
      </trkpt>
      <trkpt lat="36.23076" lon="32.38179">
        <ele>100.178822</ele>
        <time>2022-02-25T07:21:48.924Z</time>
      </trkpt>
      <trkpt lat="36.23115" lon="32.38141">
        <ele>99.142995</ele>
        <time>2022-02-25T07:21:59.027Z</time>
      </trkpt>
      <trkpt lat="36.23191" lon="32.38076">
        <ele>97.654325</ele>
        <time>2022-02-25T07:22:19.185Z</time>
      </trkpt>
      <trkpt lat="36.23208" lon="32.38064">
        <ele>97.486225</ele>
        <time>2022-02-25T07:22:23.694Z</time>
      </trkpt>
      <trkpt lat="36.23236" lon="32.38032">
        <ele>97.149218</ele>
        <time>2022-02-25T07:22:32.884Z</time>
      </trkpt>
      <trkpt lat="36.23441" lon="32.37797">
        <ele>95.527427</ele>
        <time>2022-02-25T07:23:41.963Z</time>
      </trkpt>
      <trkpt lat="36.23571" lon="32.37689">
        <ele>94.961815</ele>
        <time>2022-02-25T07:24:21.288Z</time>
      </trkpt>
      <trkpt lat="36.23728" lon="32.37542">
        <ele>94.562266</ele>
        <time>2022-02-25T07:25:12.165Z</time>
      </trkpt>
      <trkpt lat="36.23813" lon="32.3747">
        <ele>94.248214</ele>
        <time>2022-02-25T07:25:38.368Z</time>
      </trkpt>
      <trkpt lat="36.23852" lon="32.37441">
        <ele>94.109312</ele>
        <time>2022-02-25T07:25:49.811Z</time>
      </trkpt>
      <trkpt lat="36.23874" lon="32.37415">
        <ele>94.016454</ele>
        <time>2022-02-25T07:25:57.546Z</time>
      </trkpt>
      <trkpt lat="36.23903" lon="32.3738">
        <ele>93.897688</ele>
        <time>2022-02-25T07:26:07.686Z</time>
      </trkpt>
      <trkpt lat="36.23948" lon="32.37331">
        <ele>93.724668</ele>
        <time>2022-02-25T07:26:22.377Z</time>
      </trkpt>
      <trkpt lat="36.24032" lon="32.3726">
        <ele>93.5938</ele>
        <time>2022-02-25T07:26:48.712Z</time>
      </trkpt>
      <trkpt lat="36.24061" lon="32.37234">
        <ele>93.701141</ele>
        <time>2022-02-25T07:26:58.867Z</time>
      </trkpt>
      <trkpt lat="36.24122" lon="32.37179">
        <ele>93.923969</ele>
        <time>2022-02-25T07:27:20.472Z</time>
      </trkpt>
      <trkpt lat="36.24184" lon="32.37141">
        <ele>94.24451</ele>
        <time>2022-02-25T07:27:40.942Z</time>
      </trkpt>
      <trkpt lat="36.24252" lon="32.37071">
        <ele>94.85132</ele>
        <time>2022-02-25T07:28:06.738Z</time>
      </trkpt>
      <trkpt lat="36.24314" lon="32.3705">
        <ele>95.315454</ele>
        <time>2022-02-25T07:28:26.863Z</time>
      </trkpt>
      <trkpt lat="36.24333" lon="32.37037">
        <ele>95.621022</ele>
        <time>2022-02-25T07:28:33.501Z</time>
      </trkpt>
      <trkpt lat="36.24354" lon="32.37016">
        <ele>95.999219</ele>
        <time>2022-02-25T07:28:42.132Z</time>
      </trkpt>
      <trkpt lat="36.24364" lon="32.37016">
        <ele>96.129227</ele>
        <time>2022-02-25T07:28:45.119Z</time>
      </trkpt>
      <trkpt lat="36.24378" lon="32.3701">
        <ele>96.33353</ele>
        <time>2022-02-25T07:28:50.060Z</time>
      </trkpt>
      <trkpt lat="36.2447" lon="32.3693">
        <ele>97.945062</ele>
        <time>2022-02-25T07:29:28.646Z</time>
      </trkpt>
      <trkpt lat="36.24566" lon="32.36883">
        <ele>99.870169</ele>
        <time>2022-02-25T07:30:06.544Z</time>
      </trkpt>
      <trkpt lat="36.24594" lon="32.36872">
        <ele>100.427428</ele>
        <time>2022-02-25T07:30:17.571Z</time>
      </trkpt>
      <trkpt lat="36.24602" lon="32.36869">
        <ele>100.571871</ele>
        <time>2022-02-25T07:30:20.766Z</time>
      </trkpt>
      <trkpt lat="36.24677" lon="32.36812">
        <ele>101.054073</ele>
        <time>2022-02-25T07:30:49.934Z</time>
      </trkpt>
      <trkpt lat="36.24701" lon="32.368">
        <ele>101.006324</ele>
        <time>2022-02-25T07:30:57.628Z</time>
      </trkpt>
      <trkpt lat="36.24727" lon="32.36787">
        <ele>100.955758</ele>
        <time>2022-02-25T07:31:05.157Z</time>
      </trkpt>
      <trkpt lat="36.24756" lon="32.36773">
        <ele>100.897864</ele>
        <time>2022-02-25T07:31:12.419Z</time>
      </trkpt>
      <trkpt lat="36.24773" lon="32.3676">
        <ele>100.861231</ele>
        <time>2022-02-25T07:31:16.694Z</time>
      </trkpt>
      <trkpt lat="36.24809" lon="32.36705">
        <ele>99.193964</ele>
        <time>2022-02-25T07:31:28.383Z</time>
      </trkpt>
      <trkpt lat="36.24825" lon="32.36676">
        <ele>98.00804</ele>
        <time>2022-02-25T07:31:33.785Z</time>
      </trkpt>
      <trkpt lat="36.24867" lon="32.36576">
        <ele>94.223422</ele>
        <time>2022-02-25T07:31:50.052Z</time>
      </trkpt>
      <trkpt lat="36.24899" lon="32.36535">
        <ele>92.460281</ele>
        <time>2022-02-25T07:31:58.508Z</time>
      </trkpt>
      <trkpt lat="36.2491" lon="32.36507">
        <ele>91.570329</ele>
        <time>2022-02-25T07:32:03.122Z</time>
      </trkpt>
      <trkpt lat="36.24912" lon="32.36501">
        <ele>91.395826</ele>
        <time>2022-02-25T07:32:04.037Z</time>
      </trkpt>
      <trkpt lat="36.24929" lon="32.36489">
        <ele>90.726252</ele>
        <time>2022-02-25T07:32:07.651Z</time>
      </trkpt>
      <trkpt lat="36.24946" lon="32.36488">
        <ele>90.133152</ele>
        <time>2022-02-25T07:32:10.751Z</time>
      </trkpt>
      <trkpt lat="36.24978" lon="32.36463">
        <ele>88.788169</ele>
        <time>2022-02-25T07:32:18.165Z</time>
      </trkpt>
      <trkpt lat="36.2503" lon="32.36444">
        <ele>86.976819</ele>
        <time>2022-02-25T07:32:29.239Z</time>
      </trkpt>
      <trkpt lat="36.25064" lon="32.36423">
        <ele>86.839293</ele>
        <time>2022-02-25T07:32:37.924Z</time>
      </trkpt>
      <trkpt lat="36.25075" lon="32.36413">
        <ele>86.791645</ele>
        <time>2022-02-25T07:32:41.151Z</time>
      </trkpt>
      <trkpt lat="36.25148" lon="32.36385">
        <ele>86.512088</ele>
        <time>2022-02-25T07:33:02.081Z</time>
      </trkpt>
      <trkpt lat="36.25212" lon="32.36399">
        <ele>86.299678</ele>
        <time>2022-02-25T07:33:20.627Z</time>
      </trkpt>
      <trkpt lat="36.25257" lon="32.36381">
        <ele>86.188984</ele>
        <time>2022-02-25T07:33:34.329Z</time>
      </trkpt>
      <trkpt lat="36.25268" lon="32.3638">
        <ele>86.162647</ele>
        <time>2022-02-25T07:33:37.917Z</time>
      </trkpt>
      <trkpt lat="36.25275" lon="32.3638">
        <ele>86.145627</ele>
        <time>2022-02-25T07:33:39.966Z</time>
      </trkpt>
      <trkpt lat="36.25314" lon="32.36385">
        <ele>86.055033</ele>
        <time>2022-02-25T07:33:50.390Z</time>
      </trkpt>
      <trkpt lat="36.25334" lon="32.36375">
        <ele>86.006004</ele>
        <time>2022-02-25T07:33:55.713Z</time>
      </trkpt>
      <trkpt lat="36.25397" lon="32.36322">
        <ele>84.844961</ele>
        <time>2022-02-25T07:34:12.452Z</time>
      </trkpt>
      <trkpt lat="36.25411" lon="32.36306">
        <ele>84.322311</ele>
        <time>2022-02-25T07:34:16.440Z</time>
      </trkpt>
      <trkpt lat="36.25438" lon="32.3627">
        <ele>83.229153</ele>
        <time>2022-02-25T07:34:24.174Z</time>
      </trkpt>
      <trkpt lat="36.25452" lon="32.36261">
        <ele>82.793659</ele>
        <time>2022-02-25T07:34:27.195Z</time>
      </trkpt>
      <trkpt lat="36.25469" lon="32.36259">
        <ele>82.31752</ele>
        <time>2022-02-25T07:34:30.611Z</time>
      </trkpt>
      <trkpt lat="36.2548" lon="32.36262">
        <ele>82.008573</ele>
        <time>2022-02-25T07:34:32.658Z</time>
      </trkpt>
      <trkpt lat="36.25526" lon="32.3628">
        <ele>80.797094</ele>
        <time>2022-02-25T07:34:41.998Z</time>
      </trkpt>
      <trkpt lat="36.25543" lon="32.3632">
        <ele>80.227233</ele>
        <time>2022-02-25T07:34:49.042Z</time>
      </trkpt>
      <trkpt lat="36.25554" lon="32.36329">
        <ele>80.026777</ele>
        <time>2022-02-25T07:34:51.664Z</time>
      </trkpt>
      <trkpt lat="36.25656" lon="32.36282">
        <ele>78.319942</ele>
        <time>2022-02-25T07:35:16.422Z</time>
      </trkpt>
      <trkpt lat="36.25672" lon="32.36288">
        <ele>78.192682</ele>
        <time>2022-02-25T07:35:21.250Z</time>
      </trkpt>
      <trkpt lat="36.25714" lon="32.36321">
        <ele>78.622738</ele>
        <time>2022-02-25T07:35:38.022Z</time>
      </trkpt>
      <trkpt lat="36.25738" lon="32.36352">
        <ele>78.916316</ele>
        <time>2022-02-25T07:35:49.937Z</time>
      </trkpt>
      <trkpt lat="36.25746" lon="32.36373">
        <ele>79.079664</ele>
        <time>2022-02-25T07:35:56.557Z</time>
      </trkpt>
      <trkpt lat="36.25748" lon="32.36397">
        <ele>79.246419</ele>
        <time>2022-02-25T07:36:03.313Z</time>
      </trkpt>
      <trkpt lat="36.25745" lon="32.36422">
        <ele>79.417521</ele>
        <time>2022-02-25T07:36:10.053Z</time>
      </trkpt>
      <trkpt lat="36.25733" lon="32.36458">
        <ele>79.690505</ele>
        <time>2022-02-25T07:36:19.981Z</time>
      </trkpt>
      <trkpt lat="36.25737" lon="32.36474">
        <ele>79.358951</ele>
        <time>2022-02-25T07:36:23.655Z</time>
      </trkpt>
      <trkpt lat="36.25751" lon="32.36483">
        <ele>79.003989</ele>
        <time>2022-02-25T07:36:27.212Z</time>
      </trkpt>
      <trkpt lat="36.25801" lon="32.36497">
        <ele>77.780582</ele>
        <time>2022-02-25T07:36:38.117Z</time>
      </trkpt>
      <trkpt lat="36.25835" lon="32.36498">
        <ele>76.969651</ele>
        <time>2022-02-25T07:36:44.716Z</time>
      </trkpt>
      <trkpt lat="36.25864" lon="32.3651">
        <ele>76.246005</ele>
        <time>2022-02-25T07:36:50.367Z</time>
      </trkpt>
      <trkpt lat="36.25898" lon="32.3651">
        <ele>75.445102</ele>
        <time>2022-02-25T07:36:56.719Z</time>
      </trkpt>
      <trkpt lat="36.25932" lon="32.36518">
        <ele>74.845675</ele>
        <time>2022-02-25T07:37:03.523Z</time>
      </trkpt>
      <trkpt lat="36.25974" lon="32.36495">
        <ele>74.066457</ele>
        <time>2022-02-25T07:37:12.735Z</time>
      </trkpt>
      <trkpt lat="36.26007" lon="32.36498">
        <ele>73.510194</ele>
        <time>2022-02-25T07:37:20.445Z</time>
      </trkpt>
      <trkpt lat="36.26017" lon="32.36502">
        <ele>73.337108</ele>
        <time>2022-02-25T07:37:22.303Z</time>
      </trkpt>
      <trkpt lat="36.26023" lon="32.36508">
        <ele>73.2016</ele>
        <time>2022-02-25T07:37:27.029Z</time>
      </trkpt>
      <trkpt lat="36.26026" lon="32.36528">
        <ele>72.9322</ele>
        <time>2022-02-25T07:37:32.790Z</time>
      </trkpt>
      <trkpt lat="36.26023" lon="32.36575">
        <ele>72.243384</ele>
        <time>2022-02-25T07:37:42.620Z</time>
      </trkpt>
      <trkpt lat="36.26043" lon="32.36631">
        <ele>70.989881</ele>
        <time>2022-02-25T07:37:53.903Z</time>
      </trkpt>
      <trkpt lat="36.26039" lon="32.36687">
        <ele>69.846175</ele>
        <time>2022-02-25T07:38:04.453Z</time>
      </trkpt>
      <trkpt lat="36.26044" lon="32.36704">
        <ele>69.469338</ele>
        <time>2022-02-25T07:38:09.017Z</time>
      </trkpt>
      <trkpt lat="36.2605" lon="32.36672">
        <ele>68.809029</ele>
        <time>2022-02-25T07:38:13.764Z</time>
      </trkpt>
      <trkpt lat="36.26055" lon="32.36651">
        <ele>68.367404</ele>
        <time>2022-02-25T07:38:17.139Z</time>
      </trkpt>
      <trkpt lat="36.26082" lon="32.36619">
        <ele>66.387555</ele>
        <time>2022-02-25T07:38:23.645Z</time>
      </trkpt>
      <trkpt lat="36.26102" lon="32.36583">
        <ele>63.262284</ele>
        <time>2022-02-25T07:38:29.673Z</time>
      </trkpt>
      <trkpt lat="36.26155" lon="32.36508">
        <ele>56.28484</ele>
        <time>2022-02-25T07:38:42.658Z</time>
      </trkpt>
      <trkpt lat="36.26176" lon="32.36448">
        <ele>51.77331</ele>
        <time>2022-02-25T07:38:51.382Z</time>
      </trkpt>
      <trkpt lat="36.26199" lon="32.36405">
        <ele>49.167964</ele>
        <time>2022-02-25T07:38:58.356Z</time>
      </trkpt>
      <trkpt lat="36.26227" lon="32.36367">
        <ele>46.585176</ele>
        <time>2022-02-25T07:39:05.416Z</time>
      </trkpt>
      <trkpt lat="36.26248" lon="32.36353">
        <ele>45.091078</ele>
        <time>2022-02-25T07:39:09.529Z</time>
      </trkpt>
      <trkpt lat="36.26252" lon="32.3635">
        <ele>44.76434</ele>
        <time>2022-02-25T07:39:10.524Z</time>
      </trkpt>
      <trkpt lat="36.26315" lon="32.36314">
        <ele>40.706768</ele>
        <time>2022-02-25T07:39:23.443Z</time>
      </trkpt>
      <trkpt lat="36.26318" lon="32.36309">
        <ele>40.614631</ele>
        <time>2022-02-25T07:39:24.477Z</time>
      </trkpt>
      <trkpt lat="36.263" lon="32.36293">
        <ele>40.182277</ele>
        <time>2022-02-25T07:39:29.012Z</time>
      </trkpt>
      <trkpt lat="36.26282" lon="32.36268">
        <ele>39.669522</ele>
        <time>2022-02-25T07:39:34.799Z</time>
      </trkpt>
      <trkpt lat="36.26237" lon="32.36169">
        <ele>37.901365</ele>
        <time>2022-02-25T07:39:56.418Z</time>
      </trkpt>
      <trkpt lat="36.2619" lon="32.36049">
        <ele>36.594235</ele>
        <time>2022-02-25T07:40:22.646Z</time>
      </trkpt>
      <trkpt lat="36.26117" lon="32.3584">
        <ele>34.798191</ele>
        <time>2022-02-25T07:41:07.301Z</time>
      </trkpt>
      <trkpt lat="36.26062" lon="32.35637">
        <ele>33.358</ele>
        <time>2022-02-25T07:41:49.276Z</time>
      </trkpt>
      <trkpt lat="36.26048" lon="32.35587">
        <ele>33.077321</ele>
        <time>2022-02-25T07:42:00.296Z</time>
      </trkpt>
      <trkpt lat="36.2604" lon="32.3554">
        <ele>32.82647</ele>
        <time>2022-02-25T07:42:10.374Z</time>
      </trkpt>
      <trkpt lat="36.26028" lon="32.35382">
        <ele>32.290768</ele>
        <time>2022-02-25T07:42:44.686Z</time>
      </trkpt>
      <trkpt lat="36.26014" lon="32.35022">
        <ele>30.864876</ele>
        <time>2022-02-25T07:43:59.333Z</time>
      </trkpt>
      <trkpt lat="36.25999" lon="32.34914">
        <ele>30.335125</ele>
        <time>2022-02-25T07:44:21.906Z</time>
      </trkpt>
      <trkpt lat="36.25984" lon="32.3487">
        <ele>30.10566</ele>
        <time>2022-02-25T07:44:31.533Z</time>
      </trkpt>
      <trkpt lat="36.25976" lon="32.348">
        <ele>29.576368</ele>
        <time>2022-02-25T07:44:45.657Z</time>
      </trkpt>
      <trkpt lat="36.25974" lon="32.34742">
        <ele>29.075458</ele>
        <time>2022-02-25T07:44:57.190Z</time>
      </trkpt>
      <trkpt lat="36.25975" lon="32.34523">
        <ele>27.079945</ele>
        <time>2022-02-25T07:45:38.677Z</time>
      </trkpt>
      <trkpt lat="36.25984" lon="32.3443">
        <ele>26.169282</ele>
        <time>2022-02-25T07:45:56.573Z</time>
      </trkpt>
      <trkpt lat="36.25996" lon="32.34364">
        <ele>25.687942</ele>
        <time>2022-02-25T07:46:09.805Z</time>
      </trkpt>
      <trkpt lat="36.26027" lon="32.34238">
        <ele>24.936508</ele>
        <time>2022-02-25T07:46:36.457Z</time>
      </trkpt>
      <trkpt lat="36.26056" lon="32.34155">
        <ele>24.537741</ele>
        <time>2022-02-25T07:46:55.518Z</time>
      </trkpt>
      <trkpt lat="36.26076" lon="32.34064">
        <ele>24.267239</ele>
        <time>2022-02-25T07:47:15.325Z</time>
      </trkpt>
      <trkpt lat="36.26086" lon="32.34019">
        <ele>24.132867</ele>
        <time>2022-02-25T07:47:25.228Z</time>
      </trkpt>
      <trkpt lat="36.26116" lon="32.3402">
        <ele>24.026263</ele>
        <time>2022-02-25T07:47:33.165Z</time>
      </trkpt>
      <trkpt lat="36.26148" lon="32.34015">
        <ele>23.96773</ele>
        <time>2022-02-25T07:47:41.892Z</time>
      </trkpt>
      <trkpt lat="36.26148" lon="32.33974">
        <ele>23.912435</ele>
        <time>2022-02-25T07:47:53.172Z</time>
      </trkpt>
      <trkpt lat="36.26159" lon="32.33934">
        <ele>23.855377</ele>
        <time>2022-02-25T07:48:04.826Z</time>
      </trkpt>
      <trkpt lat="36.26203" lon="32.33818">
        <ele>23.714966</ele>
        <time>2022-02-25T07:48:40.313Z</time>
      </trkpt>
      <trkpt lat="36.26221" lon="32.3372">
        <ele>23.707956</ele>
        <time>2022-02-25T07:49:08.874Z</time>
      </trkpt>
      <trkpt lat="36.26231" lon="32.33431">
        <ele>23.961951</ele>
        <time>2022-02-25T07:50:31.678Z</time>
      </trkpt>
      <trkpt lat="36.26263" lon="32.33369">
        <ele>24.020943</ele>
        <time>2022-02-25T07:50:53.696Z</time>
      </trkpt>
      <trkpt lat="36.2629" lon="32.33289">
        <ele>24.055575</ele>
        <time>2022-02-25T07:51:19.200Z</time>
      </trkpt>
      <trkpt lat="36.26311" lon="32.33211">
        <ele>24.088838</ele>
        <time>2022-02-25T07:51:42.128Z</time>
      </trkpt>
      <trkpt lat="36.26346" lon="32.33181">
        <ele>23.792822</ele>
        <time>2022-02-25T07:51:56.176Z</time>
      </trkpt>
      <trkpt lat="36.26331" lon="32.33154">
        <ele>23.558053</ele>
        <time>2022-02-25T07:52:04.349Z</time>
      </trkpt>
      <trkpt lat="36.26321" lon="32.33132">
        <ele>23.373</ele>
        <time>2022-02-25T07:52:10.923Z</time>
      </trkpt>
      <trkpt lat="36.26328" lon="32.33104">
        <ele>23.156396</ele>
        <time>2022-02-25T07:52:18.452Z</time>
      </trkpt>
      <trkpt lat="36.26319" lon="32.33014">
        <ele>22.489429</ele>
        <time>2022-02-25T07:52:41.033Z</time>
      </trkpt>
      <trkpt lat="36.26342" lon="32.32943">
        <ele>21.654253</ele>
        <time>2022-02-25T07:52:59.226Z</time>
      </trkpt>
      <trkpt lat="36.26375" lon="32.32859">
        <ele>20.600877</ele>
        <time>2022-02-25T07:53:21.775Z</time>
      </trkpt>
      <trkpt lat="36.26383" lon="32.32839">
        <ele>20.358117</ele>
        <time>2022-02-25T07:53:27.093Z</time>
      </trkpt>
      <trkpt lat="36.26412" lon="32.3277">
        <ele>19.947745</ele>
        <time>2022-02-25T07:53:42.339Z</time>
      </trkpt>
      <trkpt lat="36.26425" lon="32.32741">
        <ele>19.944272</ele>
        <time>2022-02-25T07:53:49.027Z</time>
      </trkpt>
      <trkpt lat="36.26428" lon="32.32713">
        <ele>19.941299</ele>
        <time>2022-02-25T07:53:55.003Z</time>
      </trkpt>
      <trkpt lat="36.26427" lon="32.32618">
        <ele>19.931202</ele>
        <time>2022-02-25T07:54:17.391Z</time>
      </trkpt>
      <trkpt lat="36.26437" lon="32.32583">
        <ele>20.064438</ele>
        <time>2022-02-25T07:54:27.282Z</time>
      </trkpt>
      <trkpt lat="36.26505" lon="32.32467">
        <ele>21.620706</ele>
        <time>2022-02-25T07:55:09.008Z</time>
      </trkpt>
      <trkpt lat="36.26517" lon="32.32447">
        <ele>21.885278</ele>
        <time>2022-02-25T07:55:15.823Z</time>
      </trkpt>
      <trkpt lat="36.26535" lon="32.32417">
        <ele>22.296629</ele>
        <time>2022-02-25T07:55:26.218Z</time>
      </trkpt>
      <trkpt lat="36.26548" lon="32.32396">
        <ele>22.319723</ele>
        <time>2022-02-25T07:55:33.113Z</time>
      </trkpt>
      <trkpt lat="36.26573" lon="32.32374">
        <ele>22.270743</ele>
        <time>2022-02-25T07:55:42.327Z</time>
      </trkpt>
      <trkpt lat="36.26585" lon="32.3237">
        <ele>22.25011</ele>
        <time>2022-02-25T07:55:46.243Z</time>
      </trkpt>
      <trkpt lat="36.26611" lon="32.32361">
        <ele>22.208002</ele>
        <time>2022-02-25T07:55:53.467Z</time>
      </trkpt>
      <trkpt lat="36.26667" lon="32.32341">
        <ele>22.114104</ele>
        <time>2022-02-25T07:56:08.513Z</time>
      </trkpt>
      <trkpt lat="36.2672" lon="32.32318">
        <ele>21.83362</ele>
        <time>2022-02-25T07:56:21.853Z</time>
      </trkpt>
      <trkpt lat="36.26696" lon="32.32265">
        <ele>21.324563</ele>
        <time>2022-02-25T07:56:32.980Z</time>
      </trkpt>
      <trkpt lat="36.26693" lon="32.32225">
        <ele>20.988795</ele>
        <time>2022-02-25T07:56:40.374Z</time>
      </trkpt>
      <trkpt lat="36.26711" lon="32.3222">
        <ele>20.795964</ele>
        <time>2022-02-25T07:56:44.531Z</time>
      </trkpt>
      <trkpt lat="36.26722" lon="32.32213">
        <ele>20.663879</ele>
        <time>2022-02-25T07:56:47.684Z</time>
      </trkpt>
      <trkpt lat="36.26723" lon="32.32196">
        <ele>20.520906</ele>
        <time>2022-02-25T07:56:50.693Z</time>
      </trkpt>
      <trkpt lat="36.26746" lon="32.3212">
        <ele>20.322037</ele>
        <time>2022-02-25T07:57:07.956Z</time>
      </trkpt>
      <trkpt lat="36.26765" lon="32.32056">
        <ele>20.545744</ele>
        <time>2022-02-25T07:57:24.570Z</time>
      </trkpt>
      <trkpt lat="36.2679" lon="32.3206">
        <ele>20.649463</ele>
        <time>2022-02-25T07:57:32.349Z</time>
      </trkpt>
      <trkpt lat="36.26804" lon="32.3206">
        <ele>20.706054</ele>
        <time>2022-02-25T07:57:37.154Z</time>
      </trkpt>
      <trkpt lat="36.26817" lon="32.32059">
        <ele>20.759453</ele>
        <time>2022-02-25T07:57:41.065Z</time>
      </trkpt>
      <trkpt lat="36.26826" lon="32.32056">
        <ele>20.79889</ele>
        <time>2022-02-25T07:57:43.970Z</time>
      </trkpt>
      <trkpt lat="36.26835" lon="32.32052">
        <ele>20.837106</ele>
        <time>2022-02-25T07:57:47.129Z</time>
      </trkpt>
      <trkpt lat="36.26874" lon="32.3204">
        <ele>20.867045</ele>
        <time>2022-02-25T07:57:58.902Z</time>
      </trkpt>
      <trkpt lat="36.26863" lon="32.31956">
        <ele>20.683575</ele>
        <time>2022-02-25T07:58:17.664Z</time>
      </trkpt>
      <trkpt lat="36.26861" lon="32.31938">
        <ele>20.645037</ele>
        <time>2022-02-25T07:58:21.120Z</time>
      </trkpt>
      <trkpt lat="36.2686" lon="32.31929">
        <ele>20.625022</ele>
        <time>2022-02-25T07:58:22.918Z</time>
      </trkpt>
      <trkpt lat="36.26858" lon="32.31911">
        <ele>20.586523</ele>
        <time>2022-02-25T07:58:26.932Z</time>
      </trkpt>
      <trkpt lat="36.26855" lon="32.31888">
        <ele>20.536043</ele>
        <time>2022-02-25T07:58:31.274Z</time>
      </trkpt>
      <trkpt lat="36.2685" lon="32.31845">
        <ele>20.44294</ele>
        <time>2022-02-25T07:58:39.428Z</time>
      </trkpt>
      <trkpt lat="36.26849" lon="32.31837">
        <ele>20.411292</ele>
        <time>2022-02-25T07:58:40.911Z</time>
      </trkpt>
      <trkpt lat="36.26846" lon="32.31816">
        <ele>20.317499</ele>
        <time>2022-02-25T07:58:44.946Z</time>
      </trkpt>
      <trkpt lat="36.26845" lon="32.31801">
        <ele>20.249024</ele>
        <time>2022-02-25T07:58:47.760Z</time>
      </trkpt>
      <trkpt lat="36.26844" lon="32.31795">
        <ele>20.225886</ele>
        <time>2022-02-25T07:58:48.732Z</time>
      </trkpt>
      <trkpt lat="36.2684" lon="32.3175">
        <ele>20.025533</ele>
        <time>2022-02-25T07:58:57.174Z</time>
      </trkpt>
      <trkpt lat="36.26862" lon="32.31746">
        <ele>19.904494</ele>
        <time>2022-02-25T07:59:02.484Z</time>
      </trkpt>
      <trkpt lat="36.26876" lon="32.31743">
        <ele>19.825157</ele>
        <time>2022-02-25T07:59:05.969Z</time>
      </trkpt>
      <trkpt lat="36.26903" lon="32.31738">
        <ele>19.676363</ele>
        <time>2022-02-25T07:59:12.893Z</time>
      </trkpt>
      <trkpt lat="36.26926" lon="32.31733">
        <ele>19.54869</ele>
        <time>2022-02-25T07:59:19.015Z</time>
      </trkpt>
      <trkpt lat="36.26963" lon="32.31733">
        <ele>19.464191</ele>
        <time>2022-02-25T07:59:29.079Z</time>
      </trkpt>
      <trkpt lat="36.26977" lon="32.3173">
        <ele>19.471997</ele>
        <time>2022-02-25T07:59:33.159Z</time>
      </trkpt>
      <trkpt lat="36.26998" lon="32.31721">
        <ele>19.48327</ele>
        <time>2022-02-25T07:59:39.141Z</time>
      </trkpt>
      <trkpt lat="36.27015" lon="32.31709">
        <ele>19.493938</ele>
        <time>2022-02-25T07:59:44.634Z</time>
      </trkpt>
      <trkpt lat="36.27039" lon="32.31705">
        <ele>19.506499</ele>
        <time>2022-02-25T07:59:51.127Z</time>
      </trkpt>
      <trkpt lat="36.27056" lon="32.31703">
        <ele>19.515712</ele>
        <time>2022-02-25T07:59:55.745Z</time>
      </trkpt>
      <trkpt lat="36.27091" lon="32.31703">
        <ele>19.534293</ele>
        <time>2022-02-25T08:00:05.149Z</time>
      </trkpt>
      <trkpt lat="36.27166" lon="32.31699">
        <ele>19.865449</ele>
        <time>2022-02-25T08:00:25.118Z</time>
      </trkpt>
      <trkpt lat="36.27172" lon="32.31685">
        <ele>19.954338</ele>
        <time>2022-02-25T08:00:28.871Z</time>
      </trkpt>
      <trkpt lat="36.27178" lon="32.31676">
        <ele>20.019746</ele>
        <time>2022-02-25T08:00:31.539Z</time>
      </trkpt>
      <trkpt lat="36.27181" lon="32.31671">
        <ele>20.052181</ele>
        <time>2022-02-25T08:00:32.866Z</time>
      </trkpt>
      <trkpt lat="36.27195" lon="32.31639">
        <ele>20.249538</ele>
        <time>2022-02-25T08:00:41.340Z</time>
      </trkpt>
      <trkpt lat="36.27204" lon="32.31618">
        <ele>20.376846</ele>
        <time>2022-02-25T08:00:46.971Z</time>
      </trkpt>
      <trkpt lat="36.27209" lon="32.31611">
        <ele>20.425392</ele>
        <time>2022-02-25T08:00:49.311Z</time>
      </trkpt>
      <trkpt lat="36.27218" lon="32.31597">
        <ele>20.527815</ele>
        <time>2022-02-25T08:00:54.070Z</time>
      </trkpt>
      <trkpt lat="36.27243" lon="32.31548">
        <ele>21.060335</ele>
        <time>2022-02-25T08:01:09.373Z</time>
      </trkpt>
      <trkpt lat="36.27251" lon="32.31531">
        <ele>21.45568</ele>
        <time>2022-02-25T08:01:15.078Z</time>
      </trkpt>
      <trkpt lat="36.27256" lon="32.31522">
        <ele>21.687456</ele>
        <time>2022-02-25T08:01:18.458Z</time>
      </trkpt>
      <trkpt lat="36.2729" lon="32.31458">
        <ele>23.231275</ele>
        <time>2022-02-25T08:01:42.428Z</time>
      </trkpt>
      <trkpt lat="36.27298" lon="32.3144">
        <ele>23.659438</ele>
        <time>2022-02-25T08:01:49.431Z</time>
      </trkpt>
      <trkpt lat="36.27322" lon="32.31386">
        <ele>24.90696</ele>
        <time>2022-02-25T08:02:09.973Z</time>
      </trkpt>
      <trkpt lat="36.27342" lon="32.31355">
        <ele>25.567769</ele>
        <time>2022-02-25T08:02:23.502Z</time>
      </trkpt>
      <trkpt lat="36.27357" lon="32.31332">
        <ele>25.969462</ele>
        <time>2022-02-25T08:02:33.225Z</time>
      </trkpt>
      <trkpt lat="36.27392" lon="32.3129">
        <ele>26.78346</ele>
        <time>2022-02-25T08:02:51.604Z</time>
      </trkpt>
      <trkpt lat="36.27407" lon="32.31276">
        <ele>27.105773</ele>
        <time>2022-02-25T08:02:58.403Z</time>
      </trkpt>
      <trkpt lat="36.27413" lon="32.31268">
        <ele>27.247904</ele>
        <time>2022-02-25T08:03:01.259Z</time>
      </trkpt>
      <trkpt lat="36.27442" lon="32.31229">
        <ele>27.955875</ele>
        <time>2022-02-25T08:03:14.584Z</time>
      </trkpt>
      <trkpt lat="36.27482" lon="32.31161">
        <ele>27.976364</ele>
        <time>2022-02-25T08:03:31.536Z</time>
      </trkpt>
      <trkpt lat="36.27534" lon="32.31074">
        <ele>27.395967</ele>
        <time>2022-02-25T08:03:52.265Z</time>
      </trkpt>
      <trkpt lat="36.27538" lon="32.31068">
        <ele>27.357412</ele>
        <time>2022-02-25T08:03:53.529Z</time>
      </trkpt>
      <trkpt lat="36.27569" lon="32.31014">
        <ele>26.930964</ele>
        <time>2022-02-25T08:04:05.959Z</time>
      </trkpt>
      <trkpt lat="36.27572" lon="32.31006">
        <ele>26.856271</ele>
        <time>2022-02-25T08:04:07.483Z</time>
      </trkpt>
      <trkpt lat="36.27621" lon="32.30965">
        <ele>26.190096</ele>
        <time>2022-02-25T08:04:21.224Z</time>
      </trkpt>
      <trkpt lat="36.27641" lon="32.30943">
        <ele>25.897053</ele>
        <time>2022-02-25T08:04:26.930Z</time>
      </trkpt>
      <trkpt lat="36.27647" lon="32.3094">
        <ele>25.825131</ele>
        <time>2022-02-25T08:04:28.386Z</time>
      </trkpt>
      <trkpt lat="36.27658" lon="32.30932">
        <ele>25.676534</ele>
        <time>2022-02-25T08:04:31.275Z</time>
      </trkpt>
      <trkpt lat="36.2769" lon="32.309">
        <ele>25.215639</ele>
        <time>2022-02-25T08:04:40.615Z</time>
      </trkpt>
      <trkpt lat="36.27713" lon="32.30878">
        <ele>24.900877</ele>
        <time>2022-02-25T08:04:47.593Z</time>
      </trkpt>
      <trkpt lat="36.27736" lon="32.30847">
        <ele>24.524084</ele>
        <time>2022-02-25T08:04:55.829Z</time>
      </trkpt>
      <trkpt lat="36.27751" lon="32.30824">
        <ele>24.265624</ele>
        <time>2022-02-25T08:05:01.096Z</time>
      </trkpt>
      <trkpt lat="36.27775" lon="32.30796">
        <ele>23.902553</ele>
        <time>2022-02-25T08:05:08.539Z</time>
      </trkpt>
      <trkpt lat="36.27845" lon="32.30728">
        <ele>23.078505</ele>
        <time>2022-02-25T08:05:28.586Z</time>
      </trkpt>
      <trkpt lat="36.27823" lon="32.3069">
        <ele>22.979506</ele>
        <time>2022-02-25T08:05:38.113Z</time>
      </trkpt>
      <trkpt lat="36.27813" lon="32.30667">
        <ele>22.923292</ele>
        <time>2022-02-25T08:05:43.955Z</time>
      </trkpt>
      <trkpt lat="36.2781" lon="32.30661">
        <ele>22.908897</ele>
        <time>2022-02-25T08:05:45.454Z</time>
      </trkpt>
      <trkpt lat="36.27781" lon="32.30608">
        <ele>22.774152</ele>
        <time>2022-02-25T08:06:01.029Z</time>
      </trkpt>
      <trkpt lat="36.27754" lon="32.30565">
        <ele>22.659643</ele>
        <time>2022-02-25T08:06:12.932Z</time>
      </trkpt>
      <trkpt lat="36.27818" lon="32.30497">
        <ele>22.583633</ele>
        <time>2022-02-25T08:06:35.096Z</time>
      </trkpt>
      <trkpt lat="36.27826" lon="32.30489">
        <ele>22.574515</ele>
        <time>2022-02-25T08:06:38.340Z</time>
      </trkpt>
      <trkpt lat="36.27978" lon="32.30329">
        <ele>22.616706</ele>
        <time>2022-02-25T08:07:33.518Z</time>
      </trkpt>
      <trkpt lat="36.28121" lon="32.30183">
        <ele>23.076271</ele>
        <time>2022-02-25T08:08:27.637Z</time>
      </trkpt>
      <trkpt lat="36.28239" lon="32.30056">
        <ele>24.158916</ele>
        <time>2022-02-25T08:09:14.377Z</time>
      </trkpt>
      <trkpt lat="36.28406" lon="32.29881">
        <ele>26.550058</ele>
        <time>2022-02-25T08:10:30.355Z</time>
      </trkpt>
      <trkpt lat="36.28473" lon="32.29807">
        <ele>26.855611</ele>
        <time>2022-02-25T08:10:58.276Z</time>
      </trkpt>
      <trkpt lat="36.28512" lon="32.29766">
        <ele>26.511549</ele>
        <time>2022-02-25T08:11:11.875Z</time>
      </trkpt>
      <trkpt lat="36.28563" lon="32.29714">
        <ele>26.07348</ele>
        <time>2022-02-25T08:11:27.501Z</time>
      </trkpt>
      <trkpt lat="36.28929" lon="32.29339">
        <ele>15.738752</ele>
        <time>2022-02-25T08:13:09.589Z</time>
      </trkpt>
      <trkpt lat="36.28929" lon="32.29312">
        <ele>15.336964</ele>
        <time>2022-02-25T08:13:14.721Z</time>
      </trkpt>
      <trkpt lat="36.28942" lon="32.29296">
        <ele>15.011429</ele>
        <time>2022-02-25T08:13:18.742Z</time>
      </trkpt>
      <trkpt lat="36.29026" lon="32.29208">
        <ele>13.557478</ele>
        <time>2022-02-25T08:13:43.815Z</time>
      </trkpt>
      <trkpt lat="36.29054" lon="32.29178">
        <ele>13.21081</ele>
        <time>2022-02-25T08:13:52.551Z</time>
      </trkpt>
      <trkpt lat="36.29102" lon="32.29124">
        <ele>12.596517</ele>
        <time>2022-02-25T08:14:07.874Z</time>
      </trkpt>
      <trkpt lat="36.29143" lon="32.29079">
        <ele>12.306004</ele>
        <time>2022-02-25T08:14:20.643Z</time>
      </trkpt>
      <trkpt lat="36.29197" lon="32.29015">
        <ele>12.014488</ele>
        <time>2022-02-25T08:14:38.595Z</time>
      </trkpt>
      <trkpt lat="36.29216" lon="32.28989">
        <ele>11.903148</ele>
        <time>2022-02-25T08:14:46.103Z</time>
      </trkpt>
      <trkpt lat="36.293" lon="32.28887">
        <ele>12.097385</ele>
        <time>2022-02-25T08:15:20.315Z</time>
      </trkpt>
      <trkpt lat="36.29322" lon="32.28887">
        <ele>12.188366</ele>
        <time>2022-02-25T08:15:26.888Z</time>
      </trkpt>
      <trkpt lat="36.29371" lon="32.28828">
        <ele>12.474087</ele>
        <time>2022-02-25T08:15:46.636Z</time>
      </trkpt>
      <trkpt lat="36.29404" lon="32.28805">
        <ele>12.347535</ele>
        <time>2022-02-25T08:15:56.717Z</time>
      </trkpt>
      <trkpt lat="36.29432" lon="32.28791">
        <ele>12.179922</ele>
        <time>2022-02-25T08:16:04.706Z</time>
      </trkpt>
      <trkpt lat="36.29461" lon="32.28782">
        <ele>12.013839</ele>
        <time>2022-02-25T08:16:12.381Z</time>
      </trkpt>
      <trkpt lat="36.29472" lon="32.28775">
        <ele>11.946416</ele>
        <time>2022-02-25T08:16:15.242Z</time>
      </trkpt>
      <trkpt lat="36.29484" lon="32.28762">
        <ele>11.859776</ele>
        <time>2022-02-25T08:16:18.988Z</time>
      </trkpt>
      <trkpt lat="36.29488" lon="32.28754">
        <ele>11.814931</ele>
        <time>2022-02-25T08:16:21.026Z</time>
      </trkpt>
      <trkpt lat="36.2949" lon="32.28741">
        <ele>11.759883</ele>
        <time>2022-02-25T08:16:23.272Z</time>
      </trkpt>
      <trkpt lat="36.29484" lon="32.28707">
        <ele>11.605155</ele>
        <time>2022-02-25T08:16:29.704Z</time>
      </trkpt>
      <trkpt lat="36.29478" lon="32.28671">
        <ele>11.344337</ele>
        <time>2022-02-25T08:16:36.443Z</time>
      </trkpt>
      <trkpt lat="36.29486" lon="32.28644">
        <ele>11.057487</ele>
        <time>2022-02-25T08:16:41.549Z</time>
      </trkpt>
      <trkpt lat="36.29584" lon="32.28453">
        <ele>8.981514</ele>
        <time>2022-02-25T08:17:22.655Z</time>
      </trkpt>
      <trkpt lat="36.29633" lon="32.28344">
        <ele>8.158555</ele>
        <time>2022-02-25T08:17:46.373Z</time>
      </trkpt>
      <trkpt lat="36.29686" lon="32.28205">
        <ele>7.650943</ele>
        <time>2022-02-25T08:18:17.222Z</time>
      </trkpt>
      <trkpt lat="36.29757" lon="32.27979">
        <ele>7.537449</ele>
        <time>2022-02-25T08:19:09.808Z</time>
      </trkpt>
      <trkpt lat="36.2979" lon="32.27858">
        <ele>7.677353</ele>
        <time>2022-02-25T08:19:37.788Z</time>
      </trkpt>
      <trkpt lat="36.29799" lon="32.27831">
        <ele>7.74951</ele>
        <time>2022-02-25T08:19:44.387Z</time>
      </trkpt>
      <trkpt lat="36.29815" lon="32.27778">
        <ele>7.890661</ele>
        <time>2022-02-25T08:19:57.337Z</time>
      </trkpt>
      <trkpt lat="36.29822" lon="32.27741">
        <ele>7.984109</ele>
        <time>2022-02-25T08:20:06.072Z</time>
      </trkpt>
      <trkpt lat="36.29907" lon="32.27484">
        <ele>8.801958</ele>
        <time>2022-02-25T08:21:10.561Z</time>
      </trkpt>
      <trkpt lat="36.29931" lon="32.27404">
        <ele>8.76406</ele>
        <time>2022-02-25T08:21:29.096Z</time>
      </trkpt>
      <trkpt lat="36.29966" lon="32.27275">
        <ele>8.587432</ele>
        <time>2022-02-25T08:21:56.940Z</time>
      </trkpt>
      <trkpt lat="36.29975" lon="32.27226">
        <ele>8.555852</ele>
        <time>2022-02-25T08:22:07.154Z</time>
      </trkpt>
      <trkpt lat="36.29996" lon="32.27114">
        <ele>8.528332</ele>
        <time>2022-02-25T08:22:31.428Z</time>
      </trkpt>
      <trkpt lat="36.30008" lon="32.2704">
        <ele>8.50997</ele>
        <time>2022-02-25T08:22:48.012Z</time>
      </trkpt>
      <trkpt lat="36.3001" lon="32.27029">
        <ele>8.533086</ele>
        <time>2022-02-25T08:22:50.621Z</time>
      </trkpt>
      <trkpt lat="36.30026" lon="32.2696">
        <ele>8.694134</ele>
        <time>2022-02-25T08:23:07.051Z</time>
      </trkpt>
      <trkpt lat="36.30041" lon="32.26918">
        <ele>8.795619</ele>
        <time>2022-02-25T08:23:17.668Z</time>
      </trkpt>
      <trkpt lat="36.30119" lon="32.26765">
        <ele>9.17164</ele>
        <time>2022-02-25T08:23:58.194Z</time>
      </trkpt>
      <trkpt lat="36.3015" lon="32.26682">
        <ele>9.346816</ele>
        <time>2022-02-25T08:24:17.870Z</time>
      </trkpt>
      <trkpt lat="36.30152" lon="32.26677">
        <ele>9.358651</ele>
        <time>2022-02-25T08:24:18.988Z</time>
      </trkpt>
      <trkpt lat="36.30224" lon="32.2644">
        <ele>10.724749</ele>
        <time>2022-02-25T08:25:20.621Z</time>
      </trkpt>
      <trkpt lat="36.30242" lon="32.26374">
        <ele>11.268464</ele>
        <time>2022-02-25T08:25:39.041Z</time>
      </trkpt>
      <trkpt lat="36.3029" lon="32.26222">
        <ele>12.57773</ele>
        <time>2022-02-25T08:26:20.370Z</time>
      </trkpt>
      <trkpt lat="36.30321" lon="32.26134">
        <ele>13.444247</ele>
        <time>2022-02-25T08:26:43.347Z</time>
      </trkpt>
      <trkpt lat="36.30349" lon="32.26075">
        <ele>14.060135</ele>
        <time>2022-02-25T08:27:00.812Z</time>
      </trkpt>
      <trkpt lat="36.30406" lon="32.25988">
        <ele>15.654053</ele>
        <time>2022-02-25T08:27:31.965Z</time>
      </trkpt>
      <trkpt lat="36.30594" lon="32.25788">
        <ele>22.484855</ele>
        <time>2022-02-25T08:29:11.696Z</time>
      </trkpt>
      <trkpt lat="36.30699" lon="32.25651">
        <ele>26.403324</ele>
        <time>2022-02-25T08:30:17.756Z</time>
      </trkpt>
      <trkpt lat="36.30795" lon="32.25578">
        <ele>27.99827</ele>
        <time>2022-02-25T08:30:57.583Z</time>
      </trkpt>
      <trkpt lat="36.30881" lon="32.25488">
        <ele>24.58012</ele>
        <time>2022-02-25T08:31:19.806Z</time>
      </trkpt>
      <trkpt lat="36.30911" lon="32.25442">
        <ele>23.143661</ele>
        <time>2022-02-25T08:31:28.219Z</time>
      </trkpt>
      <trkpt lat="36.30957" lon="32.25338">
        <ele>18.669084</ele>
        <time>2022-02-25T08:31:44.980Z</time>
      </trkpt>
      <trkpt lat="36.30971" lon="32.25289">
        <ele>16.626476</ele>
        <time>2022-02-25T08:31:52.591Z</time>
      </trkpt>
      <trkpt lat="36.30977" lon="32.25245">
        <ele>14.91074</ele>
        <time>2022-02-25T08:31:59.411Z</time>
      </trkpt>
      <trkpt lat="36.3097" lon="32.25201">
        <ele>14.751603</ele>
        <time>2022-02-25T08:32:06.832Z</time>
      </trkpt>
      <trkpt lat="36.3095" lon="32.2515">
        <ele>15.300419</ele>
        <time>2022-02-25T08:32:19.170Z</time>
      </trkpt>
      <trkpt lat="36.30916" lon="32.25098">
        <ele>15.932967</ele>
        <time>2022-02-25T08:32:38.952Z</time>
      </trkpt>
      <trkpt lat="36.30894" lon="32.25047">
        <ele>16.487977</ele>
        <time>2022-02-25T08:32:59.190Z</time>
      </trkpt>
      <trkpt lat="36.30885" lon="32.2501">
        <ele>17.761577</ele>
        <time>2022-02-25T08:33:13.742Z</time>
      </trkpt>
      <trkpt lat="36.30887" lon="32.24978">
        <ele>19.039759</ele>
        <time>2022-02-25T08:33:26.229Z</time>
      </trkpt>
      <trkpt lat="36.30912" lon="32.24928">
        <ele>21.447074</ele>
        <time>2022-02-25T08:33:50.786Z</time>
      </trkpt>
      <trkpt lat="36.30948" lon="32.249">
        <ele>23.564221</ele>
        <time>2022-02-25T08:34:13.417Z</time>
      </trkpt>
      <trkpt lat="36.30988" lon="32.24878">
        <ele>25.767024</ele>
        <time>2022-02-25T08:34:37.201Z</time>
      </trkpt>
      <trkpt lat="36.3102" lon="32.24851">
        <ele>27.923761</ele>
        <time>2022-02-25T08:34:57.955Z</time>
      </trkpt>
      <trkpt lat="36.31042" lon="32.2482">
        <ele>29.773946</ele>
        <time>2022-02-25T08:35:15.418Z</time>
      </trkpt>
      <trkpt lat="36.31073" lon="32.24738">
        <ele>33.831675</ele>
        <time>2022-02-25T08:35:53.822Z</time>
      </trkpt>
      <trkpt lat="36.31095" lon="32.24711">
        <ele>35.574514</ele>
        <time>2022-02-25T08:36:10.801Z</time>
      </trkpt>
      <trkpt lat="36.31155" lon="32.24688">
        <ele>38.545503</ele>
        <time>2022-02-25T08:36:45.637Z</time>
      </trkpt>
      <trkpt lat="36.3134" lon="32.24679">
        <ele>44.507612</ele>
        <time>2022-02-25T08:38:12.239Z</time>
      </trkpt>
      <trkpt lat="36.31387" lon="32.24683">
        <ele>44.765458</ele>
        <time>2022-02-25T08:38:24.874Z</time>
      </trkpt>
      <trkpt lat="36.31445" lon="32.24674">
        <ele>45.082974</ele>
        <time>2022-02-25T08:38:37.157Z</time>
      </trkpt>
      <trkpt lat="36.31474" lon="32.24659">
        <ele>44.076843</ele>
        <time>2022-02-25T08:38:43.222Z</time>
      </trkpt>
      <trkpt lat="36.31619" lon="32.24515">
        <ele>36.413226</ele>
        <time>2022-02-25T08:39:17.214Z</time>
      </trkpt>
      <trkpt lat="36.31681" lon="32.24427">
        <ele>33.10429</ele>
        <time>2022-02-25T08:39:35.539Z</time>
      </trkpt>
      <trkpt lat="36.31689" lon="32.24418">
        <ele>32.733235</ele>
        <time>2022-02-25T08:39:37.569Z</time>
      </trkpt>
      <trkpt lat="36.31782" lon="32.24313">
        <ele>28.002649</ele>
        <time>2022-02-25T08:40:02.568Z</time>
      </trkpt>
      <trkpt lat="36.31819" lon="32.2426">
        <ele>25.84126</ele>
        <time>2022-02-25T08:40:12.952Z</time>
      </trkpt>
      <trkpt lat="36.31889" lon="32.2411">
        <ele>20.179767</ele>
        <time>2022-02-25T08:40:38.477Z</time>
      </trkpt>
      <trkpt lat="36.31898" lon="32.24083">
        <ele>19.218838</ele>
        <time>2022-02-25T08:40:42.724Z</time>
      </trkpt>
      <trkpt lat="36.31904" lon="32.2404">
        <ele>17.755552</ele>
        <time>2022-02-25T08:40:49.341Z</time>
      </trkpt>
      <trkpt lat="36.3186" lon="32.23893">
        <ele>16.456573</ele>
        <time>2022-02-25T08:41:16.310Z</time>
      </trkpt>
      <trkpt lat="36.31862" lon="32.23857">
        <ele>16.367554</ele>
        <time>2022-02-25T08:41:25.264Z</time>
      </trkpt>
      <trkpt lat="36.3188" lon="32.23755">
        <ele>17.47889</ele>
        <time>2022-02-25T08:41:57.202Z</time>
      </trkpt>
      <trkpt lat="36.31901" lon="32.23676">
        <ele>19.833196</ele>
        <time>2022-02-25T08:42:28.322Z</time>
      </trkpt>
      <trkpt lat="36.31916" lon="32.23649">
        <ele>20.769202</ele>
        <time>2022-02-25T08:42:41.557Z</time>
      </trkpt>
      <trkpt lat="36.31936" lon="32.23634">
        <ele>21.576584</ele>
        <time>2022-02-25T08:42:51.334Z</time>
      </trkpt>
      <trkpt lat="36.31958" lon="32.23626">
        <ele>22.39961</ele>
        <time>2022-02-25T08:43:01.329Z</time>
      </trkpt>
      <trkpt lat="36.31985" lon="32.23627">
        <ele>23.098212</ele>
        <time>2022-02-25T08:43:14.426Z</time>
      </trkpt>
      <trkpt lat="36.31987" lon="32.23627">
        <ele>23.143984</ele>
        <time>2022-02-25T08:43:14.779Z</time>
      </trkpt>
      <trkpt lat="36.32007" lon="32.2363">
        <ele>23.632424</ele>
        <time>2022-02-25T08:43:23.641Z</time>
      </trkpt>
      <trkpt lat="36.32022" lon="32.23622">
        <ele>24.007307</ele>
        <time>2022-02-25T08:43:29.934Z</time>
      </trkpt>
      <trkpt lat="36.32036" lon="32.23601">
        <ele>24.541</ele>
        <time>2022-02-25T08:43:38.936Z</time>
      </trkpt>
      <trkpt lat="36.32037" lon="32.23581">
        <ele>24.935918</ele>
        <time>2022-02-25T08:43:44.875Z</time>
      </trkpt>
      <trkpt lat="36.32025" lon="32.23547">
        <ele>25.660127</ele>
        <time>2022-02-25T08:43:56.857Z</time>
      </trkpt>
      <trkpt lat="36.32022" lon="32.23515">
        <ele>26.287948</ele>
        <time>2022-02-25T08:44:05.794Z</time>
      </trkpt>
      <trkpt lat="36.32025" lon="32.23487">
        <ele>26.831037</ele>
        <time>2022-02-25T08:44:13.062Z</time>
      </trkpt>
      <trkpt lat="36.3204" lon="32.23466">
        <ele>26.633423</ele>
        <time>2022-02-25T08:44:20.098Z</time>
      </trkpt>
      <trkpt lat="36.32064" lon="32.23455">
        <ele>26.351484</ele>
        <time>2022-02-25T08:44:27.420Z</time>
      </trkpt>
      <trkpt lat="36.32141" lon="32.23454">
        <ele>25.490816</ele>
        <time>2022-02-25T08:44:44.516Z</time>
      </trkpt>
      <trkpt lat="36.32174" lon="32.23441">
        <ele>25.108096</ele>
        <time>2022-02-25T08:44:51.598Z</time>
      </trkpt>
      <trkpt lat="36.32193" lon="32.23425">
        <ele>24.830318</ele>
        <time>2022-02-25T08:44:56.417Z</time>
      </trkpt>
      <trkpt lat="36.32216" lon="32.2339">
        <ele>24.091075</ele>
        <time>2022-02-25T08:45:03.482Z</time>
      </trkpt>
      <trkpt lat="36.32235" lon="32.23347">
        <ele>23.26393</ele>
        <time>2022-02-25T08:45:11.205Z</time>
      </trkpt>
      <trkpt lat="36.32247" lon="32.23171">
        <ele>22.11505</ele>
        <time>2022-02-25T08:45:42.053Z</time>
      </trkpt>
      <trkpt lat="36.32261" lon="32.23123">
        <ele>23.120525</ele>
        <time>2022-02-25T08:45:57.293Z</time>
      </trkpt>
      <trkpt lat="36.32279" lon="32.23092">
        <ele>23.887953</ele>
        <time>2022-02-25T08:46:10.481Z</time>
      </trkpt>
      <trkpt lat="36.3231" lon="32.23069">
        <ele>24.76766</ele>
        <time>2022-02-25T08:46:27.227Z</time>
      </trkpt>
      <trkpt lat="36.32337" lon="32.23058">
        <ele>25.459441</ele>
        <time>2022-02-25T08:46:41.751Z</time>
      </trkpt>
      <trkpt lat="36.324" lon="32.23064">
        <ele>28.466606</ele>
        <time>2022-02-25T08:47:16.904Z</time>
      </trkpt>
      <trkpt lat="36.32428" lon="32.23058">
        <ele>29.853152</ele>
        <time>2022-02-25T08:47:32.240Z</time>
      </trkpt>
      <trkpt lat="36.32517" lon="32.23009">
        <ele>34.399806</ele>
        <time>2022-02-25T08:48:19.592Z</time>
      </trkpt>
      <trkpt lat="36.32557" lon="32.22999">
        <ele>34.931534</ele>
        <time>2022-02-25T08:48:37.492Z</time>
      </trkpt>
      <trkpt lat="36.32658" lon="32.22991">
        <ele>36.228118</ele>
        <time>2022-02-25T08:49:08.116Z</time>
      </trkpt>
      <trkpt lat="36.32682" lon="32.22978">
        <ele>36.556057</ele>
        <time>2022-02-25T08:49:14.482Z</time>
      </trkpt>
      <trkpt lat="36.32721" lon="32.22929">
        <ele>36.340454</ele>
        <time>2022-02-25T08:49:26.945Z</time>
      </trkpt>
      <trkpt lat="36.3276" lon="32.2287">
        <ele>35.951646</ele>
        <time>2022-02-25T08:49:40.826Z</time>
      </trkpt>
      <trkpt lat="36.32877" lon="32.22737">
        <ele>36.857683</ele>
        <time>2022-02-25T08:50:23.000Z</time>
      </trkpt>
      <trkpt lat="36.3307" lon="32.2254">
        <ele>43.095712</ele>
        <time>2022-02-25T08:52:06.034Z</time>
      </trkpt>
      <trkpt lat="36.33093" lon="32.22516">
        <ele>44.016987</ele>
        <time>2022-02-25T08:52:18.889Z</time>
      </trkpt>
      <trkpt lat="36.33135" lon="32.22476">
        <ele>45.691222</ele>
        <time>2022-02-25T08:52:41.059Z</time>
      </trkpt>
      <trkpt lat="36.33192" lon="32.22382">
        <ele>48.644392</ele>
        <time>2022-02-25T08:53:20.077Z</time>
      </trkpt>
      <trkpt lat="36.3323" lon="32.22337">
        <ele>50.323921</ele>
        <time>2022-02-25T08:53:41.453Z</time>
      </trkpt>
      <trkpt lat="36.33295" lon="32.22287">
        <ele>52.849639</ele>
        <time>2022-02-25T08:54:17.134Z</time>
      </trkpt>
      <trkpt lat="36.33351" lon="32.22216">
        <ele>55.27914</ele>
        <time>2022-02-25T08:54:50.186Z</time>
      </trkpt>
      <trkpt lat="36.33373" lon="32.22209">
        <ele>55.375331</ele>
        <time>2022-02-25T08:54:58.399Z</time>
      </trkpt>
      <trkpt lat="36.33388" lon="32.22205">
        <ele>55.438997</ele>
        <time>2022-02-25T08:55:03.821Z</time>
      </trkpt>
      <trkpt lat="36.33423" lon="32.22196">
        <ele>55.588738</ele>
        <time>2022-02-25T08:55:14.954Z</time>
      </trkpt>
      <trkpt lat="36.33458" lon="32.22168">
        <ele>55.764065</ele>
        <time>2022-02-25T08:55:26.353Z</time>
      </trkpt>
      <trkpt lat="36.33489" lon="32.22123">
        <ele>55.965519</ele>
        <time>2022-02-25T08:55:37.603Z</time>
      </trkpt>
      <trkpt lat="36.33515" lon="32.22068">
        <ele>55.545425</ele>
        <time>2022-02-25T08:55:48.463Z</time>
      </trkpt>
      <trkpt lat="36.33531" lon="32.21956">
        <ele>54.518024</ele>
        <time>2022-02-25T08:56:07.916Z</time>
      </trkpt>
      <trkpt lat="36.33546" lon="32.21913">
        <ele>54.091249</ele>
        <time>2022-02-25T08:56:17.753Z</time>
      </trkpt>
      <trkpt lat="36.33572" lon="32.2188">
        <ele>54.069088</ele>
        <time>2022-02-25T08:56:29.226Z</time>
      </trkpt>
      <trkpt lat="36.33611" lon="32.21836">
        <ele>54.229792</ele>
        <time>2022-02-25T08:56:45.989Z</time>
      </trkpt>
      <trkpt lat="36.33683" lon="32.21771">
        <ele>54.501083</ele>
        <time>2022-02-25T08:57:13.712Z</time>
      </trkpt>
      <trkpt lat="36.33783" lon="32.21731">
        <ele>51.547849</ele>
        <time>2022-02-25T08:57:35.707Z</time>
      </trkpt>
      <trkpt lat="36.3381" lon="32.21708">
        <ele>50.524187</ele>
        <time>2022-02-25T08:57:41.738Z</time>
      </trkpt>
      <trkpt lat="36.33847" lon="32.21661">
        <ele>48.889233</ele>
        <time>2022-02-25T08:57:51.141Z</time>
      </trkpt>
      <trkpt lat="36.33873" lon="32.21615">
        <ele>47.66485</ele>
        <time>2022-02-25T08:57:59.575Z</time>
      </trkpt>
      <trkpt lat="36.33884" lon="32.21581">
        <ele>46.874418</ele>
        <time>2022-02-25T08:58:05.124Z</time>
      </trkpt>
      <trkpt lat="36.33884" lon="32.21497">
        <ele>45.071241</ele>
        <time>2022-02-25T08:58:18.881Z</time>
      </trkpt>
      <trkpt lat="36.33899" lon="32.21465">
        <ele>44.276356</ele>
        <time>2022-02-25T08:58:26.452Z</time>
      </trkpt>
      <trkpt lat="36.33919" lon="32.21449">
        <ele>44.176554</ele>
        <time>2022-02-25T08:58:33.695Z</time>
      </trkpt>
      <trkpt lat="36.33942" lon="32.21443">
        <ele>44.275992</ele>
        <time>2022-02-25T08:58:41.273Z</time>
      </trkpt>
      <trkpt lat="36.34" lon="32.21445">
        <ele>44.516728</ele>
        <time>2022-02-25T08:59:00.643Z</time>
      </trkpt>
      <trkpt lat="36.34029" lon="32.21442">
        <ele>44.638616</ele>
        <time>2022-02-25T08:59:09.785Z</time>
      </trkpt>
      <trkpt lat="36.3406" lon="32.21432">
        <ele>44.770727</ele>
        <time>2022-02-25T08:59:18.756Z</time>
      </trkpt>
      <trkpt lat="36.341" lon="32.21407">
        <ele>44.483682</ele>
        <time>2022-02-25T08:59:29.684Z</time>
      </trkpt>
      <trkpt lat="36.34139" lon="32.21365">
        <ele>43.69395</ele>
        <time>2022-02-25T08:59:40.827Z</time>
      </trkpt>
      <trkpt lat="36.34247" lon="32.21215">
        <ele>42.210348</ele>
        <time>2022-02-25T09:00:15.176Z</time>
      </trkpt>
      <trkpt lat="36.34285" lon="32.21176">
        <ele>42.266255</ele>
        <time>2022-02-25T09:00:29.141Z</time>
      </trkpt>
      <trkpt lat="36.34314" lon="32.21162">
        <ele>42.301363</ele>
        <time>2022-02-25T09:00:39.202Z</time>
      </trkpt>
      <trkpt lat="36.3434" lon="32.21159">
        <ele>42.331468</ele>
        <time>2022-02-25T09:00:48.535Z</time>
      </trkpt>
      <trkpt lat="36.34428" lon="32.21181">
        <ele>42.555431</ele>
        <time>2022-02-25T09:01:21.496Z</time>
      </trkpt>
      <trkpt lat="36.34453" lon="32.21179">
        <ele>42.623631</ele>
        <time>2022-02-25T09:01:29.123Z</time>
      </trkpt>
      <trkpt lat="36.34479" lon="32.21167">
        <ele>42.6999</ele>
        <time>2022-02-25T09:01:36.225Z</time>
      </trkpt>
      <trkpt lat="36.34553" lon="32.21112">
        <ele>41.759172</ele>
        <time>2022-02-25T09:01:54.566Z</time>
      </trkpt>
      <trkpt lat="36.34619" lon="32.21091">
        <ele>39.587799</ele>
        <time>2022-02-25T09:02:07.984Z</time>
      </trkpt>
      <trkpt lat="36.34661" lon="32.21064">
        <ele>38.089429</ele>
        <time>2022-02-25T09:02:16.826Z</time>
      </trkpt>
      <trkpt lat="36.34726" lon="32.2098">
        <ele>35.28146</ele>
        <time>2022-02-25T09:02:34.520Z</time>
      </trkpt>
      <trkpt lat="36.34754" lon="32.2095">
        <ele>34.212108</ele>
        <time>2022-02-25T09:02:41.825Z</time>
      </trkpt>
      <trkpt lat="36.34793" lon="32.20922">
        <ele>32.887043</ele>
        <time>2022-02-25T09:02:51.155Z</time>
      </trkpt>
      <trkpt lat="36.34983" lon="32.20813">
        <ele>29.001682</ele>
        <time>2022-02-25T09:03:36.512Z</time>
      </trkpt>
      <trkpt lat="36.35087" lon="32.20762">
        <ele>27.975218</ele>
        <time>2022-02-25T09:04:01.761Z</time>
      </trkpt>
      <trkpt lat="36.35157" lon="32.20727">
        <ele>27.355828</ele>
        <time>2022-02-25T09:04:20.225Z</time>
      </trkpt>
      <trkpt lat="36.35224" lon="32.20691">
        <ele>28.06391</ele>
        <time>2022-02-25T09:04:40.889Z</time>
      </trkpt>
      <trkpt lat="36.35383" lon="32.20605">
        <ele>30.138534</ele>
        <time>2022-02-25T09:05:40.552Z</time>
      </trkpt>
      <trkpt lat="36.35719" lon="32.20403">
        <ele>34.163052</ele>
        <time>2022-02-25T09:07:46.872Z</time>
      </trkpt>
      <trkpt lat="36.35836" lon="32.20331">
        <ele>32.604534</ele>
        <time>2022-02-25T09:08:14.936Z</time>
      </trkpt>
      <trkpt lat="36.35865" lon="32.20313">
        <ele>31.437375</ele>
        <time>2022-02-25T09:08:21.189Z</time>
      </trkpt>
      <trkpt lat="36.36033" lon="32.20215">
        <ele>26.25166</ele>
        <time>2022-02-25T09:08:55.904Z</time>
      </trkpt>
      <trkpt lat="36.36465" lon="32.19956">
        <ele>19.800952</ele>
        <time>2022-02-25T09:10:46.959Z</time>
      </trkpt>
      <trkpt lat="36.3656" lon="32.19881">
        <ele>19.070009</ele>
        <time>2022-02-25T09:11:14.561Z</time>
      </trkpt>
      <trkpt lat="36.36771" lon="32.19677">
        <ele>17.534883</ele>
        <time>2022-02-25T09:12:19.943Z</time>
      </trkpt>
      <trkpt lat="36.36878" lon="32.19601">
        <ele>16.712467</ele>
        <time>2022-02-25T09:12:49.425Z</time>
      </trkpt>
      <trkpt lat="36.36962" lon="32.19563">
        <ele>16.271641</ele>
        <time>2022-02-25T09:13:11.298Z</time>
      </trkpt>
      <trkpt lat="36.3702" lon="32.19544">
        <ele>16.016961</ele>
        <time>2022-02-25T09:13:26.347Z</time>
      </trkpt>
      <trkpt lat="36.37121" lon="32.19525">
        <ele>15.60379</ele>
        <time>2022-02-25T09:13:52.534Z</time>
      </trkpt>
      <trkpt lat="36.37427" lon="32.19492">
        <ele>13.880051</ele>
        <time>2022-02-25T09:15:08.506Z</time>
      </trkpt>
      <trkpt lat="36.37478" lon="32.19482">
        <ele>12.639245</ele>
        <time>2022-02-25T09:15:19.518Z</time>
      </trkpt>
      <trkpt lat="36.375" lon="32.19481">
        <ele>12.076352</ele>
        <time>2022-02-25T09:15:23.965Z</time>
      </trkpt>
      <trkpt lat="36.37523" lon="32.19479">
        <ele>11.491721</ele>
        <time>2022-02-25T09:15:28.613Z</time>
      </trkpt>
      <trkpt lat="36.37553" lon="32.19477">
        <ele>10.707874</ele>
        <time>2022-02-25T09:15:34.695Z</time>
      </trkpt>
      <trkpt lat="36.37582" lon="32.19474">
        <ele>9.960207</ele>
        <time>2022-02-25T09:15:40.331Z</time>
      </trkpt>
      <trkpt lat="36.37723" lon="32.19457">
        <ele>5.926663</ele>
        <time>2022-02-25T09:16:07.397Z</time>
      </trkpt>
      <trkpt lat="36.37765" lon="32.1945">
        <ele>4.662545</ele>
        <time>2022-02-25T09:16:16.285Z</time>
      </trkpt>
      <trkpt lat="36.37803" lon="32.19447">
        <ele>3.882924</ele>
        <time>2022-02-25T09:16:24.378Z</time>
      </trkpt>
      <trkpt lat="36.37878" lon="32.19438">
        <ele>3.5226</ele>
        <time>2022-02-25T09:16:42.129Z</time>
      </trkpt>
      <trkpt lat="36.37954" lon="32.19425">
        <ele>3.160271</ele>
        <time>2022-02-25T09:17:02.991Z</time>
      </trkpt>
      <trkpt lat="36.37965" lon="32.19419">
        <ele>3.101259</ele>
        <time>2022-02-25T09:17:06.885Z</time>
      </trkpt>
      <trkpt lat="36.38037" lon="32.19403">
        <ele>3.460854</ele>
        <time>2022-02-25T09:17:27.816Z</time>
      </trkpt>
      <trkpt lat="36.38112" lon="32.19379">
        <ele>3.873044</ele>
        <time>2022-02-25T09:17:50.145Z</time>
      </trkpt>
      <trkpt lat="36.38202" lon="32.19344">
        <ele>5.028256</ele>
        <time>2022-02-25T09:18:19.288Z</time>
      </trkpt>
      <trkpt lat="36.38271" lon="32.1931">
        <ele>6.197042</ele>
        <time>2022-02-25T09:18:47.188Z</time>
      </trkpt>
      <trkpt lat="36.38287" lon="32.19311">
        <ele>6.447921</ele>
        <time>2022-02-25T09:18:53.352Z</time>
      </trkpt>
      <trkpt lat="36.38302" lon="32.19312">
        <ele>6.676225</ele>
        <time>2022-02-25T09:18:57.962Z</time>
      </trkpt>
      <trkpt lat="36.38316" lon="32.19326">
        <ele>6.944989</ele>
        <time>2022-02-25T09:19:04.500Z</time>
      </trkpt>
      <trkpt lat="36.38333" lon="32.19343">
        <ele>7.208118</ele>
        <time>2022-02-25T09:19:11.443Z</time>
      </trkpt>
      <trkpt lat="36.38353" lon="32.19357">
        <ele>7.480794</ele>
        <time>2022-02-25T09:19:19.487Z</time>
      </trkpt>
      <trkpt lat="36.38354" lon="32.19364">
        <ele>7.552144</ele>
        <time>2022-02-25T09:19:21.340Z</time>
      </trkpt>
      <trkpt lat="36.38357" lon="32.1937">
        <ele>7.62321</ele>
        <time>2022-02-25T09:19:23.103Z</time>
      </trkpt>
      <trkpt lat="36.38362" lon="32.19374">
        <ele>7.694201</ele>
        <time>2022-02-25T09:19:25.403Z</time>
      </trkpt>
      <trkpt lat="36.38367" lon="32.19377">
        <ele>7.764879</ele>
        <time>2022-02-25T09:19:27.548Z</time>
      </trkpt>
      <trkpt lat="36.38373" lon="32.19377">
        <ele>7.836419</ele>
        <time>2022-02-25T09:19:29.327Z</time>
      </trkpt>
      <trkpt lat="36.38379" lon="32.19375">
        <ele>7.90793</ele>
        <time>2022-02-25T09:19:31.373Z</time>
      </trkpt>
      <trkpt lat="36.38383" lon="32.1937">
        <ele>7.978321</ele>
        <time>2022-02-25T09:19:33.381Z</time>
      </trkpt>
      <trkpt lat="36.38388" lon="32.19357">
        <ele>8.119696</ele>
        <time>2022-02-25T09:19:37.284Z</time>
      </trkpt>
      <trkpt lat="36.38388" lon="32.1935">
        <ele>8.191115</ele>
        <time>2022-02-25T09:19:39.348Z</time>
      </trkpt>
      <trkpt lat="36.38397" lon="32.1932">
        <ele>8.505314</ele>
        <time>2022-02-25T09:19:47.395Z</time>
      </trkpt>
      <trkpt lat="36.38405" lon="32.19295">
        <ele>8.767977</ele>
        <time>2022-02-25T09:19:54.370Z</time>
      </trkpt>
      <trkpt lat="36.38422" lon="32.19255">
        <ele>9.026739</ele>
        <time>2022-02-25T09:20:04.838Z</time>
      </trkpt>
      <trkpt lat="36.38443" lon="32.19218">
        <ele>8.941252</ele>
        <time>2022-02-25T09:20:14.524Z</time>
      </trkpt>
      <trkpt lat="36.38445" lon="32.19215">
        <ele>8.933169</ele>
        <time>2022-02-25T09:20:15.513Z</time>
      </trkpt>
      <trkpt lat="36.38452" lon="32.19206">
        <ele>8.911079</ele>
        <time>2022-02-25T09:20:17.762Z</time>
      </trkpt>
      <trkpt lat="36.3952" lon="32.18162">
        <ele>5.698901</ele>
        <time>2022-02-25T09:26:04.787Z</time>
      </trkpt>
      <trkpt lat="36.39674" lon="32.18021">
        <ele>5.403904</ele>
        <time>2022-02-25T09:26:53.757Z</time>
      </trkpt>
      <trkpt lat="36.39871" lon="32.17825">
        <ele>7.021341</ele>
        <time>2022-02-25T09:28:08.185Z</time>
      </trkpt>
      <trkpt lat="36.40025" lon="32.17703">
        <ele>9.273327</ele>
        <time>2022-02-25T09:29:10.227Z</time>
      </trkpt>
      <trkpt lat="36.40051" lon="32.17684">
        <ele>9.681735</ele>
        <time>2022-02-25T09:29:20.803Z</time>
      </trkpt>
      <trkpt lat="36.40078" lon="32.17666">
        <ele>10.091178</ele>
        <time>2022-02-25T09:29:31.354Z</time>
      </trkpt>
      <trkpt lat="36.40246" lon="32.17575">
        <ele>11.19074</ele>
        <time>2022-02-25T09:30:26.227Z</time>
      </trkpt>
      <trkpt lat="36.40252" lon="32.17572">
        <ele>11.211525</ele>
        <time>2022-02-25T09:30:28.038Z</time>
      </trkpt>
      <trkpt lat="36.40274" lon="32.17561">
        <ele>11.284749</ele>
        <time>2022-02-25T09:30:33.740Z</time>
      </trkpt>
      <trkpt lat="36.41059" lon="32.17196">
        <ele>6.226114</ele>
        <time>2022-02-25T09:33:56.770Z</time>
      </trkpt>
      <trkpt lat="36.41068" lon="32.17192">
        <ele>6.155675</ele>
        <time>2022-02-25T09:33:59.236Z</time>
      </trkpt>
      <trkpt lat="36.41102" lon="32.17175">
        <ele>5.90254</ele>
        <time>2022-02-25T09:34:07.843Z</time>
      </trkpt>
      <trkpt lat="36.41138" lon="32.1716">
        <ele>5.640854</ele>
        <time>2022-02-25T09:34:16.735Z</time>
      </trkpt>
      <trkpt lat="36.41179" lon="32.17141">
        <ele>5.313433</ele>
        <time>2022-02-25T09:34:27.443Z</time>
      </trkpt>
      <trkpt lat="36.412" lon="32.17128">
        <ele>5.143209</ele>
        <time>2022-02-25T09:34:32.999Z</time>
      </trkpt>
      <trkpt lat="36.41221" lon="32.17118">
        <ele>4.975022</ele>
        <time>2022-02-25T09:34:38.541Z</time>
      </trkpt>
      <trkpt lat="36.41236" lon="32.17108">
        <ele>4.844873</ele>
        <time>2022-02-25T09:34:42.765Z</time>
      </trkpt>
      <trkpt lat="36.41241" lon="32.17107">
        <ele>4.811178</ele>
        <time>2022-02-25T09:34:43.908Z</time>
      </trkpt>
      <trkpt lat="36.41246" lon="32.17106">
        <ele>4.768614</ele>
        <time>2022-02-25T09:34:45.340Z</time>
      </trkpt>
      <trkpt lat="36.41251" lon="32.17102">
        <ele>4.726012</ele>
        <time>2022-02-25T09:34:46.710Z</time>
      </trkpt>
      <trkpt lat="36.41255" lon="32.17096">
        <ele>4.681292</ele>
        <time>2022-02-25T09:34:48.094Z</time>
      </trkpt>
      <trkpt lat="36.41272" lon="32.17087">
        <ele>4.541002</ele>
        <time>2022-02-25T09:34:52.556Z</time>
      </trkpt>
      <trkpt lat="36.41293" lon="32.17074">
        <ele>4.366282</ele>
        <time>2022-02-25T09:34:57.909Z</time>
      </trkpt>
      <trkpt lat="36.41368" lon="32.1701">
        <ele>3.626075</ele>
        <time>2022-02-25T09:35:18.918Z</time>
      </trkpt>
      <trkpt lat="36.41423" lon="32.16954">
        <ele>3.036546</ele>
        <time>2022-02-25T09:35:36.162Z</time>
      </trkpt>
      <trkpt lat="36.41514" lon="32.16857">
        <ele>2.49049</ele>
        <time>2022-02-25T09:36:05.095Z</time>
      </trkpt>
      <trkpt lat="36.41607" lon="32.16764">
        <ele>2.121017</ele>
        <time>2022-02-25T09:36:36.570Z</time>
      </trkpt>
      <trkpt lat="36.42145" lon="32.16235">
        <ele>1.103972</ele>
        <time>2022-02-25T09:39:33.836Z</time>
      </trkpt>
      <trkpt lat="36.42566" lon="32.15813">
        <ele>4.279643</ele>
        <time>2022-02-25T09:42:14.842Z</time>
      </trkpt>
      <trkpt lat="36.4271" lon="32.15674">
        <ele>5.277596</ele>
        <time>2022-02-25T09:43:08.076Z</time>
      </trkpt>
      <trkpt lat="36.42856" lon="32.15521">
        <ele>6.09495</ele>
        <time>2022-02-25T09:44:03.231Z</time>
      </trkpt>
      <trkpt lat="36.42897" lon="32.15467">
        <ele>6.187871</ele>
        <time>2022-02-25T09:44:19.996Z</time>
      </trkpt>
      <trkpt lat="36.42944" lon="32.15395">
        <ele>6.304935</ele>
        <time>2022-02-25T09:44:40.537Z</time>
      </trkpt>
      <trkpt lat="36.42966" lon="32.15365">
        <ele>6.330401</ele>
        <time>2022-02-25T09:44:49.254Z</time>
      </trkpt>
      <trkpt lat="36.4305" lon="32.15229">
        <ele>6.10014</ele>
        <time>2022-02-25T09:45:24.705Z</time>
      </trkpt>
      <trkpt lat="36.43111" lon="32.15112">
        <ele>5.956238</ele>
        <time>2022-02-25T09:45:53.428Z</time>
      </trkpt>
      <trkpt lat="36.4319" lon="32.14927">
        <ele>5.907358</ele>
        <time>2022-02-25T09:46:38.068Z</time>
      </trkpt>
      <trkpt lat="36.43263" lon="32.14683">
        <ele>6.154095</ele>
        <time>2022-02-25T09:47:36.060Z</time>
      </trkpt>
      <trkpt lat="36.43284" lon="32.14627">
        <ele>6.224135</ele>
        <time>2022-02-25T09:47:49.370Z</time>
      </trkpt>
      <trkpt lat="36.4333" lon="32.14541">
        <ele>6.416268</ele>
        <time>2022-02-25T09:48:11.639Z</time>
      </trkpt>
      <trkpt lat="36.43366" lon="32.14495">
        <ele>6.5661</ele>
        <time>2022-02-25T09:48:25.096Z</time>
      </trkpt>
      <trkpt lat="36.43501" lon="32.14334">
        <ele>8.70886</ele>
        <time>2022-02-25T09:49:21.607Z</time>
      </trkpt>
      <trkpt lat="36.43505" lon="32.1433">
        <ele>8.793264</ele>
        <time>2022-02-25T09:49:23.100Z</time>
      </trkpt>
      <trkpt lat="36.43506" lon="32.14329">
        <ele>8.831996</ele>
        <time>2022-02-25T09:49:23.784Z</time>
      </trkpt>
      <trkpt lat="36.43511" lon="32.14339">
        <ele>8.993153</ele>
        <time>2022-02-25T09:49:27.319Z</time>
      </trkpt>
      <trkpt lat="36.4357" lon="32.14266">
        <ele>11.40237</ele>
        <time>2022-02-25T09:50:02.795Z</time>
      </trkpt>
      <trkpt lat="36.43575" lon="32.14267">
        <ele>11.680095</ele>
        <time>2022-02-25T09:50:07.435Z</time>
      </trkpt>
      <trkpt lat="36.43599" lon="32.14268">
        <ele>12.913567</ele>
        <time>2022-02-25T09:50:19.271Z</time>
      </trkpt>
      <trkpt lat="36.43677" lon="32.14247">
        <ele>17.096102</ele>
        <time>2022-02-25T09:51:03.803Z</time>
      </trkpt>
      <trkpt lat="36.4371" lon="32.14251">
        <ele>18.803295</ele>
        <time>2022-02-25T09:51:21.800Z</time>
      </trkpt>
      <trkpt lat="36.43731" lon="32.14255">
        <ele>19.807464</ele>
        <time>2022-02-25T09:51:35.465Z</time>
      </trkpt>
      <trkpt lat="36.43752" lon="32.14258">
        <ele>20.759691</ele>
        <time>2022-02-25T09:51:45.974Z</time>
      </trkpt>
      <trkpt lat="36.43799" lon="32.14269">
        <ele>22.901162</ele>
        <time>2022-02-25T09:52:10.856Z</time>
      </trkpt>
      <trkpt lat="36.43808" lon="32.14196">
        <ele>25.552817</ele>
        <time>2022-02-25T09:52:39.568Z</time>
      </trkpt>
      <trkpt lat="36.43834" lon="32.1413">
        <ele>27.882916</ele>
        <time>2022-02-25T09:53:05.562Z</time>
      </trkpt>
      <trkpt lat="36.44049" lon="32.1382">
        <ele>35.790508</ele>
        <time>2022-02-25T09:55:15.588Z</time>
      </trkpt>
      <trkpt lat="36.44089" lon="32.1377">
        <ele>35.849651</ele>
        <time>2022-02-25T09:55:33.753Z</time>
      </trkpt>
      <trkpt lat="36.44113" lon="32.13731">
        <ele>35.644614</ele>
        <time>2022-02-25T09:55:44.869Z</time>
      </trkpt>
      <trkpt lat="36.44166" lon="32.13629">
        <ele>35.134117</ele>
        <time>2022-02-25T09:56:07.111Z</time>
      </trkpt>
      <trkpt lat="36.44225" lon="32.13534">
        <ele>34.118723</ele>
        <time>2022-02-25T09:56:28.514Z</time>
      </trkpt>
      <trkpt lat="36.44235" lon="32.1352">
        <ele>33.958749</ele>
        <time>2022-02-25T09:56:31.797Z</time>
      </trkpt>
      <trkpt lat="36.44245" lon="32.13504">
        <ele>33.785184</ele>
        <time>2022-02-25T09:56:36.107Z</time>
      </trkpt>
      <trkpt lat="36.44261" lon="32.13488">
        <ele>33.56581</ele>
        <time>2022-02-25T09:56:41.069Z</time>
      </trkpt>
      <trkpt lat="36.44293" lon="32.13447">
        <ele>33.765403</ele>
        <time>2022-02-25T09:56:54.938Z</time>
      </trkpt>
      <trkpt lat="36.44308" lon="32.13439">
        <ele>34.306066</ele>
        <time>2022-02-25T09:57:00.577Z</time>
      </trkpt>
      <trkpt lat="36.44399" lon="32.13414">
        <ele>37.360927</ele>
        <time>2022-02-25T09:57:41.167Z</time>
      </trkpt>
      <trkpt lat="36.44413" lon="32.13399">
        <ele>37.959076</ele>
        <time>2022-02-25T09:57:50.408Z</time>
      </trkpt>
      <trkpt lat="36.44426" lon="32.13374">
        <ele>38.739268</ele>
        <time>2022-02-25T09:58:03.194Z</time>
      </trkpt>
      <trkpt lat="36.44444" lon="32.13327">
        <ele>41.268894</ele>
        <time>2022-02-25T09:58:25.096Z</time>
      </trkpt>
      <trkpt lat="36.44454" lon="32.13313">
        <ele>42.391902</ele>
        <time>2022-02-25T09:58:33.463Z</time>
      </trkpt>
      <trkpt lat="36.44534" lon="32.13267">
        <ele>48.732637</ele>
        <time>2022-02-25T09:59:31.090Z</time>
      </trkpt>
      <trkpt lat="36.44553" lon="32.13266">
        <ele>50.076217</ele>
        <time>2022-02-25T09:59:43.910Z</time>
      </trkpt>
      <trkpt lat="36.4457" lon="32.13274">
        <ele>51.398465</ele>
        <time>2022-02-25T09:59:56.654Z</time>
      </trkpt>
      <trkpt lat="36.44584" lon="32.13289">
        <ele>52.761638</ele>
        <time>2022-02-25T10:00:09.284Z</time>
      </trkpt>
      <trkpt lat="36.44599" lon="32.13289">
        <ele>53.816777</ele>
        <time>2022-02-25T10:00:19.486Z</time>
      </trkpt>
      <trkpt lat="36.44622" lon="32.13281">
        <ele>55.495917</ele>
        <time>2022-02-25T10:00:34.546Z</time>
      </trkpt>
      <trkpt lat="36.44635" lon="32.13283">
        <ele>56.426105</ele>
        <time>2022-02-25T10:00:43.678Z</time>
      </trkpt>
      <trkpt lat="36.44653" lon="32.1329">
        <ele>57.795049</ele>
        <time>2022-02-25T10:00:56.151Z</time>
      </trkpt>
      <trkpt lat="36.44679" lon="32.13305">
        <ele>59.892212</ele>
        <time>2022-02-25T10:01:14.970Z</time>
      </trkpt>
      <trkpt lat="36.44762" lon="32.13313">
        <ele>65.333916</ele>
        <time>2022-02-25T10:02:03.973Z</time>
      </trkpt>
      <trkpt lat="36.4481" lon="32.13327">
        <ele>66.717559</ele>
        <time>2022-02-25T10:02:28.282Z</time>
      </trkpt>
      <trkpt lat="36.44825" lon="32.13321">
        <ele>67.153594</ele>
        <time>2022-02-25T10:02:33.824Z</time>
      </trkpt>
      <trkpt lat="36.44835" lon="32.13279">
        <ele>68.135491</ele>
        <time>2022-02-25T10:02:45.055Z</time>
      </trkpt>
      <trkpt lat="36.44859" lon="32.13251">
        <ele>69.036469</ele>
        <time>2022-02-25T10:02:54.801Z</time>
      </trkpt>
      <trkpt lat="36.44889" lon="32.13228">
        <ele>70.019877</ele>
        <time>2022-02-25T10:03:08.542Z</time>
      </trkpt>
      <trkpt lat="36.44932" lon="32.13176">
        <ele>70.765213</ele>
        <time>2022-02-25T10:03:31.845Z</time>
      </trkpt>
      <trkpt lat="36.44944" lon="32.13149">
        <ele>71.069358</ele>
        <time>2022-02-25T10:03:40.708Z</time>
      </trkpt>
      <trkpt lat="36.44948" lon="32.13127">
        <ele>71.289912</ele>
        <time>2022-02-25T10:03:47.025Z</time>
      </trkpt>
      <trkpt lat="36.44951" lon="32.13116">
        <ele>71.404334</ele>
        <time>2022-02-25T10:03:49.909Z</time>
      </trkpt>
      <trkpt lat="36.44961" lon="32.13109">
        <ele>71.542596</ele>
        <time>2022-02-25T10:03:54.291Z</time>
      </trkpt>
      <trkpt lat="36.4498" lon="32.13107">
        <ele>71.778089</ele>
        <time>2022-02-25T10:04:00.757Z</time>
      </trkpt>
      <trkpt lat="36.45007" lon="32.13099">
        <ele>72.11311</ele>
        <time>2022-02-25T10:04:10.157Z</time>
      </trkpt>
      <trkpt lat="36.45034" lon="32.1309">
        <ele>71.476382</ele>
        <time>2022-02-25T10:04:18.948Z</time>
      </trkpt>
      <trkpt lat="36.4516" lon="32.13032">
        <ele>66.128509</ele>
        <time>2022-02-25T10:04:46.224Z</time>
      </trkpt>
      <trkpt lat="36.45181" lon="32.13023">
        <ele>65.240482</ele>
        <time>2022-02-25T10:04:50.045Z</time>
      </trkpt>
      <trkpt lat="36.4522" lon="32.13006">
        <ele>61.154758</ele>
        <time>2022-02-25T10:04:57.049Z</time>
      </trkpt>
      <trkpt lat="36.4527" lon="32.12976">
        <ele>55.10604</ele>
        <time>2022-02-25T10:05:06.636Z</time>
      </trkpt>
      <trkpt lat="36.45286" lon="32.12953">
        <ele>52.534567</ele>
        <time>2022-02-25T10:05:10.687Z</time>
      </trkpt>
      <trkpt lat="36.45298" lon="32.12916">
        <ele>49.11653</ele>
        <time>2022-02-25T10:05:15.992Z</time>
      </trkpt>
      <trkpt lat="36.45303" lon="32.12885">
        <ele>46.389458</ele>
        <time>2022-02-25T10:05:20.207Z</time>
      </trkpt>
      <trkpt lat="36.45304" lon="32.12805">
        <ele>40.036771</ele>
        <time>2022-02-25T10:05:31.077Z</time>
      </trkpt>
      <trkpt lat="36.45306" lon="32.12738">
        <ele>34.740598</ele>
        <time>2022-02-25T10:05:40.299Z</time>
      </trkpt>
      <trkpt lat="36.45307" lon="32.12721">
        <ele>33.438322</ele>
        <time>2022-02-25T10:05:42.545Z</time>
      </trkpt>
      <trkpt lat="36.45311" lon="32.12546">
        <ele>23.251394</ele>
        <time>2022-02-25T10:06:07.687Z</time>
      </trkpt>
      <trkpt lat="36.4531" lon="32.1248">
        <ele>20.281333</ele>
        <time>2022-02-25T10:06:17.867Z</time>
      </trkpt>
      <trkpt lat="36.454" lon="32.12472">
        <ele>17.060686</ele>
        <time>2022-02-25T10:06:35.618Z</time>
      </trkpt>
      <trkpt lat="36.45557" lon="32.12453">
        <ele>14.038443</ele>
        <time>2022-02-25T10:07:12.613Z</time>
      </trkpt>
      <trkpt lat="36.45581" lon="32.12447">
        <ele>13.610443</ele>
        <time>2022-02-25T10:07:18.172Z</time>
      </trkpt>
      <trkpt lat="36.457" lon="32.12419">
        <ele>11.501175</ele>
        <time>2022-02-25T10:07:45.284Z</time>
      </trkpt>
      <trkpt lat="36.45745" lon="32.12407">
        <ele>10.533978</ele>
        <time>2022-02-25T10:07:55.354Z</time>
      </trkpt>
      <trkpt lat="36.45752" lon="32.12408">
        <ele>10.385745</ele>
        <time>2022-02-25T10:07:56.927Z</time>
      </trkpt>
      <trkpt lat="36.45758" lon="32.12413">
        <ele>10.229188</ele>
        <time>2022-02-25T10:07:58.490Z</time>
      </trkpt>
      <trkpt lat="36.45768" lon="32.1242">
        <ele>9.98465</ele>
        <time>2022-02-25T10:08:00.903Z</time>
      </trkpt>
      <trkpt lat="36.45785" lon="32.12427">
        <ele>9.612223</ele>
        <time>2022-02-25T10:08:04.554Z</time>
      </trkpt>
      <trkpt lat="36.45798" lon="32.12426">
        <ele>9.321696</ele>
        <time>2022-02-25T10:08:07.343Z</time>
      </trkpt>
      <trkpt lat="36.45815" lon="32.1242">
        <ele>8.952366</ele>
        <time>2022-02-25T10:08:10.955Z</time>
      </trkpt>
      <trkpt lat="36.45835" lon="32.12426">
        <ele>8.522244</ele>
        <time>2022-02-25T10:08:15.071Z</time>
      </trkpt>
      <trkpt lat="36.45965" lon="32.12427">
        <ele>6.077943</ele>
        <time>2022-02-25T10:08:42.588Z</time>
      </trkpt>
      <trkpt lat="36.45987" lon="32.12422">
        <ele>5.694888</ele>
        <time>2022-02-25T10:08:47.225Z</time>
      </trkpt>
      <trkpt lat="36.45996" lon="32.12407">
        <ele>5.418261</ele>
        <time>2022-02-25T10:08:50.828Z</time>
      </trkpt>
      <trkpt lat="36.46012" lon="32.1239">
        <ele>5.058281</ele>
        <time>2022-02-25T10:08:55.302Z</time>
      </trkpt>
      <trkpt lat="36.46029" lon="32.12378">
        <ele>4.730018</ele>
        <time>2022-02-25T10:08:59.504Z</time>
      </trkpt>
      <trkpt lat="36.46134" lon="32.12306">
        <ele>3.261185</ele>
        <time>2022-02-25T10:09:26.536Z</time>
      </trkpt>
      <trkpt lat="36.46172" lon="32.12277">
        <ele>2.756601</ele>
        <time>2022-02-25T10:09:36.781Z</time>
      </trkpt>
      <trkpt lat="36.46205" lon="32.12249">
        <ele>2.365839</ele>
        <time>2022-02-25T10:09:46.263Z</time>
      </trkpt>
      <trkpt lat="36.46257" lon="32.12208">
        <ele>2.180219</ele>
        <time>2022-02-25T10:10:01.129Z</time>
      </trkpt>
      <trkpt lat="36.46269" lon="32.12207">
        <ele>2.143722</ele>
        <time>2022-02-25T10:10:04.146Z</time>
      </trkpt>
      <trkpt lat="36.46398" lon="32.12106">
        <ele>1.925565</ele>
        <time>2022-02-25T10:10:44.381Z</time>
      </trkpt>
      <trkpt lat="36.46459" lon="32.12057">
        <ele>2.038951</ele>
        <time>2022-02-25T10:11:04.532Z</time>
      </trkpt>
      <trkpt lat="36.46464" lon="32.12053">
        <ele>2.04771</ele>
        <time>2022-02-25T10:11:06.149Z</time>
      </trkpt>
      <trkpt lat="36.46477" lon="32.12043">
        <ele>2.071726</ele>
        <time>2022-02-25T10:11:10.524Z</time>
      </trkpt>
      <trkpt lat="36.46482" lon="32.1204">
        <ele>2.080682</ele>
        <time>2022-02-25T10:11:12.129Z</time>
      </trkpt>
      <trkpt lat="36.46721" lon="32.11856">
        <ele>3.207698</ele>
        <time>2022-02-25T10:12:32.490Z</time>
      </trkpt>
      <trkpt lat="36.46729" lon="32.11849">
        <ele>3.262662</ele>
        <time>2022-02-25T10:12:35.366Z</time>
      </trkpt>
      <trkpt lat="36.46755" lon="32.11829">
        <ele>3.424108</ele>
        <time>2022-02-25T10:12:44.228Z</time>
      </trkpt>
      <trkpt lat="36.46792" lon="32.1179">
        <ele>3.682898</ele>
        <time>2022-02-25T10:12:58.632Z</time>
      </trkpt>
      <trkpt lat="36.46819" lon="32.11767">
        <ele>3.872374</ele>
        <time>2022-02-25T10:13:08.487Z</time>
      </trkpt>
      <trkpt lat="36.46852" lon="32.11743">
        <ele>4.120183</ele>
        <time>2022-02-25T10:13:20.046Z</time>
      </trkpt>
      <trkpt lat="36.46891" lon="32.11717">
        <ele>4.406772</ele>
        <time>2022-02-25T10:13:33.100Z</time>
      </trkpt>
      <trkpt lat="36.46904" lon="32.11715">
        <ele>4.492478</ele>
        <time>2022-02-25T10:13:36.901Z</time>
      </trkpt>
      <trkpt lat="36.46911" lon="32.11711">
        <ele>4.53658</ele>
        <time>2022-02-25T10:13:38.886Z</time>
      </trkpt>
      <trkpt lat="36.46985" lon="32.11668">
        <ele>4.880756</ele>
        <time>2022-02-25T10:14:04.088Z</time>
      </trkpt>
      <trkpt lat="36.47018" lon="32.11646">
        <ele>4.785459</ele>
        <time>2022-02-25T10:14:14.777Z</time>
      </trkpt>
      <trkpt lat="36.47048" lon="32.11628">
        <ele>4.702391</ele>
        <time>2022-02-25T10:14:23.003Z</time>
      </trkpt>
      <trkpt lat="36.47061" lon="32.1162">
        <ele>4.667321</ele>
        <time>2022-02-25T10:14:26.312Z</time>
      </trkpt>
      <trkpt lat="36.47069" lon="32.11613">
        <ele>4.643056</ele>
        <time>2022-02-25T10:14:28.623Z</time>
      </trkpt>
      <trkpt lat="36.4709" lon="32.11594">
        <ele>4.578653</ele>
        <time>2022-02-25T10:14:34.532Z</time>
      </trkpt>
      <trkpt lat="36.47106" lon="32.11579">
        <ele>4.527918</ele>
        <time>2022-02-25T10:14:39.366Z</time>
      </trkpt>
      <trkpt lat="36.47177" lon="32.11542">
        <ele>4.528131</ele>
        <time>2022-02-25T10:14:59.286Z</time>
      </trkpt>
      <trkpt lat="36.47179" lon="32.11545">
        <ele>4.530148</ele>
        <time>2022-02-25T10:15:00.019Z</time>
      </trkpt>
      <trkpt lat="36.47225" lon="32.11522">
        <ele>4.568211</ele>
        <time>2022-02-25T10:15:18.162Z</time>
      </trkpt>
      <trkpt lat="36.47268" lon="32.11502">
        <ele>4.603645</ele>
        <time>2022-02-25T10:15:34.751Z</time>
      </trkpt>
      <trkpt lat="36.47288" lon="32.11492">
        <ele>4.625129</ele>
        <time>2022-02-25T10:15:43.085Z</time>
      </trkpt>
      <trkpt lat="36.47325" lon="32.11473">
        <ele>5.09748</ele>
        <time>2022-02-25T10:15:58.672Z</time>
      </trkpt>
      <trkpt lat="36.47358" lon="32.11457">
        <ele>5.516022</ele>
        <time>2022-02-25T10:16:13.476Z</time>
      </trkpt>
      <trkpt lat="36.47372" lon="32.1145">
        <ele>5.690206</ele>
        <time>2022-02-25T10:16:19.952Z</time>
      </trkpt>
      <trkpt lat="36.47459" lon="32.11411">
        <ele>6.798883</ele>
        <time>2022-02-25T10:16:58.953Z</time>
      </trkpt>
      <trkpt lat="36.47499" lon="32.11392">
        <ele>7.469936</ele>
        <time>2022-02-25T10:17:16.010Z</time>
      </trkpt>
      <trkpt lat="36.47554" lon="32.11366">
        <ele>8.40861</ele>
        <time>2022-02-25T10:17:40.048Z</time>
      </trkpt>
      <trkpt lat="36.47575" lon="32.11355">
        <ele>8.772675</ele>
        <time>2022-02-25T10:17:49.718Z</time>
      </trkpt>
      <trkpt lat="36.47625" lon="32.1133">
        <ele>9.639856</ele>
        <time>2022-02-25T10:18:14.342Z</time>
      </trkpt>
      <trkpt lat="36.47655" lon="32.11315">
        <ele>10.21359</ele>
        <time>2022-02-25T10:18:29.842Z</time>
      </trkpt>
      <trkpt lat="36.47679" lon="32.11303">
        <ele>10.657646</ele>
        <time>2022-02-25T10:18:41.924Z</time>
      </trkpt>
      <trkpt lat="36.4771" lon="32.11292">
        <ele>11.230907</ele>
        <time>2022-02-25T10:18:56.086Z</time>
      </trkpt>
      <trkpt lat="36.47721" lon="32.11291">
        <ele>11.432311</ele>
        <time>2022-02-25T10:19:01.278Z</time>
      </trkpt>
      <trkpt lat="36.47718" lon="32.11286">
        <ele>11.511077</ele>
        <time>2022-02-25T10:19:02.385Z</time>
      </trkpt>
      <trkpt lat="36.47773" lon="32.11274">
        <ele>12.495646</ele>
        <time>2022-02-25T10:19:21.852Z</time>
      </trkpt>
      <trkpt lat="36.47797" lon="32.11281">
        <ele>12.796459</ele>
        <time>2022-02-25T10:19:30.068Z</time>
      </trkpt>
      <trkpt lat="36.47818" lon="32.11283">
        <ele>12.814757</ele>
        <time>2022-02-25T10:19:37.468Z</time>
      </trkpt>
      <trkpt lat="36.47828" lon="32.11281">
        <ele>12.823594</ele>
        <time>2022-02-25T10:19:40.162Z</time>
      </trkpt>
      <trkpt lat="36.47832" lon="32.11277">
        <ele>12.827474</ele>
        <time>2022-02-25T10:19:41.501Z</time>
      </trkpt>
      <trkpt lat="36.47845" lon="32.11264">
        <ele>12.841948</ele>
        <time>2022-02-25T10:19:46.759Z</time>
      </trkpt>
      <trkpt lat="36.47866" lon="32.11235">
        <ele>12.869379</ele>
        <time>2022-02-25T10:19:55.988Z</time>
      </trkpt>
      <trkpt lat="36.47888" lon="32.11208">
        <ele>12.896393</ele>
        <time>2022-02-25T10:20:06.571Z</time>
      </trkpt>
      <trkpt lat="36.47895" lon="32.11202">
        <ele>12.903742</ele>
        <time>2022-02-25T10:20:09.388Z</time>
      </trkpt>
      <trkpt lat="36.47915" lon="32.11177">
        <ele>12.927989</ele>
        <time>2022-02-25T10:20:18.059Z</time>
      </trkpt>
      <trkpt lat="36.47958" lon="32.11123">
        <ele>12.931055</ele>
        <time>2022-02-25T10:20:37.384Z</time>
      </trkpt>
      <trkpt lat="36.48016" lon="32.11048">
        <ele>12.901425</ele>
        <time>2022-02-25T10:21:07.232Z</time>
      </trkpt>
      <trkpt lat="36.48065" lon="32.10982">
        <ele>12.929204</ele>
        <time>2022-02-25T10:21:34.521Z</time>
      </trkpt>
      <trkpt lat="36.48109" lon="32.10921">
        <ele>13.105849</ele>
        <time>2022-02-25T10:21:58.778Z</time>
      </trkpt>
      <trkpt lat="36.48159" lon="32.10858">
        <ele>13.299762</ele>
        <time>2022-02-25T10:22:24.802Z</time>
      </trkpt>
      <trkpt lat="36.48163" lon="32.10862">
        <ele>13.313191</ele>
        <time>2022-02-25T10:22:26.255Z</time>
      </trkpt>
      <trkpt lat="36.4817" lon="32.10853">
        <ele>13.340861</ele>
        <time>2022-02-25T10:22:28.941Z</time>
      </trkpt>
      <trkpt lat="36.48268" lon="32.10726">
        <ele>13.297878</ele>
        <time>2022-02-25T10:23:08.200Z</time>
      </trkpt>
      <trkpt lat="36.48292" lon="32.10696">
        <ele>13.280102</ele>
        <time>2022-02-25T10:23:17.487Z</time>
      </trkpt>
      <trkpt lat="36.48498" lon="32.10423">
        <ele>12.131912</ele>
        <time>2022-02-25T10:24:37.915Z</time>
      </trkpt>
      <trkpt lat="36.48504" lon="32.10416">
        <ele>12.068756</ele>
        <time>2022-02-25T10:24:39.934Z</time>
      </trkpt>
      <trkpt lat="36.485" lon="32.10411">
        <ele>12.028608</ele>
        <time>2022-02-25T10:24:41.190Z</time>
      </trkpt>
      <trkpt lat="36.48523" lon="32.10384">
        <ele>11.798779</ele>
        <time>2022-02-25T10:24:50.703Z</time>
      </trkpt>
      <trkpt lat="36.48611" lon="32.10301">
        <ele>10.411331</ele>
        <time>2022-02-25T10:25:23.894Z</time>
      </trkpt>
      <trkpt lat="36.48695" lon="32.10221">
        <ele>8.9597</ele>
        <time>2022-02-25T10:25:55.430Z</time>
      </trkpt>
      <trkpt lat="36.48744" lon="32.10178">
        <ele>8.562834</ele>
        <time>2022-02-25T10:26:14.931Z</time>
      </trkpt>
      <trkpt lat="36.48792" lon="32.10135">
        <ele>8.170448</ele>
        <time>2022-02-25T10:26:35.223Z</time>
      </trkpt>
      <trkpt lat="36.48794" lon="32.10133">
        <ele>8.149829</ele>
        <time>2022-02-25T10:26:36.283Z</time>
      </trkpt>
      <trkpt lat="36.48898" lon="32.10041">
        <ele>7.323904</ele>
        <time>2022-02-25T10:27:17.300Z</time>
      </trkpt>
      <trkpt lat="36.48907" lon="32.10033">
        <ele>7.253988</ele>
        <time>2022-02-25T10:27:20.813Z</time>
      </trkpt>
      <trkpt lat="36.48993" lon="32.09953">
        <ele>6.605971</ele>
        <time>2022-02-25T10:27:56.281Z</time>
      </trkpt>
      <trkpt lat="36.49011" lon="32.09944">
        <ele>6.538165</ele>
        <time>2022-02-25T10:28:00.770Z</time>
      </trkpt>
      <trkpt lat="36.49031" lon="32.09934">
        <ele>6.461717</ele>
        <time>2022-02-25T10:28:05.832Z</time>
      </trkpt>
      <trkpt lat="36.49034" lon="32.09935">
        <ele>6.449205</ele>
        <time>2022-02-25T10:28:06.615Z</time>
      </trkpt>
      <trkpt lat="36.49037" lon="32.09935">
        <ele>6.437095</ele>
        <time>2022-02-25T10:28:07.395Z</time>
      </trkpt>
      <trkpt lat="36.49042" lon="32.09933">
        <ele>6.420768</ele>
        <time>2022-02-25T10:28:08.516Z</time>
      </trkpt>
      <trkpt lat="36.4905" lon="32.09921">
        <ele>6.373904</ele>
        <time>2022-02-25T10:28:11.550Z</time>
      </trkpt>
      <trkpt lat="36.49051" lon="32.09915">
        <ele>6.357805</ele>
        <time>2022-02-25T10:28:12.670Z</time>
      </trkpt>
      <trkpt lat="36.49062" lon="32.09899">
        <ele>6.296055</ele>
        <time>2022-02-25T10:28:16.859Z</time>
      </trkpt>
      <trkpt lat="36.49076" lon="32.09875">
        <ele>6.210193</ele>
        <time>2022-02-25T10:28:22.894Z</time>
      </trkpt>
      <trkpt lat="36.4916" lon="32.09792">
        <ele>6.218727</ele>
        <time>2022-02-25T10:28:53.401Z</time>
      </trkpt>
      <trkpt lat="36.49292" lon="32.09665">
        <ele>6.762487</ele>
        <time>2022-02-25T10:29:40.707Z</time>
      </trkpt>
      <trkpt lat="36.4933" lon="32.09628">
        <ele>6.889751</ele>
        <time>2022-02-25T10:29:54.425Z</time>
      </trkpt>
      <trkpt lat="36.49335" lon="32.09624">
        <ele>6.906152</ele>
        <time>2022-02-25T10:29:56.130Z</time>
      </trkpt>
      <trkpt lat="36.49338" lon="32.09621">
        <ele>6.916143</ele>
        <time>2022-02-25T10:29:57.179Z</time>
      </trkpt>
      <trkpt lat="36.49412" lon="32.09549">
        <ele>7.172228</ele>
        <time>2022-02-25T10:30:22.790Z</time>
      </trkpt>
      <trkpt lat="36.49587" lon="32.0938">
        <ele>8.152765</ele>
        <time>2022-02-25T10:31:25.481Z</time>
      </trkpt>
      <trkpt lat="36.49595" lon="32.09372">
        <ele>8.234144</ele>
        <time>2022-02-25T10:31:28.666Z</time>
      </trkpt>
      <trkpt lat="36.49608" lon="32.09363">
        <ele>8.349821</ele>
        <time>2022-02-25T10:31:33.336Z</time>
      </trkpt>
      <trkpt lat="36.49665" lon="32.09295">
        <ele>8.970182</ele>
        <time>2022-02-25T10:31:58.606Z</time>
      </trkpt>
      <trkpt lat="36.49681" lon="32.09279">
        <ele>9.125294</ele>
        <time>2022-02-25T10:32:05.120Z</time>
      </trkpt>
      <trkpt lat="36.49717" lon="32.09247">
        <ele>9.112185</ele>
        <time>2022-02-25T10:32:18.820Z</time>
      </trkpt>
      <trkpt lat="36.49729" lon="32.09233">
        <ele>9.107153</ele>
        <time>2022-02-25T10:32:23.770Z</time>
      </trkpt>
      <trkpt lat="36.4975" lon="32.09222">
        <ele>9.100467</ele>
        <time>2022-02-25T10:32:29.983Z</time>
      </trkpt>
      <trkpt lat="36.49775" lon="32.09214">
        <ele>9.093</ele>
        <time>2022-02-25T10:32:36.885Z</time>
      </trkpt>
      <trkpt lat="36.4981" lon="32.09187">
        <ele>9.080749</ele>
        <time>2022-02-25T10:32:47.108Z</time>
      </trkpt>
      <trkpt lat="36.4983" lon="32.09171">
        <ele>9.073697</ele>
        <time>2022-02-25T10:32:52.854Z</time>
      </trkpt>
      <trkpt lat="36.4985" lon="32.0915">
        <ele>8.748431</ele>
        <time>2022-02-25T10:32:58.600Z</time>
      </trkpt>
      <trkpt lat="36.49955" lon="32.08982">
        <ele>6.145403</ele>
        <time>2022-02-25T10:33:35.414Z</time>
      </trkpt>
      <trkpt lat="36.50018" lon="32.08887">
        <ele>4.983016</ele>
        <time>2022-02-25T10:33:57.656Z</time>
      </trkpt>
      <trkpt lat="36.50078" lon="32.08788">
        <ele>4.036663</ele>
        <time>2022-02-25T10:34:21.269Z</time>
      </trkpt>
      <trkpt lat="36.50085" lon="32.08779">
        <ele>3.992275</ele>
        <time>2022-02-25T10:34:23.611Z</time>
      </trkpt>
      <trkpt lat="36.50196" lon="32.08616">
        <ele>3.3354</ele>
        <time>2022-02-25T10:35:08.803Z</time>
      </trkpt>
      <trkpt lat="36.50328" lon="32.08432">
        <ele>3.20383</ele>
        <time>2022-02-25T10:36:04.442Z</time>
      </trkpt>
      <trkpt lat="36.50358" lon="32.08385">
        <ele>3.148197</ele>
        <time>2022-02-25T10:36:17.274Z</time>
      </trkpt>
      <trkpt lat="36.50412" lon="32.08312">
        <ele>3.056258</ele>
        <time>2022-02-25T10:36:38.653Z</time>
      </trkpt>
      <trkpt lat="36.5045" lon="32.08257">
        <ele>3.112602</ele>
        <time>2022-02-25T10:36:54.649Z</time>
      </trkpt>
      <trkpt lat="36.50472" lon="32.08225">
        <ele>3.145325</ele>
        <time>2022-02-25T10:37:04.100Z</time>
      </trkpt>
      <trkpt lat="36.50517" lon="32.08162">
        <ele>3.211267</ele>
        <time>2022-02-25T10:37:23.671Z</time>
      </trkpt>
      <trkpt lat="36.50623" lon="32.0802">
        <ele>3.818078</ele>
        <time>2022-02-25T10:38:10.387Z</time>
      </trkpt>
      <trkpt lat="36.50628" lon="32.08012">
        <ele>3.851674</ele>
        <time>2022-02-25T10:38:12.731Z</time>
      </trkpt>
      <trkpt lat="36.50694" lon="32.07907">
        <ele>4.208719</ele>
        <time>2022-02-25T10:38:44.476Z</time>
      </trkpt>
      <trkpt lat="36.50733" lon="32.07846">
        <ele>4.38329</ele>
        <time>2022-02-25T10:39:02.712Z</time>
      </trkpt>
      <trkpt lat="36.50786" lon="32.07767">
        <ele>4.362216</ele>
        <time>2022-02-25T10:39:26.749Z</time>
      </trkpt>
      <trkpt lat="36.50868" lon="32.07641">
        <ele>3.822284</ele>
        <time>2022-02-25T10:40:00.597Z</time>
      </trkpt>
      <trkpt lat="36.50891" lon="32.07619">
        <ele>3.616005</ele>
        <time>2022-02-25T10:40:07.249Z</time>
      </trkpt>
      <trkpt lat="36.50962" lon="32.07515">
        <ele>2.53416</ele>
        <time>2022-02-25T10:40:33.014Z</time>
      </trkpt>
      <trkpt lat="36.50994" lon="32.07455">
        <ele>2.00783</ele>
        <time>2022-02-25T10:40:47.191Z</time>
      </trkpt>
      <trkpt lat="36.51115" lon="32.07256">
        <ele>2.608207</ele>
        <time>2022-02-25T10:41:46.123Z</time>
      </trkpt>
      <trkpt lat="36.5118" lon="32.07151">
        <ele>3.527809</ele>
        <time>2022-02-25T10:42:20.919Z</time>
      </trkpt>
      <trkpt lat="36.51243" lon="32.07041">
        <ele>4.586798</ele>
        <time>2022-02-25T10:42:56.344Z</time>
      </trkpt>
      <trkpt lat="36.51295" lon="32.0695">
        <ele>5.529957</ele>
        <time>2022-02-25T10:43:26.259Z</time>
      </trkpt>
      <trkpt lat="36.5135" lon="32.06857">
        <ele>6.096298</ele>
        <time>2022-02-25T10:43:56.678Z</time>
      </trkpt>
      <trkpt lat="36.51399" lon="32.06767">
        <ele>6.423845</ele>
        <time>2022-02-25T10:44:22.337Z</time>
      </trkpt>
      <trkpt lat="36.51481" lon="32.06623">
        <ele>5.822819</ele>
        <time>2022-02-25T10:44:58.466Z</time>
      </trkpt>
      <trkpt lat="36.51529" lon="32.0654">
        <ele>5.362419</ele>
        <time>2022-02-25T10:45:18.534Z</time>
      </trkpt>
      <trkpt lat="36.51537" lon="32.06527">
        <ele>5.346065</ele>
        <time>2022-02-25T10:45:21.753Z</time>
      </trkpt>
      <trkpt lat="36.51563" lon="32.06478">
        <ele>5.28616</ele>
        <time>2022-02-25T10:45:33.657Z</time>
      </trkpt>
      <trkpt lat="36.51612" lon="32.06396">
        <ele>5.183481</ele>
        <time>2022-02-25T10:45:56.583Z</time>
      </trkpt>
      <trkpt lat="36.51637" lon="32.0635">
        <ele>5.324709</ele>
        <time>2022-02-25T10:46:10.911Z</time>
      </trkpt>
      <trkpt lat="36.51693" lon="32.06251">
        <ele>6.125427</ele>
        <time>2022-02-25T10:46:43.206Z</time>
      </trkpt>
      <trkpt lat="36.51742" lon="32.06167">
        <ele>6.639085</ele>
        <time>2022-02-25T10:47:08.994Z</time>
      </trkpt>
      <trkpt lat="36.5176" lon="32.06144">
        <ele>6.64392</ele>
        <time>2022-02-25T10:47:16.856Z</time>
      </trkpt>
      <trkpt lat="36.51766" lon="32.06138">
        <ele>6.645316</ele>
        <time>2022-02-25T10:47:18.821Z</time>
      </trkpt>
      <trkpt lat="36.51794" lon="32.0609">
        <ele>6.654273</ele>
        <time>2022-02-25T10:47:32.078Z</time>
      </trkpt>
      <trkpt lat="36.51818" lon="32.06065">
        <ele>6.660103</ele>
        <time>2022-02-25T10:47:39.845Z</time>
      </trkpt>
      <trkpt lat="36.51946" lon="32.05922">
        <ele>6.336655</ele>
        <time>2022-02-25T10:48:23.689Z</time>
      </trkpt>
      <trkpt lat="36.51996" lon="32.05864">
        <ele>6.045379</ele>
        <time>2022-02-25T10:48:41.829Z</time>
      </trkpt>
      <trkpt lat="36.52002" lon="32.05857">
        <ele>5.970536</ele>
        <time>2022-02-25T10:48:43.716Z</time>
      </trkpt>
      <trkpt lat="36.52064" lon="32.0578">
        <ele>5.106508</ele>
        <time>2022-02-25T10:49:04.358Z</time>
      </trkpt>
      <trkpt lat="36.52081" lon="32.05757">
        <ele>4.859468</ele>
        <time>2022-02-25T10:49:09.928Z</time>
      </trkpt>
      <trkpt lat="36.52102" lon="32.05729">
        <ele>4.557121</ele>
        <time>2022-02-25T10:49:16.755Z</time>
      </trkpt>
      <trkpt lat="36.52167" lon="32.05627">
        <ele>3.088799</ele>
        <time>2022-02-25T10:49:39.247Z</time>
      </trkpt>
      <trkpt lat="36.52196" lon="32.05585">
        <ele>2.435026</ele>
        <time>2022-02-25T10:49:48.959Z</time>
      </trkpt>
      <trkpt lat="36.52235" lon="32.05519">
        <ele>1.666783</ele>
        <time>2022-02-25T10:50:04.012Z</time>
      </trkpt>
      <trkpt lat="36.52277" lon="32.05447">
        <ele>1.271587</ele>
        <time>2022-02-25T10:50:21.913Z</time>
      </trkpt>
      <trkpt lat="36.52341" lon="32.0534">
        <ele>0.96602</ele>
        <time>2022-02-25T10:50:48.344Z</time>
      </trkpt>
      <trkpt lat="36.52401" lon="32.054">
        <ele>1.600645</ele>
        <time>2022-02-25T10:51:10.792Z</time>
      </trkpt>
      <trkpt lat="36.52463" lon="32.05458">
        <ele>2.250194</ele>
        <time>2022-02-25T10:51:38.431Z</time>
      </trkpt>
      <trkpt lat="36.52519" lon="32.0537">
        <ele>4.473833</ele>
        <time>2022-02-25T10:52:12.645Z</time>
      </trkpt>
      <trkpt lat="36.52535" lon="32.0534">
        <ele>5.202733</ele>
        <time>2022-02-25T10:52:23.681Z</time>
      </trkpt>
      <trkpt lat="36.52545" lon="32.05317">
        <ele>5.754419</ele>
        <time>2022-02-25T10:52:33.377Z</time>
      </trkpt>
      <trkpt lat="36.52558" lon="32.05265">
        <ele>6.8594</ele>
        <time>2022-02-25T10:52:52.782Z</time>
      </trkpt>
      <trkpt lat="36.52565" lon="32.05242">
        <ele>7.358078</ele>
        <time>2022-02-25T10:53:01.514Z</time>
      </trkpt>
      <trkpt lat="36.52582" lon="32.05192">
        <ele>8.471991</ele>
        <time>2022-02-25T10:53:20.434Z</time>
      </trkpt>
      <trkpt lat="36.52599" lon="32.05195">
        <ele>8.896227</ele>
        <time>2022-02-25T10:53:26.830Z</time>
      </trkpt>
      <trkpt lat="36.52602" lon="32.05195">
        <ele>8.964148</ele>
        <time>2022-02-25T10:53:27.937Z</time>
      </trkpt>
      <trkpt lat="36.52638" lon="32.05195">
        <ele>9.864755</ele>
        <time>2022-02-25T10:53:42.282Z</time>
      </trkpt>
      <trkpt lat="36.52667" lon="32.05197">
        <ele>10.613094</ele>
        <time>2022-02-25T10:53:53.960Z</time>
      </trkpt>
      <trkpt lat="36.52686" lon="32.05191">
        <ele>11.102066</ele>
        <time>2022-02-25T10:54:00.947Z</time>
      </trkpt>
      <trkpt lat="36.52738" lon="32.05152">
        <ele>11.43567</ele>
        <time>2022-02-25T10:54:22.224Z</time>
      </trkpt>
      <trkpt lat="36.52778" lon="32.05103">
        <ele>11.470154</ele>
        <time>2022-02-25T10:54:39.156Z</time>
      </trkpt>
      <trkpt lat="36.52784" lon="32.05095">
        <ele>11.4761</ele>
        <time>2022-02-25T10:54:41.778Z</time>
      </trkpt>
      <trkpt lat="36.52807" lon="32.05071">
        <ele>11.494332</ele>
        <time>2022-02-25T10:54:48.897Z</time>
      </trkpt>
      <trkpt lat="36.52831" lon="32.05056">
        <ele>11.510916</ele>
        <time>2022-02-25T10:54:55.119Z</time>
      </trkpt>
      <trkpt lat="36.52855" lon="32.05056">
        <ele>11.238506</ele>
        <time>2022-02-25T10:55:00.428Z</time>
      </trkpt>
      <trkpt lat="36.52902" lon="32.05062">
        <ele>10.322405</ele>
        <time>2022-02-25T10:55:10.705Z</time>
      </trkpt>
      <trkpt lat="36.52939" lon="32.05057">
        <ele>9.582099</ele>
        <time>2022-02-25T10:55:18.776Z</time>
      </trkpt>
      <trkpt lat="36.52972" lon="32.05009">
        <ele>8.589952</ele>
        <time>2022-02-25T10:55:29.785Z</time>
      </trkpt>
      <trkpt lat="36.52974" lon="32.05005">
        <ele>8.517236</ele>
        <time>2022-02-25T10:55:30.621Z</time>
      </trkpt>
      <trkpt lat="36.52982" lon="32.0499">
        <ele>8.239731</ele>
        <time>2022-02-25T10:55:34.015Z</time>
      </trkpt>
      <trkpt lat="36.53012" lon="32.04966">
        <ele>7.80285</ele>
        <time>2022-02-25T10:55:42.623Z</time>
      </trkpt>
      <trkpt lat="36.53045" lon="32.04938">
        <ele>7.450186</ele>
        <time>2022-02-25T10:55:52.355Z</time>
      </trkpt>
      <trkpt lat="36.5306" lon="32.04927">
        <ele>7.296729</ele>
        <time>2022-02-25T10:55:56.713Z</time>
      </trkpt>
      <trkpt lat="36.53066" lon="32.04918">
        <ele>7.219131</ele>
        <time>2022-02-25T10:55:58.946Z</time>
      </trkpt>
      <trkpt lat="36.5308" lon="32.04911">
        <ele>7.088544</ele>
        <time>2022-02-25T10:56:02.677Z</time>
      </trkpt>
      <trkpt lat="36.53088" lon="32.04909">
        <ele>7.009319</ele>
        <time>2022-02-25T10:56:04.944Z</time>
      </trkpt>
      <trkpt lat="36.5311" lon="32.04907">
        <ele>6.81871</ele>
        <time>2022-02-25T10:56:10.431Z</time>
      </trkpt>
      <trkpt lat="36.53119" lon="32.04905">
        <ele>6.743675</ele>
        <time>2022-02-25T10:56:12.808Z</time>
      </trkpt>
      <trkpt lat="36.53166" lon="32.04894">
        <ele>6.281986</ele>
        <time>2022-02-25T10:56:24.970Z</time>
      </trkpt>
      <trkpt lat="36.53161" lon="32.04829">
        <ele>5.6476</ele>
        <time>2022-02-25T10:56:38.042Z</time>
      </trkpt>
      <trkpt lat="36.53156" lon="32.0477">
        <ele>5.067982</ele>
        <time>2022-02-25T10:56:49.648Z</time>
      </trkpt>
      <trkpt lat="36.53273" lon="32.04757">
        <ele>3.624305</ele>
        <time>2022-02-25T10:57:15.704Z</time>
      </trkpt>
      <trkpt lat="36.53382" lon="32.04743">
        <ele>2.229415</ele>
        <time>2022-02-25T10:57:41.817Z</time>
      </trkpt>
      <trkpt lat="36.53388" lon="32.04743">
        <ele>2.153025</ele>
        <time>2022-02-25T10:57:43.356Z</time>
      </trkpt>
      <trkpt lat="36.53393" lon="32.04743">
        <ele>2.08997</ele>
        <time>2022-02-25T10:57:44.634Z</time>
      </trkpt>
      <trkpt lat="36.53391" lon="32.04728">
        <ele>1.972407</ele>
        <time>2022-02-25T10:57:47.331Z</time>
      </trkpt>
      <trkpt lat="36.53358" lon="32.04608">
        <ele>1.887251</ele>
        <time>2022-02-25T10:58:13.969Z</time>
      </trkpt>
      <trkpt lat="36.53352" lon="32.04591">
        <ele>1.87533</ele>
        <time>2022-02-25T10:58:17.678Z</time>
      </trkpt>
      <trkpt lat="36.53348" lon="32.04583">
        <ele>1.868717</ele>
        <time>2022-02-25T10:58:20.119Z</time>
      </trkpt>
      <trkpt lat="36.53347" lon="32.04571">
        <ele>1.860789</ele>
        <time>2022-02-25T10:58:23.201Z</time>
      </trkpt>
      <trkpt lat="36.53341" lon="32.04547">
        <ele>1.844048</ele>
        <time>2022-02-25T10:58:29.183Z</time>
      </trkpt>
      <trkpt lat="36.53337" lon="32.04535">
        <ele>1.835007</ele>
        <time>2022-02-25T10:58:32.676Z</time>
      </trkpt>
      <trkpt lat="36.53328" lon="32.0452">
        <ele>1.859358</ele>
        <time>2022-02-25T10:58:37.323Z</time>
      </trkpt>
      <trkpt lat="36.53311" lon="32.04466">
        <ele>2.438353</ele>
        <time>2022-02-25T10:58:51.815Z</time>
      </trkpt>
      <trkpt lat="36.53344" lon="32.04448">
        <ele>2.889755</ele>
        <time>2022-02-25T10:59:03.533Z</time>
      </trkpt>
      <trkpt lat="36.53364" lon="32.04422">
        <ele>3.250251</ele>
        <time>2022-02-25T10:59:13.517Z</time>
      </trkpt>
      <trkpt lat="36.53414" lon="32.04337">
        <ele>4.217243</ele>
        <time>2022-02-25T10:59:42.726Z</time>
      </trkpt>
      <trkpt lat="36.53423" lon="32.04322">
        <ele>4.331967</ele>
        <time>2022-02-25T10:59:48.106Z</time>
      </trkpt>
      <trkpt lat="36.53432" lon="32.04299">
        <ele>4.492625</ele>
        <time>2022-02-25T10:59:54.636Z</time>
      </trkpt>
      <trkpt lat="36.53457" lon="32.04258">
        <ele>4.801544</ele>
        <time>2022-02-25T11:00:06.993Z</time>
      </trkpt>
      <trkpt lat="36.53489" lon="32.04205">
        <ele>5.208121</ele>
        <time>2022-02-25T11:00:22.545Z</time>
      </trkpt>
      <trkpt lat="36.53495" lon="32.04196">
        <ele>5.279033</ele>
        <time>2022-02-25T11:00:25.079Z</time>
      </trkpt>
      <trkpt lat="36.53549" lon="32.04103">
        <ele>5.319025</ele>
        <time>2022-02-25T11:00:49.907Z</time>
      </trkpt>
      <trkpt lat="36.53587" lon="32.04038">
        <ele>5.207567</ele>
        <time>2022-02-25T11:01:05.964Z</time>
      </trkpt>
      <trkpt lat="36.53613" lon="32.03995">
        <ele>5.132423</ele>
        <time>2022-02-25T11:01:16.861Z</time>
      </trkpt>
      <trkpt lat="36.53633" lon="32.03947">
        <ele>4.994422</ele>
        <time>2022-02-25T11:01:28.010Z</time>
      </trkpt>
      <trkpt lat="36.53681" lon="32.03825">
        <ele>4.638517</ele>
        <time>2022-02-25T11:01:55.515Z</time>
      </trkpt>
      <trkpt lat="36.53709" lon="32.03671">
        <ele>4.379521</ele>
        <time>2022-02-25T11:02:28.035Z</time>
      </trkpt>
      <trkpt lat="36.53709" lon="32.0365">
        <ele>4.351599</ele>
        <time>2022-02-25T11:02:32.234Z</time>
      </trkpt>
      <trkpt lat="36.53748" lon="32.03648">
        <ele>4.285243</ele>
        <time>2022-02-25T11:02:42.852Z</time>
      </trkpt>
      <trkpt lat="36.53796" lon="32.03636">
        <ele>4.239027</ele>
        <time>2022-02-25T11:02:56.381Z</time>
      </trkpt>
      <trkpt lat="36.53806" lon="32.03636">
        <ele>4.237901</ele>
        <time>2022-02-25T11:02:59.440Z</time>
      </trkpt>
      <trkpt lat="36.53819" lon="32.03634">
        <ele>4.236439</ele>
        <time>2022-02-25T11:03:03.022Z</time>
      </trkpt>
      <trkpt lat="36.53821" lon="32.03636">
        <ele>4.236256</ele>
        <time>2022-02-25T11:03:03.491Z</time>
      </trkpt>
      <trkpt lat="36.53822" lon="32.03636">
        <ele>4.236069</ele>
        <time>2022-02-25T11:03:03.969Z</time>
      </trkpt>
      <trkpt lat="36.53824" lon="32.03636">
        <ele>4.235881</ele>
        <time>2022-02-25T11:03:04.445Z</time>
      </trkpt>
      <trkpt lat="36.53826" lon="32.03636">
        <ele>4.235656</ele>
        <time>2022-02-25T11:03:05.045Z</time>
      </trkpt>
      <trkpt lat="36.5383" lon="32.0363">
        <ele>4.235011</ele>
        <time>2022-02-25T11:03:06.732Z</time>
      </trkpt>
      <trkpt lat="36.5383" lon="32.03628">
        <ele>4.234796</ele>
        <time>2022-02-25T11:03:07.377Z</time>
      </trkpt>
      <trkpt lat="36.5383" lon="32.03625">
        <ele>4.234561</ele>
        <time>2022-02-25T11:03:08.049Z</time>
      </trkpt>
      <trkpt lat="36.53844" lon="32.03601">
        <ele>4.23188</ele>
        <time>2022-02-25T11:03:15.017Z</time>
      </trkpt>
      <trkpt lat="36.53859" lon="32.03574">
        <ele>4.228908</ele>
        <time>2022-02-25T11:03:23.139Z</time>
      </trkpt>
      <trkpt lat="36.5389" lon="32.03516">
        <ele>4.222799</ele>
        <time>2022-02-25T11:03:37.750Z</time>
      </trkpt>
      <trkpt lat="36.53937" lon="32.03433">
        <ele>4.151413</ele>
        <time>2022-02-25T11:03:58.537Z</time>
      </trkpt>
      <trkpt lat="36.53967" lon="32.03376">
        <ele>4.098128</ele>
        <time>2022-02-25T11:04:12.197Z</time>
      </trkpt>
      <trkpt lat="36.53983" lon="32.03348">
        <ele>4.070791</ele>
        <time>2022-02-25T11:04:19.883Z</time>
      </trkpt>
      <trkpt lat="36.54006" lon="32.03303">
        <ele>4.204944</ele>
        <time>2022-02-25T11:04:31.858Z</time>
      </trkpt>
      <trkpt lat="36.54044" lon="32.03234">
        <ele>4.803564</ele>
        <time>2022-02-25T11:04:52.122Z</time>
      </trkpt>
      <trkpt lat="36.54081" lon="32.03166">
        <ele>5.395692</ele>
        <time>2022-02-25T11:05:14.401Z</time>
      </trkpt>
      <trkpt lat="36.54115" lon="32.03102">
        <ele>5.73648</ele>
        <time>2022-02-25T11:05:33.826Z</time>
      </trkpt>
      <trkpt lat="36.54132" lon="32.0307">
        <ele>5.811737</ele>
        <time>2022-02-25T11:05:42.948Z</time>
      </trkpt>
      <trkpt lat="36.54151" lon="32.03036">
        <ele>5.894263</ele>
        <time>2022-02-25T11:05:52.582Z</time>
      </trkpt>
      <trkpt lat="36.54175" lon="32.02994">
        <ele>5.996793</ele>
        <time>2022-02-25T11:06:03.631Z</time>
      </trkpt>
      <trkpt lat="36.54208" lon="32.02929">
        <ele>6.020366</ele>
        <time>2022-02-25T11:06:18.798Z</time>
      </trkpt>
      <trkpt lat="36.54266" lon="32.02789">
        <ele>5.51979</ele>
        <time>2022-02-25T11:06:49.431Z</time>
      </trkpt>
      <trkpt lat="36.54289" lon="32.02721">
        <ele>5.543981</ele>
        <time>2022-02-25T11:07:05.498Z</time>
      </trkpt>
      <trkpt lat="36.54302" lon="32.0268">
        <ele>5.75979</ele>
        <time>2022-02-25T11:07:15.523Z</time>
      </trkpt>
      <trkpt lat="36.54315" lon="32.02641">
        <ele>5.960138</ele>
        <time>2022-02-25T11:07:25.323Z</time>
      </trkpt>
      <trkpt lat="36.54329" lon="32.026">
        <ele>6.178926</ele>
        <time>2022-02-25T11:07:36.430Z</time>
      </trkpt>
      <trkpt lat="36.54343" lon="32.0256">
        <ele>6.388302</ele>
        <time>2022-02-25T11:07:47.484Z</time>
      </trkpt>
      <trkpt lat="36.54363" lon="32.02501">
        <ele>6.901858</ele>
        <time>2022-02-25T11:08:04.247Z</time>
      </trkpt>
      <trkpt lat="36.54372" lon="32.02457">
        <ele>7.314549</ele>
        <time>2022-02-25T11:08:15.701Z</time>
      </trkpt>
      <trkpt lat="36.54381" lon="32.02412">
        <ele>7.741387</ele>
        <time>2022-02-25T11:08:27.156Z</time>
      </trkpt>
      <trkpt lat="36.5439" lon="32.02369">
        <ele>8.149297</ele>
        <time>2022-02-25T11:08:38.324Z</time>
      </trkpt>
      <trkpt lat="36.54392" lon="32.02356">
        <ele>8.269767</ele>
        <time>2022-02-25T11:08:41.711Z</time>
      </trkpt>
      <trkpt lat="36.54442" lon="32.02327">
        <ele>9.120213</ele>
        <time>2022-02-25T11:09:01.535Z</time>
      </trkpt>
      <trkpt lat="36.54434" lon="32.02308">
        <ele>9.433499</ele>
        <time>2022-02-25T11:09:08.385Z</time>
      </trkpt>
      <trkpt lat="36.54401" lon="32.02236">
        <ele>10.619635</ele>
        <time>2022-02-25T11:09:32.667Z</time>
      </trkpt>
      <trkpt lat="36.544" lon="32.02203">
        <ele>11.103379</ele>
        <time>2022-02-25T11:09:42.373Z</time>
      </trkpt>
      <trkpt lat="36.54448" lon="32.02173">
        <ele>12.076634</ele>
        <time>2022-02-25T11:10:02.222Z</time>
      </trkpt>
      <trkpt lat="36.54419" lon="32.02102">
        <ele>13.236188</ele>
        <time>2022-02-25T11:10:25.403Z</time>
      </trkpt>
      <trkpt lat="36.54371" lon="32.01996">
        <ele>15.017567</ele>
        <time>2022-02-25T11:11:02.012Z</time>
      </trkpt>
      <trkpt lat="36.54418" lon="32.02">
        <ele>15.425079</ele>
        <time>2022-02-25T11:11:18.234Z</time>
      </trkpt>
      <trkpt lat="36.54491" lon="32.02008">
        <ele>16.063451</ele>
        <time>2022-02-25T11:11:42.471Z</time>
      </trkpt>
      <trkpt lat="36.54502" lon="32.01951">
        <ele>16.46722</ele>
        <time>2022-02-25T11:11:56.527Z</time>
      </trkpt>
      <trkpt lat="36.5451" lon="32.01919">
        <ele>16.410423</ele>
        <time>2022-02-25T11:12:03.870Z</time>
      </trkpt>
      <trkpt lat="36.54517" lon="32.01896">
        <ele>16.195261</ele>
        <time>2022-02-25T11:12:08.930Z</time>
      </trkpt>
      <trkpt lat="36.54536" lon="32.01815">
        <ele>15.448008</ele>
        <time>2022-02-25T11:12:25.158Z</time>
      </trkpt>
      <trkpt lat="36.54548" lon="32.0171">
        <ele>14.511735</ele>
        <time>2022-02-25T11:12:44.341Z</time>
      </trkpt>
      <trkpt lat="36.54556" lon="32.01663">
        <ele>14.106357</ele>
        <time>2022-02-25T11:12:53.229Z</time>
      </trkpt>
      <trkpt lat="36.54568" lon="32.0161">
        <ele>13.646467</ele>
        <time>2022-02-25T11:13:03.637Z</time>
      </trkpt>
      <trkpt lat="36.54566" lon="32.01513">
        <ele>12.826262</ele>
        <time>2022-02-25T11:13:23.028Z</time>
      </trkpt>
      <trkpt lat="36.54566" lon="32.01504">
        <ele>12.745246</ele>
        <time>2022-02-25T11:13:25.108Z</time>
      </trkpt>
      <trkpt lat="36.54564" lon="32.01433">
        <ele>12.765986</ele>
        <time>2022-02-25T11:13:39.757Z</time>
      </trkpt>
      <trkpt lat="36.54587" lon="32.01437">
        <ele>12.793347</ele>
        <time>2022-02-25T11:13:46.338Z</time>
      </trkpt>
      <trkpt lat="36.54601" lon="32.01434">
        <ele>12.809579</ele>
        <time>2022-02-25T11:13:50.004Z</time>
      </trkpt>
      <trkpt lat="36.54612" lon="32.01415">
        <ele>12.832218</ele>
        <time>2022-02-25T11:13:55.554Z</time>
      </trkpt>
      <trkpt lat="36.54621" lon="32.01388">
        <ele>12.859872</ele>
        <time>2022-02-25T11:14:02.438Z</time>
      </trkpt>
      <trkpt lat="36.5462" lon="32.01321">
        <ele>13.000567</ele>
        <time>2022-02-25T11:14:19.161Z</time>
      </trkpt>
      <trkpt lat="36.54619" lon="32.01279">
        <ele>13.490268</ele>
        <time>2022-02-25T11:14:30.159Z</time>
      </trkpt>
      <trkpt lat="36.54624" lon="32.01255">
        <ele>13.785935</ele>
        <time>2022-02-25T11:14:36.871Z</time>
      </trkpt>
      <trkpt lat="36.54637" lon="32.01238">
        <ele>14.053438</ele>
        <time>2022-02-25T11:14:42.932Z</time>
      </trkpt>
      <trkpt lat="36.54653" lon="32.01226">
        <ele>14.328815</ele>
        <time>2022-02-25T11:14:49.653Z</time>
      </trkpt>
      <trkpt lat="36.54732" lon="32.01239">
        <ele>15.4828</ele>
        <time>2022-02-25T11:15:18.647Z</time>
      </trkpt>
      <trkpt lat="36.54741" lon="32.01242">
        <ele>15.660663</ele>
        <time>2022-02-25T11:15:22.146Z</time>
      </trkpt>
      <trkpt lat="36.54786" lon="32.01251">
        <ele>16.64353</ele>
        <time>2022-02-25T11:15:39.605Z</time>
      </trkpt>
      <trkpt lat="36.54858" lon="32.0127">
        <ele>18.217132</ele>
        <time>2022-02-25T11:16:07.977Z</time>
      </trkpt>
      <trkpt lat="36.54871" lon="32.01236">
        <ele>18.871764</ele>
        <time>2022-02-25T11:16:19.603Z</time>
      </trkpt>
      <trkpt lat="36.54884" lon="32.01185">
        <ele>19.784509</ele>
        <time>2022-02-25T11:16:36.031Z</time>
      </trkpt>
      <trkpt lat="36.54893" lon="32.01155">
        <ele>20.318969</ele>
        <time>2022-02-25T11:16:45.696Z</time>
      </trkpt>
      <trkpt lat="36.54913" lon="32.01159">
        <ele>20.735719</ele>
        <time>2022-02-25T11:16:53.396Z</time>
      </trkpt>
      <trkpt lat="36.54935" lon="32.01153">
        <ele>21.214301</ele>
        <time>2022-02-25T11:17:01.893Z</time>
      </trkpt>
      <trkpt lat="36.5496" lon="32.01136">
        <ele>21.80704</ele>
        <time>2022-02-25T11:17:12.769Z</time>
      </trkpt>
      <trkpt lat="36.54986" lon="32.01126">
        <ele>22.364396</ele>
        <time>2022-02-25T11:17:22.908Z</time>
      </trkpt>
      <trkpt lat="36.55013" lon="32.01126">
        <ele>22.919963</ele>
        <time>2022-02-25T11:17:32.718Z</time>
      </trkpt>
      <trkpt lat="36.55119" lon="32.01126">
        <ele>23.793829</ele>
        <time>2022-02-25T11:18:07.701Z</time>
      </trkpt>
      <trkpt lat="36.55119" lon="32.01097">
        <ele>23.953724</ele>
        <time>2022-02-25T11:18:14.502Z</time>
      </trkpt>
      <trkpt lat="36.55125" lon="32.01052">
        <ele>24.208957</ele>
        <time>2022-02-25T11:18:24.911Z</time>
      </trkpt>
      <trkpt lat="36.5512" lon="32.00987">
        <ele>24.017101</ele>
        <time>2022-02-25T11:18:38.259Z</time>
      </trkpt>
      <trkpt lat="36.55117" lon="32.00948">
        <ele>23.615767</ele>
        <time>2022-02-25T11:18:45.704Z</time>
      </trkpt>
      <trkpt lat="36.55112" lon="32.00897">
        <ele>23.087307</ele>
        <time>2022-02-25T11:18:55.012Z</time>
      </trkpt>
      <trkpt lat="36.5511" lon="32.00866">
        <ele>22.763616</ele>
        <time>2022-02-25T11:19:00.804Z</time>
      </trkpt>
      <trkpt lat="36.5511" lon="32.00809">
        <ele>22.172925</ele>
        <time>2022-02-25T11:19:11.350Z</time>
      </trkpt>
      <trkpt lat="36.55111" lon="32.00748">
        <ele>21.595652</ele>
        <time>2022-02-25T11:19:22.591Z</time>
      </trkpt>
      <trkpt lat="36.55109" lon="32.00724">
        <ele>21.370315</ele>
        <time>2022-02-25T11:19:26.881Z</time>
      </trkpt>
      <trkpt lat="36.55108" lon="32.00652">
        <ele>20.699971</ele>
        <time>2022-02-25T11:19:40.014Z</time>
      </trkpt>
      <trkpt lat="36.55109" lon="32.00588">
        <ele>20.105081</ele>
        <time>2022-02-25T11:19:52.662Z</time>
      </trkpt>
      <trkpt lat="36.55112" lon="32.00505">
        <ele>20.844245</ele>
        <time>2022-02-25T11:20:12.429Z</time>
      </trkpt>
      <trkpt lat="36.55114" lon="32.00439">
        <ele>21.672839</ele>
        <time>2022-02-25T11:20:31.131Z</time>
      </trkpt>
      <trkpt lat="36.55114" lon="32.00431">
        <ele>21.772506</ele>
        <time>2022-02-25T11:20:33.564Z</time>
      </trkpt>
      <trkpt lat="36.55115" lon="32.00338">
        <ele>23.078081</ele>
        <time>2022-02-25T11:21:03.936Z</time>
      </trkpt>
      <trkpt lat="36.55118" lon="32.00317">
        <ele>23.57794</ele>
        <time>2022-02-25T11:21:11.966Z</time>
      </trkpt>
      <trkpt lat="36.55121" lon="32.00202">
        <ele>26.253373</ele>
        <time>2022-02-25T11:21:52.768Z</time>
      </trkpt>
      <trkpt lat="36.55127" lon="32.00154">
        <ele>27.391412</ele>
        <time>2022-02-25T11:22:08.415Z</time>
      </trkpt>
      <trkpt lat="36.55134" lon="32.00078">
        <ele>28.761542</ele>
        <time>2022-02-25T11:22:31.421Z</time>
      </trkpt>
      <trkpt lat="36.55127" lon="32.00077">
        <ele>28.877831</ele>
        <time>2022-02-25T11:22:34.059Z</time>
      </trkpt>
      <trkpt lat="36.55128" lon="32.00069">
        <ele>28.996811</ele>
        <time>2022-02-25T11:22:36.311Z</time>
      </trkpt>
      <trkpt lat="36.55133" lon="32.0001">
        <ele>29.870156</ele>
        <time>2022-02-25T11:22:52.925Z</time>
      </trkpt>
      <trkpt lat="36.55134" lon="32.00001">
        <ele>30.006489</ele>
        <time>2022-02-25T11:22:55.589Z</time>
      </trkpt>
      <trkpt lat="36.55134" lon="31.99992">
        <ele>30.142822</ele>
        <time>2022-02-25T11:22:58.701Z</time>
      </trkpt>
      <trkpt lat="36.55134" lon="31.99918">
        <ele>31.235491</ele>
        <time>2022-02-25T11:23:18.421Z</time>
      </trkpt>
      <trkpt lat="36.55134" lon="31.99915">
        <ele>31.285794</ele>
        <time>2022-02-25T11:23:19.352Z</time>
      </trkpt>
      <trkpt lat="36.55133" lon="31.99906">
        <ele>31.384909</ele>
        <time>2022-02-25T11:23:22.050Z</time>
      </trkpt>
      <trkpt lat="36.5513" lon="31.99831">
        <ele>32.102466</ele>
        <time>2022-02-25T11:23:42.099Z</time>
      </trkpt>
      <trkpt lat="36.55129" lon="31.99811">
        <ele>32.296346</ele>
        <time>2022-02-25T11:23:48.264Z</time>
      </trkpt>
      <trkpt lat="36.55133" lon="31.99784">
        <ele>32.559741</ele>
        <time>2022-02-25T11:23:56.132Z</time>
      </trkpt>
      <trkpt lat="36.55146" lon="31.99737">
        <ele>33.040453</ele>
        <time>2022-02-25T11:24:09.819Z</time>
      </trkpt>
      <trkpt lat="36.55168" lon="31.99658">
        <ele>33.246256</ele>
        <time>2022-02-25T11:24:27.577Z</time>
      </trkpt>
      <trkpt lat="36.55177" lon="31.99612">
        <ele>32.962283</ele>
        <time>2022-02-25T11:24:36.415Z</time>
      </trkpt>
      <trkpt lat="36.55178" lon="31.99563">
        <ele>32.669685</ele>
        <time>2022-02-25T11:24:45.302Z</time>
      </trkpt>
      <trkpt lat="36.55172" lon="31.99499">
        <ele>32.281758</ele>
        <time>2022-02-25T11:24:57.024Z</time>
      </trkpt>
      <trkpt lat="36.55192" lon="31.99486">
        <ele>32.127613</ele>
        <time>2022-02-25T11:25:02.760Z</time>
      </trkpt>
      <trkpt lat="36.55212" lon="31.99461">
        <ele>32.10362</ele>
        <time>2022-02-25T11:25:09.475Z</time>
      </trkpt>
      <trkpt lat="36.55229" lon="31.99438">
        <ele>32.081487</ele>
        <time>2022-02-25T11:25:15.675Z</time>
      </trkpt>
      <trkpt lat="36.55259" lon="31.99374">
        <ele>32.029288</ele>
        <time>2022-02-25T11:25:31.748Z</time>
      </trkpt>
      <trkpt lat="36.55272" lon="31.99338">
        <ele>32.001424</ele>
        <time>2022-02-25T11:25:41.487Z</time>
      </trkpt>
      <trkpt lat="36.55283" lon="31.99313">
        <ele>31.980859</ele>
        <time>2022-02-25T11:25:48.895Z</time>
      </trkpt>
      <trkpt lat="36.55296" lon="31.99293">
        <ele>31.893577</ele>
        <time>2022-02-25T11:25:55.392Z</time>
      </trkpt>
      <trkpt lat="36.55331" lon="31.99253">
        <ele>31.555287</ele>
        <time>2022-02-25T11:26:08.776Z</time>
      </trkpt>
      <trkpt lat="36.5535" lon="31.99234">
        <ele>31.380756</ele>
        <time>2022-02-25T11:26:15.099Z</time>
      </trkpt>
      <trkpt lat="36.55368" lon="31.99223">
        <ele>31.239245</ele>
        <time>2022-02-25T11:26:19.733Z</time>
      </trkpt>
      <trkpt lat="36.5539" lon="31.99211">
        <ele>31.068341</ele>
        <time>2022-02-25T11:26:25.065Z</time>
      </trkpt>
      <trkpt lat="36.55406" lon="31.992">
        <ele>30.933632</ele>
        <time>2022-02-25T11:26:29.001Z</time>
      </trkpt>
      <trkpt lat="36.55415" lon="31.99197">
        <ele>30.867273</ele>
        <time>2022-02-25T11:26:31.212Z</time>
      </trkpt>
      <trkpt lat="36.55425" lon="31.99193">
        <ele>30.795834</ele>
        <time>2022-02-25T11:26:33.470Z</time>
      </trkpt>
      <trkpt lat="36.55485" lon="31.9915">
        <ele>29.557797</ele>
        <time>2022-02-25T11:26:47.929Z</time>
      </trkpt>
      <trkpt lat="36.55494" lon="31.9914">
        <ele>29.313536</ele>
        <time>2022-02-25T11:26:50.311Z</time>
      </trkpt>
      <trkpt lat="36.55496" lon="31.99137">
        <ele>29.245264</ele>
        <time>2022-02-25T11:26:50.869Z</time>
      </trkpt>
      <trkpt lat="36.55515" lon="31.99088">
        <ele>28.345242</ele>
        <time>2022-02-25T11:26:59.612Z</time>
      </trkpt>
      <trkpt lat="36.55568" lon="31.98986">
        <ele>27.089973</ele>
        <time>2022-02-25T11:27:20.532Z</time>
      </trkpt>
      <trkpt lat="36.55612" lon="31.98899">
        <ele>27.463368</ele>
        <time>2022-02-25T11:27:43.847Z</time>
      </trkpt>
      <trkpt lat="36.55627" lon="31.98877">
        <ele>27.571398</ele>
        <time>2022-02-25T11:27:53.229Z</time>
      </trkpt>
      <trkpt lat="36.55649" lon="31.98849">
        <ele>27.712401</ele>
        <time>2022-02-25T11:28:04.383Z</time>
      </trkpt>
      <trkpt lat="36.55659" lon="31.98843">
        <ele>27.762882</ele>
        <time>2022-02-25T11:28:07.220Z</time>
      </trkpt>
      <trkpt lat="36.55673" lon="31.98832">
        <ele>27.899974</ele>
        <time>2022-02-25T11:28:13.303Z</time>
      </trkpt>
      <trkpt lat="36.55674" lon="31.98833">
        <ele>27.915896</ele>
        <time>2022-02-25T11:28:14.231Z</time>
      </trkpt>
      <trkpt lat="36.55679" lon="31.98836">
        <ele>27.960916</ele>
        <time>2022-02-25T11:28:16.752Z</time>
      </trkpt>
      <trkpt lat="36.55684" lon="31.98837">
        <ele>28.006444</ele>
        <time>2022-02-25T11:28:18.383Z</time>
      </trkpt>
      <trkpt lat="36.55698" lon="31.98829">
        <ele>28.137849</ele>
        <time>2022-02-25T11:28:22.419Z</time>
      </trkpt>
      <trkpt lat="36.557" lon="31.98825">
        <ele>28.167711</ele>
        <time>2022-02-25T11:28:23.754Z</time>
      </trkpt>
      <trkpt lat="36.5571" lon="31.98816">
        <ele>28.270189</ele>
        <time>2022-02-25T11:28:29.332Z</time>
      </trkpt>
      <trkpt lat="36.55732" lon="31.98807">
        <ele>28.470087</ele>
        <time>2022-02-25T11:28:35.573Z</time>
      </trkpt>
      <trkpt lat="36.55744" lon="31.98813">
        <ele>28.576065</ele>
        <time>2022-02-25T11:28:41.300Z</time>
      </trkpt>
      <trkpt lat="36.55746" lon="31.98786">
        <ele>28.756817</ele>
        <time>2022-02-25T11:28:46.787Z</time>
      </trkpt>
      <trkpt lat="36.55745" lon="31.98764">
        <ele>28.909102</ele>
        <time>2022-02-25T11:28:53.731Z</time>
      </trkpt>
      <trkpt lat="36.55735" lon="31.98742">
        <ele>29.08151</ele>
        <time>2022-02-25T11:28:58.912Z</time>
      </trkpt>
      <trkpt lat="36.55715" lon="31.98716">
        <ele>29.248041</ele>
        <time>2022-02-25T11:29:06.988Z</time>
      </trkpt>
      <trkpt lat="36.55712" lon="31.98703">
        <ele>29.101759</ele>
        <time>2022-02-25T11:29:10.142Z</time>
      </trkpt>
      <trkpt lat="36.55712" lon="31.98681">
        <ele>28.877203</ele>
        <time>2022-02-25T11:29:14.364Z</time>
      </trkpt>
      <trkpt lat="36.55715" lon="31.9856">
        <ele>27.633894</ele>
        <time>2022-02-25T11:29:35.778Z</time>
      </trkpt>
      <trkpt lat="36.55716" lon="31.98528">
        <ele>27.301196</ele>
        <time>2022-02-25T11:29:41.664Z</time>
      </trkpt>
      <trkpt lat="36.55716" lon="31.98458">
        <ele>27.102456</ele>
        <time>2022-02-25T11:29:55.155Z</time>
      </trkpt>
      <trkpt lat="36.55715" lon="31.98242">
        <ele>27.889133</ele>
        <time>2022-02-25T11:30:49.661Z</time>
      </trkpt>
      <trkpt lat="36.55715" lon="31.982">
        <ele>28.247632</ele>
        <time>2022-02-25T11:31:01.771Z</time>
      </trkpt>
      <trkpt lat="36.55717" lon="31.98146">
        <ele>28.708843</ele>
        <time>2022-02-25T11:31:16.898Z</time>
      </trkpt>
      <trkpt lat="36.55726" lon="31.98095">
        <ele>29.157006</ele>
        <time>2022-02-25T11:31:30.933Z</time>
      </trkpt>
      <trkpt lat="36.55727" lon="31.98091">
        <ele>29.193707</ele>
        <time>2022-02-25T11:31:31.845Z</time>
      </trkpt>
      <trkpt lat="36.55763" lon="31.97897">
        <ele>30.803022</ele>
        <time>2022-02-25T11:32:20.743Z</time>
      </trkpt>
      <trkpt lat="36.55768" lon="31.97863">
        <ele>31.076869</ele>
        <time>2022-02-25T11:32:30.014Z</time>
      </trkpt>
      <trkpt lat="36.55782" lon="31.97799">
        <ele>32.366146</ele>
        <time>2022-02-25T11:32:49.907Z</time>
      </trkpt>
      <trkpt lat="36.5579" lon="31.97742">
        <ele>34.01106</ele>
        <time>2022-02-25T11:33:09.203Z</time>
      </trkpt>
      <trkpt lat="36.55819" lon="31.97653">
        <ele>36.751033</ele>
        <time>2022-02-25T11:33:45.967Z</time>
      </trkpt>
      <trkpt lat="36.5586" lon="31.97585">
        <ele>38.910838</ele>
        <time>2022-02-25T11:34:22.128Z</time>
      </trkpt>
      <trkpt lat="36.55903" lon="31.97536">
        <ele>40.639647</ele>
        <time>2022-02-25T11:34:51.586Z</time>
      </trkpt>
      <trkpt lat="36.55925" lon="31.97482">
        <ele>42.075875</ele>
        <time>2022-02-25T11:35:10.313Z</time>
      </trkpt>
      <trkpt lat="36.55931" lon="31.97467">
        <ele>42.459829</ele>
        <time>2022-02-25T11:35:15.902Z</time>
      </trkpt>
      <trkpt lat="36.55948" lon="31.97418">
        <ele>41.688241</ele>
        <time>2022-02-25T11:35:27.230Z</time>
      </trkpt>
      <trkpt lat="36.55963" lon="31.97349">
        <ele>38.686889</ele>
        <time>2022-02-25T11:35:38.189Z</time>
      </trkpt>
      <trkpt lat="36.55982" lon="31.97292">
        <ele>36.104287</ele>
        <time>2022-02-25T11:35:47.383Z</time>
      </trkpt>
      <trkpt lat="36.55991" lon="31.97243">
        <ele>34.021048</ele>
        <time>2022-02-25T11:35:54.341Z</time>
      </trkpt>
      <trkpt lat="36.55972" lon="31.97249">
        <ele>32.695264</ele>
        <time>2022-02-25T11:35:57.617Z</time>
      </trkpt>
      <trkpt lat="36.55826" lon="31.97238">
        <ele>20.993988</ele>
        <time>2022-02-25T11:36:22.981Z</time>
      </trkpt>
      <trkpt lat="36.55779" lon="31.97235">
        <ele>18.656148</ele>
        <time>2022-02-25T11:36:32.097Z</time>
      </trkpt>
      <trkpt lat="36.55787" lon="31.97138">
        <ele>16.897991</ele>
        <time>2022-02-25T11:36:48.696Z</time>
      </trkpt>
      <trkpt lat="36.55787" lon="31.97102">
        <ele>16.24783</ele>
        <time>2022-02-25T11:36:55.262Z</time>
      </trkpt>
      <trkpt lat="36.55791" lon="31.97053">
        <ele>15.355775</ele>
        <time>2022-02-25T11:37:05.876Z</time>
      </trkpt>
      <trkpt lat="36.55789" lon="31.97036">
        <ele>15.222936</ele>
        <time>2022-02-25T11:37:10.493Z</time>
      </trkpt>
      <trkpt lat="36.55769" lon="31.96942">
        <ele>15.862768</ele>
        <time>2022-02-25T11:37:37.804Z</time>
      </trkpt>
      <trkpt lat="36.55771" lon="31.9691">
        <ele>16.075191</ele>
        <time>2022-02-25T11:37:46.564Z</time>
      </trkpt>
      <trkpt lat="36.55777" lon="31.96861">
        <ele>16.396489</ele>
        <time>2022-02-25T11:37:58.703Z</time>
      </trkpt>
      <trkpt lat="36.55784" lon="31.96803">
        <ele>16.512797</ele>
        <time>2022-02-25T11:38:12.157Z</time>
      </trkpt>
      <trkpt lat="36.55787" lon="31.96786">
        <ele>16.402025</ele>
        <time>2022-02-25T11:38:15.954Z</time>
      </trkpt>
      <trkpt lat="36.55795" lon="31.96746">
        <ele>16.136381</ele>
        <time>2022-02-25T11:38:24.631Z</time>
      </trkpt>
      <trkpt lat="36.55812" lon="31.96709">
        <ele>15.857863</ele>
        <time>2022-02-25T11:38:33.314Z</time>
      </trkpt>
      <trkpt lat="36.55827" lon="31.96658">
        <ele>15.509371</ele>
        <time>2022-02-25T11:38:43.270Z</time>
      </trkpt>
      <trkpt lat="36.55845" lon="31.96578">
        <ele>14.652232</ele>
        <time>2022-02-25T11:38:56.945Z</time>
      </trkpt>
      <trkpt lat="36.55846" lon="31.96555">
        <ele>14.290433</ele>
        <time>2022-02-25T11:39:00.854Z</time>
      </trkpt>
      <trkpt lat="36.55838" lon="31.96499">
        <ele>13.416482</ele>
        <time>2022-02-25T11:39:10.157Z</time>
      </trkpt>
      <trkpt lat="36.5582" lon="31.96407">
        <ele>11.955479</ele>
        <time>2022-02-25T11:39:26.224Z</time>
      </trkpt>
      <trkpt lat="36.55829" lon="31.9638">
        <ele>11.668556</ele>
        <time>2022-02-25T11:39:31.554Z</time>
      </trkpt>
      <trkpt lat="36.55947" lon="31.95945">
        <ele>10.277067</ele>
        <time>2022-02-25T11:41:05.003Z</time>
      </trkpt>
      <trkpt lat="36.55958" lon="31.95897">
        <ele>10.445753</ele>
        <time>2022-02-25T11:41:15.021Z</time>
      </trkpt>
      <trkpt lat="36.55963" lon="31.95853">
        <ele>10.598052</ele>
        <time>2022-02-25T11:41:24.522Z</time>
      </trkpt>
      <trkpt lat="36.55964" lon="31.95836">
        <ele>10.65581</ele>
        <time>2022-02-25T11:41:28.223Z</time>
      </trkpt>
      <trkpt lat="36.55964" lon="31.95821">
        <ele>10.707453</ele>
        <time>2022-02-25T11:41:31.460Z</time>
      </trkpt>
      <trkpt lat="36.55962" lon="31.95443">
        <ele>13.717769</ele>
        <time>2022-02-25T11:43:18.938Z</time>
      </trkpt>
      <trkpt lat="36.55965" lon="31.95384">
        <ele>13.714566</ele>
        <time>2022-02-25T11:43:32.058Z</time>
      </trkpt>
      <trkpt lat="36.55971" lon="31.95347">
        <ele>13.712523</ele>
        <time>2022-02-25T11:43:39.019Z</time>
      </trkpt>
      <trkpt lat="36.55992" lon="31.95266">
        <ele>12.903085</ele>
        <time>2022-02-25T11:43:53.759Z</time>
      </trkpt>
      <trkpt lat="36.56068" lon="31.95077">
        <ele>8.909096</ele>
        <time>2022-02-25T11:44:27.814Z</time>
      </trkpt>
      <trkpt lat="36.56078" lon="31.95045">
        <ele>8.424788</ele>
        <time>2022-02-25T11:44:33.511Z</time>
      </trkpt>
      <trkpt lat="36.56085" lon="31.95024">
        <ele>8.102141</ele>
        <time>2022-02-25T11:44:37.337Z</time>
      </trkpt>
      <trkpt lat="36.56089" lon="31.95012">
        <ele>7.924786</ele>
        <time>2022-02-25T11:44:39.470Z</time>
      </trkpt>
      <trkpt lat="36.561" lon="31.94956">
        <ele>7.109949</ele>
        <time>2022-02-25T11:44:49.334Z</time>
      </trkpt>
      <trkpt lat="36.56105" lon="31.94923">
        <ele>6.640907</ele>
        <time>2022-02-25T11:44:55.281Z</time>
      </trkpt>
      <trkpt lat="36.56107" lon="31.94902">
        <ele>6.341968</ele>
        <time>2022-02-25T11:44:59.126Z</time>
      </trkpt>
      <trkpt lat="36.56109" lon="31.94782">
        <ele>7.321783</ele>
        <time>2022-02-25T11:45:25.271Z</time>
      </trkpt>
      <trkpt lat="36.56104" lon="31.94722">
        <ele>7.968733</ele>
        <time>2022-02-25T11:45:42.905Z</time>
      </trkpt>
      <trkpt lat="36.56092" lon="31.94656">
        <ele>8.9138</ele>
        <time>2022-02-25T11:46:05.906Z</time>
      </trkpt>
      <trkpt lat="36.5605" lon="31.94496">
        <ele>13.891581</ele>
        <time>2022-02-25T11:47:07.175Z</time>
      </trkpt>
      <trkpt lat="36.56034" lon="31.94424">
        <ele>15.860622</ele>
        <time>2022-02-25T11:47:34.438Z</time>
      </trkpt>
      <trkpt lat="36.56026" lon="31.94368">
        <ele>17.121416</ele>
        <time>2022-02-25T11:47:54.369Z</time>
      </trkpt>
      <trkpt lat="36.56025" lon="31.94296">
        <ele>18.687225</ele>
        <time>2022-02-25T11:48:17.075Z</time>
      </trkpt>
      <trkpt lat="36.56034" lon="31.94235">
        <ele>20.026999</ele>
        <time>2022-02-25T11:48:35.779Z</time>
      </trkpt>
      <trkpt lat="36.56053" lon="31.94161">
        <ele>20.938602</ele>
        <time>2022-02-25T11:48:59.485Z</time>
      </trkpt>
      <trkpt lat="36.56397" lon="31.92887">
        <ele>31.787373</ele>
        <time>2022-02-25T11:55:09.576Z</time>
      </trkpt>
      <trkpt lat="36.5643" lon="31.92773">
        <ele>26.724226</ele>
        <time>2022-02-25T11:55:25.866Z</time>
      </trkpt>
      <trkpt lat="36.56446" lon="31.92696">
        <ele>22.749328</ele>
        <time>2022-02-25T11:55:36.253Z</time>
      </trkpt>
      <trkpt lat="36.56463" lon="31.92536">
        <ele>13.987962</ele>
        <time>2022-02-25T11:55:58.763Z</time>
      </trkpt>
      <trkpt lat="36.56464" lon="31.92479">
        <ele>12.711006</ele>
        <time>2022-02-25T11:56:08.040Z</time>
      </trkpt>
      <trkpt lat="36.56466" lon="31.92419">
        <ele>11.793011</ele>
        <time>2022-02-25T11:56:18.090Z</time>
      </trkpt>
      <trkpt lat="36.5646" lon="31.92332">
        <ele>10.461474</ele>
        <time>2022-02-25T11:56:34.223Z</time>
      </trkpt>
      <trkpt lat="36.56451" lon="31.92246">
        <ele>10.376931</ele>
        <time>2022-02-25T11:56:52.346Z</time>
      </trkpt>
      <trkpt lat="36.56442" lon="31.92154">
        <ele>10.97571</ele>
        <time>2022-02-25T11:57:14.026Z</time>
      </trkpt>
      <trkpt lat="36.56442" lon="31.92107">
        <ele>11.282354</ele>
        <time>2022-02-25T11:57:26.769Z</time>
      </trkpt>
      <trkpt lat="36.56452" lon="31.92021">
        <ele>12.704111</ele>
        <time>2022-02-25T11:57:53.869Z</time>
      </trkpt>
      <trkpt lat="36.56461" lon="31.9198">
        <ele>13.570126</ele>
        <time>2022-02-25T11:58:07.742Z</time>
      </trkpt>
      <trkpt lat="36.56474" lon="31.9194">
        <ele>14.467543</ele>
        <time>2022-02-25T11:58:22.704Z</time>
      </trkpt>
      <trkpt lat="36.56512" lon="31.91845">
        <ele>16.036383</ele>
        <time>2022-02-25T11:58:59.167Z</time>
      </trkpt>
      <trkpt lat="36.56582" lon="31.91698">
        <ele>15.767353</ele>
        <time>2022-02-25T11:59:34.852Z</time>
      </trkpt>
      <trkpt lat="36.56652" lon="31.91568">
        <ele>13.169119</ele>
        <time>2022-02-25T11:59:59.754Z</time>
      </trkpt>
      <trkpt lat="36.56889" lon="31.91188">
        <ele>5.503187</ele>
        <time>2022-02-25T12:01:20.976Z</time>
      </trkpt>
      <trkpt lat="36.56901" lon="31.91169">
        <ele>5.195929</ele>
        <time>2022-02-25T12:01:25.360Z</time>
      </trkpt>
      <trkpt lat="36.56921" lon="31.91138">
        <ele>4.738625</ele>
        <time>2022-02-25T12:01:33.441Z</time>
      </trkpt>
      <trkpt lat="36.569" lon="31.91122">
        <ele>4.744758</ele>
        <time>2022-02-25T12:01:39.534Z</time>
      </trkpt>
      <trkpt lat="36.56893" lon="31.91111">
        <ele>4.747588</ele>
        <time>2022-02-25T12:01:42.732Z</time>
      </trkpt>
      <trkpt lat="36.5689" lon="31.91104">
        <ele>4.749115</ele>
        <time>2022-02-25T12:01:44.199Z</time>
      </trkpt>
      <trkpt lat="36.56906" lon="31.91079">
        <ele>4.755427</ele>
        <time>2022-02-25T12:01:51.391Z</time>
      </trkpt>
      <trkpt lat="36.56947" lon="31.91029">
        <ele>4.769643</ele>
        <time>2022-02-25T12:02:07.190Z</time>
      </trkpt>
      <trkpt lat="36.56967" lon="31.91001">
        <ele>4.777106</ele>
        <time>2022-02-25T12:02:16.164Z</time>
      </trkpt>
      <trkpt lat="36.56981" lon="31.90977">
        <ele>4.798785</ele>
        <time>2022-02-25T12:02:23.778Z</time>
      </trkpt>
      <trkpt lat="36.57039" lon="31.90886">
        <ele>5.294427</ele>
        <time>2022-02-25T12:02:53.939Z</time>
      </trkpt>
      <trkpt lat="36.57165" lon="31.90725">
        <ele>6.118572</ele>
        <time>2022-02-25T12:03:45.578Z</time>
      </trkpt>
      <trkpt lat="36.57248" lon="31.90597">
        <ele>7.256455</ele>
        <time>2022-02-25T12:04:26.262Z</time>
      </trkpt>
      <trkpt lat="36.57254" lon="31.90588">
        <ele>7.414094</ele>
        <time>2022-02-25T12:04:29.395Z</time>
      </trkpt>
      <trkpt lat="36.57262" lon="31.90576">
        <ele>7.609917</ele>
        <time>2022-02-25T12:04:33.557Z</time>
      </trkpt>
      <trkpt lat="36.57344" lon="31.90457">
        <ele>10.124161</ele>
        <time>2022-02-25T12:05:20.598Z</time>
      </trkpt>
      <trkpt lat="36.57401" lon="31.90389">
        <ele>13.430583</ele>
        <time>2022-02-25T12:05:56.646Z</time>
      </trkpt>
      <trkpt lat="36.5743" lon="31.90345">
        <ele>15.355663</ele>
        <time>2022-02-25T12:06:19.775Z</time>
      </trkpt>
      <trkpt lat="36.57542" lon="31.9021">
        <ele>23.646797</ele>
        <time>2022-02-25T12:07:48.148Z</time>
      </trkpt>
      <trkpt lat="36.57597" lon="31.90151">
        <ele>27.411368</ele>
        <time>2022-02-25T12:08:28.130Z</time>
      </trkpt>
      <trkpt lat="36.5761" lon="31.90137">
        <ele>27.859108</ele>
        <time>2022-02-25T12:08:37.677Z</time>
      </trkpt>
      <trkpt lat="36.5772" lon="31.90016">
        <ele>31.68539</ele>
        <time>2022-02-25T12:09:36.856Z</time>
      </trkpt>
      <trkpt lat="36.58206" lon="31.89547">
        <ele>20.319431</ele>
        <time>2022-02-25T12:11:50.581Z</time>
      </trkpt>
      <trkpt lat="36.58224" lon="31.89527">
        <ele>20.192941</ele>
        <time>2022-02-25T12:11:56.504Z</time>
      </trkpt>
      <trkpt lat="36.58229" lon="31.89522">
        <ele>20.161488</ele>
        <time>2022-02-25T12:11:59.233Z</time>
      </trkpt>
      <trkpt lat="36.58307" lon="31.89429">
        <ele>20.039694</ele>
        <time>2022-02-25T12:12:32.639Z</time>
      </trkpt>
      <trkpt lat="36.58366" lon="31.89338">
        <ele>21.034565</ele>
        <time>2022-02-25T12:13:03.423Z</time>
      </trkpt>
      <trkpt lat="36.58401" lon="31.89279">
        <ele>21.651774</ele>
        <time>2022-02-25T12:13:23.541Z</time>
      </trkpt>
      <trkpt lat="36.58428" lon="31.89219">
        <ele>21.827761</ele>
        <time>2022-02-25T12:13:43.251Z</time>
      </trkpt>
      <trkpt lat="36.58432" lon="31.89204">
        <ele>21.866687</ele>
        <time>2022-02-25T12:13:47.213Z</time>
      </trkpt>
      <trkpt lat="36.58418" lon="31.89174">
        <ele>21.955712</ele>
        <time>2022-02-25T12:13:58.241Z</time>
      </trkpt>
      <trkpt lat="36.58388" lon="31.89017">
        <ele>20.944683</ele>
        <time>2022-02-25T12:14:28.776Z</time>
      </trkpt>
      <trkpt lat="36.58385" lon="31.88997">
        <ele>20.477608</ele>
        <time>2022-02-25T12:14:33.029Z</time>
      </trkpt>
      <trkpt lat="36.5841" lon="31.88989">
        <ele>19.774773</ele>
        <time>2022-02-25T12:14:37.920Z</time>
      </trkpt>
      <trkpt lat="36.5849" lon="31.88957">
        <ele>17.45141</ele>
        <time>2022-02-25T12:14:55.253Z</time>
      </trkpt>
      <trkpt lat="36.58514" lon="31.88948">
        <ele>16.921248</ele>
        <time>2022-02-25T12:15:00.008Z</time>
      </trkpt>
      <trkpt lat="36.58523" lon="31.88912">
        <ele>16.354598</ele>
        <time>2022-02-25T12:15:07.927Z</time>
      </trkpt>
      <trkpt lat="36.58533" lon="31.8886">
        <ele>15.55748</ele>
        <time>2022-02-25T12:15:19.916Z</time>
      </trkpt>
      <trkpt lat="36.58547" lon="31.8877">
        <ele>14.181797</ele>
        <time>2022-02-25T12:15:42.708Z</time>
      </trkpt>
      <trkpt lat="36.58552" lon="31.88731">
        <ele>14.00234</ele>
        <time>2022-02-25T12:15:55.029Z</time>
      </trkpt>
      <trkpt lat="36.58558" lon="31.88743">
        <ele>14.077457</ele>
        <time>2022-02-25T12:15:58.497Z</time>
      </trkpt>
      <trkpt lat="36.58557" lon="31.8875">
        <ele>14.115255</ele>
        <time>2022-02-25T12:16:00.321Z</time>
      </trkpt>
      <trkpt lat="36.58558" lon="31.88757">
        <ele>14.153767</ele>
        <time>2022-02-25T12:16:02.191Z</time>
      </trkpt>
      <trkpt lat="36.58565" lon="31.88769">
        <ele>14.229985</ele>
        <time>2022-02-25T12:16:05.700Z</time>
      </trkpt>
      <trkpt lat="36.58577" lon="31.88771">
        <ele>14.306367</ele>
        <time>2022-02-25T12:16:09.292Z</time>
      </trkpt>
      <trkpt lat="36.58582" lon="31.88769">
        <ele>14.344753</ele>
        <time>2022-02-25T12:16:11.332Z</time>
      </trkpt>
      <trkpt lat="36.58585" lon="31.88767">
        <ele>14.361889</ele>
        <time>2022-02-25T12:16:12.140Z</time>
      </trkpt>
      <trkpt lat="36.58608" lon="31.88787">
        <ele>14.548254</ele>
        <time>2022-02-25T12:16:21.099Z</time>
      </trkpt>
      <trkpt lat="36.58621" lon="31.88793">
        <ele>14.63483</ele>
        <time>2022-02-25T12:16:25.549Z</time>
      </trkpt>
      <trkpt lat="36.58708" lon="31.88808">
        <ele>15.287167</ele>
        <time>2022-02-25T12:16:53.023Z</time>
      </trkpt>
      <trkpt lat="36.5872" lon="31.8881">
        <ele>15.412193</ele>
        <time>2022-02-25T12:16:57.234Z</time>
      </trkpt>
      <trkpt lat="36.58727" lon="31.88787">
        <ele>15.618429</ele>
        <time>2022-02-25T12:17:03.489Z</time>
      </trkpt>
      <trkpt lat="36.58742" lon="31.88764">
        <ele>15.866251</ele>
        <time>2022-02-25T12:17:11.697Z</time>
      </trkpt>
      <trkpt lat="36.58754" lon="31.88734">
        <ele>16.140647</ele>
        <time>2022-02-25T12:17:20.418Z</time>
      </trkpt>
      <trkpt lat="36.58774" lon="31.88703">
        <ele>16.473036</ele>
        <time>2022-02-25T12:17:30.964Z</time>
      </trkpt>
      <trkpt lat="36.58784" lon="31.88675">
        <ele>16.723983</ele>
        <time>2022-02-25T12:17:38.936Z</time>
      </trkpt>
      <trkpt lat="36.58812" lon="31.88592">
        <ele>17.476821</ele>
        <time>2022-02-25T12:18:03.105Z</time>
      </trkpt>
      <trkpt lat="36.58816" lon="31.88509">
        <ele>18.184707</ele>
        <time>2022-02-25T12:18:25.936Z</time>
      </trkpt>
      <trkpt lat="36.58771" lon="31.88326">
        <ele>18.816279</ele>
        <time>2022-02-25T12:19:13.697Z</time>
      </trkpt>
      <trkpt lat="36.58766" lon="31.88307">
        <ele>18.817282</ele>
        <time>2022-02-25T12:19:17.993Z</time>
      </trkpt>
      <trkpt lat="36.58763" lon="31.88298">
        <ele>18.817816</ele>
        <time>2022-02-25T12:19:20.131Z</time>
      </trkpt>
      <trkpt lat="36.58757" lon="31.88227">
        <ele>18.821518</ele>
        <time>2022-02-25T12:19:34.937Z</time>
      </trkpt>
      <trkpt lat="36.58756" lon="31.88207">
        <ele>18.589894</ele>
        <time>2022-02-25T12:19:38.819Z</time>
      </trkpt>
      <trkpt lat="36.58755" lon="31.88187">
        <ele>18.275471</ele>
        <time>2022-02-25T12:19:42.621Z</time>
      </trkpt>
      <trkpt lat="36.58743" lon="31.87999">
        <ele>15.216316</ele>
        <time>2022-02-25T12:20:15.480Z</time>
      </trkpt>
      <trkpt lat="36.58741" lon="31.87985">
        <ele>14.958187</ele>
        <time>2022-02-25T12:20:17.767Z</time>
      </trkpt>
      <trkpt lat="36.5874" lon="31.8797">
        <ele>14.683865</ele>
        <time>2022-02-25T12:20:20.378Z</time>
      </trkpt>
      <trkpt lat="36.58741" lon="31.87785">
        <ele>11.287402</ele>
        <time>2022-02-25T12:20:52.426Z</time>
      </trkpt>
      <trkpt lat="36.58755" lon="31.87634">
        <ele>9.162135</ele>
        <time>2022-02-25T12:21:20.187Z</time>
      </trkpt>
      <trkpt lat="36.58757" lon="31.87618">
        <ele>8.935434</ele>
        <time>2022-02-25T12:21:23.103Z</time>
      </trkpt>
      <trkpt lat="36.58757" lon="31.87612">
        <ele>8.863639</ele>
        <time>2022-02-25T12:21:23.949Z</time>
      </trkpt>
      <trkpt lat="36.58768" lon="31.87544">
        <ele>7.980265</ele>
        <time>2022-02-25T12:21:37.163Z</time>
      </trkpt>
      <trkpt lat="36.5877" lon="31.87532">
        <ele>7.920099</ele>
        <time>2022-02-25T12:21:39.258Z</time>
      </trkpt>
      <trkpt lat="36.58772" lon="31.87523">
        <ele>7.868669</ele>
        <time>2022-02-25T12:21:40.938Z</time>
      </trkpt>
      <trkpt lat="36.58785" lon="31.87481">
        <ele>7.638768</ele>
        <time>2022-02-25T12:21:49.321Z</time>
      </trkpt>
      <trkpt lat="36.588" lon="31.87401">
        <ele>7.215233</ele>
        <time>2022-02-25T12:22:06.399Z</time>
      </trkpt>
      <trkpt lat="36.58817" lon="31.87309">
        <ele>6.875144</ele>
        <time>2022-02-25T12:22:27.481Z</time>
      </trkpt>
      <trkpt lat="36.58824" lon="31.87291">
        <ele>6.879097</ele>
        <time>2022-02-25T12:22:32.236Z</time>
      </trkpt>
      <trkpt lat="36.58839" lon="31.87247">
        <ele>6.888656</ele>
        <time>2022-02-25T12:22:43.096Z</time>
      </trkpt>
      <trkpt lat="36.58854" lon="31.87203">
        <ele>6.898412</ele>
        <time>2022-02-25T12:22:54.028Z</time>
      </trkpt>
      <trkpt lat="36.58881" lon="31.8712">
        <ele>6.856521</ele>
        <time>2022-02-25T12:23:13.175Z</time>
      </trkpt>
      <trkpt lat="36.58905" lon="31.87005">
        <ele>6.046494</ele>
        <time>2022-02-25T12:23:35.325Z</time>
      </trkpt>
      <trkpt lat="36.58934" lon="31.86848">
        <ele>5.259803</ele>
        <time>2022-02-25T12:24:04.854Z</time>
      </trkpt>
      <trkpt lat="36.58956" lon="31.86732">
        <ele>5.019209</ele>
        <time>2022-02-25T12:24:29.010Z</time>
      </trkpt>
      <trkpt lat="36.59132" lon="31.86803">
        <ele>6.436247</ele>
        <time>2022-02-25T12:25:29.347Z</time>
      </trkpt>
      <trkpt lat="36.59132" lon="31.86796">
        <ele>6.491662</ele>
        <time>2022-02-25T12:25:31.293Z</time>
      </trkpt>
      <trkpt lat="36.5918" lon="31.86623">
        <ele>7.992228</ele>
        <time>2022-02-25T12:26:21.175Z</time>
      </trkpt>
      <trkpt lat="36.59198" lon="31.86522">
        <ele>8.4845</ele>
        <time>2022-02-25T12:26:46.848Z</time>
      </trkpt>
      <trkpt lat="36.59209" lon="31.86481">
        <ele>8.40061</ele>
        <time>2022-02-25T12:26:56.738Z</time>
      </trkpt>
      <trkpt lat="36.59216" lon="31.86466">
        <ele>8.36809</ele>
        <time>2022-02-25T12:27:00.366Z</time>
      </trkpt>
      <trkpt lat="36.59234" lon="31.86353">
        <ele>8.144838</ele>
        <time>2022-02-25T12:27:23.904Z</time>
      </trkpt>
      <trkpt lat="36.5922" lon="31.86349">
        <ele>8.080308</ele>
        <time>2022-02-25T12:27:27.504Z</time>
      </trkpt>
      <trkpt lat="36.59182" lon="31.86332">
        <ele>7.715601</ele>
        <time>2022-02-25T12:27:37.351Z</time>
      </trkpt>
      <trkpt lat="36.59176" lon="31.86331">
        <ele>7.652087</ele>
        <time>2022-02-25T12:27:39.007Z</time>
      </trkpt>
      <trkpt lat="36.59073" lon="31.86283">
        <ele>6.648484</ele>
        <time>2022-02-25T12:28:05.666Z</time>
      </trkpt>
      <trkpt lat="36.59097" lon="31.86223">
        <ele>6.194168</ele>
        <time>2022-02-25T12:28:17.954Z</time>
      </trkpt>
      <trkpt lat="36.59125" lon="31.86152">
        <ele>5.680113</ele>
        <time>2022-02-25T12:28:32.835Z</time>
      </trkpt>
      <trkpt lat="36.59133" lon="31.86137">
        <ele>5.565096</ele>
        <time>2022-02-25T12:28:36.302Z</time>
      </trkpt>
      <trkpt lat="36.59148" lon="31.86103">
        <ele>5.313127</ele>
        <time>2022-02-25T12:28:43.842Z</time>
      </trkpt>
      <trkpt lat="36.59151" lon="31.86102">
        <ele>5.28252</ele>
        <time>2022-02-25T12:28:44.782Z</time>
      </trkpt>
      <trkpt lat="36.59159" lon="31.86092">
        <ele>5.194587</ele>
        <time>2022-02-25T12:28:47.421Z</time>
      </trkpt>
      <trkpt lat="36.5916" lon="31.86087">
        <ele>5.16434</ele>
        <time>2022-02-25T12:28:48.335Z</time>
      </trkpt>
      <trkpt lat="36.59168" lon="31.8608">
        <ele>5.083614</ele>
        <time>2022-02-25T12:28:50.700Z</time>
      </trkpt>
      <trkpt lat="36.59251" lon="31.85951">
        <ele>4.909785</ele>
        <time>2022-02-25T12:29:24.257Z</time>
      </trkpt>
      <trkpt lat="36.59268" lon="31.85918">
        <ele>4.881242</ele>
        <time>2022-02-25T12:29:33.219Z</time>
      </trkpt>
      <trkpt lat="36.59272" lon="31.85903">
        <ele>4.869442</ele>
        <time>2022-02-25T12:29:36.888Z</time>
      </trkpt>
      <trkpt lat="36.59285" lon="31.85852">
        <ele>5.068533</ele>
        <time>2022-02-25T12:29:49.567Z</time>
      </trkpt>
      <trkpt lat="36.59288" lon="31.8584">
        <ele>5.130006</ele>
        <time>2022-02-25T12:29:52.571Z</time>
      </trkpt>
      <trkpt lat="36.59324" lon="31.85702">
        <ele>5.874602</ele>
        <time>2022-02-25T12:30:27.540Z</time>
      </trkpt>
      <trkpt lat="36.59342" lon="31.85628">
        <ele>6.144767</ele>
        <time>2022-02-25T12:30:46.196Z</time>
      </trkpt>
      <trkpt lat="36.59347" lon="31.85596">
        <ele>6.229157</ele>
        <time>2022-02-25T12:30:53.518Z</time>
      </trkpt>
      <trkpt lat="36.59367" lon="31.85524">
        <ele>6.431573</ele>
        <time>2022-02-25T12:31:10.682Z</time>
      </trkpt>
      <trkpt lat="36.59379" lon="31.85448">
        <ele>6.603202</ele>
        <time>2022-02-25T12:31:27.652Z</time>
      </trkpt>
      <trkpt lat="36.59383" lon="31.85427">
        <ele>6.611434</ele>
        <time>2022-02-25T12:31:32.328Z</time>
      </trkpt>
      <trkpt lat="36.59392" lon="31.85369">
        <ele>6.634098</ele>
        <time>2022-02-25T12:31:46.091Z</time>
      </trkpt>
      <trkpt lat="36.59397" lon="31.85336">
        <ele>6.646637</ele>
        <time>2022-02-25T12:31:53.396Z</time>
      </trkpt>
      <trkpt lat="36.59414" lon="31.85233">
        <ele>6.648117</ele>
        <time>2022-02-25T12:32:15.271Z</time>
      </trkpt>
      <trkpt lat="36.59419" lon="31.85202">
        <ele>6.527834</ele>
        <time>2022-02-25T12:32:21.781Z</time>
      </trkpt>
      <trkpt lat="36.59443" lon="31.85057">
        <ele>5.972708</ele>
        <time>2022-02-25T12:32:51.280Z</time>
      </trkpt>
      <trkpt lat="36.59468" lon="31.84901">
        <ele>5.58879</ele>
        <time>2022-02-25T12:33:21.606Z</time>
      </trkpt>
      <trkpt lat="36.59484" lon="31.84791">
        <ele>5.425233</ele>
        <time>2022-02-25T12:33:46.729Z</time>
      </trkpt>
      <trkpt lat="36.59486" lon="31.84782">
        <ele>5.459755</ele>
        <time>2022-02-25T12:33:48.991Z</time>
      </trkpt>
      <trkpt lat="36.59509" lon="31.84659">
        <ele>5.908551</ele>
        <time>2022-02-25T12:34:18.189Z</time>
      </trkpt>
      <trkpt lat="36.59513" lon="31.84625">
        <ele>6.03063</ele>
        <time>2022-02-25T12:34:26.394Z</time>
      </trkpt>
      <trkpt lat="36.59518" lon="31.84512">
        <ele>6.251912</ele>
        <time>2022-02-25T12:34:52.827Z</time>
      </trkpt>
      <trkpt lat="36.59523" lon="31.8434">
        <ele>6.387049</ele>
        <time>2022-02-25T12:35:29.416Z</time>
      </trkpt>
      <trkpt lat="36.59525" lon="31.84302">
        <ele>6.353196</ele>
        <time>2022-02-25T12:35:37.324Z</time>
      </trkpt>
      <trkpt lat="36.59528" lon="31.84276">
        <ele>6.330317</ele>
        <time>2022-02-25T12:35:42.655Z</time>
      </trkpt>
      <trkpt lat="36.59532" lon="31.84256">
        <ele>6.31179</ele>
        <time>2022-02-25T12:35:47.043Z</time>
      </trkpt>
      <trkpt lat="36.59537" lon="31.84245">
        <ele>6.300636</ele>
        <time>2022-02-25T12:35:49.701Z</time>
      </trkpt>
      <trkpt lat="36.59588" lon="31.84144">
        <ele>6.203186</ele>
        <time>2022-02-25T12:36:14.668Z</time>
      </trkpt>
      <trkpt lat="36.5961" lon="31.8411">
        <ele>6.191421</ele>
        <time>2022-02-25T12:36:23.942Z</time>
      </trkpt>
      <trkpt lat="36.59613" lon="31.84109">
        <ele>6.190175</ele>
        <time>2022-02-25T12:36:25.020Z</time>
      </trkpt>
      <trkpt lat="36.59619" lon="31.84104">
        <ele>6.187711</ele>
        <time>2022-02-25T12:36:26.981Z</time>
      </trkpt>
      <trkpt lat="36.59621" lon="31.841">
        <ele>6.186446</ele>
        <time>2022-02-25T12:36:28.030Z</time>
      </trkpt>
      <trkpt lat="36.59621" lon="31.84095">
        <ele>6.185197</ele>
        <time>2022-02-25T12:36:28.979Z</time>
      </trkpt>
      <trkpt lat="36.59619" lon="31.84087">
        <ele>6.182726</ele>
        <time>2022-02-25T12:36:30.894Z</time>
      </trkpt>
      <trkpt lat="36.59616" lon="31.84084">
        <ele>6.181463</ele>
        <time>2022-02-25T12:36:31.842Z</time>
      </trkpt>
      <trkpt lat="36.59642" lon="31.84029">
        <ele>6.164298</ele>
        <time>2022-02-25T12:36:45.703Z</time>
      </trkpt>
      <trkpt lat="36.5971" lon="31.83891">
        <ele>5.912084</ele>
        <time>2022-02-25T12:37:20.143Z</time>
      </trkpt>
      <trkpt lat="36.59891" lon="31.83553">
        <ele>4.986282</ele>
        <time>2022-02-25T12:38:40.413Z</time>
      </trkpt>
      <trkpt lat="36.599" lon="31.83514">
        <ele>5.159678</ele>
        <time>2022-02-25T12:38:49.826Z</time>
      </trkpt>
      <trkpt lat="36.59914" lon="31.8307">
        <ele>7.684079</ele>
        <time>2022-02-25T12:40:42.937Z</time>
      </trkpt>
      <trkpt lat="36.59914" lon="31.83048">
        <ele>7.698878</ele>
        <time>2022-02-25T12:40:47.642Z</time>
      </trkpt>
      <trkpt lat="36.59913" lon="31.82958">
        <ele>7.757692</ele>
        <time>2022-02-25T12:41:05.604Z</time>
      </trkpt>
      <trkpt lat="36.59909" lon="31.82914">
        <ele>7.619315</ele>
        <time>2022-02-25T12:41:13.875Z</time>
      </trkpt>
      <trkpt lat="36.59904" lon="31.82872">
        <ele>7.304834</ele>
        <time>2022-02-25T12:41:21.809Z</time>
      </trkpt>
      <trkpt lat="36.59861" lon="31.82641">
        <ele>5.624116</ele>
        <time>2022-02-25T12:42:06.253Z</time>
      </trkpt>
      <trkpt lat="36.5986" lon="31.82612">
        <ele>5.442999</ele>
        <time>2022-02-25T12:42:11.555Z</time>
      </trkpt>
      <trkpt lat="36.59865" lon="31.82587">
        <ele>5.272976</ele>
        <time>2022-02-25T12:42:16.549Z</time>
      </trkpt>
      <trkpt lat="36.59936" lon="31.82439">
        <ele>4.646704</ele>
        <time>2022-02-25T12:42:49.866Z</time>
      </trkpt>
      <trkpt lat="36.6002" lon="31.82266">
        <ele>4.90728</ele>
        <time>2022-02-25T12:43:35.381Z</time>
      </trkpt>
      <trkpt lat="36.60038" lon="31.82227">
        <ele>5.155638</ele>
        <time>2022-02-25T12:43:46.404Z</time>
      </trkpt>
      <trkpt lat="36.60053" lon="31.82198">
        <ele>5.347163</ele>
        <time>2022-02-25T12:43:55.010Z</time>
      </trkpt>
      <trkpt lat="36.60068" lon="31.82179">
        <ele>5.496458</ele>
        <time>2022-02-25T12:44:01.638Z</time>
      </trkpt>
      <trkpt lat="36.60087" lon="31.82167">
        <ele>5.643818</ele>
        <time>2022-02-25T12:44:08.198Z</time>
      </trkpt>
      <trkpt lat="36.60122" lon="31.82153">
        <ele>5.921063</ele>
        <time>2022-02-25T12:44:19.608Z</time>
      </trkpt>
      <trkpt lat="36.60168" lon="31.82121">
        <ele>6.411353</ele>
        <time>2022-02-25T12:44:36.156Z</time>
      </trkpt>
      <trkpt lat="36.60183" lon="31.82099">
        <ele>6.627957</ele>
        <time>2022-02-25T12:44:43.279Z</time>
      </trkpt>
      <trkpt lat="36.60227" lon="31.8199">
        <ele>7.551382</ele>
        <time>2022-02-25T12:45:13.716Z</time>
      </trkpt>
      <trkpt lat="36.60263" lon="31.81921">
        <ele>8.477636</ele>
        <time>2022-02-25T12:45:34.250Z</time>
      </trkpt>
      <trkpt lat="36.60269" lon="31.81905">
        <ele>8.688484</ele>
        <time>2022-02-25T12:45:39.263Z</time>
      </trkpt>
      <trkpt lat="36.6027" lon="31.8189">
        <ele>8.859673</ele>
        <time>2022-02-25T12:45:43.096Z</time>
      </trkpt>
      <trkpt lat="36.60239" lon="31.81781">
        <ele>10.108083</ele>
        <time>2022-02-25T12:46:16.151Z</time>
      </trkpt>
      <trkpt lat="36.60234" lon="31.81753">
        <ele>10.293044</ele>
        <time>2022-02-25T12:46:24.447Z</time>
      </trkpt>
      <trkpt lat="36.60236" lon="31.81701">
        <ele>10.63124</ele>
        <time>2022-02-25T12:46:39.004Z</time>
      </trkpt>
      <trkpt lat="36.6024" lon="31.81631">
        <ele>11.084028</ele>
        <time>2022-02-25T12:46:55.389Z</time>
      </trkpt>
      <trkpt lat="36.60243" lon="31.81603">
        <ele>11.266321</ele>
        <time>2022-02-25T12:47:01.356Z</time>
      </trkpt>
      <trkpt lat="36.60248" lon="31.81553">
        <ele>11.239457</ele>
        <time>2022-02-25T12:47:11.880Z</time>
      </trkpt>
      <trkpt lat="36.60251" lon="31.81528">
        <ele>10.891814</ele>
        <time>2022-02-25T12:47:16.884Z</time>
      </trkpt>
      <trkpt lat="36.60251" lon="31.81449">
        <ele>9.823636</ele>
        <time>2022-02-25T12:47:31.260Z</time>
      </trkpt>
      <trkpt lat="36.60259" lon="31.81367">
        <ele>8.717317</ele>
        <time>2022-02-25T12:47:44.470Z</time>
      </trkpt>
      <trkpt lat="36.60262" lon="31.8133">
        <ele>8.16616</ele>
        <time>2022-02-25T12:47:50.357Z</time>
      </trkpt>
      <trkpt lat="36.60269" lon="31.81306">
        <ele>7.743741</ele>
        <time>2022-02-25T12:47:54.508Z</time>
      </trkpt>
      <trkpt lat="36.60291" lon="31.81266">
        <ele>6.960216</ele>
        <time>2022-02-25T12:48:02.498Z</time>
      </trkpt>
      <trkpt lat="36.60314" lon="31.81223">
        <ele>6.128001</ele>
        <time>2022-02-25T12:48:11.256Z</time>
      </trkpt>
      <trkpt lat="36.60334" lon="31.81183">
        <ele>5.369722</ele>
        <time>2022-02-25T12:48:19.386Z</time>
      </trkpt>
      <trkpt lat="36.60388" lon="31.81044">
        <ele>4.180883</ele>
        <time>2022-02-25T12:48:47.650Z</time>
      </trkpt>
      <trkpt lat="36.6051" lon="31.80753">
        <ele>3.789282</ele>
        <time>2022-02-25T12:49:58.699Z</time>
      </trkpt>
      <trkpt lat="36.60533" lon="31.80697">
        <ele>4.095774</ele>
        <time>2022-02-25T12:50:12.944Z</time>
      </trkpt>
      <trkpt lat="36.60546" lon="31.8065">
        <ele>4.337413</ele>
        <time>2022-02-25T12:50:24.593Z</time>
      </trkpt>
      <trkpt lat="36.60563" lon="31.80535">
        <ele>4.938503</ele>
        <time>2022-02-25T12:50:53.357Z</time>
      </trkpt>
      <trkpt lat="36.60575" lon="31.80491">
        <ele>5.345797</ele>
        <time>2022-02-25T12:51:04.911Z</time>
      </trkpt>
      <trkpt lat="36.6059" lon="31.8047">
        <ele>5.59538</ele>
        <time>2022-02-25T12:51:12.219Z</time>
      </trkpt>
      <trkpt lat="36.60639" lon="31.80378">
        <ele>6.575966</ele>
        <time>2022-02-25T12:51:40.944Z</time>
      </trkpt>
      <trkpt lat="36.60706" lon="31.803">
        <ele>7.485392</ele>
        <time>2022-02-25T12:52:10.509Z</time>
      </trkpt>
      <trkpt lat="36.60739" lon="31.80252">
        <ele>7.956327</ele>
        <time>2022-02-25T12:52:25.985Z</time>
      </trkpt>
      <trkpt lat="36.60809" lon="31.80123">
        <ele>9.142626</ele>
        <time>2022-02-25T12:53:04.198Z</time>
      </trkpt>
      <trkpt lat="36.60837" lon="31.80084">
        <ele>9.537228</ele>
        <time>2022-02-25T12:53:17.156Z</time>
      </trkpt>
      <trkpt lat="36.6088" lon="31.80043">
        <ele>10.055177</ele>
        <time>2022-02-25T12:53:34.935Z</time>
      </trkpt>
      <trkpt lat="36.6093" lon="31.80007">
        <ele>10.526599</ele>
        <time>2022-02-25T12:53:53.037Z</time>
      </trkpt>
      <trkpt lat="36.60995" lon="31.7998">
        <ele>11.04072</ele>
        <time>2022-02-25T12:54:13.335Z</time>
      </trkpt>
      <trkpt lat="36.61012" lon="31.79963">
        <ele>11.20464</ele>
        <time>2022-02-25T12:54:19.500Z</time>
      </trkpt>
      <trkpt lat="36.61031" lon="31.79935">
        <ele>11.423933</ele>
        <time>2022-02-25T12:54:28.242Z</time>
      </trkpt>
      <trkpt lat="36.61036" lon="31.79928">
        <ele>11.479564</ele>
        <time>2022-02-25T12:54:30.707Z</time>
      </trkpt>
      <trkpt lat="36.61047" lon="31.7991">
        <ele>11.615426</ele>
        <time>2022-02-25T12:54:36.350Z</time>
      </trkpt>
      <trkpt lat="36.61059" lon="31.79889">
        <ele>11.98036</ele>
        <time>2022-02-25T12:54:42.610Z</time>
      </trkpt>
      <trkpt lat="36.61079" lon="31.79835">
        <ele>12.824626</ele>
        <time>2022-02-25T12:54:57.790Z</time>
      </trkpt>
      <trkpt lat="36.61081" lon="31.79817">
        <ele>13.076675</ele>
        <time>2022-02-25T12:55:01.873Z</time>
      </trkpt>
      <trkpt lat="36.61086" lon="31.79799">
        <ele>13.340907</ele>
        <time>2022-02-25T12:55:07.945Z</time>
      </trkpt>
      <trkpt lat="36.61082" lon="31.79668">
        <ele>15.473349</ele>
        <time>2022-02-25T12:55:47.802Z</time>
      </trkpt>
      <trkpt lat="36.61082" lon="31.79635">
        <ele>16.260558</ele>
        <time>2022-02-25T12:55:59.086Z</time>
      </trkpt>
      <trkpt lat="36.61082" lon="31.79615">
        <ele>16.75287</ele>
        <time>2022-02-25T12:56:07.327Z</time>
      </trkpt>
      <trkpt lat="36.61092" lon="31.79538">
        <ele>18.597664</ele>
        <time>2022-02-25T12:56:33.752Z</time>
      </trkpt>
      <trkpt lat="36.61113" lon="31.79478">
        <ele>20.093148</ele>
        <time>2022-02-25T12:56:54.790Z</time>
      </trkpt>
      <trkpt lat="36.61118" lon="31.79453">
        <ele>20.199678</ele>
        <time>2022-02-25T12:57:03.288Z</time>
      </trkpt>
      <trkpt lat="36.6112" lon="31.79429">
        <ele>20.300005</ele>
        <time>2022-02-25T12:57:09.807Z</time>
      </trkpt>
      <trkpt lat="36.61119" lon="31.79392">
        <ele>20.455421</ele>
        <time>2022-02-25T12:57:19.506Z</time>
      </trkpt>
      <trkpt lat="36.6108" lon="31.79032">
        <ele>19.832403</ele>
        <time>2022-02-25T12:58:30.962Z</time>
      </trkpt>
      <trkpt lat="36.61077" lon="31.79">
        <ele>19.64094</ele>
        <time>2022-02-25T12:58:36.629Z</time>
      </trkpt>
      <trkpt lat="36.6107" lon="31.78975">
        <ele>19.48057</ele>
        <time>2022-02-25T12:58:41.560Z</time>
      </trkpt>
      <trkpt lat="36.61055" lon="31.78944">
        <ele>19.270206</ele>
        <time>2022-02-25T12:58:47.874Z</time>
      </trkpt>
      <trkpt lat="36.60958" lon="31.78796">
        <ele>18.621368</ele>
        <time>2022-02-25T12:59:25.789Z</time>
      </trkpt>
      <trkpt lat="36.60949" lon="31.78769">
        <ele>18.661294</ele>
        <time>2022-02-25T12:59:32.699Z</time>
      </trkpt>
      <trkpt lat="36.60943" lon="31.78707">
        <ele>18.747146</ele>
        <time>2022-02-25T12:59:47.770Z</time>
      </trkpt>
      <trkpt lat="36.60938" lon="31.78629">
        <ele>18.826505</ele>
        <time>2022-02-25T13:00:06.290Z</time>
      </trkpt>
      <trkpt lat="36.60942" lon="31.78451">
        <ele>18.680234</ele>
        <time>2022-02-25T13:00:41.464Z</time>
      </trkpt>
      <trkpt lat="36.60938" lon="31.78433">
        <ele>18.664558</ele>
        <time>2022-02-25T13:00:45.854Z</time>
      </trkpt>
      <trkpt lat="36.60933" lon="31.78383">
        <ele>19.279498</ele>
        <time>2022-02-25T13:00:57.202Z</time>
      </trkpt>
      <trkpt lat="36.60934" lon="31.78337">
        <ele>20.079445</ele>
        <time>2022-02-25T13:01:09.881Z</time>
      </trkpt>
      <trkpt lat="36.60947" lon="31.78295">
        <ele>20.867156</ele>
        <time>2022-02-25T13:01:23.843Z</time>
      </trkpt>
      <trkpt lat="36.60954" lon="31.78285">
        <ele>21.083944</ele>
        <time>2022-02-25T13:01:27.025Z</time>
      </trkpt>
      <trkpt lat="36.60962" lon="31.78276">
        <ele>21.313315</ele>
        <time>2022-02-25T13:01:32.658Z</time>
      </trkpt>
      <trkpt lat="36.60981" lon="31.78266">
        <ele>21.767728</ele>
        <time>2022-02-25T13:01:40.489Z</time>
      </trkpt>
      <trkpt lat="36.61006" lon="31.78267">
        <ele>22.319864</ele>
        <time>2022-02-25T13:01:52.567Z</time>
      </trkpt>
      <trkpt lat="36.61026" lon="31.78276">
        <ele>23.050108</ele>
        <time>2022-02-25T13:02:02.328Z</time>
      </trkpt>
      <trkpt lat="36.61051" lon="31.78299">
        <ele>24.475153</ele>
        <time>2022-02-25T13:02:17.221Z</time>
      </trkpt>
      <trkpt lat="36.61071" lon="31.78285">
        <ele>25.581433</ele>
        <time>2022-02-25T13:02:30.595Z</time>
      </trkpt>
      <trkpt lat="36.6111" lon="31.78245">
        <ele>27.91666</ele>
        <time>2022-02-25T13:02:58.157Z</time>
      </trkpt>
      <trkpt lat="36.61126" lon="31.78203">
        <ele>29.661138</ele>
        <time>2022-02-25T13:03:18.257Z</time>
      </trkpt>
      <trkpt lat="36.61137" lon="31.78188">
        <ele>30.413359</ele>
        <time>2022-02-25T13:03:27.231Z</time>
      </trkpt>
      <trkpt lat="36.61159" lon="31.78174">
        <ele>30.904432</ele>
        <time>2022-02-25T13:03:38.059Z</time>
      </trkpt>
      <trkpt lat="36.61213" lon="31.78159">
        <ele>30.599883</ele>
        <time>2022-02-25T13:03:58.896Z</time>
      </trkpt>
      <trkpt lat="36.61217" lon="31.78156">
        <ele>30.572562</ele>
        <time>2022-02-25T13:03:59.962Z</time>
      </trkpt>
      <trkpt lat="36.61216" lon="31.7814">
        <ele>30.501597</ele>
        <time>2022-02-25T13:04:03.342Z</time>
      </trkpt>
      <trkpt lat="36.61212" lon="31.78119">
        <ele>30.407785</ele>
        <time>2022-02-25T13:04:09.984Z</time>
      </trkpt>
      <trkpt lat="36.61211" lon="31.78117">
        <ele>30.395442</ele>
        <time>2022-02-25T13:04:10.356Z</time>
      </trkpt>
      <trkpt lat="36.61214" lon="31.78023">
        <ele>29.936397</ele>
        <time>2022-02-25T13:04:25.812Z</time>
      </trkpt>
      <trkpt lat="36.61209" lon="31.7797">
        <ele>27.082491</ele>
        <time>2022-02-25T13:04:33.721Z</time>
      </trkpt>
      <trkpt lat="36.61196" lon="31.77912">
        <ele>23.897239</ele>
        <time>2022-02-25T13:04:42.249Z</time>
      </trkpt>
      <trkpt lat="36.6118" lon="31.77874">
        <ele>21.637103</ele>
        <time>2022-02-25T13:04:48.230Z</time>
      </trkpt>
      <trkpt lat="36.61173" lon="31.7786">
        <ele>20.766399</ele>
        <time>2022-02-25T13:04:50.564Z</time>
      </trkpt>
      <trkpt lat="36.61161" lon="31.77845">
        <ele>19.598397</ele>
        <time>2022-02-25T13:04:53.688Z</time>
      </trkpt>
      <trkpt lat="36.61167" lon="31.77839">
        <ele>19.109652</ele>
        <time>2022-02-25T13:04:54.977Z</time>
      </trkpt>
      <trkpt lat="36.61171" lon="31.77833">
        <ele>18.702278</ele>
        <time>2022-02-25T13:04:56.030Z</time>
      </trkpt>
      <trkpt lat="36.61211" lon="31.77792">
        <ele>16.471286</ele>
        <time>2022-02-25T13:05:05.027Z</time>
      </trkpt>
      <trkpt lat="36.61272" lon="31.77723">
        <ele>13.401047</ele>
        <time>2022-02-25T13:05:20.391Z</time>
      </trkpt>
      <trkpt lat="36.61277" lon="31.77716">
        <ele>13.109363</ele>
        <time>2022-02-25T13:05:22.133Z</time>
      </trkpt>
      <trkpt lat="36.61282" lon="31.77711">
        <ele>12.88392</ele>
        <time>2022-02-25T13:05:23.484Z</time>
      </trkpt>
      <trkpt lat="36.61315" lon="31.77676">
        <ele>11.320619</ele>
        <time>2022-02-25T13:05:33.399Z</time>
      </trkpt>
      <trkpt lat="36.6144" lon="31.77541">
        <ele>11.524669</ele>
        <time>2022-02-25T13:06:20.580Z</time>
      </trkpt>
      <trkpt lat="36.61596" lon="31.77378">
        <ele>12.130688</ele>
        <time>2022-02-25T13:07:18.466Z</time>
      </trkpt>
      <trkpt lat="36.61624" lon="31.77349">
        <ele>12.110542</ele>
        <time>2022-02-25T13:07:28.584Z</time>
      </trkpt>
      <trkpt lat="36.61636" lon="31.77336">
        <ele>12.102116</ele>
        <time>2022-02-25T13:07:32.670Z</time>
      </trkpt>
      <trkpt lat="36.6168" lon="31.77287">
        <ele>12.06967</ele>
        <time>2022-02-25T13:07:48.478Z</time>
      </trkpt>
      <trkpt lat="36.61836" lon="31.77116">
        <ele>11.634645</ele>
        <time>2022-02-25T13:08:40.330Z</time>
      </trkpt>
      <trkpt lat="36.61859" lon="31.7709">
        <ele>11.562993</ele>
        <time>2022-02-25T13:08:48.634Z</time>
      </trkpt>
      <trkpt lat="36.61932" lon="31.77009">
        <ele>12.10711</ele>
        <time>2022-02-25T13:09:16.886Z</time>
      </trkpt>
      <trkpt lat="36.61977" lon="31.76962">
        <ele>12.431365</ele>
        <time>2022-02-25T13:09:34.998Z</time>
      </trkpt>
      <trkpt lat="36.6223" lon="31.76694">
        <ele>14.621532</ele>
        <time>2022-02-25T13:11:15.725Z</time>
      </trkpt>
      <trkpt lat="36.62251" lon="31.76669">
        <ele>14.780296</ele>
        <time>2022-02-25T13:11:23.745Z</time>
      </trkpt>
      <trkpt lat="36.62363" lon="31.76548">
        <ele>14.415315</ele>
        <time>2022-02-25T13:12:02.420Z</time>
      </trkpt>
      <trkpt lat="36.62479" lon="31.76421">
        <ele>13.111183</ele>
        <time>2022-02-25T13:12:37.891Z</time>
      </trkpt>
      <trkpt lat="36.62484" lon="31.7643">
        <ele>13.019467</ele>
        <time>2022-02-25T13:12:39.969Z</time>
      </trkpt>
      <trkpt lat="36.62486" lon="31.76433">
        <ele>12.986621</ele>
        <time>2022-02-25T13:12:40.720Z</time>
      </trkpt>
      <trkpt lat="36.62573" lon="31.76337">
        <ele>11.966853</ele>
        <time>2022-02-25T13:13:08.262Z</time>
      </trkpt>
      <trkpt lat="36.62647" lon="31.76255">
        <ele>11.397079</ele>
        <time>2022-02-25T13:13:32.403Z</time>
      </trkpt>
      <trkpt lat="36.62693" lon="31.76204">
        <ele>11.675281</ele>
        <time>2022-02-25T13:13:51.684Z</time>
      </trkpt>
      <trkpt lat="36.62702" lon="31.76195">
        <ele>11.837883</ele>
        <time>2022-02-25T13:13:55.497Z</time>
      </trkpt>
      <trkpt lat="36.6271" lon="31.76182">
        <ele>12.039651</ele>
        <time>2022-02-25T13:14:00.157Z</time>
      </trkpt>
      <trkpt lat="36.62712" lon="31.76174">
        <ele>12.142576</ele>
        <time>2022-02-25T13:14:02.580Z</time>
      </trkpt>
      <trkpt lat="36.62846" lon="31.76046">
        <ele>14.68379</ele>
        <time>2022-02-25T13:15:03.316Z</time>
      </trkpt>
      <trkpt lat="36.62864" lon="31.76025">
        <ele>15.061732</ele>
        <time>2022-02-25T13:15:12.399Z</time>
      </trkpt>
      <trkpt lat="36.62871" lon="31.76018">
        <ele>15.20639</ele>
        <time>2022-02-25T13:15:15.882Z</time>
      </trkpt>
      <trkpt lat="36.62879" lon="31.76009">
        <ele>15.366844</ele>
        <time>2022-02-25T13:15:19.585Z</time>
      </trkpt>
      <trkpt lat="36.62897" lon="31.75991">
        <ele>15.712432</ele>
        <time>2022-02-25T13:15:27.543Z</time>
      </trkpt>
      <trkpt lat="36.62951" lon="31.7593">
        <ele>16.629036</ele>
        <time>2022-02-25T13:15:51.497Z</time>
      </trkpt>
      <trkpt lat="36.63161" lon="31.75688">
        <ele>14.552766</ele>
        <time>2022-02-25T13:17:01.957Z</time>
      </trkpt>
      <trkpt lat="36.6321" lon="31.75636">
        <ele>13.601577</ele>
        <time>2022-02-25T13:17:14.519Z</time>
      </trkpt>
      <trkpt lat="36.63229" lon="31.75615">
        <ele>12.873266</ele>
        <time>2022-02-25T13:17:19.442Z</time>
      </trkpt>
      <trkpt lat="36.63252" lon="31.7559">
        <ele>12.005894</ele>
        <time>2022-02-25T13:17:25.346Z</time>
      </trkpt>
      <trkpt lat="36.63336" lon="31.75498">
        <ele>8.81354</ele>
        <time>2022-02-25T13:17:47.618Z</time>
      </trkpt>
      <trkpt lat="36.63403" lon="31.75425">
        <ele>7.986714</ele>
        <time>2022-02-25T13:18:07.083Z</time>
      </trkpt>
      <trkpt lat="36.6344" lon="31.75387">
        <ele>7.649889</ele>
        <time>2022-02-25T13:18:18.896Z</time>
      </trkpt>
      <trkpt lat="36.63495" lon="31.75326">
        <ele>7.473417</ele>
        <time>2022-02-25T13:18:40.660Z</time>
      </trkpt>
      <trkpt lat="36.6356" lon="31.75257">
        <ele>8.264667</ele>
        <time>2022-02-25T13:19:06.992Z</time>
      </trkpt>
      <trkpt lat="36.63605" lon="31.75206">
        <ele>8.835158</ele>
        <time>2022-02-25T13:19:26.679Z</time>
      </trkpt>
      <trkpt lat="36.63645" lon="31.75157">
        <ele>9.341607</ele>
        <time>2022-02-25T13:19:45.260Z</time>
      </trkpt>
      <trkpt lat="36.63718" lon="31.7505">
        <ele>10.338225</ele>
        <time>2022-02-25T13:20:20.011Z</time>
      </trkpt>
      <trkpt lat="36.63804" lon="31.74881">
        <ele>12.401273</ele>
        <time>2022-02-25T13:21:06.033Z</time>
      </trkpt>
      <trkpt lat="36.63823" lon="31.74833">
        <ele>12.992141</ele>
        <time>2022-02-25T13:21:23.476Z</time>
      </trkpt>
      <trkpt lat="36.63842" lon="31.74849">
        <ele>14.41915</ele>
        <time>2022-02-25T13:21:35.275Z</time>
      </trkpt>
      <trkpt lat="36.63883" lon="31.7488">
        <ele>17.415607</ele>
        <time>2022-02-25T13:21:58.878Z</time>
      </trkpt>
      <trkpt lat="36.63894" lon="31.74883">
        <ele>18.137794</ele>
        <time>2022-02-25T13:22:07.594Z</time>
      </trkpt>
      <trkpt lat="36.639" lon="31.74878">
        <ele>18.557048</ele>
        <time>2022-02-25T13:22:10.965Z</time>
      </trkpt>
      <trkpt lat="36.6391" lon="31.74872">
        <ele>19.226746</ele>
        <time>2022-02-25T13:22:16.209Z</time>
      </trkpt>
      <trkpt lat="36.63915" lon="31.7487">
        <ele>19.607554</ele>
        <time>2022-02-25T13:22:19.036Z</time>
      </trkpt>
      <trkpt lat="36.63921" lon="31.74868">
        <ele>19.962551</ele>
        <time>2022-02-25T13:22:24.728Z</time>
      </trkpt>
      <trkpt lat="36.63952" lon="31.74864">
        <ele>21.904815</ele>
        <time>2022-02-25T13:22:42.627Z</time>
      </trkpt>
      <trkpt lat="36.64059" lon="31.7488">
        <ele>30.275737</ele>
        <time>2022-02-25T13:24:00.562Z</time>
      </trkpt>
      <trkpt lat="36.64085" lon="31.749">
        <ele>32.982719</ele>
        <time>2022-02-25T13:24:25.083Z</time>
      </trkpt>
      <trkpt lat="36.64111" lon="31.74931">
        <ele>36.076455</ele>
        <time>2022-02-25T13:24:49.504Z</time>
      </trkpt>
      <trkpt lat="36.64143" lon="31.74949">
        <ele>39.1173</ele>
        <time>2022-02-25T13:25:12.172Z</time>
      </trkpt>
      <trkpt lat="36.64155" lon="31.74944">
        <ele>39.945871</ele>
        <time>2022-02-25T13:25:18.726Z</time>
      </trkpt>
      <trkpt lat="36.64159" lon="31.74942">
        <ele>40.147433</ele>
        <time>2022-02-25T13:25:23.507Z</time>
      </trkpt>
      <trkpt lat="36.64167" lon="31.74943">
        <ele>40.566752</ele>
        <time>2022-02-25T13:25:28.338Z</time>
      </trkpt>
      <trkpt lat="36.64165" lon="31.74909">
        <ele>41.853404</ele>
        <time>2022-02-25T13:25:44.437Z</time>
      </trkpt>
      <trkpt lat="36.64169" lon="31.74804">
        <ele>45.87761</ele>
        <time>2022-02-25T13:26:27.431Z</time>
      </trkpt>
      <trkpt lat="36.64181" lon="31.74758">
        <ele>47.690382</ele>
        <time>2022-02-25T13:26:44.210Z</time>
      </trkpt>
      <trkpt lat="36.64214" lon="31.74676">
        <ele>48.793542</ele>
        <time>2022-02-25T13:27:09.272Z</time>
      </trkpt>
      <trkpt lat="36.64267" lon="31.74462">
        <ele>49.781918</ele>
        <time>2022-02-25T13:28:02.389Z</time>
      </trkpt>
      <trkpt lat="36.64275" lon="31.7444">
        <ele>49.753753</ele>
        <time>2022-02-25T13:28:07.428Z</time>
      </trkpt>
      <trkpt lat="36.64284" lon="31.74413">
        <ele>49.719715</ele>
        <time>2022-02-25T13:28:13.591Z</time>
      </trkpt>
      <trkpt lat="36.64301" lon="31.74356">
        <ele>49.648089</ele>
        <time>2022-02-25T13:28:26.443Z</time>
      </trkpt>
      <trkpt lat="36.64301" lon="31.7435">
        <ele>49.641035</ele>
        <time>2022-02-25T13:28:27.683Z</time>
      </trkpt>
      <trkpt lat="36.64302" lon="31.74338">
        <ele>49.626681</ele>
        <time>2022-02-25T13:28:30.329Z</time>
      </trkpt>
      <trkpt lat="36.64302" lon="31.74323">
        <ele>49.605146</ele>
        <time>2022-02-25T13:28:33.167Z</time>
      </trkpt>
      <trkpt lat="36.64302" lon="31.74321">
        <ele>49.58824</ele>
        <time>2022-02-25T13:28:33.634Z</time>
      </trkpt>
      <trkpt lat="36.64302" lon="31.74307">
        <ele>49.483091</ele>
        <time>2022-02-25T13:28:36.606Z</time>
      </trkpt>
      <trkpt lat="36.64314" lon="31.74276">
        <ele>49.228631</ele>
        <time>2022-02-25T13:28:43.581Z</time>
      </trkpt>
      <trkpt lat="36.64346" lon="31.74236">
        <ele>48.810841</ele>
        <time>2022-02-25T13:28:54.711Z</time>
      </trkpt>
      <trkpt lat="36.64376" lon="31.7417">
        <ele>48.255709</ele>
        <time>2022-02-25T13:29:09.140Z</time>
      </trkpt>
      <trkpt lat="36.64381" lon="31.74162">
        <ele>48.182232</ele>
        <time>2022-02-25T13:29:11.169Z</time>
      </trkpt>
      <trkpt lat="36.64385" lon="31.74155">
        <ele>48.119064</ele>
        <time>2022-02-25T13:29:12.699Z</time>
      </trkpt>
      <trkpt lat="36.64394" lon="31.74133">
        <ele>47.942352</ele>
        <time>2022-02-25T13:29:17.609Z</time>
      </trkpt>
      <trkpt lat="36.64394" lon="31.74107">
        <ele>47.789424</ele>
        <time>2022-02-25T13:29:22.552Z</time>
      </trkpt>
      <trkpt lat="36.64391" lon="31.74094">
        <ele>47.711833</ele>
        <time>2022-02-25T13:29:25.135Z</time>
      </trkpt>
      <trkpt lat="36.64387" lon="31.74087">
        <ele>47.661436</ele>
        <time>2022-02-25T13:29:26.785Z</time>
      </trkpt>
      <trkpt lat="36.64384" lon="31.74076">
        <ele>47.589902</ele>
        <time>2022-02-25T13:29:29.149Z</time>
      </trkpt>
      <trkpt lat="36.64384" lon="31.74069">
        <ele>47.545441</ele>
        <time>2022-02-25T13:29:30.458Z</time>
      </trkpt>
      <trkpt lat="36.64424" lon="31.73726">
        <ele>46.203531</ele>
        <time>2022-02-25T13:30:41.563Z</time>
      </trkpt>
      <trkpt lat="36.6443" lon="31.73704">
        <ele>46.151994</ele>
        <time>2022-02-25T13:30:47.023Z</time>
      </trkpt>
      <trkpt lat="36.64443" lon="31.73678">
        <ele>46.287872</ele>
        <time>2022-02-25T13:30:55.115Z</time>
      </trkpt>
      <trkpt lat="36.64479" lon="31.73608">
        <ele>46.863652</ele>
        <time>2022-02-25T13:31:16.852Z</time>
      </trkpt>
      <trkpt lat="36.64486" lon="31.7357">
        <ele>47.131539</ele>
        <time>2022-02-25T13:31:27.125Z</time>
      </trkpt>
      <trkpt lat="36.64488" lon="31.73545">
        <ele>47.307726</ele>
        <time>2022-02-25T13:31:33.657Z</time>
      </trkpt>
      <trkpt lat="36.64493" lon="31.73526">
        <ele>47.445127</ele>
        <time>2022-02-25T13:31:39.239Z</time>
      </trkpt>
      <trkpt lat="36.64509" lon="31.73456">
        <ele>47.561848</ele>
        <time>2022-02-25T13:31:58.283Z</time>
      </trkpt>
      <trkpt lat="36.64534" lon="31.73375">
        <ele>47.286117</ele>
        <time>2022-02-25T13:32:18.195Z</time>
      </trkpt>
      <trkpt lat="36.64557" lon="31.73315">
        <ele>47.076365</ele>
        <time>2022-02-25T13:32:30.934Z</time>
      </trkpt>
      <trkpt lat="36.64581" lon="31.73281">
        <ele>46.655538</ele>
        <time>2022-02-25T13:32:39.239Z</time>
      </trkpt>
      <trkpt lat="36.64593" lon="31.73248">
        <ele>45.764637</ele>
        <time>2022-02-25T13:32:45.694Z</time>
      </trkpt>
      <trkpt lat="36.64594" lon="31.73244">
        <ele>45.648651</ele>
        <time>2022-02-25T13:32:46.465Z</time>
      </trkpt>
      <trkpt lat="36.64597" lon="31.73237">
        <ele>45.461371</ele>
        <time>2022-02-25T13:32:47.619Z</time>
      </trkpt>
      <trkpt lat="36.64603" lon="31.73216">
        <ele>44.919257</ele>
        <time>2022-02-25T13:32:51.324Z</time>
      </trkpt>
      <trkpt lat="36.64591" lon="31.73095">
        <ele>41.900273</ele>
        <time>2022-02-25T13:33:11.044Z</time>
      </trkpt>
      <trkpt lat="36.64588" lon="31.73084">
        <ele>41.604439</ele>
        <time>2022-02-25T13:33:12.872Z</time>
      </trkpt>
      <trkpt lat="36.64587" lon="31.73076">
        <ele>41.400994</ele>
        <time>2022-02-25T13:33:14.171Z</time>
      </trkpt>
      <trkpt lat="36.64582" lon="31.73052">
        <ele>40.771686</ele>
        <time>2022-02-25T13:33:18.068Z</time>
      </trkpt>
      <trkpt lat="36.64581" lon="31.73049">
        <ele>40.68857</ele>
        <time>2022-02-25T13:33:18.562Z</time>
      </trkpt>
      <trkpt lat="36.64576" lon="31.7303">
        <ele>40.159677</ele>
        <time>2022-02-25T13:33:21.756Z</time>
      </trkpt>
      <trkpt lat="36.64552" lon="31.72879">
        <ele>36.191237</ele>
        <time>2022-02-25T13:33:47.148Z</time>
      </trkpt>
      <trkpt lat="36.6455" lon="31.72822">
        <ele>35.138526</ele>
        <time>2022-02-25T13:33:56.788Z</time>
      </trkpt>
      <trkpt lat="36.64563" lon="31.72644">
        <ele>32.579493</ele>
        <time>2022-02-25T13:34:29.746Z</time>
      </trkpt>
      <trkpt lat="36.6457" lon="31.72587">
        <ele>31.901816</ele>
        <time>2022-02-25T13:34:40.638Z</time>
      </trkpt>
      <trkpt lat="36.64578" lon="31.72504">
        <ele>30.964066</ele>
        <time>2022-02-25T13:34:56.430Z</time>
      </trkpt>
      <trkpt lat="36.64579" lon="31.72498">
        <ele>30.897956</ele>
        <time>2022-02-25T13:34:57.489Z</time>
      </trkpt>
      <trkpt lat="36.64596" lon="31.72387">
        <ele>29.584228</ele>
        <time>2022-02-25T13:35:18.662Z</time>
      </trkpt>
      <trkpt lat="36.64623" lon="31.72204">
        <ele>27.146317</ele>
        <time>2022-02-25T13:35:52.570Z</time>
      </trkpt>
      <trkpt lat="36.64629" lon="31.7216">
        <ele>26.703925</ele>
        <time>2022-02-25T13:36:00.732Z</time>
      </trkpt>
      <trkpt lat="36.64635" lon="31.72125">
        <ele>26.393988</ele>
        <time>2022-02-25T13:36:07.253Z</time>
      </trkpt>
      <trkpt lat="36.64643" lon="31.72073">
        <ele>25.934341</ele>
        <time>2022-02-25T13:36:17.175Z</time>
      </trkpt>
      <trkpt lat="36.64649" lon="31.72029">
        <ele>25.538828</ele>
        <time>2022-02-25T13:36:26.057Z</time>
      </trkpt>
      <trkpt lat="36.64659" lon="31.71969">
        <ele>25.036393</ele>
        <time>2022-02-25T13:36:38.293Z</time>
      </trkpt>
      <trkpt lat="36.6466" lon="31.71956">
        <ele>25.040139</ele>
        <time>2022-02-25T13:36:41.103Z</time>
      </trkpt>
      <trkpt lat="36.64662" lon="31.7193">
        <ele>25.047332</ele>
        <time>2022-02-25T13:36:46.722Z</time>
      </trkpt>
      <trkpt lat="36.64671" lon="31.71847">
        <ele>25.070089</ele>
        <time>2022-02-25T13:37:05.141Z</time>
      </trkpt>
      <trkpt lat="36.64679" lon="31.71766">
        <ele>25.092517</ele>
        <time>2022-02-25T13:37:24.700Z</time>
      </trkpt>
      <trkpt lat="36.64686" lon="31.7169">
        <ele>25.150622</ele>
        <time>2022-02-25T13:37:43.208Z</time>
      </trkpt>
      <trkpt lat="36.6469" lon="31.71645">
        <ele>25.191111</ele>
        <time>2022-02-25T13:37:53.940Z</time>
      </trkpt>
      <trkpt lat="36.64692" lon="31.71627">
        <ele>25.207274</ele>
        <time>2022-02-25T13:37:57.773Z</time>
      </trkpt>
      <trkpt lat="36.64693" lon="31.71607">
        <ele>25.225322</ele>
        <time>2022-02-25T13:38:02.530Z</time>
      </trkpt>
      <trkpt lat="36.64698" lon="31.71554">
        <ele>25.272975</ele>
        <time>2022-02-25T13:38:14.292Z</time>
      </trkpt>
      <trkpt lat="36.64704" lon="31.71491">
        <ele>25.208302</ele>
        <time>2022-02-25T13:38:27.436Z</time>
      </trkpt>
      <trkpt lat="36.64708" lon="31.71463">
        <ele>25.137272</ele>
        <time>2022-02-25T13:38:33.730Z</time>
      </trkpt>
      <trkpt lat="36.64709" lon="31.71455">
        <ele>25.116847</ele>
        <time>2022-02-25T13:38:35.309Z</time>
      </trkpt>
      <trkpt lat="36.64715" lon="31.71401">
        <ele>24.984373</ele>
        <time>2022-02-25T13:38:46.776Z</time>
      </trkpt>
      <trkpt lat="36.64719" lon="31.71356">
        <ele>24.87213</ele>
        <time>2022-02-25T13:38:56.395Z</time>
      </trkpt>
      <trkpt lat="36.64724" lon="31.71301">
        <ele>24.741362</ele>
        <time>2022-02-25T13:39:08.115Z</time>
      </trkpt>
      <trkpt lat="36.64729" lon="31.71255">
        <ele>24.680823</ele>
        <time>2022-02-25T13:39:17.954Z</time>
      </trkpt>
      <trkpt lat="36.64731" lon="31.71237">
        <ele>24.656691</ele>
        <time>2022-02-25T13:39:21.995Z</time>
      </trkpt>
      <trkpt lat="36.64743" lon="31.71172">
        <ele>24.570714</ele>
        <time>2022-02-25T13:39:36.128Z</time>
      </trkpt>
      <trkpt lat="36.64757" lon="31.71111">
        <ele>24.488756</ele>
        <time>2022-02-25T13:39:50.026Z</time>
      </trkpt>
      <trkpt lat="36.64792" lon="31.70953">
        <ele>24.755387</ele>
        <time>2022-02-25T13:40:27.657Z</time>
      </trkpt>
      <trkpt lat="36.64808" lon="31.70881">
        <ele>24.917973</ele>
        <time>2022-02-25T13:40:45.330Z</time>
      </trkpt>
      <trkpt lat="36.64812" lon="31.70862">
        <ele>24.979673</ele>
        <time>2022-02-25T13:40:50.104Z</time>
      </trkpt>
      <trkpt lat="36.64831" lon="31.7077">
        <ele>25.390626</ele>
        <time>2022-02-25T13:41:14.177Z</time>
      </trkpt>
      <trkpt lat="36.64852" lon="31.70668">
        <ele>25.842106</ele>
        <time>2022-02-25T13:41:39.681Z</time>
      </trkpt>
      <trkpt lat="36.64863" lon="31.70616">
        <ele>25.929271</ele>
        <time>2022-02-25T13:41:52.288Z</time>
      </trkpt>
      <trkpt lat="36.64873" lon="31.70569">
        <ele>25.952569</ele>
        <time>2022-02-25T13:42:03.368Z</time>
      </trkpt>
      <trkpt lat="36.64881" lon="31.70529">
        <ele>25.972225</ele>
        <time>2022-02-25T13:42:12.539Z</time>
      </trkpt>
      <trkpt lat="36.64891" lon="31.70484">
        <ele>25.994315</ele>
        <time>2022-02-25T13:42:22.590Z</time>
      </trkpt>
      <trkpt lat="36.64927" lon="31.70322">
        <ele>26.054486</ele>
        <time>2022-02-25T13:42:59.989Z</time>
      </trkpt>
      <trkpt lat="36.64947" lon="31.7023">
        <ele>26.083794</ele>
        <time>2022-02-25T13:43:22.466Z</time>
      </trkpt>
      <trkpt lat="36.64978" lon="31.7008">
        <ele>25.459604</ele>
        <time>2022-02-25T13:43:55.639Z</time>
      </trkpt>
      <trkpt lat="36.64996" lon="31.7">
        <ele>25.090756</ele>
        <time>2022-02-25T13:44:11.413Z</time>
      </trkpt>
      <trkpt lat="36.65014" lon="31.69911">
        <ele>24.487515</ele>
        <time>2022-02-25T13:44:28.915Z</time>
      </trkpt>
      <trkpt lat="36.65034" lon="31.69822">
        <ele>23.877281</ele>
        <time>2022-02-25T13:44:47.356Z</time>
      </trkpt>
      <trkpt lat="36.65065" lon="31.69675">
        <ele>23.372735</ele>
        <time>2022-02-25T13:45:19.688Z</time>
      </trkpt>
      <trkpt lat="36.65091" lon="31.69555">
        <ele>23.047726</ele>
        <time>2022-02-25T13:45:46.978Z</time>
      </trkpt>
      <trkpt lat="36.65092" lon="31.69548">
        <ele>23.014514</ele>
        <time>2022-02-25T13:45:48.502Z</time>
      </trkpt>
      <trkpt lat="36.65128" lon="31.69374">
        <ele>22.173906</ele>
        <time>2022-02-25T13:46:24.404Z</time>
      </trkpt>
      <trkpt lat="36.65143" lon="31.69307">
        <ele>22.034244</ele>
        <time>2022-02-25T13:46:38.929Z</time>
      </trkpt>
      <trkpt lat="36.65146" lon="31.69293">
        <ele>22.02231</ele>
        <time>2022-02-25T13:46:41.931Z</time>
      </trkpt>
      <trkpt lat="36.65166" lon="31.69203">
        <ele>21.944698</ele>
        <time>2022-02-25T13:47:02.524Z</time>
      </trkpt>
      <trkpt lat="36.65172" lon="31.69176">
        <ele>21.92137</ele>
        <time>2022-02-25T13:47:08.941Z</time>
      </trkpt>
      <trkpt lat="36.65193" lon="31.69075">
        <ele>22.050189</ele>
        <time>2022-02-25T13:47:33.299Z</time>
      </trkpt>
      <trkpt lat="36.65219" lon="31.68951">
        <ele>22.374346</ele>
        <time>2022-02-25T13:48:04.042Z</time>
      </trkpt>
      <trkpt lat="36.6523" lon="31.68898">
        <ele>22.491328</ele>
        <time>2022-02-25T13:48:16.582Z</time>
      </trkpt>
      <trkpt lat="36.65265" lon="31.68742">
        <ele>22.752537</ele>
        <time>2022-02-25T13:48:53.252Z</time>
      </trkpt>
      <trkpt lat="36.6528" lon="31.68663">
        <ele>23.084862</ele>
        <time>2022-02-25T13:49:12.711Z</time>
      </trkpt>
      <trkpt lat="36.65319" lon="31.68477">
        <ele>24.422938</ele>
        <time>2022-02-25T13:50:01.942Z</time>
      </trkpt>
      <trkpt lat="36.65328" lon="31.68438">
        <ele>25.058501</ele>
        <time>2022-02-25T13:50:13.219Z</time>
      </trkpt>
      <trkpt lat="36.65333" lon="31.68416">
        <ele>25.417728</ele>
        <time>2022-02-25T13:50:19.453Z</time>
      </trkpt>
      <trkpt lat="36.65371" lon="31.68237">
        <ele>28.460675</ele>
        <time>2022-02-25T13:51:16.702Z</time>
      </trkpt>
      <trkpt lat="36.65387" lon="31.68161">
        <ele>30.027635</ele>
        <time>2022-02-25T13:51:44.476Z</time>
      </trkpt>
      <trkpt lat="36.65426" lon="31.68181">
        <ele>31.072761</ele>
        <time>2022-02-25T13:52:01.074Z</time>
      </trkpt>
      <trkpt lat="36.65456" lon="31.68188">
        <ele>31.836074</ele>
        <time>2022-02-25T13:52:12.827Z</time>
      </trkpt>
      <trkpt lat="36.65453" lon="31.68164">
        <ele>32.252387</ele>
        <time>2022-02-25T13:52:20.087Z</time>
      </trkpt>
      <trkpt lat="36.6546" lon="31.68145">
        <ele>32.319275</ele>
        <time>2022-02-25T13:52:26.482Z</time>
      </trkpt>
      <trkpt lat="36.65465" lon="31.68141">
        <ele>32.343603</ele>
        <time>2022-02-25T13:52:28.586Z</time>
      </trkpt>
      <trkpt lat="36.65455" lon="31.681">
        <ele>32.480977</ele>
        <time>2022-02-25T13:52:42.889Z</time>
      </trkpt>
      <trkpt lat="36.6545" lon="31.68093">
        <ele>32.511921</ele>
        <time>2022-02-25T13:52:45.368Z</time>
      </trkpt>
      <trkpt lat="36.65462" lon="31.68063">
        <ele>32.618355</ele>
        <time>2022-02-25T13:52:54.516Z</time>
      </trkpt>
      <trkpt lat="36.65477" lon="31.68013">
        <ele>32.789117</ele>
        <time>2022-02-25T13:53:05.281Z</time>
      </trkpt>
      <trkpt lat="36.65479" lon="31.68004">
        <ele>32.818947</ele>
        <time>2022-02-25T13:53:07.056Z</time>
      </trkpt>
      <trkpt lat="36.65503" lon="31.67925">
        <ele>33.305411</ele>
        <time>2022-02-25T13:53:22.337Z</time>
      </trkpt>
      <trkpt lat="36.65515" lon="31.67829">
        <ele>34.116901</ele>
        <time>2022-02-25T13:53:46.501Z</time>
      </trkpt>
      <trkpt lat="36.65518" lon="31.6773">
        <ele>35.15577</ele>
        <time>2022-02-25T13:54:16.545Z</time>
      </trkpt>
      <trkpt lat="36.65529" lon="31.67592">
        <ele>38.34885</ele>
        <time>2022-02-25T13:55:03.553Z</time>
      </trkpt>
      <trkpt lat="36.65561" lon="31.67486">
        <ele>40.139488</ele>
        <time>2022-02-25T13:55:40.908Z</time>
      </trkpt>
      <trkpt lat="36.65611" lon="31.67308">
        <ele>40.571068</ele>
        <time>2022-02-25T13:56:21.943Z</time>
      </trkpt>
      <trkpt lat="36.65614" lon="31.67297">
        <ele>40.216497</ele>
        <time>2022-02-25T13:56:24.117Z</time>
      </trkpt>
      <trkpt lat="36.6565" lon="31.67181">
        <ele>36.230778</ele>
        <time>2022-02-25T13:56:43.227Z</time>
      </trkpt>
      <trkpt lat="36.65654" lon="31.67165">
        <ele>35.725816</ele>
        <time>2022-02-25T13:56:45.527Z</time>
      </trkpt>
      <trkpt lat="36.65572" lon="31.6713">
        <ele>31.934657</ele>
        <time>2022-02-25T13:57:01.522Z</time>
      </trkpt>
      <trkpt lat="36.65558" lon="31.67124">
        <ele>31.212698</ele>
        <time>2022-02-25T13:57:04.126Z</time>
      </trkpt>
      <trkpt lat="36.65553" lon="31.67117">
        <ele>30.819433</ele>
        <time>2022-02-25T13:57:05.652Z</time>
      </trkpt>
      <trkpt lat="36.65545" lon="31.67117">
        <ele>30.427038</ele>
        <time>2022-02-25T13:57:07.157Z</time>
      </trkpt>
      <trkpt lat="36.65538" lon="31.67093">
        <ele>29.406971</ele>
        <time>2022-02-25T13:57:10.920Z</time>
      </trkpt>
      <trkpt lat="36.65539" lon="31.67068">
        <ele>28.406405</ele>
        <time>2022-02-25T13:57:14.678Z</time>
      </trkpt>
      <trkpt lat="36.65539" lon="31.67051">
        <ele>27.728576</ele>
        <time>2022-02-25T13:57:17.049Z</time>
      </trkpt>
      <trkpt lat="36.65579" lon="31.66917">
        <ele>23.609101</ele>
        <time>2022-02-25T13:57:38.949Z</time>
      </trkpt>
      <trkpt lat="36.65644" lon="31.66711">
        <ele>20.097081</ele>
        <time>2022-02-25T13:58:19.049Z</time>
      </trkpt>
      <trkpt lat="36.65663" lon="31.66647">
        <ele>19.114323</ele>
        <time>2022-02-25T13:58:30.906Z</time>
      </trkpt>
      <trkpt lat="36.65699" lon="31.6653">
        <ele>17.188649</ele>
        <time>2022-02-25T13:58:51.823Z</time>
      </trkpt>
      <trkpt lat="36.65706" lon="31.66509">
        <ele>16.789846</ele>
        <time>2022-02-25T13:58:55.468Z</time>
      </trkpt>
      <trkpt lat="36.65726" lon="31.66449">
        <ele>15.654679</ele>
        <time>2022-02-25T13:59:06.094Z</time>
      </trkpt>
      <trkpt lat="36.65748" lon="31.66383">
        <ele>14.385468</ele>
        <time>2022-02-25T13:59:18.125Z</time>
      </trkpt>
      <trkpt lat="36.65751" lon="31.66373">
        <ele>14.204032</ele>
        <time>2022-02-25T13:59:19.862Z</time>
      </trkpt>
      <trkpt lat="36.65755" lon="31.66361">
        <ele>13.981693</ele>
        <time>2022-02-25T13:59:22.034Z</time>
      </trkpt>
      <trkpt lat="36.65769" lon="31.66321">
        <ele>13.526835</ele>
        <time>2022-02-25T13:59:29.565Z</time>
      </trkpt>
      <trkpt lat="36.6582" lon="31.66203">
        <ele>12.352972</ele>
        <time>2022-02-25T13:59:53.945Z</time>
      </trkpt>
      <trkpt lat="36.65854" lon="31.66134">
        <ele>11.893946</ele>
        <time>2022-02-25T14:00:10.338Z</time>
      </trkpt>
      <trkpt lat="36.65938" lon="31.65982">
        <ele>12.005422</ele>
        <time>2022-02-25T14:00:50.893Z</time>
      </trkpt>
      <trkpt lat="36.65987" lon="31.65907">
        <ele>12.110974</ele>
        <time>2022-02-25T14:01:13.360Z</time>
      </trkpt>
      <trkpt lat="36.66096" lon="31.65765">
        <ele>12.055773</ele>
        <time>2022-02-25T14:01:55.517Z</time>
      </trkpt>
      <trkpt lat="36.66113" lon="31.65744">
        <ele>11.937616</ele>
        <time>2022-02-25T14:02:01.479Z</time>
      </trkpt>
      <trkpt lat="36.66145" lon="31.65703">
        <ele>11.710567</ele>
        <time>2022-02-25T14:02:12.963Z</time>
      </trkpt>
      <trkpt lat="36.66344" lon="31.65456">
        <ele>9.188938</ele>
        <time>2022-02-25T14:03:18.670Z</time>
      </trkpt>
      <trkpt lat="36.6637" lon="31.65424">
        <ele>8.67671</ele>
        <time>2022-02-25T14:03:26.753Z</time>
      </trkpt>
      <trkpt lat="36.66489" lon="31.65284">
        <ele>6.241776</ele>
        <time>2022-02-25T14:04:02.350Z</time>
      </trkpt>
      <trkpt lat="36.66505" lon="31.65279">
        <ele>5.955159</ele>
        <time>2022-02-25T14:04:05.814Z</time>
      </trkpt>
      <trkpt lat="36.66491" lon="31.6526">
        <ele>5.601588</ele>
        <time>2022-02-25T14:04:10.760Z</time>
      </trkpt>
      <trkpt lat="36.66534" lon="31.65206">
        <ele>4.580255</ele>
        <time>2022-02-25T14:04:23.690Z</time>
      </trkpt>
      <trkpt lat="36.66543" lon="31.65195">
        <ele>4.375137</ele>
        <time>2022-02-25T14:04:26.555Z</time>
      </trkpt>
      <trkpt lat="36.66546" lon="31.65191">
        <ele>4.306764</ele>
        <time>2022-02-25T14:04:27.350Z</time>
      </trkpt>
      <trkpt lat="36.66605" lon="31.65122">
        <ele>3.66454</ele>
        <time>2022-02-25T14:04:46.039Z</time>
      </trkpt>
      <trkpt lat="36.66649" lon="31.65065">
        <ele>3.229714</ele>
        <time>2022-02-25T14:05:01.323Z</time>
      </trkpt>
      <trkpt lat="36.66684" lon="31.65024">
        <ele>2.961178</ele>
        <time>2022-02-25T14:05:13.670Z</time>
      </trkpt>
      <trkpt lat="36.66761" lon="31.64939">
        <ele>3.540843</ele>
        <time>2022-02-25T14:05:44.993Z</time>
      </trkpt>
      <trkpt lat="36.66775" lon="31.64924">
        <ele>3.640214</ele>
        <time>2022-02-25T14:05:50.432Z</time>
      </trkpt>
      <trkpt lat="36.6679" lon="31.64901">
        <ele>3.777811</ele>
        <time>2022-02-25T14:05:57.881Z</time>
      </trkpt>
      <trkpt lat="36.66831" lon="31.64846">
        <ele>4.010132</ele>
        <time>2022-02-25T14:06:15.848Z</time>
      </trkpt>
      <trkpt lat="36.66895" lon="31.64755">
        <ele>4.221509</ele>
        <time>2022-02-25T14:06:42.350Z</time>
      </trkpt>
      <trkpt lat="36.66935" lon="31.64687">
        <ele>4.378871</ele>
        <time>2022-02-25T14:07:00.023Z</time>
      </trkpt>
      <trkpt lat="36.66953" lon="31.64657">
        <ele>4.458323</ele>
        <time>2022-02-25T14:07:08.182Z</time>
      </trkpt>
      <trkpt lat="36.6696" lon="31.64646">
        <ele>4.486362</ele>
        <time>2022-02-25T14:07:11.177Z</time>
      </trkpt>
      <trkpt lat="36.66967" lon="31.64634">
        <ele>4.517542</ele>
        <time>2022-02-25T14:07:14.387Z</time>
      </trkpt>
      <trkpt lat="36.67006" lon="31.64557">
        <ele>4.712522</ele>
        <time>2022-02-25T14:07:35.172Z</time>
      </trkpt>
      <trkpt lat="36.6702" lon="31.64527">
        <ele>4.785235</ele>
        <time>2022-02-25T14:07:43.042Z</time>
      </trkpt>
      <trkpt lat="36.67045" lon="31.64465">
        <ele>5.137208</ele>
        <time>2022-02-25T14:07:59.379Z</time>
      </trkpt>
      <trkpt lat="36.67062" lon="31.64423">
        <ele>5.407391</ele>
        <time>2022-02-25T14:08:11.120Z</time>
      </trkpt>
      <trkpt lat="36.67071" lon="31.64402">
        <ele>5.545286</ele>
        <time>2022-02-25T14:08:17.062Z</time>
      </trkpt>
      <trkpt lat="36.67096" lon="31.64345">
        <ele>5.919056</ele>
        <time>2022-02-25T14:08:33.512Z</time>
      </trkpt>
      <trkpt lat="36.6713" lon="31.64264">
        <ele>6.189588</ele>
        <time>2022-02-25T14:08:54.896Z</time>
      </trkpt>
      <trkpt lat="36.67193" lon="31.64108">
        <ele>6.4035</ele>
        <time>2022-02-25T14:09:32.556Z</time>
      </trkpt>
      <trkpt lat="36.672" lon="31.64091">
        <ele>6.376977</ele>
        <time>2022-02-25T14:09:36.501Z</time>
      </trkpt>
      <trkpt lat="36.67209" lon="31.64069">
        <ele>6.344268</ele>
        <time>2022-02-25T14:09:41.306Z</time>
      </trkpt>
      <trkpt lat="36.67244" lon="31.63981">
        <ele>6.211353</ele>
        <time>2022-02-25T14:10:01.251Z</time>
      </trkpt>
      <trkpt lat="36.6729" lon="31.63868">
        <ele>6.295541</ele>
        <time>2022-02-25T14:10:28.097Z</time>
      </trkpt>
      <trkpt lat="36.6729" lon="31.63866">
        <ele>6.303779</ele>
        <time>2022-02-25T14:10:28.927Z</time>
      </trkpt>
      <trkpt lat="36.67339" lon="31.63745">
        <ele>6.764859</ele>
        <time>2022-02-25T14:11:00.525Z</time>
      </trkpt>
      <trkpt lat="36.67438" lon="31.635">
        <ele>7.860166</ele>
        <time>2022-02-25T14:12:06.253Z</time>
      </trkpt>
      <trkpt lat="36.67458" lon="31.63451">
        <ele>7.74409</ele>
        <time>2022-02-25T14:12:17.881Z</time>
      </trkpt>
      <trkpt lat="36.67489" lon="31.63373">
        <ele>7.561731</ele>
        <time>2022-02-25T14:12:35.173Z</time>
      </trkpt>
      <trkpt lat="36.6756" lon="31.63198">
        <ele>6.640414</ele>
        <time>2022-02-25T14:13:12.969Z</time>
      </trkpt>
      <trkpt lat="36.6759" lon="31.63123">
        <ele>6.142811</ele>
        <time>2022-02-25T14:13:28.376Z</time>
      </trkpt>
      <trkpt lat="36.67655" lon="31.62961">
        <ele>5.788983</ele>
        <time>2022-02-25T14:14:04.584Z</time>
      </trkpt>
      <trkpt lat="36.67665" lon="31.62936">
        <ele>5.740631</ele>
        <time>2022-02-25T14:14:10.613Z</time>
      </trkpt>
      <trkpt lat="36.67677" lon="31.62927">
        <ele>5.711116</ele>
        <time>2022-02-25T14:14:14.475Z</time>
      </trkpt>
      <trkpt lat="36.67691" lon="31.62902">
        <ele>5.989757</ele>
        <time>2022-02-25T14:14:21.961Z</time>
      </trkpt>
      <trkpt lat="36.67695" lon="31.62887">
        <ele>6.188489</ele>
        <time>2022-02-25T14:14:25.840Z</time>
      </trkpt>
      <trkpt lat="36.67845" lon="31.62521">
        <ele>11.91599</ele>
        <time>2022-02-25T14:16:29.045Z</time>
      </trkpt>
      <trkpt lat="36.67896" lon="31.62389">
        <ele>12.874645</ele>
        <time>2022-02-25T14:17:07.881Z</time>
      </trkpt>
      <trkpt lat="36.6791" lon="31.62355">
        <ele>13.128778</ele>
        <time>2022-02-25T14:17:16.778Z</time>
      </trkpt>
      <trkpt lat="36.67922" lon="31.62324">
        <ele>13.354273</ele>
        <time>2022-02-25T14:17:24.256Z</time>
      </trkpt>
      <trkpt lat="36.6794" lon="31.62284">
        <ele>13.183758</ele>
        <time>2022-02-25T14:17:34.114Z</time>
      </trkpt>
      <trkpt lat="36.6795" lon="31.62278">
        <ele>13.117569</ele>
        <time>2022-02-25T14:17:37.347Z</time>
      </trkpt>
      <trkpt lat="36.67935" lon="31.62272">
        <ele>13.026559</ele>
        <time>2022-02-25T14:17:41.168Z</time>
      </trkpt>
      <trkpt lat="36.67952" lon="31.62233">
        <ele>12.823795</ele>
        <time>2022-02-25T14:17:49.630Z</time>
      </trkpt>
      <trkpt lat="36.68009" lon="31.62108">
        <ele>12.11533</ele>
        <time>2022-02-25T14:18:17.023Z</time>
      </trkpt>
      <trkpt lat="36.68013" lon="31.62096">
        <ele>12.040915</ele>
        <time>2022-02-25T14:18:19.629Z</time>
      </trkpt>
      <trkpt lat="36.68018" lon="31.62086">
        <ele>11.973447</ele>
        <time>2022-02-25T14:18:21.785Z</time>
      </trkpt>
      <trkpt lat="36.68022" lon="31.62078">
        <ele>11.918699</ele>
        <time>2022-02-25T14:18:23.578Z</time>
      </trkpt>
      <trkpt lat="36.68024" lon="31.62072">
        <ele>11.883579</ele>
        <time>2022-02-25T14:18:24.751Z</time>
      </trkpt>
      <trkpt lat="36.68031" lon="31.62076">
        <ele>11.827595</ele>
        <time>2022-02-25T14:18:27.084Z</time>
      </trkpt>
      <trkpt lat="36.68041" lon="31.62054">
        <ele>11.685017</ele>
        <time>2022-02-25T14:18:31.687Z</time>
      </trkpt>
      <trkpt lat="36.68078" lon="31.61951">
        <ele>11.032721</ele>
        <time>2022-02-25T14:18:53.684Z</time>
      </trkpt>
      <trkpt lat="36.68089" lon="31.61923">
        <ele>10.846779</ele>
        <time>2022-02-25T14:18:59.509Z</time>
      </trkpt>
      <trkpt lat="36.68127" lon="31.61818">
        <ele>10.171413</ele>
        <time>2022-02-25T14:19:21.448Z</time>
      </trkpt>
      <trkpt lat="36.68145" lon="31.61775">
        <ele>9.88417</ele>
        <time>2022-02-25T14:19:30.810Z</time>
      </trkpt>
      <trkpt lat="36.68217" lon="31.61596">
        <ele>9.024814</ele>
        <time>2022-02-25T14:20:10.389Z</time>
      </trkpt>
      <trkpt lat="36.68397" lon="31.61152">
        <ele>7.288997</ele>
        <time>2022-02-25T14:21:49.288Z</time>
      </trkpt>
      <trkpt lat="36.68473" lon="31.60959">
        <ele>6.980201</ele>
        <time>2022-02-25T14:22:35.048Z</time>
      </trkpt>
      <trkpt lat="36.68549" lon="31.60776">
        <ele>6.081208</ele>
        <time>2022-02-25T14:23:15.265Z</time>
      </trkpt>
      <trkpt lat="36.68591" lon="31.60679">
        <ele>5.540665</ele>
        <time>2022-02-25T14:23:35.996Z</time>
      </trkpt>
      <trkpt lat="36.68639" lon="31.6057">
        <ele>4.909733</ele>
        <time>2022-02-25T14:24:00.128Z</time>
      </trkpt>
      <trkpt lat="36.68777" lon="31.60332">
        <ele>4.442151</ele>
        <time>2022-02-25T14:25:00.781Z</time>
      </trkpt>
      <trkpt lat="36.68872" lon="31.60209">
        <ele>4.755298</ele>
        <time>2022-02-25T14:25:39.516Z</time>
      </trkpt>
      <trkpt lat="36.68904" lon="31.60168">
        <ele>4.860876</ele>
        <time>2022-02-25T14:25:52.853Z</time>
      </trkpt>
      <trkpt lat="36.68949" lon="31.60096">
        <ele>5.03111</ele>
        <time>2022-02-25T14:26:14.009Z</time>
      </trkpt>
      <trkpt lat="36.69135" lon="31.59836">
        <ele>4.782559</ele>
        <time>2022-02-25T14:27:26.285Z</time>
      </trkpt>
      <trkpt lat="36.69181" lon="31.5977">
        <ele>4.639314</ele>
        <time>2022-02-25T14:27:44.153Z</time>
      </trkpt>
      <trkpt lat="36.69257" lon="31.59668">
        <ele>4.534739</ele>
        <time>2022-02-25T14:28:13.055Z</time>
      </trkpt>
      <trkpt lat="36.69325" lon="31.59576">
        <ele>4.648832</ele>
        <time>2022-02-25T14:28:40.321Z</time>
      </trkpt>
      <trkpt lat="36.69594" lon="31.59208">
        <ele>6.542252</ele>
        <time>2022-02-25T14:30:35.293Z</time>
      </trkpt>
      <trkpt lat="36.69626" lon="31.59165">
        <ele>7.277754</ele>
        <time>2022-02-25T14:30:51.782Z</time>
      </trkpt>
      <trkpt lat="36.69713" lon="31.59056">
        <ele>9.23446</ele>
        <time>2022-02-25T14:31:36.334Z</time>
      </trkpt>
      <trkpt lat="36.69777" lon="31.59107">
        <ele>9.560155</ele>
        <time>2022-02-25T14:32:00.191Z</time>
      </trkpt>
      <trkpt lat="36.69732" lon="31.59033">
        <ele>9.740616</ele>
        <time>2022-02-25T14:32:19.992Z</time>
      </trkpt>
      <trkpt lat="36.69768" lon="31.5898">
        <ele>9.772812</ele>
        <time>2022-02-25T14:32:33.890Z</time>
      </trkpt>
      <trkpt lat="36.6983" lon="31.58886">
        <ele>9.399415</ele>
        <time>2022-02-25T14:32:57.780Z</time>
      </trkpt>
      <trkpt lat="36.70162" lon="31.58427">
        <ele>10.673189</ele>
        <time>2022-02-25T14:35:23.918Z</time>
      </trkpt>
      <trkpt lat="36.70295" lon="31.58248">
        <ele>11.349059</ele>
        <time>2022-02-25T14:36:22.757Z</time>
      </trkpt>
      <trkpt lat="36.70323" lon="31.5821">
        <ele>11.439909</ele>
        <time>2022-02-25T14:36:34.196Z</time>
      </trkpt>
      <trkpt lat="36.70367" lon="31.58149">
        <ele>11.67486</ele>
        <time>2022-02-25T14:36:52.477Z</time>
      </trkpt>
      <trkpt lat="36.70416" lon="31.58083">
        <ele>12.318291</ele>
        <time>2022-02-25T14:37:13.575Z</time>
      </trkpt>
      <trkpt lat="36.70421" lon="31.58076">
        <ele>12.381241</ele>
        <time>2022-02-25T14:37:16.364Z</time>
      </trkpt>
      <trkpt lat="36.70487" lon="31.57983">
        <ele>13.398018</ele>
        <time>2022-02-25T14:37:50.035Z</time>
      </trkpt>
      <trkpt lat="36.70505" lon="31.57959">
        <ele>13.886347</ele>
        <time>2022-02-25T14:38:00.476Z</time>
      </trkpt>
      <trkpt lat="36.70562" lon="31.5788">
        <ele>15.475395</ele>
        <time>2022-02-25T14:38:33.452Z</time>
      </trkpt>
      <trkpt lat="36.7057" lon="31.57869">
        <ele>15.701939</ele>
        <time>2022-02-25T14:38:38.667Z</time>
      </trkpt>
      <trkpt lat="36.70651" lon="31.57759">
        <ele>17.130744</ele>
        <time>2022-02-25T14:39:18.864Z</time>
      </trkpt>
      <trkpt lat="36.70668" lon="31.57735">
        <ele>17.334208</ele>
        <time>2022-02-25T14:39:26.973Z</time>
      </trkpt>
      <trkpt lat="36.70705" lon="31.57685">
        <ele>17.775031</ele>
        <time>2022-02-25T14:39:42.658Z</time>
      </trkpt>
      <trkpt lat="36.70754" lon="31.57617">
        <ele>18.080672</ele>
        <time>2022-02-25T14:40:04.134Z</time>
      </trkpt>
      <trkpt lat="36.70805" lon="31.57545">
        <ele>18.259833</ele>
        <time>2022-02-25T14:40:26.097Z</time>
      </trkpt>
      <trkpt lat="36.70815" lon="31.57532">
        <ele>18.29334</ele>
        <time>2022-02-25T14:40:30.664Z</time>
      </trkpt>
      <trkpt lat="36.70824" lon="31.57521">
        <ele>18.32214</ele>
        <time>2022-02-25T14:40:34.392Z</time>
      </trkpt>
      <trkpt lat="36.70938" lon="31.57365">
        <ele>18.035949</ele>
        <time>2022-02-25T14:41:22.494Z</time>
      </trkpt>
      <trkpt lat="36.71174" lon="31.57046">
        <ele>14.211911</ele>
        <time>2022-02-25T14:42:43.040Z</time>
      </trkpt>
      <trkpt lat="36.71276" lon="31.56904">
        <ele>13.71716</ele>
        <time>2022-02-25T14:43:26.959Z</time>
      </trkpt>
      <trkpt lat="36.71388" lon="31.56766">
        <ele>13.407321</ele>
        <time>2022-02-25T14:44:09.805Z</time>
      </trkpt>
      <trkpt lat="36.71386" lon="31.56761">
        <ele>13.39277</ele>
        <time>2022-02-25T14:44:10.851Z</time>
      </trkpt>
      <trkpt lat="36.71385" lon="31.56756">
        <ele>13.376368</ele>
        <time>2022-02-25T14:44:12.009Z</time>
      </trkpt>
      <trkpt lat="36.71388" lon="31.5675">
        <ele>13.355811</ele>
        <time>2022-02-25T14:44:13.343Z</time>
      </trkpt>
      <trkpt lat="36.71392" lon="31.56747">
        <ele>13.341007</ele>
        <time>2022-02-25T14:44:14.328Z</time>
      </trkpt>
      <trkpt lat="36.71401" lon="31.56749">
        <ele>13.306539</ele>
        <time>2022-02-25T14:44:16.721Z</time>
      </trkpt>
      <trkpt lat="36.71423" lon="31.56717">
        <ele>13.183214</ele>
        <time>2022-02-25T14:44:25.386Z</time>
      </trkpt>
      <trkpt lat="36.71439" lon="31.56692">
        <ele>13.09133</ele>
        <time>2022-02-25T14:44:31.859Z</time>
      </trkpt>
      <trkpt lat="36.71454" lon="31.56668">
        <ele>12.977335</ele>
        <time>2022-02-25T14:44:38.150Z</time>
      </trkpt>
      <trkpt lat="36.7148" lon="31.56629">
        <ele>12.757036</ele>
        <time>2022-02-25T14:44:48.648Z</time>
      </trkpt>
      <trkpt lat="36.71488" lon="31.56616">
        <ele>12.68508</ele>
        <time>2022-02-25T14:44:52.058Z</time>
      </trkpt>
      <trkpt lat="36.71608" lon="31.56448">
        <ele>11.29752</ele>
        <time>2022-02-25T14:45:38.181Z</time>
      </trkpt>
      <trkpt lat="36.71603" lon="31.56449">
        <ele>11.24</ele>
        <time>2022-02-25T14:45:39.386Z</time>
      </trkpt>
      <trkpt lat="36.71598" lon="31.56445">
        <ele>11.175219</ele>
        <time>2022-02-25T14:45:40.774Z</time>
      </trkpt>
      <trkpt lat="36.7162" lon="31.56415">
        <ele>10.810053</ele>
        <time>2022-02-25T14:45:48.037Z</time>
      </trkpt>
      <trkpt lat="36.71685" lon="31.56326">
        <ele>9.504327</ele>
        <time>2022-02-25T14:46:09.093Z</time>
      </trkpt>
      <trkpt lat="36.7185" lon="31.56103">
        <ele>5.3112</ele>
        <time>2022-02-25T14:47:00.520Z</time>
      </trkpt>
      <trkpt lat="36.71943" lon="31.55975">
        <ele>3.88563</ele>
        <time>2022-02-25T14:47:32.416Z</time>
      </trkpt>
      <trkpt lat="36.7207" lon="31.55801">
        <ele>3.634272</ele>
        <time>2022-02-25T14:48:24.116Z</time>
      </trkpt>
      <trkpt lat="36.72206" lon="31.55614">
        <ele>3.699999</ele>
        <time>2022-02-25T14:49:18.144Z</time>
      </trkpt>
      <trkpt lat="36.72273" lon="31.55522">
        <ele>3.699714</ele>
        <time>2022-02-25T14:49:44.924Z</time>
      </trkpt>
      <trkpt lat="36.72316" lon="31.55464">
        <ele>3.681</ele>
        <time>2022-02-25T14:50:01.927Z</time>
      </trkpt>
      <trkpt lat="36.72404" lon="31.55341">
        <ele>3.599451</ele>
        <time>2022-02-25T14:50:36.982Z</time>
      </trkpt>
      <trkpt lat="36.72557" lon="31.55137">
        <ele>3.356446</ele>
        <time>2022-02-25T14:51:33.540Z</time>
      </trkpt>
      <trkpt lat="36.72599" lon="31.55079">
        <ele>3.578584</ele>
        <time>2022-02-25T14:51:51.374Z</time>
      </trkpt>
      <trkpt lat="36.72755" lon="31.54867">
        <ele>5.361147</ele>
        <time>2022-02-25T14:53:03.991Z</time>
      </trkpt>
      <trkpt lat="36.7299" lon="31.54549">
        <ele>7.081634</ele>
        <time>2022-02-25T14:54:44.062Z</time>
      </trkpt>
      <trkpt lat="36.73075" lon="31.54431">
        <ele>7.656363</ele>
        <time>2022-02-25T14:55:21.953Z</time>
      </trkpt>
      <trkpt lat="36.73083" lon="31.54419">
        <ele>7.712443</ele>
        <time>2022-02-25T14:55:25.681Z</time>
      </trkpt>
      <trkpt lat="36.73087" lon="31.54418">
        <ele>7.731586</ele>
        <time>2022-02-25T14:55:26.794Z</time>
      </trkpt>
      <trkpt lat="36.73091" lon="31.54415">
        <ele>7.750213</ele>
        <time>2022-02-25T14:55:28.030Z</time>
      </trkpt>
      <trkpt lat="36.73095" lon="31.54407">
        <ele>7.786494</ele>
        <time>2022-02-25T14:55:30.201Z</time>
      </trkpt>
      <trkpt lat="36.73096" lon="31.54402">
        <ele>7.804802</ele>
        <time>2022-02-25T14:55:31.447Z</time>
      </trkpt>
      <trkpt lat="36.73096" lon="31.544">
        <ele>7.810906</ele>
        <time>2022-02-25T14:55:31.874Z</time>
      </trkpt>
      <trkpt lat="36.73179" lon="31.54294">
        <ele>7.561388</ele>
        <time>2022-02-25T14:56:03.505Z</time>
      </trkpt>
      <trkpt lat="36.73306" lon="31.5412">
        <ele>6.498577</ele>
        <time>2022-02-25T14:56:47.356Z</time>
      </trkpt>
      <trkpt lat="36.7332" lon="31.54101">
        <ele>6.371173</ele>
        <time>2022-02-25T14:56:52.141Z</time>
      </trkpt>
      <trkpt lat="36.73643" lon="31.53665">
        <ele>6.268944</ele>
        <time>2022-02-25T14:58:56.439Z</time>
      </trkpt>
      <trkpt lat="36.73667" lon="31.53636">
        <ele>6.720991</ele>
        <time>2022-02-25T14:59:07.906Z</time>
      </trkpt>
      <trkpt lat="36.73737" lon="31.53559">
        <ele>7.992789</ele>
        <time>2022-02-25T14:59:42.105Z</time>
      </trkpt>
      <trkpt lat="36.73789" lon="31.53509">
        <ele>9.183619</ele>
        <time>2022-02-25T15:00:06.911Z</time>
      </trkpt>
      <trkpt lat="36.73965" lon="31.53361">
        <ele>12.252411</ele>
        <time>2022-02-25T15:01:20.586Z</time>
      </trkpt>
      <trkpt lat="36.74037" lon="31.53295">
        <ele>13.011717</ele>
        <time>2022-02-25T15:01:45.260Z</time>
      </trkpt>
      <trkpt lat="36.74053" lon="31.53278">
        <ele>12.765271</ele>
        <time>2022-02-25T15:01:51.013Z</time>
      </trkpt>
      <trkpt lat="36.74094" lon="31.53236">
        <ele>12.153703</ele>
        <time>2022-02-25T15:02:03.454Z</time>
      </trkpt>
      <trkpt lat="36.74279" lon="31.53012">
        <ele>8.72295</ele>
        <time>2022-02-25T15:02:59.280Z</time>
      </trkpt>
      <trkpt lat="36.74367" lon="31.52911">
        <ele>7.880697</ele>
        <time>2022-02-25T15:03:28.076Z</time>
      </trkpt>
      <trkpt lat="36.74545" lon="31.52704">
        <ele>7.142788</ele>
        <time>2022-02-25T15:04:31.055Z</time>
      </trkpt>
      <trkpt lat="36.74583" lon="31.52664">
        <ele>7.040161</ele>
        <time>2022-02-25T15:04:43.695Z</time>
      </trkpt>
      <trkpt lat="36.74618" lon="31.52629">
        <ele>6.945332</ele>
        <time>2022-02-25T15:04:55.150Z</time>
      </trkpt>
      <trkpt lat="36.74666" lon="31.52583">
        <ele>6.818627</ele>
        <time>2022-02-25T15:05:10.452Z</time>
      </trkpt>
      <trkpt lat="36.74725" lon="31.52526">
        <ele>6.749705</ele>
        <time>2022-02-25T15:05:30.150Z</time>
      </trkpt>
      <trkpt lat="36.74807" lon="31.52461">
        <ele>6.872796</ele>
        <time>2022-02-25T15:05:56.222Z</time>
      </trkpt>
      <trkpt lat="36.74995" lon="31.52321">
        <ele>7.41885</ele>
        <time>2022-02-25T15:06:58.664Z</time>
      </trkpt>
      <trkpt lat="36.75074" lon="31.52262">
        <ele>7.299726</ele>
        <time>2022-02-25T15:07:22.670Z</time>
      </trkpt>
      <trkpt lat="36.75131" lon="31.52221">
        <ele>7.149893</ele>
        <time>2022-02-25T15:07:39.195Z</time>
      </trkpt>
      <trkpt lat="36.7528" lon="31.52112">
        <ele>6.821831</ele>
        <time>2022-02-25T15:08:22.773Z</time>
      </trkpt>
      <trkpt lat="36.75427" lon="31.52005">
        <ele>7.522564</ele>
        <time>2022-02-25T15:09:10.371Z</time>
      </trkpt>
      <trkpt lat="36.75489" lon="31.51958">
        <ele>8.242668</ele>
        <time>2022-02-25T15:09:33.857Z</time>
      </trkpt>
      <trkpt lat="36.75509" lon="31.51955">
        <ele>8.694716</ele>
        <time>2022-02-25T15:09:41.318Z</time>
      </trkpt>
      <trkpt lat="36.75701" lon="31.51817">
        <ele>14.187504</ele>
        <time>2022-02-25T15:11:09.483Z</time>
      </trkpt>
      <trkpt lat="36.75772" lon="31.51761">
        <ele>16.687811</ele>
        <time>2022-02-25T15:11:46.677Z</time>
      </trkpt>
      <trkpt lat="36.75804" lon="31.51728">
        <ele>17.696316</ele>
        <time>2022-02-25T15:12:04.977Z</time>
      </trkpt>
      <trkpt lat="36.75847" lon="31.51682">
        <ele>18.810695</ele>
        <time>2022-02-25T15:12:28.177Z</time>
      </trkpt>
      <trkpt lat="36.75833" lon="31.51683">
        <ele>19.093149</ele>
        <time>2022-02-25T15:12:33.959Z</time>
      </trkpt>
      <trkpt lat="36.75883" lon="31.51623">
        <ele>20.480327</ele>
        <time>2022-02-25T15:12:57.396Z</time>
      </trkpt>
      <trkpt lat="36.75916" lon="31.51582">
        <ele>20.246869</ele>
        <time>2022-02-25T15:13:09.813Z</time>
      </trkpt>
      <trkpt lat="36.75945" lon="31.51537">
        <ele>19.443285</ele>
        <time>2022-02-25T15:13:20.573Z</time>
      </trkpt>
      <trkpt lat="36.7598" lon="31.5148">
        <ele>18.425577</ele>
        <time>2022-02-25T15:13:32.589Z</time>
      </trkpt>
      <trkpt lat="36.76037" lon="31.51366">
        <ele>15.47474</ele>
        <time>2022-02-25T15:13:53.272Z</time>
      </trkpt>
      <trkpt lat="36.76049" lon="31.51342">
        <ele>14.687372</ele>
        <time>2022-02-25T15:13:57.513Z</time>
      </trkpt>
      <trkpt lat="36.76147" lon="31.51118">
        <ele>8.395606</ele>
        <time>2022-02-25T15:14:37.174Z</time>
      </trkpt>
      <trkpt lat="36.76245" lon="31.50919">
        <ele>4.875598</ele>
        <time>2022-02-25T15:15:17.418Z</time>
      </trkpt>
      <trkpt lat="36.76257" lon="31.5089">
        <ele>4.518989</ele>
        <time>2022-02-25T15:15:23.487Z</time>
      </trkpt>
      <trkpt lat="36.76271" lon="31.50855">
        <ele>4.078755</ele>
        <time>2022-02-25T15:15:30.976Z</time>
      </trkpt>
      <trkpt lat="36.76288" lon="31.50815">
        <ele>3.95034</ele>
        <time>2022-02-25T15:15:39.691Z</time>
      </trkpt>
      <trkpt lat="36.76343" lon="31.50682">
        <ele>3.71915</ele>
        <time>2022-02-25T15:16:11.586Z</time>
      </trkpt>
      <trkpt lat="36.76396" lon="31.50564">
        <ele>3.519997</ele>
        <time>2022-02-25T15:16:40.255Z</time>
      </trkpt>
      <trkpt lat="36.7653" lon="31.50272">
        <ele>2.92509</ele>
        <time>2022-02-25T15:17:48.892Z</time>
      </trkpt>
      <trkpt lat="36.76707" lon="31.49879">
        <ele>2.417118</ele>
        <time>2022-02-25T15:19:22.907Z</time>
      </trkpt>
      <trkpt lat="36.76774" lon="31.49726">
        <ele>2.73262</ele>
        <time>2022-02-25T15:20:01.789Z</time>
      </trkpt>
      <trkpt lat="36.76954" lon="31.49347">
        <ele>3.721208</ele>
        <time>2022-02-25T15:21:41.085Z</time>
      </trkpt>
      <trkpt lat="36.76982" lon="31.49288">
        <ele>3.858125</ele>
        <time>2022-02-25T15:21:56.385Z</time>
      </trkpt>
      <trkpt lat="36.76986" lon="31.49279">
        <ele>3.865653</ele>
        <time>2022-02-25T15:21:58.575Z</time>
      </trkpt>
      <trkpt lat="36.76988" lon="31.49275">
        <ele>3.867835</ele>
        <time>2022-02-25T15:21:59.663Z</time>
      </trkpt>
      <trkpt lat="36.76991" lon="31.49269">
        <ele>3.870997</ele>
        <time>2022-02-25T15:22:01.177Z</time>
      </trkpt>
      <trkpt lat="36.77118" lon="31.48961">
        <ele>3.936267</ele>
        <time>2022-02-25T15:23:16.004Z</time>
      </trkpt>
      <trkpt lat="36.77205" lon="31.48768">
        <ele>3.684554</ele>
        <time>2022-02-25T15:24:02.231Z</time>
      </trkpt>
      <trkpt lat="36.7722" lon="31.48753">
        <ele>3.643269</ele>
        <time>2022-02-25T15:24:07.170Z</time>
      </trkpt>
      <trkpt lat="36.77234" lon="31.48745">
        <ele>3.609674</ele>
        <time>2022-02-25T15:24:11.471Z</time>
      </trkpt>
      <trkpt lat="36.77245" lon="31.48737">
        <ele>3.581428</ele>
        <time>2022-02-25T15:24:14.810Z</time>
      </trkpt>
      <trkpt lat="36.77258" lon="31.48716">
        <ele>3.537417</ele>
        <time>2022-02-25T15:24:20.293Z</time>
      </trkpt>
      <trkpt lat="36.77262" lon="31.48704">
        <ele>3.526734</ele>
        <time>2022-02-25T15:24:23.015Z</time>
      </trkpt>
      <trkpt lat="36.77266" lon="31.48655">
        <ele>3.48681</ele>
        <time>2022-02-25T15:24:33.319Z</time>
      </trkpt>
      <trkpt lat="36.7758" lon="31.47961">
        <ele>3.101649</ele>
        <time>2022-02-25T15:27:28.922Z</time>
      </trkpt>
      <trkpt lat="36.77637" lon="31.47815">
        <ele>3.518811</ele>
        <time>2022-02-25T15:28:08.461Z</time>
      </trkpt>
      <trkpt lat="36.77648" lon="31.47784">
        <ele>3.627354</ele>
        <time>2022-02-25T15:28:16.747Z</time>
      </trkpt>
      <trkpt lat="36.77662" lon="31.4779">
        <ele>3.686384</ele>
        <time>2022-02-25T15:28:20.903Z</time>
      </trkpt>
      <trkpt lat="36.77676" lon="31.47797">
        <ele>3.745676</ele>
        <time>2022-02-25T15:28:25.146Z</time>
      </trkpt>
      <trkpt lat="36.77685" lon="31.47801">
        <ele>3.785973</ele>
        <time>2022-02-25T15:28:27.872Z</time>
      </trkpt>
      <trkpt lat="36.77707" lon="31.477">
        <ele>3.831018</ele>
        <time>2022-02-25T15:28:51.314Z</time>
      </trkpt>
      <trkpt lat="36.77727" lon="31.47577">
        <ele>3.819138</ele>
        <time>2022-02-25T15:29:18.733Z</time>
      </trkpt>
      <trkpt lat="36.77763" lon="31.47363">
        <ele>3.643789</ele>
        <time>2022-02-25T15:30:07.265Z</time>
      </trkpt>
      <trkpt lat="36.77777" lon="31.47344">
        <ele>3.588735</ele>
        <time>2022-02-25T15:30:12.824Z</time>
      </trkpt>
      <trkpt lat="36.77853" lon="31.4724">
        <ele>2.935106</ele>
        <time>2022-02-25T15:30:41.411Z</time>
      </trkpt>
      <trkpt lat="36.77873" lon="31.47194">
        <ele>2.690119</ele>
        <time>2022-02-25T15:30:51.815Z</time>
      </trkpt>
      <trkpt lat="36.77888" lon="31.47112">
        <ele>2.473636</ele>
        <time>2022-02-25T15:31:08.783Z</time>
      </trkpt>
      <trkpt lat="36.77896" lon="31.47039">
        <ele>2.339111</ele>
        <time>2022-02-25T15:31:24.702Z</time>
      </trkpt>
      <trkpt lat="36.77917" lon="31.46939">
        <ele>2.224945</ele>
        <time>2022-02-25T15:31:47.823Z</time>
      </trkpt>
      <trkpt lat="36.77929" lon="31.46921">
        <ele>2.303841</ele>
        <time>2022-02-25T15:31:53.282Z</time>
      </trkpt>
      <trkpt lat="36.77949" lon="31.46821">
        <ele>2.653953</ele>
        <time>2022-02-25T15:32:17.581Z</time>
      </trkpt>
      <trkpt lat="36.77983" lon="31.46594">
        <ele>3.842466</ele>
        <time>2022-02-25T15:33:14.886Z</time>
      </trkpt>
      <trkpt lat="36.78014" lon="31.46448">
        <ele>4.705074</ele>
        <time>2022-02-25T15:33:54.334Z</time>
      </trkpt>
      <trkpt lat="36.77977" lon="31.46344">
        <ele>5.302909</ele>
        <time>2022-02-25T15:34:22.843Z</time>
      </trkpt>
      <trkpt lat="36.7798" lon="31.46342">
        <ele>5.32201</ele>
        <time>2022-02-25T15:34:23.701Z</time>
      </trkpt>
      <trkpt lat="36.77995" lon="31.46333">
        <ele>5.430721</ele>
        <time>2022-02-25T15:34:28.541Z</time>
      </trkpt>
      <trkpt lat="36.77997" lon="31.46332">
        <ele>5.449595</ele>
        <time>2022-02-25T15:34:29.353Z</time>
      </trkpt>
      <trkpt lat="36.78016" lon="31.4632">
        <ele>5.44502</ele>
        <time>2022-02-25T15:34:35.298Z</time>
      </trkpt>
      <trkpt lat="36.78044" lon="31.46268">
        <ele>5.234482</ele>
        <time>2022-02-25T15:34:48.467Z</time>
      </trkpt>
      <trkpt lat="36.78078" lon="31.46206">
        <ele>4.981982</ele>
        <time>2022-02-25T15:35:03.603Z</time>
      </trkpt>
      <trkpt lat="36.78111" lon="31.46147">
        <ele>4.743252</ele>
        <time>2022-02-25T15:35:18.288Z</time>
      </trkpt>
      <trkpt lat="36.78139" lon="31.46097">
        <ele>4.720696</ele>
        <time>2022-02-25T15:35:30.600Z</time>
      </trkpt>
      <trkpt lat="36.78168" lon="31.46044">
        <ele>4.696678</ele>
        <time>2022-02-25T15:35:44.282Z</time>
      </trkpt>
      <trkpt lat="36.78185" lon="31.46013">
        <ele>4.682701</ele>
        <time>2022-02-25T15:35:52.792Z</time>
      </trkpt>
      <trkpt lat="36.78233" lon="31.46051">
        <ele>4.719589</ele>
        <time>2022-02-25T15:36:09.916Z</time>
      </trkpt>
      <trkpt lat="36.7824" lon="31.46037">
        <ele>4.81902</ele>
        <time>2022-02-25T15:36:14.307Z</time>
      </trkpt>
      <trkpt lat="36.78246" lon="31.4603">
        <ele>4.879463</ele>
        <time>2022-02-25T15:36:16.811Z</time>
      </trkpt>
      <trkpt lat="36.78265" lon="31.45999">
        <ele>5.113215</ele>
        <time>2022-02-25T15:36:26.963Z</time>
      </trkpt>
      <trkpt lat="36.78316" lon="31.45934">
        <ele>5.644866</ele>
        <time>2022-02-25T15:36:50.289Z</time>
      </trkpt>
      <trkpt lat="36.78327" lon="31.4592">
        <ele>5.763501</ele>
        <time>2022-02-25T15:36:55.271Z</time>
      </trkpt>
      <trkpt lat="36.78339" lon="31.45917">
        <ele>5.849525</ele>
        <time>2022-02-25T15:36:59.106Z</time>
      </trkpt>
      <trkpt lat="36.78352" lon="31.45874">
        <ele>6.012434</ele>
        <time>2022-02-25T15:37:10.421Z</time>
      </trkpt>
      <trkpt lat="36.78366" lon="31.45847">
        <ele>6.051464</ele>
        <time>2022-02-25T15:37:17.863Z</time>
      </trkpt>
      <trkpt lat="36.78376" lon="31.45838">
        <ele>6.069353</ele>
        <time>2022-02-25T15:37:21.728Z</time>
      </trkpt>
      <trkpt lat="36.78396" lon="31.45834">
        <ele>6.100014</ele>
        <time>2022-02-25T15:37:27.429Z</time>
      </trkpt>
      <trkpt lat="36.78426" lon="31.45834">
        <ele>6.145099</ele>
        <time>2022-02-25T15:37:35.962Z</time>
      </trkpt>
      <trkpt lat="36.78427" lon="31.45834">
        <ele>6.146751</ele>
        <time>2022-02-25T15:37:36.252Z</time>
      </trkpt>
      <trkpt lat="36.78441" lon="31.45779">
        <ele>6.215453</ele>
        <time>2022-02-25T15:37:48.132Z</time>
      </trkpt>
      <trkpt lat="36.78445" lon="31.45758">
        <ele>6.241767</ele>
        <time>2022-02-25T15:37:53.162Z</time>
      </trkpt>
      <trkpt lat="36.78443" lon="31.45699">
        <ele>6.276574</ele>
        <time>2022-02-25T15:38:06.448Z</time>
      </trkpt>
      <trkpt lat="36.78512" lon="31.45683">
        <ele>6.317556</ele>
        <time>2022-02-25T15:38:26.188Z</time>
      </trkpt>
      <trkpt lat="36.78614" lon="31.45658">
        <ele>6.33509</ele>
        <time>2022-02-25T15:38:55.875Z</time>
      </trkpt>
      <trkpt lat="36.78617" lon="31.45657">
        <ele>6.33249</ele>
        <time>2022-02-25T15:38:56.782Z</time>
      </trkpt>
      <trkpt lat="36.78688" lon="31.45631">
        <ele>6.280381</ele>
        <time>2022-02-25T15:39:17.040Z</time>
      </trkpt>
      <trkpt lat="36.78679" lon="31.45599">
        <ele>6.261204</ele>
        <time>2022-02-25T15:39:24.888Z</time>
      </trkpt>
      <trkpt lat="36.78684" lon="31.45596">
        <ele>6.25715</ele>
        <time>2022-02-25T15:39:26.109Z</time>
      </trkpt>
      <trkpt lat="36.78774" lon="31.45533">
        <ele>6.32811</ele>
        <time>2022-02-25T15:39:52.655Z</time>
      </trkpt>
      <trkpt lat="36.78783" lon="31.45527">
        <ele>6.342284</ele>
        <time>2022-02-25T15:39:54.810Z</time>
      </trkpt>
      <trkpt lat="36.78797" lon="31.45519">
        <ele>6.364808</ele>
        <time>2022-02-25T15:39:59.580Z</time>
      </trkpt>
      <trkpt lat="36.78818" lon="31.45511">
        <ele>6.395929</ele>
        <time>2022-02-25T15:40:04.890Z</time>
      </trkpt>
      <trkpt lat="36.78829" lon="31.4551">
        <ele>6.412389</ele>
        <time>2022-02-25T15:40:08.525Z</time>
      </trkpt>
      <trkpt lat="36.78835" lon="31.45509">
        <ele>6.420898</ele>
        <time>2022-02-25T15:40:10.389Z</time>
      </trkpt>
      <trkpt lat="36.78848" lon="31.45495">
        <ele>6.446063</ele>
        <time>2022-02-25T15:40:15.037Z</time>
      </trkpt>
      <trkpt lat="36.78851" lon="31.45488">
        <ele>6.454578</ele>
        <time>2022-02-25T15:40:17.134Z</time>
      </trkpt>
      <trkpt lat="36.78851" lon="31.45481">
        <ele>6.463387</ele>
        <time>2022-02-25T15:40:19.083Z</time>
      </trkpt>
      <trkpt lat="36.78848" lon="31.45466">
        <ele>6.480856</ele>
        <time>2022-02-25T15:40:22.970Z</time>
      </trkpt>
      <trkpt lat="36.78844" lon="31.4546">
        <ele>6.489681</ele>
        <time>2022-02-25T15:40:24.487Z</time>
      </trkpt>
      <trkpt lat="36.78837" lon="31.45426">
        <ele>6.761723</ele>
        <time>2022-02-25T15:40:33.602Z</time>
      </trkpt>
      <trkpt lat="36.78825" lon="31.45372">
        <ele>7.199213</ele>
        <time>2022-02-25T15:40:47.092Z</time>
      </trkpt>
      <trkpt lat="36.78806" lon="31.45267">
        <ele>8.045779</ele>
        <time>2022-02-25T15:41:14.212Z</time>
      </trkpt>
      <trkpt lat="36.78804" lon="31.45255">
        <ele>8.139975</ele>
        <time>2022-02-25T15:41:17.407Z</time>
      </trkpt>
      <trkpt lat="36.78784" lon="31.45138">
        <ele>8.929196</ele>
        <time>2022-02-25T15:41:49.710Z</time>
      </trkpt>
      <trkpt lat="36.78773" lon="31.4508">
        <ele>9.305788</ele>
        <time>2022-02-25T15:42:04.131Z</time>
      </trkpt>
      <trkpt lat="36.78762" lon="31.44996">
        <ele>9.489115</ele>
        <time>2022-02-25T15:42:22.852Z</time>
      </trkpt>
      <trkpt lat="36.78753" lon="31.4493">
        <ele>8.974451</ele>
        <time>2022-02-25T15:42:35.241Z</time>
      </trkpt>
      <trkpt lat="36.78744" lon="31.44865">
        <ele>8.459738</ele>
        <time>2022-02-25T15:42:47.355Z</time>
      </trkpt>
      <trkpt lat="36.78742" lon="31.44846">
        <ele>8.312897</ele>
        <time>2022-02-25T15:42:50.454Z</time>
      </trkpt>
      <trkpt lat="36.78732" lon="31.44824">
        <ele>8.126318</ele>
        <time>2022-02-25T15:42:55.188Z</time>
      </trkpt>
      <trkpt lat="36.7873" lon="31.44814">
        <ele>8.040439</ele>
        <time>2022-02-25T15:42:56.970Z</time>
      </trkpt>
      <trkpt lat="36.78713" lon="31.44752">
        <ele>7.659712</ele>
        <time>2022-02-25T15:43:08.871Z</time>
      </trkpt>
      <trkpt lat="36.78704" lon="31.4472">
        <ele>7.475434</ele>
        <time>2022-02-25T15:43:14.916Z</time>
      </trkpt>
      <trkpt lat="36.78698" lon="31.44702">
        <ele>7.366325</ele>
        <time>2022-02-25T15:43:19.163Z</time>
      </trkpt>
      <trkpt lat="36.78679" lon="31.44631">
        <ele>6.958116</ele>
        <time>2022-02-25T15:43:32.862Z</time>
      </trkpt>
      <trkpt lat="36.7868" lon="31.44584">
        <ele>6.746246</ele>
        <time>2022-02-25T15:43:43.315Z</time>
      </trkpt>
      <trkpt lat="36.78703" lon="31.44583">
        <ele>6.859452</ele>
        <time>2022-02-25T15:43:50.593Z</time>
      </trkpt>
      <trkpt lat="36.78715" lon="31.44583">
        <ele>6.916523</ele>
        <time>2022-02-25T15:43:54.422Z</time>
      </trkpt>
      <trkpt lat="36.78728" lon="31.44583">
        <ele>6.981889</ele>
        <time>2022-02-25T15:43:59.505Z</time>
      </trkpt>
      <trkpt lat="36.78731" lon="31.44583">
        <ele>6.995064</ele>
        <time>2022-02-25T15:44:00.321Z</time>
      </trkpt>
      <trkpt lat="36.78738" lon="31.44583">
        <ele>7.029228</ele>
        <time>2022-02-25T15:44:02.530Z</time>
      </trkpt>
      <trkpt lat="36.78739" lon="31.44583">
        <ele>7.037042</ele>
        <time>2022-02-25T15:44:03.014Z</time>
      </trkpt>
      <trkpt lat="36.78748" lon="31.44581">
        <ele>7.079297</ele>
        <time>2022-02-25T15:44:05.719Z</time>
      </trkpt>
      <trkpt lat="36.78749" lon="31.44581">
        <ele>7.08419</ele>
        <time>2022-02-25T15:44:06.004Z</time>
      </trkpt>
      <trkpt lat="36.78785" lon="31.44576">
        <ele>7.262503</ele>
        <time>2022-02-25T15:44:17.344Z</time>
      </trkpt>
      <trkpt lat="36.7879" lon="31.44547">
        <ele>7.376935</ele>
        <time>2022-02-25T15:44:24.565Z</time>
      </trkpt>
      <trkpt lat="36.78803" lon="31.44491">
        <ele>7.603299</ele>
        <time>2022-02-25T15:44:37.500Z</time>
      </trkpt>
      <trkpt lat="36.78806" lon="31.44483">
        <ele>7.640946</ele>
        <time>2022-02-25T15:44:39.863Z</time>
      </trkpt>
      <trkpt lat="36.78815" lon="31.44467">
        <ele>7.712999</ele>
        <time>2022-02-25T15:44:44.062Z</time>
      </trkpt>
      <trkpt lat="36.78829" lon="31.44447">
        <ele>7.813869</ele>
        <time>2022-02-25T15:44:50.136Z</time>
      </trkpt>
      <trkpt lat="36.78841" lon="31.44433">
        <ele>7.894558</ele>
        <time>2022-02-25T15:44:55.059Z</time>
      </trkpt>
      <trkpt lat="36.78845" lon="31.44429">
        <ele>7.920025</ele>
        <time>2022-02-25T15:44:56.573Z</time>
      </trkpt>
      <trkpt lat="36.78851" lon="31.4442">
        <ele>7.96568</ele>
        <time>2022-02-25T15:44:59.421Z</time>
      </trkpt>
      <trkpt lat="36.78886" lon="31.44374">
        <ele>8.209098</ele>
        <time>2022-02-25T15:45:15.016Z</time>
      </trkpt>
      <trkpt lat="36.78908" lon="31.44346">
        <ele>8.358916</ele>
        <time>2022-02-25T15:45:24.463Z</time>
      </trkpt>
      <trkpt lat="36.78944" lon="31.44298">
        <ele>8.876929</ele>
        <time>2022-02-25T15:45:41.145Z</time>
      </trkpt>
      <trkpt lat="36.78957" lon="31.44281">
        <ele>9.12841</ele>
        <time>2022-02-25T15:45:47.078Z</time>
      </trkpt>
      <trkpt lat="36.7898" lon="31.4425">
        <ele>9.59211</ele>
        <time>2022-02-25T15:45:58.913Z</time>
      </trkpt>
      <trkpt lat="36.79004" lon="31.44219">
        <ele>10.05904</ele>
        <time>2022-02-25T15:46:10.953Z</time>
      </trkpt>
      <trkpt lat="36.7903" lon="31.44184">
        <ele>10.583351</ele>
        <time>2022-02-25T15:46:24.447Z</time>
      </trkpt>
      <trkpt lat="36.79034" lon="31.44181">
        <ele>10.638851</ele>
        <time>2022-02-25T15:46:25.773Z</time>
      </trkpt>
      <trkpt lat="36.79047" lon="31.44167">
        <ele>10.878918</ele>
        <time>2022-02-25T15:46:31.565Z</time>
      </trkpt>
      <trkpt lat="36.79077" lon="31.44135">
        <ele>11.517694</ele>
        <time>2022-02-25T15:46:46.128Z</time>
      </trkpt>
      <trkpt lat="36.79083" lon="31.4413">
        <ele>11.632612</ele>
        <time>2022-02-25T15:46:49.392Z</time>
      </trkpt>
      <trkpt lat="36.79115" lon="31.44094">
        <ele>12.349562</ele>
        <time>2022-02-25T15:47:05.194Z</time>
      </trkpt>
      <trkpt lat="36.79125" lon="31.44086">
        <ele>12.530158</ele>
        <time>2022-02-25T15:47:09.431Z</time>
      </trkpt>
      <trkpt lat="36.79132" lon="31.44081">
        <ele>12.663974</ele>
        <time>2022-02-25T15:47:11.962Z</time>
      </trkpt>
      <trkpt lat="36.7916" lon="31.44068">
        <ele>13.166913</ele>
        <time>2022-02-25T15:47:22.867Z</time>
      </trkpt>
      <trkpt lat="36.79168" lon="31.44065">
        <ele>13.293572</ele>
        <time>2022-02-25T15:47:25.114Z</time>
      </trkpt>
      <trkpt lat="36.79165" lon="31.44055">
        <ele>13.434739</ele>
        <time>2022-02-25T15:47:28.624Z</time>
      </trkpt>
      <trkpt lat="36.79163" lon="31.44029">
        <ele>13.771024</ele>
        <time>2022-02-25T15:47:35.028Z</time>
      </trkpt>
      <trkpt lat="36.79164" lon="31.44014">
        <ele>13.888613</ele>
        <time>2022-02-25T15:47:39.339Z</time>
      </trkpt>
      <trkpt lat="36.79165" lon="31.44006">
        <ele>13.909392</ele>
        <time>2022-02-25T15:47:41.127Z</time>
      </trkpt>
      <trkpt lat="36.79234" lon="31.43781">
        <ele>14.664604</ele>
        <time>2022-02-25T15:48:36.384Z</time>
      </trkpt>
      <trkpt lat="36.79241" lon="31.43764">
        <ele>14.798195</ele>
        <time>2022-02-25T15:48:40.532Z</time>
      </trkpt>
      <trkpt lat="36.79266" lon="31.43727">
        <ele>15.129708</ele>
        <time>2022-02-25T15:48:51.322Z</time>
      </trkpt>
      <trkpt lat="36.79323" lon="31.43655">
        <ele>15.829004</ele>
        <time>2022-02-25T15:49:15.772Z</time>
      </trkpt>
      <trkpt lat="36.79343" lon="31.43633">
        <ele>16.460812</ele>
        <time>2022-02-25T15:49:24.227Z</time>
      </trkpt>
      <trkpt lat="36.79378" lon="31.43568">
        <ele>20.222653</ele>
        <time>2022-02-25T15:49:58.251Z</time>
      </trkpt>
      <trkpt lat="36.79426" lon="31.43487">
        <ele>25.06845</ele>
        <time>2022-02-25T15:50:46.715Z</time>
      </trkpt>
      <trkpt lat="36.79429" lon="31.43477">
        <ele>25.554212</ele>
        <time>2022-02-25T15:50:51.329Z</time>
      </trkpt>
      <trkpt lat="36.79434" lon="31.4347">
        <ele>26.014416</ele>
        <time>2022-02-25T15:50:55.051Z</time>
      </trkpt>
      <trkpt lat="36.79432" lon="31.43458">
        <ele>26.571978</ele>
        <time>2022-02-25T15:51:05.416Z</time>
      </trkpt>
      <trkpt lat="36.79373" lon="31.43346">
        <ele>34.171722</ele>
        <time>2022-02-25T15:52:20.305Z</time>
      </trkpt>
      <trkpt lat="36.79371" lon="31.43312">
        <ele>36.100939</ele>
        <time>2022-02-25T15:52:35.213Z</time>
      </trkpt>
      <trkpt lat="36.79363" lon="31.43303">
        <ele>36.896536</ele>
        <time>2022-02-25T15:52:46.258Z</time>
      </trkpt>
      <trkpt lat="36.7934" lon="31.43292">
        <ele>38.612638</ele>
        <time>2022-02-25T15:52:58.416Z</time>
      </trkpt>
      <trkpt lat="36.7932" lon="31.43265">
        <ele>39.37618</ele>
        <time>2022-02-25T15:53:10.338Z</time>
      </trkpt>
      <trkpt lat="36.79288" lon="31.43206">
        <ele>38.925155</ele>
        <time>2022-02-25T15:53:30.224Z</time>
      </trkpt>
      <trkpt lat="36.79274" lon="31.43162">
        <ele>38.621242</ele>
        <time>2022-02-25T15:53:39.170Z</time>
      </trkpt>
      <trkpt lat="36.79245" lon="31.43157">
        <ele>38.393377</ele>
        <time>2022-02-25T15:53:45.192Z</time>
      </trkpt>
      <trkpt lat="36.79229" lon="31.43148">
        <ele>38.253576</ele>
        <time>2022-02-25T15:53:48.554Z</time>
      </trkpt>
      <trkpt lat="36.79216" lon="31.43151">
        <ele>38.148596</ele>
        <time>2022-02-25T15:53:51.182Z</time>
      </trkpt>
      <trkpt lat="36.79199" lon="31.43152">
        <ele>37.56701</ele>
        <time>2022-02-25T15:53:54.364Z</time>
      </trkpt>
      <trkpt lat="36.79217" lon="31.43097">
        <ele>34.77724</ele>
        <time>2022-02-25T15:54:03.240Z</time>
      </trkpt>
      <trkpt lat="36.79224" lon="31.43075">
        <ele>33.703412</ele>
        <time>2022-02-25T15:54:06.589Z</time>
      </trkpt>
      <trkpt lat="36.79246" lon="31.43008">
        <ele>30.31274</ele>
        <time>2022-02-25T15:54:17.103Z</time>
      </trkpt>
      <trkpt lat="36.79249" lon="31.42995">
        <ele>29.682478</ele>
        <time>2022-02-25T15:54:19.071Z</time>
      </trkpt>
      <trkpt lat="36.79258" lon="31.42964">
        <ele>28.111426</ele>
        <time>2022-02-25T15:54:24.057Z</time>
      </trkpt>
      <trkpt lat="36.79269" lon="31.4294">
        <ele>27.322948</ele>
        <time>2022-02-25T15:54:27.935Z</time>
      </trkpt>
      <trkpt lat="36.79272" lon="31.42931">
        <ele>27.153563</ele>
        <time>2022-02-25T15:54:29.482Z</time>
      </trkpt>
      <trkpt lat="36.79275" lon="31.42907">
        <ele>26.722771</ele>
        <time>2022-02-25T15:54:33.235Z</time>
      </trkpt>
      <trkpt lat="36.79284" lon="31.42871">
        <ele>26.080072</ele>
        <time>2022-02-25T15:54:39.173Z</time>
      </trkpt>
      <trkpt lat="36.79288" lon="31.42854">
        <ele>25.759143</ele>
        <time>2022-02-25T15:54:42.156Z</time>
      </trkpt>
      <trkpt lat="36.79307" lon="31.4276">
        <ele>24.0875</ele>
        <time>2022-02-25T15:55:00.958Z</time>
      </trkpt>
      <trkpt lat="36.79308" lon="31.42754">
        <ele>23.97666</ele>
        <time>2022-02-25T15:55:02.799Z</time>
      </trkpt>
      <trkpt lat="36.79324" lon="31.427">
        <ele>25.09124</ele>
        <time>2022-02-25T15:55:20.133Z</time>
      </trkpt>
      <trkpt lat="36.79337" lon="31.42644">
        <ele>27.107915</ele>
        <time>2022-02-25T15:55:42.392Z</time>
      </trkpt>
      <trkpt lat="36.79339" lon="31.42622">
        <ele>27.839587</ele>
        <time>2022-02-25T15:55:52.159Z</time>
      </trkpt>
      <trkpt lat="36.7934" lon="31.4259">
        <ele>28.930355</ele>
        <time>2022-02-25T15:56:05.465Z</time>
      </trkpt>
      <trkpt lat="36.79343" lon="31.42544">
        <ele>30.513798</ele>
        <time>2022-02-25T15:56:26.956Z</time>
      </trkpt>
      <trkpt lat="36.79344" lon="31.4252">
        <ele>31.319407</ele>
        <time>2022-02-25T15:56:38.667Z</time>
      </trkpt>
      <trkpt lat="36.79345" lon="31.42503">
        <ele>31.714279</ele>
        <time>2022-02-25T15:56:45.692Z</time>
      </trkpt>
      <trkpt lat="36.79346" lon="31.42492">
        <ele>31.944925</ele>
        <time>2022-02-25T15:56:50.656Z</time>
      </trkpt>
      <trkpt lat="36.79345" lon="31.42449">
        <ele>32.882484</ele>
        <time>2022-02-25T15:57:08.246Z</time>
      </trkpt>
      <trkpt lat="36.79347" lon="31.42442">
        <ele>33.033818</ele>
        <time>2022-02-25T15:57:11.443Z</time>
      </trkpt>
      <trkpt lat="36.79347" lon="31.42433">
        <ele>33.240632</ele>
        <time>2022-02-25T15:57:15.199Z</time>
      </trkpt>
      <trkpt lat="36.79345" lon="31.42394">
        <ele>34.075206</ele>
        <time>2022-02-25T15:57:27.847Z</time>
      </trkpt>
      <trkpt lat="36.79342" lon="31.42375">
        <ele>34.502876</ele>
        <time>2022-02-25T15:57:33.531Z</time>
      </trkpt>
      <trkpt lat="36.79339" lon="31.42361">
        <ele>34.811264</ele>
        <time>2022-02-25T15:57:37.156Z</time>
      </trkpt>
      <trkpt lat="36.79337" lon="31.42354">
        <ele>34.973265</ele>
        <time>2022-02-25T15:57:39.641Z</time>
      </trkpt>
      <trkpt lat="36.79332" lon="31.42332">
        <ele>35.481234</ele>
        <time>2022-02-25T15:57:45.260Z</time>
      </trkpt>
      <trkpt lat="36.79332" lon="31.42328">
        <ele>35.570919</ele>
        <time>2022-02-25T15:57:46.024Z</time>
      </trkpt>
      <trkpt lat="36.79332" lon="31.42324">
        <ele>35.660148</ele>
        <time>2022-02-25T15:57:46.831Z</time>
      </trkpt>
      <trkpt lat="36.79331" lon="31.4232">
        <ele>35.751301</ele>
        <time>2022-02-25T15:57:47.776Z</time>
      </trkpt>
      <trkpt lat="36.79329" lon="31.42317">
        <ele>35.84149</ele>
        <time>2022-02-25T15:57:48.891Z</time>
      </trkpt>
      <trkpt lat="36.79329" lon="31.42299">
        <ele>36.213467</ele>
        <time>2022-02-25T15:57:52.806Z</time>
      </trkpt>
      <trkpt lat="36.79322" lon="31.42265">
        <ele>35.809426</ele>
        <time>2022-02-25T15:57:59.530Z</time>
      </trkpt>
      <trkpt lat="36.79316" lon="31.42235">
        <ele>35.421706</ele>
        <time>2022-02-25T15:58:05.348Z</time>
      </trkpt>
      <trkpt lat="36.79299" lon="31.42159">
        <ele>34.429858</ele>
        <time>2022-02-25T15:58:19.252Z</time>
      </trkpt>
      <trkpt lat="36.79287" lon="31.42089">
        <ele>33.523083</ele>
        <time>2022-02-25T15:58:31.822Z</time>
      </trkpt>
      <trkpt lat="36.79259" lon="31.41951">
        <ele>31.363098</ele>
        <time>2022-02-25T15:58:57.830Z</time>
      </trkpt>
      <trkpt lat="36.79244" lon="31.41881">
        <ele>30.24947</ele>
        <time>2022-02-25T15:59:10.916Z</time>
      </trkpt>
      <trkpt lat="36.7922" lon="31.41871">
        <ele>29.665145</ele>
        <time>2022-02-25T15:59:16.351Z</time>
      </trkpt>
      <trkpt lat="36.79212" lon="31.41868">
        <ele>29.422109</ele>
        <time>2022-02-25T15:59:18.138Z</time>
      </trkpt>
      <trkpt lat="36.7925" lon="31.41707">
        <ele>25.570265</ele>
        <time>2022-02-25T15:59:44.068Z</time>
      </trkpt>
      <trkpt lat="36.79263" lon="31.41661">
        <ele>24.655411</ele>
        <time>2022-02-25T15:59:52.311Z</time>
      </trkpt>
      <trkpt lat="36.79264" lon="31.41644">
        <ele>24.507195</ele>
        <time>2022-02-25T15:59:55.200Z</time>
      </trkpt>
      <trkpt lat="36.79266" lon="31.41623">
        <ele>24.325206</ele>
        <time>2022-02-25T15:59:58.791Z</time>
      </trkpt>
      <trkpt lat="36.79271" lon="31.41587">
        <ele>24.014673</ele>
        <time>2022-02-25T16:00:05.185Z</time>
      </trkpt>
      <trkpt lat="36.79272" lon="31.41577">
        <ele>23.91815</ele>
        <time>2022-02-25T16:00:07.226Z</time>
      </trkpt>
      <trkpt lat="36.79282" lon="31.41524">
        <ele>23.447593</ele>
        <time>2022-02-25T16:00:17.452Z</time>
      </trkpt>
      <trkpt lat="36.79292" lon="31.41485">
        <ele>23.092905</ele>
        <time>2022-02-25T16:00:25.389Z</time>
      </trkpt>
      <trkpt lat="36.79306" lon="31.41439">
        <ele>22.731779</ele>
        <time>2022-02-25T16:00:35.914Z</time>
      </trkpt>
      <trkpt lat="36.79318" lon="31.41406">
        <ele>22.523374</ele>
        <time>2022-02-25T16:00:44.482Z</time>
      </trkpt>
      <trkpt lat="36.79337" lon="31.41361">
        <ele>22.232769</ele>
        <time>2022-02-25T16:00:55.470Z</time>
      </trkpt>
      <trkpt lat="36.79354" lon="31.41321">
        <ele>21.977365</ele>
        <time>2022-02-25T16:01:04.059Z</time>
      </trkpt>
      <trkpt lat="36.79412" lon="31.41219">
        <ele>21.018909</ele>
        <time>2022-02-25T16:01:25.652Z</time>
      </trkpt>
      <trkpt lat="36.79426" lon="31.41204">
        <ele>20.786627</ele>
        <time>2022-02-25T16:01:29.641Z</time>
      </trkpt>
      <trkpt lat="36.79437" lon="31.412">
        <ele>20.63806</ele>
        <time>2022-02-25T16:01:32.142Z</time>
      </trkpt>
      <trkpt lat="36.79452" lon="31.41181">
        <ele>20.353833</ele>
        <time>2022-02-25T16:01:37.126Z</time>
      </trkpt>
      <trkpt lat="36.79456" lon="31.41168">
        <ele>20.209665</ele>
        <time>2022-02-25T16:01:39.612Z</time>
      </trkpt>
      <trkpt lat="36.79465" lon="31.41144">
        <ele>19.937514</ele>
        <time>2022-02-25T16:01:44.482Z</time>
      </trkpt>
      <trkpt lat="36.79483" lon="31.41125">
        <ele>19.637052</ele>
        <time>2022-02-25T16:01:49.814Z</time>
      </trkpt>
      <trkpt lat="36.79505" lon="31.41101">
        <ele>19.260585</ele>
        <time>2022-02-25T16:01:56.628Z</time>
      </trkpt>
      <trkpt lat="36.79595" lon="31.41003">
        <ele>18.580048</ele>
        <time>2022-02-25T16:02:25.527Z</time>
      </trkpt>
      <trkpt lat="36.79628" lon="31.40999">
        <ele>18.392622</ele>
        <time>2022-02-25T16:02:34.669Z</time>
      </trkpt>
      <trkpt lat="36.7965" lon="31.41003">
        <ele>18.268645</ele>
        <time>2022-02-25T16:02:40.522Z</time>
      </trkpt>
      <trkpt lat="36.79646" lon="31.40978">
        <ele>18.189817</ele>
        <time>2022-02-25T16:02:45.651Z</time>
      </trkpt>
      <trkpt lat="36.7966" lon="31.40926">
        <ele>18.044707</ele>
        <time>2022-02-25T16:02:57.169Z</time>
      </trkpt>
      <trkpt lat="36.79733" lon="31.40827">
        <ele>17.692112</ele>
        <time>2022-02-25T16:03:25.127Z</time>
      </trkpt>
      <trkpt lat="36.79814" lon="31.40713">
        <ele>18.353719</ele>
        <time>2022-02-25T16:04:00.366Z</time>
      </trkpt>
      <trkpt lat="36.7987" lon="31.4061">
        <ele>19.390328</ele>
        <time>2022-02-25T16:04:34.677Z</time>
      </trkpt>
      <trkpt lat="36.79904" lon="31.40544">
        <ele>20.64374</ele>
        <time>2022-02-25T16:04:58.119Z</time>
      </trkpt>
      <trkpt lat="36.79936" lon="31.40471">
        <ele>21.966407</ele>
        <time>2022-02-25T16:05:24.068Z</time>
      </trkpt>
      <trkpt lat="36.80001" lon="31.40322">
        <ele>24.121412</ele>
        <time>2022-02-25T16:06:15.841Z</time>
      </trkpt>
      <trkpt lat="36.80027" lon="31.40264">
        <ele>24.916863</ele>
        <time>2022-02-25T16:06:33.610Z</time>
      </trkpt>
      <trkpt lat="36.80115" lon="31.40071">
        <ele>24.319746</ele>
        <time>2022-02-25T16:07:19.236Z</time>
      </trkpt>
      <trkpt lat="36.80118" lon="31.40063">
        <ele>24.288501</ele>
        <time>2022-02-25T16:07:20.731Z</time>
      </trkpt>
      <trkpt lat="36.80169" lon="31.3995">
        <ele>23.767876</ele>
        <time>2022-02-25T16:07:45.673Z</time>
      </trkpt>
      <trkpt lat="36.80262" lon="31.39742">
        <ele>23.820342</ele>
        <time>2022-02-25T16:08:39.096Z</time>
      </trkpt>
      <trkpt lat="36.80373" lon="31.39494">
        <ele>25.794504</ele>
        <time>2022-02-25T16:09:53.408Z</time>
      </trkpt>
      <trkpt lat="36.80463" lon="31.39283">
        <ele>27.969513</ele>
        <time>2022-02-25T16:10:58.851Z</time>
      </trkpt>
      <trkpt lat="36.80489" lon="31.39217">
        <ele>28.061432</ele>
        <time>2022-02-25T16:11:16.850Z</time>
      </trkpt>
      <trkpt lat="36.80508" lon="31.39171">
        <ele>28.004668</ele>
        <time>2022-02-25T16:11:27.895Z</time>
      </trkpt>
      <trkpt lat="36.80504" lon="31.39155">
        <ele>27.985665</ele>
        <time>2022-02-25T16:11:31.379Z</time>
      </trkpt>
      <trkpt lat="36.80521" lon="31.39147">
        <ele>27.960384</ele>
        <time>2022-02-25T16:11:36.232Z</time>
      </trkpt>
      <trkpt lat="36.80528" lon="31.39137">
        <ele>27.945778</ele>
        <time>2022-02-25T16:11:38.779Z</time>
      </trkpt>
      <trkpt lat="36.80544" lon="31.3908">
        <ele>27.879898</ele>
        <time>2022-02-25T16:11:50.089Z</time>
      </trkpt>
      <trkpt lat="36.80848" lon="31.38341">
        <ele>20.1052</ele>
        <time>2022-02-25T16:14:20.959Z</time>
      </trkpt>
      <trkpt lat="36.80873" lon="31.38282">
        <ele>19.473295</ele>
        <time>2022-02-25T16:14:33.125Z</time>
      </trkpt>
      <trkpt lat="36.80904" lon="31.38205">
        <ele>18.874359</ele>
        <time>2022-02-25T16:14:49.068Z</time>
      </trkpt>
      <trkpt lat="36.80907" lon="31.38196">
        <ele>18.812532</ele>
        <time>2022-02-25T16:14:50.773Z</time>
      </trkpt>
      <trkpt lat="36.80935" lon="31.38127">
        <ele>18.2814</ele>
        <time>2022-02-25T16:15:05.488Z</time>
      </trkpt>
      <trkpt lat="36.81133" lon="31.37635">
        <ele>15.811436</ele>
        <time>2022-02-25T16:16:54.067Z</time>
      </trkpt>
      <trkpt lat="36.81254" lon="31.37318">
        <ele>13.927968</ele>
        <time>2022-02-25T16:18:01.221Z</time>
      </trkpt>
      <trkpt lat="36.81377" lon="31.37014">
        <ele>12.990899</ele>
        <time>2022-02-25T16:19:09.235Z</time>
      </trkpt>
      <trkpt lat="36.81443" lon="31.36863">
        <ele>13.182488</ele>
        <time>2022-02-25T16:19:48.010Z</time>
      </trkpt>
      <trkpt lat="36.8145" lon="31.36856">
        <ele>13.235061</ele>
        <time>2022-02-25T16:19:50.976Z</time>
      </trkpt>
      <trkpt lat="36.81511" lon="31.36861">
        <ele>13.573514</ele>
        <time>2022-02-25T16:20:08.804Z</time>
      </trkpt>
      <trkpt lat="36.81531" lon="31.36864">
        <ele>13.683691</ele>
        <time>2022-02-25T16:20:14.588Z</time>
      </trkpt>
      <trkpt lat="36.81534" lon="31.36766">
        <ele>14.117397</ele>
        <time>2022-02-25T16:20:38.647Z</time>
      </trkpt>
      <trkpt lat="36.81475" lon="31.36761">
        <ele>14.383081</ele>
        <time>2022-02-25T16:20:56.886Z</time>
      </trkpt>
      <trkpt lat="36.81492" lon="31.36724">
        <ele>14.536841</ele>
        <time>2022-02-25T16:21:07.519Z</time>
      </trkpt>
      <trkpt lat="36.81521" lon="31.3667">
        <ele>14.768576</ele>
        <time>2022-02-25T16:21:23.098Z</time>
      </trkpt>
      <trkpt lat="36.81534" lon="31.36641">
        <ele>14.884502</ele>
        <time>2022-02-25T16:21:29.951Z</time>
      </trkpt>
      <trkpt lat="36.81541" lon="31.3662">
        <ele>14.83542</ele>
        <time>2022-02-25T16:21:34.773Z</time>
      </trkpt>
      <trkpt lat="36.81556" lon="31.36577">
        <ele>14.381974</ele>
        <time>2022-02-25T16:21:44.138Z</time>
      </trkpt>
      <trkpt lat="36.81571" lon="31.36528">
        <ele>13.873666</ele>
        <time>2022-02-25T16:21:53.909Z</time>
      </trkpt>
      <trkpt lat="36.81582" lon="31.36489">
        <ele>13.468293</ele>
        <time>2022-02-25T16:22:01.362Z</time>
      </trkpt>
      <trkpt lat="36.81614" lon="31.36373">
        <ele>11.888691</ele>
        <time>2022-02-25T16:22:21.867Z</time>
      </trkpt>
      <trkpt lat="36.81641" lon="31.36279">
        <ele>10.100442</ele>
        <time>2022-02-25T16:22:37.791Z</time>
      </trkpt>
      <trkpt lat="36.81675" lon="31.36165">
        <ele>8.49733</ele>
        <time>2022-02-25T16:22:58.741Z</time>
      </trkpt>
      <trkpt lat="36.81704" lon="31.36065">
        <ele>7.946023</ele>
        <time>2022-02-25T16:23:19.035Z</time>
      </trkpt>
      <trkpt lat="36.81755" lon="31.35888">
        <ele>8.039288</ele>
        <time>2022-02-25T16:24:01.861Z</time>
      </trkpt>
      <trkpt lat="36.81783" lon="31.35776">
        <ele>8.487209</ele>
        <time>2022-02-25T16:24:30.189Z</time>
      </trkpt>
      <trkpt lat="36.81793" lon="31.35725">
        <ele>8.463318</ele>
        <time>2022-02-25T16:24:42.572Z</time>
      </trkpt>
      <trkpt lat="36.81802" lon="31.35679">
        <ele>8.441844</ele>
        <time>2022-02-25T16:24:53.099Z</time>
      </trkpt>
      <trkpt lat="36.81819" lon="31.35569">
        <ele>8.39073</ele>
        <time>2022-02-25T16:25:16.031Z</time>
      </trkpt>
      <trkpt lat="36.81853" lon="31.35356">
        <ele>6.581727</ele>
        <time>2022-02-25T16:25:55.541Z</time>
      </trkpt>
      <trkpt lat="36.81864" lon="31.35288">
        <ele>6.178507</ele>
        <time>2022-02-25T16:26:08.033Z</time>
      </trkpt>
      <trkpt lat="36.81872" lon="31.35247">
        <ele>5.954276</ele>
        <time>2022-02-25T16:26:16.007Z</time>
      </trkpt>
      <trkpt lat="36.81893" lon="31.35164">
        <ele>5.494697</ele>
        <time>2022-02-25T16:26:33.085Z</time>
      </trkpt>
      <trkpt lat="36.81939" lon="31.35043">
        <ele>5.421495</ele>
        <time>2022-02-25T16:27:01.880Z</time>
      </trkpt>
      <trkpt lat="36.81983" lon="31.34956">
        <ele>5.556558</ele>
        <time>2022-02-25T16:27:24.924Z</time>
      </trkpt>
      <trkpt lat="36.82082" lon="31.34789">
        <ele>6.151151</ele>
        <time>2022-02-25T16:28:12.305Z</time>
      </trkpt>
      <trkpt lat="36.82176" lon="31.34626">
        <ele>7.275202</ele>
        <time>2022-02-25T16:28:59.096Z</time>
      </trkpt>
      <trkpt lat="36.82192" lon="31.34601">
        <ele>7.478688</ele>
        <time>2022-02-25T16:29:07.087Z</time>
      </trkpt>
      <trkpt lat="36.82331" lon="31.34378">
        <ele>10.507134</ele>
        <time>2022-02-25T16:30:24.187Z</time>
      </trkpt>
      <trkpt lat="36.82345" lon="31.34355">
        <ele>10.676217</ele>
        <time>2022-02-25T16:30:32.018Z</time>
      </trkpt>
      <trkpt lat="36.82364" lon="31.3432">
        <ele>10.926052</ele>
        <time>2022-02-25T16:30:43.137Z</time>
      </trkpt>
      <trkpt lat="36.82393" lon="31.34269">
        <ele>11.292575</ele>
        <time>2022-02-25T16:30:58.563Z</time>
      </trkpt>
      <trkpt lat="36.82551" lon="31.33996">
        <ele>11.284928</ele>
        <time>2022-02-25T16:32:07.373Z</time>
      </trkpt>
      <trkpt lat="36.82574" lon="31.33958">
        <ele>11.358617</ele>
        <time>2022-02-25T16:32:17.047Z</time>
      </trkpt>
      <trkpt lat="36.82762" lon="31.33637">
        <ele>12.773052</ele>
        <time>2022-02-25T16:33:50.233Z</time>
      </trkpt>
      <trkpt lat="36.82788" lon="31.33617">
        <ele>12.99075</ele>
        <time>2022-02-25T16:33:59.600Z</time>
      </trkpt>
      <trkpt lat="36.82916" lon="31.33401">
        <ele>14.89446</ele>
        <time>2022-02-25T16:35:07.079Z</time>
      </trkpt>
      <trkpt lat="36.82972" lon="31.33275">
        <ele>16.456697</ele>
        <time>2022-02-25T16:35:47.229Z</time>
      </trkpt>
      <trkpt lat="36.83016" lon="31.33207">
        <ele>17.861141</ele>
        <time>2022-02-25T16:36:13.309Z</time>
      </trkpt>
      <trkpt lat="36.83107" lon="31.33038">
        <ele>21.169315</ele>
        <time>2022-02-25T16:37:16.824Z</time>
      </trkpt>
      <trkpt lat="36.8312" lon="31.33025">
        <ele>21.521149</ele>
        <time>2022-02-25T16:37:22.870Z</time>
      </trkpt>
      <trkpt lat="36.83123" lon="31.33016">
        <ele>21.672001</ele>
        <time>2022-02-25T16:37:25.982Z</time>
      </trkpt>
      <trkpt lat="36.83182" lon="31.32898">
        <ele>23.690266</ele>
        <time>2022-02-25T16:38:05.361Z</time>
      </trkpt>
      <trkpt lat="36.83243" lon="31.32776">
        <ele>25.274788</ele>
        <time>2022-02-25T16:38:43.054Z</time>
      </trkpt>
      <trkpt lat="36.83247" lon="31.32763">
        <ele>25.4337</ele>
        <time>2022-02-25T16:38:46.834Z</time>
      </trkpt>
      <trkpt lat="36.83262" lon="31.32706">
        <ele>25.797896</ele>
        <time>2022-02-25T16:39:01.741Z</time>
      </trkpt>
      <trkpt lat="36.83287" lon="31.32631">
        <ele>26.177004</ele>
        <time>2022-02-25T16:39:21.500Z</time>
      </trkpt>
      <trkpt lat="36.83314" lon="31.32556">
        <ele>26.560937</ele>
        <time>2022-02-25T16:39:40.325Z</time>
      </trkpt>
      <trkpt lat="36.83354" lon="31.32448">
        <ele>26.359107</ele>
        <time>2022-02-25T16:40:04.669Z</time>
      </trkpt>
      <trkpt lat="36.83377" lon="31.32389">
        <ele>26.18965</ele>
        <time>2022-02-25T16:40:17.387Z</time>
      </trkpt>
      <trkpt lat="36.83435" lon="31.32239">
        <ele>26.000015</ele>
        <time>2022-02-25T16:40:50.743Z</time>
      </trkpt>
      <trkpt lat="36.83462" lon="31.32174">
        <ele>25.970146</ele>
        <time>2022-02-25T16:41:06.528Z</time>
      </trkpt>
      <trkpt lat="36.83589" lon="31.3189">
        <ele>27.389762</ele>
        <time>2022-02-25T16:42:23.595Z</time>
      </trkpt>
      <trkpt lat="36.83595" lon="31.31875">
        <ele>27.497576</ele>
        <time>2022-02-25T16:42:27.943Z</time>
      </trkpt>
      <trkpt lat="36.83628" lon="31.31788">
        <ele>28.101015</ele>
        <time>2022-02-25T16:42:51.169Z</time>
      </trkpt>
      <trkpt lat="36.83661" lon="31.31717">
        <ele>28.605837</ele>
        <time>2022-02-25T16:43:11.913Z</time>
      </trkpt>
      <trkpt lat="36.83669" lon="31.31698">
        <ele>28.728554</ele>
        <time>2022-02-25T16:43:17.398Z</time>
      </trkpt>
      <trkpt lat="36.83681" lon="31.3168">
        <ele>28.865933</ele>
        <time>2022-02-25T16:43:23.645Z</time>
      </trkpt>
      <trkpt lat="36.83702" lon="31.31652">
        <ele>29.086674</ele>
        <time>2022-02-25T16:43:33.513Z</time>
      </trkpt>
      <trkpt lat="36.83737" lon="31.31623">
        <ele>29.385144</ele>
        <time>2022-02-25T16:43:45.847Z</time>
      </trkpt>
      <trkpt lat="36.83774" lon="31.31593">
        <ele>29.707466</ele>
        <time>2022-02-25T16:43:58.462Z</time>
      </trkpt>
      <trkpt lat="36.83793" lon="31.3158">
        <ele>29.467403</ele>
        <time>2022-02-25T16:44:04.032Z</time>
      </trkpt>
      <trkpt lat="36.83808" lon="31.31565">
        <ele>29.210912</ele>
        <time>2022-02-25T16:44:09.492Z</time>
      </trkpt>
      <trkpt lat="36.83825" lon="31.31545">
        <ele>28.898055</ele>
        <time>2022-02-25T16:44:15.051Z</time>
      </trkpt>
      <trkpt lat="36.83836" lon="31.31531">
        <ele>28.692006</ele>
        <time>2022-02-25T16:44:19.017Z</time>
      </trkpt>
      <trkpt lat="36.83846" lon="31.31518">
        <ele>28.496172</ele>
        <time>2022-02-25T16:44:22.118Z</time>
      </trkpt>
      <trkpt lat="36.83859" lon="31.3149">
        <ele>28.148666</ele>
        <time>2022-02-25T16:44:27.850Z</time>
      </trkpt>
      <trkpt lat="36.8387" lon="31.31389">
        <ele>27.012704</ele>
        <time>2022-02-25T16:44:44.303Z</time>
      </trkpt>
      <trkpt lat="36.83872" lon="31.31338">
        <ele>26.381025</ele>
        <time>2022-02-25T16:44:52.409Z</time>
      </trkpt>
      <trkpt lat="36.83881" lon="31.31251">
        <ele>25.287026</ele>
        <time>2022-02-25T16:45:07.179Z</time>
      </trkpt>
      <trkpt lat="36.83904" lon="31.30982">
        <ele>25.099634</ele>
        <time>2022-02-25T16:46:07.785Z</time>
      </trkpt>
      <trkpt lat="36.84007" lon="31.30759">
        <ele>27.064411</ele>
        <time>2022-02-25T16:47:15.603Z</time>
      </trkpt>
      <trkpt lat="36.84332" lon="31.30059">
        <ele>26.593159</ele>
        <time>2022-02-25T16:50:03.261Z</time>
      </trkpt>
      <trkpt lat="36.84378" lon="31.2996">
        <ele>27.039702</ele>
        <time>2022-02-25T16:50:29.293Z</time>
      </trkpt>
      <trkpt lat="36.84423" lon="31.29934">
        <ele>27.663097</ele>
        <time>2022-02-25T16:50:44.810Z</time>
      </trkpt>
      <trkpt lat="36.8451" lon="31.29909">
        <ele>28.799521</ele>
        <time>2022-02-25T16:51:15.634Z</time>
      </trkpt>
      <trkpt lat="36.84595" lon="31.29893">
        <ele>30.645675</ele>
        <time>2022-02-25T16:51:47.466Z</time>
      </trkpt>
      <trkpt lat="36.84631" lon="31.29878">
        <ele>31.499053</ele>
        <time>2022-02-25T16:52:02.066Z</time>
      </trkpt>
      <trkpt lat="36.84663" lon="31.29852">
        <ele>32.3542</ele>
        <time>2022-02-25T16:52:17.046Z</time>
      </trkpt>
      <trkpt lat="36.84688" lon="31.29812">
        <ele>33.166467</ele>
        <time>2022-02-25T16:52:32.858Z</time>
      </trkpt>
      <trkpt lat="36.84746" lon="31.29706">
        <ele>34.732802</ele>
        <time>2022-02-25T16:53:10.014Z</time>
      </trkpt>
      <trkpt lat="36.84786" lon="31.29625">
        <ele>35.549165</ele>
        <time>2022-02-25T16:53:33.171Z</time>
      </trkpt>
      <trkpt lat="36.84818" lon="31.29544">
        <ele>34.939621</ele>
        <time>2022-02-25T16:53:51.278Z</time>
      </trkpt>
      <trkpt lat="36.84843" lon="31.29421">
        <ele>34.002317</ele>
        <time>2022-02-25T16:54:13.360Z</time>
      </trkpt>
      <trkpt lat="36.84897" lon="31.29091">
        <ele>28.883809</ele>
        <time>2022-02-25T16:55:10.423Z</time>
      </trkpt>
      <trkpt lat="36.8491" lon="31.29064">
        <ele>28.408984</ele>
        <time>2022-02-25T16:55:16.091Z</time>
      </trkpt>
      <trkpt lat="36.8493" lon="31.29046">
        <ele>27.945683</ele>
        <time>2022-02-25T16:55:21.222Z</time>
      </trkpt>
      <trkpt lat="36.84954" lon="31.29034">
        <ele>27.473953</ele>
        <time>2022-02-25T16:55:26.487Z</time>
      </trkpt>
      <trkpt lat="36.85003" lon="31.29019">
        <ele>26.847391</ele>
        <time>2022-02-25T16:55:37.495Z</time>
      </trkpt>
      <trkpt lat="36.85037" lon="31.29011">
        <ele>26.459156</ele>
        <time>2022-02-25T16:55:45.005Z</time>
      </trkpt>
      <trkpt lat="36.8507" lon="31.29004">
        <ele>26.082842</ele>
        <time>2022-02-25T16:55:52.417Z</time>
      </trkpt>
      <trkpt lat="36.85123" lon="31.28966">
        <ele>25.392582</ele>
        <time>2022-02-25T16:56:07.238Z</time>
      </trkpt>
      <trkpt lat="36.85172" lon="31.28894">
        <ele>26.980196</ele>
        <time>2022-02-25T16:56:27.572Z</time>
      </trkpt>
      <trkpt lat="36.85287" lon="31.28658">
        <ele>34.15818</ele>
        <time>2022-02-25T16:58:09.714Z</time>
      </trkpt>
      <trkpt lat="36.85296" lon="31.28635">
        <ele>34.951673</ele>
        <time>2022-02-25T16:58:19.897Z</time>
      </trkpt>
      <trkpt lat="36.85315" lon="31.28595">
        <ele>36.489554</ele>
        <time>2022-02-25T16:58:37.693Z</time>
      </trkpt>
      <trkpt lat="36.85337" lon="31.28574">
        <ele>37.305782</ele>
        <time>2022-02-25T16:58:49.968Z</time>
      </trkpt>
      <trkpt lat="36.85376" lon="31.2854">
        <ele>38.351124</ele>
        <time>2022-02-25T16:59:10.758Z</time>
      </trkpt>
      <trkpt lat="36.8553" lon="31.28415">
        <ele>40.972828</ele>
        <time>2022-02-25T17:00:10.910Z</time>
      </trkpt>
      <trkpt lat="36.8557" lon="31.28444">
        <ele>41.026686</ele>
        <time>2022-02-25T17:00:23.100Z</time>
      </trkpt>
      <trkpt lat="36.85554" lon="31.28408">
        <ele>41.065296</ele>
        <time>2022-02-25T17:00:31.552Z</time>
      </trkpt>
      <trkpt lat="36.85613" lon="31.28349">
        <ele>40.560636</ele>
        <time>2022-02-25T17:00:49.255Z</time>
      </trkpt>
      <trkpt lat="36.85701" lon="31.2826">
        <ele>39.097585</ele>
        <time>2022-02-25T17:01:14.301Z</time>
      </trkpt>
      <trkpt lat="36.86287" lon="31.27727">
        <ele>27.367171</ele>
        <time>2022-02-25T17:03:52.300Z</time>
      </trkpt>
      <trkpt lat="36.86357" lon="31.27654">
        <ele>25.901615</ele>
        <time>2022-02-25T17:04:11.552Z</time>
      </trkpt>
      <trkpt lat="36.86396" lon="31.27602">
        <ele>25.011051</ele>
        <time>2022-02-25T17:04:23.834Z</time>
      </trkpt>
      <trkpt lat="36.86436" lon="31.27535">
        <ele>24.080962</ele>
        <time>2022-02-25T17:04:39.125Z</time>
      </trkpt>
      <trkpt lat="36.86475" lon="31.27457">
        <ele>23.506471</ele>
        <time>2022-02-25T17:04:57.255Z</time>
      </trkpt>
      <trkpt lat="36.86502" lon="31.2739">
        <ele>23.039298</ele>
        <time>2022-02-25T17:05:12.014Z</time>
      </trkpt>
      <trkpt lat="36.86502" lon="31.27353">
        <ele>22.810317</ele>
        <time>2022-02-25T17:05:18.853Z</time>
      </trkpt>
      <trkpt lat="36.86521" lon="31.27289">
        <ele>21.979988</ele>
        <time>2022-02-25T17:05:31.234Z</time>
      </trkpt>
      <trkpt lat="36.86523" lon="31.27282">
        <ele>21.884002</ele>
        <time>2022-02-25T17:05:32.567Z</time>
      </trkpt>
      <trkpt lat="36.86527" lon="31.2727">
        <ele>21.728474</ele>
        <time>2022-02-25T17:05:34.883Z</time>
      </trkpt>
      <trkpt lat="36.86528" lon="31.27265">
        <ele>21.664629</ele>
        <time>2022-02-25T17:05:35.823Z</time>
      </trkpt>
      <trkpt lat="36.86534" lon="31.27234">
        <ele>21.272351</ele>
        <time>2022-02-25T17:05:41.347Z</time>
      </trkpt>
      <trkpt lat="36.86596" lon="31.26856">
        <ele>16.091205</ele>
        <time>2022-02-25T17:06:47.374Z</time>
      </trkpt>
      <trkpt lat="36.86625" lon="31.26749">
        <ele>14.769222</ele>
        <time>2022-02-25T17:07:07.492Z</time>
      </trkpt>
      <trkpt lat="36.86672" lon="31.26639">
        <ele>13.584417</ele>
        <time>2022-02-25T17:07:30.280Z</time>
      </trkpt>
      <trkpt lat="36.86736" lon="31.26534">
        <ele>12.530793</ele>
        <time>2022-02-25T17:07:54.645Z</time>
      </trkpt>
      <trkpt lat="36.86747" lon="31.2652">
        <ele>12.379019</ele>
        <time>2022-02-25T17:07:58.472Z</time>
      </trkpt>
      <trkpt lat="36.86785" lon="31.26475">
        <ele>12.263712</ele>
        <time>2022-02-25T17:08:11.064Z</time>
      </trkpt>
      <trkpt lat="36.86808" lon="31.26449">
        <ele>12.194251</ele>
        <time>2022-02-25T17:08:18.920Z</time>
      </trkpt>
      <trkpt lat="36.86855" lon="31.26407">
        <ele>12.067169</ele>
        <time>2022-02-25T17:08:33.910Z</time>
      </trkpt>
      <trkpt lat="36.86911" lon="31.26367">
        <ele>12.169477</ele>
        <time>2022-02-25T17:08:52.187Z</time>
      </trkpt>
      <trkpt lat="36.86939" lon="31.26349">
        <ele>12.386099</ele>
        <time>2022-02-25T17:09:01.531Z</time>
      </trkpt>
      <trkpt lat="36.86987" lon="31.26361">
        <ele>12.725113</ele>
        <time>2022-02-25T17:09:20.506Z</time>
      </trkpt>
      <trkpt lat="36.87087" lon="31.26325">
        <ele>13.568916</ele>
        <time>2022-02-25T17:10:01.599Z</time>
      </trkpt>
      <trkpt lat="36.87114" lon="31.26278">
        <ele>14.067533</ele>
        <time>2022-02-25T17:10:16.233Z</time>
      </trkpt>
      <trkpt lat="36.87248" lon="31.26206">
        <ele>15.769889</ele>
        <time>2022-02-25T17:11:05.213Z</time>
      </trkpt>
      <trkpt lat="36.87274" lon="31.26198">
        <ele>16.135322</ele>
        <time>2022-02-25T17:11:14.827Z</time>
      </trkpt>
      <trkpt lat="36.87269" lon="31.26182">
        <ele>16.325529</ele>
        <time>2022-02-25T17:11:19.011Z</time>
      </trkpt>
      <trkpt lat="36.87319" lon="31.26152">
        <ele>17.09185</ele>
        <time>2022-02-25T17:11:38.414Z</time>
      </trkpt>
      <trkpt lat="36.87452" lon="31.2607">
        <ele>18.504437</ele>
        <time>2022-02-25T17:12:27.006Z</time>
      </trkpt>
      <trkpt lat="36.87769" lon="31.25847">
        <ele>19.296391</ele>
        <time>2022-02-25T17:14:05.590Z</time>
      </trkpt>
      <trkpt lat="36.88104" lon="31.2561">
        <ele>19.117807</ele>
        <time>2022-02-25T17:15:46.131Z</time>
      </trkpt>
      <trkpt lat="36.88175" lon="31.25561">
        <ele>19.449914</ele>
        <time>2022-02-25T17:16:09.136Z</time>
      </trkpt>
      <trkpt lat="36.88948" lon="31.25105">
        <ele>26.871399</ele>
        <time>2022-02-25T17:20:33.895Z</time>
      </trkpt>
      <trkpt lat="36.8897" lon="31.25089">
        <ele>27.177035</ele>
        <time>2022-02-25T17:20:42.005Z</time>
      </trkpt>
      <trkpt lat="36.89008" lon="31.25057">
        <ele>27.807235</ele>
        <time>2022-02-25T17:20:56.882Z</time>
      </trkpt>
      <trkpt lat="36.8907" lon="31.24991">
        <ele>28.911504</ele>
        <time>2022-02-25T17:21:24.662Z</time>
      </trkpt>
      <trkpt lat="36.89102" lon="31.24948">
        <ele>29.495773</ele>
        <time>2022-02-25T17:21:40.391Z</time>
      </trkpt>
      <trkpt lat="36.89131" lon="31.24903">
        <ele>29.978336</ele>
        <time>2022-02-25T17:21:55.826Z</time>
      </trkpt>
      <trkpt lat="36.89151" lon="31.24864">
        <ele>30.369665</ele>
        <time>2022-02-25T17:22:08.062Z</time>
      </trkpt>
      <trkpt lat="36.89173" lon="31.24813">
        <ele>30.846056</ele>
        <time>2022-02-25T17:22:22.457Z</time>
      </trkpt>
      <trkpt lat="36.89199" lon="31.24735">
        <ele>31.141441</ele>
        <time>2022-02-25T17:22:42.744Z</time>
      </trkpt>
      <trkpt lat="36.89292" lon="31.24402">
        <ele>30.150892</ele>
        <time>2022-02-25T17:23:51.235Z</time>
      </trkpt>
      <trkpt lat="36.89308" lon="31.24329">
        <ele>30.040899</ele>
        <time>2022-02-25T17:24:07.170Z</time>
      </trkpt>
      <trkpt lat="36.89318" lon="31.24254">
        <ele>30.411806</ele>
        <time>2022-02-25T17:24:24.695Z</time>
      </trkpt>
      <trkpt lat="36.8932" lon="31.24169">
        <ele>30.829357</ele>
        <time>2022-02-25T17:24:46.558Z</time>
      </trkpt>
      <trkpt lat="36.89314" lon="31.24091">
        <ele>30.701123</ele>
        <time>2022-02-25T17:25:06.995Z</time>
      </trkpt>
      <trkpt lat="36.89301" lon="31.24011">
        <ele>29.765982</ele>
        <time>2022-02-25T17:25:21.905Z</time>
      </trkpt>
      <trkpt lat="36.8929" lon="31.23961">
        <ele>29.174202</ele>
        <time>2022-02-25T17:25:30.856Z</time>
      </trkpt>
      <trkpt lat="36.89288" lon="31.23928">
        <ele>28.798602</ele>
        <time>2022-02-25T17:25:35.947Z</time>
      </trkpt>
      <trkpt lat="36.89299" lon="31.23905">
        <ele>28.482208</ele>
        <time>2022-02-25T17:25:40.648Z</time>
      </trkpt>
      <trkpt lat="36.89305" lon="31.23901">
        <ele>28.251683</ele>
        <time>2022-02-25T17:25:41.900Z</time>
      </trkpt>
      <trkpt lat="36.89311" lon="31.23898">
        <ele>28.055908</ele>
        <time>2022-02-25T17:25:42.880Z</time>
      </trkpt>
      <trkpt lat="36.89439" lon="31.23847">
        <ele>23.468903</ele>
        <time>2022-02-25T17:26:08.669Z</time>
      </trkpt>
      <trkpt lat="36.89437" lon="31.23833">
        <ele>23.103742</ele>
        <time>2022-02-25T17:26:10.653Z</time>
      </trkpt>
      <trkpt lat="36.89435" lon="31.23707">
        <ele>21.175874</ele>
        <time>2022-02-25T17:26:33.065Z</time>
      </trkpt>
      <trkpt lat="36.89438" lon="31.23692">
        <ele>20.986992</ele>
        <time>2022-02-25T17:26:36.005Z</time>
      </trkpt>
      <trkpt lat="36.89464" lon="31.23656">
        <ele>20.397533</ele>
        <time>2022-02-25T17:26:45.508Z</time>
      </trkpt>
      <trkpt lat="36.89479" lon="31.23569">
        <ele>19.560978</ele>
        <time>2022-02-25T17:27:03.519Z</time>
      </trkpt>
      <trkpt lat="36.89473" lon="31.23509">
        <ele>19.33179</ele>
        <time>2022-02-25T17:27:15.906Z</time>
      </trkpt>
      <trkpt lat="36.89464" lon="31.23468">
        <ele>19.167388</ele>
        <time>2022-02-25T17:27:24.850Z</time>
      </trkpt>
      <trkpt lat="36.89464" lon="31.23432">
        <ele>19.034431</ele>
        <time>2022-02-25T17:27:32.130Z</time>
      </trkpt>
      <trkpt lat="36.89481" lon="31.23354">
        <ele>18.757112</ele>
        <time>2022-02-25T17:27:49.286Z</time>
      </trkpt>
      <trkpt lat="36.89501" lon="31.23296">
        <ele>18.606034</ele>
        <time>2022-02-25T17:28:02.492Z</time>
      </trkpt>
      <trkpt lat="36.89499" lon="31.23276">
        <ele>18.555019</ele>
        <time>2022-02-25T17:28:06.933Z</time>
      </trkpt>
      <trkpt lat="36.89446" lon="31.23177">
        <ele>18.266646</ele>
        <time>2022-02-25T17:28:32.179Z</time>
      </trkpt>
      <trkpt lat="36.89395" lon="31.23093">
        <ele>17.977191</ele>
        <time>2022-02-25T17:28:54.485Z</time>
      </trkpt>
      <trkpt lat="36.89371" lon="31.23017">
        <ele>17.751809</ele>
        <time>2022-02-25T17:29:11.705Z</time>
      </trkpt>
      <trkpt lat="36.89313" lon="31.2294">
        <ele>17.438961</ele>
        <time>2022-02-25T17:29:33.820Z</time>
      </trkpt>
      <trkpt lat="36.89274" lon="31.22865">
        <ele>17.163242</ele>
        <time>2022-02-25T17:29:52.717Z</time>
      </trkpt>
      <trkpt lat="36.89269" lon="31.2284">
        <ele>17.087542</ele>
        <time>2022-02-25T17:29:57.881Z</time>
      </trkpt>
      <trkpt lat="36.89273" lon="31.22788">
        <ele>16.934659</ele>
        <time>2022-02-25T17:30:08.847Z</time>
      </trkpt>
      <trkpt lat="36.89263" lon="31.22678">
        <ele>16.661204</ele>
        <time>2022-02-25T17:30:32.220Z</time>
      </trkpt>
      <trkpt lat="36.89266" lon="31.22656">
        <ele>16.605028</ele>
        <time>2022-02-25T17:30:36.990Z</time>
      </trkpt>
      <trkpt lat="36.89278" lon="31.22621">
        <ele>16.511108</ele>
        <time>2022-02-25T17:30:45.032Z</time>
      </trkpt>
      <trkpt lat="36.89297" lon="31.22604">
        <ele>16.439624</ele>
        <time>2022-02-25T17:30:51.228Z</time>
      </trkpt>
      <trkpt lat="36.89357" lon="31.2258">
        <ele>16.235244</ele>
        <time>2022-02-25T17:31:08.159Z</time>
      </trkpt>
      <trkpt lat="36.8938" lon="31.22566">
        <ele>16.15137</ele>
        <time>2022-02-25T17:31:14.954Z</time>
      </trkpt>
      <trkpt lat="36.89389" lon="31.22538">
        <ele>16.072593</ele>
        <time>2022-02-25T17:31:21.272Z</time>
      </trkpt>
      <trkpt lat="36.89402" lon="31.22496">
        <ele>15.953765</ele>
        <time>2022-02-25T17:31:30.789Z</time>
      </trkpt>
      <trkpt lat="36.89405" lon="31.22485">
        <ele>15.921745</ele>
        <time>2022-02-25T17:31:33.418Z</time>
      </trkpt>
      <trkpt lat="36.89427" lon="31.22383">
        <ele>15.524184</ele>
        <time>2022-02-25T17:31:55.050Z</time>
      </trkpt>
      <trkpt lat="36.89441" lon="31.2206">
        <ele>14.386792</ele>
        <time>2022-02-25T17:33:00.827Z</time>
      </trkpt>
      <trkpt lat="36.89453" lon="31.22041">
        <ele>14.324586</ele>
        <time>2022-02-25T17:33:06.267Z</time>
      </trkpt>
      <trkpt lat="36.89474" lon="31.2202">
        <ele>14.236534</ele>
        <time>2022-02-25T17:33:14.024Z</time>
      </trkpt>
      <trkpt lat="36.89463" lon="31.22013">
        <ele>14.330719</ele>
        <time>2022-02-25T17:33:17.809Z</time>
      </trkpt>
      <trkpt lat="36.89458" lon="31.22005">
        <ele>14.408386</ele>
        <time>2022-02-25T17:33:20.150Z</time>
      </trkpt>
      <trkpt lat="36.89454" lon="31.21973">
        <ele>14.662741</ele>
        <time>2022-02-25T17:33:28.109Z</time>
      </trkpt>
      <trkpt lat="36.89451" lon="31.21926">
        <ele>15.03627</ele>
        <time>2022-02-25T17:33:40.328Z</time>
      </trkpt>
      <trkpt lat="36.89422" lon="31.21826">
        <ele>15.864117</ele>
        <time>2022-02-25T17:34:09.034Z</time>
      </trkpt>
      <trkpt lat="36.8942" lon="31.21797">
        <ele>16.056135</ele>
        <time>2022-02-25T17:34:17.068Z</time>
      </trkpt>
      <trkpt lat="36.89429" lon="31.21723">
        <ele>16.430512</ele>
        <time>2022-02-25T17:34:38.042Z</time>
      </trkpt>
      <trkpt lat="36.89457" lon="31.2166">
        <ele>16.789455</ele>
        <time>2022-02-25T17:34:55.461Z</time>
      </trkpt>
      <trkpt lat="36.89466" lon="31.21615">
        <ele>17.021383</ele>
        <time>2022-02-25T17:35:05.799Z</time>
      </trkpt>
      <trkpt lat="36.89467" lon="31.21598">
        <ele>17.10702</ele>
        <time>2022-02-25T17:35:09.424Z</time>
      </trkpt>
      <trkpt lat="36.89482" lon="31.21573">
        <ele>16.876628</ele>
        <time>2022-02-25T17:35:15.729Z</time>
      </trkpt>
      <trkpt lat="36.89503" lon="31.21538">
        <ele>16.523791</ele>
        <time>2022-02-25T17:35:24.263Z</time>
      </trkpt>
      <trkpt lat="36.89514" lon="31.2152">
        <ele>16.346714</ele>
        <time>2022-02-25T17:35:28.247Z</time>
      </trkpt>
      <trkpt lat="36.89617" lon="31.21349">
        <ele>14.531305</ele>
        <time>2022-02-25T17:36:06.419Z</time>
      </trkpt>
      <trkpt lat="36.89705" lon="31.21214">
        <ele>13.013658</ele>
        <time>2022-02-25T17:36:38.657Z</time>
      </trkpt>
      <trkpt lat="36.89724" lon="31.21187">
        <ele>12.783243</ele>
        <time>2022-02-25T17:36:45.313Z</time>
      </trkpt>
      <trkpt lat="36.89871" lon="31.20965">
        <ele>11.238245</ele>
        <time>2022-02-25T17:37:40.415Z</time>
      </trkpt>
      <trkpt lat="36.89886" lon="31.20938">
        <ele>11.102504</ele>
        <time>2022-02-25T17:37:47.033Z</time>
      </trkpt>
      <trkpt lat="36.89892" lon="31.20928">
        <ele>11.049617</ele>
        <time>2022-02-25T17:37:49.774Z</time>
      </trkpt>
      <trkpt lat="36.89905" lon="31.20902">
        <ele>10.926512</ele>
        <time>2022-02-25T17:37:55.833Z</time>
      </trkpt>
      <trkpt lat="36.89907" lon="31.20899">
        <ele>10.909737</ele>
        <time>2022-02-25T17:37:56.743Z</time>
      </trkpt>
      <trkpt lat="36.89921" lon="31.20868">
        <ele>10.872261</ele>
        <time>2022-02-25T17:38:04.218Z</time>
      </trkpt>
      <trkpt lat="36.89941" lon="31.20813">
        <ele>10.895444</ele>
        <time>2022-02-25T17:38:17.297Z</time>
      </trkpt>
      <trkpt lat="36.89972" lon="31.20728">
        <ele>10.931579</ele>
        <time>2022-02-25T17:38:38.141Z</time>
      </trkpt>
      <trkpt lat="36.9" lon="31.20655">
        <ele>10.877596</ele>
        <time>2022-02-25T17:38:55.330Z</time>
      </trkpt>
      <trkpt lat="36.90018" lon="31.20614">
        <ele>10.77971</ele>
        <time>2022-02-25T17:39:05.039Z</time>
      </trkpt>
      <trkpt lat="36.90061" lon="31.20509">
        <ele>10.532501</ele>
        <time>2022-02-25T17:39:29.058Z</time>
      </trkpt>
      <trkpt lat="36.90167" lon="31.20257">
        <ele>9.579209</ele>
        <time>2022-02-25T17:40:25.226Z</time>
      </trkpt>
      <trkpt lat="36.90195" lon="31.20186">
        <ele>9.414551</ele>
        <time>2022-02-25T17:40:41.137Z</time>
      </trkpt>
      <trkpt lat="36.90208" lon="31.20149">
        <ele>9.329543</ele>
        <time>2022-02-25T17:40:49.454Z</time>
      </trkpt>
      <trkpt lat="36.90298" lon="31.19899">
        <ele>9.11417</ele>
        <time>2022-02-25T17:41:47.163Z</time>
      </trkpt>
      <trkpt lat="36.90347" lon="31.19775">
        <ele>9.101444</ele>
        <time>2022-02-25T17:42:17.045Z</time>
      </trkpt>
      <trkpt lat="36.90421" lon="31.19609">
        <ele>9.01226</ele>
        <time>2022-02-25T17:42:57.469Z</time>
      </trkpt>
      <trkpt lat="36.9052" lon="31.19399">
        <ele>8.75322</ele>
        <time>2022-02-25T17:43:47.757Z</time>
      </trkpt>
      <trkpt lat="36.90555" lon="31.19323">
        <ele>8.655591</ele>
        <time>2022-02-25T17:44:05.990Z</time>
      </trkpt>
      <trkpt lat="36.90565" lon="31.19299">
        <ele>8.62507</ele>
        <time>2022-02-25T17:44:11.764Z</time>
      </trkpt>
      <trkpt lat="36.90626" lon="31.19136">
        <ele>8.665003</ele>
        <time>2022-02-25T17:44:50.280Z</time>
      </trkpt>
      <trkpt lat="36.90653" lon="31.19048">
        <ele>8.761951</ele>
        <time>2022-02-25T17:45:10.909Z</time>
      </trkpt>
      <trkpt lat="36.90724" lon="31.18766">
        <ele>9.561899</ele>
        <time>2022-02-25T17:46:17.430Z</time>
      </trkpt>
      <trkpt lat="36.9094" lon="31.1791">
        <ele>13.167905</ele>
        <time>2022-02-25T17:49:46.570Z</time>
      </trkpt>
      <trkpt lat="36.90994" lon="31.17695">
        <ele>14.085294</ele>
        <time>2022-02-25T17:50:40.520Z</time>
      </trkpt>
      <trkpt lat="36.91038" lon="31.17552">
        <ele>14.435765</ele>
        <time>2022-02-25T17:51:14.407Z</time>
      </trkpt>
      <trkpt lat="36.91045" lon="31.17521">
        <ele>14.400593</ele>
        <time>2022-02-25T17:51:21.109Z</time>
      </trkpt>
      <trkpt lat="36.91053" lon="31.17488">
        <ele>14.362699</ele>
        <time>2022-02-25T17:51:28.205Z</time>
      </trkpt>
      <trkpt lat="36.91062" lon="31.17448">
        <ele>14.316743</ele>
        <time>2022-02-25T17:51:36.786Z</time>
      </trkpt>
      <trkpt lat="36.91087" lon="31.17326">
        <ele>14.188428</ele>
        <time>2022-02-25T17:52:02.350Z</time>
      </trkpt>
      <trkpt lat="36.91209" lon="31.16844">
        <ele>13.8631</ele>
        <time>2022-02-25T17:53:49.259Z</time>
      </trkpt>
      <trkpt lat="36.91218" lon="31.16792">
        <ele>13.822085</ele>
        <time>2022-02-25T17:54:00.488Z</time>
      </trkpt>
      <trkpt lat="36.91221" lon="31.16725">
        <ele>13.771212</ele>
        <time>2022-02-25T17:54:14.246Z</time>
      </trkpt>
      <trkpt lat="36.91219" lon="31.16675">
        <ele>13.649099</ele>
        <time>2022-02-25T17:54:24.373Z</time>
      </trkpt>
      <trkpt lat="36.91213" lon="31.16634">
        <ele>13.540773</ele>
        <time>2022-02-25T17:54:32.920Z</time>
      </trkpt>
      <trkpt lat="36.91195" lon="31.16559">
        <ele>13.338986</ele>
        <time>2022-02-25T17:54:48.815Z</time>
      </trkpt>
      <trkpt lat="36.91169" lon="31.16494">
        <ele>13.176185</ele>
        <time>2022-02-25T17:55:03.241Z</time>
      </trkpt>
      <trkpt lat="36.91036" lon="31.1626">
        <ele>12.75168</ele>
        <time>2022-02-25T17:56:03.357Z</time>
      </trkpt>
      <trkpt lat="36.91003" lon="31.16186">
        <ele>12.5361</ele>
        <time>2022-02-25T17:56:20.666Z</time>
      </trkpt>
      <trkpt lat="36.90995" lon="31.16159">
        <ele>12.461484</ele>
        <time>2022-02-25T17:56:26.661Z</time>
      </trkpt>
      <trkpt lat="36.90988" lon="31.16132">
        <ele>12.38742</ele>
        <time>2022-02-25T17:56:32.102Z</time>
      </trkpt>
      <trkpt lat="36.9098" lon="31.16058">
        <ele>11.862909</ele>
        <time>2022-02-25T17:56:46.080Z</time>
      </trkpt>
      <trkpt lat="36.90984" lon="31.15984">
        <ele>11.305896</ele>
        <time>2022-02-25T17:56:59.594Z</time>
      </trkpt>
      <trkpt lat="36.9099" lon="31.1595">
        <ele>11.042337</ele>
        <time>2022-02-25T17:57:05.634Z</time>
      </trkpt>
      <trkpt lat="36.9103" lon="31.15764">
        <ele>10.59411</ele>
        <time>2022-02-25T17:57:43.650Z</time>
      </trkpt>
      <trkpt lat="36.91061" lon="31.15627">
        <ele>10.89597</ele>
        <time>2022-02-25T17:58:17.917Z</time>
      </trkpt>
      <trkpt lat="36.91072" lon="31.15582">
        <ele>11.166986</ele>
        <time>2022-02-25T17:58:30.134Z</time>
      </trkpt>
      <trkpt lat="36.91102" lon="31.15441">
        <ele>11.804396</ele>
        <time>2022-02-25T17:59:05.033Z</time>
      </trkpt>
      <trkpt lat="36.91148" lon="31.1524">
        <ele>11.637982</ele>
        <time>2022-02-25T17:59:47.710Z</time>
      </trkpt>
      <trkpt lat="36.91219" lon="31.14934">
        <ele>10.649144</ele>
        <time>2022-02-25T18:00:50.972Z</time>
      </trkpt>
      <trkpt lat="36.91325" lon="31.14503">
        <ele>10.011379</ele>
        <time>2022-02-25T18:02:24.617Z</time>
      </trkpt>
      <trkpt lat="36.91355" lon="31.14382">
        <ele>9.895761</ele>
        <time>2022-02-25T18:02:51.346Z</time>
      </trkpt>
      <trkpt lat="36.91359" lon="31.14365">
        <ele>9.897418</ele>
        <time>2022-02-25T18:02:55.055Z</time>
      </trkpt>
      <trkpt lat="36.91437" lon="31.1404">
        <ele>9.984357</ele>
        <time>2022-02-25T18:04:08.118Z</time>
      </trkpt>
      <trkpt lat="36.91515" lon="31.13718">
        <ele>10.099443</ele>
        <time>2022-02-25T18:05:20.233Z</time>
      </trkpt>
      <trkpt lat="36.91541" lon="31.1359">
        <ele>10.156998</ele>
        <time>2022-02-25T18:05:48.481Z</time>
      </trkpt>
      <trkpt lat="36.91556" lon="31.13426">
        <ele>10.550891</ele>
        <time>2022-02-25T18:06:24.505Z</time>
      </trkpt>
      <trkpt lat="36.9155" lon="31.1324">
        <ele>11.979667</ele>
        <time>2022-02-25T18:07:09.479Z</time>
      </trkpt>
      <trkpt lat="36.91546" lon="31.13189">
        <ele>12.779485</ele>
        <time>2022-02-25T18:07:23.290Z</time>
      </trkpt>
      <trkpt lat="36.91529" lon="31.13026">
        <ele>16.257764</ele>
        <time>2022-02-25T18:08:16.099Z</time>
      </trkpt>
      <trkpt lat="36.91497" lon="31.12715">
        <ele>26.065059</ele>
        <time>2022-02-25T18:10:17.830Z</time>
      </trkpt>
      <trkpt lat="36.91478" lon="31.1254">
        <ele>29.359872</ele>
        <time>2022-02-25T18:11:10.860Z</time>
      </trkpt>
      <trkpt lat="36.91474" lon="31.125">
        <ele>29.717189</ele>
        <time>2022-02-25T18:11:20.087Z</time>
      </trkpt>
      <trkpt lat="36.91459" lon="31.12315">
        <ele>30.759748</ele>
        <time>2022-02-25T18:12:01.141Z</time>
      </trkpt>
      <trkpt lat="36.91457" lon="31.12298">
        <ele>30.7992</ele>
        <time>2022-02-25T18:12:04.890Z</time>
      </trkpt>
      <trkpt lat="36.91456" lon="31.12286">
        <ele>30.828097</ele>
        <time>2022-02-25T18:12:07.779Z</time>
      </trkpt>
      <trkpt lat="36.91534" lon="31.12203">
        <ele>31.112278</ele>
        <time>2022-02-25T18:12:37.569Z</time>
      </trkpt>
      <trkpt lat="36.91637" lon="31.12088">
        <ele>31.447337</ele>
        <time>2022-02-25T18:13:15.823Z</time>
      </trkpt>
      <trkpt lat="36.91636" lon="31.12076">
        <ele>31.470863</ele>
        <time>2022-02-25T18:13:18.355Z</time>
      </trkpt>
      <trkpt lat="36.91627" lon="31.12002">
        <ele>31.788503</ele>
        <time>2022-02-25T18:13:35.072Z</time>
      </trkpt>
      <trkpt lat="36.91615" lon="31.11892">
        <ele>32.304372</ele>
        <time>2022-02-25T18:14:02.015Z</time>
      </trkpt>
      <trkpt lat="36.91614" lon="31.11855">
        <ele>32.481315</ele>
        <time>2022-02-25T18:14:11.891Z</time>
      </trkpt>
      <trkpt lat="36.91611" lon="31.11727">
        <ele>34.120452</ele>
        <time>2022-02-25T18:14:47.114Z</time>
      </trkpt>
      <trkpt lat="36.91611" lon="31.11721">
        <ele>34.206273</ele>
        <time>2022-02-25T18:14:49.103Z</time>
      </trkpt>
      <trkpt lat="36.91591" lon="31.11552">
        <ele>36.41187</ele>
        <time>2022-02-25T18:15:41.263Z</time>
      </trkpt>
      <trkpt lat="36.91578" lon="31.11436">
        <ele>37.758488</ele>
        <time>2022-02-25T18:16:13.777Z</time>
      </trkpt>
      <trkpt lat="36.91567" lon="31.11332">
        <ele>37.973656</ele>
        <time>2022-02-25T18:16:39.437Z</time>
      </trkpt>
      <trkpt lat="36.91564" lon="31.11305">
        <ele>37.857606</ele>
        <time>2022-02-25T18:16:45.227Z</time>
      </trkpt>
      <trkpt lat="36.91567" lon="31.11288">
        <ele>37.783934</ele>
        <time>2022-02-25T18:16:48.678Z</time>
      </trkpt>
      <trkpt lat="36.91528" lon="31.11261">
        <ele>37.54191</ele>
        <time>2022-02-25T18:16:59.466Z</time>
      </trkpt>
      <trkpt lat="36.91516" lon="31.11239">
        <ele>37.426682</ele>
        <time>2022-02-25T18:17:04.438Z</time>
      </trkpt>
      <trkpt lat="36.91498" lon="31.11208">
        <ele>37.251486</ele>
        <time>2022-02-25T18:17:11.529Z</time>
      </trkpt>
      <trkpt lat="36.91492" lon="31.11198">
        <ele>37.13549</ele>
        <time>2022-02-25T18:17:13.922Z</time>
      </trkpt>
      <trkpt lat="36.91449" lon="31.1113">
        <ele>36.371851</ele>
        <time>2022-02-25T18:17:29.891Z</time>
      </trkpt>
      <trkpt lat="36.91454" lon="31.11076">
        <ele>35.89155</ele>
        <time>2022-02-25T18:17:40.165Z</time>
      </trkpt>
      <trkpt lat="36.91456" lon="31.11059">
        <ele>35.742804</ele>
        <time>2022-02-25T18:17:43.510Z</time>
      </trkpt>
      <trkpt lat="36.91461" lon="31.11017">
        <ele>35.363087</ele>
        <time>2022-02-25T18:17:52.013Z</time>
      </trkpt>
      <trkpt lat="36.91475" lon="31.10957">
        <ele>35.054196</ele>
        <time>2022-02-25T18:18:05.045Z</time>
      </trkpt>
      <trkpt lat="36.91481" lon="31.10932">
        <ele>34.944645</ele>
        <time>2022-02-25T18:18:10.480Z</time>
      </trkpt>
      <trkpt lat="36.91498" lon="31.109">
        <ele>34.777699</ele>
        <time>2022-02-25T18:18:18.635Z</time>
      </trkpt>
      <trkpt lat="36.9151" lon="31.10874">
        <ele>34.64844</ele>
        <time>2022-02-25T18:18:24.897Z</time>
      </trkpt>
      <trkpt lat="36.91527" lon="31.10838">
        <ele>34.464496</ele>
        <time>2022-02-25T18:18:33.546Z</time>
      </trkpt>
      <trkpt lat="36.91533" lon="31.10819">
        <ele>34.379506</ele>
        <time>2022-02-25T18:18:37.407Z</time>
      </trkpt>
      <trkpt lat="36.91544" lon="31.10783">
        <ele>34.101636</ele>
        <time>2022-02-25T18:18:45.087Z</time>
      </trkpt>
      <trkpt lat="36.9155" lon="31.10755">
        <ele>33.843816</ele>
        <time>2022-02-25T18:18:50.852Z</time>
      </trkpt>
      <trkpt lat="36.91554" lon="31.1074">
        <ele>33.695885</ele>
        <time>2022-02-25T18:18:54.052Z</time>
      </trkpt>
      <trkpt lat="36.91573" lon="31.10678">
        <ele>33.10824</ele>
        <time>2022-02-25T18:19:06.665Z</time>
      </trkpt>
      <trkpt lat="36.91563" lon="31.10657">
        <ele>32.88821</ele>
        <time>2022-02-25T18:19:11.249Z</time>
      </trkpt>
      <trkpt lat="36.91549" lon="31.10539">
        <ele>31.808371</ele>
        <time>2022-02-25T18:19:33.561Z</time>
      </trkpt>
      <trkpt lat="36.91544" lon="31.10511">
        <ele>31.548256</ele>
        <time>2022-02-25T18:19:38.885Z</time>
      </trkpt>
      <trkpt lat="36.91541" lon="31.10503">
        <ele>31.4709</ele>
        <time>2022-02-25T18:19:40.545Z</time>
      </trkpt>
      <trkpt lat="36.91539" lon="31.10494">
        <ele>31.37977</ele>
        <time>2022-02-25T18:19:42.426Z</time>
      </trkpt>
      <trkpt lat="36.91534" lon="31.10464">
        <ele>31.096649</ele>
        <time>2022-02-25T18:19:48.341Z</time>
      </trkpt>
      <trkpt lat="36.91526" lon="31.10427">
        <ele>30.751357</ele>
        <time>2022-02-25T18:19:55.639Z</time>
      </trkpt>
      <trkpt lat="36.91512" lon="31.10358">
        <ele>30.083089</ele>
        <time>2022-02-25T18:20:09.417Z</time>
      </trkpt>
      <trkpt lat="36.91461" lon="31.10369">
        <ele>29.443526</ele>
        <time>2022-02-25T18:20:21.894Z</time>
      </trkpt>
      <trkpt lat="36.91453" lon="31.1031">
        <ele>28.855112</ele>
        <time>2022-02-25T18:20:33.169Z</time>
      </trkpt>
      <trkpt lat="36.91442" lon="31.10234">
        <ele>28.085465</ele>
        <time>2022-02-25T18:20:47.734Z</time>
      </trkpt>
      <trkpt lat="36.91437" lon="31.10131">
        <ele>27.225924</ele>
        <time>2022-02-25T18:21:06.729Z</time>
      </trkpt>
      <trkpt lat="36.91436" lon="31.10101">
        <ele>26.981594</ele>
        <time>2022-02-25T18:21:12.495Z</time>
      </trkpt>
      <trkpt lat="36.91432" lon="31.10057">
        <ele>26.61143</ele>
        <time>2022-02-25T18:21:21.225Z</time>
      </trkpt>
      <trkpt lat="36.91428" lon="31.10047">
        <ele>26.521091</ele>
        <time>2022-02-25T18:21:23.276Z</time>
      </trkpt>
      <trkpt lat="36.91416" lon="31.10017">
        <ele>26.243521</ele>
        <time>2022-02-25T18:21:30.388Z</time>
      </trkpt>
      <trkpt lat="36.91407" lon="31.09986">
        <ele>26.121491</ele>
        <time>2022-02-25T18:21:37.019Z</time>
      </trkpt>
      <trkpt lat="36.91406" lon="31.0997">
        <ele>26.091785</ele>
        <time>2022-02-25T18:21:40.693Z</time>
      </trkpt>
      <trkpt lat="36.91411" lon="31.09864">
        <ele>25.899517</ele>
        <time>2022-02-25T18:22:03.428Z</time>
      </trkpt>
      <trkpt lat="36.91415" lon="31.09847">
        <ele>25.86575</ele>
        <time>2022-02-25T18:22:07.763Z</time>
      </trkpt>
      <trkpt lat="36.91417" lon="31.09838">
        <ele>25.850182</ele>
        <time>2022-02-25T18:22:09.702Z</time>
      </trkpt>
      <trkpt lat="36.91425" lon="31.098">
        <ele>25.777651</ele>
        <time>2022-02-25T18:22:18.509Z</time>
      </trkpt>
      <trkpt lat="36.91434" lon="31.09771">
        <ele>25.659478</ele>
        <time>2022-02-25T18:22:25.205Z</time>
      </trkpt>
      <trkpt lat="36.91449" lon="31.09723">
        <ele>25.396865</ele>
        <time>2022-02-25T18:22:35.811Z</time>
      </trkpt>
      <trkpt lat="36.91468" lon="31.09672">
        <ele>25.111489</ele>
        <time>2022-02-25T18:22:47.014Z</time>
      </trkpt>
      <trkpt lat="36.91512" lon="31.09525">
        <ele>24.177905</ele>
        <time>2022-02-25T18:23:17.888Z</time>
      </trkpt>
      <trkpt lat="36.91528" lon="31.09475">
        <ele>23.785984</ele>
        <time>2022-02-25T18:23:28.323Z</time>
      </trkpt>
      <trkpt lat="36.91523" lon="31.09475">
        <ele>23.746689</ele>
        <time>2022-02-25T18:23:29.395Z</time>
      </trkpt>
      <trkpt lat="36.91525" lon="31.09418">
        <ele>23.333153</ele>
        <time>2022-02-25T18:23:40.394Z</time>
      </trkpt>
      <trkpt lat="36.91529" lon="31.0938">
        <ele>23.050035</ele>
        <time>2022-02-25T18:23:48.021Z</time>
      </trkpt>
      <trkpt lat="36.91535" lon="31.09314">
        <ele>22.728148</ele>
        <time>2022-02-25T18:24:00.974Z</time>
      </trkpt>
      <trkpt lat="36.91539" lon="31.09244">
        <ele>22.421325</ele>
        <time>2022-02-25T18:24:15.118Z</time>
      </trkpt>
      <trkpt lat="36.91537" lon="31.09232">
        <ele>22.370945</ele>
        <time>2022-02-25T18:24:17.313Z</time>
      </trkpt>
      <trkpt lat="36.91549" lon="31.09228">
        <ele>22.302757</ele>
        <time>2022-02-25T18:24:20.448Z</time>
      </trkpt>
      <trkpt lat="36.9152" lon="31.09038">
        <ele>22.039412</ele>
        <time>2022-02-25T18:25:03.061Z</time>
      </trkpt>
      <trkpt lat="36.91556" lon="31.09034">
        <ele>22.060328</ele>
        <time>2022-02-25T18:25:13.478Z</time>
      </trkpt>
      <trkpt lat="36.91589" lon="31.09028">
        <ele>22.080317</ele>
        <time>2022-02-25T18:25:23.066Z</time>
      </trkpt>
      <trkpt lat="36.91596" lon="31.09028">
        <ele>22.084634</ele>
        <time>2022-02-25T18:25:25.199Z</time>
      </trkpt>
      <trkpt lat="36.91606" lon="31.08938">
        <ele>22.035669</ele>
        <time>2022-02-25T18:25:44.971Z</time>
      </trkpt>
      <trkpt lat="36.91611" lon="31.0884">
        <ele>21.970511</ele>
        <time>2022-02-25T18:26:05.915Z</time>
      </trkpt>
      <trkpt lat="36.91622" lon="31.08714">
        <ele>21.643285</ele>
        <time>2022-02-25T18:26:30.570Z</time>
      </trkpt>
      <trkpt lat="36.91634" lon="31.08613">
        <ele>21.267902</ele>
        <time>2022-02-25T18:26:51.017Z</time>
      </trkpt>
      <trkpt lat="36.91636" lon="31.08588">
        <ele>21.177309</ele>
        <time>2022-02-25T18:26:56.072Z</time>
      </trkpt>
      <trkpt lat="36.91636" lon="31.08578">
        <ele>21.137969</ele>
        <time>2022-02-25T18:26:58.153Z</time>
      </trkpt>
      <trkpt lat="36.91636" lon="31.08569">
        <ele>21.10565</ele>
        <time>2022-02-25T18:26:59.803Z</time>
      </trkpt>
      <trkpt lat="36.91617" lon="31.0849">
        <ele>20.75258</ele>
        <time>2022-02-25T18:27:15.983Z</time>
      </trkpt>
      <trkpt lat="36.91613" lon="31.08484">
        <ele>20.718459</ele>
        <time>2022-02-25T18:27:17.501Z</time>
      </trkpt>
      <trkpt lat="36.9161" lon="31.08476">
        <ele>20.679695</ele>
        <time>2022-02-25T18:27:19.278Z</time>
      </trkpt>
      <trkpt lat="36.91592" lon="31.08419">
        <ele>20.41948</ele>
        <time>2022-02-25T18:27:31.081Z</time>
      </trkpt>
      <trkpt lat="36.91568" lon="31.08343">
        <ele>20.11077</ele>
        <time>2022-02-25T18:27:47.119Z</time>
      </trkpt>
      <trkpt lat="36.91544" lon="31.08246">
        <ele>19.904352</ele>
        <time>2022-02-25T18:28:07.694Z</time>
      </trkpt>
      <trkpt lat="36.91535" lon="31.08204">
        <ele>19.816436</ele>
        <time>2022-02-25T18:28:16.531Z</time>
      </trkpt>
      <trkpt lat="36.91543" lon="31.08168">
        <ele>19.740713</ele>
        <time>2022-02-25T18:28:24.340Z</time>
      </trkpt>
      <trkpt lat="36.91556" lon="31.08112">
        <ele>19.856599</ele>
        <time>2022-02-25T18:28:36.511Z</time>
      </trkpt>
      <trkpt lat="36.91563" lon="31.08084">
        <ele>19.999978</ele>
        <time>2022-02-25T18:28:43.284Z</time>
      </trkpt>
      <trkpt lat="36.91564" lon="31.08077">
        <ele>20.036222</ele>
        <time>2022-02-25T18:28:44.770Z</time>
      </trkpt>
      <trkpt lat="36.91574" lon="31.07999">
        <ele>20.416165</ele>
        <time>2022-02-25T18:29:03.673Z</time>
      </trkpt>
      <trkpt lat="36.91606" lon="31.07868">
        <ele>21.276625</ele>
        <time>2022-02-25T18:29:38.490Z</time>
      </trkpt>
      <trkpt lat="36.91632" lon="31.07765">
        <ele>22.15037</ele>
        <time>2022-02-25T18:30:06.904Z</time>
      </trkpt>
      <trkpt lat="36.91647" lon="31.07689">
        <ele>22.542848</ele>
        <time>2022-02-25T18:30:26.150Z</time>
      </trkpt>
      <trkpt lat="36.91662" lon="31.07566">
        <ele>22.251615</ele>
        <time>2022-02-25T18:30:51.967Z</time>
      </trkpt>
      <trkpt lat="36.91676" lon="31.07439">
        <ele>21.477224</ele>
        <time>2022-02-25T18:31:15.502Z</time>
      </trkpt>
      <trkpt lat="36.91689" lon="31.07308">
        <ele>19.915509</ele>
        <time>2022-02-25T18:31:38.592Z</time>
      </trkpt>
      <trkpt lat="36.91713" lon="31.07073">
        <ele>17.43673</ele>
        <time>2022-02-25T18:32:20.228Z</time>
      </trkpt>
      <trkpt lat="36.91759" lon="31.06622">
        <ele>15.697825</ele>
        <time>2022-02-25T18:33:51.026Z</time>
      </trkpt>
      <trkpt lat="36.91773" lon="31.06475">
        <ele>15.371335</ele>
        <time>2022-02-25T18:34:22.151Z</time>
      </trkpt>
      <trkpt lat="36.91781" lon="31.0639">
        <ele>15.191709</ele>
        <time>2022-02-25T18:34:39.559Z</time>
      </trkpt>
      <trkpt lat="36.918" lon="31.06197">
        <ele>14.287629</ele>
        <time>2022-02-25T18:35:17.192Z</time>
      </trkpt>
      <trkpt lat="36.9184" lon="31.05772">
        <ele>12.199384</ele>
        <time>2022-02-25T18:36:39.757Z</time>
      </trkpt>
      <trkpt lat="36.91889" lon="31.05274">
        <ele>10.538071</ele>
        <time>2022-02-25T18:38:19.967Z</time>
      </trkpt>
      <trkpt lat="36.91918" lon="31.05038">
        <ele>10.019692</ele>
        <time>2022-02-25T18:39:08.860Z</time>
      </trkpt>
      <trkpt lat="36.91945" lon="31.04903">
        <ele>9.826207</ele>
        <time>2022-02-25T18:39:37.610Z</time>
      </trkpt>
      <trkpt lat="36.91986" lon="31.04728">
        <ele>9.666703</ele>
        <time>2022-02-25T18:40:15.791Z</time>
      </trkpt>
      <trkpt lat="36.92032" lon="31.04558">
        <ele>9.744293</ele>
        <time>2022-02-25T18:40:53.744Z</time>
      </trkpt>
      <trkpt lat="36.92048" lon="31.04498">
        <ele>9.918903</ele>
        <time>2022-02-25T18:41:08.066Z</time>
      </trkpt>
      <trkpt lat="36.92052" lon="31.04482">
        <ele>9.965832</ele>
        <time>2022-02-25T18:41:12.023Z</time>
      </trkpt>
      <trkpt lat="36.92132" lon="31.04184">
        <ele>10.970352</ele>
        <time>2022-02-25T18:42:25.754Z</time>
      </trkpt>
      <trkpt lat="36.92154" lon="31.04111">
        <ele>10.764807</ele>
        <time>2022-02-25T18:42:41.668Z</time>
      </trkpt>
      <trkpt lat="36.92203" lon="31.03926">
        <ele>10.154029</ele>
        <time>2022-02-25T18:43:19.445Z</time>
      </trkpt>
      <trkpt lat="36.92234" lon="31.03822">
        <ele>9.906885</ele>
        <time>2022-02-25T18:43:41.946Z</time>
      </trkpt>
      <trkpt lat="36.92265" lon="31.03721">
        <ele>9.684964</ele>
        <time>2022-02-25T18:44:04.646Z</time>
      </trkpt>
      <trkpt lat="36.92276" lon="31.03676">
        <ele>9.607421</ele>
        <time>2022-02-25T18:44:14.408Z</time>
      </trkpt>
      <trkpt lat="36.9229" lon="31.03606">
        <ele>9.488055</ele>
        <time>2022-02-25T18:44:29.310Z</time>
      </trkpt>
      <trkpt lat="36.92317" lon="31.03504">
        <ele>9.300258</ele>
        <time>2022-02-25T18:44:51.354Z</time>
      </trkpt>
      <trkpt lat="36.92437" lon="31.03058">
        <ele>8.578968</ele>
        <time>2022-02-25T18:46:27.800Z</time>
      </trkpt>
      <trkpt lat="36.9256" lon="31.026">
        <ele>9.35158</ele>
        <time>2022-02-25T18:48:15.136Z</time>
      </trkpt>
      <trkpt lat="36.92579" lon="31.02523">
        <ele>9.545203</ele>
        <time>2022-02-25T18:48:33.721Z</time>
      </trkpt>
      <trkpt lat="36.9259" lon="31.02471">
        <ele>9.675226</ele>
        <time>2022-02-25T18:48:45.820Z</time>
      </trkpt>
      <trkpt lat="36.92595" lon="31.02439">
        <ele>9.675331</ele>
        <time>2022-02-25T18:48:53.123Z</time>
      </trkpt>
      <trkpt lat="36.92614" lon="31.02369">
        <ele>9.666827</ele>
        <time>2022-02-25T18:49:08.742Z</time>
      </trkpt>
      <trkpt lat="36.92626" lon="31.02343">
        <ele>9.663355</ele>
        <time>2022-02-25T18:49:14.992Z</time>
      </trkpt>
      <trkpt lat="36.92638" lon="31.02321">
        <ele>9.660272</ele>
        <time>2022-02-25T18:49:20.597Z</time>
      </trkpt>
      <trkpt lat="36.92648" lon="31.02308">
        <ele>9.65814</ele>
        <time>2022-02-25T18:49:24.368Z</time>
      </trkpt>
      <trkpt lat="36.92691" lon="31.02249">
        <ele>9.789069</ele>
        <time>2022-02-25T18:49:40.899Z</time>
      </trkpt>
      <trkpt lat="36.92714" lon="31.02217">
        <ele>9.952747</ele>
        <time>2022-02-25T18:49:49.586Z</time>
      </trkpt>
      <trkpt lat="36.92972" lon="31.01825">
        <ele>12.913201</ele>
        <time>2022-02-25T18:51:50.543Z</time>
      </trkpt>
      <trkpt lat="36.92975" lon="31.01819">
        <ele>12.989807</ele>
        <time>2022-02-25T18:51:52.465Z</time>
      </trkpt>
      <trkpt lat="36.92981" lon="31.01809">
        <ele>13.130714</ele>
        <time>2022-02-25T18:51:55.979Z</time>
      </trkpt>
      <trkpt lat="36.92983" lon="31.01805">
        <ele>13.186371</ele>
        <time>2022-02-25T18:51:57.406Z</time>
      </trkpt>
      <trkpt lat="36.92993" lon="31.01805">
        <ele>13.3143</ele>
        <time>2022-02-25T18:52:00.961Z</time>
      </trkpt>
      <trkpt lat="36.93036" lon="31.01805">
        <ele>13.940771</ele>
        <time>2022-02-25T18:52:17.283Z</time>
      </trkpt>
      <trkpt lat="36.93084" lon="31.01777">
        <ele>16.065958</ele>
        <time>2022-02-25T18:52:39.273Z</time>
      </trkpt>
      <trkpt lat="36.93158" lon="31.01756">
        <ele>19.093468</ele>
        <time>2022-02-25T18:53:14.690Z</time>
      </trkpt>
      <trkpt lat="36.93236" lon="31.01711">
        <ele>22.863085</ele>
        <time>2022-02-25T18:53:58.631Z</time>
      </trkpt>
      <trkpt lat="36.93291" lon="31.01652">
        <ele>26.449096</ele>
        <time>2022-02-25T18:54:37.371Z</time>
      </trkpt>
      <trkpt lat="36.93309" lon="31.01533">
        <ele>30.404568</ele>
        <time>2022-02-25T18:55:25.284Z</time>
      </trkpt>
      <trkpt lat="36.93304" lon="31.01518">
        <ele>30.610378</ele>
        <time>2022-02-25T18:55:30.927Z</time>
      </trkpt>
      <trkpt lat="36.93257" lon="31.01447">
        <ele>31.789058</ele>
        <time>2022-02-25T18:55:58.188Z</time>
      </trkpt>
      <trkpt lat="36.93227" lon="31.01376">
        <ele>32.818304</ele>
        <time>2022-02-25T18:56:14.388Z</time>
      </trkpt>
      <trkpt lat="36.93206" lon="31.01302">
        <ele>32.126597</ele>
        <time>2022-02-25T18:56:27.840Z</time>
      </trkpt>
      <trkpt lat="36.93217" lon="31.01211">
        <ele>31.196347</ele>
        <time>2022-02-25T18:56:43.672Z</time>
      </trkpt>
      <trkpt lat="36.93232" lon="31.01175">
        <ele>30.788378</ele>
        <time>2022-02-25T18:56:50.833Z</time>
      </trkpt>
      <trkpt lat="36.93304" lon="31.01052">
        <ele>31.050812</ele>
        <time>2022-02-25T18:57:22.650Z</time>
      </trkpt>
      <trkpt lat="36.93363" lon="31.01021">
        <ele>31.317843</ele>
        <time>2022-02-25T18:57:44.676Z</time>
      </trkpt>
      <trkpt lat="36.93379" lon="31.00992">
        <ele>31.525483</ele>
        <time>2022-02-25T18:57:54.408Z</time>
      </trkpt>
      <trkpt lat="36.93392" lon="31.00937">
        <ele>31.922227</ele>
        <time>2022-02-25T18:58:09.452Z</time>
      </trkpt>
      <trkpt lat="36.93444" lon="31.00814">
        <ele>32.8768</ele>
        <time>2022-02-25T18:58:42.316Z</time>
      </trkpt>
      <trkpt lat="36.93477" lon="31.00752">
        <ele>33.201261</ele>
        <time>2022-02-25T18:58:58.827Z</time>
      </trkpt>
      <trkpt lat="36.93495" lon="31.00726">
        <ele>33.347385</ele>
        <time>2022-02-25T18:59:06.596Z</time>
      </trkpt>
      <trkpt lat="36.93502" lon="31.00711">
        <ele>33.417145</ele>
        <time>2022-02-25T18:59:10.396Z</time>
      </trkpt>
      <trkpt lat="36.93509" lon="31.00639">
        <ele>33.721946</ele>
        <time>2022-02-25T18:59:27.138Z</time>
      </trkpt>
      <trkpt lat="36.93539" lon="31.0039">
        <ele>35.770685</ele>
        <time>2022-02-25T19:00:32.429Z</time>
      </trkpt>
      <trkpt lat="36.93592" lon="30.99936">
        <ele>39.220299</ele>
        <time>2022-02-25T19:02:27.969Z</time>
      </trkpt>
      <trkpt lat="36.93596" lon="30.999">
        <ele>39.137319</ele>
        <time>2022-02-25T19:02:36.074Z</time>
      </trkpt>
      <trkpt lat="36.93657" lon="30.99409">
        <ele>36.698119</ele>
        <time>2022-02-25T19:04:12.623Z</time>
      </trkpt>
      <trkpt lat="36.93662" lon="30.99315">
        <ele>35.72781</ele>
        <time>2022-02-25T19:04:29.284Z</time>
      </trkpt>
      <trkpt lat="36.93653" lon="30.99205">
        <ele>33.550749</ele>
        <time>2022-02-25T19:04:47.813Z</time>
      </trkpt>
      <trkpt lat="36.93658" lon="30.99172">
        <ele>32.705227</ele>
        <time>2022-02-25T19:04:53.062Z</time>
      </trkpt>
      <trkpt lat="36.93691" lon="30.99069">
        <ele>29.92082</ele>
        <time>2022-02-25T19:05:09.879Z</time>
      </trkpt>
      <trkpt lat="36.93695" lon="30.99039">
        <ele>29.040577</ele>
        <time>2022-02-25T19:05:14.523Z</time>
      </trkpt>
      <trkpt lat="36.93687" lon="30.98991">
        <ele>27.587078</ele>
        <time>2022-02-25T19:05:21.645Z</time>
      </trkpt>
      <trkpt lat="36.93668" lon="30.98881">
        <ele>24.182454</ele>
        <time>2022-02-25T19:05:38.626Z</time>
      </trkpt>
      <trkpt lat="36.93663" lon="30.98833">
        <ele>22.782176</ele>
        <time>2022-02-25T19:05:46.050Z</time>
      </trkpt>
      <trkpt lat="36.93655" lon="30.98751">
        <ele>21.609836</ele>
        <time>2022-02-25T19:05:59.554Z</time>
      </trkpt>
      <trkpt lat="36.93649" lon="30.98592">
        <ele>19.653865</ele>
        <time>2022-02-25T19:06:28.431Z</time>
      </trkpt>
      <trkpt lat="36.93648" lon="30.98563">
        <ele>19.662934</ele>
        <time>2022-02-25T19:06:34.206Z</time>
      </trkpt>
      <trkpt lat="36.9365" lon="30.98418">
        <ele>19.708683</ele>
        <time>2022-02-25T19:07:06.142Z</time>
      </trkpt>
      <trkpt lat="36.9367" lon="30.98308">
        <ele>20.677112</ele>
        <time>2022-02-25T19:07:34.170Z</time>
      </trkpt>
      <trkpt lat="36.93746" lon="30.98109">
        <ele>23.5393</ele>
        <time>2022-02-25T19:08:36.993Z</time>
      </trkpt>
      <trkpt lat="36.93749" lon="30.98077">
        <ele>24.026721</ele>
        <time>2022-02-25T19:08:46.583Z</time>
      </trkpt>
      <trkpt lat="36.93753" lon="30.98042">
        <ele>24.569815</ele>
        <time>2022-02-25T19:08:57.303Z</time>
      </trkpt>
      <trkpt lat="36.93803" lon="30.97826">
        <ele>27.202442</ele>
        <time>2022-02-25T19:10:00.089Z</time>
      </trkpt>
      <trkpt lat="36.93822" lon="30.97744">
        <ele>27.96151</ele>
        <time>2022-02-25T19:10:20.248Z</time>
      </trkpt>
      <trkpt lat="36.93829" lon="30.97715">
        <ele>27.872238</ele>
        <time>2022-02-25T19:10:26.852Z</time>
      </trkpt>
      <trkpt lat="36.93851" lon="30.97548">
        <ele>27.372577</ele>
        <time>2022-02-25T19:10:59.852Z</time>
      </trkpt>
      <trkpt lat="36.93864" lon="30.97343">
        <ele>26.155076</ele>
        <time>2022-02-25T19:11:38.851Z</time>
      </trkpt>
      <trkpt lat="36.93873" lon="30.97211">
        <ele>25.482655</ele>
        <time>2022-02-25T19:12:04.109Z</time>
      </trkpt>
      <trkpt lat="36.93875" lon="30.97142">
        <ele>25.168518</ele>
        <time>2022-02-25T19:12:17.618Z</time>
      </trkpt>
      <trkpt lat="36.93876" lon="30.97121">
        <ele>25.069951</ele>
        <time>2022-02-25T19:12:21.862Z</time>
      </trkpt>
      <trkpt lat="36.93898" lon="30.9654">
        <ele>23.010908</ele>
        <time>2022-02-25T19:14:17.795Z</time>
      </trkpt>
      <trkpt lat="36.93916" lon="30.96538">
        <ele>22.915166</ele>
        <time>2022-02-25T19:14:22.162Z</time>
      </trkpt>
      <trkpt lat="36.93922" lon="30.96426">
        <ele>22.440493</ele>
        <time>2022-02-25T19:14:45.248Z</time>
      </trkpt>
      <trkpt lat="36.9393" lon="30.96319">
        <ele>21.299442</ele>
        <time>2022-02-25T19:15:06.451Z</time>
      </trkpt>
      <trkpt lat="36.93915" lon="30.96105">
        <ele>18.433319</ele>
        <time>2022-02-25T19:15:44.852Z</time>
      </trkpt>
      <trkpt lat="36.93915" lon="30.96025">
        <ele>17.109412</ele>
        <time>2022-02-25T19:15:58.548Z</time>
      </trkpt>
      <trkpt lat="36.93915" lon="30.96001">
        <ele>16.704299</ele>
        <time>2022-02-25T19:16:02.736Z</time>
      </trkpt>
      <trkpt lat="36.93905" lon="30.95844">
        <ele>14.904218</ele>
        <time>2022-02-25T19:16:30.644Z</time>
      </trkpt>
      <trkpt lat="36.93833" lon="30.94878">
        <ele>11.194194</ele>
        <time>2022-02-25T19:19:53.551Z</time>
      </trkpt>
      <trkpt lat="36.93825" lon="30.94791">
        <ele>10.906712</ele>
        <time>2022-02-25T19:20:11.920Z</time>
      </trkpt>
      <trkpt lat="36.93819" lon="30.94743">
        <ele>10.746131</ele>
        <time>2022-02-25T19:20:21.934Z</time>
      </trkpt>
      <trkpt lat="36.93823" lon="30.94668">
        <ele>10.495079</ele>
        <time>2022-02-25T19:20:37.715Z</time>
      </trkpt>
      <trkpt lat="36.93826" lon="30.94605">
        <ele>10.310795</ele>
        <time>2022-02-25T19:20:50.680Z</time>
      </trkpt>
      <trkpt lat="36.93833" lon="30.94541">
        <ele>10.156326</ele>
        <time>2022-02-25T19:21:03.449Z</time>
      </trkpt>
      <trkpt lat="36.93849" lon="30.94398">
        <ele>9.831327</ele>
        <time>2022-02-25T19:21:33.146Z</time>
      </trkpt>
      <trkpt lat="36.93915" lon="30.93718">
        <ele>9.490831</ele>
        <time>2022-02-25T19:23:58.100Z</time>
      </trkpt>
      <trkpt lat="36.94013" lon="30.9269">
        <ele>9.637589</ele>
        <time>2022-02-25T19:27:35.808Z</time>
      </trkpt>
      <trkpt lat="36.94019" lon="30.92623">
        <ele>9.952514</ele>
        <time>2022-02-25T19:27:52.434Z</time>
      </trkpt>
      <trkpt lat="36.94034" lon="30.92502">
        <ele>12.980244</ele>
        <time>2022-02-25T19:28:35.393Z</time>
      </trkpt>
      <trkpt lat="36.94059" lon="30.92325">
        <ele>15.441777</ele>
        <time>2022-02-25T19:29:37.520Z</time>
      </trkpt>
      <trkpt lat="36.94068" lon="30.92238">
        <ele>15.261245</ele>
        <time>2022-02-25T19:29:53.871Z</time>
      </trkpt>
      <trkpt lat="36.9407" lon="30.92213">
        <ele>15.208772</ele>
        <time>2022-02-25T19:29:58.038Z</time>
      </trkpt>
      <trkpt lat="36.94079" lon="30.92118">
        <ele>13.616093</ele>
        <time>2022-02-25T19:30:12.301Z</time>
      </trkpt>
      <trkpt lat="36.94084" lon="30.92057">
        <ele>12.03336</ele>
        <time>2022-02-25T19:30:21.218Z</time>
      </trkpt>
      <trkpt lat="36.94097" lon="30.91829">
        <ele>8.379411</ele>
        <time>2022-02-25T19:31:00.214Z</time>
      </trkpt>
      <trkpt lat="36.94145" lon="30.91368">
        <ele>7.996451</ele>
        <time>2022-02-25T19:32:41.437Z</time>
      </trkpt>
      <trkpt lat="36.94259" lon="30.90203">
        <ele>11.46991</ele>
        <time>2022-02-25T19:37:06.352Z</time>
      </trkpt>
      <trkpt lat="36.94273" lon="30.90104">
        <ele>12.139605</ele>
        <time>2022-02-25T19:37:34.698Z</time>
      </trkpt>
      <trkpt lat="36.94277" lon="30.90081">
        <ele>12.319249</ele>
        <time>2022-02-25T19:37:41.448Z</time>
      </trkpt>
      <trkpt lat="36.94334" lon="30.89724">
        <ele>13.97814</ele>
        <time>2022-02-25T19:39:06.462Z</time>
      </trkpt>
      <trkpt lat="36.94357" lon="30.8959">
        <ele>13.257906</ele>
        <time>2022-02-25T19:39:31.988Z</time>
      </trkpt>
      <trkpt lat="36.94361" lon="30.8956">
        <ele>13.098255</ele>
        <time>2022-02-25T19:39:37.517Z</time>
      </trkpt>
      <trkpt lat="36.94399" lon="30.89324">
        <ele>12.277706</ele>
        <time>2022-02-25T19:40:24.735Z</time>
      </trkpt>
      <trkpt lat="36.94429" lon="30.8914">
        <ele>12.297527</ele>
        <time>2022-02-25T19:41:06.617Z</time>
      </trkpt>
      <trkpt lat="36.94438" lon="30.89071">
        <ele>12.364882</ele>
        <time>2022-02-25T19:41:21.967Z</time>
      </trkpt>
      <trkpt lat="36.94442" lon="30.89045">
        <ele>12.343619</ele>
        <time>2022-02-25T19:41:27.568Z</time>
      </trkpt>
      <trkpt lat="36.94445" lon="30.8902">
        <ele>12.299729</ele>
        <time>2022-02-25T19:41:32.726Z</time>
      </trkpt>
      <trkpt lat="36.9445" lon="30.88919">
        <ele>12.123648</ele>
        <time>2022-02-25T19:41:53.481Z</time>
      </trkpt>
      <trkpt lat="36.94511" lon="30.88019">
        <ele>9.940283</ele>
        <time>2022-02-25T19:44:55.648Z</time>
      </trkpt>
      <trkpt lat="36.94538" lon="30.87688">
        <ele>9.799999</ele>
        <time>2022-02-25T19:46:06.637Z</time>
      </trkpt>
      <trkpt lat="36.94548" lon="30.87668">
        <ele>9.799999</ele>
        <time>2022-02-25T19:46:13.700Z</time>
      </trkpt>
      <trkpt lat="36.94551" lon="30.87648">
        <ele>9.799999</ele>
        <time>2022-02-25T19:46:19.140Z</time>
      </trkpt>
      <trkpt lat="36.94549" lon="30.87641">
        <ele>9.799999</ele>
        <time>2022-02-25T19:46:21.290Z</time>
      </trkpt>
      <trkpt lat="36.94544" lon="30.87626">
        <ele>9.799999</ele>
        <time>2022-02-25T19:46:26.247Z</time>
      </trkpt>
      <trkpt lat="36.94547" lon="30.87581">
        <ele>9.799999</ele>
        <time>2022-02-25T19:46:35.748Z</time>
      </trkpt>
      <trkpt lat="36.94563" lon="30.87369">
        <ele>10.006321</ele>
        <time>2022-02-25T19:47:21.245Z</time>
      </trkpt>
      <trkpt lat="36.94573" lon="30.87251">
        <ele>10.203695</ele>
        <time>2022-02-25T19:47:48.534Z</time>
      </trkpt>
      <trkpt lat="36.94578" lon="30.87159">
        <ele>10.38336</ele>
        <time>2022-02-25T19:48:10.353Z</time>
      </trkpt>
      <trkpt lat="36.94597" lon="30.8695">
        <ele>10.081777</ele>
        <time>2022-02-25T19:48:54.170Z</time>
      </trkpt>
      <trkpt lat="36.94617" lon="30.8674">
        <ele>9.013646</ele>
        <time>2022-02-25T19:49:33.227Z</time>
      </trkpt>
      <trkpt lat="36.94626" lon="30.86635">
        <ele>8.489289</ele>
        <time>2022-02-25T19:49:53.595Z</time>
      </trkpt>
      <trkpt lat="36.94645" lon="30.86416">
        <ele>8.57933</ele>
        <time>2022-02-25T19:50:42.135Z</time>
      </trkpt>
      <trkpt lat="36.94671" lon="30.86419">
        <ele>8.622485</ele>
        <time>2022-02-25T19:50:50.027Z</time>
      </trkpt>
      <trkpt lat="36.94691" lon="30.86212">
        <ele>9.296941</ele>
        <time>2022-02-25T19:51:39.243Z</time>
      </trkpt>
      <trkpt lat="36.94715" lon="30.85963">
        <ele>10.582788</ele>
        <time>2022-02-25T19:52:41.925Z</time>
      </trkpt>
      <trkpt lat="36.94726" lon="30.85848">
        <ele>11.092555</ele>
        <time>2022-02-25T19:53:10.203Z</time>
      </trkpt>
      <trkpt lat="36.94732" lon="30.85792">
        <ele>11.338649</ele>
        <time>2022-02-25T19:53:23.647Z</time>
      </trkpt>
      <trkpt lat="36.94737" lon="30.85745">
        <ele>11.548676</ele>
        <time>2022-02-25T19:53:35.232Z</time>
      </trkpt>
      <trkpt lat="36.94725" lon="30.85743">
        <ele>11.594558</ele>
        <time>2022-02-25T19:53:38.973Z</time>
      </trkpt>
      <trkpt lat="36.94704" lon="30.85733">
        <ele>11.676257</ele>
        <time>2022-02-25T19:53:45.633Z</time>
      </trkpt>
      <trkpt lat="36.94716" lon="30.85602">
        <ele>12.059123</ele>
        <time>2022-02-25T19:54:14.848Z</time>
      </trkpt>
      <trkpt lat="36.94725" lon="30.85561">
        <ele>12.184572</ele>
        <time>2022-02-25T19:54:24.696Z</time>
      </trkpt>
      <trkpt lat="36.94736" lon="30.85445">
        <ele>12.794094</ele>
        <time>2022-02-25T19:54:52.252Z</time>
      </trkpt>
      <trkpt lat="36.94764" lon="30.85041">
        <ele>15.429595</ele>
        <time>2022-02-25T19:56:30.689Z</time>
      </trkpt>
      <trkpt lat="36.94767" lon="30.85027">
        <ele>15.567598</ele>
        <time>2022-02-25T19:56:34.557Z</time>
      </trkpt>
      <trkpt lat="36.94787" lon="30.84815">
        <ele>17.920877</ele>
        <time>2022-02-25T19:57:31.564Z</time>
      </trkpt>
      <trkpt lat="36.9479" lon="30.84785">
        <ele>18.361156</ele>
        <time>2022-02-25T19:57:39.942Z</time>
      </trkpt>
      <trkpt lat="36.94803" lon="30.84652">
        <ele>20.4485</ele>
        <time>2022-02-25T19:58:17.680Z</time>
      </trkpt>
      <trkpt lat="36.94805" lon="30.84635">
        <ele>20.990288</ele>
        <time>2022-02-25T19:58:23.004Z</time>
      </trkpt>
      <trkpt lat="36.94809" lon="30.84598">
        <ele>22.205245</ele>
        <time>2022-02-25T19:58:35.637Z</time>
      </trkpt>
      <trkpt lat="36.94812" lon="30.84555">
        <ele>23.643064</ele>
        <time>2022-02-25T19:58:51.439Z</time>
      </trkpt>
      <trkpt lat="36.94815" lon="30.84492">
        <ele>25.701393</ele>
        <time>2022-02-25T19:59:15.453Z</time>
      </trkpt>
      <trkpt lat="36.94815" lon="30.84474">
        <ele>26.280704</ele>
        <time>2022-02-25T19:59:22.629Z</time>
      </trkpt>
      <trkpt lat="36.94815" lon="30.84424">
        <ele>28.084287</ele>
        <time>2022-02-25T19:59:44.076Z</time>
      </trkpt>
      <trkpt lat="36.94807" lon="30.84253">
        <ele>35.813861</ele>
        <time>2022-02-25T20:01:03.521Z</time>
      </trkpt>
      <trkpt lat="36.94788" lon="30.84159">
        <ele>38.469848</ele>
        <time>2022-02-25T20:01:39.403Z</time>
      </trkpt>
      <trkpt lat="36.94762" lon="30.83973">
        <ele>40.987424</ele>
        <time>2022-02-25T20:02:26.545Z</time>
      </trkpt>
      <trkpt lat="36.94741" lon="30.83866">
        <ele>41.393497</ele>
        <time>2022-02-25T20:02:46.830Z</time>
      </trkpt>
      <trkpt lat="36.94716" lon="30.83731">
        <ele>42.933849</ele>
        <time>2022-02-25T20:03:24.014Z</time>
      </trkpt>
      <trkpt lat="36.94681" lon="30.83522">
        <ele>48.735145</ele>
        <time>2022-02-25T20:04:43.019Z</time>
      </trkpt>
      <trkpt lat="36.94662" lon="30.83446">
        <ele>50.758326</ele>
        <time>2022-02-25T20:05:12.403Z</time>
      </trkpt>
      <trkpt lat="36.94635" lon="30.83341">
        <ele>53.536767</ele>
        <time>2022-02-25T20:05:47.433Z</time>
      </trkpt>
      <trkpt lat="36.94586" lon="30.83214">
        <ele>54.249656</ele>
        <time>2022-02-25T20:06:23.859Z</time>
      </trkpt>
      <trkpt lat="36.94561" lon="30.83162">
        <ele>54.526163</ele>
        <time>2022-02-25T20:06:36.124Z</time>
      </trkpt>
      <trkpt lat="36.94549" lon="30.8314">
        <ele>54.646112</ele>
        <time>2022-02-25T20:06:41.215Z</time>
      </trkpt>
      <trkpt lat="36.94527" lon="30.831">
        <ele>53.705883</ele>
        <time>2022-02-25T20:06:49.936Z</time>
      </trkpt>
      <trkpt lat="36.94445" lon="30.8296">
        <ele>50.272133</ele>
        <time>2022-02-25T20:07:17.302Z</time>
      </trkpt>
      <trkpt lat="36.94357" lon="30.82807">
        <ele>47.101742</ele>
        <time>2022-02-25T20:07:47.547Z</time>
      </trkpt>
      <trkpt lat="36.94323" lon="30.82748">
        <ele>46.707036</ele>
        <time>2022-02-25T20:08:01.996Z</time>
      </trkpt>
      <trkpt lat="36.94222" lon="30.82576">
        <ele>48.564124</ele>
        <time>2022-02-25T20:09:00.609Z</time>
      </trkpt>
      <trkpt lat="36.9421" lon="30.82518">
        <ele>49.19602</ele>
        <time>2022-02-25T20:09:17.916Z</time>
      </trkpt>
      <trkpt lat="36.9418" lon="30.82457">
        <ele>49.952471</ele>
        <time>2022-02-25T20:09:37.653Z</time>
      </trkpt>
      <trkpt lat="36.94073" lon="30.82267">
        <ele>52.27887</ele>
        <time>2022-02-25T20:10:35.419Z</time>
      </trkpt>
      <trkpt lat="36.9412" lon="30.82231">
        <ele>52.986339</ele>
        <time>2022-02-25T20:10:54.520Z</time>
      </trkpt>
      <trkpt lat="36.94146" lon="30.82214">
        <ele>53.661162</ele>
        <time>2022-02-25T20:11:04.894Z</time>
      </trkpt>
      <trkpt lat="36.94152" lon="30.82209">
        <ele>53.836639</ele>
        <time>2022-02-25T20:11:07.945Z</time>
      </trkpt>
      <trkpt lat="36.94211" lon="30.82179">
        <ele>55.333241</ele>
        <time>2022-02-25T20:11:44.195Z</time>
      </trkpt>
      <trkpt lat="36.94197" lon="30.82105">
        <ele>56.753125</ele>
        <time>2022-02-25T20:12:08.368Z</time>
      </trkpt>
      <trkpt lat="36.94192" lon="30.82044">
        <ele>57.686003</ele>
        <time>2022-02-25T20:12:26.142Z</time>
      </trkpt>
      <trkpt lat="36.94188" lon="30.82021">
        <ele>57.997345</ele>
        <time>2022-02-25T20:12:33.486Z</time>
      </trkpt>
      <trkpt lat="36.94182" lon="30.81984">
        <ele>58.517687</ele>
        <time>2022-02-25T20:12:44.230Z</time>
      </trkpt>
      <trkpt lat="36.94152" lon="30.81852">
        <ele>60.205002</ele>
        <time>2022-02-25T20:13:21.999Z</time>
      </trkpt>
      <trkpt lat="36.94136" lon="30.81782">
        <ele>60.406442</ele>
        <time>2022-02-25T20:13:40.052Z</time>
      </trkpt>
      <trkpt lat="36.9413" lon="30.81715">
        <ele>60.590312</ele>
        <time>2022-02-25T20:13:55.554Z</time>
      </trkpt>
      <trkpt lat="36.94128" lon="30.81669">
        <ele>60.71829</ele>
        <time>2022-02-25T20:14:05.726Z</time>
      </trkpt>
      <trkpt lat="36.94119" lon="30.81632">
        <ele>60.677434</ele>
        <time>2022-02-25T20:14:13.935Z</time>
      </trkpt>
      <trkpt lat="36.94105" lon="30.81595">
        <ele>60.391555</ele>
        <time>2022-02-25T20:14:22.370Z</time>
      </trkpt>
      <trkpt lat="36.94074" lon="30.81532">
        <ele>59.869857</ele>
        <time>2022-02-25T20:14:37.142Z</time>
      </trkpt>
      <trkpt lat="36.94037" lon="30.81457">
        <ele>59.255557</ele>
        <time>2022-02-25T20:14:53.342Z</time>
      </trkpt>
      <trkpt lat="36.93951" lon="30.81305">
        <ele>58.046514</ele>
        <time>2022-02-25T20:15:29.259Z</time>
      </trkpt>
      <trkpt lat="36.93925" lon="30.81261">
        <ele>57.770391</ele>
        <time>2022-02-25T20:15:41.243Z</time>
      </trkpt>
      <trkpt lat="36.93926" lon="30.8126">
        <ele>57.773555</ele>
        <time>2022-02-25T20:15:41.634Z</time>
      </trkpt>
      <trkpt lat="36.93991" lon="30.81196">
        <ele>57.978061</ele>
        <time>2022-02-25T20:16:06.133Z</time>
      </trkpt>
      <trkpt lat="36.9408" lon="30.81102">
        <ele>58.011749</ele>
        <time>2022-02-25T20:16:41.158Z</time>
      </trkpt>
      <trkpt lat="36.94097" lon="30.81087">
        <ele>57.872284</ele>
        <time>2022-02-25T20:16:46.733Z</time>
      </trkpt>
      <trkpt lat="36.94108" lon="30.8108">
        <ele>57.792458</ele>
        <time>2022-02-25T20:16:49.949Z</time>
      </trkpt>
      <trkpt lat="36.9412" lon="30.81076">
        <ele>57.707835</ele>
        <time>2022-02-25T20:16:53.142Z</time>
      </trkpt>
      <trkpt lat="36.94181" lon="30.81071">
        <ele>57.305917</ele>
        <time>2022-02-25T20:17:08.080Z</time>
      </trkpt>
      <trkpt lat="36.94186" lon="30.81052">
        <ele>57.20092</ele>
        <time>2022-02-25T20:17:11.701Z</time>
      </trkpt>
      <trkpt lat="36.94195" lon="30.81023">
        <ele>57.036645</ele>
        <time>2022-02-25T20:17:17.653Z</time>
      </trkpt>
      <trkpt lat="36.94201" lon="30.80999">
        <ele>56.760624</ele>
        <time>2022-02-25T20:17:22.360Z</time>
      </trkpt>
      <trkpt lat="36.94204" lon="30.80984">
        <ele>56.581235</ele>
        <time>2022-02-25T20:17:25.174Z</time>
      </trkpt>
      <trkpt lat="36.94217" lon="30.80924">
        <ele>55.82373</ele>
        <time>2022-02-25T20:17:36.667Z</time>
      </trkpt>
      <trkpt lat="36.94229" lon="30.80868">
        <ele>55.123684</ele>
        <time>2022-02-25T20:17:47.125Z</time>
      </trkpt>
      <trkpt lat="36.94233" lon="30.80869">
        <ele>55.058568</ele>
        <time>2022-02-25T20:17:48.155Z</time>
      </trkpt>
      <trkpt lat="36.94315" lon="30.80887">
        <ele>53.882245</ele>
        <time>2022-02-25T20:18:07.030Z</time>
      </trkpt>
      <trkpt lat="36.94339" lon="30.80728">
        <ele>52.271529</ele>
        <time>2022-02-25T20:18:37.965Z</time>
      </trkpt>
      <trkpt lat="36.94317" lon="30.80733">
        <ele>52.017047</ele>
        <time>2022-02-25T20:18:43.095Z</time>
      </trkpt>
      <trkpt lat="36.9428" lon="30.80724">
        <ele>51.737344</ele>
        <time>2022-02-25T20:18:52.003Z</time>
      </trkpt>
      <trkpt lat="36.94248" lon="30.80687">
        <ele>51.416965</ele>
        <time>2022-02-25T20:19:02.530Z</time>
      </trkpt>
      <trkpt lat="36.942" lon="30.80656">
        <ele>51.01323</ele>
        <time>2022-02-25T20:19:16.491Z</time>
      </trkpt>
      <trkpt lat="36.94239" lon="30.8053">
        <ele>50.695644</ele>
        <time>2022-02-25T20:19:45.350Z</time>
      </trkpt>
      <trkpt lat="36.94406" lon="30.80049">
        <ele>51.49716</ele>
        <time>2022-02-25T20:21:42.730Z</time>
      </trkpt>
      <trkpt lat="36.94478" lon="30.79853">
        <ele>55.196909</ele>
        <time>2022-02-25T20:22:47.461Z</time>
      </trkpt>
      <trkpt lat="36.94487" lon="30.79844">
        <ele>55.514021</ele>
        <time>2022-02-25T20:22:53.249Z</time>
      </trkpt>
      <trkpt lat="36.94499" lon="30.79842">
        <ele>55.857615</ele>
        <time>2022-02-25T20:22:58.600Z</time>
      </trkpt>
      <trkpt lat="36.94511" lon="30.79837">
        <ele>56.199238</ele>
        <time>2022-02-25T20:23:03.771Z</time>
      </trkpt>
      <trkpt lat="36.94529" lon="30.79835">
        <ele>56.699058</ele>
        <time>2022-02-25T20:23:12.970Z</time>
      </trkpt>
      <trkpt lat="36.94566" lon="30.79808">
        <ele>58.479121</ele>
        <time>2022-02-25T20:23:34.197Z</time>
      </trkpt>
      <trkpt lat="36.94576" lon="30.79784">
        <ele>59.421695</ele>
        <time>2022-02-25T20:23:45.926Z</time>
      </trkpt>
      <trkpt lat="36.94558" lon="30.79675">
        <ele>63.322047</ele>
        <time>2022-02-25T20:24:31.561Z</time>
      </trkpt>
      <trkpt lat="36.94549" lon="30.79603">
        <ele>65.252547</ele>
        <time>2022-02-25T20:24:57.027Z</time>
      </trkpt>
      <trkpt lat="36.94514" lon="30.79613">
        <ele>65.951216</ele>
        <time>2022-02-25T20:25:11.456Z</time>
      </trkpt>
      <trkpt lat="36.94481" lon="30.79606">
        <ele>66.623001</ele>
        <time>2022-02-25T20:25:24.532Z</time>
      </trkpt>
      <trkpt lat="36.94431" lon="30.79543">
        <ele>68.016347</ele>
        <time>2022-02-25T20:25:48.940Z</time>
      </trkpt>
      <trkpt lat="36.94378" lon="30.79442">
        <ele>68.360936</ele>
        <time>2022-02-25T20:26:16.426Z</time>
      </trkpt>
      <trkpt lat="36.94304" lon="30.7925">
        <ele>68.104103</ele>
        <time>2022-02-25T20:27:02.022Z</time>
      </trkpt>
      <trkpt lat="36.94282" lon="30.792">
        <ele>67.900976</ele>
        <time>2022-02-25T20:27:13.877Z</time>
      </trkpt>
      <trkpt lat="36.94271" lon="30.79199">
        <ele>67.849987</ele>
        <time>2022-02-25T20:27:16.799Z</time>
      </trkpt>
      <trkpt lat="36.9423" lon="30.79108">
        <ele>67.40867</ele>
        <time>2022-02-25T20:27:37.975Z</time>
      </trkpt>
      <trkpt lat="36.94162" lon="30.78957">
        <ele>66.496772</ele>
        <time>2022-02-25T20:28:12.885Z</time>
      </trkpt>
      <trkpt lat="36.94132" lon="30.78973">
        <ele>66.22612</ele>
        <time>2022-02-25T20:28:21.105Z</time>
      </trkpt>
      <trkpt lat="36.9412" lon="30.78974">
        <ele>66.121249</ele>
        <time>2022-02-25T20:28:24.076Z</time>
      </trkpt>
      <trkpt lat="36.94103" lon="30.78961">
        <ele>65.938156</ele>
        <time>2022-02-25T20:28:29.277Z</time>
      </trkpt>
      <trkpt lat="36.93989" lon="30.78792">
        <ele>64.518347</ele>
        <time>2022-02-25T20:29:12.078Z</time>
      </trkpt>
      <trkpt lat="36.93965" lon="30.78752">
        <ele>64.263323</ele>
        <time>2022-02-25T20:29:22.068Z</time>
      </trkpt>
      <trkpt lat="36.9396" lon="30.78744">
        <ele>64.213975</ele>
        <time>2022-02-25T20:29:23.981Z</time>
      </trkpt>
      <trkpt lat="36.93933" lon="30.78695">
        <ele>63.911704</ele>
        <time>2022-02-25T20:29:36.252Z</time>
      </trkpt>
      <trkpt lat="36.93922" lon="30.78664">
        <ele>63.744305</ele>
        <time>2022-02-25T20:29:43.117Z</time>
      </trkpt>
      <trkpt lat="36.9386" lon="30.78504">
        <ele>63.94806</ele>
        <time>2022-02-25T20:30:23.997Z</time>
      </trkpt>
      <trkpt lat="36.9379" lon="30.7834">
        <ele>64.37535</ele>
        <time>2022-02-25T20:31:08.595Z</time>
      </trkpt>
      <trkpt lat="36.93708" lon="30.78139">
        <ele>64.47713</ele>
        <time>2022-02-25T20:31:59.988Z</time>
      </trkpt>
      <trkpt lat="36.93672" lon="30.78046">
        <ele>64.302177</ele>
        <time>2022-02-25T20:32:21.372Z</time>
      </trkpt>
      <trkpt lat="36.93584" lon="30.77835">
        <ele>62.928787</ele>
        <time>2022-02-25T20:33:08.254Z</time>
      </trkpt>
      <trkpt lat="36.93562" lon="30.77785">
        <ele>62.755121</ele>
        <time>2022-02-25T20:33:19.875Z</time>
      </trkpt>
      <trkpt lat="36.93492" lon="30.77625">
        <ele>62.167184</ele>
        <time>2022-02-25T20:33:59.239Z</time>
      </trkpt>
      <trkpt lat="36.93456" lon="30.77533">
        <ele>61.777021</ele>
        <time>2022-02-25T20:34:20.818Z</time>
      </trkpt>
      <trkpt lat="36.93376" lon="30.77341">
        <ele>60.684189</ele>
        <time>2022-02-25T20:35:03.774Z</time>
      </trkpt>
      <trkpt lat="36.93242" lon="30.77011">
        <ele>58.78209</ele>
        <time>2022-02-25T20:36:18.872Z</time>
      </trkpt>
      <trkpt lat="36.93229" lon="30.77019">
        <ele>58.685717</ele>
        <time>2022-02-25T20:36:22.475Z</time>
      </trkpt>
      <trkpt lat="36.9313" lon="30.77077">
        <ele>57.990136</ele>
        <time>2022-02-25T20:36:48.687Z</time>
      </trkpt>
      <trkpt lat="36.93118" lon="30.7705">
        <ele>57.890409</ele>
        <time>2022-02-25T20:36:54.527Z</time>
      </trkpt>
      <trkpt lat="36.93093" lon="30.76996">
        <ele>57.793415</ele>
        <time>2022-02-25T20:37:06.999Z</time>
      </trkpt>
      <trkpt lat="36.93036" lon="30.76841">
        <ele>57.609185</ele>
        <time>2022-02-25T20:37:43.038Z</time>
      </trkpt>
      <trkpt lat="36.92976" lon="30.76647">
        <ele>57.979116</ele>
        <time>2022-02-25T20:38:29.671Z</time>
      </trkpt>
      <trkpt lat="36.9295" lon="30.76545">
        <ele>58.117084</ele>
        <time>2022-02-25T20:38:53.575Z</time>
      </trkpt>
      <trkpt lat="36.92946" lon="30.76526">
        <ele>58.141652</ele>
        <time>2022-02-25T20:38:57.701Z</time>
      </trkpt>
      <trkpt lat="36.92945" lon="30.76519">
        <ele>58.151573</ele>
        <time>2022-02-25T20:38:59.559Z</time>
      </trkpt>
      <trkpt lat="36.92917" lon="30.76402">
        <ele>58.242789</ele>
        <time>2022-02-25T20:39:26.054Z</time>
      </trkpt>
      <trkpt lat="36.929" lon="30.76303">
        <ele>58.195322</ele>
        <time>2022-02-25T20:39:47.524Z</time>
      </trkpt>
      <trkpt lat="36.92898" lon="30.76293">
        <ele>58.190367</ele>
        <time>2022-02-25T20:39:49.776Z</time>
      </trkpt>
      <trkpt lat="36.92883" lon="30.76212">
        <ele>58.133229</ele>
        <time>2022-02-25T20:40:06.758Z</time>
      </trkpt>
      <trkpt lat="36.92853" lon="30.76061">
        <ele>57.631428</ele>
        <time>2022-02-25T20:40:37.887Z</time>
      </trkpt>
      <trkpt lat="36.92844" lon="30.76036">
        <ele>57.541065</ele>
        <time>2022-02-25T20:40:43.447Z</time>
      </trkpt>
      <trkpt lat="36.92834" lon="30.76007">
        <ele>57.439931</ele>
        <time>2022-02-25T20:40:49.705Z</time>
      </trkpt>
      <trkpt lat="36.92798" lon="30.75903">
        <ele>56.804619</ele>
        <time>2022-02-25T20:41:11.578Z</time>
      </trkpt>
      <trkpt lat="36.92772" lon="30.75833">
        <ele>56.364315</ele>
        <time>2022-02-25T20:41:26.179Z</time>
      </trkpt>
      <trkpt lat="36.92757" lon="30.75819">
        <ele>56.233404</ele>
        <time>2022-02-25T20:41:30.440Z</time>
      </trkpt>
      <trkpt lat="36.92717" lon="30.75709">
        <ele>55.688328</ele>
        <time>2022-02-25T20:41:53.579Z</time>
      </trkpt>
      <trkpt lat="36.9269" lon="30.75636">
        <ele>55.340587</ele>
        <time>2022-02-25T20:42:09.310Z</time>
      </trkpt>
      <trkpt lat="36.92653" lon="30.7554">
        <ele>55.352146</ele>
        <time>2022-02-25T20:42:31.747Z</time>
      </trkpt>
      <trkpt lat="36.92618" lon="30.7546">
        <ele>55.585824</ele>
        <time>2022-02-25T20:42:52.462Z</time>
      </trkpt>
      <trkpt lat="36.92607" lon="30.75434">
        <ele>55.662424</ele>
        <time>2022-02-25T20:42:59.527Z</time>
      </trkpt>
      <trkpt lat="36.92532" lon="30.7526">
        <ele>56.593389</ele>
        <time>2022-02-25T20:43:47.367Z</time>
      </trkpt>
      <trkpt lat="36.9252" lon="30.75206">
        <ele>56.885789</ele>
        <time>2022-02-25T20:44:00.568Z</time>
      </trkpt>
      <trkpt lat="36.92522" lon="30.75201">
        <ele>56.915223</ele>
        <time>2022-02-25T20:44:01.848Z</time>
      </trkpt>
      <trkpt lat="36.92518" lon="30.75185">
        <ele>56.919508</ele>
        <time>2022-02-25T20:44:05.620Z</time>
      </trkpt>
      <trkpt lat="36.92515" lon="30.75181">
        <ele>56.916973</ele>
        <time>2022-02-25T20:44:06.898Z</time>
      </trkpt>
      <trkpt lat="36.92511" lon="30.75179">
        <ele>56.914636</ele>
        <time>2022-02-25T20:44:08.072Z</time>
      </trkpt>
      <trkpt lat="36.92507" lon="30.75178">
        <ele>56.912309</ele>
        <time>2022-02-25T20:44:09.277Z</time>
      </trkpt>
      <trkpt lat="36.92474" lon="30.75143">
        <ele>56.887756</ele>
        <time>2022-02-25T20:44:21.537Z</time>
      </trkpt>
      <trkpt lat="36.92398" lon="30.75026">
        <ele>56.811428</ele>
        <time>2022-02-25T20:44:52.032Z</time>
      </trkpt>
      <trkpt lat="36.92393" lon="30.75018">
        <ele>56.799905</ele>
        <time>2022-02-25T20:44:53.880Z</time>
      </trkpt>
      <trkpt lat="36.92383" lon="30.75002">
        <ele>56.774956</ele>
        <time>2022-02-25T20:44:57.962Z</time>
      </trkpt>
      <trkpt lat="36.92325" lon="30.74907">
        <ele>56.629066</ele>
        <time>2022-02-25T20:45:22.352Z</time>
      </trkpt>
      <trkpt lat="36.92267" lon="30.74812">
        <ele>56.741394</ele>
        <time>2022-02-25T20:45:48.692Z</time>
      </trkpt>
      <trkpt lat="36.92182" lon="30.74675">
        <ele>57.324653</ele>
        <time>2022-02-25T20:46:29.481Z</time>
      </trkpt>
      <trkpt lat="36.92181" lon="30.74665">
        <ele>57.316324</ele>
        <time>2022-02-25T20:46:32.038Z</time>
      </trkpt>
      <trkpt lat="36.92181" lon="30.74658">
        <ele>57.311303</ele>
        <time>2022-02-25T20:46:33.382Z</time>
      </trkpt>
      <trkpt lat="36.92172" lon="30.74645">
        <ele>57.296822</ele>
        <time>2022-02-25T20:46:37.356Z</time>
      </trkpt>
      <trkpt lat="36.92167" lon="30.74643">
        <ele>57.291836</ele>
        <time>2022-02-25T20:46:38.734Z</time>
      </trkpt>
      <trkpt lat="36.9215" lon="30.74634">
        <ele>57.273104</ele>
        <time>2022-02-25T20:46:43.936Z</time>
      </trkpt>
      <trkpt lat="36.92097" lon="30.74583">
        <ele>57.205552</ele>
        <time>2022-02-25T20:47:01.670Z</time>
      </trkpt>
      <trkpt lat="36.92034" lon="30.74514">
        <ele>57.050768</ele>
        <time>2022-02-25T20:47:22.173Z</time>
      </trkpt>
      <trkpt lat="36.92006" lon="30.74483">
        <ele>56.910673</ele>
        <time>2022-02-25T20:47:31.122Z</time>
      </trkpt>
      <trkpt lat="36.91971" lon="30.74445">
        <ele>56.734368</ele>
        <time>2022-02-25T20:47:42.513Z</time>
      </trkpt>
      <trkpt lat="36.91892" lon="30.74343">
        <ele>56.590501</ele>
        <time>2022-02-25T20:48:11.823Z</time>
      </trkpt>
      <trkpt lat="36.91797" lon="30.74134">
        <ele>57.131086</ele>
        <time>2022-02-25T20:49:07.540Z</time>
      </trkpt>
      <trkpt lat="36.91785" lon="30.74089">
        <ele>57.216421</ele>
        <time>2022-02-25T20:49:18.239Z</time>
      </trkpt>
      <trkpt lat="36.91786" lon="30.74084">
        <ele>57.22556</ele>
        <time>2022-02-25T20:49:19.448Z</time>
      </trkpt>
      <trkpt lat="36.91783" lon="30.7407">
        <ele>57.25215</ele>
        <time>2022-02-25T20:49:22.652Z</time>
      </trkpt>
      <trkpt lat="36.9178" lon="30.74067">
        <ele>57.261463</ele>
        <time>2022-02-25T20:49:23.860Z</time>
      </trkpt>
      <trkpt lat="36.91776" lon="30.74065">
        <ele>57.271402</ele>
        <time>2022-02-25T20:49:25.061Z</time>
      </trkpt>
      <trkpt lat="36.91771" lon="30.74065">
        <ele>57.28141</ele>
        <time>2022-02-25T20:49:26.193Z</time>
      </trkpt>
      <trkpt lat="36.91767" lon="30.74067">
        <ele>57.291607</ele>
        <time>2022-02-25T20:49:27.309Z</time>
      </trkpt>
      <trkpt lat="36.91744" lon="30.7407">
        <ele>57.343867</ele>
        <time>2022-02-25T20:49:33.508Z</time>
      </trkpt>
      <trkpt lat="36.91705" lon="30.74066">
        <ele>57.399455</ele>
        <time>2022-02-25T20:49:44.084Z</time>
      </trkpt>
      <trkpt lat="36.91695" lon="30.74063">
        <ele>57.379606</ele>
        <time>2022-02-25T20:49:46.557Z</time>
      </trkpt>
      <trkpt lat="36.91702" lon="30.74031">
        <ele>57.326832</ele>
        <time>2022-02-25T20:49:53.910Z</time>
      </trkpt>
      <trkpt lat="36.91628" lon="30.74014">
        <ele>57.178177</ele>
        <time>2022-02-25T20:50:13.474Z</time>
      </trkpt>
      <trkpt lat="36.91632" lon="30.7397">
        <ele>57.10848</ele>
        <time>2022-02-25T20:50:23.091Z</time>
      </trkpt>
      <trkpt lat="36.91561" lon="30.7395">
        <ele>57.421259</ele>
        <time>2022-02-25T20:50:42.637Z</time>
      </trkpt>
      <trkpt lat="36.91552" lon="30.73914">
        <ele>57.652509</ele>
        <time>2022-02-25T20:50:51.686Z</time>
      </trkpt>
      <trkpt lat="36.91539" lon="30.73861">
        <ele>57.994888</ele>
        <time>2022-02-25T20:51:06.972Z</time>
      </trkpt>
      <trkpt lat="36.91521" lon="30.73801">
        <ele>58.385276</ele>
        <time>2022-02-25T20:51:24.255Z</time>
      </trkpt>
      <trkpt lat="36.91511" lon="30.73747">
        <ele>58.667967</ele>
        <time>2022-02-25T20:51:39.807Z</time>
      </trkpt>
      <trkpt lat="36.91494" lon="30.73692">
        <ele>58.948781</ele>
        <time>2022-02-25T20:51:55.048Z</time>
      </trkpt>
      <trkpt lat="36.91484" lon="30.73656">
        <ele>59.136891</ele>
        <time>2022-02-25T20:52:04.200Z</time>
      </trkpt>
      <trkpt lat="36.91462" lon="30.73583">
        <ele>59.513111</ele>
        <time>2022-02-25T20:52:22.071Z</time>
      </trkpt>
      <trkpt lat="36.91437" lon="30.73498">
        <ele>59.086673</ele>
        <time>2022-02-25T20:52:40.773Z</time>
      </trkpt>
      <trkpt lat="36.91432" lon="30.73487">
        <ele>59.025043</ele>
        <time>2022-02-25T20:52:43.065Z</time>
      </trkpt>
      <trkpt lat="36.91412" lon="30.73434">
        <ele>58.733473</ele>
        <time>2022-02-25T20:52:54.439Z</time>
      </trkpt>
      <trkpt lat="36.91405" lon="30.73417">
        <ele>58.637639</ele>
        <time>2022-02-25T20:52:58.408Z</time>
      </trkpt>
      <trkpt lat="36.91398" lon="30.73388">
        <ele>58.486153</ele>
        <time>2022-02-25T20:53:04.334Z</time>
      </trkpt>
      <trkpt lat="36.91396" lon="30.73377">
        <ele>58.427879</ele>
        <time>2022-02-25T20:53:06.804Z</time>
      </trkpt>
      <trkpt lat="36.91393" lon="30.7332">
        <ele>58.270437</ele>
        <time>2022-02-25T20:53:18.277Z</time>
      </trkpt>
      <trkpt lat="36.9139" lon="30.73259">
        <ele>58.114757</ele>
        <time>2022-02-25T20:53:30.780Z</time>
      </trkpt>
      <trkpt lat="36.9139" lon="30.73242">
        <ele>58.069359</ele>
        <time>2022-02-25T20:53:34.629Z</time>
      </trkpt>
      <trkpt lat="36.91388" lon="30.7323">
        <ele>58.038763</ele>
        <time>2022-02-25T20:53:37.271Z</time>
      </trkpt>
      <trkpt lat="36.91376" lon="30.73133">
        <ele>57.809894</ele>
        <time>2022-02-25T20:53:59.368Z</time>
      </trkpt>
      <trkpt lat="36.91376" lon="30.73124">
        <ele>57.799501</ele>
        <time>2022-02-25T20:54:01.271Z</time>
      </trkpt>
      <trkpt lat="36.91381" lon="30.73041">
        <ele>57.703948</ele>
        <time>2022-02-25T20:54:18.924Z</time>
      </trkpt>
      <trkpt lat="36.91383" lon="30.73026">
        <ele>57.685696</ele>
        <time>2022-02-25T20:54:22.233Z</time>
      </trkpt>
      <trkpt lat="36.91386" lon="30.72997">
        <ele>57.652687</ele>
        <time>2022-02-25T20:54:28.264Z</time>
      </trkpt>
      <trkpt lat="36.91391" lon="30.72897">
        <ele>57.5981</ele>
        <time>2022-02-25T20:54:50.149Z</time>
      </trkpt>
      <trkpt lat="36.91393" lon="30.72873">
        <ele>57.624853</ele>
        <time>2022-02-25T20:54:55.725Z</time>
      </trkpt>
      <trkpt lat="36.91399" lon="30.72781">
        <ele>57.724</ele>
        <time>2022-02-25T20:55:16.958Z</time>
      </trkpt>
      <trkpt lat="36.91407" lon="30.72656">
        <ele>57.831578</ele>
        <time>2022-02-25T20:55:45.793Z</time>
      </trkpt>
      <trkpt lat="36.91406" lon="30.72612">
        <ele>57.851505</ele>
        <time>2022-02-25T20:55:55.796Z</time>
      </trkpt>
      <trkpt lat="36.91404" lon="30.72564">
        <ele>57.872901</ele>
        <time>2022-02-25T20:56:06.276Z</time>
      </trkpt>
      <trkpt lat="36.91405" lon="30.72475">
        <ele>57.91368</ele>
        <time>2022-02-25T20:56:26.110Z</time>
      </trkpt>
      <trkpt lat="36.91415" lon="30.72424">
        <ele>57.966785</ele>
        <time>2022-02-25T20:56:37.850Z</time>
      </trkpt>
      <trkpt lat="36.91419" lon="30.72363">
        <ele>58.028678</ele>
        <time>2022-02-25T20:56:52.019Z</time>
      </trkpt>
      <trkpt lat="36.91413" lon="30.72354">
        <ele>58.041134</ele>
        <time>2022-02-25T20:56:54.784Z</time>
      </trkpt>
      <trkpt lat="36.91374" lon="30.7231">
        <ele>58.106732</ele>
        <time>2022-02-25T20:57:09.225Z</time>
      </trkpt>
      <trkpt lat="36.91383" lon="30.72208">
        <ele>58.26491</ele>
        <time>2022-02-25T20:57:33.420Z</time>
      </trkpt>
      <trkpt lat="36.91384" lon="30.72151">
        <ele>58.366665</ele>
        <time>2022-02-25T20:57:46.828Z</time>
      </trkpt>
      <trkpt lat="36.91388" lon="30.72076">
        <ele>58.501545</ele>
        <time>2022-02-25T20:58:04.149Z</time>
      </trkpt>
      <trkpt lat="36.91384" lon="30.72037">
        <ele>58.544448</ele>
        <time>2022-02-25T20:58:12.783Z</time>
      </trkpt>
      <trkpt lat="36.91381" lon="30.71996">
        <ele>58.546292</ele>
        <time>2022-02-25T20:58:21.561Z</time>
      </trkpt>
      <trkpt lat="36.91379" lon="30.71972">
        <ele>58.54738</ele>
        <time>2022-02-25T20:58:26.785Z</time>
      </trkpt>
      <trkpt lat="36.91373" lon="30.71841">
        <ele>58.553254</ele>
        <time>2022-02-25T20:58:56.679Z</time>
      </trkpt>
      <trkpt lat="36.91389" lon="30.71724">
        <ele>58.559514</ele>
        <time>2022-02-25T20:59:22.747Z</time>
      </trkpt>
      <trkpt lat="36.91346" lon="30.71723">
        <ele>58.562374</ele>
        <time>2022-02-25T20:59:34.649Z</time>
      </trkpt>
      <trkpt lat="36.91341" lon="30.71664">
        <ele>58.565544</ele>
        <time>2022-02-25T20:59:47.592Z</time>
      </trkpt>
      <trkpt lat="36.91339" lon="30.71632">
        <ele>58.507559</ele>
        <time>2022-02-25T20:59:54.549Z</time>
      </trkpt>
      <trkpt lat="36.91337" lon="30.71608">
        <ele>58.455826</ele>
        <time>2022-02-25T20:59:59.576Z</time>
      </trkpt>
      <trkpt lat="36.91334" lon="30.71554">
        <ele>58.334423</ele>
        <time>2022-02-25T21:00:11.196Z</time>
      </trkpt>
      <trkpt lat="36.91333" lon="30.7155">
        <ele>58.325976</ele>
        <time>2022-02-25T21:00:12.003Z</time>
      </trkpt>
      <trkpt lat="36.91333" lon="30.71525">
        <ele>58.271603</ele>
        <time>2022-02-25T21:00:17.081Z</time>
      </trkpt>
      <trkpt lat="36.91332" lon="30.71514">
        <ele>58.246756</ele>
        <time>2022-02-25T21:00:19.375Z</time>
      </trkpt>
      <trkpt lat="36.91296" lon="30.71517">
        <ele>58.147013</ele>
        <time>2022-02-25T21:00:28.307Z</time>
      </trkpt>
      <trkpt lat="36.91261" lon="30.71518">
        <ele>58.012194</ele>
        <time>2022-02-25T21:00:36.279Z</time>
      </trkpt>
      <trkpt lat="36.9124" lon="30.71518">
        <ele>57.804818</ele>
        <time>2022-02-25T21:00:41.503Z</time>
      </trkpt>
      <trkpt lat="36.91222" lon="30.71424">
        <ele>57.052183</ele>
        <time>2022-02-25T21:00:59.315Z</time>
      </trkpt>
      <trkpt lat="36.91214" lon="30.71368">
        <ele>56.611413</ele>
        <time>2022-02-25T21:01:09.553Z</time>
      </trkpt>
      <trkpt lat="36.91197" lon="30.7135">
        <ele>56.390628</ele>
        <time>2022-02-25T21:01:15.177Z</time>
      </trkpt>
      <trkpt lat="36.91127" lon="30.7131">
        <ele>56.001288</ele>
        <time>2022-02-25T21:01:33.644Z</time>
      </trkpt>
      <trkpt lat="36.91099" lon="30.7129">
        <ele>55.853945</ele>
        <time>2022-02-25T21:01:41.847Z</time>
      </trkpt>
      <trkpt lat="36.91063" lon="30.71252">
        <ele>55.639085</ele>
        <time>2022-02-25T21:01:55.116Z</time>
      </trkpt>
      <trkpt lat="36.91008" lon="30.71201">
        <ele>55.56346</ele>
        <time>2022-02-25T21:02:14.807Z</time>
      </trkpt>
      <trkpt lat="36.9099" lon="30.71182">
        <ele>55.606946</ele>
        <time>2022-02-25T21:02:21.677Z</time>
      </trkpt>
      <trkpt lat="36.91002" lon="30.7116">
        <ele>55.646597</ele>
        <time>2022-02-25T21:02:28.243Z</time>
      </trkpt>
      <trkpt lat="36.91008" lon="30.71138">
        <ele>55.681365</ele>
        <time>2022-02-25T21:02:33.681Z</time>
      </trkpt>
      <trkpt lat="36.91009" lon="30.71121">
        <ele>55.705815</ele>
        <time>2022-02-25T21:02:37.673Z</time>
      </trkpt>
      <trkpt lat="36.91016" lon="30.71058">
        <ele>55.800674</ele>
        <time>2022-02-25T21:02:51.872Z</time>
      </trkpt>
      <trkpt lat="36.91007" lon="30.71049">
        <ele>55.821965</ele>
        <time>2022-02-25T21:02:55.113Z</time>
      </trkpt>
      <trkpt lat="36.90985" lon="30.71031">
        <ele>55.784404</ele>
        <time>2022-02-25T21:03:02.113Z</time>
      </trkpt>
      <trkpt lat="36.9097" lon="30.71008">
        <ele>55.737349</ele>
        <time>2022-02-25T21:03:08.575Z</time>
      </trkpt>
      <trkpt lat="36.90961" lon="30.70974">
        <ele>55.679535</ele>
        <time>2022-02-25T21:03:16.348Z</time>
      </trkpt>
      <trkpt lat="36.9096" lon="30.70964">
        <ele>55.663387</ele>
        <time>2022-02-25T21:03:18.485Z</time>
      </trkpt>
      <trkpt lat="36.90939" lon="30.70901">
        <ele>55.556229</ele>
        <time>2022-02-25T21:03:32.753Z</time>
      </trkpt>
      <trkpt lat="36.90933" lon="30.70883">
        <ele>55.524262</ele>
        <time>2022-02-25T21:03:36.975Z</time>
      </trkpt>
      <trkpt lat="36.90914" lon="30.70815">
        <ele>55.461247</ele>
        <time>2022-02-25T21:03:52.231Z</time>
      </trkpt>
      <trkpt lat="36.90905" lon="30.70768">
        <ele>55.449382</ele>
        <time>2022-02-25T21:04:02.768Z</time>
      </trkpt>
      <trkpt lat="36.90897" lon="30.70699">
        <ele>55.432422</ele>
        <time>2022-02-25T21:04:18.320Z</time>
      </trkpt>
      <trkpt lat="36.90889" lon="30.70653">
        <ele>55.420864</ele>
        <time>2022-02-25T21:04:29.336Z</time>
      </trkpt>
      <trkpt lat="36.90874" lon="30.70591">
        <ele>55.433502</ele>
        <time>2022-02-25T21:04:44.176Z</time>
      </trkpt>
      <trkpt lat="36.90824" lon="30.70601">
        <ele>55.459888</ele>
        <time>2022-02-25T21:04:58.264Z</time>
      </trkpt>
      <trkpt lat="36.9082" lon="30.70523">
        <ele>55.492344</ele>
        <time>2022-02-25T21:05:15.546Z</time>
      </trkpt>
      <trkpt lat="36.90817" lon="30.70484">
        <ele>55.508513</ele>
        <time>2022-02-25T21:05:23.815Z</time>
      </trkpt>
      <trkpt lat="36.90815" lon="30.70472">
        <ele>55.502674</ele>
        <time>2022-02-25T21:05:26.274Z</time>
      </trkpt>
      <trkpt lat="36.90799" lon="30.70403">
        <ele>55.467868</ele>
        <time>2022-02-25T21:05:40.826Z</time>
      </trkpt>
      <trkpt lat="36.90793" lon="30.70385">
        <ele>55.458102</ele>
        <time>2022-02-25T21:05:44.962Z</time>
      </trkpt>
      <trkpt lat="36.90776" lon="30.70334">
        <ele>55.430848</ele>
        <time>2022-02-25T21:05:56.455Z</time>
      </trkpt>
      <trkpt lat="36.90773" lon="30.70329">
        <ele>55.428232</ele>
        <time>2022-02-25T21:05:57.565Z</time>
      </trkpt>
      <trkpt lat="36.90751" lon="30.70256">
        <ele>55.48693</ele>
        <time>2022-02-25T21:06:14.704Z</time>
      </trkpt>
      <trkpt lat="36.90739" lon="30.70213">
        <ele>55.699022</ele>
        <time>2022-02-25T21:06:24.993Z</time>
      </trkpt>
      <trkpt lat="36.90723" lon="30.70156">
        <ele>55.983975</ele>
        <time>2022-02-25T21:06:39.239Z</time>
      </trkpt>
      <trkpt lat="36.90725" lon="30.7012">
        <ele>56.156035</ele>
        <time>2022-02-25T21:06:48.103Z</time>
      </trkpt>
      <trkpt lat="36.90729" lon="30.70075">
        <ele>56.370187</ele>
        <time>2022-02-25T21:06:59.117Z</time>
      </trkpt>
      <trkpt lat="36.90733" lon="30.70025">
        <ele>56.673836</ele>
        <time>2022-02-25T21:07:11.413Z</time>
      </trkpt>
      <trkpt lat="36.90731" lon="30.70019">
        <ele>56.717515</ele>
        <time>2022-02-25T21:07:13.078Z</time>
      </trkpt>
      <trkpt lat="36.90729" lon="30.69997">
        <ele>56.871761</ele>
        <time>2022-02-25T21:07:18.725Z</time>
      </trkpt>
      <trkpt lat="36.90728" lon="30.6998">
        <ele>56.993113</ele>
        <time>2022-02-25T21:07:22.891Z</time>
      </trkpt>
      <trkpt lat="36.90729" lon="30.69963">
        <ele>57.113329</ele>
        <time>2022-02-25T21:07:27.531Z</time>
      </trkpt>
      <trkpt lat="36.90732" lon="30.69961">
        <ele>57.139755</ele>
        <time>2022-02-25T21:07:28.323Z</time>
      </trkpt>
      <trkpt lat="36.90733" lon="30.69944">
        <ele>57.259592</ele>
        <time>2022-02-25T21:07:32.717Z</time>
      </trkpt>
      <trkpt lat="36.90732" lon="30.69941">
        <ele>57.285248</ele>
        <time>2022-02-25T21:07:33.534Z</time>
      </trkpt>
      <trkpt lat="36.90729" lon="30.69939">
        <ele>57.310985</ele>
        <time>2022-02-25T21:07:34.454Z</time>
      </trkpt>
      <trkpt lat="36.90724" lon="30.69937">
        <ele>57.361696</ele>
        <time>2022-02-25T21:07:36.542Z</time>
      </trkpt>
      <trkpt lat="36.90721" lon="30.69937">
        <ele>57.388146</ele>
        <time>2022-02-25T21:07:37.508Z</time>
      </trkpt>
      <trkpt lat="36.90712" lon="30.69941">
        <ele>57.473741</ele>
        <time>2022-02-25T21:07:40.733Z</time>
      </trkpt>
      <trkpt lat="36.9069" lon="30.69957">
        <ele>57.689522</ele>
        <time>2022-02-25T21:07:48.654Z</time>
      </trkpt>
      <trkpt lat="36.90599" lon="30.69993">
        <ele>57.923426</ele>
        <time>2022-02-25T21:08:16.399Z</time>
      </trkpt>
      <trkpt lat="36.90598" lon="30.69946">
        <ele>57.848158</ele>
        <time>2022-02-25T21:08:26.497Z</time>
      </trkpt>
      <trkpt lat="36.90549" lon="30.69935">
        <ele>57.75003</ele>
        <time>2022-02-25T21:08:39.193Z</time>
      </trkpt>
      <trkpt lat="36.90501" lon="30.69926">
        <ele>57.550096</ele>
        <time>2022-02-25T21:08:51.269Z</time>
      </trkpt>
      <trkpt lat="36.90483" lon="30.69902">
        <ele>57.267599</ele>
        <time>2022-02-25T21:08:57.618Z</time>
      </trkpt>
      <trkpt lat="36.90474" lon="30.69872">
        <ele>56.993114</ele>
        <time>2022-02-25T21:09:03.646Z</time>
      </trkpt>
      <trkpt lat="36.90459" lon="30.69841">
        <ele>56.676176</ele>
        <time>2022-02-25T21:09:10.459Z</time>
      </trkpt>
      <trkpt lat="36.90445" lon="30.69801">
        <ele>56.310145</ele>
        <time>2022-02-25T21:09:18.385Z</time>
      </trkpt>
      <trkpt lat="36.90427" lon="30.69797">
        <ele>56.114173</ele>
        <time>2022-02-25T21:09:22.679Z</time>
      </trkpt>
      <trkpt lat="36.90412" lon="30.69795">
        <ele>55.946959</ele>
        <time>2022-02-25T21:09:26.409Z</time>
      </trkpt>
      <trkpt lat="36.90377" lon="30.6979">
        <ele>55.686388</ele>
        <time>2022-02-25T21:09:35.035Z</time>
      </trkpt>
      <trkpt lat="36.90362" lon="30.69795">
        <ele>55.632434</ele>
        <time>2022-02-25T21:09:39.034Z</time>
      </trkpt>
      <trkpt lat="36.90341" lon="30.69807">
        <ele>55.553342</ele>
        <time>2022-02-25T21:09:45.255Z</time>
      </trkpt>
      <trkpt lat="36.90316" lon="30.69821">
        <ele>55.459865</ele>
        <time>2022-02-25T21:09:52.480Z</time>
      </trkpt>
      <trkpt lat="36.90282" lon="30.69832">
        <ele>55.340068</ele>
        <time>2022-02-25T21:10:01.929Z</time>
      </trkpt>
      <trkpt lat="36.90267" lon="30.69833">
        <ele>55.291024</ele>
        <time>2022-02-25T21:10:06.024Z</time>
      </trkpt>
      <trkpt lat="36.90219" lon="30.69843">
        <ele>55.123527</ele>
        <time>2022-02-25T21:10:19.314Z</time>
      </trkpt>
      <trkpt lat="36.902" lon="30.69844">
        <ele>55.063038</ele>
        <time>2022-02-25T21:10:24.842Z</time>
      </trkpt>
      <trkpt lat="36.9018" lon="30.69813">
        <ele>54.962763</ele>
        <time>2022-02-25T21:10:33.122Z</time>
      </trkpt>
      <trkpt lat="36.90159" lon="30.69774">
        <ele>54.845395</ele>
        <time>2022-02-25T21:10:42.568Z</time>
      </trkpt>
      <trkpt lat="36.90133" lon="30.6969">
        <ele>54.620322</ele>
        <time>2022-02-25T21:11:00.064Z</time>
      </trkpt>
      <trkpt lat="36.90126" lon="30.69669">
        <ele>54.563487</ele>
        <time>2022-02-25T21:11:04.917Z</time>
      </trkpt>
      <trkpt lat="36.90101" lon="30.69623">
        <ele>54.613524</ele>
        <time>2022-02-25T21:11:16.212Z</time>
      </trkpt>
      <trkpt lat="36.90103" lon="30.6961">
        <ele>54.625305</ele>
        <time>2022-02-25T21:11:18.815Z</time>
      </trkpt>
      <trkpt lat="36.90101" lon="30.69577">
        <ele>54.655567</ele>
        <time>2022-02-25T21:11:26.247Z</time>
      </trkpt>
      <trkpt lat="36.90105" lon="30.69562">
        <ele>54.669993</ele>
        <time>2022-02-25T21:11:29.708Z</time>
      </trkpt>
      <trkpt lat="36.90107" lon="30.69559">
        <ele>54.673487</ele>
        <time>2022-02-25T21:11:30.657Z</time>
      </trkpt>
      <trkpt lat="36.90108" lon="30.69556">
        <ele>54.677007</ele>
        <time>2022-02-25T21:11:31.636Z</time>
      </trkpt>
      <trkpt lat="36.90109" lon="30.69552">
        <ele>54.680569</ele>
        <time>2022-02-25T21:11:32.592Z</time>
      </trkpt>
      <trkpt lat="36.90109" lon="30.69548">
        <ele>54.684104</ele>
        <time>2022-02-25T21:11:33.439Z</time>
      </trkpt>
      <trkpt lat="36.90105" lon="30.69538">
        <ele>54.694405</ele>
        <time>2022-02-25T21:11:35.929Z</time>
      </trkpt>
      <trkpt lat="36.90102" lon="30.69536">
        <ele>54.697917</ele>
        <time>2022-02-25T21:11:36.752Z</time>
      </trkpt>
      <trkpt lat="36.90099" lon="30.69535">
        <ele>54.701436</ele>
        <time>2022-02-25T21:11:37.565Z</time>
      </trkpt>
      <trkpt lat="36.90096" lon="30.69535">
        <ele>54.704951</ele>
        <time>2022-02-25T21:11:38.383Z</time>
      </trkpt>
      <trkpt lat="36.90082" lon="30.69529">
        <ele>54.721787</ele>
        <time>2022-02-25T21:11:43.076Z</time>
      </trkpt>
      <trkpt lat="36.89943" lon="30.69403">
        <ele>54.626287</ele>
        <time>2022-02-25T21:12:30.967Z</time>
      </trkpt>
      <trkpt lat="36.89937" lon="30.69384">
        <ele>54.608766</ele>
        <time>2022-02-25T21:12:34.959Z</time>
      </trkpt>
      <trkpt lat="36.89936" lon="30.6938">
        <ele>54.60532</ele>
        <time>2022-02-25T21:12:35.766Z</time>
      </trkpt>
      <trkpt lat="36.89935" lon="30.69376">
        <ele>54.601807</ele>
        <time>2022-02-25T21:12:36.578Z</time>
      </trkpt>
      <trkpt lat="36.89937" lon="30.69361">
        <ele>54.589052</ele>
        <time>2022-02-25T21:12:39.410Z</time>
      </trkpt>
      <trkpt lat="36.89938" lon="30.69354">
        <ele>54.5827</ele>
        <time>2022-02-25T21:12:40.552Z</time>
      </trkpt>
      <trkpt lat="36.89949" lon="30.6917">
        <ele>53.601271</ele>
        <time>2022-02-25T21:13:14.590Z</time>
      </trkpt>
      <trkpt lat="36.89957" lon="30.69146">
        <ele>53.455869</ele>
        <time>2022-02-25T21:13:19.879Z</time>
      </trkpt>
      <trkpt lat="36.90068" lon="30.68947">
        <ele>53.953742</ele>
        <time>2022-02-25T21:14:15.126Z</time>
      </trkpt>
      <trkpt lat="36.90079" lon="30.68925">
        <ele>54.056051</ele>
        <time>2022-02-25T21:14:22.016Z</time>
      </trkpt>
      <trkpt lat="36.9009" lon="30.68935">
        <ele>54.126631</ele>
        <time>2022-02-25T21:14:25.627Z</time>
      </trkpt>
      <trkpt lat="36.90116" lon="30.68956">
        <ele>54.295387</ele>
        <time>2022-02-25T21:14:35.620Z</time>
      </trkpt>
      <trkpt lat="36.90164" lon="30.68997">
        <ele>54.608313</ele>
        <time>2022-02-25T21:14:54.346Z</time>
      </trkpt>
      <trkpt lat="36.90113" lon="30.69097">
        <ele>54.826719</ele>
        <time>2022-02-25T21:15:20.710Z</time>
      </trkpt>
      <trkpt lat="36.90142" lon="30.69119">
        <ele>54.698548</ele>
        <time>2022-02-25T21:15:29.830Z</time>
      </trkpt>
      <trkpt lat="36.90055" lon="30.69291">
        <ele>54.273343</ele>
        <time>2022-02-25T21:16:11.531Z</time>
      </trkpt>
      <trkpt lat="36.90022" lon="30.69269">
        <ele>54.273343</ele>
        <time>2022-02-25T21:16:21.105Z</time>
      </trkpt>
      <trkpt lat="36.89987" lon="30.69341">
        <ele>54.273343</ele>
        <time>2022-02-25T21:16:39.716Z</time>
      </trkpt>
      <trkpt lat="36.90071" lon="30.69405">
        <ele>54.273343</ele>
        <time>2022-02-25T21:17:09.366Z</time>
      </trkpt>
      <trkpt lat="36.89114" lon="30.70588">
        <ele>83.074206</ele>
        <time>2022-01-19T06:43:47.684Z</time>
      </trkpt>
      <trkpt lat="36.89128" lon="30.70445">
        <ele>88.157272</ele>
        <time>2022-01-19T06:56:27.348Z</time>
      </trkpt>
      <trkpt lat="36.89105" lon="30.70197">
        <ele>114.825378</ele>
        <time>2022-01-19T06:57:31.338Z</time>
      </trkpt>
      <trkpt lat="36.89018" lon="30.69949">
        <ele>110.876347</ele>
        <time>2022-01-19T06:58:15.333Z</time>
      </trkpt>
      <trkpt lat="36.88955" lon="30.69703">
        <ele>96.584732</ele>
        <time>2022-01-19T06:58:58.355Z</time>
      </trkpt>
      <trkpt lat="36.88906" lon="30.69424">
        <ele>104.296588</ele>
        <time>2022-01-19T07:00:29.329Z</time>
      </trkpt>
      <trkpt lat="36.88803" lon="30.69279">
        <ele>104.134262</ele>
        <time>2022-01-19T07:01:28.339Z</time>
      </trkpt>
      <trkpt lat="36.88609" lon="30.69375">
        <ele>94.417226</ele>
        <time>2022-01-19T07:02:16.351Z</time>
      </trkpt>
      <trkpt lat="36.88534" lon="30.69218">
        <ele>68.625158</ele>
        <time>2022-01-19T07:03:22.342Z</time>
      </trkpt>
      <trkpt lat="36.88523" lon="30.68915">
        <ele>40.469746</ele>
        <time>2022-01-19T07:04:20.329Z</time>
      </trkpt>
      <trkpt lat="36.88499" lon="30.68618">
        <ele>46.271811</ele>
        <time>2022-01-19T07:05:20.356Z</time>
      </trkpt>
      <trkpt lat="36.88492" lon="30.68337">
        <ele>53.024796</ele>
        <time>2022-01-19T07:06:16.367Z</time>
      </trkpt>
      <trkpt lat="36.88494" lon="30.68046">
        <ele>53.23427</ele>
        <time>2022-01-19T07:07:10.331Z</time>
      </trkpt>
      <trkpt lat="36.88496" lon="30.67774">
        <ele>56.88253</ele>
        <time>2022-01-19T07:13:24.346Z</time>
      </trkpt>
      <trkpt lat="36.8842" lon="30.67831">
        <ele>42.6371</ele>
        <time>2022-01-19T07:14:36.358Z</time>
      </trkpt>
      <trkpt lat="36.88382" lon="30.67599">
        <ele>36.39079</ele>
        <time>2022-01-19T07:15:49.357Z</time>
      </trkpt>
      <trkpt lat="36.88267" lon="30.67374">
        <ele>29.629494</ele>
        <time>2022-01-19T07:16:51.343Z</time>
      </trkpt>
      <trkpt lat="36.8815" lon="30.67112">
        <ele>33.901043</ele>
        <time>2022-01-19T07:17:54.363Z</time>
      </trkpt>
      <trkpt lat="36.88044" lon="30.66851">
        <ele>32.269595</ele>
        <time>2022-01-19T07:18:54.372Z</time>
      </trkpt>
      <trkpt lat="36.87922" lon="30.6662">
        <ele>28.776718</ele>
        <time>2022-01-19T07:22:18.359Z</time>
      </trkpt>
      <trkpt lat="36.87783" lon="30.66393">
        <ele>29.767802</ele>
        <time>2022-01-19T07:23:18.367Z</time>
      </trkpt>
      <trkpt lat="36.8771" lon="30.66176">
        <ele>29.146908</ele>
        <time>2022-01-19T07:24:19.358Z</time>
      </trkpt>
      <trkpt lat="36.87583" lon="30.65955">
        <ele>30.648515</ele>
        <time>2022-01-19T07:25:32.361Z</time>
      </trkpt>
      <trkpt lat="36.8742" lon="30.65762">
        <ele>30.128012</ele>
        <time>2022-01-19T07:26:32.402Z</time>
      </trkpt>
      <trkpt lat="36.87276" lon="30.65534">
        <ele>33.60643</ele>
        <time>2022-01-19T07:27:32.376Z</time>
      </trkpt>
      <trkpt lat="36.87125" lon="30.65304">
        <ele>34.776555</ele>
        <time>2022-01-19T07:28:32.368Z</time>
      </trkpt>
      <trkpt lat="36.86978" lon="30.65076">
        <ele>30.952294</ele>
        <time>2022-01-19T07:29:35.363Z</time>
      </trkpt>
      <trkpt lat="36.8683" lon="30.6485">
        <ele>33.096074</ele>
        <time>2022-01-19T07:30:32.374Z</time>
      </trkpt>
      <trkpt lat="36.86685" lon="30.64655">
        <ele>31.673901</ele>
        <time>2022-01-19T07:40:59.381Z</time>
      </trkpt>
      <trkpt lat="36.86616" lon="30.64523">
        <ele>32.102893</ele>
        <time>2022-01-19T07:54:21.359Z</time>
      </trkpt>
      <trkpt lat="36.86488" lon="30.6433">
        <ele>32.773269</ele>
        <time>2022-01-19T07:55:21.372Z</time>
      </trkpt>
      <trkpt lat="36.86342" lon="30.64102">
        <ele>34.571566</ele>
        <time>2022-01-19T07:56:24.354Z</time>
      </trkpt>
      <trkpt lat="36.86204" lon="30.63863">
        <ele>36.870672</ele>
        <time>2022-01-19T07:57:22.371Z</time>
      </trkpt>
      <trkpt lat="36.86075" lon="30.63626">
        <ele>37.864899</ele>
        <time>2022-01-19T07:58:20.396Z</time>
      </trkpt>
      <trkpt lat="36.85929" lon="30.63393">
        <ele>34.066192</ele>
        <time>2022-01-19T07:59:18.396Z</time>
      </trkpt>
      <trkpt lat="36.85763" lon="30.63177">
        <ele>30.49008</ele>
        <time>2022-01-19T08:00:18.371Z</time>
      </trkpt>
      <trkpt lat="36.85609" lon="30.62975">
        <ele>32.443409</ele>
        <time>2022-01-19T08:01:18.383Z</time>
      </trkpt>
      <trkpt lat="36.85449" lon="30.62774">
        <ele>32.011091</ele>
        <time>2022-01-19T08:02:18.378Z</time>
      </trkpt>
      <trkpt lat="36.85291" lon="30.62577">
        <ele>26.683512</ele>
        <time>2022-01-19T08:03:17.387Z</time>
      </trkpt>
      <trkpt lat="36.85151" lon="30.62363">
        <ele>21.922794</ele>
        <time>2022-01-19T08:04:22.359Z</time>
      </trkpt>
      <trkpt lat="36.8505" lon="30.6215">
        <ele>25.434982</ele>
        <time>2022-01-19T08:05:28.373Z</time>
      </trkpt>
      <trkpt lat="36.85032" lon="30.61951">
        <ele>42.455651</ele>
        <time>2022-01-19T08:07:08.363Z</time>
      </trkpt>
      <trkpt lat="36.84852" lon="30.61754">
        <ele>46.663811</ele>
        <time>2022-01-19T08:08:10.379Z</time>
      </trkpt>
      <trkpt lat="36.84801" lon="30.61468">
        <ele>31.853574</ele>
        <time>2022-01-19T08:09:10.389Z</time>
      </trkpt>
      <trkpt lat="36.84738" lon="30.61257">
        <ele>30.99459</ele>
        <time>2022-01-19T08:10:25.384Z</time>
      </trkpt>
      <trkpt lat="36.84707" lon="30.60982">
        <ele>31.262441</ele>
        <time>2022-01-19T08:11:41.369Z</time>
      </trkpt>
      <trkpt lat="36.84686" lon="30.60721">
        <ele>31.671326</ele>
        <time>2022-01-19T08:12:41.364Z</time>
      </trkpt>
      <trkpt lat="36.84669" lon="30.60464">
        <ele>35.895331</ele>
        <time>2022-01-19T08:13:41.383Z</time>
      </trkpt>
      <trkpt lat="36.84766" lon="30.6025">
        <ele>33.583562</ele>
        <time>2022-01-19T08:15:05.364Z</time>
      </trkpt>
      <trkpt lat="36.84802" lon="30.59995">
        <ele>30.441478</ele>
        <time>2022-01-19T08:16:32.375Z</time>
      </trkpt>
      <trkpt lat="36.8456" lon="30.59947">
        <ele>27.668661</ele>
        <time>2022-01-19T08:17:12.379Z</time>
      </trkpt>
      <trkpt lat="36.84359" lon="30.5985">
        <ele>33.667647</ele>
        <time>2022-01-19T08:17:52.386Z</time>
      </trkpt>
      <trkpt lat="36.84146" lon="30.59729">
        <ele>33.391935</ele>
        <time>2022-01-19T08:18:32.363Z</time>
      </trkpt>
      <trkpt lat="36.83974" lon="30.59608">
        <ele>37.371922</ele>
        <time>2022-01-19T08:19:21.365Z</time>
      </trkpt>
      <trkpt lat="36.83764" lon="30.59554">
        <ele>37.732499</ele>
        <time>2022-01-19T08:20:11.380Z</time>
      </trkpt>
      <trkpt lat="36.83547" lon="30.59525">
        <ele>37.341149</ele>
        <time>2022-01-19T08:20:52.374Z</time>
      </trkpt>
      <trkpt lat="36.83316" lon="30.59523">
        <ele>33.836433</ele>
        <time>2022-01-19T08:21:32.370Z</time>
      </trkpt>
      <trkpt lat="36.8311" lon="30.59521">
        <ele>35.575272</ele>
        <time>2022-01-19T08:22:12.375Z</time>
      </trkpt>
      <trkpt lat="36.82877" lon="30.59511">
        <ele>40.623943</ele>
        <time>2022-01-19T08:23:05.363Z</time>
      </trkpt>
      <trkpt lat="36.82673" lon="30.59487">
        <ele>51.828813</ele>
        <time>2022-01-19T08:24:18.408Z</time>
      </trkpt>
      <trkpt lat="36.82482" lon="30.59419">
        <ele>53.257591</ele>
        <time>2022-01-19T08:25:49.370Z</time>
      </trkpt>
      <trkpt lat="36.8227" lon="30.59351">
        <ele>58.837723</ele>
        <time>2022-01-19T08:26:56.371Z</time>
      </trkpt>
      <trkpt lat="36.82053" lon="30.59313">
        <ele>54.93791</ele>
        <time>2022-01-19T08:27:39.373Z</time>
      </trkpt>
      <trkpt lat="36.81853" lon="30.59205">
        <ele>55.04435</ele>
        <time>2022-01-19T08:28:59.355Z</time>
      </trkpt>
      <trkpt lat="36.81689" lon="30.59068">
        <ele>63.942613</ele>
        <time>2022-01-19T08:30:21.374Z</time>
      </trkpt>
      <trkpt lat="36.81547" lon="30.58891">
        <ele>63.531823</ele>
        <time>2022-01-19T08:31:51.377Z</time>
      </trkpt>
      <trkpt lat="36.8139" lon="30.58721">
        <ele>65.136403</ele>
        <time>2022-01-19T08:32:54.367Z</time>
      </trkpt>
      <trkpt lat="36.81139" lon="30.58632">
        <ele>59.887883</ele>
        <time>2022-01-19T08:33:34.383Z</time>
      </trkpt>
      <trkpt lat="36.80962" lon="30.58381">
        <ele>46.471244</ele>
        <time>2022-01-19T08:34:03.366Z</time>
      </trkpt>
      <trkpt lat="36.80739" lon="30.58344">
        <ele>32.520647</ele>
        <time>2022-01-19T08:34:38.411Z</time>
      </trkpt>
      <trkpt lat="36.80566" lon="30.58189">
        <ele>34.880656</ele>
        <time>2022-01-19T08:35:21.376Z</time>
      </trkpt>
      <trkpt lat="36.8041" lon="30.5802">
        <ele>43.756571</ele>
        <time>2022-01-19T08:36:29.371Z</time>
      </trkpt>
      <trkpt lat="36.80197" lon="30.57888">
        <ele>38.349967</ele>
        <time>2022-01-19T08:37:14.382Z</time>
      </trkpt>
      <trkpt lat="36.80072" lon="30.57636">
        <ele>33.965599</ele>
        <time>2022-01-19T08:37:42.397Z</time>
      </trkpt>
      <trkpt lat="36.7999" lon="30.57389">
        <ele>37.647286</ele>
        <time>2022-01-19T08:38:49.382Z</time>
      </trkpt>
      <trkpt lat="36.79822" lon="30.57208">
        <ele>29.272642</ele>
        <time>2022-01-19T08:39:40.363Z</time>
      </trkpt>
      <trkpt lat="36.79561" lon="30.57241">
        <ele>26.133082</ele>
        <time>2022-01-19T08:40:20.410Z</time>
      </trkpt>
      <trkpt lat="36.79351" lon="30.57328">
        <ele>30.153131</ele>
        <time>2022-01-19T08:41:15.387Z</time>
      </trkpt>
      <trkpt lat="36.79139" lon="30.57355">
        <ele>37.952087</ele>
        <time>2022-01-19T08:42:27.394Z</time>
      </trkpt>
      <trkpt lat="36.78935" lon="30.57334">
        <ele>38.268054</ele>
        <time>2022-01-19T08:43:16.417Z</time>
      </trkpt>
      <trkpt lat="36.78698" lon="30.57252">
        <ele>31.767356</ele>
        <time>2022-01-19T08:43:56.415Z</time>
      </trkpt>
      <trkpt lat="36.78518" lon="30.5703">
        <ele>23.89909</ele>
        <time>2022-01-19T08:44:38.379Z</time>
      </trkpt>
      <trkpt lat="36.78382" lon="30.56816">
        <ele>33.095095</ele>
        <time>2022-01-19T08:45:37.381Z</time>
      </trkpt>
      <trkpt lat="36.78229" lon="30.56657">
        <ele>35.390552</ele>
        <time>2022-01-19T08:46:37.380Z</time>
      </trkpt>
      <trkpt lat="36.78028" lon="30.56739">
        <ele>33.694581</ele>
        <time>2022-01-19T08:50:14.369Z</time>
      </trkpt>
      <trkpt lat="36.76969" lon="30.57208">
        <ele>63.878786</ele>
        <time>2022-01-19T08:56:51.378Z</time>
      </trkpt>
      <trkpt lat="36.76661" lon="30.57062">
        <ele>39.821837</ele>
        <time>2022-01-19T08:57:33.435Z</time>
      </trkpt>
      <trkpt lat="36.7625" lon="30.56934">
        <ele>32.615596</ele>
        <time>2022-01-19T08:58:47.421Z</time>
      </trkpt>
      <trkpt lat="36.76022" lon="30.56937">
        <ele>38.632781</ele>
        <time>2022-01-19T08:59:44.379Z</time>
      </trkpt>
      <trkpt lat="36.75803" lon="30.56939">
        <ele>35.233568</ele>
        <time>2022-01-19T09:00:39.398Z</time>
      </trkpt>
      <trkpt lat="36.75604" lon="30.56851">
        <ele>31.525629</ele>
        <time>2022-01-19T09:01:33.382Z</time>
      </trkpt>
      <trkpt lat="36.75381" lon="30.5676">
        <ele>30.671332</ele>
        <time>2022-01-19T09:02:24.391Z</time>
      </trkpt>
      <trkpt lat="36.75175" lon="30.56682">
        <ele>34.689376</ele>
        <time>2022-01-19T09:03:28.393Z</time>
      </trkpt>
      <trkpt lat="36.74212" lon="30.55962">
        <ele>40.897677</ele>
        <time>2022-01-19T09:07:57.380Z</time>
      </trkpt>
      <trkpt lat="36.74016" lon="30.55819">
        <ele>30.275222</ele>
        <time>2022-01-19T09:08:49.379Z</time>
      </trkpt>
      <trkpt lat="36.73814" lon="30.55676">
        <ele>29.38345</ele>
        <time>2022-01-19T09:09:50.388Z</time>
      </trkpt>
      <trkpt lat="36.7365" lon="30.5558">
        <ele>28.881212</ele>
        <time>2022-01-19T09:11:40.391Z</time>
      </trkpt>
      <trkpt lat="36.73588" lon="30.55846">
        <ele>33.741708</ele>
        <time>2022-01-19T09:13:18.391Z</time>
      </trkpt>
      <trkpt lat="36.73522" lon="30.5605">
        <ele>35.39973</ele>
        <time>2022-01-19T09:14:07.384Z</time>
      </trkpt>
      <trkpt lat="36.73393" lon="30.56081">
        <ele>35.477692</ele>
        <time>2022-01-19T09:16:43.374Z</time>
      </trkpt>
      <trkpt lat="36.73248" lon="30.56277">
        <ele>30.002658</ele>
        <time>2022-01-19T09:17:47.405Z</time>
      </trkpt>
      <trkpt lat="36.73075" lon="30.56235">
        <ele>22.360146</ele>
        <time>2022-01-19T09:18:51.383Z</time>
      </trkpt>
      <trkpt lat="36.72874" lon="30.56104">
        <ele>20.973836</ele>
        <time>2022-01-19T09:19:45.381Z</time>
      </trkpt>
      <trkpt lat="36.72683" lon="30.55978">
        <ele>29.952044</ele>
        <time>2022-01-19T09:20:36.383Z</time>
      </trkpt>
      <trkpt lat="36.72449" lon="30.56107">
        <ele>42.808087</ele>
        <time>2022-01-19T09:21:38.383Z</time>
      </trkpt>
      <trkpt lat="36.72207" lon="30.56155">
        <ele>47.263013</ele>
        <time>2022-01-19T09:22:38.378Z</time>
      </trkpt>
      <trkpt lat="36.72004" lon="30.56238">
        <ele>38.870918</ele>
        <time>2022-01-19T09:23:27.382Z</time>
      </trkpt>
      <trkpt lat="36.71764" lon="30.56296">
        <ele>39.138319</ele>
        <time>2022-01-19T09:31:21.396Z</time>
      </trkpt>
      <trkpt lat="36.71561" lon="30.56437">
        <ele>37.84041</ele>
        <time>2022-01-19T09:32:20.376Z</time>
      </trkpt>
      <trkpt lat="36.7132" lon="30.56497">
        <ele>31.047969</ele>
        <time>2022-01-19T09:33:18.396Z</time>
      </trkpt>
      <trkpt lat="36.7111" lon="30.56549">
        <ele>30.287565</ele>
        <time>2022-01-19T09:34:06.391Z</time>
      </trkpt>
      <trkpt lat="36.70898" lon="30.56596">
        <ele>31.890252</ele>
        <time>2022-01-19T09:34:56.385Z</time>
      </trkpt>
      <trkpt lat="36.7068" lon="30.56655">
        <ele>30.416494</ele>
        <time>2022-01-19T09:35:46.390Z</time>
      </trkpt>
      <trkpt lat="36.70477" lon="30.56793">
        <ele>32.659919</ele>
        <time>2022-01-19T09:36:41.395Z</time>
      </trkpt>
      <trkpt lat="36.70291" lon="30.56933">
        <ele>34.683974</ele>
        <time>2022-01-19T09:37:47.400Z</time>
      </trkpt>
      <trkpt lat="36.70067" lon="30.5696">
        <ele>31.969408</ele>
        <time>2022-01-19T09:38:36.400Z</time>
      </trkpt>
      <trkpt lat="36.69833" lon="30.56963">
        <ele>31.202393</ele>
        <time>2022-01-19T09:39:33.403Z</time>
      </trkpt>
      <trkpt lat="36.6962" lon="30.56976">
        <ele>33.700758</ele>
        <time>2022-01-19T09:40:20.395Z</time>
      </trkpt>
      <trkpt lat="36.69377" lon="30.57043">
        <ele>31.163434</ele>
        <time>2022-01-19T09:41:23.402Z</time>
      </trkpt>
      <trkpt lat="36.6915" lon="30.57073">
        <ele>33.152359</ele>
        <time>2022-01-19T09:42:22.390Z</time>
      </trkpt>
      <trkpt lat="36.68933" lon="30.57037">
        <ele>38.796908</ele>
        <time>2022-01-19T09:43:23.388Z</time>
      </trkpt>
      <trkpt lat="36.68725" lon="30.57025">
        <ele>36.747428</ele>
        <time>2022-01-19T09:44:25.384Z</time>
      </trkpt>
      <trkpt lat="36.685" lon="30.5703">
        <ele>35.515502</ele>
        <time>2022-01-19T09:45:39.398Z</time>
      </trkpt>
      <trkpt lat="36.68269" lon="30.56996">
        <ele>33.453826</ele>
        <time>2022-01-19T09:46:30.400Z</time>
      </trkpt>
      <trkpt lat="36.68056" lon="30.56997">
        <ele>30.737548</ele>
        <time>2022-01-19T09:47:25.404Z</time>
      </trkpt>
      <trkpt lat="36.67904" lon="30.56858">
        <ele>32.750375</ele>
        <time>2022-01-19T09:48:29.409Z</time>
      </trkpt>
      <trkpt lat="36.67839" lon="30.56842">
        <ele>34.064659</ele>
        <time>2022-01-19T09:49:58.396Z</time>
      </trkpt>
      <trkpt lat="36.67621" lon="30.56726">
        <ele>33.862119</ele>
        <time>2022-01-19T09:51:01.408Z</time>
      </trkpt>
      <trkpt lat="36.67485" lon="30.5651">
        <ele>38.898942</ele>
        <time>2022-01-19T09:52:01.408Z</time>
      </trkpt>
      <trkpt lat="36.6737" lon="30.56331">
        <ele>39.739561</ele>
        <time>2022-01-19T09:53:28.413Z</time>
      </trkpt>
      <trkpt lat="36.67153" lon="30.56298">
        <ele>36.605506</ele>
        <time>2022-01-19T09:54:24.396Z</time>
      </trkpt>
      <trkpt lat="36.66946" lon="30.56284">
        <ele>36.37863</ele>
        <time>2022-01-19T09:55:07.433Z</time>
      </trkpt>
      <trkpt lat="36.66732" lon="30.56212">
        <ele>33.644512</ele>
        <time>2022-01-19T09:55:58.403Z</time>
      </trkpt>
      <trkpt lat="36.66523" lon="30.56106">
        <ele>29.317607</ele>
        <time>2022-01-19T09:56:48.410Z</time>
      </trkpt>
      <trkpt lat="36.66319" lon="30.55982">
        <ele>29.321673</ele>
        <time>2022-01-19T09:57:39.403Z</time>
      </trkpt>
      <trkpt lat="36.66141" lon="30.55821">
        <ele>30.507688</ele>
        <time>2022-01-19T09:58:31.410Z</time>
      </trkpt>
      <trkpt lat="36.6598" lon="30.55609">
        <ele>31.469203</ele>
        <time>2022-01-19T09:59:34.398Z</time>
      </trkpt>
      <trkpt lat="36.65769" lon="30.5554">
        <ele>36.245568</ele>
        <time>2022-01-19T10:00:27.399Z</time>
      </trkpt>
      <trkpt lat="36.6555" lon="30.55467">
        <ele>31.978901</ele>
        <time>2022-01-19T10:01:20.405Z</time>
      </trkpt>
      <trkpt lat="36.65352" lon="30.55339">
        <ele>34.06875</ele>
        <time>2022-01-19T10:02:24.415Z</time>
      </trkpt>
      <trkpt lat="36.65175" lon="30.552">
        <ele>37.853412</ele>
        <time>2022-01-19T10:03:25.408Z</time>
      </trkpt>
      <trkpt lat="36.64944" lon="30.55113">
        <ele>34.515897</ele>
        <time>2022-01-19T10:04:20.398Z</time>
      </trkpt>
      <trkpt lat="36.64728" lon="30.5507">
        <ele>32.008516</ele>
        <time>2022-01-19T10:05:20.415Z</time>
      </trkpt>
      <trkpt lat="36.64571" lon="30.54914">
        <ele>35.535206</ele>
        <time>2022-01-19T10:06:24.404Z</time>
      </trkpt>
      <trkpt lat="36.64403" lon="30.54767">
        <ele>41.459861</ele>
        <time>2022-01-19T10:07:39.412Z</time>
      </trkpt>
      <trkpt lat="36.64242" lon="30.54706">
        <ele>47.73223</ele>
        <time>2022-01-19T10:09:35.409Z</time>
      </trkpt>
      <trkpt lat="36.64036" lon="30.54818">
        <ele>44.827866</ele>
        <time>2022-01-19T10:10:27.406Z</time>
      </trkpt>
      <trkpt lat="36.63835" lon="30.5491">
        <ele>43.894947</ele>
        <time>2022-01-19T10:11:07.362Z</time>
      </trkpt>
      <trkpt lat="36.63629" lon="30.5503">
        <ele>35.640816</ele>
        <time>2022-01-19T10:11:47.415Z</time>
      </trkpt>
      <trkpt lat="36.63472" lon="30.55217">
        <ele>33.393361</ele>
        <time>2022-01-19T10:12:27.400Z</time>
      </trkpt>
      <trkpt lat="36.63282" lon="30.55399">
        <ele>35.297534</ele>
        <time>2022-01-19T10:13:13.400Z</time>
      </trkpt>
      <trkpt lat="36.63081" lon="30.55475">
        <ele>46.397247</ele>
        <time>2022-01-19T10:14:23.396Z</time>
      </trkpt>
      <trkpt lat="36.62869" lon="30.55468">
        <ele>42.155949</ele>
        <time>2022-01-19T10:15:17.401Z</time>
      </trkpt>
      <trkpt lat="36.62634" lon="30.55372">
        <ele>34.349312</ele>
        <time>2022-01-19T10:15:58.380Z</time>
      </trkpt>
      <trkpt lat="36.62418" lon="30.55269">
        <ele>35.867818</ele>
        <time>2022-01-19T10:16:49.383Z</time>
      </trkpt>
      <trkpt lat="36.62225" lon="30.5521">
        <ele>35.39524</ele>
        <time>2022-01-19T10:34:17.409Z</time>
      </trkpt>
      <trkpt lat="36.62003" lon="30.55269">
        <ele>29.26388</ele>
        <time>2022-01-19T10:35:08.402Z</time>
      </trkpt>
      <trkpt lat="36.61845" lon="30.55451">
        <ele>25.56766</ele>
        <time>2022-01-19T10:36:00.396Z</time>
      </trkpt>
      <trkpt lat="36.61643" lon="30.55534">
        <ele>26.058072</ele>
        <time>2022-01-19T10:36:40.408Z</time>
      </trkpt>
      <trkpt lat="36.61394" lon="30.55624">
        <ele>33.121677</ele>
        <time>2022-01-19T10:37:40.411Z</time>
      </trkpt>
      <trkpt lat="36.61173" lon="30.55704">
        <ele>37.504331</ele>
        <time>2022-01-19T10:38:33.398Z</time>
      </trkpt>
      <trkpt lat="36.60935" lon="30.55778">
        <ele>38.495746</ele>
        <time>2022-01-19T10:39:31.398Z</time>
      </trkpt>
      <trkpt lat="36.60711" lon="30.55841">
        <ele>36.566684</ele>
        <time>2022-01-19T10:40:23.409Z</time>
      </trkpt>
      <trkpt lat="36.60471" lon="30.55906">
        <ele>32.160869</ele>
        <time>2022-01-19T10:41:22.422Z</time>
      </trkpt>
      <trkpt lat="36.6025" lon="30.55929">
        <ele>34.701042</ele>
        <time>2022-01-19T10:42:28.406Z</time>
      </trkpt>
      <trkpt lat="36.6013" lon="30.55788">
        <ele>35.346214</ele>
        <time>2022-01-19T10:47:31.410Z</time>
      </trkpt>
      <trkpt lat="36.5992" lon="30.55722">
        <ele>33.151736</ele>
        <time>2022-01-19T10:48:25.398Z</time>
      </trkpt>
      <trkpt lat="36.59877" lon="30.55586">
        <ele>40.386682</ele>
        <time>2022-01-19T10:49:56.398Z</time>
      </trkpt>
      <trkpt lat="36.59805" lon="30.55322">
        <ele>44.078084</ele>
        <time>2022-01-19T10:50:56.396Z</time>
      </trkpt>
      <trkpt lat="36.59708" lon="30.55071">
        <ele>48.255842</ele>
        <time>2022-01-19T10:51:59.387Z</time>
      </trkpt>
      <trkpt lat="36.59636" lon="30.54832">
        <ele>49.796948</ele>
        <time>2022-01-19T10:53:00.389Z</time>
      </trkpt>
      <trkpt lat="36.59558" lon="30.54603">
        <ele>51.623904</ele>
        <time>2022-01-19T10:54:02.427Z</time>
      </trkpt>
      <trkpt lat="36.59432" lon="30.54412">
        <ele>54.580976</ele>
        <time>2022-01-19T10:55:03.395Z</time>
      </trkpt>
      <trkpt lat="36.59271" lon="30.54247">
        <ele>60.134088</ele>
        <time>2022-01-19T10:56:08.387Z</time>
      </trkpt>
      <trkpt lat="36.5919" lon="30.54017">
        <ele>63.426754</ele>
        <time>2022-01-19T10:57:33.396Z</time>
      </trkpt>
      <trkpt lat="36.59073" lon="30.53804">
        <ele>62.918009</ele>
        <time>2022-01-19T10:58:28.379Z</time>
      </trkpt>
      <trkpt lat="36.58878" lon="30.5371">
        <ele>65.166852</ele>
        <time>2022-01-19T10:59:30.434Z</time>
      </trkpt>
      <trkpt lat="36.58645" lon="30.53679">
        <ele>65.036746</ele>
        <time>2022-01-19T11:00:30.410Z</time>
      </trkpt>
      <trkpt lat="36.585" lon="30.53465">
        <ele>65.666906</ele>
        <time>2022-01-19T11:01:33.427Z</time>
      </trkpt>
      <trkpt lat="36.58384" lon="30.53257">
        <ele>69.319155</ele>
        <time>2022-01-19T11:02:38.409Z</time>
      </trkpt>
      <trkpt lat="36.58278" lon="30.53277">
        <ele>70.272069</ele>
        <time>2022-01-19T11:03:36.409Z</time>
      </trkpt>
      <trkpt lat="36.58172" lon="30.53489">
        <ele>66.52763</ele>
        <time>2022-01-19T11:04:17.443Z</time>
      </trkpt>
      <trkpt lat="36.58056" lon="30.53737">
        <ele>61.769857</ele>
        <time>2022-01-19T11:05:09.418Z</time>
      </trkpt>
      <trkpt lat="36.57944" lon="30.53955">
        <ele>54.435951</ele>
        <time>2022-01-19T11:05:49.423Z</time>
      </trkpt>
      <trkpt lat="36.57843" lon="30.542">
        <ele>53.338683</ele>
        <time>2022-01-19T11:06:33.428Z</time>
      </trkpt>
      <trkpt lat="36.57777" lon="30.54456">
        <ele>52.959022</ele>
        <time>2022-01-19T11:07:15.419Z</time>
      </trkpt>
      <trkpt lat="36.5771" lon="30.54727">
        <ele>48.987372</ele>
        <time>2022-01-19T11:07:59.412Z</time>
      </trkpt>
      <trkpt lat="36.57638" lon="30.54997">
        <ele>47.497311</ele>
        <time>2022-01-19T11:08:48.416Z</time>
      </trkpt>
      <trkpt lat="36.57534" lon="30.55226">
        <ele>49.795457</ele>
        <time>2022-01-19T11:09:29.428Z</time>
      </trkpt>
      <trkpt lat="36.57342" lon="30.55271">
        <ele>41.237381</ele>
        <time>2022-01-19T11:10:15.398Z</time>
      </trkpt>
      <trkpt lat="36.57209" lon="30.55451">
        <ele>40.762888</ele>
        <time>2022-01-19T11:11:00.406Z</time>
      </trkpt>
      <trkpt lat="36.57067" lon="30.55649">
        <ele>42.926969</ele>
        <time>2022-01-19T11:11:44.430Z</time>
      </trkpt>
      <trkpt lat="36.56856" lon="30.55629">
        <ele>38.270543</ele>
        <time>2022-01-19T11:12:27.419Z</time>
      </trkpt>
      <trkpt lat="36.56697" lon="30.5576">
        <ele>38.115738</ele>
        <time>2022-01-19T11:13:07.431Z</time>
      </trkpt>
      <trkpt lat="36.56514" lon="30.55856">
        <ele>37.555613</ele>
        <time>2022-01-19T11:13:49.420Z</time>
      </trkpt>
      <trkpt lat="36.56305" lon="30.55939">
        <ele>40.050372</ele>
        <time>2022-01-19T11:14:29.398Z</time>
      </trkpt>
      <trkpt lat="36.5621" lon="30.56133">
        <ele>36.971462</ele>
        <time>2022-01-19T11:15:19.411Z</time>
      </trkpt>
      <trkpt lat="36.55999" lon="30.56186">
        <ele>34.159291</ele>
        <time>2022-01-19T11:16:01.439Z</time>
      </trkpt>
      <trkpt lat="36.55832" lon="30.56342">
        <ele>33.091656</ele>
        <time>2022-01-19T11:16:41.426Z</time>
      </trkpt>
      <trkpt lat="36.55655" lon="30.56367">
        <ele>32.09758</ele>
        <time>2022-01-19T11:17:23.437Z</time>
      </trkpt>
      <trkpt lat="36.55478" lon="30.56258">
        <ele>33.995933</ele>
        <time>2022-01-19T11:18:03.423Z</time>
      </trkpt>
      <trkpt lat="36.55299" lon="30.56067">
        <ele>32.300135</ele>
        <time>2022-01-19T11:18:56.400Z</time>
      </trkpt>
      <trkpt lat="36.5519" lon="30.55836">
        <ele>31.344146</ele>
        <time>2022-01-19T11:19:44.425Z</time>
      </trkpt>
      <trkpt lat="36.55034" lon="30.55677">
        <ele>32.173826</ele>
        <time>2022-01-19T11:20:28.417Z</time>
      </trkpt>
      <trkpt lat="36.54816" lon="30.55639">
        <ele>27.926372</ele>
        <time>2022-01-19T11:21:20.427Z</time>
      </trkpt>
      <trkpt lat="36.54678" lon="30.55833">
        <ele>26.282613</ele>
        <time>2022-01-19T11:22:14.457Z</time>
      </trkpt>
      <trkpt lat="36.54475" lon="30.55763">
        <ele>35.293066</ele>
        <time>2022-01-19T11:23:05.467Z</time>
      </trkpt>
      <trkpt lat="36.54319" lon="30.55601">
        <ele>43.741757</ele>
        <time>2022-01-19T11:23:49.430Z</time>
      </trkpt>
      <trkpt lat="36.54199" lon="30.55353">
        <ele>32.757028</ele>
        <time>2022-01-19T11:24:47.431Z</time>
      </trkpt>
      <trkpt lat="36.54058" lon="30.55198">
        <ele>29.993101</ele>
        <time>2022-01-19T11:27:16.412Z</time>
      </trkpt>
      <trkpt lat="36.54207" lon="30.55383">
        <ele>26.365498</ele>
        <time>2022-01-19T11:28:40.406Z</time>
      </trkpt>
      <trkpt lat="36.54321" lon="30.55622">
        <ele>28.587443</ele>
        <time>2022-01-19T11:29:43.416Z</time>
      </trkpt>
      <trkpt lat="36.54491" lon="30.5579">
        <ele>30.215807</ele>
        <time>2022-01-19T11:30:43.440Z</time>
      </trkpt>
      <trkpt lat="36.54695" lon="30.55825">
        <ele>31.895325</ele>
        <time>2022-01-19T11:31:47.422Z</time>
      </trkpt>
      <trkpt lat="36.54768" lon="30.556">
        <ele>33.809163</ele>
        <time>2022-01-19T11:32:48.415Z</time>
      </trkpt>
      <trkpt lat="36.5483" lon="30.5534">
        <ele>41.462015</ele>
        <time>2022-01-19T11:33:52.414Z</time>
      </trkpt>
      <trkpt lat="36.54831" lon="30.5509">
        <ele>38.231351</ele>
        <time>2022-01-19T11:35:01.457Z</time>
      </trkpt>
      <trkpt lat="36.5463" lon="30.55032">
        <ele>28.826669</ele>
        <time>2022-01-19T11:35:46.398Z</time>
      </trkpt>
      <trkpt lat="36.54463" lon="30.55178">
        <ele>30.021378</ele>
        <time>2022-01-19T11:36:34.412Z</time>
      </trkpt>
      <trkpt lat="36.54296" lon="30.55368">
        <ele>33.214367</ele>
        <time>2022-01-19T11:37:26.457Z</time>
      </trkpt>
      <trkpt lat="36.54119" lon="30.55201">
        <ele>36.142685</ele>
        <time>2022-01-19T11:38:06.449Z</time>
      </trkpt>
      <trkpt lat="36.53965" lon="30.5505">
        <ele>40.530476</ele>
        <time>2022-01-19T11:39:08.409Z</time>
      </trkpt>
      <trkpt lat="36.53818" lon="30.5489">
        <ele>40.640294</ele>
        <time>2022-01-19T11:39:57.418Z</time>
      </trkpt>
      <trkpt lat="36.53627" lon="30.54952">
        <ele>43.924134</ele>
        <time>2022-01-19T11:40:40.410Z</time>
      </trkpt>
      <trkpt lat="36.53507" lon="30.55171">
        <ele>59.286192</ele>
        <time>2022-01-19T11:42:05.418Z</time>
      </trkpt>
      <trkpt lat="36.53415" lon="30.5538">
        <ele>80.406042</ele>
        <time>2022-01-19T11:44:03.415Z</time>
      </trkpt>
      <trkpt lat="36.5323" lon="30.5544">
        <ele>80.196483</ele>
        <time>2022-01-19T11:45:47.428Z</time>
      </trkpt>
      <trkpt lat="36.53101" lon="30.55263">
        <ele>87.968452</ele>
        <time>2022-01-19T11:47:21.417Z</time>
      </trkpt>
      <trkpt lat="36.53005" lon="30.55026">
        <ele>96.424487</ele>
        <time>2022-01-19T11:49:04.407Z</time>
      </trkpt>
      <trkpt lat="36.52994" lon="30.54785">
        <ele>98.422859</ele>
        <time>2022-01-19T11:50:47.416Z</time>
      </trkpt>
      <trkpt lat="36.53117" lon="30.54538">
        <ele>92.828106</ele>
        <time>2022-01-19T11:51:21.415Z</time>
      </trkpt>
      <trkpt lat="36.5319" lon="30.54215">
        <ele>85.493909</ele>
        <time>2022-01-19T11:51:57.455Z</time>
      </trkpt>
      <trkpt lat="36.53131" lon="30.53907">
        <ele>77.534259</ele>
        <time>2022-01-19T11:52:37.414Z</time>
      </trkpt>
      <trkpt lat="36.5316" lon="30.53515">
        <ele>67.391634</ele>
        <time>2022-01-19T11:53:19.463Z</time>
      </trkpt>
      <trkpt lat="36.53086" lon="30.53203">
        <ele>54.443695</ele>
        <time>2022-01-19T11:53:59.415Z</time>
      </trkpt>
      <trkpt lat="36.52939" lon="30.53017">
        <ele>41.364322</ele>
        <time>2022-01-19T11:54:39.415Z</time>
      </trkpt>
      <trkpt lat="36.52743" lon="30.52783">
        <ele>36.764893</ele>
        <time>2022-01-19T11:55:19.408Z</time>
      </trkpt>
      <trkpt lat="36.52557" lon="30.52646">
        <ele>32.110173</ele>
        <time>2022-01-19T11:55:59.417Z</time>
      </trkpt>
      <trkpt lat="36.52319" lon="30.52614">
        <ele>33.884288</ele>
        <time>2022-01-19T11:56:41.474Z</time>
      </trkpt>
      <trkpt lat="36.52037" lon="30.52668">
        <ele>29.528494</ele>
        <time>2022-01-19T11:57:21.465Z</time>
      </trkpt>
      <trkpt lat="36.51832" lon="30.52721">
        <ele>32.964781</ele>
        <time>2022-01-19T12:00:47.463Z</time>
      </trkpt>
      <trkpt lat="36.51644" lon="30.52646">
        <ele>32.955712</ele>
        <time>2022-01-19T12:01:46.414Z</time>
      </trkpt>
      <trkpt lat="36.51436" lon="30.52509">
        <ele>32.660632</ele>
        <time>2022-01-19T12:02:45.427Z</time>
      </trkpt>
      <trkpt lat="36.51224" lon="30.52401">
        <ele>37.633093</ele>
        <time>2022-01-19T12:03:44.422Z</time>
      </trkpt>
      <trkpt lat="36.51015" lon="30.52327">
        <ele>41.821377</ele>
        <time>2022-01-19T12:04:42.423Z</time>
      </trkpt>
      <trkpt lat="36.50824" lon="30.52269">
        <ele>48.586994</ele>
        <time>2022-01-19T12:06:19.422Z</time>
      </trkpt>
      <trkpt lat="36.50662" lon="30.52191">
        <ele>50.660039</ele>
        <time>2022-01-19T12:07:35.470Z</time>
      </trkpt>
      <trkpt lat="36.50464" lon="30.5232">
        <ele>46.676914</ele>
        <time>2022-01-19T12:08:32.430Z</time>
      </trkpt>
      <trkpt lat="36.50272" lon="30.52318">
        <ele>41.991438</ele>
        <time>2022-01-19T12:09:30.431Z</time>
      </trkpt>
      <trkpt lat="36.50184" lon="30.52313">
        <ele>41.991438</ele>
        <time>2022-01-19T12:11:11.729Z</time>
      </trkpt>
      <trkpt lat="36.50179" lon="30.52356">
        <ele>49.475923</ele>
        <time>2022-01-20T05:54:42.509Z</time>
      </trkpt>
      <trkpt lat="36.50271" lon="30.52368">
        <ele>47.73734</ele>
        <time>2022-01-20T06:14:22.711Z</time>
      </trkpt>
      <trkpt lat="36.50447" lon="30.52337">
        <ele>35.493186</ele>
        <time>2022-01-20T06:15:34.706Z</time>
      </trkpt>
      <trkpt lat="36.50625" lon="30.52163">
        <ele>40.047714</ele>
        <time>2022-01-20T06:16:52.700Z</time>
      </trkpt>
      <trkpt lat="36.50779" lon="30.51968">
        <ele>56.063682</ele>
        <time>2022-01-20T06:18:12.699Z</time>
      </trkpt>
      <trkpt lat="36.50855" lon="30.51711">
        <ele>74.177785</ele>
        <time>2022-01-20T06:19:41.734Z</time>
      </trkpt>
      <trkpt lat="36.50982" lon="30.51574">
        <ele>64.046722</ele>
        <time>2022-01-20T06:21:20.706Z</time>
      </trkpt>
      <trkpt lat="36.5093" lon="30.5131">
        <ele>94.806882</ele>
        <time>2022-01-20T06:22:47.707Z</time>
      </trkpt>
      <trkpt lat="36.50906" lon="30.51037">
        <ele>105.425503</ele>
        <time>2022-01-20T06:24:24.717Z</time>
      </trkpt>
      <trkpt lat="36.5088" lon="30.50767">
        <ele>94.294507</ele>
        <time>2022-01-20T06:25:46.737Z</time>
      </trkpt>
      <trkpt lat="36.50894" lon="30.50488">
        <ele>130.784093</ele>
        <time>2022-01-20T06:26:59.710Z</time>
      </trkpt>
      <trkpt lat="36.50873" lon="30.50232">
        <ele>164.167554</ele>
        <time>2022-01-20T06:28:23.752Z</time>
      </trkpt>
      <trkpt lat="36.50782" lon="30.49983">
        <ele>116.066791</ele>
        <time>2022-01-20T06:30:09.685Z</time>
      </trkpt>
      <trkpt lat="36.50621" lon="30.49789">
        <ele>77.922787</ele>
        <time>2022-01-20T06:31:29.706Z</time>
      </trkpt>
      <trkpt lat="36.50425" lon="30.4966">
        <ele>107.332856</ele>
        <time>2022-01-20T06:33:27.704Z</time>
      </trkpt>
      <trkpt lat="36.5031" lon="30.49448">
        <ele>106.854092</ele>
        <time>2022-01-20T06:35:27.731Z</time>
      </trkpt>
      <trkpt lat="36.50206" lon="30.49183">
        <ele>113.057716</ele>
        <time>2022-01-20T06:36:56.709Z</time>
      </trkpt>
      <trkpt lat="36.50053" lon="30.49">
        <ele>120.138971</ele>
        <time>2022-01-20T06:38:33.757Z</time>
      </trkpt>
      <trkpt lat="36.49877" lon="30.48848">
        <ele>126.870691</ele>
        <time>2022-01-20T06:40:14.704Z</time>
      </trkpt>
      <trkpt lat="36.49746" lon="30.48636">
        <ele>143.369832</ele>
        <time>2022-01-20T06:42:03.732Z</time>
      </trkpt>
      <trkpt lat="36.4972" lon="30.48383">
        <ele>158.350958</ele>
        <time>2022-01-20T06:43:51.722Z</time>
      </trkpt>
      <trkpt lat="36.49648" lon="30.48143">
        <ele>170.582765</ele>
        <time>2022-01-20T06:46:06.721Z</time>
      </trkpt>
      <trkpt lat="36.49467" lon="30.48019">
        <ele>169.852692</ele>
        <time>2022-01-20T06:48:05.718Z</time>
      </trkpt>
      <trkpt lat="36.49304" lon="30.47852">
        <ele>189.066672</ele>
        <time>2022-01-20T06:50:18.707Z</time>
      </trkpt>
      <trkpt lat="36.49162" lon="30.47671">
        <ele>206.387955</ele>
        <time>2022-01-20T06:52:36.694Z</time>
      </trkpt>
      <trkpt lat="36.49076" lon="30.47417">
        <ele>214.052952</ele>
        <time>2022-01-20T06:54:31.698Z</time>
      </trkpt>
      <trkpt lat="36.49066" lon="30.47157">
        <ele>221.575119</ele>
        <time>2022-01-20T06:56:02.762Z</time>
      </trkpt>
      <trkpt lat="36.48949" lon="30.46956">
        <ele>225.25136</ele>
        <time>2022-01-20T06:58:03.740Z</time>
      </trkpt>
      <trkpt lat="36.48818" lon="30.46752">
        <ele>238.356726</ele>
        <time>2022-01-20T07:00:48.708Z</time>
      </trkpt>
      <trkpt lat="36.48648" lon="30.46629">
        <ele>250.363938</ele>
        <time>2022-01-20T07:03:19.723Z</time>
      </trkpt>
      <trkpt lat="36.48475" lon="30.4647">
        <ele>290.100163</ele>
        <time>2022-01-20T07:08:09.739Z</time>
      </trkpt>
      <trkpt lat="36.4842" lon="30.46256">
        <ele>312.202143</ele>
        <time>2022-01-20T07:10:41.715Z</time>
      </trkpt>
      <trkpt lat="36.48334" lon="30.46022">
        <ele>306.665854</ele>
        <time>2022-01-20T07:13:33.732Z</time>
      </trkpt>
      <trkpt lat="36.48276" lon="30.45791">
        <ele>319.072904</ele>
        <time>2022-01-20T07:16:25.746Z</time>
      </trkpt>
      <trkpt lat="36.48325" lon="30.45542">
        <ele>344.734013</ele>
        <time>2022-01-20T07:19:32.732Z</time>
      </trkpt>
      <trkpt lat="36.48302" lon="30.45299">
        <ele>356.902323</ele>
        <time>2022-01-20T07:22:18.708Z</time>
      </trkpt>
      <trkpt lat="36.48196" lon="30.45079">
        <ele>360.071103</ele>
        <time>2022-01-20T07:24:41.726Z</time>
      </trkpt>
      <trkpt lat="36.48074" lon="30.44881">
        <ele>369.511444</ele>
        <time>2022-01-20T07:26:47.735Z</time>
      </trkpt>
      <trkpt lat="36.47949" lon="30.44679">
        <ele>380.195234</ele>
        <time>2022-01-20T07:28:52.737Z</time>
      </trkpt>
      <trkpt lat="36.47815" lon="30.44468">
        <ele>388.054774</ele>
        <time>2022-01-20T07:31:19.734Z</time>
      </trkpt>
      <trkpt lat="36.47697" lon="30.44259">
        <ele>395.562858</ele>
        <time>2022-01-20T07:33:25.724Z</time>
      </trkpt>
      <trkpt lat="36.47529" lon="30.4402">
        <ele>393.077711</ele>
        <time>2022-01-20T07:38:05.720Z</time>
      </trkpt>
      <trkpt lat="36.47352" lon="30.43804">
        <ele>380.104489</ele>
        <time>2022-01-20T07:38:36.715Z</time>
      </trkpt>
      <trkpt lat="36.47177" lon="30.43589">
        <ele>358.759553</ele>
        <time>2022-01-20T07:38:58.731Z</time>
      </trkpt>
      <trkpt lat="36.47061" lon="30.43363">
        <ele>345.301346</ele>
        <time>2022-01-20T07:39:19.727Z</time>
      </trkpt>
      <trkpt lat="36.46959" lon="30.4309">
        <ele>341.157043</ele>
        <time>2022-01-20T07:39:45.731Z</time>
      </trkpt>
      <trkpt lat="36.46755" lon="30.42902">
        <ele>340.500635</ele>
        <time>2022-01-20T07:40:29.751Z</time>
      </trkpt>
      <trkpt lat="36.46516" lon="30.42883">
        <ele>342.998725</ele>
        <time>2022-01-20T07:41:35.726Z</time>
      </trkpt>
      <trkpt lat="36.46286" lon="30.42888">
        <ele>346.891923</ele>
        <time>2022-01-20T07:42:38.732Z</time>
      </trkpt>
      <trkpt lat="36.46071" lon="30.42851">
        <ele>348.083158</ele>
        <time>2022-01-20T07:43:41.745Z</time>
      </trkpt>
      <trkpt lat="36.45858" lon="30.42756">
        <ele>350.991702</ele>
        <time>2022-01-20T07:44:56.721Z</time>
      </trkpt>
      <trkpt lat="36.45637" lon="30.42768">
        <ele>355.106432</ele>
        <time>2022-01-20T07:46:03.728Z</time>
      </trkpt>
      <trkpt lat="36.45406" lon="30.42831">
        <ele>346.339226</ele>
        <time>2022-01-20T07:46:53.747Z</time>
      </trkpt>
      <trkpt lat="36.45138" lon="30.42821">
        <ele>336.1355</ele>
        <time>2022-01-20T07:47:35.762Z</time>
      </trkpt>
      <trkpt lat="36.44894" lon="30.42868">
        <ele>333.493943</ele>
        <time>2022-01-20T07:48:26.723Z</time>
      </trkpt>
      <trkpt lat="36.44716" lon="30.43106">
        <ele>334.978738</ele>
        <time>2022-01-20T07:49:10.736Z</time>
      </trkpt>
      <trkpt lat="36.44518" lon="30.43261">
        <ele>338.023312</ele>
        <time>2022-01-20T07:50:16.734Z</time>
      </trkpt>
      <trkpt lat="36.44311" lon="30.43309">
        <ele>348.488902</ele>
        <time>2022-01-20T07:52:10.750Z</time>
      </trkpt>
      <trkpt lat="36.44096" lon="30.4328">
        <ele>350.162843</ele>
        <time>2022-01-20T07:54:25.713Z</time>
      </trkpt>
      <trkpt lat="36.43936" lon="30.43097">
        <ele>354.132935</ele>
        <time>2022-01-20T07:58:31.736Z</time>
      </trkpt>
      <trkpt lat="36.43758" lon="30.42961">
        <ele>364.299231</ele>
        <time>2022-01-20T08:00:28.731Z</time>
      </trkpt>
      <trkpt lat="36.43554" lon="30.42884">
        <ele>374.344976</ele>
        <time>2022-01-20T08:02:40.741Z</time>
      </trkpt>
      <trkpt lat="36.43355" lon="30.42916">
        <ele>387.402123</ele>
        <time>2022-01-20T08:04:49.731Z</time>
      </trkpt>
      <trkpt lat="36.43187" lon="30.42747">
        <ele>396.083309</ele>
        <time>2022-01-20T08:07:03.767Z</time>
      </trkpt>
      <trkpt lat="36.43045" lon="30.42568">
        <ele>406.389476</ele>
        <time>2022-01-20T08:09:14.761Z</time>
      </trkpt>
      <trkpt lat="36.42848" lon="30.42486">
        <ele>422.701681</ele>
        <time>2022-01-20T08:11:41.736Z</time>
      </trkpt>
      <trkpt lat="36.42627" lon="30.42487">
        <ele>438.408918</ele>
        <time>2022-01-20T08:18:07.734Z</time>
      </trkpt>
      <trkpt lat="36.42421" lon="30.42407">
        <ele>448.602811</ele>
        <time>2022-01-20T08:20:05.744Z</time>
      </trkpt>
      <trkpt lat="36.42243" lon="30.42284">
        <ele>458.418033</ele>
        <time>2022-01-20T08:22:24.747Z</time>
      </trkpt>
      <trkpt lat="36.42035" lon="30.42223">
        <ele>466.284779</ele>
        <time>2022-01-20T08:24:58.740Z</time>
      </trkpt>
      <trkpt lat="36.41834" lon="30.42174">
        <ele>474.582797</ele>
        <time>2022-01-20T08:27:28.746Z</time>
      </trkpt>
      <trkpt lat="36.41631" lon="30.42137">
        <ele>475.646251</ele>
        <time>2022-01-20T08:29:59.730Z</time>
      </trkpt>
      <trkpt lat="36.41416" lon="30.42197">
        <ele>494.557556</ele>
        <time>2022-01-20T08:32:19.739Z</time>
      </trkpt>
      <trkpt lat="36.41218" lon="30.42237">
        <ele>498.686209</ele>
        <time>2022-01-20T08:34:23.754Z</time>
      </trkpt>
      <trkpt lat="36.41006" lon="30.42206">
        <ele>507.099678</ele>
        <time>2022-01-20T08:36:31.732Z</time>
      </trkpt>
      <trkpt lat="36.40826" lon="30.42093">
        <ele>524.630357</ele>
        <time>2022-01-20T08:38:33.746Z</time>
      </trkpt>
      <trkpt lat="36.40676" lon="30.41899">
        <ele>534.588986</ele>
        <time>2022-01-20T08:40:30.737Z</time>
      </trkpt>
      <trkpt lat="36.40625" lon="30.41665">
        <ele>548.03112</ele>
        <time>2022-01-20T08:42:01.729Z</time>
      </trkpt>
      <trkpt lat="36.40411" lon="30.41598">
        <ele>553.113381</ele>
        <time>2022-01-20T08:43:47.745Z</time>
      </trkpt>
      <trkpt lat="36.40224" lon="30.41471">
        <ele>540.105219</ele>
        <time>2022-01-20T08:45:25.747Z</time>
      </trkpt>
      <trkpt lat="36.40054" lon="30.4133">
        <ele>544.966992</ele>
        <time>2022-01-20T08:47:32.756Z</time>
      </trkpt>
      <trkpt lat="36.39908" lon="30.41133">
        <ele>554.606297</ele>
        <time>2022-01-20T08:50:14.754Z</time>
      </trkpt>
      <trkpt lat="36.3977" lon="30.40944">
        <ele>566.626708</ele>
        <time>2022-01-20T08:52:35.776Z</time>
      </trkpt>
      <trkpt lat="36.39671" lon="30.40707">
        <ele>570.50222</ele>
        <time>2022-01-20T08:54:35.735Z</time>
      </trkpt>
      <trkpt lat="36.39583" lon="30.4047">
        <ele>569.358507</ele>
        <time>2022-01-20T08:56:08.760Z</time>
      </trkpt>
      <trkpt lat="36.39424" lon="30.40252">
        <ele>579.01631</ele>
        <time>2022-01-20T08:57:36.744Z</time>
      </trkpt>
      <trkpt lat="36.39276" lon="30.40069">
        <ele>588.474269</ele>
        <time>2022-01-20T08:59:27.755Z</time>
      </trkpt>
      <trkpt lat="36.3912" lon="30.39879">
        <ele>593.01627</ele>
        <time>2022-01-20T09:01:12.752Z</time>
      </trkpt>
      <trkpt lat="36.38986" lon="30.39664">
        <ele>586.337664</ele>
        <time>2022-01-20T09:02:21.747Z</time>
      </trkpt>
      <trkpt lat="36.38886" lon="30.39413">
        <ele>588.920436</ele>
        <time>2022-01-20T09:03:31.757Z</time>
      </trkpt>
      <trkpt lat="36.38781" lon="30.39183">
        <ele>597.659832</ele>
        <time>2022-01-20T09:04:53.749Z</time>
      </trkpt>
      <trkpt lat="36.38664" lon="30.38977">
        <ele>605.446494</ele>
        <time>2022-01-20T09:07:03.747Z</time>
      </trkpt>
      <trkpt lat="36.38513" lon="30.38783">
        <ele>600.931599</ele>
        <time>2022-01-20T09:09:14.765Z</time>
      </trkpt>
      <trkpt lat="36.38356" lon="30.38601">
        <ele>585.026806</ele>
        <time>2022-01-20T09:10:55.757Z</time>
      </trkpt>
      <trkpt lat="36.38187" lon="30.38412">
        <ele>588.925488</ele>
        <time>2022-01-20T09:12:04.786Z</time>
      </trkpt>
      <trkpt lat="36.37975" lon="30.38282">
        <ele>578.580098</ele>
        <time>2022-01-20T09:20:11.744Z</time>
      </trkpt>
      <trkpt lat="36.37848" lon="30.37942">
        <ele>559.781224</ele>
        <time>2022-01-20T09:20:55.750Z</time>
      </trkpt>
      <trkpt lat="36.37977" lon="30.37551">
        <ele>535.763349</ele>
        <time>2022-01-20T09:21:35.764Z</time>
      </trkpt>
      <trkpt lat="36.38011" lon="30.37183">
        <ele>520.114706</ele>
        <time>2022-01-20T09:22:13.762Z</time>
      </trkpt>
      <trkpt lat="36.37789" lon="30.37035">
        <ele>506.535988</ele>
        <time>2022-01-20T09:22:45.769Z</time>
      </trkpt>
      <trkpt lat="36.3755" lon="30.37082">
        <ele>483.470872</ele>
        <time>2022-01-20T09:23:07.758Z</time>
      </trkpt>
      <trkpt lat="36.37341" lon="30.3701">
        <ele>473.702325</ele>
        <time>2022-01-20T09:26:54.767Z</time>
      </trkpt>
      <trkpt lat="36.37129" lon="30.37131">
        <ele>462.318176</ele>
        <time>2022-01-20T09:27:29.748Z</time>
      </trkpt>
      <trkpt lat="36.36857" lon="30.3711">
        <ele>447.481454</ele>
        <time>2022-01-20T09:28:00.780Z</time>
      </trkpt>
      <trkpt lat="36.36626" lon="30.37284">
        <ele>431.63889</ele>
        <time>2022-01-20T09:28:31.756Z</time>
      </trkpt>
      <trkpt lat="36.36425" lon="30.37384">
        <ele>414.834496</ele>
        <time>2022-01-20T09:28:53.757Z</time>
      </trkpt>
      <trkpt lat="36.36209" lon="30.37346">
        <ele>400.911385</ele>
        <time>2022-01-20T09:29:14.735Z</time>
      </trkpt>
      <trkpt lat="36.35988" lon="30.37317">
        <ele>387.588214</ele>
        <time>2022-01-20T09:29:37.751Z</time>
      </trkpt>
      <trkpt lat="36.3575" lon="30.3742">
        <ele>376.943073</ele>
        <time>2022-01-20T09:30:05.758Z</time>
      </trkpt>
      <trkpt lat="36.35604" lon="30.37654">
        <ele>376.297554</ele>
        <time>2022-01-20T09:30:31.758Z</time>
      </trkpt>
      <trkpt lat="36.35432" lon="30.37798">
        <ele>366.297317</ele>
        <time>2022-01-20T09:30:52.750Z</time>
      </trkpt>
      <trkpt lat="36.35242" lon="30.3768">
        <ele>352.433736</ele>
        <time>2022-01-20T09:31:14.755Z</time>
      </trkpt>
      <trkpt lat="36.35079" lon="30.37532">
        <ele>335.96615</ele>
        <time>2022-01-20T09:31:36.759Z</time>
      </trkpt>
      <trkpt lat="36.34859" lon="30.37446">
        <ele>306.859534</ele>
        <time>2022-01-20T09:32:04.756Z</time>
      </trkpt>
      <trkpt lat="36.35048" lon="30.37214">
        <ele>284.161958</ele>
        <time>2022-01-20T09:32:38.772Z</time>
      </trkpt>
      <trkpt lat="36.35232" lon="30.37027">
        <ele>268.952881</ele>
        <time>2022-01-20T09:33:04.759Z</time>
      </trkpt>
      <trkpt lat="36.35432" lon="30.37209">
        <ele>245.204031</ele>
        <time>2022-01-20T09:33:33.759Z</time>
      </trkpt>
      <trkpt lat="36.35535" lon="30.3696">
        <ele>231.932849</ele>
        <time>2022-01-20T09:34:04.746Z</time>
      </trkpt>
      <trkpt lat="36.35633" lon="30.36665">
        <ele>217.875572</ele>
        <time>2022-01-20T09:34:34.763Z</time>
      </trkpt>
      <trkpt lat="36.35722" lon="30.36308">
        <ele>199.044309</ele>
        <time>2022-01-20T09:35:11.785Z</time>
      </trkpt>
      <trkpt lat="36.35852" lon="30.36029">
        <ele>173.890246</ele>
        <time>2022-01-20T09:35:40.747Z</time>
      </trkpt>
      <trkpt lat="36.36078" lon="30.35865">
        <ele>165.074636</ele>
        <time>2022-01-20T09:36:14.791Z</time>
      </trkpt>
      <trkpt lat="36.36322" lon="30.35744">
        <ele>157.917876</ele>
        <time>2022-01-20T09:36:46.747Z</time>
      </trkpt>
      <trkpt lat="36.36379" lon="30.35487">
        <ele>158.890776</ele>
        <time>2022-01-20T09:37:15.752Z</time>
      </trkpt>
      <trkpt lat="36.3639" lon="30.35226">
        <ele>162.531677</ele>
        <time>2022-01-20T09:38:49.771Z</time>
      </trkpt>
      <trkpt lat="36.36483" lon="30.34925">
        <ele>161.774589</ele>
        <time>2022-01-20T09:39:55.770Z</time>
      </trkpt>
      <trkpt lat="36.36457" lon="30.34662">
        <ele>149.338272</ele>
        <time>2022-01-20T09:40:16.766Z</time>
      </trkpt>
      <trkpt lat="36.36622" lon="30.34432">
        <ele>127.714326</ele>
        <time>2022-01-20T09:40:41.769Z</time>
      </trkpt>
      <trkpt lat="36.36782" lon="30.34101">
        <ele>116.041487</ele>
        <time>2022-01-20T09:41:23.758Z</time>
      </trkpt>
      <trkpt lat="36.36645" lon="30.34077">
        <ele>115.4117</ele>
        <time>2022-01-20T09:42:38.756Z</time>
      </trkpt>
      <trkpt lat="36.36422" lon="30.34283">
        <ele>109.474432</ele>
        <time>2022-01-20T09:43:26.760Z</time>
      </trkpt>
      <trkpt lat="36.36267" lon="30.34354">
        <ele>90.173386</ele>
        <time>2022-01-20T09:44:16.781Z</time>
      </trkpt>
      <trkpt lat="36.36249" lon="30.34077">
        <ele>85.50132</ele>
        <time>2022-01-20T09:44:58.765Z</time>
      </trkpt>
      <trkpt lat="36.36197" lon="30.33794">
        <ele>82.375837</ele>
        <time>2022-01-20T09:45:41.768Z</time>
      </trkpt>
      <trkpt lat="36.36123" lon="30.3351">
        <ele>80.277135</ele>
        <time>2022-01-20T09:46:39.770Z</time>
      </trkpt>
      <trkpt lat="36.36047" lon="30.33235">
        <ele>77.542882</ele>
        <time>2022-01-20T09:47:36.763Z</time>
      </trkpt>
      <trkpt lat="36.35962" lon="30.32952">
        <ele>71.235861</ele>
        <time>2022-01-20T09:48:38.764Z</time>
      </trkpt>
      <trkpt lat="36.35876" lon="30.32675">
        <ele>67.677526</ele>
        <time>2022-01-20T09:49:39.745Z</time>
      </trkpt>
      <trkpt lat="36.35683" lon="30.32479">
        <ele>58.266486</ele>
        <time>2022-01-20T09:50:26.752Z</time>
      </trkpt>
      <trkpt lat="36.35492" lon="30.32311">
        <ele>56.331428</ele>
        <time>2022-01-20T09:51:20.763Z</time>
      </trkpt>
      <trkpt lat="36.3529" lon="30.32234">
        <ele>52.778543</ele>
        <time>2022-01-20T09:52:04.757Z</time>
      </trkpt>
      <trkpt lat="36.35061" lon="30.32161">
        <ele>48.902293</ele>
        <time>2022-01-20T09:52:58.756Z</time>
      </trkpt>
      <trkpt lat="36.34901" lon="30.32029">
        <ele>51.039896</ele>
        <time>2022-01-20T09:53:58.761Z</time>
      </trkpt>
      <trkpt lat="36.34996" lon="30.31788">
        <ele>55.27889</ele>
        <time>2022-01-20T09:54:56.766Z</time>
      </trkpt>
      <trkpt lat="36.34957" lon="30.31528">
        <ele>54.153338</ele>
        <time>2022-01-20T09:55:41.753Z</time>
      </trkpt>
      <trkpt lat="36.34987" lon="30.31272">
        <ele>53.036931</ele>
        <time>2022-01-20T09:56:47.750Z</time>
      </trkpt>
      <trkpt lat="36.34878" lon="30.31038">
        <ele>50.689161</ele>
        <time>2022-01-20T09:57:55.803Z</time>
      </trkpt>
      <trkpt lat="36.34801" lon="30.30775">
        <ele>48.949017</ele>
        <time>2022-01-20T09:58:52.760Z</time>
      </trkpt>
      <trkpt lat="36.3472" lon="30.30582">
        <ele>38.869662</ele>
        <time>2022-01-20T10:00:07.767Z</time>
      </trkpt>
      <trkpt lat="36.34725" lon="30.30302">
        <ele>36.914591</ele>
        <time>2022-01-20T10:01:17.767Z</time>
      </trkpt>
      <trkpt lat="36.34621" lon="30.30037">
        <ele>34.664555</ele>
        <time>2022-01-20T10:02:20.816Z</time>
      </trkpt>
      <trkpt lat="36.34481" lon="30.29843">
        <ele>39.978478</ele>
        <time>2022-01-20T10:03:30.769Z</time>
      </trkpt>
      <trkpt lat="36.34235" lon="30.29781">
        <ele>42.931074</ele>
        <time>2022-01-20T10:04:29.747Z</time>
      </trkpt>
      <trkpt lat="36.3397" lon="30.2971">
        <ele>39.933782</ele>
        <time>2022-01-20T10:05:35.768Z</time>
      </trkpt>
      <trkpt lat="36.33724" lon="30.29646">
        <ele>37.306683</ele>
        <time>2022-01-20T10:06:35.754Z</time>
      </trkpt>
      <trkpt lat="36.33481" lon="30.29589">
        <ele>37.288495</ele>
        <time>2022-01-20T10:07:33.752Z</time>
      </trkpt>
      <trkpt lat="36.33213" lon="30.29543">
        <ele>39.657695</ele>
        <time>2022-01-20T10:08:37.770Z</time>
      </trkpt>
      <trkpt lat="36.32975" lon="30.29495">
        <ele>33.833825</ele>
        <time>2022-01-20T10:09:34.778Z</time>
      </trkpt>
      <trkpt lat="36.32712" lon="30.29443">
        <ele>30.30943</ele>
        <time>2022-01-20T10:10:40.775Z</time>
      </trkpt>
      <trkpt lat="36.32462" lon="30.29396">
        <ele>32.012448</ele>
        <time>2022-01-20T10:11:43.756Z</time>
      </trkpt>
      <trkpt lat="36.32203" lon="30.29346">
        <ele>30.658053</ele>
        <time>2022-01-20T10:12:49.768Z</time>
      </trkpt>
      <trkpt lat="36.31955" lon="30.29297">
        <ele>33.915643</ele>
        <time>2022-01-20T10:13:51.790Z</time>
      </trkpt>
      <trkpt lat="36.31747" lon="30.29154">
        <ele>28.338371</ele>
        <time>2022-01-20T10:14:57.768Z</time>
      </trkpt>
      <trkpt lat="36.31811" lon="30.28859">
        <ele>30.180437</ele>
        <time>2022-01-20T10:16:00.806Z</time>
      </trkpt>
      <trkpt lat="36.31873" lon="30.2856">
        <ele>33.842781</ele>
        <time>2022-01-20T10:17:06.766Z</time>
      </trkpt>
      <trkpt lat="36.31894" lon="30.28272">
        <ele>39.788186</ele>
        <time>2022-01-20T10:18:10.774Z</time>
      </trkpt>
      <trkpt lat="36.31914" lon="30.27955">
        <ele>44.297267</ele>
        <time>2022-01-20T10:19:13.766Z</time>
      </trkpt>
      <trkpt lat="36.3194" lon="30.2764">
        <ele>34.622393</ele>
        <time>2022-01-20T10:20:18.776Z</time>
      </trkpt>
      <trkpt lat="36.32005" lon="30.27396">
        <ele>26.059817</ele>
        <time>2022-01-20T10:21:22.801Z</time>
      </trkpt>
      <trkpt lat="36.31946" lon="30.27152">
        <ele>22.936742</ele>
        <time>2022-01-20T10:22:44.770Z</time>
      </trkpt>
      <trkpt lat="36.3189" lon="30.26902">
        <ele>25.530707</ele>
        <time>2022-01-20T10:23:47.786Z</time>
      </trkpt>
      <trkpt lat="36.31827" lon="30.26626">
        <ele>28.697188</ele>
        <time>2022-01-20T10:24:56.783Z</time>
      </trkpt>
      <trkpt lat="36.3177" lon="30.26367">
        <ele>27.121427</ele>
        <time>2022-01-20T10:26:13.807Z</time>
      </trkpt>
      <trkpt lat="36.3171" lon="30.26102">
        <ele>27.781277</ele>
        <time>2022-01-20T10:27:20.791Z</time>
      </trkpt>
      <trkpt lat="36.31666" lon="30.25849">
        <ele>28.992142</ele>
        <time>2022-01-20T10:28:23.762Z</time>
      </trkpt>
      <trkpt lat="36.31645" lon="30.25584">
        <ele>30.436231</ele>
        <time>2022-01-20T10:29:29.782Z</time>
      </trkpt>
      <trkpt lat="36.31642" lon="30.2532">
        <ele>38.585716</ele>
        <time>2022-01-20T10:30:37.785Z</time>
      </trkpt>
      <trkpt lat="36.31644" lon="30.25052">
        <ele>34.036192</ele>
        <time>2022-01-20T10:32:08.767Z</time>
      </trkpt>
      <trkpt lat="36.31641" lon="30.2476">
        <ele>29.429772</ele>
        <time>2022-01-20T10:33:20.783Z</time>
      </trkpt>
      <trkpt lat="36.31647" lon="30.24459">
        <ele>30.67887</ele>
        <time>2022-01-20T10:34:23.785Z</time>
      </trkpt>
      <trkpt lat="36.31664" lon="30.24122">
        <ele>30.626076</ele>
        <time>2022-01-20T10:35:29.779Z</time>
      </trkpt>
      <trkpt lat="36.31675" lon="30.23809">
        <ele>33.462135</ele>
        <time>2022-01-20T10:36:32.779Z</time>
      </trkpt>
      <trkpt lat="36.31693" lon="30.23488">
        <ele>21.858322</ele>
        <time>2022-01-20T10:37:35.777Z</time>
      </trkpt>
      <trkpt lat="36.31676" lon="30.23185">
        <ele>18.79093</ele>
        <time>2022-01-20T10:38:33.763Z</time>
      </trkpt>
      <trkpt lat="36.31581" lon="30.22881">
        <ele>24.975373</ele>
        <time>2022-01-20T10:39:39.762Z</time>
      </trkpt>
      <trkpt lat="36.31495" lon="30.22624">
        <ele>26.908489</ele>
        <time>2022-01-20T10:40:42.830Z</time>
      </trkpt>
      <trkpt lat="36.3146" lon="30.22328">
        <ele>23.811594</ele>
        <time>2022-01-20T10:41:45.789Z</time>
      </trkpt>
      <trkpt lat="36.31474" lon="30.22007">
        <ele>28.733918</ele>
        <time>2022-01-20T10:42:51.750Z</time>
      </trkpt>
      <trkpt lat="36.31502" lon="30.21705">
        <ele>29.832473</ele>
        <time>2022-01-20T10:43:54.794Z</time>
      </trkpt>
      <trkpt lat="36.31529" lon="30.21379">
        <ele>26.672197</ele>
        <time>2022-01-20T10:45:00.778Z</time>
      </trkpt>
      <trkpt lat="36.31631" lon="30.21199">
        <ele>28.421641</ele>
        <time>2022-01-20T10:46:20.810Z</time>
      </trkpt>
      <trkpt lat="36.31542" lon="30.21113">
        <ele>34.523562</ele>
        <time>2022-01-20T11:21:20.780Z</time>
      </trkpt>
      <trkpt lat="36.31558" lon="30.20823">
        <ele>29.226996</ele>
        <time>2022-01-20T11:22:23.774Z</time>
      </trkpt>
      <trkpt lat="36.31558" lon="30.20521">
        <ele>34.406355</ele>
        <time>2022-01-20T11:23:29.831Z</time>
      </trkpt>
      <trkpt lat="36.31552" lon="30.20237">
        <ele>36.26941</ele>
        <time>2022-01-20T11:24:32.784Z</time>
      </trkpt>
      <trkpt lat="36.3155" lon="30.19935">
        <ele>36.918708</ele>
        <time>2022-01-20T11:25:38.759Z</time>
      </trkpt>
      <trkpt lat="36.31549" lon="30.19642">
        <ele>35.845797</ele>
        <time>2022-01-20T11:26:41.762Z</time>
      </trkpt>
      <trkpt lat="36.31544" lon="30.19332">
        <ele>30.63557</ele>
        <time>2022-01-20T11:27:44.776Z</time>
      </trkpt>
      <trkpt lat="36.3154" lon="30.19027">
        <ele>28.346219</ele>
        <time>2022-01-20T11:28:50.778Z</time>
      </trkpt>
      <trkpt lat="36.31528" lon="30.18737">
        <ele>30.47263</ele>
        <time>2022-01-20T11:29:53.797Z</time>
      </trkpt>
      <trkpt lat="36.31475" lon="30.18431">
        <ele>34.225051</ele>
        <time>2022-01-20T11:30:59.778Z</time>
      </trkpt>
      <trkpt lat="36.31409" lon="30.18147">
        <ele>35.176982</ele>
        <time>2022-01-20T11:32:02.779Z</time>
      </trkpt>
      <trkpt lat="36.31337" lon="30.17857">
        <ele>32.981374</ele>
        <time>2022-01-20T11:33:08.782Z</time>
      </trkpt>
      <trkpt lat="36.31269" lon="30.17583">
        <ele>29.691642</ele>
        <time>2022-01-20T11:34:11.779Z</time>
      </trkpt>
      <trkpt lat="36.31194" lon="30.17281">
        <ele>26.847834</ele>
        <time>2022-01-20T11:35:17.771Z</time>
      </trkpt>
      <trkpt lat="36.31122" lon="30.17001">
        <ele>24.872861</ele>
        <time>2022-01-20T11:36:20.775Z</time>
      </trkpt>
      <trkpt lat="36.31048" lon="30.16725">
        <ele>23.14907</ele>
        <time>2022-01-20T11:37:28.776Z</time>
      </trkpt>
      <trkpt lat="36.30948" lon="30.16464">
        <ele>20.825379</ele>
        <time>2022-01-20T11:38:34.775Z</time>
      </trkpt>
      <trkpt lat="36.30824" lon="30.16211">
        <ele>18.61302</ele>
        <time>2022-01-20T11:39:37.819Z</time>
      </trkpt>
      <trkpt lat="36.3069" lon="30.1596">
        <ele>17.119352</ele>
        <time>2022-01-20T11:40:43.771Z</time>
      </trkpt>
      <trkpt lat="36.3057" lon="30.15738">
        <ele>20.744457</ele>
        <time>2022-01-20T11:41:46.776Z</time>
      </trkpt>
      <trkpt lat="36.30439" lon="30.15491">
        <ele>19.791353</ele>
        <time>2022-01-20T11:42:52.775Z</time>
      </trkpt>
      <trkpt lat="36.30364" lon="30.15256">
        <ele>18.798466</ele>
        <time>2022-01-20T11:44:00.765Z</time>
      </trkpt>
      <trkpt lat="36.30219" lon="30.15012">
        <ele>27.206072</ele>
        <time>2022-01-20T11:45:06.766Z</time>
      </trkpt>
      <trkpt lat="36.3007" lon="30.14801">
        <ele>26.418698</ele>
        <time>2022-01-20T11:46:10.773Z</time>
      </trkpt>
      <trkpt lat="36.29869" lon="30.1466">
        <ele>29.493355</ele>
        <time>2022-01-20T11:47:16.765Z</time>
      </trkpt>
      <trkpt lat="36.29638" lon="30.14603">
        <ele>19.901677</ele>
        <time>2022-01-20T11:48:21.794Z</time>
      </trkpt>
      <trkpt lat="36.29444" lon="30.14739">
        <ele>16.872409</ele>
        <time>2022-01-20T11:49:38.795Z</time>
      </trkpt>
      <trkpt lat="36.29254" lon="30.14821">
        <ele>18.147688</ele>
        <time>2022-01-20T11:51:04.786Z</time>
      </trkpt>
      <trkpt lat="36.29077" lon="30.14947">
        <ele>15.507612</ele>
        <time>2022-01-20T11:52:19.773Z</time>
      </trkpt>
      <trkpt lat="36.28869" lon="30.15013">
        <ele>17.14711</ele>
        <time>2022-01-20T11:53:25.775Z</time>
      </trkpt>
      <trkpt lat="36.28708" lon="30.15184">
        <ele>24.731533</ele>
        <time>2022-01-20T11:54:36.778Z</time>
      </trkpt>
      <trkpt lat="36.28499" lon="30.15118">
        <ele>25.176807</ele>
        <time>2022-01-20T11:57:23.782Z</time>
      </trkpt>
      <trkpt lat="36.2827" lon="30.15094">
        <ele>15.97033</ele>
        <time>2022-01-20T11:58:07.782Z</time>
      </trkpt>
      <trkpt lat="36.28065" lon="30.15124">
        <ele>21.880855</ele>
        <time>2022-01-20T11:59:08.778Z</time>
      </trkpt>
      <trkpt lat="36.27933" lon="30.15243">
        <ele>18.468268</ele>
        <time>2022-01-20T12:00:04.790Z</time>
      </trkpt>
      <trkpt lat="36.27727" lon="30.15215">
        <ele>16.937876</ele>
        <time>2022-01-20T12:01:05.791Z</time>
      </trkpt>
      <trkpt lat="36.27515" lon="30.15193">
        <ele>14.916152</ele>
        <time>2022-01-20T12:02:27.793Z</time>
      </trkpt>
      <trkpt lat="36.27557" lon="30.14946">
        <ele>24.780933</ele>
        <time>2022-01-20T12:04:34.777Z</time>
      </trkpt>
      <trkpt lat="36.2756" lon="30.14681">
        <ele>22.72632</ele>
        <time>2022-01-20T12:05:35.783Z</time>
      </trkpt>
      <trkpt lat="36.27652" lon="30.1442">
        <ele>17.717359</ele>
        <time>2022-01-20T12:06:54.816Z</time>
      </trkpt>
      <trkpt lat="36.27873" lon="30.14177">
        <ele>5.934664</ele>
        <time>2022-01-20T12:07:35.791Z</time>
      </trkpt>
      <trkpt lat="36.279" lon="30.13902">
        <ele>2.800897</ele>
        <time>2022-01-20T12:08:13.824Z</time>
      </trkpt>
      <trkpt lat="36.27717" lon="30.13736">
        <ele>15.258212</ele>
        <time>2022-01-20T12:09:19.776Z</time>
      </trkpt>
      <trkpt lat="36.27529" lon="30.13582">
        <ele>23.232554</ele>
        <time>2022-01-20T12:10:25.813Z</time>
      </trkpt>
      <trkpt lat="36.27414" lon="30.13414">
        <ele>24.887641</ele>
        <time>2022-01-20T12:11:33.779Z</time>
      </trkpt>
      <trkpt lat="36.27278" lon="30.13332">
        <ele>21.362975</ele>
        <time>2022-01-20T12:12:39.785Z</time>
      </trkpt>
      <trkpt lat="36.2708" lon="30.13239">
        <ele>25.36113</ele>
        <time>2022-01-20T12:14:15.794Z</time>
      </trkpt>
      <trkpt lat="36.26977" lon="30.1309">
        <ele>35.487673</ele>
        <time>2022-01-20T12:15:38.780Z</time>
      </trkpt>
      <trkpt lat="36.26832" lon="30.12948">
        <ele>39.449252</ele>
        <time>2022-01-20T12:18:14.795Z</time>
      </trkpt>
      <trkpt lat="36.26604" lon="30.13103">
        <ele>29.286816</ele>
        <time>2022-01-20T12:19:07.785Z</time>
      </trkpt>
      <trkpt lat="36.26455" lon="30.12915">
        <ele>31.873783</ele>
        <time>2022-01-20T12:20:23.830Z</time>
      </trkpt>
      <trkpt lat="36.26269" lon="30.12778">
        <ele>32.845127</ele>
        <time>2022-01-20T12:21:20.781Z</time>
      </trkpt>
      <trkpt lat="36.26232" lon="30.12538">
        <ele>34.096375</ele>
        <time>2022-01-20T12:22:25.766Z</time>
      </trkpt>
      <trkpt lat="36.26307" lon="30.12256">
        <ele>35.47251</ele>
        <time>2022-01-20T12:23:22.788Z</time>
      </trkpt>
      <trkpt lat="36.26225" lon="30.12083">
        <ele>30.484201</ele>
        <time>2022-01-20T12:24:13.768Z</time>
      </trkpt>
      <trkpt lat="36.26015" lon="30.12139">
        <ele>29.213834</ele>
        <time>2022-01-20T12:25:46.785Z</time>
      </trkpt>
      <trkpt lat="36.25797" lon="30.12147">
        <ele>24.066446</ele>
        <time>2022-01-20T12:27:06.792Z</time>
      </trkpt>
      <trkpt lat="36.25706" lon="30.11908">
        <ele>25.889456</ele>
        <time>2022-01-20T12:28:18.770Z</time>
      </trkpt>
      <trkpt lat="36.25503" lon="30.11992">
        <ele>22.031906</ele>
        <time>2022-01-20T12:29:18.775Z</time>
      </trkpt>
      <trkpt lat="36.25283" lon="30.11965">
        <ele>18.63399</ele>
        <time>2022-01-20T12:30:19.787Z</time>
      </trkpt>
      <trkpt lat="36.2519" lon="30.11827">
        <ele>23.163638</ele>
        <time>2022-01-20T12:31:16.791Z</time>
      </trkpt>
      <trkpt lat="36.25115" lon="30.117">
        <ele>26.500966</ele>
        <time>2022-01-20T12:32:40.780Z</time>
      </trkpt>
      <trkpt lat="36.24916" lon="30.11655">
        <ele>21.862597</ele>
        <time>2022-01-20T12:34:10.797Z</time>
      </trkpt>
      <trkpt lat="36.24796" lon="30.11454">
        <ele>28.006098</ele>
        <time>2022-01-20T12:34:59.781Z</time>
      </trkpt>
      <trkpt lat="36.24722" lon="30.11196">
        <ele>31.992175</ele>
        <time>2022-01-20T12:36:19.808Z</time>
      </trkpt>
      <trkpt lat="36.24867" lon="30.11002">
        <ele>52.541653</ele>
        <time>2022-01-20T12:37:46.807Z</time>
      </trkpt>
      <trkpt lat="36.25048" lon="30.10895">
        <ele>84.11992</ele>
        <time>2022-01-20T12:39:30.797Z</time>
      </trkpt>
      <trkpt lat="36.249" lon="30.10778">
        <ele>38.157872</ele>
        <time>2022-01-20T12:40:22.779Z</time>
      </trkpt>
      <trkpt lat="36.24718" lon="30.10631">
        <ele>2.852763</ele>
        <time>2022-01-20T12:41:38.779Z</time>
      </trkpt>
      <trkpt lat="36.24713" lon="30.10358">
        <ele>32.686694</ele>
        <time>2022-01-20T12:42:38.794Z</time>
      </trkpt>
      <trkpt lat="36.24879" lon="30.10201">
        <ele>79.313476</ele>
        <time>2022-01-20T12:44:24.779Z</time>
      </trkpt>
      <trkpt lat="36.24859" lon="30.10051">
        <ele>57.052693</ele>
        <time>2022-01-20T12:46:24.795Z</time>
      </trkpt>
      <trkpt lat="36.24809" lon="30.09872">
        <ele>45.101902</ele>
        <time>2022-01-20T12:48:03.791Z</time>
      </trkpt>
      <trkpt lat="36.2488" lon="30.09635">
        <ele>57.125517</ele>
        <time>2022-01-20T12:48:52.826Z</time>
      </trkpt>
      <trkpt lat="36.24924" lon="30.09382">
        <ele>61.402203</ele>
        <time>2022-01-20T12:49:52.821Z</time>
      </trkpt>
      <trkpt lat="36.2508" lon="30.09302">
        <ele>72.884848</ele>
        <time>2022-01-20T12:51:50.828Z</time>
      </trkpt>
      <trkpt lat="36.25114" lon="30.0905">
        <ele>56.719468</ele>
        <time>2022-01-20T12:52:34.785Z</time>
      </trkpt>
      <trkpt lat="36.25105" lon="30.08738">
        <ele>33.404666</ele>
        <time>2022-01-20T12:53:27.792Z</time>
      </trkpt>
      <trkpt lat="36.2516" lon="30.08489">
        <ele>34.548408</ele>
        <time>2022-01-20T12:54:16.820Z</time>
      </trkpt>
      <trkpt lat="36.25356" lon="30.08545">
        <ele>80.148018</ele>
        <time>2022-01-20T12:56:12.792Z</time>
      </trkpt>
      <trkpt lat="36.25406" lon="30.0836">
        <ele>66.25644</ele>
        <time>2022-01-20T12:57:40.793Z</time>
      </trkpt>
      <trkpt lat="36.25419" lon="30.08059">
        <ele>51.362429</ele>
        <time>2022-01-20T12:58:27.800Z</time>
      </trkpt>
      <trkpt lat="36.25604" lon="30.08008">
        <ele>56.92381</ele>
        <time>2022-01-20T12:59:22.787Z</time>
      </trkpt>
      <trkpt lat="36.25695" lon="30.07862">
        <ele>60.669303</ele>
        <time>2022-01-20T13:00:35.811Z</time>
      </trkpt>
      <trkpt lat="36.2571" lon="30.07599">
        <ele>41.965156</ele>
        <time>2022-01-20T13:01:20.794Z</time>
      </trkpt>
      <trkpt lat="36.25887" lon="30.07389">
        <ele>37.802577</ele>
        <time>2022-01-20T13:02:02.797Z</time>
      </trkpt>
      <trkpt lat="36.26061" lon="30.07052">
        <ele>22.834803</ele>
        <time>2022-01-20T13:02:46.800Z</time>
      </trkpt>
      <trkpt lat="36.26263" lon="30.06833">
        <ele>18.555161</ele>
        <time>2022-01-20T13:03:37.791Z</time>
      </trkpt>
      <trkpt lat="36.26432" lon="30.06662">
        <ele>20.247886</ele>
        <time>2022-01-20T13:04:25.791Z</time>
      </trkpt>
      <trkpt lat="36.26614" lon="30.06483">
        <ele>25.737578</ele>
        <time>2022-01-20T13:05:18.813Z</time>
      </trkpt>
      <trkpt lat="36.2678" lon="30.06287">
        <ele>16.983043</ele>
        <time>2022-01-20T13:06:07.784Z</time>
      </trkpt>
      <trkpt lat="36.26931" lon="30.06127">
        <ele>12.628137</ele>
        <time>2022-01-20T13:07:07.784Z</time>
      </trkpt>
      <trkpt lat="36.27072" lon="30.05895">
        <ele>15.945108</ele>
        <time>2022-01-20T13:08:10.783Z</time>
      </trkpt>
      <trkpt lat="36.27304" lon="30.05911">
        <ele>10.919221</ele>
        <time>2022-01-20T13:09:16.788Z</time>
      </trkpt>
      <trkpt lat="36.27487" lon="30.05792">
        <ele>17.5333</ele>
        <time>2022-01-20T13:10:19.797Z</time>
      </trkpt>
      <trkpt lat="36.27533" lon="30.05508">
        <ele>16.634368</ele>
        <time>2022-01-20T13:11:24.775Z</time>
      </trkpt>
      <trkpt lat="36.27432" lon="30.05203">
        <ele>13.625551</ele>
        <time>2022-01-20T13:12:27.788Z</time>
      </trkpt>
      <trkpt lat="36.27338" lon="30.04934">
        <ele>10.794261</ele>
        <time>2022-01-20T13:13:20.817Z</time>
      </trkpt>
      <trkpt lat="36.27232" lon="30.04698">
        <ele>8.527519</ele>
        <time>2022-01-20T13:14:31.826Z</time>
      </trkpt>
      <trkpt lat="36.27021" lon="30.04592">
        <ele>5.334635</ele>
        <time>2022-01-20T13:15:31.802Z</time>
      </trkpt>
      <trkpt lat="36.269" lon="30.04396">
        <ele>-0.248244</ele>
        <time>2022-01-20T13:16:31.801Z</time>
      </trkpt>
      <trkpt lat="36.26702" lon="30.04347">
        <ele>-1.086096</ele>
        <time>2022-01-20T13:17:30.829Z</time>
      </trkpt>
      <trkpt lat="36.26591" lon="30.0411">
        <ele>1.703318</ele>
        <time>2022-01-20T13:18:19.802Z</time>
      </trkpt>
      <trkpt lat="36.26354" lon="30.04033">
        <ele>0.963921</ele>
        <time>2022-01-20T13:19:15.792Z</time>
      </trkpt>
      <trkpt lat="36.26134" lon="30.04016">
        <ele>8.100471</ele>
        <time>2022-01-20T13:20:13.778Z</time>
      </trkpt>
      <trkpt lat="36.25952" lon="30.03828">
        <ele>3.769189</ele>
        <time>2022-01-20T13:21:16.800Z</time>
      </trkpt>
      <trkpt lat="36.25748" lon="30.03641">
        <ele>11.447879</ele>
        <time>2022-01-20T13:22:21.784Z</time>
      </trkpt>
      <trkpt lat="36.25604" lon="30.0341">
        <ele>11.447768</ele>
        <time>2022-01-20T13:23:24.806Z</time>
      </trkpt>
      <trkpt lat="36.25532" lon="30.03118">
        <ele>11.077681</ele>
        <time>2022-01-20T13:24:30.833Z</time>
      </trkpt>
      <trkpt lat="36.25493" lon="30.02829">
        <ele>6.932038</ele>
        <time>2022-01-20T13:25:33.791Z</time>
      </trkpt>
      <trkpt lat="36.25451" lon="30.02549">
        <ele>8.9188</ele>
        <time>2022-01-20T13:26:39.837Z</time>
      </trkpt>
      <trkpt lat="36.25411" lon="30.02287">
        <ele>13.780521</ele>
        <time>2022-01-20T13:27:43.799Z</time>
      </trkpt>
      <trkpt lat="36.25325" lon="30.02034">
        <ele>16.150302</ele>
        <time>2022-01-20T13:28:46.795Z</time>
      </trkpt>
      <trkpt lat="36.25236" lon="30.01776">
        <ele>12.908088</ele>
        <time>2022-01-20T13:29:53.804Z</time>
      </trkpt>
      <trkpt lat="36.25189" lon="30.01522">
        <ele>14.313702</ele>
        <time>2022-01-20T13:30:59.814Z</time>
      </trkpt>
      <trkpt lat="36.25134" lon="30.01255">
        <ele>17.974067</ele>
        <time>2022-01-20T13:32:10.788Z</time>
      </trkpt>
      <trkpt lat="36.25051" lon="30.01001">
        <ele>14.356231</ele>
        <time>2022-01-20T13:33:17.798Z</time>
      </trkpt>
      <trkpt lat="36.24947" lon="30.00731">
        <ele>18.068648</ele>
        <time>2022-01-20T13:34:17.798Z</time>
      </trkpt>
      <trkpt lat="36.24854" lon="30.00473">
        <ele>14.950942</ele>
        <time>2022-01-20T13:35:09.798Z</time>
      </trkpt>
      <trkpt lat="36.24771" lon="30.0019">
        <ele>15.798194</ele>
        <time>2022-01-20T13:36:04.800Z</time>
      </trkpt>
      <trkpt lat="36.24673" lon="29.99916">
        <ele>17.533467</ele>
        <time>2022-01-20T13:37:03.801Z</time>
      </trkpt>
      <trkpt lat="36.24518" lon="29.99763">
        <ele>15.985159</ele>
        <time>2022-01-20T13:38:05.792Z</time>
      </trkpt>
      <trkpt lat="36.2446" lon="29.99557">
        <ele>16.398165</ele>
        <time>2022-01-20T13:38:53.793Z</time>
      </trkpt>
      <trkpt lat="36.24437" lon="29.99287">
        <ele>24.350484</ele>
        <time>2022-01-20T13:39:51.799Z</time>
      </trkpt>
      <trkpt lat="36.24379" lon="29.98993">
        <ele>33.858932</ele>
        <time>2022-01-20T13:40:52.794Z</time>
      </trkpt>
      <trkpt lat="36.24284" lon="29.98778">
        <ele>30.176886</ele>
        <time>2022-01-20T13:42:22.812Z</time>
      </trkpt>
      <trkpt lat="36.24044" lon="29.98829">
        <ele>19.157127</ele>
        <time>2022-01-20T13:43:19.790Z</time>
      </trkpt>
      <trkpt lat="36.23846" lon="29.98892">
        <ele>18.442286</ele>
        <time>2022-01-20T13:44:28.802Z</time>
      </trkpt>
      <trkpt lat="36.23744" lon="29.98963">
        <ele>18.442286</ele>
        <time>2022-01-20T13:47:28.227Z</time>
      </trkpt>
      <trkpt lat="36.23762" lon="29.98978">
        <ele>31.144357</ele>
        <time>2022-01-21T07:38:43.023Z</time>
      </trkpt>
      <trkpt lat="36.23851" lon="29.98907">
        <ele>32.836468</ele>
        <time>2022-01-21T07:45:24.309Z</time>
      </trkpt>
      <trkpt lat="36.23918" lon="29.98691">
        <ele>42.973524</ele>
        <time>2022-01-21T07:48:15.302Z</time>
      </trkpt>
      <trkpt lat="36.23898" lon="29.98389">
        <ele>40.091667</ele>
        <time>2022-01-21T07:49:41.280Z</time>
      </trkpt>
      <trkpt lat="36.23852" lon="29.98104">
        <ele>35.633502</ele>
        <time>2022-01-21T07:50:34.278Z</time>
      </trkpt>
      <trkpt lat="36.23808" lon="29.97833">
        <ele>26.783012</ele>
        <time>2022-01-21T07:51:26.272Z</time>
      </trkpt>
      <trkpt lat="36.23766" lon="29.97592">
        <ele>25.284758</ele>
        <time>2022-01-21T07:52:08.255Z</time>
      </trkpt>
      <trkpt lat="36.23726" lon="29.97348">
        <ele>23.692296</ele>
        <time>2022-01-21T07:52:51.279Z</time>
      </trkpt>
      <trkpt lat="36.23659" lon="29.97085">
        <ele>22.966004</ele>
        <time>2022-01-21T07:53:40.302Z</time>
      </trkpt>
      <trkpt lat="36.23533" lon="29.9683">
        <ele>23.366444</ele>
        <time>2022-01-21T07:54:40.271Z</time>
      </trkpt>
      <trkpt lat="36.23506" lon="29.96675">
        <ele>24.977525</ele>
        <time>2022-01-21T08:09:08.312Z</time>
      </trkpt>
      <trkpt lat="36.23481" lon="29.96396">
        <ele>25.841885</ele>
        <time>2022-01-21T08:09:59.271Z</time>
      </trkpt>
      <trkpt lat="36.23459" lon="29.96117">
        <ele>30.856655</ele>
        <time>2022-01-21T08:10:59.286Z</time>
      </trkpt>
      <trkpt lat="36.2335" lon="29.95892">
        <ele>38.685882</ele>
        <time>2022-01-21T08:12:06.277Z</time>
      </trkpt>
      <trkpt lat="36.23197" lon="29.95722">
        <ele>46.28243</ele>
        <time>2022-01-21T08:13:49.285Z</time>
      </trkpt>
      <trkpt lat="36.23107" lon="29.95503">
        <ele>51.614915</ele>
        <time>2022-01-21T08:15:31.272Z</time>
      </trkpt>
      <trkpt lat="36.23022" lon="29.95257">
        <ele>60.396107</ele>
        <time>2022-01-21T08:17:03.271Z</time>
      </trkpt>
      <trkpt lat="36.22978" lon="29.95009">
        <ele>69.920819</ele>
        <time>2022-01-21T08:18:53.285Z</time>
      </trkpt>
      <trkpt lat="36.22908" lon="29.94781">
        <ele>83.529606</ele>
        <time>2022-01-21T08:20:39.305Z</time>
      </trkpt>
      <trkpt lat="36.23007" lon="29.94582">
        <ele>100.880827</ele>
        <time>2022-01-21T08:22:32.283Z</time>
      </trkpt>
      <trkpt lat="36.23186" lon="29.94457">
        <ele>109.6393</ele>
        <time>2022-01-21T08:24:19.288Z</time>
      </trkpt>
      <trkpt lat="36.23377" lon="29.94483">
        <ele>113.983985</ele>
        <time>2022-01-21T08:26:18.264Z</time>
      </trkpt>
      <trkpt lat="36.23584" lon="29.94473">
        <ele>125.374515</ele>
        <time>2022-01-21T08:28:25.322Z</time>
      </trkpt>
      <trkpt lat="36.23759" lon="29.94421">
        <ele>136.856899</ele>
        <time>2022-01-21T08:30:40.292Z</time>
      </trkpt>
      <trkpt lat="36.239" lon="29.94274">
        <ele>142.274914</ele>
        <time>2022-01-21T08:32:13.319Z</time>
      </trkpt>
      <trkpt lat="36.24083" lon="29.94384">
        <ele>149.189278</ele>
        <time>2022-01-21T08:34:16.287Z</time>
      </trkpt>
      <trkpt lat="36.24266" lon="29.94499">
        <ele>158.832155</ele>
        <time>2022-01-21T08:36:30.286Z</time>
      </trkpt>
      <trkpt lat="36.24407" lon="29.94572">
        <ele>164.99903</ele>
        <time>2022-01-21T08:49:57.283Z</time>
      </trkpt>
      <trkpt lat="36.24592" lon="29.947">
        <ele>173.519092</ele>
        <time>2022-01-21T08:51:44.289Z</time>
      </trkpt>
      <trkpt lat="36.24762" lon="29.9485">
        <ele>182.071513</ele>
        <time>2022-01-21T08:53:36.281Z</time>
      </trkpt>
      <trkpt lat="36.24928" lon="29.94984">
        <ele>189.49132</ele>
        <time>2022-01-21T08:55:18.273Z</time>
      </trkpt>
      <trkpt lat="36.24919" lon="29.94756">
        <ele>197.328033</ele>
        <time>2022-01-21T08:57:18.269Z</time>
      </trkpt>
      <trkpt lat="36.24862" lon="29.94504">
        <ele>204.944256</ele>
        <time>2022-01-21T08:59:01.314Z</time>
      </trkpt>
      <trkpt lat="36.24846" lon="29.94258">
        <ele>208.946975</ele>
        <time>2022-01-21T09:00:29.286Z</time>
      </trkpt>
      <trkpt lat="36.24919" lon="29.93931">
        <ele>205.463793</ele>
        <time>2022-01-21T09:01:22.329Z</time>
      </trkpt>
      <trkpt lat="36.24788" lon="29.93836">
        <ele>204.540159</ele>
        <time>2022-01-21T09:02:53.286Z</time>
      </trkpt>
      <trkpt lat="36.24633" lon="29.93646">
        <ele>202.667199</ele>
        <time>2022-01-21T09:04:05.277Z</time>
      </trkpt>
      <trkpt lat="36.24513" lon="29.93443">
        <ele>217.256163</ele>
        <time>2022-01-21T09:06:17.295Z</time>
      </trkpt>
      <trkpt lat="36.24368" lon="29.93294">
        <ele>221.782165</ele>
        <time>2022-01-21T09:08:27.313Z</time>
      </trkpt>
      <trkpt lat="36.24385" lon="29.93032">
        <ele>226.122101</ele>
        <time>2022-01-21T09:09:52.309Z</time>
      </trkpt>
      <trkpt lat="36.24486" lon="29.92836">
        <ele>224.665637</ele>
        <time>2022-01-21T09:11:01.292Z</time>
      </trkpt>
      <trkpt lat="36.24471" lon="29.92585">
        <ele>225.30911</ele>
        <time>2022-01-21T09:12:18.274Z</time>
      </trkpt>
      <trkpt lat="36.24431" lon="29.92321">
        <ele>215.990889</ele>
        <time>2022-01-21T09:13:11.292Z</time>
      </trkpt>
      <trkpt lat="36.24394" lon="29.9204">
        <ele>200.334785</ele>
        <time>2022-01-21T09:13:58.270Z</time>
      </trkpt>
      <trkpt lat="36.24354" lon="29.9178">
        <ele>183.614732</ele>
        <time>2022-01-21T09:14:44.303Z</time>
      </trkpt>
      <trkpt lat="36.24195" lon="29.91578">
        <ele>169.330435</ele>
        <time>2022-01-21T09:15:26.303Z</time>
      </trkpt>
      <trkpt lat="36.24034" lon="29.91381">
        <ele>157.274533</ele>
        <time>2022-01-21T09:16:11.294Z</time>
      </trkpt>
      <trkpt lat="36.23943" lon="29.91115">
        <ele>151.596885</ele>
        <time>2022-01-21T09:17:00.274Z</time>
      </trkpt>
      <trkpt lat="36.23956" lon="29.90856">
        <ele>144.726341</ele>
        <time>2022-01-21T09:17:49.303Z</time>
      </trkpt>
      <trkpt lat="36.23783" lon="29.90736">
        <ele>155.409822</ele>
        <time>2022-01-21T09:20:14.319Z</time>
      </trkpt>
      <trkpt lat="36.23622" lon="29.90745">
        <ele>175.041654</ele>
        <time>2022-01-21T09:22:48.267Z</time>
      </trkpt>
      <trkpt lat="36.23547" lon="29.90525">
        <ele>173.410791</ele>
        <time>2022-01-21T09:24:35.293Z</time>
      </trkpt>
      <trkpt lat="36.23439" lon="29.90264">
        <ele>159.934539</ele>
        <time>2022-01-21T09:25:21.287Z</time>
      </trkpt>
      <trkpt lat="36.23327" lon="29.90036">
        <ele>151.211615</ele>
        <time>2022-01-21T09:26:02.292Z</time>
      </trkpt>
      <trkpt lat="36.23184" lon="29.8983">
        <ele>144.59547</ele>
        <time>2022-01-21T09:26:45.281Z</time>
      </trkpt>
      <trkpt lat="36.231" lon="29.89581">
        <ele>146.383671</ele>
        <time>2022-01-21T09:27:59.292Z</time>
      </trkpt>
      <trkpt lat="36.23038" lon="29.89335">
        <ele>145.472145</ele>
        <time>2022-01-21T09:28:55.326Z</time>
      </trkpt>
      <trkpt lat="36.22988" lon="29.89089">
        <ele>156.744823</ele>
        <time>2022-01-21T09:30:25.300Z</time>
      </trkpt>
      <trkpt lat="36.22895" lon="29.88862">
        <ele>156.994089</ele>
        <time>2022-01-21T09:31:39.276Z</time>
      </trkpt>
      <trkpt lat="36.22776" lon="29.88623">
        <ele>150.788095</ele>
        <time>2022-01-21T09:32:23.299Z</time>
      </trkpt>
      <trkpt lat="36.22583" lon="29.8847">
        <ele>141.523375</ele>
        <time>2022-01-21T09:33:05.303Z</time>
      </trkpt>
      <trkpt lat="36.22374" lon="29.88361">
        <ele>135.083159</ele>
        <time>2022-01-21T09:33:58.319Z</time>
      </trkpt>
      <trkpt lat="36.22208" lon="29.88165">
        <ele>129.509596</ele>
        <time>2022-01-21T09:34:53.329Z</time>
      </trkpt>
      <trkpt lat="36.2205" lon="29.87971">
        <ele>121.97463</ele>
        <time>2022-01-21T09:35:44.300Z</time>
      </trkpt>
      <trkpt lat="36.21934" lon="29.87745">
        <ele>118.408131</ele>
        <time>2022-01-21T09:36:33.298Z</time>
      </trkpt>
      <trkpt lat="36.2184" lon="29.87519">
        <ele>127.193347</ele>
        <time>2022-01-21T09:37:58.284Z</time>
      </trkpt>
      <trkpt lat="36.21858" lon="29.87309">
        <ele>151.899534</ele>
        <time>2022-01-21T09:41:18.269Z</time>
      </trkpt>
      <trkpt lat="36.21962" lon="29.87111">
        <ele>173.167113</ele>
        <time>2022-01-21T09:44:24.275Z</time>
      </trkpt>
      <trkpt lat="36.21948" lon="29.86891">
        <ele>187.402947</ele>
        <time>2022-01-21T09:47:37.331Z</time>
      </trkpt>
      <trkpt lat="36.21889" lon="29.86659">
        <ele>181.956251</ele>
        <time>2022-01-21T09:49:31.293Z</time>
      </trkpt>
      <trkpt lat="36.21966" lon="29.86447">
        <ele>163.309615</ele>
        <time>2022-01-21T09:50:18.280Z</time>
      </trkpt>
      <trkpt lat="36.21977" lon="29.86162">
        <ele>157.43615</ele>
        <time>2022-01-21T10:05:23.297Z</time>
      </trkpt>
      <trkpt lat="36.2198" lon="29.85908">
        <ele>151.254116</ele>
        <time>2022-01-21T10:06:05.292Z</time>
      </trkpt>
      <trkpt lat="36.2202" lon="29.85655">
        <ele>148.838801</ele>
        <time>2022-01-21T10:06:55.343Z</time>
      </trkpt>
      <trkpt lat="36.22064" lon="29.85383">
        <ele>142.605829</ele>
        <time>2022-01-21T10:07:44.295Z</time>
      </trkpt>
      <trkpt lat="36.2207" lon="29.85115">
        <ele>140.729594</ele>
        <time>2022-01-21T10:08:49.292Z</time>
      </trkpt>
      <trkpt lat="36.21965" lon="29.84887">
        <ele>137.184557</ele>
        <time>2022-01-21T10:09:59.289Z</time>
      </trkpt>
      <trkpt lat="36.21884" lon="29.84599">
        <ele>127.930759</ele>
        <time>2022-01-21T10:18:17.294Z</time>
      </trkpt>
      <trkpt lat="36.21877" lon="29.84327">
        <ele>132.385878</ele>
        <time>2022-01-21T10:19:09.293Z</time>
      </trkpt>
      <trkpt lat="36.21866" lon="29.84062">
        <ele>137.049914</ele>
        <time>2022-01-21T10:20:18.305Z</time>
      </trkpt>
      <trkpt lat="36.21856" lon="29.83784">
        <ele>132.647117</ele>
        <time>2022-01-21T10:21:14.295Z</time>
      </trkpt>
      <trkpt lat="36.21985" lon="29.83672">
        <ele>142.521535</ele>
        <time>2022-01-21T10:23:13.309Z</time>
      </trkpt>
      <trkpt lat="36.22173" lon="29.83582">
        <ele>156.788688</ele>
        <time>2022-01-21T10:25:57.294Z</time>
      </trkpt>
      <trkpt lat="36.22271" lon="29.83392">
        <ele>165.711988</ele>
        <time>2022-01-21T10:28:21.333Z</time>
      </trkpt>
      <trkpt lat="36.2226" lon="29.83158">
        <ele>171.131437</ele>
        <time>2022-01-21T10:30:57.347Z</time>
      </trkpt>
      <trkpt lat="36.22184" lon="29.82929">
        <ele>183.075865</ele>
        <time>2022-01-21T10:33:40.307Z</time>
      </trkpt>
      <trkpt lat="36.22128" lon="29.82692">
        <ele>207.646366</ele>
        <time>2022-01-21T10:36:41.317Z</time>
      </trkpt>
      <trkpt lat="36.22129" lon="29.82462">
        <ele>225.597552</ele>
        <time>2022-01-21T10:39:32.319Z</time>
      </trkpt>
      <trkpt lat="36.22054" lon="29.82235">
        <ele>237.626278</ele>
        <time>2022-01-21T10:42:17.333Z</time>
      </trkpt>
      <trkpt lat="36.21943" lon="29.82041">
        <ele>260.92821</ele>
        <time>2022-01-21T10:45:33.320Z</time>
      </trkpt>
      <trkpt lat="36.21779" lon="29.81926">
        <ele>271.244029</ele>
        <time>2022-01-21T10:48:25.305Z</time>
      </trkpt>
      <trkpt lat="36.21728" lon="29.81704">
        <ele>295.000592</ele>
        <time>2022-01-21T10:51:46.315Z</time>
      </trkpt>
      <trkpt lat="36.21755" lon="29.8146">
        <ele>314.349753</ele>
        <time>2022-01-21T10:55:10.305Z</time>
      </trkpt>
      <trkpt lat="36.21708" lon="29.81232">
        <ele>327.520802</ele>
        <time>2022-01-21T10:58:06.322Z</time>
      </trkpt>
      <trkpt lat="36.21605" lon="29.81014">
        <ele>335.010753</ele>
        <time>2022-01-21T11:00:46.349Z</time>
      </trkpt>
      <trkpt lat="36.21507" lon="29.80799">
        <ele>342.272732</ele>
        <time>2022-01-21T11:03:25.329Z</time>
      </trkpt>
      <trkpt lat="36.21396" lon="29.80604">
        <ele>352.04335</ele>
        <time>2022-01-21T11:05:49.325Z</time>
      </trkpt>
      <trkpt lat="36.21287" lon="29.80391">
        <ele>364.174506</ele>
        <time>2022-01-21T11:08:28.335Z</time>
      </trkpt>
      <trkpt lat="36.21188" lon="29.80172">
        <ele>379.134891</ele>
        <time>2022-01-21T11:11:19.321Z</time>
      </trkpt>
      <trkpt lat="36.21107" lon="29.79958">
        <ele>394.561498</ele>
        <time>2022-01-21T11:13:54.317Z</time>
      </trkpt>
      <trkpt lat="36.20992" lon="29.79753">
        <ele>403.91821</ele>
        <time>2022-01-21T11:16:32.320Z</time>
      </trkpt>
      <trkpt lat="36.20869" lon="29.79567">
        <ele>414.116963</ele>
        <time>2022-01-21T11:18:43.315Z</time>
      </trkpt>
      <trkpt lat="36.20756" lon="29.79349">
        <ele>423.383204</ele>
        <time>2022-01-21T11:20:43.363Z</time>
      </trkpt>
      <trkpt lat="36.20627" lon="29.79156">
        <ele>429.407815</ele>
        <time>2022-01-21T11:22:56.303Z</time>
      </trkpt>
      <trkpt lat="36.20505" lon="29.7896">
        <ele>434.525552</ele>
        <time>2022-01-21T11:24:41.328Z</time>
      </trkpt>
      <trkpt lat="36.2037" lon="29.78761">
        <ele>437.727778</ele>
        <time>2022-01-21T11:26:16.302Z</time>
      </trkpt>
      <trkpt lat="36.20204" lon="29.78552">
        <ele>423.799376</ele>
        <time>2022-01-21T11:37:47.346Z</time>
      </trkpt>
      <trkpt lat="36.20094" lon="29.78326">
        <ele>406.915947</ele>
        <time>2022-01-21T11:38:29.315Z</time>
      </trkpt>
      <trkpt lat="36.19929" lon="29.78157">
        <ele>386.825748</ele>
        <time>2022-01-21T11:39:12.329Z</time>
      </trkpt>
      <trkpt lat="36.19813" lon="29.77938">
        <ele>367.448751</ele>
        <time>2022-01-21T11:39:58.388Z</time>
      </trkpt>
      <trkpt lat="36.19648" lon="29.77776">
        <ele>356.159049</ele>
        <time>2022-01-21T11:40:43.352Z</time>
      </trkpt>
      <trkpt lat="36.19591" lon="29.77532">
        <ele>344.748689</ele>
        <time>2022-01-21T11:41:28.391Z</time>
      </trkpt>
      <trkpt lat="36.19571" lon="29.77242">
        <ele>336.713869</ele>
        <time>2022-01-21T11:42:15.327Z</time>
      </trkpt>
      <trkpt lat="36.19565" lon="29.76998">
        <ele>326.943987</ele>
        <time>2022-01-21T11:43:12.326Z</time>
      </trkpt>
      <trkpt lat="36.19761" lon="29.76908">
        <ele>320.531822</ele>
        <time>2022-01-21T11:44:25.329Z</time>
      </trkpt>
      <trkpt lat="36.19959" lon="29.76816">
        <ele>322.757498</ele>
        <time>2022-01-21T11:45:44.317Z</time>
      </trkpt>
      <trkpt lat="36.20135" lon="29.76683">
        <ele>331.054089</ele>
        <time>2022-01-21T11:47:15.335Z</time>
      </trkpt>
      <trkpt lat="36.20281" lon="29.76654">
        <ele>351.993295</ele>
        <time>2022-01-21T11:50:06.339Z</time>
      </trkpt>
      <trkpt lat="36.20311" lon="29.76432">
        <ele>373.095972</ele>
        <time>2022-01-21T11:53:23.348Z</time>
      </trkpt>
      <trkpt lat="36.20344" lon="29.76259">
        <ele>388.891647</ele>
        <time>2022-01-21T11:56:29.342Z</time>
      </trkpt>
      <trkpt lat="36.20275" lon="29.7607">
        <ele>402.890043</ele>
        <time>2022-01-21T11:59:48.346Z</time>
      </trkpt>
      <trkpt lat="36.20416" lon="29.76257">
        <ele>419.268039</ele>
        <time>2022-01-21T12:02:24.330Z</time>
      </trkpt>
      <trkpt lat="36.20547" lon="29.76427">
        <ele>432.131057</ele>
        <time>2022-01-21T12:05:12.337Z</time>
      </trkpt>
      <trkpt lat="36.20698" lon="29.76582">
        <ele>451.203319</ele>
        <time>2022-01-21T12:08:16.330Z</time>
      </trkpt>
      <trkpt lat="36.20793" lon="29.76598">
        <ele>468.744089</ele>
        <time>2022-01-21T12:11:42.338Z</time>
      </trkpt>
      <trkpt lat="36.20815" lon="29.76434">
        <ele>484.370527</ele>
        <time>2022-01-21T12:15:11.342Z</time>
      </trkpt>
      <trkpt lat="36.20956" lon="29.76602">
        <ele>501.279858</ele>
        <time>2022-01-21T12:18:28.393Z</time>
      </trkpt>
      <trkpt lat="36.21107" lon="29.76742">
        <ele>519.943838</ele>
        <time>2022-01-21T12:21:49.344Z</time>
      </trkpt>
      <trkpt lat="36.21284" lon="29.76853">
        <ele>533.117433</ele>
        <time>2022-01-21T12:25:11.334Z</time>
      </trkpt>
      <trkpt lat="36.21488" lon="29.76875">
        <ele>542.115966</ele>
        <time>2022-01-21T12:27:43.347Z</time>
      </trkpt>
      <trkpt lat="36.217" lon="29.76876">
        <ele>544.790593</ele>
        <time>2022-01-21T12:40:25.338Z</time>
      </trkpt>
      <trkpt lat="36.21922" lon="29.76855">
        <ele>536.146429</ele>
        <time>2022-01-21T12:41:32.347Z</time>
      </trkpt>
      <trkpt lat="36.22131" lon="29.76792">
        <ele>523.089357</ele>
        <time>2022-01-21T12:42:16.342Z</time>
      </trkpt>
      <trkpt lat="36.22357" lon="29.76803">
        <ele>516.392439</ele>
        <time>2022-01-21T12:43:12.346Z</time>
      </trkpt>
      <trkpt lat="36.22566" lon="29.76797">
        <ele>526.41591</ele>
        <time>2022-01-21T12:45:18.353Z</time>
      </trkpt>
      <trkpt lat="36.22746" lon="29.76676">
        <ele>531.610515</ele>
        <time>2022-01-21T12:47:29.379Z</time>
      </trkpt>
      <trkpt lat="36.22919" lon="29.7667">
        <ele>552.635754</ele>
        <time>2022-01-21T12:50:16.352Z</time>
      </trkpt>
      <trkpt lat="36.22917" lon="29.76426">
        <ele>564.89383</ele>
        <time>2022-01-21T12:52:51.367Z</time>
      </trkpt>
      <trkpt lat="36.22996" lon="29.76191">
        <ele>564.469098</ele>
        <time>2022-01-21T12:54:30.349Z</time>
      </trkpt>
      <trkpt lat="36.22973" lon="29.75934">
        <ele>570.78287</ele>
        <time>2022-01-21T12:55:58.346Z</time>
      </trkpt>
      <trkpt lat="36.23036" lon="29.757">
        <ele>579.078024</ele>
        <time>2022-01-21T12:58:34.357Z</time>
      </trkpt>
      <trkpt lat="36.23042" lon="29.75455">
        <ele>588.3787</ele>
        <time>2022-01-21T13:01:13.348Z</time>
      </trkpt>
      <trkpt lat="36.23052" lon="29.75217">
        <ele>596.924331</ele>
        <time>2022-01-21T13:03:38.407Z</time>
      </trkpt>
      <trkpt lat="36.23143" lon="29.75035">
        <ele>608.828419</ele>
        <time>2022-01-21T13:06:20.358Z</time>
      </trkpt>
      <trkpt lat="36.23243" lon="29.74872">
        <ele>622.526534</ele>
        <time>2022-01-21T13:09:16.350Z</time>
      </trkpt>
      <trkpt lat="36.23272" lon="29.74588">
        <ele>618.444048</ele>
        <time>2022-01-21T13:10:13.372Z</time>
      </trkpt>
      <trkpt lat="36.2324" lon="29.74313">
        <ele>602.889936</ele>
        <time>2022-01-21T13:11:06.360Z</time>
      </trkpt>
      <trkpt lat="36.23407" lon="29.74215">
        <ele>591.617094</ele>
        <time>2022-01-21T13:11:47.395Z</time>
      </trkpt>
      <trkpt lat="36.23618" lon="29.74198">
        <ele>591.894233</ele>
        <time>2022-01-21T13:13:25.333Z</time>
      </trkpt>
      <trkpt lat="36.23776" lon="29.74007">
        <ele>585.919258</ele>
        <time>2022-01-21T13:14:27.346Z</time>
      </trkpt>
      <trkpt lat="36.23948" lon="29.73831">
        <ele>567.299355</ele>
        <time>2022-01-21T13:15:16.394Z</time>
      </trkpt>
      <trkpt lat="36.23885" lon="29.73579">
        <ele>562.135497</ele>
        <time>2022-01-21T13:16:30.371Z</time>
      </trkpt>
      <trkpt lat="36.23798" lon="29.733">
        <ele>548.82653</ele>
        <time>2022-01-21T13:17:12.366Z</time>
      </trkpt>
      <trkpt lat="36.23729" lon="29.72992">
        <ele>534.56897</ele>
        <time>2022-01-21T13:17:52.374Z</time>
      </trkpt>
      <trkpt lat="36.23615" lon="29.72685">
        <ele>522.248793</ele>
        <time>2022-01-21T13:18:34.365Z</time>
      </trkpt>
      <trkpt lat="36.2351" lon="29.72407">
        <ele>511.060935</ele>
        <time>2022-01-21T13:19:16.358Z</time>
      </trkpt>
      <trkpt lat="36.23396" lon="29.72162">
        <ele>503.582482</ele>
        <time>2022-01-21T13:19:56.367Z</time>
      </trkpt>
      <trkpt lat="36.23276" lon="29.71857">
        <ele>493.42618</ele>
        <time>2022-01-21T13:20:38.359Z</time>
      </trkpt>
      <trkpt lat="36.23306" lon="29.7159">
        <ele>495.443474</ele>
        <time>2022-01-21T13:21:55.372Z</time>
      </trkpt>
      <trkpt lat="36.2334" lon="29.71342">
        <ele>505.098074</ele>
        <time>2022-01-21T13:23:41.344Z</time>
      </trkpt>
      <trkpt lat="36.23413" lon="29.71108">
        <ele>519.030508</ele>
        <time>2022-01-21T13:26:05.357Z</time>
      </trkpt>
      <trkpt lat="36.23463" lon="29.70875">
        <ele>538.30854</ele>
        <time>2022-01-21T13:29:09.389Z</time>
      </trkpt>
      <trkpt lat="36.23346" lon="29.70698">
        <ele>555.78756</ele>
        <time>2022-01-21T13:32:00.364Z</time>
      </trkpt>
      <trkpt lat="36.23187" lon="29.7055">
        <ele>575.709887</ele>
        <time>2022-01-21T13:34:59.369Z</time>
      </trkpt>
      <trkpt lat="36.2309" lon="29.70334">
        <ele>590.177184</ele>
        <time>2022-01-21T13:38:18.422Z</time>
      </trkpt>
      <trkpt lat="36.23011" lon="29.70108">
        <ele>598.728331</ele>
        <time>2022-01-21T13:46:45.409Z</time>
      </trkpt>
      <trkpt lat="36.22817" lon="29.70127">
        <ele>602.514207</ele>
        <time>2022-01-21T13:48:31.374Z</time>
      </trkpt>
      <trkpt lat="36.22593" lon="29.70094">
        <ele>593.167244</ele>
        <time>2022-01-21T13:49:21.370Z</time>
      </trkpt>
      <trkpt lat="36.22395" lon="29.69924">
        <ele>578.282694</ele>
        <time>2022-01-21T13:50:03.360Z</time>
      </trkpt>
      <trkpt lat="36.22206" lon="29.6966">
        <ele>558.868507</ele>
        <time>2022-01-21T13:50:45.380Z</time>
      </trkpt>
      <trkpt lat="36.22109" lon="29.69373">
        <ele>535.866387</ele>
        <time>2022-01-21T13:51:25.367Z</time>
      </trkpt>
      <trkpt lat="36.21908" lon="29.69073">
        <ele>515.708554</ele>
        <time>2022-01-21T13:52:07.382Z</time>
      </trkpt>
      <trkpt lat="36.21783" lon="29.68769">
        <ele>513.775269</ele>
        <time>2022-01-21T13:52:49.378Z</time>
      </trkpt>
      <trkpt lat="36.21743" lon="29.68518">
        <ele>516.815472</ele>
        <time>2022-01-21T13:53:40.372Z</time>
      </trkpt>
      <trkpt lat="36.21669" lon="29.68224">
        <ele>511.245139</ele>
        <time>2022-01-21T13:54:32.378Z</time>
      </trkpt>
      <trkpt lat="36.21653" lon="29.67897">
        <ele>508.31894</ele>
        <time>2022-01-21T13:55:14.375Z</time>
      </trkpt>
      <trkpt lat="36.21522" lon="29.67667">
        <ele>504.868725</ele>
        <time>2022-01-21T13:56:01.382Z</time>
      </trkpt>
      <trkpt lat="36.21355" lon="29.67425">
        <ele>495.259364</ele>
        <time>2022-01-21T13:56:50.381Z</time>
      </trkpt>
      <trkpt lat="36.21105" lon="29.67298">
        <ele>482.875028</ele>
        <time>2022-01-21T13:57:32.364Z</time>
      </trkpt>
      <trkpt lat="36.20817" lon="29.67192">
        <ele>460.995287</ele>
        <time>2022-01-21T13:58:12.360Z</time>
      </trkpt>
      <trkpt lat="36.20564" lon="29.66982">
        <ele>427.992206</ele>
        <time>2022-01-21T13:58:54.387Z</time>
      </trkpt>
      <trkpt lat="36.20384" lon="29.66776">
        <ele>405.145003</ele>
        <time>2022-01-21T13:59:36.373Z</time>
      </trkpt>
      <trkpt lat="36.2021" lon="29.6663">
        <ele>387.962881</ele>
        <time>2022-01-21T14:00:16.384Z</time>
      </trkpt>
      <trkpt lat="36.2018" lon="29.66347">
        <ele>373.464019</ele>
        <time>2022-01-21T14:01:01.378Z</time>
      </trkpt>
      <trkpt lat="36.201" lon="29.66518">
        <ele>357.630943</ele>
        <time>2022-01-21T14:03:51.345Z</time>
      </trkpt>
      <trkpt lat="36.19913" lon="29.66652">
        <ele>336.921852</ele>
        <time>2022-01-21T14:04:31.381Z</time>
      </trkpt>
      <trkpt lat="36.19925" lon="29.66418">
        <ele>310.498482</ele>
        <time>2022-01-21T14:05:14.372Z</time>
      </trkpt>
      <trkpt lat="36.20046" lon="29.66134">
        <ele>290.926059</ele>
        <time>2022-01-21T14:05:56.425Z</time>
      </trkpt>
      <trkpt lat="36.20113" lon="29.65882">
        <ele>273.103382</ele>
        <time>2022-01-21T14:06:36.370Z</time>
      </trkpt>
      <trkpt lat="36.20049" lon="29.65581">
        <ele>248.736808</ele>
        <time>2022-01-21T14:07:18.387Z</time>
      </trkpt>
      <trkpt lat="36.20006" lon="29.65458">
        <ele>229.877415</ele>
        <time>2022-01-21T14:08:15.438Z</time>
      </trkpt>
      <trkpt lat="36.20017" lon="29.65268">
        <ele>213.293308</ele>
        <time>2022-01-21T14:09:20.373Z</time>
      </trkpt>
      <trkpt lat="36.2003" lon="29.65043">
        <ele>186.068218</ele>
        <time>2022-01-21T14:10:49.371Z</time>
      </trkpt>
      <trkpt lat="36.2003" lon="29.64799">
        <ele>148.023883</ele>
        <time>2022-01-21T14:16:18.401Z</time>
      </trkpt>
      <trkpt lat="36.19982" lon="29.6469">
        <ele>109.864915</ele>
        <time>2022-01-21T14:17:49.373Z</time>
      </trkpt>
      <trkpt lat="36.1994" lon="29.64389">
        <ele>58.705712</ele>
        <time>2022-01-21T14:24:47.375Z</time>
      </trkpt>
      <trkpt lat="36.20037" lon="29.6424">
        <ele>39.68153</ele>
        <time>2022-01-21T14:26:33.398Z</time>
      </trkpt>
      <trkpt lat="36.20038" lon="29.64007">
        <ele>39.850783</ele>
        <time>2022-01-21T14:28:57.385Z</time>
      </trkpt>
      <trkpt lat="36.19937" lon="29.63839">
        <ele>38.475082</ele>
        <time>2022-01-21T14:33:29.397Z</time>
      </trkpt>
      <trkpt lat="36.20002" lon="29.63727">
        <ele>38.475082</ele>
        <time>2022-01-21T14:38:16.455Z</time>
      </trkpt>
      <trkpt lat="36.19982" lon="29.63729">
        <ele>49.321666</ele>
        <time>2022-01-23T07:24:38.619Z</time>
      </trkpt>
      <trkpt lat="36.20056" lon="29.63764">
        <ele>49.525402</ele>
        <time>2022-01-23T07:43:15.549Z</time>
      </trkpt>
      <trkpt lat="36.20251" lon="29.63612">
        <ele>41.955813</ele>
        <time>2022-01-23T07:44:33.539Z</time>
      </trkpt>
      <trkpt lat="36.20454" lon="29.63361">
        <ele>29.885958</ele>
        <time>2022-01-23T07:45:31.536Z</time>
      </trkpt>
      <trkpt lat="36.20564" lon="29.63096">
        <ele>31.380178</ele>
        <time>2022-01-23T07:46:31.538Z</time>
      </trkpt>
      <trkpt lat="36.20639" lon="29.62814">
        <ele>25.193425</ele>
        <time>2022-01-23T07:47:44.557Z</time>
      </trkpt>
      <trkpt lat="36.2069" lon="29.62548">
        <ele>32.836974</ele>
        <time>2022-01-23T07:49:00.560Z</time>
      </trkpt>
      <trkpt lat="36.20721" lon="29.6224">
        <ele>31.222451</ele>
        <time>2022-01-23T07:50:17.555Z</time>
      </trkpt>
      <trkpt lat="36.20754" lon="29.61994">
        <ele>27.245116</ele>
        <time>2022-01-23T07:51:28.551Z</time>
      </trkpt>
      <trkpt lat="36.20749" lon="29.61666">
        <ele>30.960405</ele>
        <time>2022-01-23T07:52:39.549Z</time>
      </trkpt>
      <trkpt lat="36.20831" lon="29.61413">
        <ele>39.215537</ele>
        <time>2022-01-23T07:54:31.551Z</time>
      </trkpt>
      <trkpt lat="36.20863" lon="29.61144">
        <ele>37.542092</ele>
        <time>2022-01-23T07:55:58.543Z</time>
      </trkpt>
      <trkpt lat="36.20818" lon="29.60841">
        <ele>21.579153</ele>
        <time>2022-01-23T07:56:52.575Z</time>
      </trkpt>
      <trkpt lat="36.20749" lon="29.60545">
        <ele>15.288218</ele>
        <time>2022-01-23T07:57:55.542Z</time>
      </trkpt>
      <trkpt lat="36.20728" lon="29.60263">
        <ele>21.197942</ele>
        <time>2022-01-23T07:59:08.548Z</time>
      </trkpt>
      <trkpt lat="36.20649" lon="29.59989">
        <ele>24.546304</ele>
        <time>2022-01-23T08:00:23.552Z</time>
      </trkpt>
      <trkpt lat="36.2044" lon="29.59925">
        <ele>22.170738</ele>
        <time>2022-01-23T08:01:40.553Z</time>
      </trkpt>
      <trkpt lat="36.20327" lon="29.59654">
        <ele>23.361546</ele>
        <time>2022-01-23T08:03:08.571Z</time>
      </trkpt>
      <trkpt lat="36.20311" lon="29.59381">
        <ele>25.136415</ele>
        <time>2022-01-23T08:04:55.552Z</time>
      </trkpt>
      <trkpt lat="36.20264" lon="29.59107">
        <ele>27.919392</ele>
        <time>2022-01-23T08:06:23.555Z</time>
      </trkpt>
      <trkpt lat="36.20219" lon="29.58832">
        <ele>27.05065</ele>
        <time>2022-01-23T08:08:11.568Z</time>
      </trkpt>
      <trkpt lat="36.20146" lon="29.5858">
        <ele>30.073813</ele>
        <time>2022-01-23T08:09:42.554Z</time>
      </trkpt>
      <trkpt lat="36.20297" lon="29.58392">
        <ele>31.405501</ele>
        <time>2022-01-23T08:11:48.540Z</time>
      </trkpt>
      <trkpt lat="36.20243" lon="29.58165">
        <ele>33.65051</ele>
        <time>2022-01-23T08:13:04.558Z</time>
      </trkpt>
      <trkpt lat="36.2026" lon="29.57932">
        <ele>35.215526</ele>
        <time>2022-01-23T08:14:42.557Z</time>
      </trkpt>
      <trkpt lat="36.2032" lon="29.57674">
        <ele>37.201978</ele>
        <time>2022-01-23T08:16:26.544Z</time>
      </trkpt>
      <trkpt lat="36.20289" lon="29.57396">
        <ele>39.812276</ele>
        <time>2022-01-23T08:18:13.555Z</time>
      </trkpt>
      <trkpt lat="36.20414" lon="29.57175">
        <ele>40.093836</ele>
        <time>2022-01-23T08:19:47.530Z</time>
      </trkpt>
      <trkpt lat="36.20625" lon="29.57072">
        <ele>36.165294</ele>
        <time>2022-01-23T08:21:05.564Z</time>
      </trkpt>
      <trkpt lat="36.20854" lon="29.57204">
        <ele>32.866697</ele>
        <time>2022-01-23T08:22:00.579Z</time>
      </trkpt>
      <trkpt lat="36.20954" lon="29.56972">
        <ele>44.654599</ele>
        <time>2022-01-23T08:23:48.550Z</time>
      </trkpt>
      <trkpt lat="36.21051" lon="29.56729">
        <ele>60.374504</ele>
        <time>2022-01-23T08:26:56.553Z</time>
      </trkpt>
      <trkpt lat="36.21069" lon="29.56472">
        <ele>74.013691</ele>
        <time>2022-01-23T08:29:49.556Z</time>
      </trkpt>
      <trkpt lat="36.21075" lon="29.56187">
        <ele>77.558623</ele>
        <time>2022-01-23T08:31:32.570Z</time>
      </trkpt>
      <trkpt lat="36.21082" lon="29.55882">
        <ele>75.973429</ele>
        <time>2022-01-23T08:32:59.549Z</time>
      </trkpt>
      <trkpt lat="36.21072" lon="29.55599">
        <ele>79.307012</ele>
        <time>2022-01-23T08:34:44.551Z</time>
      </trkpt>
      <trkpt lat="36.21125" lon="29.55329">
        <ele>83.743788</ele>
        <time>2022-01-23T08:36:40.531Z</time>
      </trkpt>
      <trkpt lat="36.21156" lon="29.55071">
        <ele>88.721899</ele>
        <time>2022-01-23T08:38:35.563Z</time>
      </trkpt>
      <trkpt lat="36.21266" lon="29.54872">
        <ele>103.904823</ele>
        <time>2022-01-23T08:41:06.565Z</time>
      </trkpt>
      <trkpt lat="36.21218" lon="29.54617">
        <ele>100.508141</ele>
        <time>2022-01-23T08:42:57.566Z</time>
      </trkpt>
      <trkpt lat="36.2123" lon="29.54308">
        <ele>93.955552</ele>
        <time>2022-01-23T08:44:03.580Z</time>
      </trkpt>
      <trkpt lat="36.21252" lon="29.54013">
        <ele>76.890432</ele>
        <time>2022-01-23T08:44:49.575Z</time>
      </trkpt>
      <trkpt lat="36.21169" lon="29.5367">
        <ele>53.013241</ele>
        <time>2022-01-23T08:45:35.554Z</time>
      </trkpt>
      <trkpt lat="36.21118" lon="29.53318">
        <ele>38.82206</ele>
        <time>2022-01-23T08:46:30.551Z</time>
      </trkpt>
      <trkpt lat="36.21052" lon="29.53033">
        <ele>42.157578</ele>
        <time>2022-01-23T08:47:57.569Z</time>
      </trkpt>
      <trkpt lat="36.2105" lon="29.52731">
        <ele>42.073676</ele>
        <time>2022-01-23T08:49:29.541Z</time>
      </trkpt>
      <trkpt lat="36.21071" lon="29.52458">
        <ele>44.286749</ele>
        <time>2022-01-23T08:51:09.550Z</time>
      </trkpt>
      <trkpt lat="36.21049" lon="29.52267">
        <ele>42.104429</ele>
        <time>2022-01-23T08:52:13.569Z</time>
      </trkpt>
      <trkpt lat="36.21014" lon="29.51974">
        <ele>42.957822</ele>
        <time>2022-01-23T08:53:37.555Z</time>
      </trkpt>
      <trkpt lat="36.20999" lon="29.51677">
        <ele>42.490358</ele>
        <time>2022-01-23T08:55:04.546Z</time>
      </trkpt>
      <trkpt lat="36.21115" lon="29.51416">
        <ele>34.378676</ele>
        <time>2022-01-23T08:56:24.545Z</time>
      </trkpt>
      <trkpt lat="36.21023" lon="29.51246">
        <ele>39.852696</ele>
        <time>2022-01-23T08:57:42.570Z</time>
      </trkpt>
      <trkpt lat="36.2099" lon="29.51029">
        <ele>54.443669</ele>
        <time>2022-01-23T08:59:51.565Z</time>
      </trkpt>
      <trkpt lat="36.21033" lon="29.50763">
        <ele>62.23494</ele>
        <time>2022-01-23T09:02:13.551Z</time>
      </trkpt>
      <trkpt lat="36.21036" lon="29.50483">
        <ele>70.556507</ele>
        <time>2022-01-23T09:03:56.574Z</time>
      </trkpt>
      <trkpt lat="36.20992" lon="29.5021">
        <ele>68.584562</ele>
        <time>2022-01-23T09:05:45.564Z</time>
      </trkpt>
      <trkpt lat="36.21015" lon="29.49912">
        <ele>51.646897</ele>
        <time>2022-01-23T09:06:49.551Z</time>
      </trkpt>
      <trkpt lat="36.21072" lon="29.49649">
        <ele>51.894427</ele>
        <time>2022-01-23T09:08:10.550Z</time>
      </trkpt>
      <trkpt lat="36.21133" lon="29.49366">
        <ele>53.836767</ele>
        <time>2022-01-23T09:09:46.576Z</time>
      </trkpt>
      <trkpt lat="36.21174" lon="29.49075">
        <ele>50.658432</ele>
        <time>2022-01-23T09:11:18.591Z</time>
      </trkpt>
      <trkpt lat="36.21205" lon="29.48763">
        <ele>41.276195</ele>
        <time>2022-01-23T09:12:17.563Z</time>
      </trkpt>
      <trkpt lat="36.21229" lon="29.48467">
        <ele>40.593452</ele>
        <time>2022-01-23T09:13:26.548Z</time>
      </trkpt>
      <trkpt lat="36.2128" lon="29.48181">
        <ele>36.531102</ele>
        <time>2022-01-23T09:14:31.561Z</time>
      </trkpt>
      <trkpt lat="36.21243" lon="29.47883">
        <ele>37.58949</ele>
        <time>2022-01-23T09:15:46.597Z</time>
      </trkpt>
      <trkpt lat="36.21308" lon="29.47599">
        <ele>36.3841</ele>
        <time>2022-01-23T09:17:13.565Z</time>
      </trkpt>
      <trkpt lat="36.21382" lon="29.47316">
        <ele>43.317018</ele>
        <time>2022-01-23T09:18:54.568Z</time>
      </trkpt>
      <trkpt lat="36.21485" lon="29.47073">
        <ele>45.271038</ele>
        <time>2022-01-23T09:20:42.543Z</time>
      </trkpt>
      <trkpt lat="36.21601" lon="29.46929">
        <ele>56.156372</ele>
        <time>2022-01-23T09:22:30.567Z</time>
      </trkpt>
      <trkpt lat="36.21737" lon="29.46694">
        <ele>43.139355</ele>
        <time>2022-01-23T09:23:32.599Z</time>
      </trkpt>
      <trkpt lat="36.21895" lon="29.46456">
        <ele>37.660045</ele>
        <time>2022-01-23T09:24:41.553Z</time>
      </trkpt>
      <trkpt lat="36.2203" lon="29.46207">
        <ele>37.278094</ele>
        <time>2022-01-23T09:25:52.565Z</time>
      </trkpt>
      <trkpt lat="36.22179" lon="29.45954">
        <ele>33.297275</ele>
        <time>2022-01-23T09:27:04.562Z</time>
      </trkpt>
      <trkpt lat="36.22233" lon="29.45688">
        <ele>31.820041</ele>
        <time>2022-01-23T09:28:10.589Z</time>
      </trkpt>
      <trkpt lat="36.22402" lon="29.45604">
        <ele>34.770147</ele>
        <time>2022-01-23T09:29:35.552Z</time>
      </trkpt>
      <trkpt lat="36.22615" lon="29.45532">
        <ele>37.237377</ele>
        <time>2022-01-23T09:30:59.558Z</time>
      </trkpt>
      <trkpt lat="36.2276" lon="29.45291">
        <ele>38.737485</ele>
        <time>2022-01-23T09:32:31.562Z</time>
      </trkpt>
      <trkpt lat="36.22841" lon="29.45029">
        <ele>42.251402</ele>
        <time>2022-01-23T09:33:52.551Z</time>
      </trkpt>
      <trkpt lat="36.23041" lon="29.44933">
        <ele>63.857661</ele>
        <time>2022-01-23T09:36:19.573Z</time>
      </trkpt>
      <trkpt lat="36.22915" lon="29.44797">
        <ele>81.62321</ele>
        <time>2022-01-23T09:37:41.567Z</time>
      </trkpt>
      <trkpt lat="36.23033" lon="29.4456">
        <ele>68.844916</ele>
        <time>2022-01-23T09:39:51.558Z</time>
      </trkpt>
      <trkpt lat="36.23064" lon="29.44291">
        <ele>84.328662</ele>
        <time>2022-01-23T09:42:30.588Z</time>
      </trkpt>
      <trkpt lat="36.23121" lon="29.44043">
        <ele>93.474499</ele>
        <time>2022-01-23T09:45:03.575Z</time>
      </trkpt>
      <trkpt lat="36.23163" lon="29.43742">
        <ele>95.904061</ele>
        <time>2022-01-23T09:48:38.577Z</time>
      </trkpt>
      <trkpt lat="36.23177" lon="29.43449">
        <ele>87.254803</ele>
        <time>2022-01-23T09:49:35.564Z</time>
      </trkpt>
      <trkpt lat="36.23335" lon="29.43238">
        <ele>81.563808</ele>
        <time>2022-01-23T09:50:27.560Z</time>
      </trkpt>
      <trkpt lat="36.23368" lon="29.42959">
        <ele>89.987475</ele>
        <time>2022-01-23T09:52:17.563Z</time>
      </trkpt>
      <trkpt lat="36.23395" lon="29.42688">
        <ele>106.884459</ele>
        <time>2022-01-23T09:55:05.594Z</time>
      </trkpt>
      <trkpt lat="36.23543" lon="29.425">
        <ele>119.556867</ele>
        <time>2022-01-23T09:58:06.552Z</time>
      </trkpt>
      <trkpt lat="36.23716" lon="29.42662">
        <ele>120.1045</ele>
        <time>2022-01-23T09:59:43.564Z</time>
      </trkpt>
      <trkpt lat="36.23937" lon="29.42741">
        <ele>124.719656</ele>
        <time>2022-01-23T10:01:39.580Z</time>
      </trkpt>
      <trkpt lat="36.24217" lon="29.42754">
        <ele>121.338593</ele>
        <time>2022-01-23T10:02:32.567Z</time>
      </trkpt>
      <trkpt lat="36.24455" lon="29.42751">
        <ele>124.685885</ele>
        <time>2022-01-23T10:03:38.570Z</time>
      </trkpt>
      <trkpt lat="36.24678" lon="29.427">
        <ele>131.58077</ele>
        <time>2022-01-23T10:05:46.594Z</time>
      </trkpt>
      <trkpt lat="36.24885" lon="29.42529">
        <ele>132.594378</ele>
        <time>2022-01-23T10:07:32.556Z</time>
      </trkpt>
      <trkpt lat="36.25125" lon="29.42312">
        <ele>115.506043</ele>
        <time>2022-01-23T10:08:15.560Z</time>
      </trkpt>
      <trkpt lat="36.25333" lon="29.42129">
        <ele>104.313515</ele>
        <time>2022-01-23T10:09:11.577Z</time>
      </trkpt>
      <trkpt lat="36.25534" lon="29.41977">
        <ele>99.932709</ele>
        <time>2022-01-23T10:10:01.571Z</time>
      </trkpt>
      <trkpt lat="36.25779" lon="29.41979">
        <ele>94.389203</ele>
        <time>2022-01-23T10:12:24.575Z</time>
      </trkpt>
      <trkpt lat="36.26006" lon="29.41915">
        <ele>87.434563</ele>
        <time>2022-01-23T10:13:45.570Z</time>
      </trkpt>
      <trkpt lat="36.26279" lon="29.41839">
        <ele>78.014161</ele>
        <time>2022-01-23T10:14:39.590Z</time>
      </trkpt>
      <trkpt lat="36.26563" lon="29.41733">
        <ele>83.07102</ele>
        <time>2022-01-23T10:15:58.584Z</time>
      </trkpt>
      <trkpt lat="36.26772" lon="29.41663">
        <ele>110.520063</ele>
        <time>2022-01-23T10:19:09.570Z</time>
      </trkpt>
      <trkpt lat="36.26971" lon="29.41536">
        <ele>120.990902</ele>
        <time>2022-01-23T10:21:22.553Z</time>
      </trkpt>
      <trkpt lat="36.27154" lon="29.41399">
        <ele>138.571231</ele>
        <time>2022-01-23T10:24:04.566Z</time>
      </trkpt>
      <trkpt lat="36.27294" lon="29.41199">
        <ele>156.610433</ele>
        <time>2022-01-23T10:26:52.576Z</time>
      </trkpt>
      <trkpt lat="36.27272" lon="29.40928">
        <ele>182.619826</ele>
        <time>2022-01-23T10:29:42.569Z</time>
      </trkpt>
      <trkpt lat="36.27134" lon="29.40723">
        <ele>216.08939</ele>
        <time>2022-01-23T10:32:41.572Z</time>
      </trkpt>
      <trkpt lat="36.2698" lon="29.40527">
        <ele>217.650869</ele>
        <time>2022-01-23T10:35:49.555Z</time>
      </trkpt>
      <trkpt lat="36.26913" lon="29.40285">
        <ele>236.098681</ele>
        <time>2022-01-23T10:38:45.589Z</time>
      </trkpt>
      <trkpt lat="36.26982" lon="29.40028">
        <ele>238.552947</ele>
        <time>2022-01-23T10:42:00.608Z</time>
      </trkpt>
      <trkpt lat="36.27077" lon="29.39784">
        <ele>255.161463</ele>
        <time>2022-01-23T10:45:16.604Z</time>
      </trkpt>
      <trkpt lat="36.27186" lon="29.39552">
        <ele>257.615007</ele>
        <time>2022-01-23T10:50:46.595Z</time>
      </trkpt>
      <trkpt lat="36.2742" lon="29.39436">
        <ele>242.679007</ele>
        <time>2022-01-23T10:51:37.584Z</time>
      </trkpt>
      <trkpt lat="36.27638" lon="29.39201">
        <ele>234.56133</ele>
        <time>2022-01-23T10:52:21.585Z</time>
      </trkpt>
      <trkpt lat="36.2785" lon="29.3889">
        <ele>210.140993</ele>
        <time>2022-01-23T10:53:07.581Z</time>
      </trkpt>
      <trkpt lat="36.27854" lon="29.38521">
        <ele>195.291616</ele>
        <time>2022-01-23T10:55:13.582Z</time>
      </trkpt>
      <trkpt lat="36.27664" lon="29.38231">
        <ele>176.316249</ele>
        <time>2022-01-23T10:55:59.590Z</time>
      </trkpt>
      <trkpt lat="36.2749" lon="29.37917">
        <ele>147.288606</ele>
        <time>2022-01-23T10:56:45.575Z</time>
      </trkpt>
      <trkpt lat="36.27386" lon="29.37582">
        <ele>122.587702</ele>
        <time>2022-01-23T10:57:29.583Z</time>
      </trkpt>
      <trkpt lat="36.27272" lon="29.37224">
        <ele>100.612154</ele>
        <time>2022-01-23T10:58:15.591Z</time>
      </trkpt>
      <trkpt lat="36.27052" lon="29.36904">
        <ele>75.045246</ele>
        <time>2022-01-23T10:59:01.575Z</time>
      </trkpt>
      <trkpt lat="36.27059" lon="29.36556">
        <ele>50.011833</ele>
        <time>2022-01-23T10:59:40.565Z</time>
      </trkpt>
      <trkpt lat="36.27274" lon="29.36349">
        <ele>46.225148</ele>
        <time>2022-01-23T11:00:39.583Z</time>
      </trkpt>
      <trkpt lat="36.27517" lon="29.36211">
        <ele>39.282058</ele>
        <time>2022-01-23T11:01:45.576Z</time>
      </trkpt>
      <trkpt lat="36.27744" lon="29.36067">
        <ele>33.321121</ele>
        <time>2022-01-23T11:02:44.578Z</time>
      </trkpt>
      <trkpt lat="36.27937" lon="29.3585">
        <ele>26.768634</ele>
        <time>2022-01-23T11:03:53.582Z</time>
      </trkpt>
      <trkpt lat="36.28124" lon="29.35648">
        <ele>20.882751</ele>
        <time>2022-01-23T11:05:02.597Z</time>
      </trkpt>
      <trkpt lat="36.2832" lon="29.35458">
        <ele>30.369461</ele>
        <time>2022-01-23T11:06:11.585Z</time>
      </trkpt>
      <trkpt lat="36.28552" lon="29.35363">
        <ele>41.642743</ele>
        <time>2022-01-23T11:07:20.591Z</time>
      </trkpt>
      <trkpt lat="36.28746" lon="29.35181">
        <ele>33.045925</ele>
        <time>2022-01-23T11:08:26.580Z</time>
      </trkpt>
      <trkpt lat="36.28891" lon="29.349">
        <ele>16.18849</ele>
        <time>2022-01-23T11:09:35.577Z</time>
      </trkpt>
      <trkpt lat="36.29035" lon="29.34685">
        <ele>17.30199</ele>
        <time>2022-01-23T11:11:30.628Z</time>
      </trkpt>
      <trkpt lat="36.29173" lon="29.34472">
        <ele>29.40447</ele>
        <time>2022-01-23T11:13:46.588Z</time>
      </trkpt>
      <trkpt lat="36.29245" lon="29.34198">
        <ele>40.425212</ele>
        <time>2022-01-23T11:15:26.587Z</time>
      </trkpt>
      <trkpt lat="36.29195" lon="29.33908">
        <ele>40.09859</ele>
        <time>2022-01-23T11:16:14.585Z</time>
      </trkpt>
      <trkpt lat="36.29301" lon="29.33632">
        <ele>26.633969</ele>
        <time>2022-01-23T11:17:05.589Z</time>
      </trkpt>
      <trkpt lat="36.29479" lon="29.33404">
        <ele>21.913692</ele>
        <time>2022-01-23T11:18:04.581Z</time>
      </trkpt>
      <trkpt lat="36.29622" lon="29.33179">
        <ele>29.419964</ele>
        <time>2022-01-23T11:19:13.584Z</time>
      </trkpt>
      <trkpt lat="36.29703" lon="29.32918">
        <ele>36.223786</ele>
        <time>2022-01-23T11:20:22.583Z</time>
      </trkpt>
      <trkpt lat="36.29508" lon="29.32769">
        <ele>37.66437</ele>
        <time>2022-01-23T11:21:21.592Z</time>
      </trkpt>
      <trkpt lat="36.29298" lon="29.32607">
        <ele>35.996684</ele>
        <time>2022-01-23T11:22:16.576Z</time>
      </trkpt>
      <trkpt lat="36.29094" lon="29.32379">
        <ele>36.643542</ele>
        <time>2022-01-23T11:23:25.595Z</time>
      </trkpt>
      <trkpt lat="36.28894" lon="29.32149">
        <ele>36.506223</ele>
        <time>2022-01-23T11:24:34.591Z</time>
      </trkpt>
      <trkpt lat="36.28699" lon="29.31919">
        <ele>32.540007</ele>
        <time>2022-01-23T11:25:42.573Z</time>
      </trkpt>
      <trkpt lat="36.28492" lon="29.3191">
        <ele>29.794353</ele>
        <time>2022-01-23T11:26:48.588Z</time>
      </trkpt>
      <trkpt lat="36.28307" lon="29.32124">
        <ele>40.583932</ele>
        <time>2022-01-23T11:27:57.585Z</time>
      </trkpt>
      <trkpt lat="36.28071" lon="29.32158">
        <ele>49.704128</ele>
        <time>2022-01-23T11:29:17.586Z</time>
      </trkpt>
      <trkpt lat="36.27855" lon="29.32091">
        <ele>44.054073</ele>
        <time>2022-01-23T11:30:34.576Z</time>
      </trkpt>
      <trkpt lat="36.27625" lon="29.32051">
        <ele>42.943222</ele>
        <time>2022-01-23T11:32:00.568Z</time>
      </trkpt>
      <trkpt lat="36.27529" lon="29.32007">
        <ele>42.943222</ele>
        <time>2022-01-23T11:34:09.081Z</time>
      </trkpt>
      <trkpt lat="36.27494" lon="29.31993">
        <ele>36.676769</ele>
        <time>2022-01-24T06:14:46.866Z</time>
      </trkpt>
      <trkpt lat="36.27616" lon="29.32046">
        <ele>35.71541</ele>
        <time>2022-01-24T06:15:41.841Z</time>
      </trkpt>
      <trkpt lat="36.27871" lon="29.32101">
        <ele>27.396921</ele>
        <time>2022-01-24T06:17:04.896Z</time>
      </trkpt>
      <trkpt lat="36.28093" lon="29.32148">
        <ele>32.900195</ele>
        <time>2022-01-24T06:18:21.864Z</time>
      </trkpt>
      <trkpt lat="36.28327" lon="29.32099">
        <ele>30.978988</ele>
        <time>2022-01-24T06:19:24.857Z</time>
      </trkpt>
      <trkpt lat="36.28551" lon="29.31865">
        <ele>15.965649</ele>
        <time>2022-01-24T06:20:35.896Z</time>
      </trkpt>
      <trkpt lat="36.28768" lon="29.32026">
        <ele>15.284346</ele>
        <time>2022-01-24T06:21:44.851Z</time>
      </trkpt>
      <trkpt lat="36.28978" lon="29.3227">
        <ele>12.440922</ele>
        <time>2022-01-24T06:22:56.859Z</time>
      </trkpt>
      <trkpt lat="36.29191" lon="29.32505">
        <ele>17.244703</ele>
        <time>2022-01-24T06:24:08.855Z</time>
      </trkpt>
      <trkpt lat="36.29413" lon="29.32711">
        <ele>23.08107</ele>
        <time>2022-01-24T06:25:17.876Z</time>
      </trkpt>
      <trkpt lat="36.29638" lon="29.32876">
        <ele>24.022249</ele>
        <time>2022-01-24T06:26:30.879Z</time>
      </trkpt>
      <trkpt lat="36.29817" lon="29.33028">
        <ele>28.06231</ele>
        <time>2022-01-24T06:27:44.870Z</time>
      </trkpt>
      <trkpt lat="36.30048" lon="29.33178">
        <ele>25.943678</ele>
        <time>2022-01-24T06:28:56.867Z</time>
      </trkpt>
      <trkpt lat="36.30268" lon="29.33321">
        <ele>26.189883</ele>
        <time>2022-01-24T06:30:05.864Z</time>
      </trkpt>
      <trkpt lat="36.30494" lon="29.33471">
        <ele>26.032255</ele>
        <time>2022-01-24T06:31:17.865Z</time>
      </trkpt>
      <trkpt lat="36.30722" lon="29.33624">
        <ele>28.049253</ele>
        <time>2022-01-24T06:32:30.865Z</time>
      </trkpt>
      <trkpt lat="36.30941" lon="29.33761">
        <ele>27.674455</ele>
        <time>2022-01-24T06:33:39.892Z</time>
      </trkpt>
      <trkpt lat="36.31157" lon="29.33904">
        <ele>26.743926</ele>
        <time>2022-01-24T06:34:51.877Z</time>
      </trkpt>
      <trkpt lat="36.31371" lon="29.34065">
        <ele>27.330568</ele>
        <time>2022-01-24T06:36:04.874Z</time>
      </trkpt>
      <trkpt lat="36.31595" lon="29.34215">
        <ele>29.58211</ele>
        <time>2022-01-24T06:37:16.870Z</time>
      </trkpt>
      <trkpt lat="36.31806" lon="29.34361">
        <ele>28.687757</ele>
        <time>2022-01-24T06:38:25.890Z</time>
      </trkpt>
      <trkpt lat="36.32031" lon="29.34501">
        <ele>27.230071</ele>
        <time>2022-01-24T06:39:38.868Z</time>
      </trkpt>
      <trkpt lat="36.3224" lon="29.34645">
        <ele>26.885276</ele>
        <time>2022-01-24T06:40:59.880Z</time>
      </trkpt>
      <trkpt lat="36.3245" lon="29.3476">
        <ele>25.871838</ele>
        <time>2022-01-24T06:42:14.891Z</time>
      </trkpt>
      <trkpt lat="36.3268" lon="29.34869">
        <ele>27.543528</ele>
        <time>2022-01-24T06:43:32.889Z</time>
      </trkpt>
      <trkpt lat="36.32907" lon="29.34985">
        <ele>26.761277</ele>
        <time>2022-01-24T06:44:51.880Z</time>
      </trkpt>
      <trkpt lat="36.33111" lon="29.35111">
        <ele>25.781662</ele>
        <time>2022-01-24T06:46:04.881Z</time>
      </trkpt>
      <trkpt lat="36.33333" lon="29.35246">
        <ele>27.373277</ele>
        <time>2022-01-24T06:47:23.890Z</time>
      </trkpt>
      <trkpt lat="36.3356" lon="29.35374">
        <ele>26.179005</ele>
        <time>2022-01-24T06:48:41.875Z</time>
      </trkpt>
      <trkpt lat="36.33779" lon="29.35496">
        <ele>24.969779</ele>
        <time>2022-01-24T06:49:58.896Z</time>
      </trkpt>
      <trkpt lat="36.33994" lon="29.35618">
        <ele>27.930682</ele>
        <time>2022-01-24T06:51:14.897Z</time>
      </trkpt>
      <trkpt lat="36.34213" lon="29.35741">
        <ele>27.277019</ele>
        <time>2022-01-24T06:52:33.930Z</time>
      </trkpt>
      <trkpt lat="36.34396" lon="29.35893">
        <ele>26.912265</ele>
        <time>2022-01-24T06:53:51.879Z</time>
      </trkpt>
      <trkpt lat="36.34392" lon="29.36094">
        <ele>30.082669</ele>
        <time>2022-01-24T06:55:09.909Z</time>
      </trkpt>
      <trkpt lat="36.34589" lon="29.35997">
        <ele>39.21536</ele>
        <time>2022-01-24T06:57:12.878Z</time>
      </trkpt>
      <trkpt lat="36.34805" lon="29.35924">
        <ele>45.048361</ele>
        <time>2022-01-24T06:59:21.886Z</time>
      </trkpt>
      <trkpt lat="36.35033" lon="29.35906">
        <ele>56.83664</ele>
        <time>2022-01-24T07:04:10.930Z</time>
      </trkpt>
      <trkpt lat="36.35222" lon="29.35769">
        <ele>73.13348</ele>
        <time>2022-01-24T07:06:49.883Z</time>
      </trkpt>
      <trkpt lat="36.3539" lon="29.35584">
        <ele>86.250339</ele>
        <time>2022-01-24T07:10:14.893Z</time>
      </trkpt>
      <trkpt lat="36.35602" lon="29.35499">
        <ele>104.385777</ele>
        <time>2022-01-24T07:13:18.876Z</time>
      </trkpt>
      <trkpt lat="36.35823" lon="29.35422">
        <ele>114.100018</ele>
        <time>2022-01-24T07:18:31.911Z</time>
      </trkpt>
      <trkpt lat="36.36029" lon="29.35408">
        <ele>123.728653</ele>
        <time>2022-01-24T07:20:54.894Z</time>
      </trkpt>
      <trkpt lat="36.36244" lon="29.35313">
        <ele>137.061177</ele>
        <time>2022-01-24T07:23:11.930Z</time>
      </trkpt>
      <trkpt lat="36.36478" lon="29.35288">
        <ele>144.303306</ele>
        <time>2022-01-24T07:24:59.911Z</time>
      </trkpt>
      <trkpt lat="36.36711" lon="29.35255">
        <ele>153.599644</ele>
        <time>2022-01-24T07:26:49.901Z</time>
      </trkpt>
      <trkpt lat="36.36963" lon="29.35222">
        <ele>149.979564</ele>
        <time>2022-01-24T07:28:09.890Z</time>
      </trkpt>
      <trkpt lat="36.37207" lon="29.35189">
        <ele>152.854244</ele>
        <time>2022-01-24T07:29:50.907Z</time>
      </trkpt>
      <trkpt lat="36.37431" lon="29.35156">
        <ele>157.428071</ele>
        <time>2022-01-24T07:31:38.891Z</time>
      </trkpt>
      <trkpt lat="36.37682" lon="29.35129">
        <ele>168.873053</ele>
        <time>2022-01-24T07:33:11.905Z</time>
      </trkpt>
      <trkpt lat="36.37923" lon="29.35114">
        <ele>171.41221</ele>
        <time>2022-01-24T07:35:06.900Z</time>
      </trkpt>
      <trkpt lat="36.38178" lon="29.35109">
        <ele>170.639676</ele>
        <time>2022-01-24T07:36:31.900Z</time>
      </trkpt>
      <trkpt lat="36.38457" lon="29.35049">
        <ele>163.899586</ele>
        <time>2022-01-24T07:37:35.893Z</time>
      </trkpt>
      <trkpt lat="36.38769" lon="29.35085">
        <ele>156.163761</ele>
        <time>2022-01-24T07:38:28.897Z</time>
      </trkpt>
      <trkpt lat="36.39146" lon="29.35135">
        <ele>143.644129</ele>
        <time>2022-01-24T07:39:16.893Z</time>
      </trkpt>
      <trkpt lat="36.39503" lon="29.35206">
        <ele>125.139217</ele>
        <time>2022-01-24T07:39:58.906Z</time>
      </trkpt>
      <trkpt lat="36.39789" lon="29.35305">
        <ele>105.414409</ele>
        <time>2022-01-24T07:40:49.885Z</time>
      </trkpt>
      <trkpt lat="36.40048" lon="29.35411">
        <ele>100.415932</ele>
        <time>2022-01-24T07:41:57.915Z</time>
      </trkpt>
      <trkpt lat="36.40269" lon="29.35474">
        <ele>111.16805</ele>
        <time>2022-01-24T07:43:56.901Z</time>
      </trkpt>
      <trkpt lat="36.40509" lon="29.35439">
        <ele>125.302761</ele>
        <time>2022-01-24T07:45:43.900Z</time>
      </trkpt>
      <trkpt lat="36.40707" lon="29.35293">
        <ele>138.426589</ele>
        <time>2022-01-24T07:47:44.898Z</time>
      </trkpt>
      <trkpt lat="36.40964" lon="29.35174">
        <ele>123.224744</ele>
        <time>2022-01-24T07:48:47.900Z</time>
      </trkpt>
      <trkpt lat="36.41222" lon="29.35117">
        <ele>118.907591</ele>
        <time>2022-01-24T07:50:00.916Z</time>
      </trkpt>
      <trkpt lat="36.4145" lon="29.3504">
        <ele>122.249176</ele>
        <time>2022-01-24T07:51:32.896Z</time>
      </trkpt>
      <trkpt lat="36.41705" lon="29.35023">
        <ele>125.076058</ele>
        <time>2022-01-24T07:53:11.893Z</time>
      </trkpt>
      <trkpt lat="36.41938" lon="29.35024">
        <ele>131.318255</ele>
        <time>2022-01-24T07:55:05.901Z</time>
      </trkpt>
      <trkpt lat="36.4219" lon="29.35024">
        <ele>136.486406</ele>
        <time>2022-01-24T07:56:42.917Z</time>
      </trkpt>
      <trkpt lat="36.42428" lon="29.35012">
        <ele>147.389372</ele>
        <time>2022-01-24T07:58:57.900Z</time>
      </trkpt>
      <trkpt lat="36.42631" lon="29.34882">
        <ele>150.151019</ele>
        <time>2022-01-24T08:00:25.892Z</time>
      </trkpt>
      <trkpt lat="36.42868" lon="29.34824">
        <ele>135.233868</ele>
        <time>2022-01-24T08:01:30.892Z</time>
      </trkpt>
      <trkpt lat="36.43082" lon="29.34616">
        <ele>106.647815</ele>
        <time>2022-01-24T08:02:18.912Z</time>
      </trkpt>
      <trkpt lat="36.43369" lon="29.34409">
        <ele>90.785898</ele>
        <time>2022-01-24T08:03:06.926Z</time>
      </trkpt>
      <trkpt lat="36.43588" lon="29.34254">
        <ele>90.503378</ele>
        <time>2022-01-24T08:04:03.893Z</time>
      </trkpt>
      <trkpt lat="36.43864" lon="29.34248">
        <ele>78.857054</ele>
        <time>2022-01-24T08:04:56.920Z</time>
      </trkpt>
      <trkpt lat="36.44097" lon="29.34345">
        <ele>79.810865</ele>
        <time>2022-01-24T08:06:18.907Z</time>
      </trkpt>
      <trkpt lat="36.44271" lon="29.34531">
        <ele>80.027587</ele>
        <time>2022-01-24T08:07:33.903Z</time>
      </trkpt>
      <trkpt lat="36.4443" lon="29.34748">
        <ele>84.131578</ele>
        <time>2022-01-24T08:08:57.897Z</time>
      </trkpt>
      <trkpt lat="36.44622" lon="29.34849">
        <ele>81.996621</ele>
        <time>2022-01-24T08:10:32.900Z</time>
      </trkpt>
      <trkpt lat="36.44841" lon="29.34855">
        <ele>91.588693</ele>
        <time>2022-01-24T08:12:55.916Z</time>
      </trkpt>
      <trkpt lat="36.45054" lon="29.34753">
        <ele>119.805521</ele>
        <time>2022-01-24T08:16:10.950Z</time>
      </trkpt>
      <trkpt lat="36.45242" lon="29.34582">
        <ele>131.862166</ele>
        <time>2022-01-24T08:18:44.915Z</time>
      </trkpt>
      <trkpt lat="36.45501" lon="29.34545">
        <ele>128.094545</ele>
        <time>2022-01-24T08:20:35.901Z</time>
      </trkpt>
      <trkpt lat="36.45733" lon="29.34567">
        <ele>132.682278</ele>
        <time>2022-01-24T08:21:53.908Z</time>
      </trkpt>
      <trkpt lat="36.45947" lon="29.3469">
        <ele>140.219025</ele>
        <time>2022-01-24T08:23:38.918Z</time>
      </trkpt>
      <trkpt lat="36.46161" lon="29.34881">
        <ele>133.566626</ele>
        <time>2022-01-24T08:24:50.897Z</time>
      </trkpt>
      <trkpt lat="36.46338" lon="29.3496">
        <ele>121.620164</ele>
        <time>2022-01-24T08:25:42.903Z</time>
      </trkpt>
      <trkpt lat="36.46685" lon="29.34878">
        <ele>93.731355</ele>
        <time>2022-01-24T08:26:30.899Z</time>
      </trkpt>
      <trkpt lat="36.46905" lon="29.35074">
        <ele>89.627726</ele>
        <time>2022-01-24T08:27:22.926Z</time>
      </trkpt>
      <trkpt lat="36.47151" lon="29.35019">
        <ele>79.501323</ele>
        <time>2022-01-24T08:28:14.921Z</time>
      </trkpt>
      <trkpt lat="36.47396" lon="29.34999">
        <ele>75.972846</ele>
        <time>2022-01-24T08:29:05.903Z</time>
      </trkpt>
      <trkpt lat="36.47652" lon="29.34949">
        <ele>73.758746</ele>
        <time>2022-01-24T08:30:20.906Z</time>
      </trkpt>
      <trkpt lat="36.47903" lon="29.35003">
        <ele>68.455728</ele>
        <time>2022-01-24T08:31:24.912Z</time>
      </trkpt>
      <trkpt lat="36.48129" lon="29.35063">
        <ele>71.737828</ele>
        <time>2022-01-24T08:32:59.951Z</time>
      </trkpt>
      <trkpt lat="36.48366" lon="29.35077">
        <ele>78.294848</ele>
        <time>2022-01-24T08:34:52.915Z</time>
      </trkpt>
      <trkpt lat="36.48646" lon="29.35048">
        <ele>75.851461</ele>
        <time>2022-01-24T08:35:43.909Z</time>
      </trkpt>
      <trkpt lat="36.48875" lon="29.35031">
        <ele>73.733522</ele>
        <time>2022-01-24T08:36:52.957Z</time>
      </trkpt>
      <trkpt lat="36.49115" lon="29.35063">
        <ele>72.705448</ele>
        <time>2022-01-24T08:38:18.918Z</time>
      </trkpt>
      <trkpt lat="36.4937" lon="29.35172">
        <ele>71.405024</ele>
        <time>2022-01-24T08:39:38.912Z</time>
      </trkpt>
      <trkpt lat="36.49613" lon="29.35266">
        <ele>78.541132</ele>
        <time>2022-01-24T08:41:11.896Z</time>
      </trkpt>
      <trkpt lat="36.4982" lon="29.35376">
        <ele>88.07544</ele>
        <time>2022-01-24T08:42:43.914Z</time>
      </trkpt>
      <trkpt lat="36.50013" lon="29.35607">
        <ele>84.014737</ele>
        <time>2022-01-24T08:43:59.911Z</time>
      </trkpt>
      <trkpt lat="36.5019" lon="29.35833">
        <ele>89.110498</ele>
        <time>2022-01-24T08:45:32.932Z</time>
      </trkpt>
      <trkpt lat="36.50392" lon="29.35909">
        <ele>90.66401</ele>
        <time>2022-01-24T08:47:17.926Z</time>
      </trkpt>
      <trkpt lat="36.50631" lon="29.35835">
        <ele>92.275339</ele>
        <time>2022-01-24T08:48:47.914Z</time>
      </trkpt>
      <trkpt lat="36.50827" lon="29.3562">
        <ele>88.179365</ele>
        <time>2022-01-24T08:49:44.913Z</time>
      </trkpt>
      <trkpt lat="36.51053" lon="29.35503">
        <ele>83.290472</ele>
        <time>2022-01-24T08:50:50.907Z</time>
      </trkpt>
      <trkpt lat="36.51297" lon="29.35578">
        <ele>82.460097</ele>
        <time>2022-01-24T08:51:47.975Z</time>
      </trkpt>
      <trkpt lat="36.51524" lon="29.35728">
        <ele>83.602474</ele>
        <time>2022-01-24T08:52:49.913Z</time>
      </trkpt>
      <trkpt lat="36.51761" lon="29.3578">
        <ele>85.469688</ele>
        <time>2022-01-24T08:54:23.929Z</time>
      </trkpt>
      <trkpt lat="36.5196" lon="29.35947">
        <ele>86.676634</ele>
        <time>2022-01-24T08:55:34.918Z</time>
      </trkpt>
      <trkpt lat="36.522" lon="29.36006">
        <ele>89.235322</ele>
        <time>2022-01-24T08:57:01.951Z</time>
      </trkpt>
      <trkpt lat="36.52448" lon="29.36003">
        <ele>92.308818</ele>
        <time>2022-01-24T08:58:21.929Z</time>
      </trkpt>
      <trkpt lat="36.52683" lon="29.36002">
        <ele>90.007491</ele>
        <time>2022-01-24T08:59:32.916Z</time>
      </trkpt>
      <trkpt lat="36.52927" lon="29.35942">
        <ele>92.432419</ele>
        <time>2022-01-24T09:00:50.932Z</time>
      </trkpt>
      <trkpt lat="36.53165" lon="29.35959">
        <ele>95.574312</ele>
        <time>2022-01-24T09:02:06.919Z</time>
      </trkpt>
      <trkpt lat="36.53409" lon="29.35961">
        <ele>101.079525</ele>
        <time>2022-01-24T09:03:55.900Z</time>
      </trkpt>
      <trkpt lat="36.53636" lon="29.35878">
        <ele>102.628108</ele>
        <time>2022-01-24T09:18:53.933Z</time>
      </trkpt>
      <trkpt lat="36.53892" lon="29.35906">
        <ele>100.035815</ele>
        <time>2022-01-24T09:20:04.931Z</time>
      </trkpt>
      <trkpt lat="36.54067" lon="29.35914">
        <ele>103.339401</ele>
        <time>2022-01-24T09:34:31.925Z</time>
      </trkpt>
      <trkpt lat="36.54169" lon="29.36189">
        <ele>108.164979</ele>
        <time>2022-01-24T09:35:52.927Z</time>
      </trkpt>
      <trkpt lat="36.54267" lon="29.36465">
        <ele>112.285689</ele>
        <time>2022-01-24T09:37:27.932Z</time>
      </trkpt>
      <trkpt lat="36.54375" lon="29.3675">
        <ele>110.301262</ele>
        <time>2022-01-24T09:38:57.939Z</time>
      </trkpt>
      <trkpt lat="36.54481" lon="29.37037">
        <ele>116.211163</ele>
        <time>2022-01-24T09:40:33.937Z</time>
      </trkpt>
      <trkpt lat="36.54566" lon="29.37322">
        <ele>119.067447</ele>
        <time>2022-01-24T09:42:05.942Z</time>
      </trkpt>
      <trkpt lat="36.54591" lon="29.37627">
        <ele>130.954937</ele>
        <time>2022-01-24T09:43:52.946Z</time>
      </trkpt>
      <trkpt lat="36.54681" lon="29.37911">
        <ele>135.875595</ele>
        <time>2022-01-24T09:45:29.924Z</time>
      </trkpt>
      <trkpt lat="36.54759" lon="29.38186">
        <ele>145.639086</ele>
        <time>2022-01-24T09:47:20.933Z</time>
      </trkpt>
      <trkpt lat="36.54986" lon="29.38334">
        <ele>139.865402</ele>
        <time>2022-01-24T09:48:44.938Z</time>
      </trkpt>
      <trkpt lat="36.55209" lon="29.38463">
        <ele>141.805708</ele>
        <time>2022-01-24T09:50:04.917Z</time>
      </trkpt>
      <trkpt lat="36.55435" lon="29.38606">
        <ele>142.461488</ele>
        <time>2022-01-24T09:51:35.951Z</time>
      </trkpt>
      <trkpt lat="36.55649" lon="29.38737">
        <ele>145.260695</ele>
        <time>2022-01-24T09:52:54.941Z</time>
      </trkpt>
      <trkpt lat="36.55876" lon="29.3885">
        <ele>153.283133</ele>
        <time>2022-01-24T09:54:36.939Z</time>
      </trkpt>
      <trkpt lat="36.56098" lon="29.38966">
        <ele>160.361162</ele>
        <time>2022-01-24T09:56:35.978Z</time>
      </trkpt>
      <trkpt lat="36.56312" lon="29.39052">
        <ele>161.792003</ele>
        <time>2022-01-24T09:58:35.950Z</time>
      </trkpt>
      <trkpt lat="36.56552" lon="29.3896">
        <ele>163.705995</ele>
        <time>2022-01-24T10:00:08.000Z</time>
      </trkpt>
      <trkpt lat="36.56803" lon="29.38878">
        <ele>167.119353</ele>
        <time>2022-01-24T10:01:24.943Z</time>
      </trkpt>
      <trkpt lat="36.57033" lon="29.38929">
        <ele>166.834551</ele>
        <time>2022-01-24T10:02:46.941Z</time>
      </trkpt>
      <trkpt lat="36.57288" lon="29.38957">
        <ele>166.416126</ele>
        <time>2022-01-24T10:04:05.962Z</time>
      </trkpt>
      <trkpt lat="36.57528" lon="29.38867">
        <ele>165.250014</ele>
        <time>2022-01-24T10:05:22.934Z</time>
      </trkpt>
      <trkpt lat="36.57739" lon="29.3873">
        <ele>173.671645</ele>
        <time>2022-01-24T10:07:13.947Z</time>
      </trkpt>
      <trkpt lat="36.57941" lon="29.38525">
        <ele>174.147652</ele>
        <time>2022-01-24T10:08:32.986Z</time>
      </trkpt>
      <trkpt lat="36.58154" lon="29.38304">
        <ele>171.038787</ele>
        <time>2022-01-24T10:09:30.946Z</time>
      </trkpt>
      <trkpt lat="36.58387" lon="29.38151">
        <ele>161.360932</ele>
        <time>2022-01-24T10:10:23.958Z</time>
      </trkpt>
      <trkpt lat="36.58693" lon="29.38026">
        <ele>149.027789</ele>
        <time>2022-01-24T10:11:09.930Z</time>
      </trkpt>
      <trkpt lat="36.58936" lon="29.37981">
        <ele>154.781259</ele>
        <time>2022-01-24T10:12:36.987Z</time>
      </trkpt>
      <trkpt lat="36.59176" lon="29.37889">
        <ele>152.443348</ele>
        <time>2022-01-24T10:13:40.949Z</time>
      </trkpt>
      <trkpt lat="36.59414" lon="29.378">
        <ele>161.421369</ele>
        <time>2022-01-24T10:15:03.957Z</time>
      </trkpt>
      <trkpt lat="36.59662" lon="29.37753">
        <ele>161.270643</ele>
        <time>2022-01-24T10:16:09.959Z</time>
      </trkpt>
      <trkpt lat="36.60005" lon="29.37678">
        <ele>143.410271</ele>
        <time>2022-01-24T10:16:57.931Z</time>
      </trkpt>
      <trkpt lat="36.603" lon="29.376">
        <ele>140.22987</ele>
        <time>2022-01-24T10:17:45.936Z</time>
      </trkpt>
      <trkpt lat="36.60571" lon="29.37552">
        <ele>134.611765</ele>
        <time>2022-01-24T10:18:38.937Z</time>
      </trkpt>
      <trkpt lat="36.6082" lon="29.37494">
        <ele>140.764946</ele>
        <time>2022-01-24T10:19:50.949Z</time>
      </trkpt>
      <trkpt lat="36.61094" lon="29.37483">
        <ele>140.735774</ele>
        <time>2022-01-24T10:20:55.955Z</time>
      </trkpt>
      <trkpt lat="36.61309" lon="29.37411">
        <ele>142.831869</ele>
        <time>2022-01-24T10:22:03.952Z</time>
      </trkpt>
      <trkpt lat="36.61503" lon="29.37245">
        <ele>155.31292</ele>
        <time>2022-01-24T10:24:10.948Z</time>
      </trkpt>
      <trkpt lat="36.61743" lon="29.37142">
        <ele>160.532424</ele>
        <time>2022-01-24T10:25:39.938Z</time>
      </trkpt>
      <trkpt lat="36.61998" lon="29.37041">
        <ele>160.528583</ele>
        <time>2022-01-24T10:27:10.965Z</time>
      </trkpt>
      <trkpt lat="36.62245" lon="29.36979">
        <ele>160.540072</ele>
        <time>2022-01-24T10:28:17.955Z</time>
      </trkpt>
      <trkpt lat="36.62495" lon="29.36923">
        <ele>160.108071</ele>
        <time>2022-01-24T10:29:29.939Z</time>
      </trkpt>
      <trkpt lat="36.62729" lon="29.36797">
        <ele>160.001709</ele>
        <time>2022-01-24T10:30:39.961Z</time>
      </trkpt>
      <trkpt lat="36.62981" lon="29.36798">
        <ele>157.541203</ele>
        <time>2022-01-24T10:31:44.945Z</time>
      </trkpt>
      <trkpt lat="36.63269" lon="29.3681">
        <ele>160.081664</ele>
        <time>2022-01-24T10:32:56.944Z</time>
      </trkpt>
      <trkpt lat="36.63557" lon="29.36814">
        <ele>156.367449</ele>
        <time>2022-01-24T10:34:06.954Z</time>
      </trkpt>
      <trkpt lat="36.63543" lon="29.36599">
        <ele>151.767785</ele>
        <time>2022-01-24T10:35:18.959Z</time>
      </trkpt>
      <trkpt lat="36.63434" lon="29.36324">
        <ele>148.873422</ele>
        <time>2022-01-24T10:36:06.948Z</time>
      </trkpt>
      <trkpt lat="36.63431" lon="29.36135">
        <ele>151.740248</ele>
        <time>2022-01-24T10:37:37.930Z</time>
      </trkpt>
      <trkpt lat="36.63533" lon="29.35857">
        <ele>158.72234</ele>
        <time>2022-01-24T10:38:53.941Z</time>
      </trkpt>
      <trkpt lat="36.63668" lon="29.35626">
        <ele>160.702707</ele>
        <time>2022-01-24T10:40:12.943Z</time>
      </trkpt>
      <trkpt lat="36.6377" lon="29.35339">
        <ele>162.130238</ele>
        <time>2022-01-24T10:41:24.947Z</time>
      </trkpt>
      <trkpt lat="36.63827" lon="29.35061">
        <ele>164.20567</ele>
        <time>2022-01-24T10:42:40.948Z</time>
      </trkpt>
      <trkpt lat="36.63871" lon="29.34773">
        <ele>165.590218</ele>
        <time>2022-01-24T10:43:59.948Z</time>
      </trkpt>
      <trkpt lat="36.63928" lon="29.34473">
        <ele>168.409754</ele>
        <time>2022-01-24T10:45:30.993Z</time>
      </trkpt>
      <trkpt lat="36.63973" lon="29.34182">
        <ele>174.165758</ele>
        <time>2022-01-24T10:46:47.958Z</time>
      </trkpt>
      <trkpt lat="36.64023" lon="29.33879">
        <ele>179.819328</ele>
        <time>2022-01-24T10:48:14.964Z</time>
      </trkpt>
      <trkpt lat="36.64067" lon="29.33583">
        <ele>185.896306</ele>
        <time>2022-01-24T10:49:47.953Z</time>
      </trkpt>
      <trkpt lat="36.6412" lon="29.33273">
        <ele>185.244277</ele>
        <time>2022-01-24T10:51:18.953Z</time>
      </trkpt>
      <trkpt lat="36.64185" lon="29.3295">
        <ele>185.331564</ele>
        <time>2022-01-24T10:52:53.951Z</time>
      </trkpt>
      <trkpt lat="36.64228" lon="29.3265">
        <ele>190.626801</ele>
        <time>2022-01-24T10:54:25.966Z</time>
      </trkpt>
      <trkpt lat="36.64279" lon="29.32343">
        <ele>189.208544</ele>
        <time>2022-01-24T10:56:01.966Z</time>
      </trkpt>
      <trkpt lat="36.64323" lon="29.32035">
        <ele>190.322957</ele>
        <time>2022-01-24T10:57:37.952Z</time>
      </trkpt>
      <trkpt lat="36.6432" lon="29.31725">
        <ele>196.870056</ele>
        <time>2022-01-24T10:59:08.948Z</time>
      </trkpt>
      <trkpt lat="36.64312" lon="29.31419">
        <ele>196.888175</ele>
        <time>2022-01-24T11:00:28.951Z</time>
      </trkpt>
      <trkpt lat="36.64299" lon="29.31108">
        <ele>204.010315</ele>
        <time>2022-01-24T11:01:59.939Z</time>
      </trkpt>
      <trkpt lat="36.64286" lon="29.30789">
        <ele>207.116572</ele>
        <time>2022-01-24T11:03:35.949Z</time>
      </trkpt>
      <trkpt lat="36.64275" lon="29.30489">
        <ele>211.30191</ele>
        <time>2022-01-24T11:05:06.941Z</time>
      </trkpt>
      <trkpt lat="36.64264" lon="29.30168">
        <ele>213.608834</ele>
        <time>2022-01-24T11:06:42.996Z</time>
      </trkpt>
      <trkpt lat="36.64253" lon="29.29857">
        <ele>221.388273</ele>
        <time>2022-01-24T11:08:18.955Z</time>
      </trkpt>
      <trkpt lat="36.64227" lon="29.29549">
        <ele>223.019415</ele>
        <time>2022-01-24T11:09:49.958Z</time>
      </trkpt>
      <trkpt lat="36.64171" lon="29.29231">
        <ele>227.873868</ele>
        <time>2022-01-24T11:11:25.989Z</time>
      </trkpt>
      <trkpt lat="36.64102" lon="29.28931">
        <ele>230.972595</ele>
        <time>2022-01-24T11:12:45.951Z</time>
      </trkpt>
      <trkpt lat="36.64032" lon="29.28601">
        <ele>234.930678</ele>
        <time>2022-01-24T11:13:57.976Z</time>
      </trkpt>
      <trkpt lat="36.63965" lon="29.28302">
        <ele>238.372589</ele>
        <time>2022-01-24T11:15:06.976Z</time>
      </trkpt>
      <trkpt lat="36.63894" lon="29.2798">
        <ele>239.037137</ele>
        <time>2022-01-24T11:16:18.971Z</time>
      </trkpt>
      <trkpt lat="36.63828" lon="29.27654">
        <ele>235.596367</ele>
        <time>2022-01-24T11:17:30.961Z</time>
      </trkpt>
      <trkpt lat="36.63712" lon="29.27414">
        <ele>235.828067</ele>
        <time>2022-01-24T11:18:46.961Z</time>
      </trkpt>
      <trkpt lat="36.63513" lon="29.27169">
        <ele>229.757587</ele>
        <time>2022-01-24T11:21:46.976Z</time>
      </trkpt>
      <trkpt lat="36.63314" lon="29.26869">
        <ele>215.588956</ele>
        <time>2022-01-24T11:22:46.985Z</time>
      </trkpt>
      <trkpt lat="36.63151" lon="29.26574">
        <ele>204.802929</ele>
        <time>2022-01-24T11:23:38.963Z</time>
      </trkpt>
      <trkpt lat="36.63175" lon="29.26185">
        <ele>183.127527</ele>
        <time>2022-01-24T11:24:14.968Z</time>
      </trkpt>
      <trkpt lat="36.63082" lon="29.25855">
        <ele>183.904299</ele>
        <time>2022-01-24T11:25:19.959Z</time>
      </trkpt>
      <trkpt lat="36.62825" lon="29.25555">
        <ele>175.807326</ele>
        <time>2022-01-24T11:26:07.991Z</time>
      </trkpt>
      <trkpt lat="36.62658" lon="29.25254">
        <ele>166.164573</ele>
        <time>2022-01-24T11:26:54.967Z</time>
      </trkpt>
      <trkpt lat="36.6263" lon="29.24922">
        <ele>165.23739</ele>
        <time>2022-01-24T11:27:48.977Z</time>
      </trkpt>
      <trkpt lat="36.62609" lon="29.24601">
        <ele>158.160284</ele>
        <time>2022-01-24T11:28:42.984Z</time>
      </trkpt>
      <trkpt lat="36.62477" lon="29.24257">
        <ele>150.713929</ele>
        <time>2022-01-24T11:29:34.959Z</time>
      </trkpt>
      <trkpt lat="36.62456" lon="29.23849">
        <ele>146.425598</ele>
        <time>2022-01-24T11:30:27.964Z</time>
      </trkpt>
      <trkpt lat="36.62379" lon="29.23509">
        <ele>153.312478</ele>
        <time>2022-01-24T11:31:27.967Z</time>
      </trkpt>
      <trkpt lat="36.62501" lon="29.23177">
        <ele>132.089605</ele>
        <time>2022-01-24T11:32:15.954Z</time>
      </trkpt>
      <trkpt lat="36.62621" lon="29.22801">
        <ele>125.815695</ele>
        <time>2022-01-24T11:33:01.975Z</time>
      </trkpt>
      <trkpt lat="36.62688" lon="29.22461">
        <ele>121.135552</ele>
        <time>2022-01-24T11:33:49.984Z</time>
      </trkpt>
      <trkpt lat="36.62749" lon="29.22148">
        <ele>119.407653</ele>
        <time>2022-01-24T11:34:50.960Z</time>
      </trkpt>
      <trkpt lat="36.62816" lon="29.21848">
        <ele>127.747123</ele>
        <time>2022-01-24T11:35:43.948Z</time>
      </trkpt>
      <trkpt lat="36.62922" lon="29.2157">
        <ele>124.257032</ele>
        <time>2022-01-24T11:36:36.956Z</time>
      </trkpt>
      <trkpt lat="36.63024" lon="29.21263">
        <ele>110.307542</ele>
        <time>2022-01-24T11:37:24.979Z</time>
      </trkpt>
      <trkpt lat="36.6311" lon="29.20985">
        <ele>108.215877</ele>
        <time>2022-01-24T11:38:11.966Z</time>
      </trkpt>
      <trkpt lat="36.6321" lon="29.20679">
        <ele>108.010948</ele>
        <time>2022-01-24T11:38:59.980Z</time>
      </trkpt>
      <trkpt lat="36.63304" lon="29.20375">
        <ele>101.868316</ele>
        <time>2022-01-24T11:39:47.957Z</time>
      </trkpt>
      <trkpt lat="36.63393" lon="29.2007">
        <ele>94.576586</ele>
        <time>2022-01-24T11:40:35.965Z</time>
      </trkpt>
      <trkpt lat="36.63474" lon="29.19806">
        <ele>90.830032</ele>
        <time>2022-01-24T11:41:22.968Z</time>
      </trkpt>
      <trkpt lat="36.6356" lon="29.19534">
        <ele>89.622612</ele>
        <time>2022-01-24T11:42:12.949Z</time>
      </trkpt>
      <trkpt lat="36.63654" lon="29.1924">
        <ele>82.838031</ele>
        <time>2022-01-24T11:43:07.991Z</time>
      </trkpt>
      <trkpt lat="36.63749" lon="29.1893">
        <ele>84.77919</ele>
        <time>2022-01-24T11:44:07.973Z</time>
      </trkpt>
      <trkpt lat="36.63836" lon="29.18653">
        <ele>84.36381</ele>
        <time>2022-01-24T11:44:57.955Z</time>
      </trkpt>
      <trkpt lat="36.63927" lon="29.1836">
        <ele>77.853856</ele>
        <time>2022-01-24T11:45:53.977Z</time>
      </trkpt>
      <trkpt lat="36.64015" lon="29.18082">
        <ele>76.217422</ele>
        <time>2022-01-24T11:46:41.952Z</time>
      </trkpt>
      <trkpt lat="36.64121" lon="29.17843">
        <ele>78.681688</ele>
        <time>2022-01-24T11:47:27.959Z</time>
      </trkpt>
      <trkpt lat="36.6428" lon="29.17597">
        <ele>74.649572</ele>
        <time>2022-01-24T11:48:25.974Z</time>
      </trkpt>
      <trkpt lat="36.6415" lon="29.17321">
        <ele>74.929656</ele>
        <time>2022-01-24T11:49:18.953Z</time>
      </trkpt>
      <trkpt lat="36.64023" lon="29.17042">
        <ele>69.083158</ele>
        <time>2022-01-24T11:50:04.982Z</time>
      </trkpt>
      <trkpt lat="36.63891" lon="29.16747">
        <ele>65.719465</ele>
        <time>2022-01-24T11:50:54.995Z</time>
      </trkpt>
      <trkpt lat="36.63769" lon="29.16468">
        <ele>60.933578</ele>
        <time>2022-01-24T11:51:42.979Z</time>
      </trkpt>
      <trkpt lat="36.63643" lon="29.16178">
        <ele>63.19593</ele>
        <time>2022-01-24T11:52:28.945Z</time>
      </trkpt>
      <trkpt lat="36.63519" lon="29.1592">
        <ele>62.473374</ele>
        <time>2022-01-24T11:53:17.965Z</time>
      </trkpt>
      <trkpt lat="36.63396" lon="29.15608">
        <ele>66.718563</ele>
        <time>2022-01-24T11:54:05.981Z</time>
      </trkpt>
      <trkpt lat="36.63295" lon="29.15305">
        <ele>57.383045</ele>
        <time>2022-01-24T11:54:54.970Z</time>
      </trkpt>
      <trkpt lat="36.63183" lon="29.15031">
        <ele>51.360622</ele>
        <time>2022-01-24T11:55:43.967Z</time>
      </trkpt>
      <trkpt lat="36.63086" lon="29.14752">
        <ele>50.093687</ele>
        <time>2022-01-24T11:56:31.974Z</time>
      </trkpt>
      <trkpt lat="36.62978" lon="29.14484">
        <ele>50.059165</ele>
        <time>2022-01-24T11:57:19.984Z</time>
      </trkpt>
      <trkpt lat="36.62885" lon="29.14215">
        <ele>54.02479</ele>
        <time>2022-01-24T11:58:06.965Z</time>
      </trkpt>
      <trkpt lat="36.62783" lon="29.13939">
        <ele>53.085267</ele>
        <time>2022-01-24T11:58:58.963Z</time>
      </trkpt>
      <trkpt lat="36.62663" lon="29.13631">
        <ele>41.697711</ele>
        <time>2022-01-24T12:00:55.961Z</time>
      </trkpt>
      <trkpt lat="36.62547" lon="29.13349">
        <ele>28.292716</ele>
        <time>2022-01-24T12:01:49.988Z</time>
      </trkpt>
      <trkpt lat="36.62439" lon="29.13137">
        <ele>41.814278</ele>
        <time>2022-01-24T12:04:43.969Z</time>
      </trkpt>
      <trkpt lat="36.62396" lon="29.12833">
        <ele>28.354658</ele>
        <time>2022-01-24T12:06:05.968Z</time>
      </trkpt>
      <trkpt lat="36.62293" lon="29.12531">
        <ele>25.236224</ele>
        <time>2022-01-24T12:07:23.953Z</time>
      </trkpt>
      <trkpt lat="36.62201" lon="29.12219">
        <ele>26.373017</ele>
        <time>2022-01-24T12:08:25.970Z</time>
      </trkpt>
      <trkpt lat="36.62191" lon="29.1189">
        <ele>50.557993</ele>
        <time>2022-01-24T12:09:38.006Z</time>
      </trkpt>
      <trkpt lat="36.62211" lon="29.11551">
        <ele>43.074534</ele>
        <time>2022-01-24T12:10:56.999Z</time>
      </trkpt>
      <trkpt lat="36.6221" lon="29.11228">
        <ele>44.692095</ele>
        <time>2022-01-24T12:12:04.983Z</time>
      </trkpt>
      <trkpt lat="36.62184" lon="29.10934">
        <ele>41.7749</ele>
        <time>2022-01-24T12:13:18.974Z</time>
      </trkpt>
      <trkpt lat="36.62035" lon="29.10947">
        <ele>40.222569</ele>
        <time>2022-01-24T12:23:30.654Z</time>
      </trkpt>
      <trkpt lat="36.62532" lon="29.20954">
        <ele>115.461826</ele>
        <time>2022-02-24T08:00:00.256Z</time>
      </trkpt>
      <trkpt lat="36.64243" lon="29.1752">
        <ele>44.592056</ele>
        <time>2022-02-24T08:14:43.792Z</time>
      </trkpt>
      <trkpt lat="36.68755" lon="29.10202">
        <ele>9.883536</ele>
        <time>2022-02-24T08:55:08.173Z</time>
      </trkpt>
      <trkpt lat="36.73619" lon="29.02304">
        <ele>100.675439</ele>
        <time>2022-02-24T09:51:44.907Z</time>
      </trkpt>
      <trkpt lat="36.75834" lon="28.93437">
        <ele>10.037803</ele>
        <time>2022-02-24T10:45:42.648Z</time>
      </trkpt>
      <trkpt lat="36.82869" lon="28.78449">
        <ele>20.568906</ele>
        <time>2022-02-24T12:10:55.614Z</time>
      </trkpt>
      <trkpt lat="36.94019" lon="28.73996">
        <ele>19.781917</ele>
        <time>2022-02-24T13:19:15.502Z</time>
      </trkpt>
      <trkpt lat="36.99345" lon="28.57894">
        <ele>65.395619</ele>
        <time>2022-02-24T14:39:05.657Z</time>
      </trkpt>
      <trkpt lat="37.07496" lon="28.5026">
        <ele>431.413477</ele>
        <time>2022-02-24T16:11:09.338Z</time>
      </trkpt>
      <trkpt lat="37.1086" lon="28.41402">
        <ele>610.525707</ele>
        <time>2022-02-24T17:22:27.252Z</time>
      </trkpt>
      <trkpt lat="37.22105" lon="28.34406">
        <ele>665.368896</ele>
        <time>2022-02-24T18:42:04.042Z</time>
      </trkpt>
      <trkpt lat="37.27383" lon="28.20787">
        <ele>411.423711</ele>
        <time>2022-02-24T19:37:09.099Z</time>
      </trkpt>
      <trkpt lat="37.40245" lon="28.15616">
        <ele>432.920298</ele>
        <time>2022-02-24T20:53:39.814Z</time>
      </trkpt>
      <trkpt lat="37.49814" lon="28.11633">
        <ele>306.715477</ele>
        <time>2022-02-24T21:53:45.958Z</time>
      </trkpt>
      <trkpt lat="37.57229" lon="28.05758">
        <ele>69.492777</ele>
        <time>2022-02-24T22:42:07.718Z</time>
      </trkpt>
      <trkpt lat="37.6853" lon="28.00805">
        <ele>66.06357</ele>
        <time>2022-02-24T23:42:09.886Z</time>
      </trkpt>
      <trkpt lat="37.76865" lon="27.83483">
        <ele>30.123823</ele>
        <time>2022-02-25T01:05:19.442Z</time>
      </trkpt>
      <trkpt lat="37.83984" lon="27.77142">
        <ele>36.566567</ele>
        <time>2022-02-25T01:59:38.983Z</time>
      </trkpt>
      <trkpt lat="37.87327" lon="27.59702">
        <ele>63.704379</ele>
        <time>2022-02-25T03:11:19.243Z</time>
      </trkpt>
      <trkpt lat="37.92805" lon="27.51672">
        <ele>168.792444</ele>
        <time>2022-02-25T04:08:41.827Z</time>
      </trkpt>
      <trkpt lat="37.99078" lon="27.50236">
        <ele>169.892407</ele>
        <time>2022-02-25T05:07:37.108Z</time>
      </trkpt>
      <trkpt lat="38.09592" lon="27.39388">
        <ele>11.79623</ele>
        <time>2022-02-25T06:15:40.220Z</time>
      </trkpt>
      <trkpt lat="38.21395" lon="27.33104">
        <ele>65.671215</ele>
        <time>2022-02-25T07:20:23.334Z</time>
      </trkpt>
      <trkpt lat="38.29189" lon="27.18817">
        <ele>146.031614</ele>
        <time>2022-02-25T08:36:16.226Z</time>
      </trkpt>
      <trkpt lat="38.33422" lon="27.13751">
        <ele>120.152294</ele>
        <time>2022-02-25T09:07:56.768Z</time>
      </trkpt>
      <trkpt lat="38.37925" lon="27.13566">
        <ele>60.957035</ele>
        <time>2022-02-25T09:28:48.403Z</time>
      </trkpt>
      <trkpt lat="38.41642" lon="27.14521">
        <ele>113.093289</ele>
        <time>2022-02-25T09:59:42.752Z</time>
      </trkpt>
      <trkpt lat="38.46497" lon="27.12985">
        <ele>1.687553</ele>
        <time>2022-02-25T10:41:26.238Z</time>
      </trkpt>
      <trkpt lat="38.47067" lon="27.0653">
        <ele>-1.153458</ele>
        <time>2022-02-25T11:14:58.814Z</time>
      </trkpt>
      <trkpt lat="38.58308" lon="26.94353">
        <ele>3.643736</ele>
        <time>2022-02-25T12:57:07.452Z</time>
      </trkpt>
      <trkpt lat="38.65559" lon="26.90314">
        <ele>20.411869</ele>
        <time>2022-02-25T13:51:41.819Z</time>
      </trkpt>
      <trkpt lat="38.74666" lon="26.91093">
        <ele>43.15576</ele>
        <time>2022-02-25T14:44:55.926Z</time>
      </trkpt>
      <trkpt lat="38.79624" lon="26.96443">
        <ele>15.651276</ele>
        <time>2022-02-25T15:30:02.088Z</time>
      </trkpt>
      <trkpt lat="38.8546" lon="27.03913">
        <ele>14.354632</ele>
        <time>2022-02-25T16:14:03.660Z</time>
      </trkpt>
      <trkpt lat="38.91055" lon="27.05366">
        <ele>19.996602</ele>
        <time>2022-02-25T16:53:39.188Z</time>
      </trkpt>
      <trkpt lat="38.968" lon="27.07739">
        <ele>162.076324</ele>
        <time>2022-02-25T17:46:53.035Z</time>
      </trkpt>
      <trkpt lat="39.03578" lon="27.11645">
        <ele>155.141707</ele>
        <time>2022-02-25T18:41:28.584Z</time>
      </trkpt>
      <trkpt lat="39.07647" lon="27.19561">
        <ele>56.412975</ele>
        <time>2022-02-25T19:34:01.377Z</time>
      </trkpt>
      <trkpt lat="39.08736" lon="27.30392">
        <ele>49.493037</ele>
        <time>2022-02-25T20:24:17.350Z</time>
      </trkpt>
      <trkpt lat="39.11581" lon="27.4318">
        <ele>58.261456</ele>
        <time>2022-02-25T21:20:52.810Z</time>
      </trkpt>
      <trkpt lat="39.21911" lon="27.56468">
        <ele>178.877799</ele>
        <time>2022-02-25T22:46:05.520Z</time>
      </trkpt>
      <trkpt lat="39.37922" lon="27.6464">
        <ele>257.202709</ele>
        <time>2022-02-26T00:25:09.258Z</time>
      </trkpt>
      <trkpt lat="39.47735" lon="27.65427">
        <ele>472.08764</ele>
        <time>2022-02-26T01:47:40.604Z</time>
      </trkpt>
      <trkpt lat="39.55189" lon="27.69255">
        <ele>338.553336</ele>
        <time>2022-02-26T02:56:15.309Z</time>
      </trkpt>
      <trkpt lat="39.62338" lon="27.70859">
        <ele>376.45489</ele>
        <time>2022-02-26T03:57:12.084Z</time>
      </trkpt>
      <trkpt lat="39.65643" lon="27.85064">
        <ele>179.395921</ele>
        <time>2022-02-26T04:57:48.417Z</time>
      </trkpt>
      <trkpt lat="39.68351" lon="27.90747">
        <ele>163.245392</ele>
        <time>2022-02-26T05:27:59.010Z</time>
      </trkpt>
      <trkpt lat="39.75404" lon="28.00116">
        <ele>248.823663</ele>
        <time>2022-02-26T06:37:28.481Z</time>
      </trkpt>
      <trkpt lat="39.86804" lon="28.11616">
        <ele>203.578893</ele>
        <time>2022-02-26T08:01:05.608Z</time>
      </trkpt>
      <trkpt lat="39.9477" lon="28.19014">
        <ele>46.357581</ele>
        <time>2022-02-26T08:50:02.037Z</time>
      </trkpt>
      <trkpt lat="40.05458" lon="28.23428">
        <ele>24.399192</ele>
        <time>2022-02-26T09:55:23.157Z</time>
      </trkpt>
      <trkpt lat="40.16457" lon="28.35536">
        <ele>8.124271</ele>
        <time>2022-02-26T11:17:06.110Z</time>
      </trkpt>
      <trkpt lat="40.2435" lon="28.41381">
        <ele>15.314947</ele>
        <time>2022-02-26T12:09:11.525Z</time>
      </trkpt>
      <trkpt lat="40.26311" lon="28.50344">
        <ele>150.112198</ele>
        <time>2022-02-26T13:05:08.208Z</time>
      </trkpt>
      <trkpt lat="40.28443" lon="28.60607">
        <ele>154.025419</ele>
        <time>2022-02-26T14:05:54.682Z</time>
      </trkpt>
      <trkpt lat="40.2627" lon="28.70471">
        <ele>109.25271</ele>
        <time>2022-02-26T15:02:13.778Z</time>
      </trkpt>
      <trkpt lat="40.31601" lon="28.77974">
        <ele>263.816693</ele>
        <time>2022-02-26T16:03:53.196Z</time>
      </trkpt>
      <trkpt lat="40.33387" lon="28.84729">
        <ele>346.151093</ele>
        <time>2022-02-26T16:50:32.034Z</time>
      </trkpt>
      <trkpt lat="40.35484" lon="28.93377">
        <ele>57.940774</ele>
        <time>2022-02-26T17:23:56.315Z</time>
      </trkpt>
      <trkpt lat="40.36002" lon="29.01217">
        <ele>35.025442</ele>
        <time>2022-02-26T18:05:41.469Z</time>
      </trkpt>
      <trkpt lat="40.3896" lon="29.10825">
        <ele>18.582286</ele>
        <time>2022-02-26T18:49:00.801Z</time>
      </trkpt>
      <trkpt lat="40.42374" lon="29.19141">
        <ele>42.122984</ele>
        <time>2022-02-26T19:38:56.725Z</time>
      </trkpt>
      <trkpt lat="40.49631" lon="29.31344">
        <ele>110.758508</ele>
        <time>2022-02-26T20:49:31.439Z</time>
      </trkpt>
      <trkpt lat="40.56284" lon="29.32714">
        <ele>451.533566</ele>
        <time>2022-02-26T21:52:58.937Z</time>
      </trkpt>
      <trkpt lat="40.61092" lon="29.30261">
        <ele>174.195888</ele>
        <time>2022-02-26T22:27:50.873Z</time>
      </trkpt>
      <trkpt lat="40.66736" lon="29.34651">
        <ele>32.86183</ele>
        <time>2022-02-26T23:06:35.372Z</time>
      </trkpt>
      <trkpt lat="40.76933" lon="29.42724">
        <ele>3.580724</ele>
        <time>2022-02-27T00:10:41.969Z</time>
      </trkpt>
      <trkpt lat="40.81372" lon="29.43078">
        <ele>166.363561</ele>
        <time>2022-02-27T00:55:40.344Z</time>
      </trkpt>
      <trkpt lat="40.8932" lon="29.41542">
        <ele>245.268995</ele>
        <time>2022-02-27T01:46:03.268Z</time>
      </trkpt>
      <trkpt lat="40.88081" lon="29.34509">
        <ele>97.482155</ele>
        <time>2022-02-27T02:15:41.136Z</time>
      </trkpt>
      <trkpt lat="40.86933" lon="29.2871">
        <ele>31.608758</ele>
        <time>2022-02-27T02:40:48.095Z</time>
      </trkpt>
      <trkpt lat="40.87365" lon="29.25187">
        <ele>12.689807</ele>
        <time>2022-02-27T02:56:58.716Z</time>
      </trkpt>
      <trkpt lat="40.89359" lon="29.16982">
        <ele>-0.307228</ele>
        <time>2022-02-27T03:31:11.817Z</time>
      </trkpt>
      <trkpt lat="40.94815" lon="29.09992">
        <ele>0.931278</ele>
        <time>2022-02-27T04:09:06.402Z</time>
      </trkpt>
      <trkpt lat="40.97077" lon="29.04398">
        <ele>13.26668</ele>
        <time>2022-02-27T04:35:19.065Z</time>
      </trkpt>
      <trkpt lat="41.01618" lon="28.97765">
        <ele>6.580258</ele>
        <time>2022-02-27T05:14:55.854Z</time>
      </trkpt>
      <trkpt lat="41.00684" lon="28.9343">
        <ele>46.453668</ele>
        <time>2022-02-27T05:41:54.825Z</time>
      </trkpt>
      <trkpt lat="40.99547" lon="28.88487">
        <ele>24.591195</ele>
        <time>2022-02-27T06:06:33.565Z</time>
      </trkpt>
      <trkpt lat="40.99437" lon="28.81684">
        <ele>10.352067</ele>
        <time>2022-02-27T06:35:54.802Z</time>
      </trkpt>
      <trkpt lat="40.98017" lon="28.73792">
        <ele>47.788025</ele>
        <time>2022-02-27T07:16:01.227Z</time>
      </trkpt>
      <trkpt lat="41.00987" lon="28.65676">
        <ele>146.169138</ele>
        <time>2022-02-27T08:05:33.628Z</time>
      </trkpt>
      <trkpt lat="41.02149" lon="28.57631">
        <ele>3.117982</ele>
        <time>2022-02-27T08:35:58.566Z</time>
      </trkpt>
      <trkpt lat="41.02062" lon="28.48139">
        <ele>51.587649</ele>
        <time>2022-02-27T09:20:04.031Z</time>
      </trkpt>
      <trkpt lat="41.04405" lon="28.41381">
        <ele>6.683687</ele>
        <time>2022-02-27T09:47:56.336Z</time>
      </trkpt>
      <trkpt lat="41.067" lon="28.30485">
        <ele>24.5867</ele>
        <time>2022-02-27T10:33:27.876Z</time>
      </trkpt>
      <trkpt lat="41.07794" lon="28.21735">
        <ele>32.142554</ele>
        <time>2022-02-27T11:13:03.005Z</time>
      </trkpt>
      <trkpt lat="41.07509" lon="28.13328">
        <ele>41.70081</ele>
        <time>2022-02-27T11:50:38.689Z</time>
      </trkpt>
      <trkpt lat="41.09759" lon="27.99594">
        <ele>40.943742</ele>
        <time>2022-02-27T12:53:08.062Z</time>
      </trkpt>
      <trkpt lat="41.14664" lon="27.84892">
        <ele>158.954034</ele>
        <time>2022-02-27T14:08:15.712Z</time>
      </trkpt>
      <trkpt lat="41.1779" lon="27.77568">
        <ele>116.859387</ele>
        <time>2022-02-27T14:39:25.804Z</time>
      </trkpt>
      <trkpt lat="41.25918" lon="27.66617">
        <ele>121.674003</ele>
        <time>2022-02-27T15:44:27.520Z</time>
      </trkpt>
      <trkpt lat="41.30793" lon="27.53631">
        <ele>65.373857</ele>
        <time>2022-02-27T16:35:54.110Z</time>
      </trkpt>
      <trkpt lat="41.39557" lon="27.3949">
        <ele>75.489857</ele>
        <time>2022-02-27T17:53:59.373Z</time>
      </trkpt>
      <trkpt lat="41.42927" lon="27.31962">
        <ele>95.605111</ele>
        <time>2022-02-27T18:34:01.127Z</time>
      </trkpt>
      <trkpt lat="41.45643" lon="27.20749">
        <ele>86.910316</ele>
        <time>2022-02-27T19:36:15.922Z</time>
      </trkpt>
      <trkpt lat="41.43531" lon="27.08161">
        <ele>69.232092</ele>
        <time>2022-02-27T20:28:16.661Z</time>
      </trkpt>
      <trkpt lat="41.5043" lon="26.90042">
        <ele>59.606593</ele>
        <time>2022-02-27T21:45:17.177Z</time>
      </trkpt>
      <trkpt lat="41.58512" lon="26.71121">
        <ele>102.633411</ele>
        <time>2022-02-27T23:11:28.774Z</time>
      </trkpt>
      <trkpt lat="41.66013" lon="26.58523">
        <ele>42.290467</ele>
        <time>2022-02-28T00:09:10.139Z</time>
      </trkpt>
      <trkpt lat="41.67606" lon="26.55887">
        <ele>73.899811</ele>
        <time>2022-02-28T00:25:07.614Z</time>
      </trkpt>
    </trkseg>
  </trk>
</gpx>